<?xml version="1.0" encoding="UTF-8" standalone="no" ?>
<gpx xmlns="http://www.topografix.com/GPX/1/1" xmlns:xsi="http://www.w3.org/2001/XMLSchema-instance" xsi:schemaLocation="http://www.topografix.com/GPX/1/1 http://www.topografix.com/GPX/1/1/gpx.xsd" version="1.1" creator="VisuGPX - https://www.visugpx.com">
  <metadata>
    <name>Rallye marcelcave </name>
    <desc><![CDATA[Noyers, cerisiers ]]></desc>
  </metadata>
  <trk>
    <name><![CDATA[Rallye marcelcave _1]]></name>
    <trkseg>
      <trkpt lat="49.84409" lon="2.57569">
        <ele>93.7</ele>
        <time>2023-07-02T09:34:44Z</time>
      </trkpt>
      <trkpt lat="49.8441" lon="2.5757">
        <ele>93.7</ele>
        <time>2023-07-02T09:34:45Z</time>
      </trkpt>
      <trkpt lat="49.8441" lon="2.5757">
        <ele>93.7</ele>
        <time>2023-07-02T09:34:46Z</time>
      </trkpt>
      <trkpt lat="49.8441" lon="2.5757">
        <ele>93.7</ele>
        <time>2023-07-02T09:34:47Z</time>
      </trkpt>
      <trkpt lat="49.8441" lon="2.5757">
        <ele>93.7</ele>
        <time>2023-07-02T09:34:49Z</time>
      </trkpt>
      <trkpt lat="49.8441" lon="2.5757">
        <ele>93.7</ele>
        <time>2023-07-02T09:34:50Z</time>
      </trkpt>
      <trkpt lat="49.84411" lon="2.5757">
        <ele>93.7</ele>
        <time>2023-07-02T09:34:51Z</time>
      </trkpt>
      <trkpt lat="49.84411" lon="2.5757">
        <ele>93.7</ele>
        <time>2023-07-02T09:34:53Z</time>
      </trkpt>
      <trkpt lat="49.84411" lon="2.5757">
        <ele>93.7</ele>
        <time>2023-07-02T09:34:54Z</time>
      </trkpt>
      <trkpt lat="49.84411" lon="2.5757">
        <ele>93.7</ele>
        <time>2023-07-02T09:34:55Z</time>
      </trkpt>
      <trkpt lat="49.84411" lon="2.5757">
        <ele>93.7</ele>
        <time>2023-07-02T09:34:56Z</time>
      </trkpt>
      <trkpt lat="49.84411" lon="2.5757">
        <ele>93.7</ele>
        <time>2023-07-02T09:34:57Z</time>
      </trkpt>
      <trkpt lat="49.84411" lon="2.5757">
        <ele>93.7</ele>
        <time>2023-07-02T09:34:58Z</time>
      </trkpt>
      <trkpt lat="49.84411" lon="2.5757">
        <ele>93.7</ele>
        <time>2023-07-02T09:34:59Z</time>
      </trkpt>
      <trkpt lat="49.84411" lon="2.5757">
        <ele>93.7</ele>
        <time>2023-07-02T09:35:00Z</time>
      </trkpt>
      <trkpt lat="49.84411" lon="2.5757">
        <ele>93.7</ele>
        <time>2023-07-02T09:35:01Z</time>
      </trkpt>
      <trkpt lat="49.84411" lon="2.5757">
        <ele>93.7</ele>
        <time>2023-07-02T09:35:02Z</time>
      </trkpt>
      <trkpt lat="49.84412" lon="2.5757">
        <ele>93.7</ele>
        <time>2023-07-02T09:35:03Z</time>
      </trkpt>
      <trkpt lat="49.84412" lon="2.5757">
        <ele>93.7</ele>
        <time>2023-07-02T09:35:04Z</time>
      </trkpt>
      <trkpt lat="49.84412" lon="2.5757">
        <ele>93.7</ele>
        <time>2023-07-02T09:35:05Z</time>
      </trkpt>
      <trkpt lat="49.84412" lon="2.5757">
        <ele>93.7</ele>
        <time>2023-07-02T09:35:06Z</time>
      </trkpt>
      <trkpt lat="49.84412" lon="2.5757">
        <ele>93.7</ele>
        <time>2023-07-02T09:35:07Z</time>
      </trkpt>
      <trkpt lat="49.84412" lon="2.5757">
        <ele>93.7</ele>
        <time>2023-07-02T09:35:08Z</time>
      </trkpt>
      <trkpt lat="49.84412" lon="2.5757">
        <ele>93.7</ele>
        <time>2023-07-02T09:35:09Z</time>
      </trkpt>
      <trkpt lat="49.84412" lon="2.5757">
        <ele>93.7</ele>
        <time>2023-07-02T09:35:10Z</time>
      </trkpt>
      <trkpt lat="49.84412" lon="2.5757">
        <ele>93.7</ele>
        <time>2023-07-02T09:35:11Z</time>
      </trkpt>
      <trkpt lat="49.84412" lon="2.5757">
        <ele>93.7</ele>
        <time>2023-07-02T09:35:12Z</time>
      </trkpt>
      <trkpt lat="49.84412" lon="2.5757">
        <ele>93.7</ele>
        <time>2023-07-02T09:35:13Z</time>
      </trkpt>
      <trkpt lat="49.84412" lon="2.5757">
        <ele>93.7</ele>
        <time>2023-07-02T09:35:14Z</time>
      </trkpt>
      <trkpt lat="49.84413" lon="2.5757">
        <ele>93.7</ele>
        <time>2023-07-02T09:35:15Z</time>
      </trkpt>
      <trkpt lat="49.84413" lon="2.5757">
        <ele>93.7</ele>
        <time>2023-07-02T09:35:16Z</time>
      </trkpt>
      <trkpt lat="49.84413" lon="2.5757">
        <ele>93.7</ele>
        <time>2023-07-02T09:35:17Z</time>
      </trkpt>
      <trkpt lat="49.84413" lon="2.5757">
        <ele>93.7</ele>
        <time>2023-07-02T09:35:18Z</time>
      </trkpt>
      <trkpt lat="49.84413" lon="2.5757">
        <ele>93.7</ele>
        <time>2023-07-02T09:35:19Z</time>
      </trkpt>
      <trkpt lat="49.84413" lon="2.57571">
        <ele>93.7</ele>
        <time>2023-07-02T09:35:20Z</time>
      </trkpt>
      <trkpt lat="49.84413" lon="2.57571">
        <ele>93.7</ele>
        <time>2023-07-02T09:35:21Z</time>
      </trkpt>
      <trkpt lat="49.84413" lon="2.57571">
        <ele>93.7</ele>
        <time>2023-07-02T09:35:22Z</time>
      </trkpt>
      <trkpt lat="49.84413" lon="2.57571">
        <ele>93.7</ele>
        <time>2023-07-02T09:35:23Z</time>
      </trkpt>
      <trkpt lat="49.84413" lon="2.57571">
        <ele>93.7</ele>
        <time>2023-07-02T09:35:24Z</time>
      </trkpt>
      <trkpt lat="49.84413" lon="2.57571">
        <ele>93.7</ele>
        <time>2023-07-02T09:35:25Z</time>
      </trkpt>
      <trkpt lat="49.84414" lon="2.57571">
        <ele>93.7</ele>
        <time>2023-07-02T09:35:26Z</time>
      </trkpt>
      <trkpt lat="49.84414" lon="2.57571">
        <ele>93.7</ele>
        <time>2023-07-02T09:35:27Z</time>
      </trkpt>
      <trkpt lat="49.84414" lon="2.57571">
        <ele>93.7</ele>
        <time>2023-07-02T09:35:28Z</time>
      </trkpt>
      <trkpt lat="49.84414" lon="2.57571">
        <ele>93.7</ele>
        <time>2023-07-02T09:35:29Z</time>
      </trkpt>
      <trkpt lat="49.84414" lon="2.57571">
        <ele>93.7</ele>
        <time>2023-07-02T09:35:30Z</time>
      </trkpt>
      <trkpt lat="49.84414" lon="2.57571">
        <ele>93.7</ele>
        <time>2023-07-02T09:35:31Z</time>
      </trkpt>
      <trkpt lat="49.84414" lon="2.57571">
        <ele>93.7</ele>
        <time>2023-07-02T09:35:32Z</time>
      </trkpt>
      <trkpt lat="49.84414" lon="2.57571">
        <ele>93.7</ele>
        <time>2023-07-02T09:35:33Z</time>
      </trkpt>
      <trkpt lat="49.84414" lon="2.57571">
        <ele>93.7</ele>
        <time>2023-07-02T09:35:34Z</time>
      </trkpt>
      <trkpt lat="49.84414" lon="2.57571">
        <ele>93.7</ele>
        <time>2023-07-02T09:35:35Z</time>
      </trkpt>
      <trkpt lat="49.84414" lon="2.57571">
        <ele>93.7</ele>
        <time>2023-07-02T09:35:36Z</time>
      </trkpt>
      <trkpt lat="49.84415" lon="2.57571">
        <ele>93.7</ele>
        <time>2023-07-02T09:35:37Z</time>
      </trkpt>
      <trkpt lat="49.84415" lon="2.57571">
        <ele>93.7</ele>
        <time>2023-07-02T09:35:38Z</time>
      </trkpt>
      <trkpt lat="49.84415" lon="2.57571">
        <ele>93.7</ele>
        <time>2023-07-02T09:35:39Z</time>
      </trkpt>
      <trkpt lat="49.84415" lon="2.57571">
        <ele>93.7</ele>
        <time>2023-07-02T09:35:40Z</time>
      </trkpt>
      <trkpt lat="49.84415" lon="2.57571">
        <ele>93.7</ele>
        <time>2023-07-02T09:35:41Z</time>
      </trkpt>
      <trkpt lat="49.84415" lon="2.57571">
        <ele>93.7</ele>
        <time>2023-07-02T09:35:42Z</time>
      </trkpt>
      <trkpt lat="49.84415" lon="2.57571">
        <ele>93.7</ele>
        <time>2023-07-02T09:35:43Z</time>
      </trkpt>
      <trkpt lat="49.84415" lon="2.57571">
        <ele>93.7</ele>
        <time>2023-07-02T09:35:44Z</time>
      </trkpt>
      <trkpt lat="49.84415" lon="2.57571">
        <ele>93.7</ele>
        <time>2023-07-02T09:35:45Z</time>
      </trkpt>
      <trkpt lat="49.84415" lon="2.57571">
        <ele>93.7</ele>
        <time>2023-07-02T09:35:46Z</time>
      </trkpt>
      <trkpt lat="49.84415" lon="2.57571">
        <ele>93.7</ele>
        <time>2023-07-02T09:35:47Z</time>
      </trkpt>
      <trkpt lat="49.84416" lon="2.57571">
        <ele>93.7</ele>
        <time>2023-07-02T09:35:48Z</time>
      </trkpt>
      <trkpt lat="49.84416" lon="2.57571">
        <ele>93.7</ele>
        <time>2023-07-02T09:35:49Z</time>
      </trkpt>
      <trkpt lat="49.84416" lon="2.57571">
        <ele>93.7</ele>
        <time>2023-07-02T09:35:50Z</time>
      </trkpt>
      <trkpt lat="49.84416" lon="2.57571">
        <ele>93.7</ele>
        <time>2023-07-02T09:35:51Z</time>
      </trkpt>
      <trkpt lat="49.84416" lon="2.57571">
        <ele>93.7</ele>
        <time>2023-07-02T09:35:52Z</time>
      </trkpt>
      <trkpt lat="49.84416" lon="2.57571">
        <ele>93.7</ele>
        <time>2023-07-02T09:35:53Z</time>
      </trkpt>
      <trkpt lat="49.84416" lon="2.57571">
        <ele>93.7</ele>
        <time>2023-07-02T09:35:54Z</time>
      </trkpt>
      <trkpt lat="49.84416" lon="2.57571">
        <ele>93.7</ele>
        <time>2023-07-02T09:35:55Z</time>
      </trkpt>
      <trkpt lat="49.84416" lon="2.57571">
        <ele>93.7</ele>
        <time>2023-07-02T09:35:56Z</time>
      </trkpt>
      <trkpt lat="49.84416" lon="2.57571">
        <ele>93.8</ele>
        <time>2023-07-02T09:35:57Z</time>
      </trkpt>
      <trkpt lat="49.84416" lon="2.57572">
        <ele>93.8</ele>
        <time>2023-07-02T09:35:58Z</time>
      </trkpt>
      <trkpt lat="49.84417" lon="2.57572">
        <ele>93.8</ele>
        <time>2023-07-02T09:35:59Z</time>
      </trkpt>
      <trkpt lat="49.84417" lon="2.57572">
        <ele>93.8</ele>
        <time>2023-07-02T09:36:00Z</time>
      </trkpt>
      <trkpt lat="49.84417" lon="2.57572">
        <ele>93.8</ele>
        <time>2023-07-02T09:36:01Z</time>
      </trkpt>
      <trkpt lat="49.84417" lon="2.57572">
        <ele>93.8</ele>
        <time>2023-07-02T09:36:02Z</time>
      </trkpt>
      <trkpt lat="49.84417" lon="2.57572">
        <ele>93.8</ele>
        <time>2023-07-02T09:36:03Z</time>
      </trkpt>
      <trkpt lat="49.84417" lon="2.57572">
        <ele>93.8</ele>
        <time>2023-07-02T09:36:04Z</time>
      </trkpt>
      <trkpt lat="49.84417" lon="2.57572">
        <ele>93.8</ele>
        <time>2023-07-02T09:36:05Z</time>
      </trkpt>
      <trkpt lat="49.84417" lon="2.57572">
        <ele>93.8</ele>
        <time>2023-07-02T09:36:06Z</time>
      </trkpt>
      <trkpt lat="49.84417" lon="2.57572">
        <ele>93.8</ele>
        <time>2023-07-02T09:36:07Z</time>
      </trkpt>
      <trkpt lat="49.84417" lon="2.57572">
        <ele>93.8</ele>
        <time>2023-07-02T09:36:08Z</time>
      </trkpt>
      <trkpt lat="49.84417" lon="2.57572">
        <ele>93.8</ele>
        <time>2023-07-02T09:36:09Z</time>
      </trkpt>
      <trkpt lat="49.84417" lon="2.57572">
        <ele>93.8</ele>
        <time>2023-07-02T09:36:10Z</time>
      </trkpt>
      <trkpt lat="49.84418" lon="2.57572">
        <ele>93.8</ele>
        <time>2023-07-02T09:36:11Z</time>
      </trkpt>
      <trkpt lat="49.84418" lon="2.57572">
        <ele>93.8</ele>
        <time>2023-07-02T09:36:12Z</time>
      </trkpt>
      <trkpt lat="49.84418" lon="2.57572">
        <ele>93.8</ele>
        <time>2023-07-02T09:36:14Z</time>
      </trkpt>
      <trkpt lat="49.84418" lon="2.57572">
        <ele>93.8</ele>
        <time>2023-07-02T09:36:15Z</time>
      </trkpt>
      <trkpt lat="49.84418" lon="2.57572">
        <ele>93.8</ele>
        <time>2023-07-02T09:36:16Z</time>
      </trkpt>
      <trkpt lat="49.84418" lon="2.57572">
        <ele>93.8</ele>
        <time>2023-07-02T09:36:17Z</time>
      </trkpt>
      <trkpt lat="49.84418" lon="2.57572">
        <ele>93.8</ele>
        <time>2023-07-02T09:36:18Z</time>
      </trkpt>
      <trkpt lat="49.8442" lon="2.57573">
        <ele>93.8</ele>
        <time>2023-07-02T09:36:19Z</time>
      </trkpt>
      <trkpt lat="49.84421" lon="2.57574">
        <ele>93.8</ele>
        <time>2023-07-02T09:36:21Z</time>
      </trkpt>
      <trkpt lat="49.84422" lon="2.57574">
        <ele>93.8</ele>
        <time>2023-07-02T09:36:22Z</time>
      </trkpt>
      <trkpt lat="49.84423" lon="2.57575">
        <ele>93.8</ele>
        <time>2023-07-02T09:36:23Z</time>
      </trkpt>
      <trkpt lat="49.84424" lon="2.57575">
        <ele>93.8</ele>
        <time>2023-07-02T09:36:24Z</time>
      </trkpt>
      <trkpt lat="49.84425" lon="2.57576">
        <ele>93.8</ele>
        <time>2023-07-02T09:36:25Z</time>
      </trkpt>
      <trkpt lat="49.84426" lon="2.57576">
        <ele>93.8</ele>
        <time>2023-07-02T09:36:26Z</time>
      </trkpt>
      <trkpt lat="49.84427" lon="2.57577">
        <ele>93.9</ele>
        <time>2023-07-02T09:36:27Z</time>
      </trkpt>
      <trkpt lat="49.84428" lon="2.57576">
        <ele>93.9</ele>
        <time>2023-07-02T09:36:29Z</time>
      </trkpt>
      <trkpt lat="49.84429" lon="2.57576">
        <ele>93.8</ele>
        <time>2023-07-02T09:36:30Z</time>
      </trkpt>
      <trkpt lat="49.8443" lon="2.57576">
        <ele>93.8</ele>
        <time>2023-07-02T09:36:31Z</time>
      </trkpt>
      <trkpt lat="49.84431" lon="2.57575">
        <ele>93.8</ele>
        <time>2023-07-02T09:36:32Z</time>
      </trkpt>
      <trkpt lat="49.84431" lon="2.57574">
        <ele>93.8</ele>
        <time>2023-07-02T09:36:33Z</time>
      </trkpt>
      <trkpt lat="49.84431" lon="2.57574">
        <ele>93.8</ele>
        <time>2023-07-02T09:36:35Z</time>
      </trkpt>
      <trkpt lat="49.84431" lon="2.57573">
        <ele>93.8</ele>
        <time>2023-07-02T09:36:36Z</time>
      </trkpt>
      <trkpt lat="49.84431" lon="2.57573">
        <ele>93.8</ele>
        <time>2023-07-02T09:36:37Z</time>
      </trkpt>
      <trkpt lat="49.84431" lon="2.57572">
        <ele>93.8</ele>
        <time>2023-07-02T09:36:38Z</time>
      </trkpt>
      <trkpt lat="49.84431" lon="2.57572">
        <ele>93.8</ele>
        <time>2023-07-02T09:36:40Z</time>
      </trkpt>
      <trkpt lat="49.84431" lon="2.57571">
        <ele>93.8</ele>
        <time>2023-07-02T09:36:41Z</time>
      </trkpt>
      <trkpt lat="49.84431" lon="2.57571">
        <ele>93.8</ele>
        <time>2023-07-02T09:36:42Z</time>
      </trkpt>
      <trkpt lat="49.84431" lon="2.5757">
        <ele>93.8</ele>
        <time>2023-07-02T09:36:44Z</time>
      </trkpt>
      <trkpt lat="49.84431" lon="2.5757">
        <ele>93.8</ele>
        <time>2023-07-02T09:36:45Z</time>
      </trkpt>
      <trkpt lat="49.84431" lon="2.57569">
        <ele>93.8</ele>
        <time>2023-07-02T09:36:46Z</time>
      </trkpt>
      <trkpt lat="49.84431" lon="2.57569">
        <ele>93.8</ele>
        <time>2023-07-02T09:36:48Z</time>
      </trkpt>
      <trkpt lat="49.84431" lon="2.57568">
        <ele>93.8</ele>
        <time>2023-07-02T09:36:49Z</time>
      </trkpt>
      <trkpt lat="49.84432" lon="2.57568">
        <ele>93.8</ele>
        <time>2023-07-02T09:36:50Z</time>
      </trkpt>
      <trkpt lat="49.84432" lon="2.57568">
        <ele>93.8</ele>
        <time>2023-07-02T09:36:52Z</time>
      </trkpt>
      <trkpt lat="49.84432" lon="2.57567">
        <ele>93.8</ele>
        <time>2023-07-02T09:36:53Z</time>
      </trkpt>
      <trkpt lat="49.84432" lon="2.57567">
        <ele>93.8</ele>
        <time>2023-07-02T09:36:54Z</time>
      </trkpt>
      <trkpt lat="49.84432" lon="2.57566">
        <ele>93.8</ele>
        <time>2023-07-02T09:36:55Z</time>
      </trkpt>
      <trkpt lat="49.84432" lon="2.57564">
        <ele>93.8</ele>
        <time>2023-07-02T09:36:56Z</time>
      </trkpt>
      <trkpt lat="49.84433" lon="2.57562">
        <ele>93.8</ele>
        <time>2023-07-02T09:36:58Z</time>
      </trkpt>
      <trkpt lat="49.84434" lon="2.5756">
        <ele>93.8</ele>
        <time>2023-07-02T09:36:59Z</time>
      </trkpt>
      <trkpt lat="49.84434" lon="2.57559">
        <ele>93.8</ele>
        <time>2023-07-02T09:37:00Z</time>
      </trkpt>
      <trkpt lat="49.84434" lon="2.57557">
        <ele>93.8</ele>
        <time>2023-07-02T09:37:02Z</time>
      </trkpt>
      <trkpt lat="49.84435" lon="2.57553">
        <ele>93.8</ele>
        <time>2023-07-02T09:37:03Z</time>
      </trkpt>
      <trkpt lat="49.84435" lon="2.57552">
        <ele>93.8</ele>
        <time>2023-07-02T09:37:04Z</time>
      </trkpt>
      <trkpt lat="49.84435" lon="2.5755">
        <ele>93.8</ele>
        <time>2023-07-02T09:37:06Z</time>
      </trkpt>
      <trkpt lat="49.84435" lon="2.57549">
        <ele>93.8</ele>
        <time>2023-07-02T09:37:07Z</time>
      </trkpt>
      <trkpt lat="49.84436" lon="2.57547">
        <ele>93.8</ele>
        <time>2023-07-02T09:37:08Z</time>
      </trkpt>
      <trkpt lat="49.84436" lon="2.57546">
        <ele>93.8</ele>
        <time>2023-07-02T09:37:09Z</time>
      </trkpt>
      <trkpt lat="49.84436" lon="2.57543">
        <ele>93.8</ele>
        <time>2023-07-02T09:37:11Z</time>
      </trkpt>
      <trkpt lat="49.84436" lon="2.57541">
        <ele>93.8</ele>
        <time>2023-07-02T09:37:12Z</time>
      </trkpt>
      <trkpt lat="49.84437" lon="2.57539">
        <ele>93.8</ele>
        <time>2023-07-02T09:37:13Z</time>
      </trkpt>
      <trkpt lat="49.84437" lon="2.57537">
        <ele>93.8</ele>
        <time>2023-07-02T09:37:15Z</time>
      </trkpt>
      <trkpt lat="49.84437" lon="2.57536">
        <ele>93.8</ele>
        <time>2023-07-02T09:37:16Z</time>
      </trkpt>
      <trkpt lat="49.84437" lon="2.57534">
        <ele>93.8</ele>
        <time>2023-07-02T09:37:17Z</time>
      </trkpt>
      <trkpt lat="49.84437" lon="2.57532">
        <ele>93.8</ele>
        <time>2023-07-02T09:37:18Z</time>
      </trkpt>
      <trkpt lat="49.84437" lon="2.57531">
        <ele>93.8</ele>
        <time>2023-07-02T09:37:19Z</time>
      </trkpt>
      <trkpt lat="49.84437" lon="2.57531">
        <ele>93.8</ele>
        <time>2023-07-02T09:37:20Z</time>
      </trkpt>
      <trkpt lat="49.84437" lon="2.57531">
        <ele>93.8</ele>
        <time>2023-07-02T09:37:22Z</time>
      </trkpt>
      <trkpt lat="49.84437" lon="2.57531">
        <ele>93.8</ele>
        <time>2023-07-02T09:37:23Z</time>
      </trkpt>
      <trkpt lat="49.84437" lon="2.57532">
        <ele>93.8</ele>
        <time>2023-07-02T09:37:25Z</time>
      </trkpt>
      <trkpt lat="49.84437" lon="2.57531">
        <ele>93.8</ele>
        <time>2023-07-02T09:37:26Z</time>
      </trkpt>
      <trkpt lat="49.84437" lon="2.57532">
        <ele>93.8</ele>
        <time>2023-07-02T09:37:27Z</time>
      </trkpt>
      <trkpt lat="49.84437" lon="2.57532">
        <ele>93.8</ele>
        <time>2023-07-02T09:37:29Z</time>
      </trkpt>
      <trkpt lat="49.84437" lon="2.57531">
        <ele>93.8</ele>
        <time>2023-07-02T09:37:30Z</time>
      </trkpt>
      <trkpt lat="49.84436" lon="2.57531">
        <ele>93.8</ele>
        <time>2023-07-02T09:37:31Z</time>
      </trkpt>
      <trkpt lat="49.84436" lon="2.5753">
        <ele>93.8</ele>
        <time>2023-07-02T09:37:32Z</time>
      </trkpt>
      <trkpt lat="49.84436" lon="2.57529">
        <ele>93.8</ele>
        <time>2023-07-02T09:37:33Z</time>
      </trkpt>
      <trkpt lat="49.84436" lon="2.57527">
        <ele>93.8</ele>
        <time>2023-07-02T09:37:34Z</time>
      </trkpt>
      <trkpt lat="49.84436" lon="2.57523">
        <ele>93.8</ele>
        <time>2023-07-02T09:37:35Z</time>
      </trkpt>
      <trkpt lat="49.84436" lon="2.57522">
        <ele>93.8</ele>
        <time>2023-07-02T09:37:37Z</time>
      </trkpt>
      <trkpt lat="49.84436" lon="2.57521">
        <ele>93.8</ele>
        <time>2023-07-02T09:37:38Z</time>
      </trkpt>
      <trkpt lat="49.84437" lon="2.5752">
        <ele>93.8</ele>
        <time>2023-07-02T09:37:39Z</time>
      </trkpt>
      <trkpt lat="49.84437" lon="2.57519">
        <ele>93.8</ele>
        <time>2023-07-02T09:37:40Z</time>
      </trkpt>
      <trkpt lat="49.84437" lon="2.57517">
        <ele>93.8</ele>
        <time>2023-07-02T09:37:41Z</time>
      </trkpt>
      <trkpt lat="49.84438" lon="2.57516">
        <ele>93.8</ele>
        <time>2023-07-02T09:37:43Z</time>
      </trkpt>
      <trkpt lat="49.84438" lon="2.57515">
        <ele>93.8</ele>
        <time>2023-07-02T09:37:44Z</time>
      </trkpt>
      <trkpt lat="49.84439" lon="2.57514">
        <ele>93.8</ele>
        <time>2023-07-02T09:37:45Z</time>
      </trkpt>
      <trkpt lat="49.84439" lon="2.57512">
        <ele>93.9</ele>
        <time>2023-07-02T09:37:46Z</time>
      </trkpt>
      <trkpt lat="49.84439" lon="2.5751">
        <ele>93.9</ele>
        <time>2023-07-02T09:37:47Z</time>
      </trkpt>
      <trkpt lat="49.84438" lon="2.57509">
        <ele>93.9</ele>
        <time>2023-07-02T09:37:48Z</time>
      </trkpt>
      <trkpt lat="49.84438" lon="2.57507">
        <ele>93.9</ele>
        <time>2023-07-02T09:37:50Z</time>
      </trkpt>
      <trkpt lat="49.84439" lon="2.57505">
        <ele>93.9</ele>
        <time>2023-07-02T09:37:51Z</time>
      </trkpt>
      <trkpt lat="49.84439" lon="2.57503">
        <ele>93.9</ele>
        <time>2023-07-02T09:37:52Z</time>
      </trkpt>
      <trkpt lat="49.84439" lon="2.57502">
        <ele>93.9</ele>
        <time>2023-07-02T09:37:53Z</time>
      </trkpt>
      <trkpt lat="49.84439" lon="2.57498">
        <ele>93.9</ele>
        <time>2023-07-02T09:37:54Z</time>
      </trkpt>
      <trkpt lat="49.84439" lon="2.57497">
        <ele>93.9</ele>
        <time>2023-07-02T09:37:55Z</time>
      </trkpt>
      <trkpt lat="49.84439" lon="2.57495">
        <ele>93.9</ele>
        <time>2023-07-02T09:37:57Z</time>
      </trkpt>
      <trkpt lat="49.84439" lon="2.57494">
        <ele>93.9</ele>
        <time>2023-07-02T09:37:58Z</time>
      </trkpt>
      <trkpt lat="49.84439" lon="2.57493">
        <ele>93.9</ele>
        <time>2023-07-02T09:37:59Z</time>
      </trkpt>
      <trkpt lat="49.84439" lon="2.57491">
        <ele>93.9</ele>
        <time>2023-07-02T09:38:00Z</time>
      </trkpt>
      <trkpt lat="49.8444" lon="2.57487">
        <ele>93.9</ele>
        <time>2023-07-02T09:38:01Z</time>
      </trkpt>
      <trkpt lat="49.8444" lon="2.57485">
        <ele>94</ele>
        <time>2023-07-02T09:38:02Z</time>
      </trkpt>
      <trkpt lat="49.8444" lon="2.57481">
        <ele>94</ele>
        <time>2023-07-02T09:38:03Z</time>
      </trkpt>
      <trkpt lat="49.8444" lon="2.5748">
        <ele>94</ele>
        <time>2023-07-02T09:38:04Z</time>
      </trkpt>
      <trkpt lat="49.8444" lon="2.57477">
        <ele>94</ele>
        <time>2023-07-02T09:38:06Z</time>
      </trkpt>
      <trkpt lat="49.8444" lon="2.57474">
        <ele>94</ele>
        <time>2023-07-02T09:38:07Z</time>
      </trkpt>
      <trkpt lat="49.8444" lon="2.57471">
        <ele>94</ele>
        <time>2023-07-02T09:38:08Z</time>
      </trkpt>
      <trkpt lat="49.8444" lon="2.57469">
        <ele>94.1</ele>
        <time>2023-07-02T09:38:09Z</time>
      </trkpt>
      <trkpt lat="49.8444" lon="2.57468">
        <ele>94.1</ele>
        <time>2023-07-02T09:38:10Z</time>
      </trkpt>
      <trkpt lat="49.8444" lon="2.57466">
        <ele>94.1</ele>
        <time>2023-07-02T09:38:11Z</time>
      </trkpt>
      <trkpt lat="49.8444" lon="2.57464">
        <ele>94.1</ele>
        <time>2023-07-02T09:38:12Z</time>
      </trkpt>
      <trkpt lat="49.84439" lon="2.57462">
        <ele>94.1</ele>
        <time>2023-07-02T09:38:14Z</time>
      </trkpt>
      <trkpt lat="49.84439" lon="2.5746">
        <ele>94.1</ele>
        <time>2023-07-02T09:38:15Z</time>
      </trkpt>
      <trkpt lat="49.84439" lon="2.57458">
        <ele>94.1</ele>
        <time>2023-07-02T09:38:16Z</time>
      </trkpt>
      <trkpt lat="49.84439" lon="2.57457">
        <ele>94.1</ele>
        <time>2023-07-02T09:38:17Z</time>
      </trkpt>
      <trkpt lat="49.84439" lon="2.57455">
        <ele>94.2</ele>
        <time>2023-07-02T09:38:18Z</time>
      </trkpt>
      <trkpt lat="49.84439" lon="2.57454">
        <ele>94.2</ele>
        <time>2023-07-02T09:38:19Z</time>
      </trkpt>
      <trkpt lat="49.84439" lon="2.57452">
        <ele>94.2</ele>
        <time>2023-07-02T09:38:20Z</time>
      </trkpt>
      <trkpt lat="49.8444" lon="2.5745">
        <ele>94.2</ele>
        <time>2023-07-02T09:38:22Z</time>
      </trkpt>
      <trkpt lat="49.8444" lon="2.57449">
        <ele>94.2</ele>
        <time>2023-07-02T09:38:23Z</time>
      </trkpt>
      <trkpt lat="49.84439" lon="2.57447">
        <ele>94.2</ele>
        <time>2023-07-02T09:38:24Z</time>
      </trkpt>
      <trkpt lat="49.84439" lon="2.57445">
        <ele>94.2</ele>
        <time>2023-07-02T09:38:25Z</time>
      </trkpt>
      <trkpt lat="49.84439" lon="2.57444">
        <ele>94.2</ele>
        <time>2023-07-02T09:38:26Z</time>
      </trkpt>
      <trkpt lat="49.84439" lon="2.57442">
        <ele>94.2</ele>
        <time>2023-07-02T09:38:27Z</time>
      </trkpt>
      <trkpt lat="49.84439" lon="2.5744">
        <ele>94.2</ele>
        <time>2023-07-02T09:38:28Z</time>
      </trkpt>
      <trkpt lat="49.8444" lon="2.57439">
        <ele>94.2</ele>
        <time>2023-07-02T09:38:29Z</time>
      </trkpt>
      <trkpt lat="49.8444" lon="2.57437">
        <ele>94.2</ele>
        <time>2023-07-02T09:38:31Z</time>
      </trkpt>
      <trkpt lat="49.8444" lon="2.57436">
        <ele>94.2</ele>
        <time>2023-07-02T09:38:32Z</time>
      </trkpt>
      <trkpt lat="49.84439" lon="2.57434">
        <ele>94.2</ele>
        <time>2023-07-02T09:38:33Z</time>
      </trkpt>
      <trkpt lat="49.84439" lon="2.57432">
        <ele>94.2</ele>
        <time>2023-07-02T09:38:34Z</time>
      </trkpt>
      <trkpt lat="49.84439" lon="2.57431">
        <ele>94.2</ele>
        <time>2023-07-02T09:38:35Z</time>
      </trkpt>
      <trkpt lat="49.84439" lon="2.57429">
        <ele>94.1</ele>
        <time>2023-07-02T09:38:36Z</time>
      </trkpt>
      <trkpt lat="49.84439" lon="2.57427">
        <ele>94.1</ele>
        <time>2023-07-02T09:38:37Z</time>
      </trkpt>
      <trkpt lat="49.84439" lon="2.57424">
        <ele>94.1</ele>
        <time>2023-07-02T09:38:38Z</time>
      </trkpt>
      <trkpt lat="49.84439" lon="2.57423">
        <ele>94.1</ele>
        <time>2023-07-02T09:38:40Z</time>
      </trkpt>
      <trkpt lat="49.84439" lon="2.57421">
        <ele>94.1</ele>
        <time>2023-07-02T09:38:41Z</time>
      </trkpt>
      <trkpt lat="49.84439" lon="2.5742">
        <ele>94.1</ele>
        <time>2023-07-02T09:38:42Z</time>
      </trkpt>
      <trkpt lat="49.84439" lon="2.57418">
        <ele>94.1</ele>
        <time>2023-07-02T09:38:43Z</time>
      </trkpt>
      <trkpt lat="49.84439" lon="2.57416">
        <ele>94.1</ele>
        <time>2023-07-02T09:38:44Z</time>
      </trkpt>
      <trkpt lat="49.84439" lon="2.57413">
        <ele>94.1</ele>
        <time>2023-07-02T09:38:45Z</time>
      </trkpt>
      <trkpt lat="49.84439" lon="2.57412">
        <ele>94.1</ele>
        <time>2023-07-02T09:38:46Z</time>
      </trkpt>
      <trkpt lat="49.84439" lon="2.57411">
        <ele>94.2</ele>
        <time>2023-07-02T09:38:47Z</time>
      </trkpt>
      <trkpt lat="49.8444" lon="2.57407">
        <ele>94.2</ele>
        <time>2023-07-02T09:38:48Z</time>
      </trkpt>
      <trkpt lat="49.8444" lon="2.57405">
        <ele>94.2</ele>
        <time>2023-07-02T09:38:50Z</time>
      </trkpt>
      <trkpt lat="49.8444" lon="2.57404">
        <ele>94.2</ele>
        <time>2023-07-02T09:38:51Z</time>
      </trkpt>
      <trkpt lat="49.8444" lon="2.57402">
        <ele>94.2</ele>
        <time>2023-07-02T09:38:52Z</time>
      </trkpt>
      <trkpt lat="49.8444" lon="2.57401">
        <ele>94.2</ele>
        <time>2023-07-02T09:38:53Z</time>
      </trkpt>
      <trkpt lat="49.84441" lon="2.57399">
        <ele>94.2</ele>
        <time>2023-07-02T09:38:54Z</time>
      </trkpt>
      <trkpt lat="49.84441" lon="2.57396">
        <ele>94.2</ele>
        <time>2023-07-02T09:38:55Z</time>
      </trkpt>
      <trkpt lat="49.84441" lon="2.57394">
        <ele>94.2</ele>
        <time>2023-07-02T09:38:56Z</time>
      </trkpt>
      <trkpt lat="49.84442" lon="2.57392">
        <ele>94.3</ele>
        <time>2023-07-02T09:38:57Z</time>
      </trkpt>
      <trkpt lat="49.84442" lon="2.5739">
        <ele>94.3</ele>
        <time>2023-07-02T09:38:58Z</time>
      </trkpt>
      <trkpt lat="49.84443" lon="2.57387">
        <ele>94.3</ele>
        <time>2023-07-02T09:39:00Z</time>
      </trkpt>
      <trkpt lat="49.84443" lon="2.57385">
        <ele>94.3</ele>
        <time>2023-07-02T09:39:01Z</time>
      </trkpt>
      <trkpt lat="49.84444" lon="2.57383">
        <ele>94.3</ele>
        <time>2023-07-02T09:39:02Z</time>
      </trkpt>
      <trkpt lat="49.84444" lon="2.5738">
        <ele>94.4</ele>
        <time>2023-07-02T09:39:03Z</time>
      </trkpt>
      <trkpt lat="49.84445" lon="2.57379">
        <ele>94.4</ele>
        <time>2023-07-02T09:39:04Z</time>
      </trkpt>
      <trkpt lat="49.84445" lon="2.57377">
        <ele>94.4</ele>
        <time>2023-07-02T09:39:05Z</time>
      </trkpt>
      <trkpt lat="49.84446" lon="2.57374">
        <ele>94.4</ele>
        <time>2023-07-02T09:39:06Z</time>
      </trkpt>
      <trkpt lat="49.84446" lon="2.57373">
        <ele>94.4</ele>
        <time>2023-07-02T09:39:07Z</time>
      </trkpt>
      <trkpt lat="49.84447" lon="2.57371">
        <ele>94.4</ele>
        <time>2023-07-02T09:39:08Z</time>
      </trkpt>
      <trkpt lat="49.84447" lon="2.57368">
        <ele>94.5</ele>
        <time>2023-07-02T09:39:09Z</time>
      </trkpt>
      <trkpt lat="49.84447" lon="2.57367">
        <ele>94.5</ele>
        <time>2023-07-02T09:39:11Z</time>
      </trkpt>
      <trkpt lat="49.84448" lon="2.57366">
        <ele>94.5</ele>
        <time>2023-07-02T09:39:12Z</time>
      </trkpt>
      <trkpt lat="49.84448" lon="2.57363">
        <ele>94.5</ele>
        <time>2023-07-02T09:39:13Z</time>
      </trkpt>
      <trkpt lat="49.84448" lon="2.57361">
        <ele>94.5</ele>
        <time>2023-07-02T09:39:14Z</time>
      </trkpt>
      <trkpt lat="49.84449" lon="2.5736">
        <ele>94.5</ele>
        <time>2023-07-02T09:39:15Z</time>
      </trkpt>
      <trkpt lat="49.84449" lon="2.57358">
        <ele>94.5</ele>
        <time>2023-07-02T09:39:16Z</time>
      </trkpt>
      <trkpt lat="49.84449" lon="2.57356">
        <ele>94.6</ele>
        <time>2023-07-02T09:39:17Z</time>
      </trkpt>
      <trkpt lat="49.84449" lon="2.57354">
        <ele>94.6</ele>
        <time>2023-07-02T09:39:19Z</time>
      </trkpt>
      <trkpt lat="49.84449" lon="2.57352">
        <ele>94.6</ele>
        <time>2023-07-02T09:39:20Z</time>
      </trkpt>
      <trkpt lat="49.84449" lon="2.57351">
        <ele>94.6</ele>
        <time>2023-07-02T09:39:21Z</time>
      </trkpt>
      <trkpt lat="49.84449" lon="2.57349">
        <ele>94.6</ele>
        <time>2023-07-02T09:39:22Z</time>
      </trkpt>
      <trkpt lat="49.84449" lon="2.57347">
        <ele>94.6</ele>
        <time>2023-07-02T09:39:23Z</time>
      </trkpt>
      <trkpt lat="49.8445" lon="2.57345">
        <ele>94.6</ele>
        <time>2023-07-02T09:39:24Z</time>
      </trkpt>
      <trkpt lat="49.8445" lon="2.57344">
        <ele>94.7</ele>
        <time>2023-07-02T09:39:25Z</time>
      </trkpt>
      <trkpt lat="49.8445" lon="2.57342">
        <ele>94.7</ele>
        <time>2023-07-02T09:39:27Z</time>
      </trkpt>
      <trkpt lat="49.8445" lon="2.57341">
        <ele>94.7</ele>
        <time>2023-07-02T09:39:28Z</time>
      </trkpt>
      <trkpt lat="49.8445" lon="2.57339">
        <ele>94.7</ele>
        <time>2023-07-02T09:39:29Z</time>
      </trkpt>
      <trkpt lat="49.8445" lon="2.57337">
        <ele>94.7</ele>
        <time>2023-07-02T09:39:30Z</time>
      </trkpt>
      <trkpt lat="49.8445" lon="2.57336">
        <ele>94.7</ele>
        <time>2023-07-02T09:39:31Z</time>
      </trkpt>
      <trkpt lat="49.8445" lon="2.57334">
        <ele>94.7</ele>
        <time>2023-07-02T09:39:32Z</time>
      </trkpt>
      <trkpt lat="49.8445" lon="2.5733">
        <ele>94.7</ele>
        <time>2023-07-02T09:39:33Z</time>
      </trkpt>
      <trkpt lat="49.8445" lon="2.57329">
        <ele>94.8</ele>
        <time>2023-07-02T09:39:34Z</time>
      </trkpt>
      <trkpt lat="49.8445" lon="2.57328">
        <ele>94.8</ele>
        <time>2023-07-02T09:39:35Z</time>
      </trkpt>
      <trkpt lat="49.8445" lon="2.57326">
        <ele>94.8</ele>
        <time>2023-07-02T09:39:37Z</time>
      </trkpt>
      <trkpt lat="49.8445" lon="2.57324">
        <ele>94.8</ele>
        <time>2023-07-02T09:39:38Z</time>
      </trkpt>
      <trkpt lat="49.8445" lon="2.57323">
        <ele>94.8</ele>
        <time>2023-07-02T09:39:39Z</time>
      </trkpt>
      <trkpt lat="49.8445" lon="2.57321">
        <ele>94.8</ele>
        <time>2023-07-02T09:39:40Z</time>
      </trkpt>
      <trkpt lat="49.84451" lon="2.57319">
        <ele>94.8</ele>
        <time>2023-07-02T09:39:41Z</time>
      </trkpt>
      <trkpt lat="49.84451" lon="2.57318">
        <ele>94.9</ele>
        <time>2023-07-02T09:39:42Z</time>
      </trkpt>
      <trkpt lat="49.84451" lon="2.57314">
        <ele>94.9</ele>
        <time>2023-07-02T09:39:43Z</time>
      </trkpt>
      <trkpt lat="49.84451" lon="2.57313">
        <ele>94.9</ele>
        <time>2023-07-02T09:39:45Z</time>
      </trkpt>
      <trkpt lat="49.84451" lon="2.57312">
        <ele>94.9</ele>
        <time>2023-07-02T09:39:46Z</time>
      </trkpt>
      <trkpt lat="49.84451" lon="2.5731">
        <ele>94.9</ele>
        <time>2023-07-02T09:39:47Z</time>
      </trkpt>
      <trkpt lat="49.84452" lon="2.57309">
        <ele>94.9</ele>
        <time>2023-07-02T09:39:48Z</time>
      </trkpt>
      <trkpt lat="49.84452" lon="2.57307">
        <ele>95</ele>
        <time>2023-07-02T09:39:49Z</time>
      </trkpt>
      <trkpt lat="49.84452" lon="2.57305">
        <ele>95</ele>
        <time>2023-07-02T09:39:51Z</time>
      </trkpt>
      <trkpt lat="49.84453" lon="2.57303">
        <ele>95</ele>
        <time>2023-07-02T09:39:52Z</time>
      </trkpt>
      <trkpt lat="49.84453" lon="2.57299">
        <ele>95</ele>
        <time>2023-07-02T09:39:53Z</time>
      </trkpt>
      <trkpt lat="49.84453" lon="2.57298">
        <ele>95</ele>
        <time>2023-07-02T09:39:54Z</time>
      </trkpt>
      <trkpt lat="49.84453" lon="2.57297">
        <ele>95.1</ele>
        <time>2023-07-02T09:39:55Z</time>
      </trkpt>
      <trkpt lat="49.84453" lon="2.57295">
        <ele>95.1</ele>
        <time>2023-07-02T09:39:56Z</time>
      </trkpt>
      <trkpt lat="49.84453" lon="2.57293">
        <ele>95.1</ele>
        <time>2023-07-02T09:39:57Z</time>
      </trkpt>
      <trkpt lat="49.84453" lon="2.57291">
        <ele>95.1</ele>
        <time>2023-07-02T09:39:59Z</time>
      </trkpt>
      <trkpt lat="49.84453" lon="2.57289">
        <ele>95.1</ele>
        <time>2023-07-02T09:40:00Z</time>
      </trkpt>
      <trkpt lat="49.84453" lon="2.57287">
        <ele>95.1</ele>
        <time>2023-07-02T09:40:01Z</time>
      </trkpt>
      <trkpt lat="49.84453" lon="2.57286">
        <ele>95.1</ele>
        <time>2023-07-02T09:40:02Z</time>
      </trkpt>
      <trkpt lat="49.84453" lon="2.57284">
        <ele>95.2</ele>
        <time>2023-07-02T09:40:03Z</time>
      </trkpt>
      <trkpt lat="49.84453" lon="2.57282">
        <ele>95.2</ele>
        <time>2023-07-02T09:40:04Z</time>
      </trkpt>
      <trkpt lat="49.84452" lon="2.57281">
        <ele>95.2</ele>
        <time>2023-07-02T09:40:05Z</time>
      </trkpt>
      <trkpt lat="49.84452" lon="2.57279">
        <ele>95.2</ele>
        <time>2023-07-02T09:40:06Z</time>
      </trkpt>
      <trkpt lat="49.84452" lon="2.57277">
        <ele>95.2</ele>
        <time>2023-07-02T09:40:08Z</time>
      </trkpt>
      <trkpt lat="49.84452" lon="2.57275">
        <ele>95.2</ele>
        <time>2023-07-02T09:40:09Z</time>
      </trkpt>
      <trkpt lat="49.84452" lon="2.57272">
        <ele>95.2</ele>
        <time>2023-07-02T09:40:10Z</time>
      </trkpt>
      <trkpt lat="49.84452" lon="2.57271">
        <ele>95.2</ele>
        <time>2023-07-02T09:40:11Z</time>
      </trkpt>
      <trkpt lat="49.84452" lon="2.57269">
        <ele>95.2</ele>
        <time>2023-07-02T09:40:12Z</time>
      </trkpt>
      <trkpt lat="49.84451" lon="2.57268">
        <ele>95.2</ele>
        <time>2023-07-02T09:40:13Z</time>
      </trkpt>
      <trkpt lat="49.84451" lon="2.57266">
        <ele>95.3</ele>
        <time>2023-07-02T09:40:14Z</time>
      </trkpt>
      <trkpt lat="49.84451" lon="2.57264">
        <ele>95.3</ele>
        <time>2023-07-02T09:40:15Z</time>
      </trkpt>
      <trkpt lat="49.84451" lon="2.57262">
        <ele>95.3</ele>
        <time>2023-07-02T09:40:17Z</time>
      </trkpt>
      <trkpt lat="49.84451" lon="2.57259">
        <ele>95.3</ele>
        <time>2023-07-02T09:40:18Z</time>
      </trkpt>
      <trkpt lat="49.84451" lon="2.57256">
        <ele>95.3</ele>
        <time>2023-07-02T09:40:19Z</time>
      </trkpt>
      <trkpt lat="49.84451" lon="2.57255">
        <ele>95.3</ele>
        <time>2023-07-02T09:40:20Z</time>
      </trkpt>
      <trkpt lat="49.84452" lon="2.57253">
        <ele>95.3</ele>
        <time>2023-07-02T09:40:21Z</time>
      </trkpt>
      <trkpt lat="49.84452" lon="2.57251">
        <ele>95.3</ele>
        <time>2023-07-02T09:40:22Z</time>
      </trkpt>
      <trkpt lat="49.84452" lon="2.57249">
        <ele>95.4</ele>
        <time>2023-07-02T09:40:23Z</time>
      </trkpt>
      <trkpt lat="49.84452" lon="2.57246">
        <ele>95.4</ele>
        <time>2023-07-02T09:40:24Z</time>
      </trkpt>
      <trkpt lat="49.84452" lon="2.57244">
        <ele>95.4</ele>
        <time>2023-07-02T09:40:26Z</time>
      </trkpt>
      <trkpt lat="49.84452" lon="2.57243">
        <ele>95.4</ele>
        <time>2023-07-02T09:40:27Z</time>
      </trkpt>
      <trkpt lat="49.84453" lon="2.57239">
        <ele>95.4</ele>
        <time>2023-07-02T09:40:28Z</time>
      </trkpt>
      <trkpt lat="49.84453" lon="2.57238">
        <ele>95.4</ele>
        <time>2023-07-02T09:40:29Z</time>
      </trkpt>
      <trkpt lat="49.84453" lon="2.57236">
        <ele>95.4</ele>
        <time>2023-07-02T09:40:30Z</time>
      </trkpt>
      <trkpt lat="49.84452" lon="2.57235">
        <ele>95.4</ele>
        <time>2023-07-02T09:40:31Z</time>
      </trkpt>
      <trkpt lat="49.84452" lon="2.57233">
        <ele>95.4</ele>
        <time>2023-07-02T09:40:32Z</time>
      </trkpt>
      <trkpt lat="49.84453" lon="2.57231">
        <ele>95.4</ele>
        <time>2023-07-02T09:40:33Z</time>
      </trkpt>
      <trkpt lat="49.84453" lon="2.57229">
        <ele>95.4</ele>
        <time>2023-07-02T09:40:35Z</time>
      </trkpt>
      <trkpt lat="49.84453" lon="2.57227">
        <ele>95.4</ele>
        <time>2023-07-02T09:40:36Z</time>
      </trkpt>
      <trkpt lat="49.84453" lon="2.57224">
        <ele>95.5</ele>
        <time>2023-07-02T09:40:37Z</time>
      </trkpt>
      <trkpt lat="49.84453" lon="2.57222">
        <ele>95.5</ele>
        <time>2023-07-02T09:40:38Z</time>
      </trkpt>
      <trkpt lat="49.84454" lon="2.57221">
        <ele>95.5</ele>
        <time>2023-07-02T09:40:39Z</time>
      </trkpt>
      <trkpt lat="49.84454" lon="2.57219">
        <ele>95.5</ele>
        <time>2023-07-02T09:40:40Z</time>
      </trkpt>
      <trkpt lat="49.84454" lon="2.57218">
        <ele>95.5</ele>
        <time>2023-07-02T09:40:41Z</time>
      </trkpt>
      <trkpt lat="49.84454" lon="2.57216">
        <ele>95.5</ele>
        <time>2023-07-02T09:40:42Z</time>
      </trkpt>
      <trkpt lat="49.84455" lon="2.57213">
        <ele>95.5</ele>
        <time>2023-07-02T09:40:43Z</time>
      </trkpt>
      <trkpt lat="49.84455" lon="2.57211">
        <ele>95.5</ele>
        <time>2023-07-02T09:40:45Z</time>
      </trkpt>
      <trkpt lat="49.84455" lon="2.5721">
        <ele>95.6</ele>
        <time>2023-07-02T09:40:46Z</time>
      </trkpt>
      <trkpt lat="49.84455" lon="2.57208">
        <ele>95.6</ele>
        <time>2023-07-02T09:40:47Z</time>
      </trkpt>
      <trkpt lat="49.84456" lon="2.57205">
        <ele>95.6</ele>
        <time>2023-07-02T09:40:48Z</time>
      </trkpt>
      <trkpt lat="49.84455" lon="2.57204">
        <ele>95.6</ele>
        <time>2023-07-02T09:40:49Z</time>
      </trkpt>
      <trkpt lat="49.84455" lon="2.57202">
        <ele>95.6</ele>
        <time>2023-07-02T09:40:51Z</time>
      </trkpt>
      <trkpt lat="49.84455" lon="2.572">
        <ele>95.6</ele>
        <time>2023-07-02T09:40:52Z</time>
      </trkpt>
      <trkpt lat="49.84455" lon="2.57199">
        <ele>95.6</ele>
        <time>2023-07-02T09:40:53Z</time>
      </trkpt>
      <trkpt lat="49.84455" lon="2.57197">
        <ele>95.6</ele>
        <time>2023-07-02T09:40:54Z</time>
      </trkpt>
      <trkpt lat="49.84455" lon="2.57195">
        <ele>95.7</ele>
        <time>2023-07-02T09:40:55Z</time>
      </trkpt>
      <trkpt lat="49.84456" lon="2.57192">
        <ele>95.7</ele>
        <time>2023-07-02T09:40:56Z</time>
      </trkpt>
      <trkpt lat="49.84456" lon="2.5719">
        <ele>95.7</ele>
        <time>2023-07-02T09:40:58Z</time>
      </trkpt>
      <trkpt lat="49.84456" lon="2.57189">
        <ele>95.7</ele>
        <time>2023-07-02T09:40:59Z</time>
      </trkpt>
      <trkpt lat="49.84456" lon="2.57185">
        <ele>95.7</ele>
        <time>2023-07-02T09:41:00Z</time>
      </trkpt>
      <trkpt lat="49.84456" lon="2.57184">
        <ele>95.8</ele>
        <time>2023-07-02T09:41:01Z</time>
      </trkpt>
      <trkpt lat="49.84456" lon="2.57183">
        <ele>95.8</ele>
        <time>2023-07-02T09:41:02Z</time>
      </trkpt>
      <trkpt lat="49.84456" lon="2.57181">
        <ele>95.8</ele>
        <time>2023-07-02T09:41:03Z</time>
      </trkpt>
      <trkpt lat="49.84456" lon="2.57179">
        <ele>95.8</ele>
        <time>2023-07-02T09:41:04Z</time>
      </trkpt>
      <trkpt lat="49.84457" lon="2.57177">
        <ele>95.8</ele>
        <time>2023-07-02T09:41:06Z</time>
      </trkpt>
      <trkpt lat="49.84457" lon="2.57175">
        <ele>95.8</ele>
        <time>2023-07-02T09:41:07Z</time>
      </trkpt>
      <trkpt lat="49.84458" lon="2.57174">
        <ele>95.9</ele>
        <time>2023-07-02T09:41:08Z</time>
      </trkpt>
      <trkpt lat="49.84459" lon="2.57172">
        <ele>95.9</ele>
        <time>2023-07-02T09:41:09Z</time>
      </trkpt>
      <trkpt lat="49.8446" lon="2.57169">
        <ele>95.9</ele>
        <time>2023-07-02T09:41:10Z</time>
      </trkpt>
      <trkpt lat="49.8446" lon="2.57168">
        <ele>95.9</ele>
        <time>2023-07-02T09:41:12Z</time>
      </trkpt>
      <trkpt lat="49.84461" lon="2.57167">
        <ele>95.9</ele>
        <time>2023-07-02T09:41:13Z</time>
      </trkpt>
      <trkpt lat="49.84461" lon="2.57166">
        <ele>95.9</ele>
        <time>2023-07-02T09:41:14Z</time>
      </trkpt>
      <trkpt lat="49.84462" lon="2.57164">
        <ele>96</ele>
        <time>2023-07-02T09:41:15Z</time>
      </trkpt>
      <trkpt lat="49.84462" lon="2.57162">
        <ele>96</ele>
        <time>2023-07-02T09:41:16Z</time>
      </trkpt>
      <trkpt lat="49.84462" lon="2.57161">
        <ele>96</ele>
        <time>2023-07-02T09:41:17Z</time>
      </trkpt>
      <trkpt lat="49.84463" lon="2.57159">
        <ele>96</ele>
        <time>2023-07-02T09:41:18Z</time>
      </trkpt>
      <trkpt lat="49.84463" lon="2.57157">
        <ele>96</ele>
        <time>2023-07-02T09:41:19Z</time>
      </trkpt>
      <trkpt lat="49.84463" lon="2.57155">
        <ele>96</ele>
        <time>2023-07-02T09:41:21Z</time>
      </trkpt>
      <trkpt lat="49.84463" lon="2.57153">
        <ele>96.1</ele>
        <time>2023-07-02T09:41:22Z</time>
      </trkpt>
      <trkpt lat="49.84464" lon="2.57152">
        <ele>96.1</ele>
        <time>2023-07-02T09:41:23Z</time>
      </trkpt>
      <trkpt lat="49.84464" lon="2.5715">
        <ele>96.1</ele>
        <time>2023-07-02T09:41:24Z</time>
      </trkpt>
      <trkpt lat="49.84464" lon="2.57149">
        <ele>96.1</ele>
        <time>2023-07-02T09:41:25Z</time>
      </trkpt>
      <trkpt lat="49.84464" lon="2.57147">
        <ele>96.1</ele>
        <time>2023-07-02T09:41:26Z</time>
      </trkpt>
      <trkpt lat="49.84464" lon="2.57145">
        <ele>96.1</ele>
        <time>2023-07-02T09:41:28Z</time>
      </trkpt>
      <trkpt lat="49.84464" lon="2.57143">
        <ele>96.1</ele>
        <time>2023-07-02T09:41:29Z</time>
      </trkpt>
      <trkpt lat="49.84465" lon="2.57141">
        <ele>96.1</ele>
        <time>2023-07-02T09:41:30Z</time>
      </trkpt>
      <trkpt lat="49.84465" lon="2.57139">
        <ele>96.1</ele>
        <time>2023-07-02T09:41:31Z</time>
      </trkpt>
      <trkpt lat="49.84465" lon="2.57138">
        <ele>96.1</ele>
        <time>2023-07-02T09:41:32Z</time>
      </trkpt>
      <trkpt lat="49.84465" lon="2.57136">
        <ele>96.2</ele>
        <time>2023-07-02T09:41:34Z</time>
      </trkpt>
      <trkpt lat="49.84466" lon="2.57134">
        <ele>96.2</ele>
        <time>2023-07-02T09:41:35Z</time>
      </trkpt>
      <trkpt lat="49.84467" lon="2.5713">
        <ele>96.2</ele>
        <time>2023-07-02T09:41:36Z</time>
      </trkpt>
      <trkpt lat="49.84467" lon="2.57129">
        <ele>96.2</ele>
        <time>2023-07-02T09:41:37Z</time>
      </trkpt>
      <trkpt lat="49.84467" lon="2.57128">
        <ele>96.2</ele>
        <time>2023-07-02T09:41:38Z</time>
      </trkpt>
      <trkpt lat="49.84467" lon="2.57126">
        <ele>96.2</ele>
        <time>2023-07-02T09:41:39Z</time>
      </trkpt>
      <trkpt lat="49.84468" lon="2.57125">
        <ele>96.2</ele>
        <time>2023-07-02T09:41:40Z</time>
      </trkpt>
      <trkpt lat="49.84468" lon="2.57123">
        <ele>96.2</ele>
        <time>2023-07-02T09:41:41Z</time>
      </trkpt>
      <trkpt lat="49.84469" lon="2.5712">
        <ele>96.2</ele>
        <time>2023-07-02T09:41:43Z</time>
      </trkpt>
      <trkpt lat="49.84469" lon="2.57119">
        <ele>96.2</ele>
        <time>2023-07-02T09:41:44Z</time>
      </trkpt>
      <trkpt lat="49.84469" lon="2.57117">
        <ele>96.2</ele>
        <time>2023-07-02T09:41:45Z</time>
      </trkpt>
      <trkpt lat="49.84469" lon="2.57115">
        <ele>96.2</ele>
        <time>2023-07-02T09:41:46Z</time>
      </trkpt>
      <trkpt lat="49.8447" lon="2.57113">
        <ele>96.2</ele>
        <time>2023-07-02T09:41:47Z</time>
      </trkpt>
      <trkpt lat="49.8447" lon="2.5711">
        <ele>96.2</ele>
        <time>2023-07-02T09:41:49Z</time>
      </trkpt>
      <trkpt lat="49.8447" lon="2.57109">
        <ele>96.2</ele>
        <time>2023-07-02T09:41:50Z</time>
      </trkpt>
      <trkpt lat="49.84471" lon="2.57107">
        <ele>96.2</ele>
        <time>2023-07-02T09:41:51Z</time>
      </trkpt>
      <trkpt lat="49.84471" lon="2.57104">
        <ele>96.2</ele>
        <time>2023-07-02T09:41:52Z</time>
      </trkpt>
      <trkpt lat="49.84471" lon="2.57103">
        <ele>96.2</ele>
        <time>2023-07-02T09:41:53Z</time>
      </trkpt>
      <trkpt lat="49.84472" lon="2.57102">
        <ele>96.2</ele>
        <time>2023-07-02T09:41:54Z</time>
      </trkpt>
      <trkpt lat="49.84472" lon="2.57098">
        <ele>96.2</ele>
        <time>2023-07-02T09:41:55Z</time>
      </trkpt>
      <trkpt lat="49.84472" lon="2.57097">
        <ele>96.2</ele>
        <time>2023-07-02T09:41:57Z</time>
      </trkpt>
      <trkpt lat="49.84473" lon="2.57096">
        <ele>96.2</ele>
        <time>2023-07-02T09:41:58Z</time>
      </trkpt>
      <trkpt lat="49.84473" lon="2.57094">
        <ele>96.2</ele>
        <time>2023-07-02T09:41:59Z</time>
      </trkpt>
      <trkpt lat="49.84473" lon="2.57092">
        <ele>96.2</ele>
        <time>2023-07-02T09:42:00Z</time>
      </trkpt>
      <trkpt lat="49.84473" lon="2.57091">
        <ele>96.2</ele>
        <time>2023-07-02T09:42:01Z</time>
      </trkpt>
      <trkpt lat="49.84473" lon="2.57089">
        <ele>96.2</ele>
        <time>2023-07-02T09:42:02Z</time>
      </trkpt>
      <trkpt lat="49.84474" lon="2.57087">
        <ele>96.2</ele>
        <time>2023-07-02T09:42:03Z</time>
      </trkpt>
      <trkpt lat="49.84474" lon="2.57085">
        <ele>96.2</ele>
        <time>2023-07-02T09:42:04Z</time>
      </trkpt>
      <trkpt lat="49.84474" lon="2.57082">
        <ele>96.2</ele>
        <time>2023-07-02T09:42:05Z</time>
      </trkpt>
      <trkpt lat="49.84474" lon="2.5708">
        <ele>96.2</ele>
        <time>2023-07-02T09:42:07Z</time>
      </trkpt>
      <trkpt lat="49.84474" lon="2.57079">
        <ele>96.2</ele>
        <time>2023-07-02T09:42:08Z</time>
      </trkpt>
      <trkpt lat="49.84475" lon="2.57077">
        <ele>96.2</ele>
        <time>2023-07-02T09:42:09Z</time>
      </trkpt>
      <trkpt lat="49.84475" lon="2.57076">
        <ele>96.2</ele>
        <time>2023-07-02T09:42:10Z</time>
      </trkpt>
      <trkpt lat="49.84475" lon="2.57074">
        <ele>96.2</ele>
        <time>2023-07-02T09:42:11Z</time>
      </trkpt>
      <trkpt lat="49.84476" lon="2.57071">
        <ele>96.2</ele>
        <time>2023-07-02T09:42:13Z</time>
      </trkpt>
      <trkpt lat="49.84476" lon="2.5707">
        <ele>96.2</ele>
        <time>2023-07-02T09:42:14Z</time>
      </trkpt>
      <trkpt lat="49.84476" lon="2.57068">
        <ele>96.2</ele>
        <time>2023-07-02T09:42:15Z</time>
      </trkpt>
      <trkpt lat="49.84476" lon="2.57065">
        <ele>96.2</ele>
        <time>2023-07-02T09:42:16Z</time>
      </trkpt>
      <trkpt lat="49.84476" lon="2.57064">
        <ele>96.1</ele>
        <time>2023-07-02T09:42:17Z</time>
      </trkpt>
      <trkpt lat="49.84476" lon="2.57062">
        <ele>96.1</ele>
        <time>2023-07-02T09:42:18Z</time>
      </trkpt>
      <trkpt lat="49.84476" lon="2.57061">
        <ele>96.1</ele>
        <time>2023-07-02T09:42:19Z</time>
      </trkpt>
      <trkpt lat="49.84476" lon="2.57059">
        <ele>96.1</ele>
        <time>2023-07-02T09:42:20Z</time>
      </trkpt>
      <trkpt lat="49.84476" lon="2.57058">
        <ele>96.1</ele>
        <time>2023-07-02T09:42:21Z</time>
      </trkpt>
      <trkpt lat="49.84476" lon="2.57056">
        <ele>96.1</ele>
        <time>2023-07-02T09:42:23Z</time>
      </trkpt>
      <trkpt lat="49.84477" lon="2.57054">
        <ele>96.1</ele>
        <time>2023-07-02T09:42:24Z</time>
      </trkpt>
      <trkpt lat="49.84477" lon="2.57052">
        <ele>96.1</ele>
        <time>2023-07-02T09:42:25Z</time>
      </trkpt>
      <trkpt lat="49.84477" lon="2.57049">
        <ele>96.1</ele>
        <time>2023-07-02T09:42:26Z</time>
      </trkpt>
      <trkpt lat="49.84477" lon="2.57048">
        <ele>96.1</ele>
        <time>2023-07-02T09:42:27Z</time>
      </trkpt>
      <trkpt lat="49.84478" lon="2.57047">
        <ele>96.1</ele>
        <time>2023-07-02T09:42:28Z</time>
      </trkpt>
      <trkpt lat="49.84478" lon="2.57044">
        <ele>96.2</ele>
        <time>2023-07-02T09:42:29Z</time>
      </trkpt>
      <trkpt lat="49.84478" lon="2.57042">
        <ele>96.2</ele>
        <time>2023-07-02T09:42:30Z</time>
      </trkpt>
      <trkpt lat="49.84478" lon="2.5704">
        <ele>96.2</ele>
        <time>2023-07-02T09:42:32Z</time>
      </trkpt>
      <trkpt lat="49.84478" lon="2.57039">
        <ele>96.2</ele>
        <time>2023-07-02T09:42:33Z</time>
      </trkpt>
      <trkpt lat="49.84479" lon="2.57037">
        <ele>96.2</ele>
        <time>2023-07-02T09:42:34Z</time>
      </trkpt>
      <trkpt lat="49.84479" lon="2.57035">
        <ele>96.2</ele>
        <time>2023-07-02T09:42:35Z</time>
      </trkpt>
      <trkpt lat="49.84479" lon="2.57033">
        <ele>96.2</ele>
        <time>2023-07-02T09:42:36Z</time>
      </trkpt>
      <trkpt lat="49.84479" lon="2.57032">
        <ele>96.2</ele>
        <time>2023-07-02T09:42:37Z</time>
      </trkpt>
      <trkpt lat="49.84479" lon="2.5703">
        <ele>96.2</ele>
        <time>2023-07-02T09:42:38Z</time>
      </trkpt>
      <trkpt lat="49.84479" lon="2.57028">
        <ele>96.2</ele>
        <time>2023-07-02T09:42:39Z</time>
      </trkpt>
      <trkpt lat="49.84479" lon="2.57027">
        <ele>96.2</ele>
        <time>2023-07-02T09:42:40Z</time>
      </trkpt>
      <trkpt lat="49.84479" lon="2.57024">
        <ele>96.2</ele>
        <time>2023-07-02T09:42:42Z</time>
      </trkpt>
      <trkpt lat="49.8448" lon="2.57021">
        <ele>96.2</ele>
        <time>2023-07-02T09:42:43Z</time>
      </trkpt>
      <trkpt lat="49.8448" lon="2.5702">
        <ele>96.2</ele>
        <time>2023-07-02T09:42:44Z</time>
      </trkpt>
      <trkpt lat="49.8448" lon="2.57019">
        <ele>96.2</ele>
        <time>2023-07-02T09:42:45Z</time>
      </trkpt>
      <trkpt lat="49.84481" lon="2.57017">
        <ele>96.2</ele>
        <time>2023-07-02T09:42:46Z</time>
      </trkpt>
      <trkpt lat="49.84481" lon="2.57015">
        <ele>96.2</ele>
        <time>2023-07-02T09:42:47Z</time>
      </trkpt>
      <trkpt lat="49.84481" lon="2.57013">
        <ele>96.2</ele>
        <time>2023-07-02T09:42:49Z</time>
      </trkpt>
      <trkpt lat="49.84481" lon="2.57009">
        <ele>96.2</ele>
        <time>2023-07-02T09:42:50Z</time>
      </trkpt>
      <trkpt lat="49.84481" lon="2.57008">
        <ele>96.3</ele>
        <time>2023-07-02T09:42:51Z</time>
      </trkpt>
      <trkpt lat="49.84482" lon="2.57007">
        <ele>96.3</ele>
        <time>2023-07-02T09:42:52Z</time>
      </trkpt>
      <trkpt lat="49.84482" lon="2.57005">
        <ele>96.3</ele>
        <time>2023-07-02T09:42:53Z</time>
      </trkpt>
      <trkpt lat="49.84482" lon="2.57003">
        <ele>96.3</ele>
        <time>2023-07-02T09:42:54Z</time>
      </trkpt>
      <trkpt lat="49.84482" lon="2.57">
        <ele>96.3</ele>
        <time>2023-07-02T09:42:55Z</time>
      </trkpt>
      <trkpt lat="49.84483" lon="2.56998">
        <ele>96.3</ele>
        <time>2023-07-02T09:42:57Z</time>
      </trkpt>
      <trkpt lat="49.84483" lon="2.56996">
        <ele>96.3</ele>
        <time>2023-07-02T09:42:58Z</time>
      </trkpt>
      <trkpt lat="49.84483" lon="2.56994">
        <ele>96.3</ele>
        <time>2023-07-02T09:42:59Z</time>
      </trkpt>
      <trkpt lat="49.84484" lon="2.56993">
        <ele>96.3</ele>
        <time>2023-07-02T09:43:00Z</time>
      </trkpt>
      <trkpt lat="49.84484" lon="2.5699">
        <ele>96.3</ele>
        <time>2023-07-02T09:43:01Z</time>
      </trkpt>
      <trkpt lat="49.84484" lon="2.56988">
        <ele>96.3</ele>
        <time>2023-07-02T09:43:02Z</time>
      </trkpt>
      <trkpt lat="49.84485" lon="2.56987">
        <ele>96.3</ele>
        <time>2023-07-02T09:43:03Z</time>
      </trkpt>
      <trkpt lat="49.84485" lon="2.56986">
        <ele>96.3</ele>
        <time>2023-07-02T09:43:04Z</time>
      </trkpt>
      <trkpt lat="49.84485" lon="2.56984">
        <ele>96.3</ele>
        <time>2023-07-02T09:43:05Z</time>
      </trkpt>
      <trkpt lat="49.84485" lon="2.56982">
        <ele>96.3</ele>
        <time>2023-07-02T09:43:07Z</time>
      </trkpt>
      <trkpt lat="49.84485" lon="2.5698">
        <ele>96.3</ele>
        <time>2023-07-02T09:43:08Z</time>
      </trkpt>
      <trkpt lat="49.84486" lon="2.56978">
        <ele>96.3</ele>
        <time>2023-07-02T09:43:09Z</time>
      </trkpt>
      <trkpt lat="49.84486" lon="2.56977">
        <ele>96.3</ele>
        <time>2023-07-02T09:43:10Z</time>
      </trkpt>
      <trkpt lat="49.84486" lon="2.56976">
        <ele>96.3</ele>
        <time>2023-07-02T09:43:11Z</time>
      </trkpt>
      <trkpt lat="49.84486" lon="2.56974">
        <ele>96.3</ele>
        <time>2023-07-02T09:43:12Z</time>
      </trkpt>
      <trkpt lat="49.84486" lon="2.56972">
        <ele>96.3</ele>
        <time>2023-07-02T09:43:13Z</time>
      </trkpt>
      <trkpt lat="49.84486" lon="2.56971">
        <ele>96.3</ele>
        <time>2023-07-02T09:43:14Z</time>
      </trkpt>
      <trkpt lat="49.84486" lon="2.56969">
        <ele>96.4</ele>
        <time>2023-07-02T09:43:15Z</time>
      </trkpt>
      <trkpt lat="49.84486" lon="2.56967">
        <ele>96.4</ele>
        <time>2023-07-02T09:43:17Z</time>
      </trkpt>
      <trkpt lat="49.84486" lon="2.56965">
        <ele>96.4</ele>
        <time>2023-07-02T09:43:18Z</time>
      </trkpt>
      <trkpt lat="49.84486" lon="2.56963">
        <ele>96.4</ele>
        <time>2023-07-02T09:43:19Z</time>
      </trkpt>
      <trkpt lat="49.84486" lon="2.56962">
        <ele>96.4</ele>
        <time>2023-07-02T09:43:20Z</time>
      </trkpt>
      <trkpt lat="49.84486" lon="2.5696">
        <ele>96.4</ele>
        <time>2023-07-02T09:43:21Z</time>
      </trkpt>
      <trkpt lat="49.84486" lon="2.56958">
        <ele>96.4</ele>
        <time>2023-07-02T09:43:22Z</time>
      </trkpt>
      <trkpt lat="49.84487" lon="2.56956">
        <ele>96.4</ele>
        <time>2023-07-02T09:43:23Z</time>
      </trkpt>
      <trkpt lat="49.84487" lon="2.56953">
        <ele>96.4</ele>
        <time>2023-07-02T09:43:24Z</time>
      </trkpt>
      <trkpt lat="49.84487" lon="2.56952">
        <ele>96.4</ele>
        <time>2023-07-02T09:43:25Z</time>
      </trkpt>
      <trkpt lat="49.84487" lon="2.56951">
        <ele>96.4</ele>
        <time>2023-07-02T09:43:26Z</time>
      </trkpt>
      <trkpt lat="49.84487" lon="2.56948">
        <ele>96.4</ele>
        <time>2023-07-02T09:43:28Z</time>
      </trkpt>
      <trkpt lat="49.84487" lon="2.56946">
        <ele>96.4</ele>
        <time>2023-07-02T09:43:29Z</time>
      </trkpt>
      <trkpt lat="49.84487" lon="2.56943">
        <ele>96.4</ele>
        <time>2023-07-02T09:43:30Z</time>
      </trkpt>
      <trkpt lat="49.84488" lon="2.56941">
        <ele>96.4</ele>
        <time>2023-07-02T09:43:31Z</time>
      </trkpt>
      <trkpt lat="49.84488" lon="2.5694">
        <ele>96.4</ele>
        <time>2023-07-02T09:43:32Z</time>
      </trkpt>
      <trkpt lat="49.84488" lon="2.56937">
        <ele>96.4</ele>
        <time>2023-07-02T09:43:33Z</time>
      </trkpt>
      <trkpt lat="49.84489" lon="2.56936">
        <ele>96.4</ele>
        <time>2023-07-02T09:43:34Z</time>
      </trkpt>
      <trkpt lat="49.84489" lon="2.56934">
        <ele>96.4</ele>
        <time>2023-07-02T09:43:35Z</time>
      </trkpt>
      <trkpt lat="49.84489" lon="2.56932">
        <ele>96.4</ele>
        <time>2023-07-02T09:43:36Z</time>
      </trkpt>
      <trkpt lat="49.8449" lon="2.5693">
        <ele>96.4</ele>
        <time>2023-07-02T09:43:37Z</time>
      </trkpt>
      <trkpt lat="49.84491" lon="2.56928">
        <ele>96.4</ele>
        <time>2023-07-02T09:43:39Z</time>
      </trkpt>
      <trkpt lat="49.84491" lon="2.56926">
        <ele>96.4</ele>
        <time>2023-07-02T09:43:40Z</time>
      </trkpt>
      <trkpt lat="49.84491" lon="2.56924">
        <ele>96.4</ele>
        <time>2023-07-02T09:43:41Z</time>
      </trkpt>
      <trkpt lat="49.84491" lon="2.56922">
        <ele>96.4</ele>
        <time>2023-07-02T09:43:42Z</time>
      </trkpt>
      <trkpt lat="49.84491" lon="2.5692">
        <ele>96.4</ele>
        <time>2023-07-02T09:43:43Z</time>
      </trkpt>
      <trkpt lat="49.84492" lon="2.56917">
        <ele>96.4</ele>
        <time>2023-07-02T09:43:44Z</time>
      </trkpt>
      <trkpt lat="49.84492" lon="2.56916">
        <ele>96.4</ele>
        <time>2023-07-02T09:43:45Z</time>
      </trkpt>
      <trkpt lat="49.84492" lon="2.56914">
        <ele>96.4</ele>
        <time>2023-07-02T09:43:46Z</time>
      </trkpt>
      <trkpt lat="49.84492" lon="2.56912">
        <ele>96.5</ele>
        <time>2023-07-02T09:43:47Z</time>
      </trkpt>
      <trkpt lat="49.84492" lon="2.5691">
        <ele>96.5</ele>
        <time>2023-07-02T09:43:49Z</time>
      </trkpt>
      <trkpt lat="49.84491" lon="2.56908">
        <ele>96.5</ele>
        <time>2023-07-02T09:43:50Z</time>
      </trkpt>
      <trkpt lat="49.84492" lon="2.56906">
        <ele>96.5</ele>
        <time>2023-07-02T09:43:51Z</time>
      </trkpt>
      <trkpt lat="49.84492" lon="2.56905">
        <ele>96.5</ele>
        <time>2023-07-02T09:43:52Z</time>
      </trkpt>
      <trkpt lat="49.84492" lon="2.56901">
        <ele>96.5</ele>
        <time>2023-07-02T09:43:53Z</time>
      </trkpt>
      <trkpt lat="49.84492" lon="2.569">
        <ele>96.5</ele>
        <time>2023-07-02T09:43:54Z</time>
      </trkpt>
      <trkpt lat="49.84492" lon="2.56899">
        <ele>96.5</ele>
        <time>2023-07-02T09:43:55Z</time>
      </trkpt>
      <trkpt lat="49.84493" lon="2.56895">
        <ele>96.5</ele>
        <time>2023-07-02T09:43:56Z</time>
      </trkpt>
      <trkpt lat="49.84493" lon="2.56894">
        <ele>96.5</ele>
        <time>2023-07-02T09:43:57Z</time>
      </trkpt>
      <trkpt lat="49.84493" lon="2.56893">
        <ele>96.5</ele>
        <time>2023-07-02T09:43:58Z</time>
      </trkpt>
      <trkpt lat="49.84494" lon="2.5689">
        <ele>96.5</ele>
        <time>2023-07-02T09:44:00Z</time>
      </trkpt>
      <trkpt lat="49.84494" lon="2.56888">
        <ele>96.6</ele>
        <time>2023-07-02T09:44:01Z</time>
      </trkpt>
      <trkpt lat="49.84494" lon="2.56887">
        <ele>96.6</ele>
        <time>2023-07-02T09:44:02Z</time>
      </trkpt>
      <trkpt lat="49.84495" lon="2.56886">
        <ele>96.6</ele>
        <time>2023-07-02T09:44:03Z</time>
      </trkpt>
      <trkpt lat="49.84495" lon="2.56884">
        <ele>96.6</ele>
        <time>2023-07-02T09:44:04Z</time>
      </trkpt>
      <trkpt lat="49.84495" lon="2.56882">
        <ele>96.6</ele>
        <time>2023-07-02T09:44:05Z</time>
      </trkpt>
      <trkpt lat="49.84495" lon="2.5688">
        <ele>96.6</ele>
        <time>2023-07-02T09:44:06Z</time>
      </trkpt>
      <trkpt lat="49.84495" lon="2.56878">
        <ele>96.6</ele>
        <time>2023-07-02T09:44:07Z</time>
      </trkpt>
      <trkpt lat="49.84495" lon="2.56877">
        <ele>96.6</ele>
        <time>2023-07-02T09:44:08Z</time>
      </trkpt>
      <trkpt lat="49.84496" lon="2.56874">
        <ele>96.6</ele>
        <time>2023-07-02T09:44:09Z</time>
      </trkpt>
      <trkpt lat="49.84496" lon="2.56872">
        <ele>96.6</ele>
        <time>2023-07-02T09:44:11Z</time>
      </trkpt>
      <trkpt lat="49.84496" lon="2.56871">
        <ele>96.6</ele>
        <time>2023-07-02T09:44:12Z</time>
      </trkpt>
      <trkpt lat="49.84496" lon="2.5687">
        <ele>96.6</ele>
        <time>2023-07-02T09:44:13Z</time>
      </trkpt>
      <trkpt lat="49.84496" lon="2.56868">
        <ele>96.7</ele>
        <time>2023-07-02T09:44:14Z</time>
      </trkpt>
      <trkpt lat="49.84496" lon="2.56866">
        <ele>96.7</ele>
        <time>2023-07-02T09:44:15Z</time>
      </trkpt>
      <trkpt lat="49.84496" lon="2.56863">
        <ele>96.7</ele>
        <time>2023-07-02T09:44:16Z</time>
      </trkpt>
      <trkpt lat="49.84496" lon="2.56862">
        <ele>96.7</ele>
        <time>2023-07-02T09:44:17Z</time>
      </trkpt>
      <trkpt lat="49.84497" lon="2.5686">
        <ele>96.7</ele>
        <time>2023-07-02T09:44:18Z</time>
      </trkpt>
      <trkpt lat="49.84497" lon="2.56857">
        <ele>96.7</ele>
        <time>2023-07-02T09:44:20Z</time>
      </trkpt>
      <trkpt lat="49.84497" lon="2.56856">
        <ele>96.7</ele>
        <time>2023-07-02T09:44:21Z</time>
      </trkpt>
      <trkpt lat="49.84497" lon="2.56855">
        <ele>96.7</ele>
        <time>2023-07-02T09:44:22Z</time>
      </trkpt>
      <trkpt lat="49.84498" lon="2.56851">
        <ele>96.7</ele>
        <time>2023-07-02T09:44:23Z</time>
      </trkpt>
      <trkpt lat="49.84498" lon="2.5685">
        <ele>96.7</ele>
        <time>2023-07-02T09:44:24Z</time>
      </trkpt>
      <trkpt lat="49.84498" lon="2.56849">
        <ele>96.8</ele>
        <time>2023-07-02T09:44:25Z</time>
      </trkpt>
      <trkpt lat="49.84499" lon="2.56847">
        <ele>96.8</ele>
        <time>2023-07-02T09:44:27Z</time>
      </trkpt>
      <trkpt lat="49.84499" lon="2.56845">
        <ele>96.8</ele>
        <time>2023-07-02T09:44:28Z</time>
      </trkpt>
      <trkpt lat="49.845" lon="2.56843">
        <ele>96.8</ele>
        <time>2023-07-02T09:44:29Z</time>
      </trkpt>
      <trkpt lat="49.845" lon="2.5684">
        <ele>96.8</ele>
        <time>2023-07-02T09:44:30Z</time>
      </trkpt>
      <trkpt lat="49.84501" lon="2.56838">
        <ele>96.8</ele>
        <time>2023-07-02T09:44:31Z</time>
      </trkpt>
      <trkpt lat="49.84501" lon="2.56836">
        <ele>96.8</ele>
        <time>2023-07-02T09:44:32Z</time>
      </trkpt>
      <trkpt lat="49.84501" lon="2.56835">
        <ele>96.8</ele>
        <time>2023-07-02T09:44:33Z</time>
      </trkpt>
      <trkpt lat="49.84501" lon="2.56833">
        <ele>96.9</ele>
        <time>2023-07-02T09:44:34Z</time>
      </trkpt>
      <trkpt lat="49.84502" lon="2.56831">
        <ele>96.9</ele>
        <time>2023-07-02T09:44:36Z</time>
      </trkpt>
      <trkpt lat="49.84502" lon="2.56829">
        <ele>96.9</ele>
        <time>2023-07-02T09:44:37Z</time>
      </trkpt>
      <trkpt lat="49.84501" lon="2.56827">
        <ele>96.9</ele>
        <time>2023-07-02T09:44:38Z</time>
      </trkpt>
      <trkpt lat="49.84501" lon="2.56825">
        <ele>97</ele>
        <time>2023-07-02T09:44:39Z</time>
      </trkpt>
      <trkpt lat="49.84501" lon="2.56824">
        <ele>97</ele>
        <time>2023-07-02T09:44:40Z</time>
      </trkpt>
      <trkpt lat="49.84502" lon="2.56823">
        <ele>97.1</ele>
        <time>2023-07-02T09:44:42Z</time>
      </trkpt>
      <trkpt lat="49.84502" lon="2.56821">
        <ele>97.2</ele>
        <time>2023-07-02T09:44:43Z</time>
      </trkpt>
      <trkpt lat="49.84502" lon="2.5682">
        <ele>97.2</ele>
        <time>2023-07-02T09:44:44Z</time>
      </trkpt>
      <trkpt lat="49.84502" lon="2.56818">
        <ele>97.2</ele>
        <time>2023-07-02T09:44:45Z</time>
      </trkpt>
      <trkpt lat="49.84502" lon="2.56817">
        <ele>97.3</ele>
        <time>2023-07-02T09:44:46Z</time>
      </trkpt>
      <trkpt lat="49.84501" lon="2.56818">
        <ele>97.3</ele>
        <time>2023-07-02T09:44:48Z</time>
      </trkpt>
      <trkpt lat="49.845" lon="2.56818">
        <ele>97.3</ele>
        <time>2023-07-02T09:44:49Z</time>
      </trkpt>
      <trkpt lat="49.84499" lon="2.56818">
        <ele>97.3</ele>
        <time>2023-07-02T09:44:50Z</time>
      </trkpt>
      <trkpt lat="49.84498" lon="2.56819">
        <ele>97.3</ele>
        <time>2023-07-02T09:44:52Z</time>
      </trkpt>
      <trkpt lat="49.84497" lon="2.5682">
        <ele>97.3</ele>
        <time>2023-07-02T09:44:53Z</time>
      </trkpt>
      <trkpt lat="49.84495" lon="2.56822">
        <ele>97.3</ele>
        <time>2023-07-02T09:44:54Z</time>
      </trkpt>
      <trkpt lat="49.84495" lon="2.56823">
        <ele>97.2</ele>
        <time>2023-07-02T09:44:55Z</time>
      </trkpt>
      <trkpt lat="49.84494" lon="2.56824">
        <ele>97.3</ele>
        <time>2023-07-02T09:44:56Z</time>
      </trkpt>
      <trkpt lat="49.84493" lon="2.56826">
        <ele>97.2</ele>
        <time>2023-07-02T09:44:58Z</time>
      </trkpt>
      <trkpt lat="49.84491" lon="2.56827">
        <ele>97.2</ele>
        <time>2023-07-02T09:44:59Z</time>
      </trkpt>
      <trkpt lat="49.84489" lon="2.56828">
        <ele>97.2</ele>
        <time>2023-07-02T09:45:00Z</time>
      </trkpt>
      <trkpt lat="49.84488" lon="2.56829">
        <ele>97.2</ele>
        <time>2023-07-02T09:45:02Z</time>
      </trkpt>
      <trkpt lat="49.84487" lon="2.56829">
        <ele>97.2</ele>
        <time>2023-07-02T09:45:03Z</time>
      </trkpt>
      <trkpt lat="49.84486" lon="2.5683">
        <ele>97.2</ele>
        <time>2023-07-02T09:45:04Z</time>
      </trkpt>
      <trkpt lat="49.84485" lon="2.5683">
        <ele>97.3</ele>
        <time>2023-07-02T09:45:05Z</time>
      </trkpt>
      <trkpt lat="49.84483" lon="2.56831">
        <ele>97.3</ele>
        <time>2023-07-02T09:45:06Z</time>
      </trkpt>
      <trkpt lat="49.84482" lon="2.56831">
        <ele>97.3</ele>
        <time>2023-07-02T09:45:08Z</time>
      </trkpt>
      <trkpt lat="49.84482" lon="2.56831">
        <ele>97.3</ele>
        <time>2023-07-02T09:45:09Z</time>
      </trkpt>
      <trkpt lat="49.84481" lon="2.56832">
        <ele>97.3</ele>
        <time>2023-07-02T09:45:10Z</time>
      </trkpt>
      <trkpt lat="49.8448" lon="2.56834">
        <ele>97.3</ele>
        <time>2023-07-02T09:45:11Z</time>
      </trkpt>
      <trkpt lat="49.8448" lon="2.56835">
        <ele>97.3</ele>
        <time>2023-07-02T09:45:12Z</time>
      </trkpt>
      <trkpt lat="49.84481" lon="2.56836">
        <ele>97.3</ele>
        <time>2023-07-02T09:45:13Z</time>
      </trkpt>
      <trkpt lat="49.84482" lon="2.56834">
        <ele>97.3</ele>
        <time>2023-07-02T09:45:15Z</time>
      </trkpt>
      <trkpt lat="49.84482" lon="2.56833">
        <ele>97.3</ele>
        <time>2023-07-02T09:45:16Z</time>
      </trkpt>
      <trkpt lat="49.84482" lon="2.5683">
        <ele>97.3</ele>
        <time>2023-07-02T09:45:18Z</time>
      </trkpt>
      <trkpt lat="49.84483" lon="2.5683">
        <ele>97.3</ele>
        <time>2023-07-02T09:45:19Z</time>
      </trkpt>
      <trkpt lat="49.84483" lon="2.5683">
        <ele>97.3</ele>
        <time>2023-07-02T09:45:21Z</time>
      </trkpt>
      <trkpt lat="49.84483" lon="2.5683">
        <ele>97.3</ele>
        <time>2023-07-02T09:45:22Z</time>
      </trkpt>
      <trkpt lat="49.84483" lon="2.5683">
        <ele>97.3</ele>
        <time>2023-07-02T09:45:24Z</time>
      </trkpt>
      <trkpt lat="49.84483" lon="2.5683">
        <ele>97.3</ele>
        <time>2023-07-02T09:45:25Z</time>
      </trkpt>
      <trkpt lat="49.84483" lon="2.5683">
        <ele>97.3</ele>
        <time>2023-07-02T09:45:26Z</time>
      </trkpt>
      <trkpt lat="49.84483" lon="2.5683">
        <ele>97.3</ele>
        <time>2023-07-02T09:45:28Z</time>
      </trkpt>
      <trkpt lat="49.84483" lon="2.5683">
        <ele>97.3</ele>
        <time>2023-07-02T09:45:29Z</time>
      </trkpt>
      <trkpt lat="49.84483" lon="2.5683">
        <ele>97.3</ele>
        <time>2023-07-02T09:45:31Z</time>
      </trkpt>
      <trkpt lat="49.84483" lon="2.5683">
        <ele>97.3</ele>
        <time>2023-07-02T09:45:32Z</time>
      </trkpt>
      <trkpt lat="49.84483" lon="2.5683">
        <ele>97.3</ele>
        <time>2023-07-02T09:45:34Z</time>
      </trkpt>
      <trkpt lat="49.84483" lon="2.5683">
        <ele>97.3</ele>
        <time>2023-07-02T09:45:35Z</time>
      </trkpt>
      <trkpt lat="49.84483" lon="2.56831">
        <ele>97.3</ele>
        <time>2023-07-02T09:45:36Z</time>
      </trkpt>
      <trkpt lat="49.84483" lon="2.56831">
        <ele>97.3</ele>
        <time>2023-07-02T09:45:37Z</time>
      </trkpt>
      <trkpt lat="49.84483" lon="2.56831">
        <ele>97.3</ele>
        <time>2023-07-02T09:45:38Z</time>
      </trkpt>
      <trkpt lat="49.84483" lon="2.56831">
        <ele>97.3</ele>
        <time>2023-07-02T09:45:39Z</time>
      </trkpt>
      <trkpt lat="49.84483" lon="2.56831">
        <ele>97.3</ele>
        <time>2023-07-02T09:45:40Z</time>
      </trkpt>
      <trkpt lat="49.84483" lon="2.56831">
        <ele>97.3</ele>
        <time>2023-07-02T09:45:41Z</time>
      </trkpt>
      <trkpt lat="49.84483" lon="2.56831">
        <ele>97.3</ele>
        <time>2023-07-02T09:45:42Z</time>
      </trkpt>
      <trkpt lat="49.84483" lon="2.56831">
        <ele>97.3</ele>
        <time>2023-07-02T09:45:43Z</time>
      </trkpt>
      <trkpt lat="49.84483" lon="2.56831">
        <ele>97.3</ele>
        <time>2023-07-02T09:45:44Z</time>
      </trkpt>
      <trkpt lat="49.84483" lon="2.56831">
        <ele>97.3</ele>
        <time>2023-07-02T09:45:45Z</time>
      </trkpt>
      <trkpt lat="49.84483" lon="2.56831">
        <ele>97.3</ele>
        <time>2023-07-02T09:45:46Z</time>
      </trkpt>
      <trkpt lat="49.84483" lon="2.56831">
        <ele>97.3</ele>
        <time>2023-07-02T09:45:47Z</time>
      </trkpt>
      <trkpt lat="49.84483" lon="2.56831">
        <ele>97.3</ele>
        <time>2023-07-02T09:45:48Z</time>
      </trkpt>
      <trkpt lat="49.84483" lon="2.56831">
        <ele>97.3</ele>
        <time>2023-07-02T09:45:49Z</time>
      </trkpt>
      <trkpt lat="49.84483" lon="2.56832">
        <ele>97.3</ele>
        <time>2023-07-02T09:45:50Z</time>
      </trkpt>
      <trkpt lat="49.84483" lon="2.56832">
        <ele>97.3</ele>
        <time>2023-07-02T09:45:51Z</time>
      </trkpt>
      <trkpt lat="49.84483" lon="2.56832">
        <ele>97.3</ele>
        <time>2023-07-02T09:45:52Z</time>
      </trkpt>
      <trkpt lat="49.84483" lon="2.56832">
        <ele>97.3</ele>
        <time>2023-07-02T09:45:53Z</time>
      </trkpt>
      <trkpt lat="49.84483" lon="2.56832">
        <ele>97.3</ele>
        <time>2023-07-02T09:45:54Z</time>
      </trkpt>
      <trkpt lat="49.84483" lon="2.56832">
        <ele>97.3</ele>
        <time>2023-07-02T09:45:55Z</time>
      </trkpt>
      <trkpt lat="49.84483" lon="2.56832">
        <ele>97.3</ele>
        <time>2023-07-02T09:45:56Z</time>
      </trkpt>
      <trkpt lat="49.84483" lon="2.56832">
        <ele>97.3</ele>
        <time>2023-07-02T09:45:57Z</time>
      </trkpt>
      <trkpt lat="49.84483" lon="2.56832">
        <ele>97.3</ele>
        <time>2023-07-02T09:45:58Z</time>
      </trkpt>
      <trkpt lat="49.84483" lon="2.56832">
        <ele>97.3</ele>
        <time>2023-07-02T09:45:59Z</time>
      </trkpt>
      <trkpt lat="49.84483" lon="2.56832">
        <ele>97.3</ele>
        <time>2023-07-02T09:46:00Z</time>
      </trkpt>
      <trkpt lat="49.84483" lon="2.56832">
        <ele>97.3</ele>
        <time>2023-07-02T09:46:01Z</time>
      </trkpt>
      <trkpt lat="49.84483" lon="2.56832">
        <ele>97.3</ele>
        <time>2023-07-02T09:46:02Z</time>
      </trkpt>
      <trkpt lat="49.84483" lon="2.56832">
        <ele>97.3</ele>
        <time>2023-07-02T09:46:03Z</time>
      </trkpt>
      <trkpt lat="49.84483" lon="2.56832">
        <ele>97.3</ele>
        <time>2023-07-02T09:46:04Z</time>
      </trkpt>
      <trkpt lat="49.84483" lon="2.56833">
        <ele>97.3</ele>
        <time>2023-07-02T09:46:05Z</time>
      </trkpt>
      <trkpt lat="49.84483" lon="2.56833">
        <ele>97.3</ele>
        <time>2023-07-02T09:46:06Z</time>
      </trkpt>
      <trkpt lat="49.84482" lon="2.56834">
        <ele>97.3</ele>
        <time>2023-07-02T09:46:07Z</time>
      </trkpt>
      <trkpt lat="49.84482" lon="2.56835">
        <ele>97.3</ele>
        <time>2023-07-02T09:46:08Z</time>
      </trkpt>
      <trkpt lat="49.84482" lon="2.56835">
        <ele>97.3</ele>
        <time>2023-07-02T09:46:09Z</time>
      </trkpt>
      <trkpt lat="49.84482" lon="2.56835">
        <ele>97.3</ele>
        <time>2023-07-02T09:46:10Z</time>
      </trkpt>
      <trkpt lat="49.84482" lon="2.56835">
        <ele>97.3</ele>
        <time>2023-07-02T09:46:11Z</time>
      </trkpt>
      <trkpt lat="49.84481" lon="2.56835">
        <ele>97.3</ele>
        <time>2023-07-02T09:46:12Z</time>
      </trkpt>
      <trkpt lat="49.84481" lon="2.56835">
        <ele>97.3</ele>
        <time>2023-07-02T09:46:14Z</time>
      </trkpt>
      <trkpt lat="49.84481" lon="2.56836">
        <ele>97.3</ele>
        <time>2023-07-02T09:46:15Z</time>
      </trkpt>
      <trkpt lat="49.84481" lon="2.56836">
        <ele>97.3</ele>
        <time>2023-07-02T09:46:17Z</time>
      </trkpt>
      <trkpt lat="49.84481" lon="2.56836">
        <ele>97.3</ele>
        <time>2023-07-02T09:46:18Z</time>
      </trkpt>
      <trkpt lat="49.8448" lon="2.56836">
        <ele>97.3</ele>
        <time>2023-07-02T09:46:20Z</time>
      </trkpt>
      <trkpt lat="49.8448" lon="2.56836">
        <ele>97.3</ele>
        <time>2023-07-02T09:46:21Z</time>
      </trkpt>
      <trkpt lat="49.8448" lon="2.56836">
        <ele>97.3</ele>
        <time>2023-07-02T09:46:23Z</time>
      </trkpt>
      <trkpt lat="49.8448" lon="2.56836">
        <ele>97.3</ele>
        <time>2023-07-02T09:46:24Z</time>
      </trkpt>
      <trkpt lat="49.8448" lon="2.56835">
        <ele>97.3</ele>
        <time>2023-07-02T09:46:26Z</time>
      </trkpt>
      <trkpt lat="49.8448" lon="2.56835">
        <ele>97.3</ele>
        <time>2023-07-02T09:46:27Z</time>
      </trkpt>
      <trkpt lat="49.8448" lon="2.56835">
        <ele>97.3</ele>
        <time>2023-07-02T09:46:29Z</time>
      </trkpt>
      <trkpt lat="49.8448" lon="2.56835">
        <ele>97.3</ele>
        <time>2023-07-02T09:46:30Z</time>
      </trkpt>
      <trkpt lat="49.8448" lon="2.56835">
        <ele>97.3</ele>
        <time>2023-07-02T09:46:32Z</time>
      </trkpt>
      <trkpt lat="49.8448" lon="2.56835">
        <ele>97.3</ele>
        <time>2023-07-02T09:46:33Z</time>
      </trkpt>
      <trkpt lat="49.8448" lon="2.56835">
        <ele>97.3</ele>
        <time>2023-07-02T09:46:34Z</time>
      </trkpt>
      <trkpt lat="49.8448" lon="2.56835">
        <ele>97.3</ele>
        <time>2023-07-02T09:46:36Z</time>
      </trkpt>
      <trkpt lat="49.84481" lon="2.56836">
        <ele>97.3</ele>
        <time>2023-07-02T09:46:37Z</time>
      </trkpt>
      <trkpt lat="49.84481" lon="2.56836">
        <ele>97.3</ele>
        <time>2023-07-02T09:46:38Z</time>
      </trkpt>
      <trkpt lat="49.84481" lon="2.56835">
        <ele>97.3</ele>
        <time>2023-07-02T09:46:39Z</time>
      </trkpt>
      <trkpt lat="49.8448" lon="2.56833">
        <ele>97.3</ele>
        <time>2023-07-02T09:46:40Z</time>
      </trkpt>
      <trkpt lat="49.84478" lon="2.56833">
        <ele>97.3</ele>
        <time>2023-07-02T09:46:41Z</time>
      </trkpt>
      <trkpt lat="49.84475" lon="2.56833">
        <ele>97.2</ele>
        <time>2023-07-02T09:46:43Z</time>
      </trkpt>
      <trkpt lat="49.84474" lon="2.56834">
        <ele>97.2</ele>
        <time>2023-07-02T09:46:44Z</time>
      </trkpt>
      <trkpt lat="49.84472" lon="2.56834">
        <ele>97.2</ele>
        <time>2023-07-02T09:46:45Z</time>
      </trkpt>
      <trkpt lat="49.84471" lon="2.56835">
        <ele>97.2</ele>
        <time>2023-07-02T09:46:46Z</time>
      </trkpt>
      <trkpt lat="49.8447" lon="2.56835">
        <ele>97.2</ele>
        <time>2023-07-02T09:46:47Z</time>
      </trkpt>
      <trkpt lat="49.84468" lon="2.56836">
        <ele>97.2</ele>
        <time>2023-07-02T09:46:49Z</time>
      </trkpt>
      <trkpt lat="49.84468" lon="2.56837">
        <ele>97.2</ele>
        <time>2023-07-02T09:46:50Z</time>
      </trkpt>
      <trkpt lat="49.84468" lon="2.56838">
        <ele>97.2</ele>
        <time>2023-07-02T09:46:51Z</time>
      </trkpt>
      <trkpt lat="49.84468" lon="2.56839">
        <ele>97.2</ele>
        <time>2023-07-02T09:46:52Z</time>
      </trkpt>
      <trkpt lat="49.84469" lon="2.5684">
        <ele>97.2</ele>
        <time>2023-07-02T09:46:53Z</time>
      </trkpt>
      <trkpt lat="49.84469" lon="2.5684">
        <ele>97.2</ele>
        <time>2023-07-02T09:46:54Z</time>
      </trkpt>
      <trkpt lat="49.8447" lon="2.5684">
        <ele>97.2</ele>
        <time>2023-07-02T09:46:56Z</time>
      </trkpt>
      <trkpt lat="49.8447" lon="2.5684">
        <ele>97.2</ele>
        <time>2023-07-02T09:46:57Z</time>
      </trkpt>
      <trkpt lat="49.8447" lon="2.56839">
        <ele>97.2</ele>
        <time>2023-07-02T09:46:59Z</time>
      </trkpt>
      <trkpt lat="49.8447" lon="2.56839">
        <ele>97.2</ele>
        <time>2023-07-02T09:47:00Z</time>
      </trkpt>
      <trkpt lat="49.8447" lon="2.56838">
        <ele>97.2</ele>
        <time>2023-07-02T09:47:01Z</time>
      </trkpt>
      <trkpt lat="49.8447" lon="2.56838">
        <ele>97.2</ele>
        <time>2023-07-02T09:47:03Z</time>
      </trkpt>
      <trkpt lat="49.84471" lon="2.56838">
        <ele>97.2</ele>
        <time>2023-07-02T09:47:05Z</time>
      </trkpt>
      <trkpt lat="49.84471" lon="2.56838">
        <ele>97.2</ele>
        <time>2023-07-02T09:47:06Z</time>
      </trkpt>
      <trkpt lat="49.84471" lon="2.56838">
        <ele>97.2</ele>
        <time>2023-07-02T09:47:07Z</time>
      </trkpt>
      <trkpt lat="49.84471" lon="2.56838">
        <ele>97.2</ele>
        <time>2023-07-02T09:47:09Z</time>
      </trkpt>
      <trkpt lat="49.84471" lon="2.56838">
        <ele>97.2</ele>
        <time>2023-07-02T09:47:10Z</time>
      </trkpt>
      <trkpt lat="49.8447" lon="2.56838">
        <ele>97.2</ele>
        <time>2023-07-02T09:47:12Z</time>
      </trkpt>
      <trkpt lat="49.84469" lon="2.56838">
        <ele>97.2</ele>
        <time>2023-07-02T09:47:13Z</time>
      </trkpt>
      <trkpt lat="49.84468" lon="2.56837">
        <ele>97.2</ele>
        <time>2023-07-02T09:47:14Z</time>
      </trkpt>
      <trkpt lat="49.84467" lon="2.56837">
        <ele>97.2</ele>
        <time>2023-07-02T09:47:15Z</time>
      </trkpt>
      <trkpt lat="49.84466" lon="2.56837">
        <ele>97.2</ele>
        <time>2023-07-02T09:47:16Z</time>
      </trkpt>
      <trkpt lat="49.84465" lon="2.56837">
        <ele>97.2</ele>
        <time>2023-07-02T09:47:17Z</time>
      </trkpt>
      <trkpt lat="49.84464" lon="2.56836">
        <ele>97.2</ele>
        <time>2023-07-02T09:47:18Z</time>
      </trkpt>
      <trkpt lat="49.84463" lon="2.56835">
        <ele>97.2</ele>
        <time>2023-07-02T09:47:20Z</time>
      </trkpt>
      <trkpt lat="49.84462" lon="2.56834">
        <ele>97.2</ele>
        <time>2023-07-02T09:47:21Z</time>
      </trkpt>
      <trkpt lat="49.8446" lon="2.56834">
        <ele>97.2</ele>
        <time>2023-07-02T09:47:22Z</time>
      </trkpt>
      <trkpt lat="49.84459" lon="2.56834">
        <ele>97.2</ele>
        <time>2023-07-02T09:47:23Z</time>
      </trkpt>
      <trkpt lat="49.84458" lon="2.56834">
        <ele>97.2</ele>
        <time>2023-07-02T09:47:24Z</time>
      </trkpt>
      <trkpt lat="49.84457" lon="2.56833">
        <ele>97.2</ele>
        <time>2023-07-02T09:47:26Z</time>
      </trkpt>
      <trkpt lat="49.84456" lon="2.56833">
        <ele>97.2</ele>
        <time>2023-07-02T09:47:27Z</time>
      </trkpt>
      <trkpt lat="49.84455" lon="2.56833">
        <ele>97.2</ele>
        <time>2023-07-02T09:47:28Z</time>
      </trkpt>
      <trkpt lat="49.84454" lon="2.56833">
        <ele>97.2</ele>
        <time>2023-07-02T09:47:29Z</time>
      </trkpt>
      <trkpt lat="49.84453" lon="2.56834">
        <ele>97.2</ele>
        <time>2023-07-02T09:47:30Z</time>
      </trkpt>
      <trkpt lat="49.84453" lon="2.56835">
        <ele>97.2</ele>
        <time>2023-07-02T09:47:32Z</time>
      </trkpt>
      <trkpt lat="49.84453" lon="2.56835">
        <ele>97.2</ele>
        <time>2023-07-02T09:47:33Z</time>
      </trkpt>
      <trkpt lat="49.84454" lon="2.56834">
        <ele>97.2</ele>
        <time>2023-07-02T09:47:35Z</time>
      </trkpt>
      <trkpt lat="49.84454" lon="2.56834">
        <ele>97.2</ele>
        <time>2023-07-02T09:47:36Z</time>
      </trkpt>
      <trkpt lat="49.84455" lon="2.56834">
        <ele>97.2</ele>
        <time>2023-07-02T09:47:37Z</time>
      </trkpt>
      <trkpt lat="49.84455" lon="2.56834">
        <ele>97.2</ele>
        <time>2023-07-02T09:47:39Z</time>
      </trkpt>
      <trkpt lat="49.84455" lon="2.56834">
        <ele>97.2</ele>
        <time>2023-07-02T09:47:40Z</time>
      </trkpt>
      <trkpt lat="49.84455" lon="2.56834">
        <ele>97.2</ele>
        <time>2023-07-02T09:47:42Z</time>
      </trkpt>
      <trkpt lat="49.84455" lon="2.56834">
        <ele>97.2</ele>
        <time>2023-07-02T09:47:43Z</time>
      </trkpt>
      <trkpt lat="49.84455" lon="2.56834">
        <ele>97.2</ele>
        <time>2023-07-02T09:47:45Z</time>
      </trkpt>
      <trkpt lat="49.84455" lon="2.56834">
        <ele>97.2</ele>
        <time>2023-07-02T09:47:46Z</time>
      </trkpt>
      <trkpt lat="49.84455" lon="2.56834">
        <ele>97.2</ele>
        <time>2023-07-02T09:47:47Z</time>
      </trkpt>
      <trkpt lat="49.84455" lon="2.56834">
        <ele>97.2</ele>
        <time>2023-07-02T09:47:48Z</time>
      </trkpt>
      <trkpt lat="49.84455" lon="2.56833">
        <ele>97.2</ele>
        <time>2023-07-02T09:47:50Z</time>
      </trkpt>
      <trkpt lat="49.84455" lon="2.56832">
        <ele>97.2</ele>
        <time>2023-07-02T09:47:51Z</time>
      </trkpt>
      <trkpt lat="49.84454" lon="2.56832">
        <ele>97.2</ele>
        <time>2023-07-02T09:47:52Z</time>
      </trkpt>
      <trkpt lat="49.84453" lon="2.56831">
        <ele>97.1</ele>
        <time>2023-07-02T09:47:53Z</time>
      </trkpt>
      <trkpt lat="49.84453" lon="2.5683">
        <ele>97.1</ele>
        <time>2023-07-02T09:47:54Z</time>
      </trkpt>
      <trkpt lat="49.84451" lon="2.5683">
        <ele>97.1</ele>
        <time>2023-07-02T09:47:56Z</time>
      </trkpt>
      <trkpt lat="49.8445" lon="2.5683">
        <ele>97.1</ele>
        <time>2023-07-02T09:47:57Z</time>
      </trkpt>
      <trkpt lat="49.8445" lon="2.5683">
        <ele>97.1</ele>
        <time>2023-07-02T09:47:58Z</time>
      </trkpt>
      <trkpt lat="49.84449" lon="2.56832">
        <ele>97.1</ele>
        <time>2023-07-02T09:48:00Z</time>
      </trkpt>
      <trkpt lat="49.84449" lon="2.56833">
        <ele>97.1</ele>
        <time>2023-07-02T09:48:01Z</time>
      </trkpt>
      <trkpt lat="49.84449" lon="2.56833">
        <ele>97.1</ele>
        <time>2023-07-02T09:48:03Z</time>
      </trkpt>
      <trkpt lat="49.84449" lon="2.56833">
        <ele>97.1</ele>
        <time>2023-07-02T09:48:04Z</time>
      </trkpt>
      <trkpt lat="49.84448" lon="2.56833">
        <ele>97.1</ele>
        <time>2023-07-02T09:48:05Z</time>
      </trkpt>
      <trkpt lat="49.84447" lon="2.56832">
        <ele>97.1</ele>
        <time>2023-07-02T09:48:06Z</time>
      </trkpt>
      <trkpt lat="49.84446" lon="2.56832">
        <ele>97.1</ele>
        <time>2023-07-02T09:48:07Z</time>
      </trkpt>
      <trkpt lat="49.84445" lon="2.56832">
        <ele>97.1</ele>
        <time>2023-07-02T09:48:08Z</time>
      </trkpt>
      <trkpt lat="49.84444" lon="2.56831">
        <ele>97.1</ele>
        <time>2023-07-02T09:48:10Z</time>
      </trkpt>
      <trkpt lat="49.84443" lon="2.5683">
        <ele>97.1</ele>
        <time>2023-07-02T09:48:11Z</time>
      </trkpt>
      <trkpt lat="49.84441" lon="2.5683">
        <ele>97.1</ele>
        <time>2023-07-02T09:48:12Z</time>
      </trkpt>
      <trkpt lat="49.8444" lon="2.5683">
        <ele>97.1</ele>
        <time>2023-07-02T09:48:14Z</time>
      </trkpt>
      <trkpt lat="49.84439" lon="2.5683">
        <ele>97.1</ele>
        <time>2023-07-02T09:48:15Z</time>
      </trkpt>
      <trkpt lat="49.84438" lon="2.5683">
        <ele>97.1</ele>
        <time>2023-07-02T09:48:16Z</time>
      </trkpt>
      <trkpt lat="49.84437" lon="2.5683">
        <ele>97</ele>
        <time>2023-07-02T09:48:17Z</time>
      </trkpt>
      <trkpt lat="49.84436" lon="2.56831">
        <ele>97</ele>
        <time>2023-07-02T09:48:18Z</time>
      </trkpt>
      <trkpt lat="49.84436" lon="2.56831">
        <ele>97</ele>
        <time>2023-07-02T09:48:19Z</time>
      </trkpt>
      <trkpt lat="49.84435" lon="2.56831">
        <ele>97</ele>
        <time>2023-07-02T09:48:20Z</time>
      </trkpt>
      <trkpt lat="49.84434" lon="2.56831">
        <ele>97</ele>
        <time>2023-07-02T09:48:22Z</time>
      </trkpt>
      <trkpt lat="49.84434" lon="2.56831">
        <ele>97</ele>
        <time>2023-07-02T09:48:23Z</time>
      </trkpt>
      <trkpt lat="49.84433" lon="2.56831">
        <ele>97</ele>
        <time>2023-07-02T09:48:24Z</time>
      </trkpt>
      <trkpt lat="49.84432" lon="2.56831">
        <ele>97</ele>
        <time>2023-07-02T09:48:25Z</time>
      </trkpt>
      <trkpt lat="49.84432" lon="2.56831">
        <ele>97</ele>
        <time>2023-07-02T09:48:26Z</time>
      </trkpt>
      <trkpt lat="49.8443" lon="2.5683">
        <ele>97</ele>
        <time>2023-07-02T09:48:28Z</time>
      </trkpt>
      <trkpt lat="49.84429" lon="2.5683">
        <ele>97</ele>
        <time>2023-07-02T09:48:29Z</time>
      </trkpt>
      <trkpt lat="49.84428" lon="2.56829">
        <ele>97</ele>
        <time>2023-07-02T09:48:30Z</time>
      </trkpt>
      <trkpt lat="49.84427" lon="2.56829">
        <ele>97</ele>
        <time>2023-07-02T09:48:31Z</time>
      </trkpt>
      <trkpt lat="49.84426" lon="2.56827">
        <ele>97</ele>
        <time>2023-07-02T09:48:32Z</time>
      </trkpt>
      <trkpt lat="49.84425" lon="2.56826">
        <ele>97</ele>
        <time>2023-07-02T09:48:33Z</time>
      </trkpt>
      <trkpt lat="49.84423" lon="2.56827">
        <ele>96.9</ele>
        <time>2023-07-02T09:48:35Z</time>
      </trkpt>
      <trkpt lat="49.84422" lon="2.56828">
        <ele>96.9</ele>
        <time>2023-07-02T09:48:36Z</time>
      </trkpt>
      <trkpt lat="49.84421" lon="2.56828">
        <ele>96.9</ele>
        <time>2023-07-02T09:48:37Z</time>
      </trkpt>
      <trkpt lat="49.84419" lon="2.5683">
        <ele>96.9</ele>
        <time>2023-07-02T09:48:38Z</time>
      </trkpt>
      <trkpt lat="49.84419" lon="2.56831">
        <ele>96.9</ele>
        <time>2023-07-02T09:48:39Z</time>
      </trkpt>
      <trkpt lat="49.84418" lon="2.56831">
        <ele>96.9</ele>
        <time>2023-07-02T09:48:40Z</time>
      </trkpt>
      <trkpt lat="49.84417" lon="2.56832">
        <ele>96.9</ele>
        <time>2023-07-02T09:48:42Z</time>
      </trkpt>
      <trkpt lat="49.84415" lon="2.56833">
        <ele>96.9</ele>
        <time>2023-07-02T09:48:43Z</time>
      </trkpt>
      <trkpt lat="49.84413" lon="2.56835">
        <ele>96.8</ele>
        <time>2023-07-02T09:48:44Z</time>
      </trkpt>
      <trkpt lat="49.84413" lon="2.56836">
        <ele>96.8</ele>
        <time>2023-07-02T09:48:45Z</time>
      </trkpt>
      <trkpt lat="49.84412" lon="2.56836">
        <ele>96.8</ele>
        <time>2023-07-02T09:48:46Z</time>
      </trkpt>
      <trkpt lat="49.8441" lon="2.56838">
        <ele>96.8</ele>
        <time>2023-07-02T09:48:47Z</time>
      </trkpt>
      <trkpt lat="49.84409" lon="2.56838">
        <ele>96.8</ele>
        <time>2023-07-02T09:48:49Z</time>
      </trkpt>
      <trkpt lat="49.84409" lon="2.56839">
        <ele>96.8</ele>
        <time>2023-07-02T09:48:50Z</time>
      </trkpt>
      <trkpt lat="49.84407" lon="2.5684">
        <ele>96.8</ele>
        <time>2023-07-02T09:48:51Z</time>
      </trkpt>
      <trkpt lat="49.84406" lon="2.5684">
        <ele>96.8</ele>
        <time>2023-07-02T09:48:52Z</time>
      </trkpt>
      <trkpt lat="49.84405" lon="2.56841">
        <ele>96.7</ele>
        <time>2023-07-02T09:48:53Z</time>
      </trkpt>
      <trkpt lat="49.84404" lon="2.56841">
        <ele>96.7</ele>
        <time>2023-07-02T09:48:54Z</time>
      </trkpt>
      <trkpt lat="49.84403" lon="2.56841">
        <ele>96.7</ele>
        <time>2023-07-02T09:48:55Z</time>
      </trkpt>
      <trkpt lat="49.84402" lon="2.56841">
        <ele>96.7</ele>
        <time>2023-07-02T09:48:56Z</time>
      </trkpt>
      <trkpt lat="49.84401" lon="2.5684">
        <ele>96.7</ele>
        <time>2023-07-02T09:48:57Z</time>
      </trkpt>
      <trkpt lat="49.844" lon="2.5684">
        <ele>96.7</ele>
        <time>2023-07-02T09:48:58Z</time>
      </trkpt>
      <trkpt lat="49.84398" lon="2.56839">
        <ele>96.7</ele>
        <time>2023-07-02T09:49:00Z</time>
      </trkpt>
      <trkpt lat="49.84397" lon="2.56839">
        <ele>96.7</ele>
        <time>2023-07-02T09:49:01Z</time>
      </trkpt>
      <trkpt lat="49.84395" lon="2.56839">
        <ele>96.6</ele>
        <time>2023-07-02T09:49:02Z</time>
      </trkpt>
      <trkpt lat="49.84394" lon="2.56839">
        <ele>96.6</ele>
        <time>2023-07-02T09:49:03Z</time>
      </trkpt>
      <trkpt lat="49.84393" lon="2.5684">
        <ele>96.6</ele>
        <time>2023-07-02T09:49:04Z</time>
      </trkpt>
      <trkpt lat="49.84391" lon="2.5684">
        <ele>96.6</ele>
        <time>2023-07-02T09:49:05Z</time>
      </trkpt>
      <trkpt lat="49.8439" lon="2.5684">
        <ele>96.6</ele>
        <time>2023-07-02T09:49:06Z</time>
      </trkpt>
      <trkpt lat="49.84389" lon="2.5684">
        <ele>96.6</ele>
        <time>2023-07-02T09:49:07Z</time>
      </trkpt>
      <trkpt lat="49.84387" lon="2.5684">
        <ele>96.6</ele>
        <time>2023-07-02T09:49:08Z</time>
      </trkpt>
      <trkpt lat="49.84386" lon="2.5684">
        <ele>96.5</ele>
        <time>2023-07-02T09:49:10Z</time>
      </trkpt>
      <trkpt lat="49.84385" lon="2.5684">
        <ele>96.5</ele>
        <time>2023-07-02T09:49:11Z</time>
      </trkpt>
      <trkpt lat="49.84384" lon="2.5684">
        <ele>96.5</ele>
        <time>2023-07-02T09:49:12Z</time>
      </trkpt>
      <trkpt lat="49.84383" lon="2.5684">
        <ele>96.5</ele>
        <time>2023-07-02T09:49:13Z</time>
      </trkpt>
      <trkpt lat="49.84381" lon="2.56839">
        <ele>96.5</ele>
        <time>2023-07-02T09:49:14Z</time>
      </trkpt>
      <trkpt lat="49.8438" lon="2.56839">
        <ele>96.5</ele>
        <time>2023-07-02T09:49:15Z</time>
      </trkpt>
      <trkpt lat="49.84379" lon="2.56839">
        <ele>96.5</ele>
        <time>2023-07-02T09:49:16Z</time>
      </trkpt>
      <trkpt lat="49.84378" lon="2.56839">
        <ele>96.4</ele>
        <time>2023-07-02T09:49:17Z</time>
      </trkpt>
      <trkpt lat="49.84376" lon="2.56839">
        <ele>96.4</ele>
        <time>2023-07-02T09:49:18Z</time>
      </trkpt>
      <trkpt lat="49.84375" lon="2.56839">
        <ele>96.4</ele>
        <time>2023-07-02T09:49:19Z</time>
      </trkpt>
      <trkpt lat="49.84374" lon="2.56839">
        <ele>96.4</ele>
        <time>2023-07-02T09:49:21Z</time>
      </trkpt>
      <trkpt lat="49.84373" lon="2.56839">
        <ele>96.4</ele>
        <time>2023-07-02T09:49:22Z</time>
      </trkpt>
      <trkpt lat="49.84371" lon="2.56839">
        <ele>96.4</ele>
        <time>2023-07-02T09:49:23Z</time>
      </trkpt>
      <trkpt lat="49.8437" lon="2.56838">
        <ele>96.4</ele>
        <time>2023-07-02T09:49:24Z</time>
      </trkpt>
      <trkpt lat="49.84368" lon="2.56838">
        <ele>96.3</ele>
        <time>2023-07-02T09:49:25Z</time>
      </trkpt>
      <trkpt lat="49.84367" lon="2.56837">
        <ele>96.3</ele>
        <time>2023-07-02T09:49:26Z</time>
      </trkpt>
      <trkpt lat="49.84366" lon="2.56837">
        <ele>96.3</ele>
        <time>2023-07-02T09:49:28Z</time>
      </trkpt>
      <trkpt lat="49.84365" lon="2.56837">
        <ele>96.3</ele>
        <time>2023-07-02T09:49:29Z</time>
      </trkpt>
      <trkpt lat="49.84364" lon="2.56836">
        <ele>96.3</ele>
        <time>2023-07-02T09:49:30Z</time>
      </trkpt>
      <trkpt lat="49.84362" lon="2.56836">
        <ele>96.3</ele>
        <time>2023-07-02T09:49:31Z</time>
      </trkpt>
      <trkpt lat="49.8436" lon="2.56836">
        <ele>96.3</ele>
        <time>2023-07-02T09:49:32Z</time>
      </trkpt>
      <trkpt lat="49.84359" lon="2.56836">
        <ele>96.2</ele>
        <time>2023-07-02T09:49:33Z</time>
      </trkpt>
      <trkpt lat="49.84358" lon="2.56836">
        <ele>96.2</ele>
        <time>2023-07-02T09:49:34Z</time>
      </trkpt>
      <trkpt lat="49.84356" lon="2.56836">
        <ele>96.2</ele>
        <time>2023-07-02T09:49:35Z</time>
      </trkpt>
      <trkpt lat="49.84355" lon="2.56835">
        <ele>96.2</ele>
        <time>2023-07-02T09:49:36Z</time>
      </trkpt>
      <trkpt lat="49.84355" lon="2.56835">
        <ele>96.2</ele>
        <time>2023-07-02T09:49:37Z</time>
      </trkpt>
      <trkpt lat="49.84353" lon="2.56835">
        <ele>96.2</ele>
        <time>2023-07-02T09:49:39Z</time>
      </trkpt>
      <trkpt lat="49.84352" lon="2.56835">
        <ele>96.2</ele>
        <time>2023-07-02T09:49:40Z</time>
      </trkpt>
      <trkpt lat="49.84351" lon="2.56835">
        <ele>96.2</ele>
        <time>2023-07-02T09:49:41Z</time>
      </trkpt>
      <trkpt lat="49.84349" lon="2.56835">
        <ele>96.2</ele>
        <time>2023-07-02T09:49:42Z</time>
      </trkpt>
      <trkpt lat="49.84348" lon="2.56835">
        <ele>96.2</ele>
        <time>2023-07-02T09:49:43Z</time>
      </trkpt>
      <trkpt lat="49.84347" lon="2.56835">
        <ele>96.2</ele>
        <time>2023-07-02T09:49:44Z</time>
      </trkpt>
      <trkpt lat="49.84346" lon="2.56835">
        <ele>96.1</ele>
        <time>2023-07-02T09:49:45Z</time>
      </trkpt>
      <trkpt lat="49.84345" lon="2.56834">
        <ele>96.1</ele>
        <time>2023-07-02T09:49:46Z</time>
      </trkpt>
      <trkpt lat="49.84344" lon="2.56834">
        <ele>96.1</ele>
        <time>2023-07-02T09:49:47Z</time>
      </trkpt>
      <trkpt lat="49.84342" lon="2.56834">
        <ele>96.1</ele>
        <time>2023-07-02T09:49:48Z</time>
      </trkpt>
      <trkpt lat="49.84341" lon="2.56833">
        <ele>96.1</ele>
        <time>2023-07-02T09:49:50Z</time>
      </trkpt>
      <trkpt lat="49.8434" lon="2.56832">
        <ele>96.1</ele>
        <time>2023-07-02T09:49:51Z</time>
      </trkpt>
      <trkpt lat="49.84339" lon="2.56832">
        <ele>96.1</ele>
        <time>2023-07-02T09:49:52Z</time>
      </trkpt>
      <trkpt lat="49.84338" lon="2.56831">
        <ele>96</ele>
        <time>2023-07-02T09:49:53Z</time>
      </trkpt>
      <trkpt lat="49.84337" lon="2.5683">
        <ele>96</ele>
        <time>2023-07-02T09:49:54Z</time>
      </trkpt>
      <trkpt lat="49.84335" lon="2.56829">
        <ele>96</ele>
        <time>2023-07-02T09:49:55Z</time>
      </trkpt>
      <trkpt lat="49.84334" lon="2.56828">
        <ele>96</ele>
        <time>2023-07-02T09:49:57Z</time>
      </trkpt>
      <trkpt lat="49.84333" lon="2.56827">
        <ele>96</ele>
        <time>2023-07-02T09:49:58Z</time>
      </trkpt>
      <trkpt lat="49.84332" lon="2.56826">
        <ele>96</ele>
        <time>2023-07-02T09:49:59Z</time>
      </trkpt>
      <trkpt lat="49.84331" lon="2.56825">
        <ele>96</ele>
        <time>2023-07-02T09:50:00Z</time>
      </trkpt>
      <trkpt lat="49.8433" lon="2.56824">
        <ele>95.9</ele>
        <time>2023-07-02T09:50:01Z</time>
      </trkpt>
      <trkpt lat="49.84329" lon="2.56823">
        <ele>95.9</ele>
        <time>2023-07-02T09:50:02Z</time>
      </trkpt>
      <trkpt lat="49.84328" lon="2.56821">
        <ele>95.9</ele>
        <time>2023-07-02T09:50:03Z</time>
      </trkpt>
      <trkpt lat="49.84327" lon="2.5682">
        <ele>95.9</ele>
        <time>2023-07-02T09:50:04Z</time>
      </trkpt>
      <trkpt lat="49.84327" lon="2.56819">
        <ele>95.9</ele>
        <time>2023-07-02T09:50:05Z</time>
      </trkpt>
      <trkpt lat="49.84325" lon="2.56817">
        <ele>95.9</ele>
        <time>2023-07-02T09:50:06Z</time>
      </trkpt>
      <trkpt lat="49.84324" lon="2.56816">
        <ele>95.9</ele>
        <time>2023-07-02T09:50:08Z</time>
      </trkpt>
      <trkpt lat="49.84323" lon="2.56815">
        <ele>95.8</ele>
        <time>2023-07-02T09:50:09Z</time>
      </trkpt>
      <trkpt lat="49.84322" lon="2.56813">
        <ele>95.8</ele>
        <time>2023-07-02T09:50:10Z</time>
      </trkpt>
      <trkpt lat="49.84321" lon="2.56812">
        <ele>95.8</ele>
        <time>2023-07-02T09:50:11Z</time>
      </trkpt>
      <trkpt lat="49.8432" lon="2.56811">
        <ele>95.8</ele>
        <time>2023-07-02T09:50:12Z</time>
      </trkpt>
      <trkpt lat="49.84319" lon="2.5681">
        <ele>95.8</ele>
        <time>2023-07-02T09:50:14Z</time>
      </trkpt>
      <trkpt lat="49.84318" lon="2.56808">
        <ele>95.8</ele>
        <time>2023-07-02T09:50:15Z</time>
      </trkpt>
      <trkpt lat="49.84317" lon="2.56807">
        <ele>95.8</ele>
        <time>2023-07-02T09:50:16Z</time>
      </trkpt>
      <trkpt lat="49.84316" lon="2.56806">
        <ele>95.8</ele>
        <time>2023-07-02T09:50:17Z</time>
      </trkpt>
      <trkpt lat="49.84315" lon="2.56805">
        <ele>95.8</ele>
        <time>2023-07-02T09:50:18Z</time>
      </trkpt>
      <trkpt lat="49.84314" lon="2.56803">
        <ele>95.8</ele>
        <time>2023-07-02T09:50:19Z</time>
      </trkpt>
      <trkpt lat="49.84313" lon="2.56803">
        <ele>95.8</ele>
        <time>2023-07-02T09:50:20Z</time>
      </trkpt>
      <trkpt lat="49.84312" lon="2.56802">
        <ele>95.8</ele>
        <time>2023-07-02T09:50:21Z</time>
      </trkpt>
      <trkpt lat="49.84311" lon="2.568">
        <ele>95.8</ele>
        <time>2023-07-02T09:50:22Z</time>
      </trkpt>
      <trkpt lat="49.8431" lon="2.56799">
        <ele>95.8</ele>
        <time>2023-07-02T09:50:24Z</time>
      </trkpt>
      <trkpt lat="49.84309" lon="2.56798">
        <ele>95.8</ele>
        <time>2023-07-02T09:50:25Z</time>
      </trkpt>
      <trkpt lat="49.84308" lon="2.56797">
        <ele>95.8</ele>
        <time>2023-07-02T09:50:26Z</time>
      </trkpt>
      <trkpt lat="49.84307" lon="2.56796">
        <ele>95.8</ele>
        <time>2023-07-02T09:50:27Z</time>
      </trkpt>
      <trkpt lat="49.84306" lon="2.56794">
        <ele>95.8</ele>
        <time>2023-07-02T09:50:28Z</time>
      </trkpt>
      <trkpt lat="49.84305" lon="2.56793">
        <ele>95.8</ele>
        <time>2023-07-02T09:50:29Z</time>
      </trkpt>
      <trkpt lat="49.84304" lon="2.56792">
        <ele>95.8</ele>
        <time>2023-07-02T09:50:30Z</time>
      </trkpt>
      <trkpt lat="49.84303" lon="2.5679">
        <ele>95.8</ele>
        <time>2023-07-02T09:50:31Z</time>
      </trkpt>
      <trkpt lat="49.84302" lon="2.56789">
        <ele>95.8</ele>
        <time>2023-07-02T09:50:32Z</time>
      </trkpt>
      <trkpt lat="49.84301" lon="2.56788">
        <ele>95.8</ele>
        <time>2023-07-02T09:50:33Z</time>
      </trkpt>
      <trkpt lat="49.843" lon="2.56785">
        <ele>95.8</ele>
        <time>2023-07-02T09:50:34Z</time>
      </trkpt>
      <trkpt lat="49.84299" lon="2.56784">
        <ele>95.8</ele>
        <time>2023-07-02T09:50:36Z</time>
      </trkpt>
      <trkpt lat="49.84298" lon="2.56783">
        <ele>95.8</ele>
        <time>2023-07-02T09:50:37Z</time>
      </trkpt>
      <trkpt lat="49.84297" lon="2.56782">
        <ele>95.8</ele>
        <time>2023-07-02T09:50:38Z</time>
      </trkpt>
      <trkpt lat="49.84296" lon="2.56781">
        <ele>95.8</ele>
        <time>2023-07-02T09:50:39Z</time>
      </trkpt>
      <trkpt lat="49.84295" lon="2.5678">
        <ele>95.8</ele>
        <time>2023-07-02T09:50:40Z</time>
      </trkpt>
      <trkpt lat="49.84294" lon="2.56779">
        <ele>95.8</ele>
        <time>2023-07-02T09:50:41Z</time>
      </trkpt>
      <trkpt lat="49.84294" lon="2.56778">
        <ele>95.8</ele>
        <time>2023-07-02T09:50:42Z</time>
      </trkpt>
      <trkpt lat="49.84292" lon="2.56776">
        <ele>95.8</ele>
        <time>2023-07-02T09:50:44Z</time>
      </trkpt>
      <trkpt lat="49.84291" lon="2.56775">
        <ele>95.8</ele>
        <time>2023-07-02T09:50:45Z</time>
      </trkpt>
      <trkpt lat="49.84291" lon="2.56774">
        <ele>95.8</ele>
        <time>2023-07-02T09:50:46Z</time>
      </trkpt>
      <trkpt lat="49.8429" lon="2.56773">
        <ele>95.8</ele>
        <time>2023-07-02T09:50:47Z</time>
      </trkpt>
      <trkpt lat="49.84288" lon="2.56772">
        <ele>95.8</ele>
        <time>2023-07-02T09:50:48Z</time>
      </trkpt>
      <trkpt lat="49.84287" lon="2.56771">
        <ele>95.9</ele>
        <time>2023-07-02T09:50:50Z</time>
      </trkpt>
      <trkpt lat="49.84286" lon="2.5677">
        <ele>95.9</ele>
        <time>2023-07-02T09:50:51Z</time>
      </trkpt>
      <trkpt lat="49.84285" lon="2.5677">
        <ele>95.9</ele>
        <time>2023-07-02T09:50:52Z</time>
      </trkpt>
      <trkpt lat="49.84284" lon="2.56769">
        <ele>95.9</ele>
        <time>2023-07-02T09:50:53Z</time>
      </trkpt>
      <trkpt lat="49.84283" lon="2.56767">
        <ele>95.9</ele>
        <time>2023-07-02T09:50:54Z</time>
      </trkpt>
      <trkpt lat="49.84282" lon="2.56766">
        <ele>95.9</ele>
        <time>2023-07-02T09:50:55Z</time>
      </trkpt>
      <trkpt lat="49.84281" lon="2.56766">
        <ele>95.9</ele>
        <time>2023-07-02T09:50:56Z</time>
      </trkpt>
      <trkpt lat="49.8428" lon="2.56765">
        <ele>95.9</ele>
        <time>2023-07-02T09:50:57Z</time>
      </trkpt>
      <trkpt lat="49.84279" lon="2.56764">
        <ele>95.9</ele>
        <time>2023-07-02T09:50:58Z</time>
      </trkpt>
      <trkpt lat="49.84278" lon="2.56762">
        <ele>96</ele>
        <time>2023-07-02T09:51:00Z</time>
      </trkpt>
      <trkpt lat="49.84276" lon="2.56761">
        <ele>96</ele>
        <time>2023-07-02T09:51:01Z</time>
      </trkpt>
      <trkpt lat="49.84275" lon="2.5676">
        <ele>96</ele>
        <time>2023-07-02T09:51:02Z</time>
      </trkpt>
      <trkpt lat="49.84275" lon="2.56759">
        <ele>96</ele>
        <time>2023-07-02T09:51:03Z</time>
      </trkpt>
      <trkpt lat="49.84274" lon="2.56758">
        <ele>96</ele>
        <time>2023-07-02T09:51:04Z</time>
      </trkpt>
      <trkpt lat="49.84273" lon="2.56757">
        <ele>96</ele>
        <time>2023-07-02T09:51:05Z</time>
      </trkpt>
      <trkpt lat="49.84272" lon="2.56756">
        <ele>96</ele>
        <time>2023-07-02T09:51:06Z</time>
      </trkpt>
      <trkpt lat="49.8427" lon="2.56754">
        <ele>96</ele>
        <time>2023-07-02T09:51:07Z</time>
      </trkpt>
      <trkpt lat="49.84269" lon="2.56754">
        <ele>96.1</ele>
        <time>2023-07-02T09:51:08Z</time>
      </trkpt>
      <trkpt lat="49.84269" lon="2.56753">
        <ele>96.1</ele>
        <time>2023-07-02T09:51:09Z</time>
      </trkpt>
      <trkpt lat="49.84268" lon="2.56752">
        <ele>96.1</ele>
        <time>2023-07-02T09:51:10Z</time>
      </trkpt>
      <trkpt lat="49.84267" lon="2.56751">
        <ele>96.1</ele>
        <time>2023-07-02T09:51:12Z</time>
      </trkpt>
      <trkpt lat="49.84266" lon="2.5675">
        <ele>96.1</ele>
        <time>2023-07-02T09:51:13Z</time>
      </trkpt>
      <trkpt lat="49.84265" lon="2.56749">
        <ele>96.1</ele>
        <time>2023-07-02T09:51:14Z</time>
      </trkpt>
      <trkpt lat="49.84264" lon="2.56748">
        <ele>96.1</ele>
        <time>2023-07-02T09:51:15Z</time>
      </trkpt>
      <trkpt lat="49.84263" lon="2.56747">
        <ele>96.2</ele>
        <time>2023-07-02T09:51:16Z</time>
      </trkpt>
      <trkpt lat="49.84261" lon="2.56746">
        <ele>96.2</ele>
        <time>2023-07-02T09:51:17Z</time>
      </trkpt>
      <trkpt lat="49.8426" lon="2.56745">
        <ele>96.2</ele>
        <time>2023-07-02T09:51:18Z</time>
      </trkpt>
      <trkpt lat="49.8426" lon="2.56745">
        <ele>96.2</ele>
        <time>2023-07-02T09:51:19Z</time>
      </trkpt>
      <trkpt lat="49.84259" lon="2.56744">
        <ele>96.2</ele>
        <time>2023-07-02T09:51:20Z</time>
      </trkpt>
      <trkpt lat="49.84257" lon="2.56743">
        <ele>96.2</ele>
        <time>2023-07-02T09:51:21Z</time>
      </trkpt>
      <trkpt lat="49.84256" lon="2.56742">
        <ele>96.3</ele>
        <time>2023-07-02T09:51:23Z</time>
      </trkpt>
      <trkpt lat="49.84255" lon="2.56741">
        <ele>96.3</ele>
        <time>2023-07-02T09:51:24Z</time>
      </trkpt>
      <trkpt lat="49.84254" lon="2.5674">
        <ele>96.3</ele>
        <time>2023-07-02T09:51:25Z</time>
      </trkpt>
      <trkpt lat="49.84254" lon="2.56739">
        <ele>96.3</ele>
        <time>2023-07-02T09:51:26Z</time>
      </trkpt>
      <trkpt lat="49.84252" lon="2.56736">
        <ele>96.4</ele>
        <time>2023-07-02T09:51:27Z</time>
      </trkpt>
      <trkpt lat="49.84251" lon="2.56735">
        <ele>96.4</ele>
        <time>2023-07-02T09:51:28Z</time>
      </trkpt>
      <trkpt lat="49.84251" lon="2.56734">
        <ele>96.4</ele>
        <time>2023-07-02T09:51:29Z</time>
      </trkpt>
      <trkpt lat="49.84249" lon="2.56733">
        <ele>96.4</ele>
        <time>2023-07-02T09:51:31Z</time>
      </trkpt>
      <trkpt lat="49.84248" lon="2.56731">
        <ele>96.5</ele>
        <time>2023-07-02T09:51:32Z</time>
      </trkpt>
      <trkpt lat="49.84247" lon="2.56729">
        <ele>96.5</ele>
        <time>2023-07-02T09:51:33Z</time>
      </trkpt>
      <trkpt lat="49.84246" lon="2.56728">
        <ele>96.5</ele>
        <time>2023-07-02T09:51:34Z</time>
      </trkpt>
      <trkpt lat="49.84246" lon="2.56727">
        <ele>96.5</ele>
        <time>2023-07-02T09:51:35Z</time>
      </trkpt>
      <trkpt lat="49.84245" lon="2.56726">
        <ele>96.6</ele>
        <time>2023-07-02T09:51:36Z</time>
      </trkpt>
      <trkpt lat="49.84244" lon="2.56725">
        <ele>96.6</ele>
        <time>2023-07-02T09:51:37Z</time>
      </trkpt>
      <trkpt lat="49.84242" lon="2.56724">
        <ele>96.6</ele>
        <time>2023-07-02T09:51:39Z</time>
      </trkpt>
      <trkpt lat="49.84241" lon="2.56722">
        <ele>96.6</ele>
        <time>2023-07-02T09:51:40Z</time>
      </trkpt>
      <trkpt lat="49.8424" lon="2.56721">
        <ele>96.7</ele>
        <time>2023-07-02T09:51:41Z</time>
      </trkpt>
      <trkpt lat="49.84239" lon="2.56719">
        <ele>96.7</ele>
        <time>2023-07-02T09:51:42Z</time>
      </trkpt>
      <trkpt lat="49.84238" lon="2.56718">
        <ele>96.7</ele>
        <time>2023-07-02T09:51:43Z</time>
      </trkpt>
      <trkpt lat="49.84237" lon="2.56717">
        <ele>96.7</ele>
        <time>2023-07-02T09:51:44Z</time>
      </trkpt>
      <trkpt lat="49.84236" lon="2.56716">
        <ele>96.7</ele>
        <time>2023-07-02T09:51:45Z</time>
      </trkpt>
      <trkpt lat="49.84236" lon="2.56715">
        <ele>96.8</ele>
        <time>2023-07-02T09:51:46Z</time>
      </trkpt>
      <trkpt lat="49.84235" lon="2.56715">
        <ele>96.8</ele>
        <time>2023-07-02T09:51:47Z</time>
      </trkpt>
      <trkpt lat="49.84233" lon="2.56713">
        <ele>96.8</ele>
        <time>2023-07-02T09:51:48Z</time>
      </trkpt>
      <trkpt lat="49.84232" lon="2.56712">
        <ele>96.8</ele>
        <time>2023-07-02T09:51:50Z</time>
      </trkpt>
      <trkpt lat="49.84231" lon="2.56712">
        <ele>96.8</ele>
        <time>2023-07-02T09:51:51Z</time>
      </trkpt>
      <trkpt lat="49.8423" lon="2.5671">
        <ele>96.9</ele>
        <time>2023-07-02T09:51:52Z</time>
      </trkpt>
      <trkpt lat="49.84229" lon="2.56709">
        <ele>96.9</ele>
        <time>2023-07-02T09:51:53Z</time>
      </trkpt>
      <trkpt lat="49.84228" lon="2.56708">
        <ele>96.9</ele>
        <time>2023-07-02T09:51:54Z</time>
      </trkpt>
      <trkpt lat="49.84227" lon="2.56707">
        <ele>96.9</ele>
        <time>2023-07-02T09:51:55Z</time>
      </trkpt>
      <trkpt lat="49.84226" lon="2.56706">
        <ele>97</ele>
        <time>2023-07-02T09:51:56Z</time>
      </trkpt>
      <trkpt lat="49.84225" lon="2.56705">
        <ele>97</ele>
        <time>2023-07-02T09:51:57Z</time>
      </trkpt>
      <trkpt lat="49.84224" lon="2.56703">
        <ele>97</ele>
        <time>2023-07-02T09:51:58Z</time>
      </trkpt>
      <trkpt lat="49.84223" lon="2.56703">
        <ele>97</ele>
        <time>2023-07-02T09:52:00Z</time>
      </trkpt>
      <trkpt lat="49.84222" lon="2.56702">
        <ele>97.1</ele>
        <time>2023-07-02T09:52:01Z</time>
      </trkpt>
      <trkpt lat="49.84221" lon="2.567">
        <ele>97.1</ele>
        <time>2023-07-02T09:52:02Z</time>
      </trkpt>
      <trkpt lat="49.8422" lon="2.56699">
        <ele>97.1</ele>
        <time>2023-07-02T09:52:03Z</time>
      </trkpt>
      <trkpt lat="49.84219" lon="2.56699">
        <ele>97.1</ele>
        <time>2023-07-02T09:52:04Z</time>
      </trkpt>
      <trkpt lat="49.84218" lon="2.56697">
        <ele>97.2</ele>
        <time>2023-07-02T09:52:05Z</time>
      </trkpt>
      <trkpt lat="49.84217" lon="2.56696">
        <ele>97.2</ele>
        <time>2023-07-02T09:52:06Z</time>
      </trkpt>
      <trkpt lat="49.84217" lon="2.56696">
        <ele>97.2</ele>
        <time>2023-07-02T09:52:07Z</time>
      </trkpt>
      <trkpt lat="49.84216" lon="2.56695">
        <ele>97.2</ele>
        <time>2023-07-02T09:52:08Z</time>
      </trkpt>
      <trkpt lat="49.84215" lon="2.56694">
        <ele>97.2</ele>
        <time>2023-07-02T09:52:09Z</time>
      </trkpt>
      <trkpt lat="49.84214" lon="2.56693">
        <ele>97.3</ele>
        <time>2023-07-02T09:52:10Z</time>
      </trkpt>
      <trkpt lat="49.84212" lon="2.56691">
        <ele>97.3</ele>
        <time>2023-07-02T09:52:12Z</time>
      </trkpt>
      <trkpt lat="49.84212" lon="2.5669">
        <ele>97.3</ele>
        <time>2023-07-02T09:52:13Z</time>
      </trkpt>
      <trkpt lat="49.84211" lon="2.56689">
        <ele>97.3</ele>
        <time>2023-07-02T09:52:14Z</time>
      </trkpt>
      <trkpt lat="49.8421" lon="2.56688">
        <ele>97.4</ele>
        <time>2023-07-02T09:52:15Z</time>
      </trkpt>
      <trkpt lat="49.84209" lon="2.56687">
        <ele>97.4</ele>
        <time>2023-07-02T09:52:16Z</time>
      </trkpt>
      <trkpt lat="49.84209" lon="2.56686">
        <ele>97.4</ele>
        <time>2023-07-02T09:52:17Z</time>
      </trkpt>
      <trkpt lat="49.84208" lon="2.56684">
        <ele>97.4</ele>
        <time>2023-07-02T09:52:18Z</time>
      </trkpt>
      <trkpt lat="49.84207" lon="2.56683">
        <ele>97.4</ele>
        <time>2023-07-02T09:52:19Z</time>
      </trkpt>
      <trkpt lat="49.84206" lon="2.56681">
        <ele>97.5</ele>
        <time>2023-07-02T09:52:21Z</time>
      </trkpt>
      <trkpt lat="49.84205" lon="2.5668">
        <ele>97.5</ele>
        <time>2023-07-02T09:52:22Z</time>
      </trkpt>
      <trkpt lat="49.84203" lon="2.56679">
        <ele>97.5</ele>
        <time>2023-07-02T09:52:23Z</time>
      </trkpt>
      <trkpt lat="49.84202" lon="2.56677">
        <ele>97.5</ele>
        <time>2023-07-02T09:52:24Z</time>
      </trkpt>
      <trkpt lat="49.84201" lon="2.56676">
        <ele>97.6</ele>
        <time>2023-07-02T09:52:25Z</time>
      </trkpt>
      <trkpt lat="49.842" lon="2.56676">
        <ele>97.6</ele>
        <time>2023-07-02T09:52:26Z</time>
      </trkpt>
      <trkpt lat="49.84199" lon="2.56675">
        <ele>97.6</ele>
        <time>2023-07-02T09:52:28Z</time>
      </trkpt>
      <trkpt lat="49.84198" lon="2.56674">
        <ele>97.6</ele>
        <time>2023-07-02T09:52:29Z</time>
      </trkpt>
      <trkpt lat="49.84197" lon="2.56673">
        <ele>97.6</ele>
        <time>2023-07-02T09:52:30Z</time>
      </trkpt>
      <trkpt lat="49.84196" lon="2.56672">
        <ele>97.6</ele>
        <time>2023-07-02T09:52:31Z</time>
      </trkpt>
      <trkpt lat="49.84195" lon="2.56672">
        <ele>97.6</ele>
        <time>2023-07-02T09:52:32Z</time>
      </trkpt>
      <trkpt lat="49.84194" lon="2.5667">
        <ele>97.7</ele>
        <time>2023-07-02T09:52:33Z</time>
      </trkpt>
      <trkpt lat="49.84192" lon="2.56669">
        <ele>97.7</ele>
        <time>2023-07-02T09:52:34Z</time>
      </trkpt>
      <trkpt lat="49.84191" lon="2.56668">
        <ele>97.7</ele>
        <time>2023-07-02T09:52:35Z</time>
      </trkpt>
      <trkpt lat="49.8419" lon="2.56667">
        <ele>97.7</ele>
        <time>2023-07-02T09:52:36Z</time>
      </trkpt>
      <trkpt lat="49.84188" lon="2.56665">
        <ele>97.7</ele>
        <time>2023-07-02T09:52:37Z</time>
      </trkpt>
      <trkpt lat="49.84188" lon="2.56665">
        <ele>97.7</ele>
        <time>2023-07-02T09:52:39Z</time>
      </trkpt>
      <trkpt lat="49.84187" lon="2.56664">
        <ele>97.8</ele>
        <time>2023-07-02T09:52:40Z</time>
      </trkpt>
      <trkpt lat="49.84186" lon="2.56663">
        <ele>97.8</ele>
        <time>2023-07-02T09:52:41Z</time>
      </trkpt>
      <trkpt lat="49.84185" lon="2.56662">
        <ele>97.8</ele>
        <time>2023-07-02T09:52:42Z</time>
      </trkpt>
      <trkpt lat="49.84184" lon="2.56661">
        <ele>97.8</ele>
        <time>2023-07-02T09:52:43Z</time>
      </trkpt>
      <trkpt lat="49.84183" lon="2.5666">
        <ele>97.8</ele>
        <time>2023-07-02T09:52:44Z</time>
      </trkpt>
      <trkpt lat="49.84182" lon="2.56659">
        <ele>97.8</ele>
        <time>2023-07-02T09:52:45Z</time>
      </trkpt>
      <trkpt lat="49.8418" lon="2.56658">
        <ele>97.8</ele>
        <time>2023-07-02T09:52:46Z</time>
      </trkpt>
      <trkpt lat="49.8418" lon="2.56656">
        <ele>97.9</ele>
        <time>2023-07-02T09:52:47Z</time>
      </trkpt>
      <trkpt lat="49.84178" lon="2.56655">
        <ele>97.9</ele>
        <time>2023-07-02T09:52:48Z</time>
      </trkpt>
      <trkpt lat="49.84177" lon="2.56654">
        <ele>97.9</ele>
        <time>2023-07-02T09:52:49Z</time>
      </trkpt>
      <trkpt lat="49.84176" lon="2.56652">
        <ele>97.9</ele>
        <time>2023-07-02T09:52:51Z</time>
      </trkpt>
      <trkpt lat="49.84175" lon="2.56651">
        <ele>97.9</ele>
        <time>2023-07-02T09:52:52Z</time>
      </trkpt>
      <trkpt lat="49.84174" lon="2.5665">
        <ele>97.9</ele>
        <time>2023-07-02T09:52:53Z</time>
      </trkpt>
      <trkpt lat="49.84173" lon="2.56648">
        <ele>98</ele>
        <time>2023-07-02T09:52:54Z</time>
      </trkpt>
      <trkpt lat="49.84172" lon="2.56647">
        <ele>98</ele>
        <time>2023-07-02T09:52:55Z</time>
      </trkpt>
      <trkpt lat="49.84172" lon="2.56646">
        <ele>98</ele>
        <time>2023-07-02T09:52:56Z</time>
      </trkpt>
      <trkpt lat="49.8417" lon="2.56645">
        <ele>98</ele>
        <time>2023-07-02T09:52:58Z</time>
      </trkpt>
      <trkpt lat="49.84169" lon="2.56643">
        <ele>98</ele>
        <time>2023-07-02T09:52:59Z</time>
      </trkpt>
      <trkpt lat="49.84167" lon="2.56641">
        <ele>98.1</ele>
        <time>2023-07-02T09:53:00Z</time>
      </trkpt>
      <trkpt lat="49.84167" lon="2.5664">
        <ele>98.1</ele>
        <time>2023-07-02T09:53:01Z</time>
      </trkpt>
      <trkpt lat="49.84166" lon="2.56639">
        <ele>98.1</ele>
        <time>2023-07-02T09:53:02Z</time>
      </trkpt>
      <trkpt lat="49.84165" lon="2.56638">
        <ele>98.1</ele>
        <time>2023-07-02T09:53:03Z</time>
      </trkpt>
      <trkpt lat="49.84165" lon="2.56637">
        <ele>98.1</ele>
        <time>2023-07-02T09:53:04Z</time>
      </trkpt>
      <trkpt lat="49.84164" lon="2.56636">
        <ele>98.1</ele>
        <time>2023-07-02T09:53:05Z</time>
      </trkpt>
      <trkpt lat="49.84162" lon="2.56634">
        <ele>98.2</ele>
        <time>2023-07-02T09:53:06Z</time>
      </trkpt>
      <trkpt lat="49.84161" lon="2.56633">
        <ele>98.2</ele>
        <time>2023-07-02T09:53:08Z</time>
      </trkpt>
      <trkpt lat="49.8416" lon="2.56632">
        <ele>98.2</ele>
        <time>2023-07-02T09:53:09Z</time>
      </trkpt>
      <trkpt lat="49.84159" lon="2.56631">
        <ele>98.2</ele>
        <time>2023-07-02T09:53:10Z</time>
      </trkpt>
      <trkpt lat="49.84159" lon="2.5663">
        <ele>98.2</ele>
        <time>2023-07-02T09:53:11Z</time>
      </trkpt>
      <trkpt lat="49.84158" lon="2.56629">
        <ele>98.2</ele>
        <time>2023-07-02T09:53:12Z</time>
      </trkpt>
      <trkpt lat="49.84157" lon="2.56627">
        <ele>98.3</ele>
        <time>2023-07-02T09:53:14Z</time>
      </trkpt>
      <trkpt lat="49.84156" lon="2.56626">
        <ele>98.3</ele>
        <time>2023-07-02T09:53:15Z</time>
      </trkpt>
      <trkpt lat="49.84155" lon="2.56626">
        <ele>98.3</ele>
        <time>2023-07-02T09:53:16Z</time>
      </trkpt>
      <trkpt lat="49.84154" lon="2.56625">
        <ele>98.3</ele>
        <time>2023-07-02T09:53:17Z</time>
      </trkpt>
      <trkpt lat="49.84153" lon="2.56624">
        <ele>98.3</ele>
        <time>2023-07-02T09:53:18Z</time>
      </trkpt>
      <trkpt lat="49.84152" lon="2.56623">
        <ele>98.3</ele>
        <time>2023-07-02T09:53:19Z</time>
      </trkpt>
      <trkpt lat="49.8415" lon="2.56621">
        <ele>98.4</ele>
        <time>2023-07-02T09:53:21Z</time>
      </trkpt>
      <trkpt lat="49.84149" lon="2.5662">
        <ele>98.4</ele>
        <time>2023-07-02T09:53:22Z</time>
      </trkpt>
      <trkpt lat="49.84148" lon="2.56619">
        <ele>98.4</ele>
        <time>2023-07-02T09:53:23Z</time>
      </trkpt>
      <trkpt lat="49.84147" lon="2.56618">
        <ele>98.4</ele>
        <time>2023-07-02T09:53:24Z</time>
      </trkpt>
      <trkpt lat="49.84146" lon="2.56617">
        <ele>98.4</ele>
        <time>2023-07-02T09:53:25Z</time>
      </trkpt>
      <trkpt lat="49.84145" lon="2.56616">
        <ele>98.4</ele>
        <time>2023-07-02T09:53:26Z</time>
      </trkpt>
      <trkpt lat="49.84144" lon="2.56615">
        <ele>98.4</ele>
        <time>2023-07-02T09:53:27Z</time>
      </trkpt>
      <trkpt lat="49.84143" lon="2.56614">
        <ele>98.5</ele>
        <time>2023-07-02T09:53:29Z</time>
      </trkpt>
      <trkpt lat="49.84142" lon="2.56613">
        <ele>98.5</ele>
        <time>2023-07-02T09:53:30Z</time>
      </trkpt>
      <trkpt lat="49.84141" lon="2.56611">
        <ele>98.5</ele>
        <time>2023-07-02T09:53:31Z</time>
      </trkpt>
      <trkpt lat="49.8414" lon="2.5661">
        <ele>98.5</ele>
        <time>2023-07-02T09:53:32Z</time>
      </trkpt>
      <trkpt lat="49.84138" lon="2.56608">
        <ele>98.5</ele>
        <time>2023-07-02T09:53:33Z</time>
      </trkpt>
      <trkpt lat="49.84138" lon="2.56607">
        <ele>98.5</ele>
        <time>2023-07-02T09:53:35Z</time>
      </trkpt>
      <trkpt lat="49.84137" lon="2.56607">
        <ele>98.5</ele>
        <time>2023-07-02T09:53:36Z</time>
      </trkpt>
      <trkpt lat="49.84136" lon="2.56606">
        <ele>98.6</ele>
        <time>2023-07-02T09:53:37Z</time>
      </trkpt>
      <trkpt lat="49.84135" lon="2.56605">
        <ele>98.6</ele>
        <time>2023-07-02T09:53:38Z</time>
      </trkpt>
      <trkpt lat="49.84134" lon="2.56604">
        <ele>98.6</ele>
        <time>2023-07-02T09:53:39Z</time>
      </trkpt>
      <trkpt lat="49.84133" lon="2.56602">
        <ele>98.6</ele>
        <time>2023-07-02T09:53:40Z</time>
      </trkpt>
      <trkpt lat="49.84132" lon="2.56601">
        <ele>98.6</ele>
        <time>2023-07-02T09:53:41Z</time>
      </trkpt>
      <trkpt lat="49.84132" lon="2.56601">
        <ele>98.6</ele>
        <time>2023-07-02T09:53:42Z</time>
      </trkpt>
      <trkpt lat="49.84131" lon="2.56599">
        <ele>98.6</ele>
        <time>2023-07-02T09:53:44Z</time>
      </trkpt>
      <trkpt lat="49.8413" lon="2.56598">
        <ele>98.7</ele>
        <time>2023-07-02T09:53:45Z</time>
      </trkpt>
      <trkpt lat="49.84129" lon="2.56597">
        <ele>98.7</ele>
        <time>2023-07-02T09:53:46Z</time>
      </trkpt>
      <trkpt lat="49.84128" lon="2.56597">
        <ele>98.7</ele>
        <time>2023-07-02T09:53:47Z</time>
      </trkpt>
      <trkpt lat="49.84127" lon="2.56596">
        <ele>98.7</ele>
        <time>2023-07-02T09:53:48Z</time>
      </trkpt>
      <trkpt lat="49.84126" lon="2.56595">
        <ele>98.7</ele>
        <time>2023-07-02T09:53:49Z</time>
      </trkpt>
      <trkpt lat="49.84125" lon="2.56594">
        <ele>98.7</ele>
        <time>2023-07-02T09:53:50Z</time>
      </trkpt>
      <trkpt lat="49.84124" lon="2.56593">
        <ele>98.7</ele>
        <time>2023-07-02T09:53:51Z</time>
      </trkpt>
      <trkpt lat="49.84123" lon="2.56591">
        <ele>98.8</ele>
        <time>2023-07-02T09:53:53Z</time>
      </trkpt>
      <trkpt lat="49.84122" lon="2.5659">
        <ele>98.8</ele>
        <time>2023-07-02T09:53:54Z</time>
      </trkpt>
      <trkpt lat="49.84121" lon="2.5659">
        <ele>98.8</ele>
        <time>2023-07-02T09:53:55Z</time>
      </trkpt>
      <trkpt lat="49.8412" lon="2.56589">
        <ele>98.8</ele>
        <time>2023-07-02T09:53:56Z</time>
      </trkpt>
      <trkpt lat="49.84119" lon="2.56588">
        <ele>98.8</ele>
        <time>2023-07-02T09:53:57Z</time>
      </trkpt>
      <trkpt lat="49.84118" lon="2.56586">
        <ele>98.8</ele>
        <time>2023-07-02T09:53:58Z</time>
      </trkpt>
      <trkpt lat="49.84117" lon="2.56584">
        <ele>98.9</ele>
        <time>2023-07-02T09:54:00Z</time>
      </trkpt>
      <trkpt lat="49.84115" lon="2.56582">
        <ele>98.9</ele>
        <time>2023-07-02T09:54:01Z</time>
      </trkpt>
      <trkpt lat="49.84115" lon="2.56581">
        <ele>98.9</ele>
        <time>2023-07-02T09:54:02Z</time>
      </trkpt>
      <trkpt lat="49.84114" lon="2.5658">
        <ele>98.9</ele>
        <time>2023-07-02T09:54:03Z</time>
      </trkpt>
      <trkpt lat="49.84113" lon="2.56579">
        <ele>98.9</ele>
        <time>2023-07-02T09:54:04Z</time>
      </trkpt>
      <trkpt lat="49.84112" lon="2.56578">
        <ele>98.9</ele>
        <time>2023-07-02T09:54:05Z</time>
      </trkpt>
      <trkpt lat="49.84111" lon="2.56577">
        <ele>99</ele>
        <time>2023-07-02T09:54:06Z</time>
      </trkpt>
      <trkpt lat="49.8411" lon="2.56576">
        <ele>99</ele>
        <time>2023-07-02T09:54:08Z</time>
      </trkpt>
      <trkpt lat="49.84109" lon="2.56575">
        <ele>99</ele>
        <time>2023-07-02T09:54:09Z</time>
      </trkpt>
      <trkpt lat="49.84107" lon="2.56573">
        <ele>99</ele>
        <time>2023-07-02T09:54:10Z</time>
      </trkpt>
      <trkpt lat="49.84106" lon="2.56571">
        <ele>99</ele>
        <time>2023-07-02T09:54:11Z</time>
      </trkpt>
      <trkpt lat="49.84105" lon="2.5657">
        <ele>99.1</ele>
        <time>2023-07-02T09:54:12Z</time>
      </trkpt>
      <trkpt lat="49.84104" lon="2.56568">
        <ele>99.1</ele>
        <time>2023-07-02T09:54:14Z</time>
      </trkpt>
      <trkpt lat="49.84103" lon="2.56567">
        <ele>99.1</ele>
        <time>2023-07-02T09:54:15Z</time>
      </trkpt>
      <trkpt lat="49.84102" lon="2.56566">
        <ele>99.1</ele>
        <time>2023-07-02T09:54:16Z</time>
      </trkpt>
      <trkpt lat="49.841" lon="2.56565">
        <ele>99.1</ele>
        <time>2023-07-02T09:54:17Z</time>
      </trkpt>
      <trkpt lat="49.84099" lon="2.56564">
        <ele>99.1</ele>
        <time>2023-07-02T09:54:18Z</time>
      </trkpt>
      <trkpt lat="49.84098" lon="2.56563">
        <ele>99.1</ele>
        <time>2023-07-02T09:54:19Z</time>
      </trkpt>
      <trkpt lat="49.84097" lon="2.56562">
        <ele>99.1</ele>
        <time>2023-07-02T09:54:20Z</time>
      </trkpt>
      <trkpt lat="49.84096" lon="2.56561">
        <ele>99.2</ele>
        <time>2023-07-02T09:54:21Z</time>
      </trkpt>
      <trkpt lat="49.84095" lon="2.5656">
        <ele>99.2</ele>
        <time>2023-07-02T09:54:23Z</time>
      </trkpt>
      <trkpt lat="49.84093" lon="2.56559">
        <ele>99.2</ele>
        <time>2023-07-02T09:54:24Z</time>
      </trkpt>
      <trkpt lat="49.84092" lon="2.56558">
        <ele>99.2</ele>
        <time>2023-07-02T09:54:25Z</time>
      </trkpt>
      <trkpt lat="49.84092" lon="2.56559">
        <ele>99.2</ele>
        <time>2023-07-02T09:54:26Z</time>
      </trkpt>
      <trkpt lat="49.84091" lon="2.5656">
        <ele>99.2</ele>
        <time>2023-07-02T09:54:27Z</time>
      </trkpt>
      <trkpt lat="49.8409" lon="2.56561">
        <ele>99.2</ele>
        <time>2023-07-02T09:54:29Z</time>
      </trkpt>
      <trkpt lat="49.8409" lon="2.56561">
        <ele>99.2</ele>
        <time>2023-07-02T09:54:30Z</time>
      </trkpt>
      <trkpt lat="49.8409" lon="2.56561">
        <ele>99.2</ele>
        <time>2023-07-02T09:54:32Z</time>
      </trkpt>
      <trkpt lat="49.8409" lon="2.56561">
        <ele>99.2</ele>
        <time>2023-07-02T09:54:33Z</time>
      </trkpt>
      <trkpt lat="49.84091" lon="2.56561">
        <ele>99.2</ele>
        <time>2023-07-02T09:54:35Z</time>
      </trkpt>
      <trkpt lat="49.84091" lon="2.56561">
        <ele>99.2</ele>
        <time>2023-07-02T09:54:36Z</time>
      </trkpt>
      <trkpt lat="49.84091" lon="2.56561">
        <ele>99.2</ele>
        <time>2023-07-02T09:54:37Z</time>
      </trkpt>
      <trkpt lat="49.84091" lon="2.56561">
        <ele>99.2</ele>
        <time>2023-07-02T09:54:39Z</time>
      </trkpt>
      <trkpt lat="49.84091" lon="2.56561">
        <ele>99.2</ele>
        <time>2023-07-02T09:54:40Z</time>
      </trkpt>
      <trkpt lat="49.84091" lon="2.56561">
        <ele>99.2</ele>
        <time>2023-07-02T09:54:42Z</time>
      </trkpt>
      <trkpt lat="49.8409" lon="2.56561">
        <ele>99.2</ele>
        <time>2023-07-02T09:54:43Z</time>
      </trkpt>
      <trkpt lat="49.84091" lon="2.56561">
        <ele>99.2</ele>
        <time>2023-07-02T09:54:44Z</time>
      </trkpt>
      <trkpt lat="49.84091" lon="2.56561">
        <ele>99.2</ele>
        <time>2023-07-02T09:54:45Z</time>
      </trkpt>
      <trkpt lat="49.84091" lon="2.5656">
        <ele>99.2</ele>
        <time>2023-07-02T09:54:46Z</time>
      </trkpt>
      <trkpt lat="49.84091" lon="2.5656">
        <ele>99.2</ele>
        <time>2023-07-02T09:54:47Z</time>
      </trkpt>
      <trkpt lat="49.84091" lon="2.5656">
        <ele>99.2</ele>
        <time>2023-07-02T09:54:48Z</time>
      </trkpt>
      <trkpt lat="49.84091" lon="2.5656">
        <ele>99.2</ele>
        <time>2023-07-02T09:54:49Z</time>
      </trkpt>
      <trkpt lat="49.84091" lon="2.5656">
        <ele>99.2</ele>
        <time>2023-07-02T09:54:50Z</time>
      </trkpt>
      <trkpt lat="49.84091" lon="2.5656">
        <ele>99.2</ele>
        <time>2023-07-02T09:54:51Z</time>
      </trkpt>
      <trkpt lat="49.84091" lon="2.5656">
        <ele>99.2</ele>
        <time>2023-07-02T09:54:52Z</time>
      </trkpt>
      <trkpt lat="49.84091" lon="2.5656">
        <ele>99.2</ele>
        <time>2023-07-02T09:54:53Z</time>
      </trkpt>
      <trkpt lat="49.84091" lon="2.5656">
        <ele>99.2</ele>
        <time>2023-07-02T09:54:54Z</time>
      </trkpt>
      <trkpt lat="49.84091" lon="2.5656">
        <ele>99.2</ele>
        <time>2023-07-02T09:54:55Z</time>
      </trkpt>
      <trkpt lat="49.84091" lon="2.5656">
        <ele>99.2</ele>
        <time>2023-07-02T09:54:56Z</time>
      </trkpt>
      <trkpt lat="49.84091" lon="2.5656">
        <ele>99.2</ele>
        <time>2023-07-02T09:54:57Z</time>
      </trkpt>
      <trkpt lat="49.84091" lon="2.5656">
        <ele>99.2</ele>
        <time>2023-07-02T09:54:58Z</time>
      </trkpt>
      <trkpt lat="49.84091" lon="2.5656">
        <ele>99.2</ele>
        <time>2023-07-02T09:54:59Z</time>
      </trkpt>
      <trkpt lat="49.84091" lon="2.5656">
        <ele>99.2</ele>
        <time>2023-07-02T09:55:00Z</time>
      </trkpt>
      <trkpt lat="49.84091" lon="2.5656">
        <ele>99.2</ele>
        <time>2023-07-02T09:55:01Z</time>
      </trkpt>
      <trkpt lat="49.84091" lon="2.5656">
        <ele>99.2</ele>
        <time>2023-07-02T09:55:02Z</time>
      </trkpt>
      <trkpt lat="49.84091" lon="2.5656">
        <ele>99.2</ele>
        <time>2023-07-02T09:55:03Z</time>
      </trkpt>
      <trkpt lat="49.84091" lon="2.5656">
        <ele>99.2</ele>
        <time>2023-07-02T09:55:04Z</time>
      </trkpt>
      <trkpt lat="49.84091" lon="2.5656">
        <ele>99.2</ele>
        <time>2023-07-02T09:55:05Z</time>
      </trkpt>
      <trkpt lat="49.84091" lon="2.5656">
        <ele>99.2</ele>
        <time>2023-07-02T09:55:06Z</time>
      </trkpt>
      <trkpt lat="49.84091" lon="2.5656">
        <ele>99.2</ele>
        <time>2023-07-02T09:55:07Z</time>
      </trkpt>
      <trkpt lat="49.84091" lon="2.5656">
        <ele>99.2</ele>
        <time>2023-07-02T09:55:08Z</time>
      </trkpt>
      <trkpt lat="49.84091" lon="2.5656">
        <ele>99.2</ele>
        <time>2023-07-02T09:55:09Z</time>
      </trkpt>
      <trkpt lat="49.84091" lon="2.5656">
        <ele>99.2</ele>
        <time>2023-07-02T09:55:10Z</time>
      </trkpt>
      <trkpt lat="49.84091" lon="2.5656">
        <ele>99.2</ele>
        <time>2023-07-02T09:55:11Z</time>
      </trkpt>
      <trkpt lat="49.84091" lon="2.5656">
        <ele>99.2</ele>
        <time>2023-07-02T09:55:12Z</time>
      </trkpt>
      <trkpt lat="49.84091" lon="2.5656">
        <ele>99.2</ele>
        <time>2023-07-02T09:55:13Z</time>
      </trkpt>
      <trkpt lat="49.84091" lon="2.5656">
        <ele>99.2</ele>
        <time>2023-07-02T09:55:14Z</time>
      </trkpt>
      <trkpt lat="49.84091" lon="2.5656">
        <ele>99.2</ele>
        <time>2023-07-02T09:55:15Z</time>
      </trkpt>
      <trkpt lat="49.84091" lon="2.5656">
        <ele>99.2</ele>
        <time>2023-07-02T09:55:16Z</time>
      </trkpt>
      <trkpt lat="49.84091" lon="2.5656">
        <ele>99.2</ele>
        <time>2023-07-02T09:55:17Z</time>
      </trkpt>
      <trkpt lat="49.84091" lon="2.5656">
        <ele>99.2</ele>
        <time>2023-07-02T09:55:18Z</time>
      </trkpt>
      <trkpt lat="49.84091" lon="2.5656">
        <ele>99.2</ele>
        <time>2023-07-02T09:55:19Z</time>
      </trkpt>
      <trkpt lat="49.84091" lon="2.5656">
        <ele>99.2</ele>
        <time>2023-07-02T09:55:20Z</time>
      </trkpt>
      <trkpt lat="49.84091" lon="2.5656">
        <ele>99.2</ele>
        <time>2023-07-02T09:55:21Z</time>
      </trkpt>
      <trkpt lat="49.84091" lon="2.5656">
        <ele>99.2</ele>
        <time>2023-07-02T09:55:22Z</time>
      </trkpt>
      <trkpt lat="49.84091" lon="2.5656">
        <ele>99.2</ele>
        <time>2023-07-02T09:55:23Z</time>
      </trkpt>
      <trkpt lat="49.84091" lon="2.5656">
        <ele>99.2</ele>
        <time>2023-07-02T09:55:24Z</time>
      </trkpt>
      <trkpt lat="49.84091" lon="2.5656">
        <ele>99.2</ele>
        <time>2023-07-02T09:55:25Z</time>
      </trkpt>
      <trkpt lat="49.84091" lon="2.5656">
        <ele>99.2</ele>
        <time>2023-07-02T09:55:26Z</time>
      </trkpt>
      <trkpt lat="49.84091" lon="2.5656">
        <ele>99.2</ele>
        <time>2023-07-02T09:55:27Z</time>
      </trkpt>
      <trkpt lat="49.84091" lon="2.5656">
        <ele>99.2</ele>
        <time>2023-07-02T09:55:28Z</time>
      </trkpt>
      <trkpt lat="49.84091" lon="2.5656">
        <ele>99.2</ele>
        <time>2023-07-02T09:55:29Z</time>
      </trkpt>
      <trkpt lat="49.84091" lon="2.5656">
        <ele>99.2</ele>
        <time>2023-07-02T09:55:30Z</time>
      </trkpt>
      <trkpt lat="49.84091" lon="2.5656">
        <ele>99.2</ele>
        <time>2023-07-02T09:55:31Z</time>
      </trkpt>
      <trkpt lat="49.84092" lon="2.56561">
        <ele>99.2</ele>
        <time>2023-07-02T09:55:32Z</time>
      </trkpt>
      <trkpt lat="49.84094" lon="2.56562">
        <ele>99.2</ele>
        <time>2023-07-02T09:55:33Z</time>
      </trkpt>
      <trkpt lat="49.84094" lon="2.56562">
        <ele>99.3</ele>
        <time>2023-07-02T09:55:34Z</time>
      </trkpt>
      <trkpt lat="49.84093" lon="2.56561">
        <ele>99.3</ele>
        <time>2023-07-02T09:55:35Z</time>
      </trkpt>
      <trkpt lat="49.84092" lon="2.5656">
        <ele>99.3</ele>
        <time>2023-07-02T09:55:36Z</time>
      </trkpt>
      <trkpt lat="49.84091" lon="2.56559">
        <ele>99.3</ele>
        <time>2023-07-02T09:55:37Z</time>
      </trkpt>
      <trkpt lat="49.84091" lon="2.56558">
        <ele>99.3</ele>
        <time>2023-07-02T09:55:39Z</time>
      </trkpt>
      <trkpt lat="49.8409" lon="2.56558">
        <ele>99.3</ele>
        <time>2023-07-02T09:55:40Z</time>
      </trkpt>
      <trkpt lat="49.84089" lon="2.56556">
        <ele>99.3</ele>
        <time>2023-07-02T09:55:41Z</time>
      </trkpt>
      <trkpt lat="49.84088" lon="2.56554">
        <ele>99.3</ele>
        <time>2023-07-02T09:55:42Z</time>
      </trkpt>
      <trkpt lat="49.84087" lon="2.56553">
        <ele>99.3</ele>
        <time>2023-07-02T09:55:43Z</time>
      </trkpt>
      <trkpt lat="49.84086" lon="2.56552">
        <ele>99.4</ele>
        <time>2023-07-02T09:55:44Z</time>
      </trkpt>
      <trkpt lat="49.84085" lon="2.56552">
        <ele>99.4</ele>
        <time>2023-07-02T09:55:45Z</time>
      </trkpt>
      <trkpt lat="49.84084" lon="2.56551">
        <ele>99.4</ele>
        <time>2023-07-02T09:55:47Z</time>
      </trkpt>
      <trkpt lat="49.84083" lon="2.56549">
        <ele>99.4</ele>
        <time>2023-07-02T09:55:48Z</time>
      </trkpt>
      <trkpt lat="49.84082" lon="2.56548">
        <ele>99.4</ele>
        <time>2023-07-02T09:55:49Z</time>
      </trkpt>
      <trkpt lat="49.84081" lon="2.56546">
        <ele>99.4</ele>
        <time>2023-07-02T09:55:50Z</time>
      </trkpt>
      <trkpt lat="49.84079" lon="2.56545">
        <ele>99.4</ele>
        <time>2023-07-02T09:55:51Z</time>
      </trkpt>
      <trkpt lat="49.84078" lon="2.56543">
        <ele>99.4</ele>
        <time>2023-07-02T09:55:52Z</time>
      </trkpt>
      <trkpt lat="49.84077" lon="2.56541">
        <ele>99.4</ele>
        <time>2023-07-02T09:55:53Z</time>
      </trkpt>
      <trkpt lat="49.84076" lon="2.5654">
        <ele>99.5</ele>
        <time>2023-07-02T09:55:54Z</time>
      </trkpt>
      <trkpt lat="49.84074" lon="2.56538">
        <ele>99.5</ele>
        <time>2023-07-02T09:55:56Z</time>
      </trkpt>
      <trkpt lat="49.84073" lon="2.56537">
        <ele>99.5</ele>
        <time>2023-07-02T09:55:57Z</time>
      </trkpt>
      <trkpt lat="49.84072" lon="2.56535">
        <ele>99.5</ele>
        <time>2023-07-02T09:55:58Z</time>
      </trkpt>
      <trkpt lat="49.84071" lon="2.56534">
        <ele>99.5</ele>
        <time>2023-07-02T09:55:59Z</time>
      </trkpt>
      <trkpt lat="49.8407" lon="2.56532">
        <ele>99.5</ele>
        <time>2023-07-02T09:56:00Z</time>
      </trkpt>
      <trkpt lat="49.84069" lon="2.56531">
        <ele>99.5</ele>
        <time>2023-07-02T09:56:02Z</time>
      </trkpt>
      <trkpt lat="49.84068" lon="2.56529">
        <ele>99.5</ele>
        <time>2023-07-02T09:56:03Z</time>
      </trkpt>
      <trkpt lat="49.84067" lon="2.56528">
        <ele>99.5</ele>
        <time>2023-07-02T09:56:04Z</time>
      </trkpt>
      <trkpt lat="49.84066" lon="2.56526">
        <ele>99.5</ele>
        <time>2023-07-02T09:56:05Z</time>
      </trkpt>
      <trkpt lat="49.84066" lon="2.56525">
        <ele>99.5</ele>
        <time>2023-07-02T09:56:06Z</time>
      </trkpt>
      <trkpt lat="49.84065" lon="2.56523">
        <ele>99.5</ele>
        <time>2023-07-02T09:56:07Z</time>
      </trkpt>
      <trkpt lat="49.84063" lon="2.56522">
        <ele>99.5</ele>
        <time>2023-07-02T09:56:08Z</time>
      </trkpt>
      <trkpt lat="49.84062" lon="2.5652">
        <ele>99.5</ele>
        <time>2023-07-02T09:56:10Z</time>
      </trkpt>
      <trkpt lat="49.84061" lon="2.5652">
        <ele>99.5</ele>
        <time>2023-07-02T09:56:11Z</time>
      </trkpt>
      <trkpt lat="49.8406" lon="2.5652">
        <ele>99.5</ele>
        <time>2023-07-02T09:56:13Z</time>
      </trkpt>
      <trkpt lat="49.8406" lon="2.5652">
        <ele>99.5</ele>
        <time>2023-07-02T09:56:14Z</time>
      </trkpt>
      <trkpt lat="49.8406" lon="2.5652">
        <ele>99.5</ele>
        <time>2023-07-02T09:56:16Z</time>
      </trkpt>
      <trkpt lat="49.84061" lon="2.5652">
        <ele>99.5</ele>
        <time>2023-07-02T09:56:17Z</time>
      </trkpt>
      <trkpt lat="49.84061" lon="2.5652">
        <ele>99.5</ele>
        <time>2023-07-02T09:56:18Z</time>
      </trkpt>
      <trkpt lat="49.84061" lon="2.5652">
        <ele>99.5</ele>
        <time>2023-07-02T09:56:19Z</time>
      </trkpt>
      <trkpt lat="49.84061" lon="2.5652">
        <ele>99.5</ele>
        <time>2023-07-02T09:56:20Z</time>
      </trkpt>
      <trkpt lat="49.8406" lon="2.56519">
        <ele>99.5</ele>
        <time>2023-07-02T09:56:22Z</time>
      </trkpt>
      <trkpt lat="49.84059" lon="2.56518">
        <ele>99.5</ele>
        <time>2023-07-02T09:56:23Z</time>
      </trkpt>
      <trkpt lat="49.84058" lon="2.56517">
        <ele>99.5</ele>
        <time>2023-07-02T09:56:24Z</time>
      </trkpt>
      <trkpt lat="49.84056" lon="2.56516">
        <ele>99.6</ele>
        <time>2023-07-02T09:56:25Z</time>
      </trkpt>
      <trkpt lat="49.84055" lon="2.56515">
        <ele>99.6</ele>
        <time>2023-07-02T09:56:26Z</time>
      </trkpt>
      <trkpt lat="49.84055" lon="2.56514">
        <ele>99.6</ele>
        <time>2023-07-02T09:56:27Z</time>
      </trkpt>
      <trkpt lat="49.84053" lon="2.56513">
        <ele>99.6</ele>
        <time>2023-07-02T09:56:28Z</time>
      </trkpt>
      <trkpt lat="49.84053" lon="2.56512">
        <ele>99.6</ele>
        <time>2023-07-02T09:56:29Z</time>
      </trkpt>
      <trkpt lat="49.84053" lon="2.56512">
        <ele>99.6</ele>
        <time>2023-07-02T09:56:30Z</time>
      </trkpt>
      <trkpt lat="49.84052" lon="2.56511">
        <ele>99.6</ele>
        <time>2023-07-02T09:56:31Z</time>
      </trkpt>
      <trkpt lat="49.8405" lon="2.56509">
        <ele>99.6</ele>
        <time>2023-07-02T09:56:33Z</time>
      </trkpt>
      <trkpt lat="49.8405" lon="2.56508">
        <ele>99.6</ele>
        <time>2023-07-02T09:56:34Z</time>
      </trkpt>
      <trkpt lat="49.84049" lon="2.56507">
        <ele>99.6</ele>
        <time>2023-07-02T09:56:35Z</time>
      </trkpt>
      <trkpt lat="49.84048" lon="2.56506">
        <ele>99.6</ele>
        <time>2023-07-02T09:56:36Z</time>
      </trkpt>
      <trkpt lat="49.84046" lon="2.56504">
        <ele>99.6</ele>
        <time>2023-07-02T09:56:37Z</time>
      </trkpt>
      <trkpt lat="49.84044" lon="2.56502">
        <ele>99.6</ele>
        <time>2023-07-02T09:56:38Z</time>
      </trkpt>
      <trkpt lat="49.84043" lon="2.56501">
        <ele>99.6</ele>
        <time>2023-07-02T09:56:39Z</time>
      </trkpt>
      <trkpt lat="49.84041" lon="2.56498">
        <ele>99.6</ele>
        <time>2023-07-02T09:56:40Z</time>
      </trkpt>
      <trkpt lat="49.84041" lon="2.56497">
        <ele>99.6</ele>
        <time>2023-07-02T09:56:41Z</time>
      </trkpt>
      <trkpt lat="49.84039" lon="2.56495">
        <ele>99.6</ele>
        <time>2023-07-02T09:56:43Z</time>
      </trkpt>
      <trkpt lat="49.84038" lon="2.56494">
        <ele>99.6</ele>
        <time>2023-07-02T09:56:44Z</time>
      </trkpt>
      <trkpt lat="49.84036" lon="2.56492">
        <ele>99.6</ele>
        <time>2023-07-02T09:56:45Z</time>
      </trkpt>
      <trkpt lat="49.84035" lon="2.56491">
        <ele>99.6</ele>
        <time>2023-07-02T09:56:46Z</time>
      </trkpt>
      <trkpt lat="49.84034" lon="2.56491">
        <ele>99.6</ele>
        <time>2023-07-02T09:56:47Z</time>
      </trkpt>
      <trkpt lat="49.84033" lon="2.56489">
        <ele>99.6</ele>
        <time>2023-07-02T09:56:49Z</time>
      </trkpt>
      <trkpt lat="49.84032" lon="2.56488">
        <ele>99.6</ele>
        <time>2023-07-02T09:56:50Z</time>
      </trkpt>
      <trkpt lat="49.8403" lon="2.56487">
        <ele>99.6</ele>
        <time>2023-07-02T09:56:51Z</time>
      </trkpt>
      <trkpt lat="49.84029" lon="2.56486">
        <ele>99.6</ele>
        <time>2023-07-02T09:56:52Z</time>
      </trkpt>
      <trkpt lat="49.84028" lon="2.56484">
        <ele>99.6</ele>
        <time>2023-07-02T09:56:53Z</time>
      </trkpt>
      <trkpt lat="49.84027" lon="2.56483">
        <ele>99.6</ele>
        <time>2023-07-02T09:56:54Z</time>
      </trkpt>
      <trkpt lat="49.84026" lon="2.56482">
        <ele>99.6</ele>
        <time>2023-07-02T09:56:55Z</time>
      </trkpt>
      <trkpt lat="49.84025" lon="2.56481">
        <ele>99.6</ele>
        <time>2023-07-02T09:56:56Z</time>
      </trkpt>
      <trkpt lat="49.84024" lon="2.5648">
        <ele>99.6</ele>
        <time>2023-07-02T09:56:57Z</time>
      </trkpt>
      <trkpt lat="49.84023" lon="2.56479">
        <ele>99.6</ele>
        <time>2023-07-02T09:56:59Z</time>
      </trkpt>
      <trkpt lat="49.84022" lon="2.56477">
        <ele>99.6</ele>
        <time>2023-07-02T09:57:00Z</time>
      </trkpt>
      <trkpt lat="49.84021" lon="2.56476">
        <ele>99.6</ele>
        <time>2023-07-02T09:57:01Z</time>
      </trkpt>
      <trkpt lat="49.84019" lon="2.56475">
        <ele>99.6</ele>
        <time>2023-07-02T09:57:02Z</time>
      </trkpt>
      <trkpt lat="49.84018" lon="2.56474">
        <ele>99.6</ele>
        <time>2023-07-02T09:57:04Z</time>
      </trkpt>
      <trkpt lat="49.84017" lon="2.56473">
        <ele>99.6</ele>
        <time>2023-07-02T09:57:05Z</time>
      </trkpt>
      <trkpt lat="49.84016" lon="2.56472">
        <ele>99.6</ele>
        <time>2023-07-02T09:57:06Z</time>
      </trkpt>
      <trkpt lat="49.84016" lon="2.56471">
        <ele>99.6</ele>
        <time>2023-07-02T09:57:07Z</time>
      </trkpt>
      <trkpt lat="49.84015" lon="2.56469">
        <ele>99.6</ele>
        <time>2023-07-02T09:57:08Z</time>
      </trkpt>
      <trkpt lat="49.84014" lon="2.56468">
        <ele>99.6</ele>
        <time>2023-07-02T09:57:09Z</time>
      </trkpt>
      <trkpt lat="49.84013" lon="2.56467">
        <ele>99.6</ele>
        <time>2023-07-02T09:57:11Z</time>
      </trkpt>
      <trkpt lat="49.84012" lon="2.56467">
        <ele>99.6</ele>
        <time>2023-07-02T09:57:12Z</time>
      </trkpt>
      <trkpt lat="49.84011" lon="2.56467">
        <ele>99.6</ele>
        <time>2023-07-02T09:57:13Z</time>
      </trkpt>
      <trkpt lat="49.84011" lon="2.56467">
        <ele>99.6</ele>
        <time>2023-07-02T09:57:14Z</time>
      </trkpt>
      <trkpt lat="49.84011" lon="2.56468">
        <ele>99.6</ele>
        <time>2023-07-02T09:57:16Z</time>
      </trkpt>
      <trkpt lat="49.84011" lon="2.56469">
        <ele>99.6</ele>
        <time>2023-07-02T09:57:17Z</time>
      </trkpt>
      <trkpt lat="49.84011" lon="2.56469">
        <ele>99.6</ele>
        <time>2023-07-02T09:57:18Z</time>
      </trkpt>
      <trkpt lat="49.84011" lon="2.56469">
        <ele>99.6</ele>
        <time>2023-07-02T09:57:19Z</time>
      </trkpt>
      <trkpt lat="49.84012" lon="2.56469">
        <ele>99.6</ele>
        <time>2023-07-02T09:57:21Z</time>
      </trkpt>
      <trkpt lat="49.84012" lon="2.5647">
        <ele>99.6</ele>
        <time>2023-07-02T09:57:23Z</time>
      </trkpt>
      <trkpt lat="49.84012" lon="2.5647">
        <ele>99.6</ele>
        <time>2023-07-02T09:57:24Z</time>
      </trkpt>
      <trkpt lat="49.84012" lon="2.5647">
        <ele>99.6</ele>
        <time>2023-07-02T09:57:26Z</time>
      </trkpt>
      <trkpt lat="49.84012" lon="2.5647">
        <ele>99.6</ele>
        <time>2023-07-02T09:57:27Z</time>
      </trkpt>
      <trkpt lat="49.84012" lon="2.5647">
        <ele>99.6</ele>
        <time>2023-07-02T09:57:29Z</time>
      </trkpt>
      <trkpt lat="49.84012" lon="2.5647">
        <ele>99.6</ele>
        <time>2023-07-02T09:57:30Z</time>
      </trkpt>
      <trkpt lat="49.84012" lon="2.5647">
        <ele>99.6</ele>
        <time>2023-07-02T09:57:31Z</time>
      </trkpt>
      <trkpt lat="49.84012" lon="2.5647">
        <ele>99.6</ele>
        <time>2023-07-02T09:57:32Z</time>
      </trkpt>
      <trkpt lat="49.84012" lon="2.5647">
        <ele>99.6</ele>
        <time>2023-07-02T09:57:33Z</time>
      </trkpt>
      <trkpt lat="49.84012" lon="2.5647">
        <ele>99.6</ele>
        <time>2023-07-02T09:57:34Z</time>
      </trkpt>
      <trkpt lat="49.84012" lon="2.5647">
        <ele>99.6</ele>
        <time>2023-07-02T09:57:35Z</time>
      </trkpt>
      <trkpt lat="49.84012" lon="2.5647">
        <ele>99.6</ele>
        <time>2023-07-02T09:57:36Z</time>
      </trkpt>
      <trkpt lat="49.84012" lon="2.5647">
        <ele>99.6</ele>
        <time>2023-07-02T09:57:37Z</time>
      </trkpt>
      <trkpt lat="49.84012" lon="2.5647">
        <ele>99.6</ele>
        <time>2023-07-02T09:57:39Z</time>
      </trkpt>
      <trkpt lat="49.84012" lon="2.5647">
        <ele>99.6</ele>
        <time>2023-07-02T09:57:40Z</time>
      </trkpt>
      <trkpt lat="49.84012" lon="2.5647">
        <ele>99.6</ele>
        <time>2023-07-02T09:57:41Z</time>
      </trkpt>
      <trkpt lat="49.84012" lon="2.5647">
        <ele>99.6</ele>
        <time>2023-07-02T09:57:42Z</time>
      </trkpt>
      <trkpt lat="49.84012" lon="2.5647">
        <ele>99.6</ele>
        <time>2023-07-02T09:57:43Z</time>
      </trkpt>
      <trkpt lat="49.84012" lon="2.5647">
        <ele>99.6</ele>
        <time>2023-07-02T09:57:44Z</time>
      </trkpt>
      <trkpt lat="49.84012" lon="2.5647">
        <ele>99.6</ele>
        <time>2023-07-02T09:57:45Z</time>
      </trkpt>
      <trkpt lat="49.84012" lon="2.5647">
        <ele>99.6</ele>
        <time>2023-07-02T09:57:46Z</time>
      </trkpt>
      <trkpt lat="49.84012" lon="2.5647">
        <ele>99.6</ele>
        <time>2023-07-02T09:57:47Z</time>
      </trkpt>
      <trkpt lat="49.84012" lon="2.5647">
        <ele>99.6</ele>
        <time>2023-07-02T09:57:48Z</time>
      </trkpt>
      <trkpt lat="49.84012" lon="2.5647">
        <ele>99.6</ele>
        <time>2023-07-02T09:57:49Z</time>
      </trkpt>
      <trkpt lat="49.84012" lon="2.5647">
        <ele>99.6</ele>
        <time>2023-07-02T09:57:50Z</time>
      </trkpt>
      <trkpt lat="49.84012" lon="2.5647">
        <ele>99.6</ele>
        <time>2023-07-02T09:57:51Z</time>
      </trkpt>
      <trkpt lat="49.84012" lon="2.5647">
        <ele>99.6</ele>
        <time>2023-07-02T09:57:52Z</time>
      </trkpt>
      <trkpt lat="49.84012" lon="2.5647">
        <ele>99.6</ele>
        <time>2023-07-02T09:57:53Z</time>
      </trkpt>
      <trkpt lat="49.84012" lon="2.5647">
        <ele>99.6</ele>
        <time>2023-07-02T09:57:54Z</time>
      </trkpt>
      <trkpt lat="49.84012" lon="2.5647">
        <ele>99.6</ele>
        <time>2023-07-02T09:57:55Z</time>
      </trkpt>
      <trkpt lat="49.84012" lon="2.5647">
        <ele>99.6</ele>
        <time>2023-07-02T09:57:56Z</time>
      </trkpt>
      <trkpt lat="49.84012" lon="2.5647">
        <ele>99.6</ele>
        <time>2023-07-02T09:57:57Z</time>
      </trkpt>
      <trkpt lat="49.84012" lon="2.5647">
        <ele>99.6</ele>
        <time>2023-07-02T09:57:58Z</time>
      </trkpt>
      <trkpt lat="49.84012" lon="2.5647">
        <ele>99.6</ele>
        <time>2023-07-02T09:57:59Z</time>
      </trkpt>
      <trkpt lat="49.84012" lon="2.5647">
        <ele>99.6</ele>
        <time>2023-07-02T09:58:00Z</time>
      </trkpt>
      <trkpt lat="49.84012" lon="2.5647">
        <ele>99.6</ele>
        <time>2023-07-02T09:58:01Z</time>
      </trkpt>
      <trkpt lat="49.84012" lon="2.5647">
        <ele>99.6</ele>
        <time>2023-07-02T09:58:02Z</time>
      </trkpt>
      <trkpt lat="49.84012" lon="2.5647">
        <ele>99.6</ele>
        <time>2023-07-02T09:58:03Z</time>
      </trkpt>
      <trkpt lat="49.84012" lon="2.5647">
        <ele>99.6</ele>
        <time>2023-07-02T09:58:04Z</time>
      </trkpt>
      <trkpt lat="49.84012" lon="2.5647">
        <ele>99.6</ele>
        <time>2023-07-02T09:58:05Z</time>
      </trkpt>
      <trkpt lat="49.84012" lon="2.5647">
        <ele>99.6</ele>
        <time>2023-07-02T09:58:06Z</time>
      </trkpt>
      <trkpt lat="49.84012" lon="2.5647">
        <ele>99.6</ele>
        <time>2023-07-02T09:58:07Z</time>
      </trkpt>
      <trkpt lat="49.84012" lon="2.5647">
        <ele>99.6</ele>
        <time>2023-07-02T09:58:08Z</time>
      </trkpt>
      <trkpt lat="49.84012" lon="2.5647">
        <ele>99.6</ele>
        <time>2023-07-02T09:58:09Z</time>
      </trkpt>
      <trkpt lat="49.84012" lon="2.5647">
        <ele>99.6</ele>
        <time>2023-07-02T09:58:10Z</time>
      </trkpt>
      <trkpt lat="49.84012" lon="2.5647">
        <ele>99.6</ele>
        <time>2023-07-02T09:58:11Z</time>
      </trkpt>
      <trkpt lat="49.84012" lon="2.5647">
        <ele>99.6</ele>
        <time>2023-07-02T09:58:12Z</time>
      </trkpt>
      <trkpt lat="49.84012" lon="2.5647">
        <ele>99.6</ele>
        <time>2023-07-02T09:58:13Z</time>
      </trkpt>
      <trkpt lat="49.84012" lon="2.5647">
        <ele>99.6</ele>
        <time>2023-07-02T09:58:14Z</time>
      </trkpt>
      <trkpt lat="49.84012" lon="2.5647">
        <ele>99.6</ele>
        <time>2023-07-02T09:58:15Z</time>
      </trkpt>
      <trkpt lat="49.84012" lon="2.5647">
        <ele>99.6</ele>
        <time>2023-07-02T09:58:16Z</time>
      </trkpt>
      <trkpt lat="49.84012" lon="2.5647">
        <ele>99.6</ele>
        <time>2023-07-02T09:58:17Z</time>
      </trkpt>
      <trkpt lat="49.84012" lon="2.5647">
        <ele>99.6</ele>
        <time>2023-07-02T09:58:18Z</time>
      </trkpt>
      <trkpt lat="49.84012" lon="2.5647">
        <ele>99.6</ele>
        <time>2023-07-02T09:58:19Z</time>
      </trkpt>
      <trkpt lat="49.84012" lon="2.5647">
        <ele>99.6</ele>
        <time>2023-07-02T09:58:20Z</time>
      </trkpt>
      <trkpt lat="49.84012" lon="2.5647">
        <ele>99.6</ele>
        <time>2023-07-02T09:58:21Z</time>
      </trkpt>
      <trkpt lat="49.84012" lon="2.5647">
        <ele>99.6</ele>
        <time>2023-07-02T09:58:22Z</time>
      </trkpt>
      <trkpt lat="49.84012" lon="2.5647">
        <ele>99.6</ele>
        <time>2023-07-02T09:58:23Z</time>
      </trkpt>
      <trkpt lat="49.84012" lon="2.5647">
        <ele>99.6</ele>
        <time>2023-07-02T09:58:24Z</time>
      </trkpt>
      <trkpt lat="49.84012" lon="2.5647">
        <ele>99.6</ele>
        <time>2023-07-02T09:58:25Z</time>
      </trkpt>
      <trkpt lat="49.84012" lon="2.5647">
        <ele>99.6</ele>
        <time>2023-07-02T09:58:26Z</time>
      </trkpt>
      <trkpt lat="49.84012" lon="2.5647">
        <ele>99.6</ele>
        <time>2023-07-02T09:58:27Z</time>
      </trkpt>
      <trkpt lat="49.84012" lon="2.5647">
        <ele>99.6</ele>
        <time>2023-07-02T09:58:28Z</time>
      </trkpt>
      <trkpt lat="49.84012" lon="2.5647">
        <ele>99.6</ele>
        <time>2023-07-02T09:58:29Z</time>
      </trkpt>
      <trkpt lat="49.84012" lon="2.5647">
        <ele>99.6</ele>
        <time>2023-07-02T09:58:30Z</time>
      </trkpt>
      <trkpt lat="49.84011" lon="2.56469">
        <ele>99.6</ele>
        <time>2023-07-02T09:58:31Z</time>
      </trkpt>
      <trkpt lat="49.8401" lon="2.56469">
        <ele>99.6</ele>
        <time>2023-07-02T09:58:32Z</time>
      </trkpt>
      <trkpt lat="49.84009" lon="2.56468">
        <ele>99.6</ele>
        <time>2023-07-02T09:58:33Z</time>
      </trkpt>
      <trkpt lat="49.84009" lon="2.56467">
        <ele>99.6</ele>
        <time>2023-07-02T09:58:34Z</time>
      </trkpt>
      <trkpt lat="49.84008" lon="2.56466">
        <ele>99.6</ele>
        <time>2023-07-02T09:58:36Z</time>
      </trkpt>
      <trkpt lat="49.84008" lon="2.56466">
        <ele>99.6</ele>
        <time>2023-07-02T09:58:37Z</time>
      </trkpt>
      <trkpt lat="49.84007" lon="2.56464">
        <ele>99.6</ele>
        <time>2023-07-02T09:58:38Z</time>
      </trkpt>
      <trkpt lat="49.84006" lon="2.56464">
        <ele>99.6</ele>
        <time>2023-07-02T09:58:39Z</time>
      </trkpt>
      <trkpt lat="49.84006" lon="2.56463">
        <ele>99.6</ele>
        <time>2023-07-02T09:58:40Z</time>
      </trkpt>
      <trkpt lat="49.84005" lon="2.56462">
        <ele>99.6</ele>
        <time>2023-07-02T09:58:41Z</time>
      </trkpt>
      <trkpt lat="49.84004" lon="2.5646">
        <ele>99.6</ele>
        <time>2023-07-02T09:58:42Z</time>
      </trkpt>
      <trkpt lat="49.84003" lon="2.56459">
        <ele>99.6</ele>
        <time>2023-07-02T09:58:43Z</time>
      </trkpt>
      <trkpt lat="49.84002" lon="2.56459">
        <ele>99.6</ele>
        <time>2023-07-02T09:58:44Z</time>
      </trkpt>
      <trkpt lat="49.84001" lon="2.56457">
        <ele>99.6</ele>
        <time>2023-07-02T09:58:46Z</time>
      </trkpt>
      <trkpt lat="49.84" lon="2.56456">
        <ele>99.6</ele>
        <time>2023-07-02T09:58:47Z</time>
      </trkpt>
      <trkpt lat="49.83999" lon="2.56455">
        <ele>99.6</ele>
        <time>2023-07-02T09:58:48Z</time>
      </trkpt>
      <trkpt lat="49.83998" lon="2.56454">
        <ele>99.6</ele>
        <time>2023-07-02T09:58:49Z</time>
      </trkpt>
      <trkpt lat="49.83997" lon="2.56454">
        <ele>99.6</ele>
        <time>2023-07-02T09:58:50Z</time>
      </trkpt>
      <trkpt lat="49.83996" lon="2.56453">
        <ele>99.6</ele>
        <time>2023-07-02T09:58:51Z</time>
      </trkpt>
      <trkpt lat="49.83994" lon="2.56452">
        <ele>99.6</ele>
        <time>2023-07-02T09:58:52Z</time>
      </trkpt>
      <trkpt lat="49.83993" lon="2.56451">
        <ele>99.6</ele>
        <time>2023-07-02T09:58:53Z</time>
      </trkpt>
      <trkpt lat="49.83992" lon="2.5645">
        <ele>99.6</ele>
        <time>2023-07-02T09:58:54Z</time>
      </trkpt>
      <trkpt lat="49.8399" lon="2.56447">
        <ele>99.6</ele>
        <time>2023-07-02T09:58:56Z</time>
      </trkpt>
      <trkpt lat="49.83989" lon="2.56447">
        <ele>99.6</ele>
        <time>2023-07-02T09:58:57Z</time>
      </trkpt>
      <trkpt lat="49.83987" lon="2.56445">
        <ele>99.6</ele>
        <time>2023-07-02T09:58:58Z</time>
      </trkpt>
      <trkpt lat="49.83986" lon="2.56444">
        <ele>99.7</ele>
        <time>2023-07-02T09:58:59Z</time>
      </trkpt>
      <trkpt lat="49.83984" lon="2.56443">
        <ele>99.7</ele>
        <time>2023-07-02T09:59:00Z</time>
      </trkpt>
      <trkpt lat="49.83983" lon="2.56442">
        <ele>99.7</ele>
        <time>2023-07-02T09:59:01Z</time>
      </trkpt>
      <trkpt lat="49.83982" lon="2.5644">
        <ele>99.7</ele>
        <time>2023-07-02T09:59:02Z</time>
      </trkpt>
      <trkpt lat="49.83981" lon="2.56439">
        <ele>99.7</ele>
        <time>2023-07-02T09:59:03Z</time>
      </trkpt>
      <trkpt lat="49.83979" lon="2.56436">
        <ele>99.7</ele>
        <time>2023-07-02T09:59:05Z</time>
      </trkpt>
      <trkpt lat="49.83978" lon="2.56435">
        <ele>99.7</ele>
        <time>2023-07-02T09:59:06Z</time>
      </trkpt>
      <trkpt lat="49.83977" lon="2.56433">
        <ele>99.7</ele>
        <time>2023-07-02T09:59:07Z</time>
      </trkpt>
      <trkpt lat="49.83976" lon="2.56432">
        <ele>99.7</ele>
        <time>2023-07-02T09:59:08Z</time>
      </trkpt>
      <trkpt lat="49.83976" lon="2.56431">
        <ele>99.7</ele>
        <time>2023-07-02T09:59:09Z</time>
      </trkpt>
      <trkpt lat="49.83975" lon="2.5643">
        <ele>99.7</ele>
        <time>2023-07-02T09:59:10Z</time>
      </trkpt>
      <trkpt lat="49.83974" lon="2.56429">
        <ele>99.7</ele>
        <time>2023-07-02T09:59:12Z</time>
      </trkpt>
      <trkpt lat="49.83973" lon="2.56428">
        <ele>99.7</ele>
        <time>2023-07-02T09:59:13Z</time>
      </trkpt>
      <trkpt lat="49.83972" lon="2.56426">
        <ele>99.7</ele>
        <time>2023-07-02T09:59:14Z</time>
      </trkpt>
      <trkpt lat="49.83971" lon="2.56425">
        <ele>99.7</ele>
        <time>2023-07-02T09:59:15Z</time>
      </trkpt>
      <trkpt lat="49.8397" lon="2.56424">
        <ele>99.8</ele>
        <time>2023-07-02T09:59:16Z</time>
      </trkpt>
      <trkpt lat="49.83969" lon="2.56423">
        <ele>99.8</ele>
        <time>2023-07-02T09:59:17Z</time>
      </trkpt>
      <trkpt lat="49.83968" lon="2.56423">
        <ele>99.8</ele>
        <time>2023-07-02T09:59:18Z</time>
      </trkpt>
      <trkpt lat="49.83967" lon="2.56421">
        <ele>99.8</ele>
        <time>2023-07-02T09:59:19Z</time>
      </trkpt>
      <trkpt lat="49.83967" lon="2.5642">
        <ele>99.8</ele>
        <time>2023-07-02T09:59:21Z</time>
      </trkpt>
      <trkpt lat="49.83966" lon="2.56419">
        <ele>99.8</ele>
        <time>2023-07-02T09:59:22Z</time>
      </trkpt>
      <trkpt lat="49.83965" lon="2.56418">
        <ele>99.8</ele>
        <time>2023-07-02T09:59:23Z</time>
      </trkpt>
      <trkpt lat="49.83963" lon="2.56417">
        <ele>99.8</ele>
        <time>2023-07-02T09:59:24Z</time>
      </trkpt>
      <trkpt lat="49.83962" lon="2.56416">
        <ele>99.8</ele>
        <time>2023-07-02T09:59:25Z</time>
      </trkpt>
      <trkpt lat="49.83962" lon="2.56416">
        <ele>99.8</ele>
        <time>2023-07-02T09:59:26Z</time>
      </trkpt>
      <trkpt lat="49.83961" lon="2.56415">
        <ele>99.8</ele>
        <time>2023-07-02T09:59:27Z</time>
      </trkpt>
      <trkpt lat="49.8396" lon="2.56414">
        <ele>99.8</ele>
        <time>2023-07-02T09:59:28Z</time>
      </trkpt>
      <trkpt lat="49.83959" lon="2.56414">
        <ele>99.8</ele>
        <time>2023-07-02T09:59:30Z</time>
      </trkpt>
      <trkpt lat="49.83958" lon="2.56414">
        <ele>99.9</ele>
        <time>2023-07-02T09:59:31Z</time>
      </trkpt>
      <trkpt lat="49.83957" lon="2.56413">
        <ele>99.9</ele>
        <time>2023-07-02T09:59:32Z</time>
      </trkpt>
      <trkpt lat="49.83956" lon="2.56412">
        <ele>99.9</ele>
        <time>2023-07-02T09:59:33Z</time>
      </trkpt>
      <trkpt lat="49.83955" lon="2.56411">
        <ele>99.9</ele>
        <time>2023-07-02T09:59:34Z</time>
      </trkpt>
      <trkpt lat="49.83954" lon="2.5641">
        <ele>99.9</ele>
        <time>2023-07-02T09:59:35Z</time>
      </trkpt>
      <trkpt lat="49.83953" lon="2.56409">
        <ele>99.9</ele>
        <time>2023-07-02T09:59:36Z</time>
      </trkpt>
      <trkpt lat="49.83952" lon="2.56408">
        <ele>99.9</ele>
        <time>2023-07-02T09:59:37Z</time>
      </trkpt>
      <trkpt lat="49.83951" lon="2.56407">
        <ele>99.9</ele>
        <time>2023-07-02T09:59:39Z</time>
      </trkpt>
      <trkpt lat="49.8395" lon="2.56406">
        <ele>99.9</ele>
        <time>2023-07-02T09:59:40Z</time>
      </trkpt>
      <trkpt lat="49.83949" lon="2.56403">
        <ele>99.9</ele>
        <time>2023-07-02T09:59:41Z</time>
      </trkpt>
      <trkpt lat="49.83948" lon="2.56402">
        <ele>100</ele>
        <time>2023-07-02T09:59:42Z</time>
      </trkpt>
      <trkpt lat="49.83947" lon="2.56401">
        <ele>100</ele>
        <time>2023-07-02T09:59:43Z</time>
      </trkpt>
      <trkpt lat="49.83946" lon="2.56399">
        <ele>100</ele>
        <time>2023-07-02T09:59:44Z</time>
      </trkpt>
      <trkpt lat="49.83945" lon="2.56398">
        <ele>100</ele>
        <time>2023-07-02T09:59:46Z</time>
      </trkpt>
      <trkpt lat="49.83944" lon="2.56396">
        <ele>100</ele>
        <time>2023-07-02T09:59:47Z</time>
      </trkpt>
      <trkpt lat="49.83943" lon="2.56395">
        <ele>100</ele>
        <time>2023-07-02T09:59:48Z</time>
      </trkpt>
      <trkpt lat="49.83942" lon="2.56394">
        <ele>100</ele>
        <time>2023-07-02T09:59:49Z</time>
      </trkpt>
      <trkpt lat="49.83941" lon="2.56392">
        <ele>100</ele>
        <time>2023-07-02T09:59:50Z</time>
      </trkpt>
      <trkpt lat="49.8394" lon="2.56391">
        <ele>100</ele>
        <time>2023-07-02T09:59:51Z</time>
      </trkpt>
      <trkpt lat="49.83939" lon="2.56391">
        <ele>100</ele>
        <time>2023-07-02T09:59:52Z</time>
      </trkpt>
      <trkpt lat="49.83938" lon="2.56389">
        <ele>100.1</ele>
        <time>2023-07-02T09:59:53Z</time>
      </trkpt>
      <trkpt lat="49.83937" lon="2.56388">
        <ele>100.1</ele>
        <time>2023-07-02T09:59:54Z</time>
      </trkpt>
      <trkpt lat="49.83936" lon="2.56387">
        <ele>100.1</ele>
        <time>2023-07-02T09:59:56Z</time>
      </trkpt>
      <trkpt lat="49.83935" lon="2.56385">
        <ele>100.1</ele>
        <time>2023-07-02T09:59:57Z</time>
      </trkpt>
      <trkpt lat="49.83934" lon="2.56384">
        <ele>100.1</ele>
        <time>2023-07-02T09:59:58Z</time>
      </trkpt>
      <trkpt lat="49.83933" lon="2.56383">
        <ele>100.1</ele>
        <time>2023-07-02T09:59:59Z</time>
      </trkpt>
      <trkpt lat="49.83932" lon="2.56381">
        <ele>100.1</ele>
        <time>2023-07-02T10:00:00Z</time>
      </trkpt>
      <trkpt lat="49.83931" lon="2.56381">
        <ele>100.1</ele>
        <time>2023-07-02T10:00:01Z</time>
      </trkpt>
      <trkpt lat="49.8393" lon="2.56382">
        <ele>100.2</ele>
        <time>2023-07-02T10:00:03Z</time>
      </trkpt>
      <trkpt lat="49.83929" lon="2.56382">
        <ele>100.2</ele>
        <time>2023-07-02T10:00:04Z</time>
      </trkpt>
      <trkpt lat="49.83929" lon="2.56382">
        <ele>100.2</ele>
        <time>2023-07-02T10:00:06Z</time>
      </trkpt>
      <trkpt lat="49.83929" lon="2.56382">
        <ele>100.2</ele>
        <time>2023-07-02T10:00:07Z</time>
      </trkpt>
      <trkpt lat="49.83929" lon="2.56382">
        <ele>100.2</ele>
        <time>2023-07-02T10:00:08Z</time>
      </trkpt>
      <trkpt lat="49.83929" lon="2.56382">
        <ele>100.2</ele>
        <time>2023-07-02T10:00:09Z</time>
      </trkpt>
      <trkpt lat="49.83929" lon="2.56382">
        <ele>100.2</ele>
        <time>2023-07-02T10:00:11Z</time>
      </trkpt>
      <trkpt lat="49.83929" lon="2.56382">
        <ele>100.2</ele>
        <time>2023-07-02T10:00:12Z</time>
      </trkpt>
      <trkpt lat="49.83929" lon="2.56382">
        <ele>100.2</ele>
        <time>2023-07-02T10:00:14Z</time>
      </trkpt>
      <trkpt lat="49.83929" lon="2.56382">
        <ele>100.2</ele>
        <time>2023-07-02T10:00:15Z</time>
      </trkpt>
      <trkpt lat="49.83929" lon="2.56382">
        <ele>100.2</ele>
        <time>2023-07-02T10:00:17Z</time>
      </trkpt>
      <trkpt lat="49.83929" lon="2.56382">
        <ele>100.2</ele>
        <time>2023-07-02T10:00:18Z</time>
      </trkpt>
      <trkpt lat="49.83929" lon="2.56382">
        <ele>100.2</ele>
        <time>2023-07-02T10:00:19Z</time>
      </trkpt>
      <trkpt lat="49.83929" lon="2.56382">
        <ele>100.2</ele>
        <time>2023-07-02T10:00:20Z</time>
      </trkpt>
      <trkpt lat="49.8393" lon="2.56382">
        <ele>100.2</ele>
        <time>2023-07-02T10:00:21Z</time>
      </trkpt>
      <trkpt lat="49.8393" lon="2.56382">
        <ele>100.2</ele>
        <time>2023-07-02T10:00:22Z</time>
      </trkpt>
      <trkpt lat="49.8393" lon="2.56382">
        <ele>100.2</ele>
        <time>2023-07-02T10:00:23Z</time>
      </trkpt>
      <trkpt lat="49.8393" lon="2.56382">
        <ele>100.2</ele>
        <time>2023-07-02T10:00:24Z</time>
      </trkpt>
      <trkpt lat="49.8393" lon="2.56382">
        <ele>100.2</ele>
        <time>2023-07-02T10:00:25Z</time>
      </trkpt>
      <trkpt lat="49.8393" lon="2.56382">
        <ele>100.2</ele>
        <time>2023-07-02T10:00:26Z</time>
      </trkpt>
      <trkpt lat="49.8393" lon="2.56382">
        <ele>100.2</ele>
        <time>2023-07-02T10:00:27Z</time>
      </trkpt>
      <trkpt lat="49.8393" lon="2.56382">
        <ele>100.2</ele>
        <time>2023-07-02T10:00:28Z</time>
      </trkpt>
      <trkpt lat="49.8393" lon="2.56382">
        <ele>100.2</ele>
        <time>2023-07-02T10:00:29Z</time>
      </trkpt>
      <trkpt lat="49.8393" lon="2.56382">
        <ele>100.2</ele>
        <time>2023-07-02T10:00:30Z</time>
      </trkpt>
      <trkpt lat="49.8393" lon="2.56382">
        <ele>100.2</ele>
        <time>2023-07-02T10:00:31Z</time>
      </trkpt>
      <trkpt lat="49.8393" lon="2.56382">
        <ele>100.2</ele>
        <time>2023-07-02T10:00:32Z</time>
      </trkpt>
      <trkpt lat="49.8393" lon="2.56382">
        <ele>100.2</ele>
        <time>2023-07-02T10:00:33Z</time>
      </trkpt>
      <trkpt lat="49.8393" lon="2.56382">
        <ele>100.2</ele>
        <time>2023-07-02T10:00:34Z</time>
      </trkpt>
      <trkpt lat="49.8393" lon="2.56382">
        <ele>100.2</ele>
        <time>2023-07-02T10:00:35Z</time>
      </trkpt>
      <trkpt lat="49.8393" lon="2.56382">
        <ele>100.2</ele>
        <time>2023-07-02T10:00:36Z</time>
      </trkpt>
      <trkpt lat="49.8393" lon="2.56382">
        <ele>100.2</ele>
        <time>2023-07-02T10:00:37Z</time>
      </trkpt>
      <trkpt lat="49.8393" lon="2.56382">
        <ele>100.2</ele>
        <time>2023-07-02T10:00:38Z</time>
      </trkpt>
      <trkpt lat="49.8393" lon="2.56382">
        <ele>100.2</ele>
        <time>2023-07-02T10:00:39Z</time>
      </trkpt>
      <trkpt lat="49.8393" lon="2.56382">
        <ele>100.2</ele>
        <time>2023-07-02T10:00:40Z</time>
      </trkpt>
      <trkpt lat="49.8393" lon="2.56382">
        <ele>100.2</ele>
        <time>2023-07-02T10:00:41Z</time>
      </trkpt>
      <trkpt lat="49.8393" lon="2.56382">
        <ele>100.2</ele>
        <time>2023-07-02T10:00:42Z</time>
      </trkpt>
      <trkpt lat="49.8393" lon="2.56382">
        <ele>100.2</ele>
        <time>2023-07-02T10:00:43Z</time>
      </trkpt>
      <trkpt lat="49.83931" lon="2.56382">
        <ele>100.2</ele>
        <time>2023-07-02T10:00:44Z</time>
      </trkpt>
      <trkpt lat="49.83932" lon="2.56381">
        <ele>100.2</ele>
        <time>2023-07-02T10:00:45Z</time>
      </trkpt>
      <trkpt lat="49.83932" lon="2.56381">
        <ele>100.2</ele>
        <time>2023-07-02T10:00:46Z</time>
      </trkpt>
      <trkpt lat="49.83931" lon="2.5638">
        <ele>100.2</ele>
        <time>2023-07-02T10:00:47Z</time>
      </trkpt>
      <trkpt lat="49.83929" lon="2.56378">
        <ele>100.2</ele>
        <time>2023-07-02T10:00:48Z</time>
      </trkpt>
      <trkpt lat="49.83928" lon="2.56377">
        <ele>100.2</ele>
        <time>2023-07-02T10:00:49Z</time>
      </trkpt>
      <trkpt lat="49.83928" lon="2.56376">
        <ele>100.3</ele>
        <time>2023-07-02T10:00:50Z</time>
      </trkpt>
      <trkpt lat="49.83927" lon="2.56376">
        <ele>100.3</ele>
        <time>2023-07-02T10:00:52Z</time>
      </trkpt>
      <trkpt lat="49.83926" lon="2.56375">
        <ele>100.3</ele>
        <time>2023-07-02T10:00:53Z</time>
      </trkpt>
      <trkpt lat="49.83925" lon="2.56373">
        <ele>100.3</ele>
        <time>2023-07-02T10:00:54Z</time>
      </trkpt>
      <trkpt lat="49.83924" lon="2.56372">
        <ele>100.3</ele>
        <time>2023-07-02T10:00:55Z</time>
      </trkpt>
      <trkpt lat="49.83923" lon="2.5637">
        <ele>100.3</ele>
        <time>2023-07-02T10:00:56Z</time>
      </trkpt>
      <trkpt lat="49.83922" lon="2.56369">
        <ele>100.3</ele>
        <time>2023-07-02T10:00:57Z</time>
      </trkpt>
      <trkpt lat="49.83921" lon="2.56369">
        <ele>100.3</ele>
        <time>2023-07-02T10:00:58Z</time>
      </trkpt>
      <trkpt lat="49.8392" lon="2.56367">
        <ele>100.4</ele>
        <time>2023-07-02T10:00:59Z</time>
      </trkpt>
      <trkpt lat="49.83919" lon="2.56366">
        <ele>100.4</ele>
        <time>2023-07-02T10:01:00Z</time>
      </trkpt>
      <trkpt lat="49.83918" lon="2.56365">
        <ele>100.4</ele>
        <time>2023-07-02T10:01:01Z</time>
      </trkpt>
      <trkpt lat="49.83917" lon="2.56363">
        <ele>100.4</ele>
        <time>2023-07-02T10:01:03Z</time>
      </trkpt>
      <trkpt lat="49.83916" lon="2.56362">
        <ele>100.5</ele>
        <time>2023-07-02T10:01:04Z</time>
      </trkpt>
      <trkpt lat="49.83914" lon="2.5636">
        <ele>100.5</ele>
        <time>2023-07-02T10:01:05Z</time>
      </trkpt>
      <trkpt lat="49.83913" lon="2.56358">
        <ele>100.5</ele>
        <time>2023-07-02T10:01:06Z</time>
      </trkpt>
      <trkpt lat="49.83912" lon="2.56357">
        <ele>100.5</ele>
        <time>2023-07-02T10:01:07Z</time>
      </trkpt>
      <trkpt lat="49.83911" lon="2.56356">
        <ele>100.6</ele>
        <time>2023-07-02T10:01:08Z</time>
      </trkpt>
      <trkpt lat="49.8391" lon="2.56355">
        <ele>100.6</ele>
        <time>2023-07-02T10:01:09Z</time>
      </trkpt>
      <trkpt lat="49.83909" lon="2.56354">
        <ele>100.6</ele>
        <time>2023-07-02T10:01:10Z</time>
      </trkpt>
      <trkpt lat="49.83908" lon="2.56354">
        <ele>100.6</ele>
        <time>2023-07-02T10:01:11Z</time>
      </trkpt>
      <trkpt lat="49.83906" lon="2.56352">
        <ele>100.6</ele>
        <time>2023-07-02T10:01:13Z</time>
      </trkpt>
      <trkpt lat="49.83905" lon="2.56351">
        <ele>100.7</ele>
        <time>2023-07-02T10:01:14Z</time>
      </trkpt>
      <trkpt lat="49.83904" lon="2.56351">
        <ele>100.7</ele>
        <time>2023-07-02T10:01:15Z</time>
      </trkpt>
      <trkpt lat="49.83902" lon="2.56349">
        <ele>100.7</ele>
        <time>2023-07-02T10:01:16Z</time>
      </trkpt>
      <trkpt lat="49.83902" lon="2.56348">
        <ele>100.7</ele>
        <time>2023-07-02T10:01:17Z</time>
      </trkpt>
      <trkpt lat="49.83901" lon="2.56348">
        <ele>100.7</ele>
        <time>2023-07-02T10:01:18Z</time>
      </trkpt>
      <trkpt lat="49.839" lon="2.56347">
        <ele>100.8</ele>
        <time>2023-07-02T10:01:19Z</time>
      </trkpt>
      <trkpt lat="49.83898" lon="2.56346">
        <ele>100.8</ele>
        <time>2023-07-02T10:01:20Z</time>
      </trkpt>
      <trkpt lat="49.83897" lon="2.56344">
        <ele>100.8</ele>
        <time>2023-07-02T10:01:21Z</time>
      </trkpt>
      <trkpt lat="49.83896" lon="2.56343">
        <ele>100.8</ele>
        <time>2023-07-02T10:01:22Z</time>
      </trkpt>
      <trkpt lat="49.83895" lon="2.56342">
        <ele>100.8</ele>
        <time>2023-07-02T10:01:23Z</time>
      </trkpt>
      <trkpt lat="49.83894" lon="2.56341">
        <ele>100.8</ele>
        <time>2023-07-02T10:01:25Z</time>
      </trkpt>
      <trkpt lat="49.83893" lon="2.56339">
        <ele>100.9</ele>
        <time>2023-07-02T10:01:26Z</time>
      </trkpt>
      <trkpt lat="49.83892" lon="2.56338">
        <ele>100.9</ele>
        <time>2023-07-02T10:01:27Z</time>
      </trkpt>
      <trkpt lat="49.83891" lon="2.56336">
        <ele>100.9</ele>
        <time>2023-07-02T10:01:28Z</time>
      </trkpt>
      <trkpt lat="49.8389" lon="2.56334">
        <ele>100.9</ele>
        <time>2023-07-02T10:01:29Z</time>
      </trkpt>
      <trkpt lat="49.83889" lon="2.56333">
        <ele>100.9</ele>
        <time>2023-07-02T10:01:31Z</time>
      </trkpt>
      <trkpt lat="49.83888" lon="2.56332">
        <ele>101</ele>
        <time>2023-07-02T10:01:32Z</time>
      </trkpt>
      <trkpt lat="49.83887" lon="2.5633">
        <ele>101</ele>
        <time>2023-07-02T10:01:33Z</time>
      </trkpt>
      <trkpt lat="49.83885" lon="2.56328">
        <ele>101</ele>
        <time>2023-07-02T10:01:34Z</time>
      </trkpt>
      <trkpt lat="49.83884" lon="2.56328">
        <ele>101</ele>
        <time>2023-07-02T10:01:35Z</time>
      </trkpt>
      <trkpt lat="49.83884" lon="2.56327">
        <ele>101</ele>
        <time>2023-07-02T10:01:36Z</time>
      </trkpt>
      <trkpt lat="49.83882" lon="2.56325">
        <ele>101</ele>
        <time>2023-07-02T10:01:37Z</time>
      </trkpt>
      <trkpt lat="49.83881" lon="2.56324">
        <ele>101.1</ele>
        <time>2023-07-02T10:01:38Z</time>
      </trkpt>
      <trkpt lat="49.8388" lon="2.56324">
        <ele>101.1</ele>
        <time>2023-07-02T10:01:39Z</time>
      </trkpt>
      <trkpt lat="49.83879" lon="2.56322">
        <ele>101.1</ele>
        <time>2023-07-02T10:01:41Z</time>
      </trkpt>
      <trkpt lat="49.83878" lon="2.56321">
        <ele>101.1</ele>
        <time>2023-07-02T10:01:42Z</time>
      </trkpt>
      <trkpt lat="49.83876" lon="2.56319">
        <ele>101.2</ele>
        <time>2023-07-02T10:01:43Z</time>
      </trkpt>
      <trkpt lat="49.83876" lon="2.56318">
        <ele>101.2</ele>
        <time>2023-07-02T10:01:44Z</time>
      </trkpt>
      <trkpt lat="49.83875" lon="2.56318">
        <ele>101.2</ele>
        <time>2023-07-02T10:01:45Z</time>
      </trkpt>
      <trkpt lat="49.83873" lon="2.56315">
        <ele>101.2</ele>
        <time>2023-07-02T10:01:46Z</time>
      </trkpt>
      <trkpt lat="49.83872" lon="2.56314">
        <ele>101.2</ele>
        <time>2023-07-02T10:01:48Z</time>
      </trkpt>
      <trkpt lat="49.83871" lon="2.56313">
        <ele>101.3</ele>
        <time>2023-07-02T10:01:49Z</time>
      </trkpt>
      <trkpt lat="49.8387" lon="2.56312">
        <ele>101.3</ele>
        <time>2023-07-02T10:01:50Z</time>
      </trkpt>
      <trkpt lat="49.83869" lon="2.56311">
        <ele>101.3</ele>
        <time>2023-07-02T10:01:51Z</time>
      </trkpt>
      <trkpt lat="49.83868" lon="2.5631">
        <ele>101.3</ele>
        <time>2023-07-02T10:01:52Z</time>
      </trkpt>
      <trkpt lat="49.83867" lon="2.56308">
        <ele>101.3</ele>
        <time>2023-07-02T10:01:53Z</time>
      </trkpt>
      <trkpt lat="49.83866" lon="2.56307">
        <ele>101.3</ele>
        <time>2023-07-02T10:01:54Z</time>
      </trkpt>
      <trkpt lat="49.83866" lon="2.56306">
        <ele>101.4</ele>
        <time>2023-07-02T10:01:55Z</time>
      </trkpt>
      <trkpt lat="49.83865" lon="2.56305">
        <ele>101.4</ele>
        <time>2023-07-02T10:01:56Z</time>
      </trkpt>
      <trkpt lat="49.83863" lon="2.56303">
        <ele>101.4</ele>
        <time>2023-07-02T10:01:57Z</time>
      </trkpt>
      <trkpt lat="49.83862" lon="2.56303">
        <ele>101.4</ele>
        <time>2023-07-02T10:01:59Z</time>
      </trkpt>
      <trkpt lat="49.83861" lon="2.56302">
        <ele>101.4</ele>
        <time>2023-07-02T10:02:00Z</time>
      </trkpt>
      <trkpt lat="49.8386" lon="2.563">
        <ele>101.5</ele>
        <time>2023-07-02T10:02:01Z</time>
      </trkpt>
      <trkpt lat="49.83859" lon="2.56299">
        <ele>101.5</ele>
        <time>2023-07-02T10:02:02Z</time>
      </trkpt>
      <trkpt lat="49.83858" lon="2.56298">
        <ele>101.5</ele>
        <time>2023-07-02T10:02:03Z</time>
      </trkpt>
      <trkpt lat="49.83858" lon="2.56297">
        <ele>101.5</ele>
        <time>2023-07-02T10:02:04Z</time>
      </trkpt>
      <trkpt lat="49.83857" lon="2.56296">
        <ele>101.5</ele>
        <time>2023-07-02T10:02:06Z</time>
      </trkpt>
      <trkpt lat="49.83856" lon="2.56295">
        <ele>101.5</ele>
        <time>2023-07-02T10:02:07Z</time>
      </trkpt>
      <trkpt lat="49.83854" lon="2.56293">
        <ele>101.5</ele>
        <time>2023-07-02T10:02:08Z</time>
      </trkpt>
      <trkpt lat="49.83853" lon="2.56292">
        <ele>101.5</ele>
        <time>2023-07-02T10:02:09Z</time>
      </trkpt>
      <trkpt lat="49.83852" lon="2.56291">
        <ele>101.6</ele>
        <time>2023-07-02T10:02:10Z</time>
      </trkpt>
      <trkpt lat="49.83851" lon="2.56291">
        <ele>101.6</ele>
        <time>2023-07-02T10:02:11Z</time>
      </trkpt>
      <trkpt lat="49.8385" lon="2.5629">
        <ele>101.6</ele>
        <time>2023-07-02T10:02:12Z</time>
      </trkpt>
      <trkpt lat="49.83848" lon="2.56288">
        <ele>101.6</ele>
        <time>2023-07-02T10:02:13Z</time>
      </trkpt>
      <trkpt lat="49.83847" lon="2.56287">
        <ele>101.6</ele>
        <time>2023-07-02T10:02:15Z</time>
      </trkpt>
      <trkpt lat="49.83846" lon="2.56286">
        <ele>101.6</ele>
        <time>2023-07-02T10:02:16Z</time>
      </trkpt>
      <trkpt lat="49.83845" lon="2.56286">
        <ele>101.6</ele>
        <time>2023-07-02T10:02:17Z</time>
      </trkpt>
      <trkpt lat="49.83844" lon="2.56285">
        <ele>101.6</ele>
        <time>2023-07-02T10:02:18Z</time>
      </trkpt>
      <trkpt lat="49.83843" lon="2.56284">
        <ele>101.7</ele>
        <time>2023-07-02T10:02:19Z</time>
      </trkpt>
      <trkpt lat="49.83841" lon="2.56282">
        <ele>101.7</ele>
        <time>2023-07-02T10:02:20Z</time>
      </trkpt>
      <trkpt lat="49.8384" lon="2.56282">
        <ele>101.7</ele>
        <time>2023-07-02T10:02:21Z</time>
      </trkpt>
      <trkpt lat="49.8384" lon="2.56281">
        <ele>101.7</ele>
        <time>2023-07-02T10:02:22Z</time>
      </trkpt>
      <trkpt lat="49.83838" lon="2.56279">
        <ele>101.7</ele>
        <time>2023-07-02T10:02:24Z</time>
      </trkpt>
      <trkpt lat="49.83837" lon="2.56279">
        <ele>101.7</ele>
        <time>2023-07-02T10:02:25Z</time>
      </trkpt>
      <trkpt lat="49.83836" lon="2.56278">
        <ele>101.7</ele>
        <time>2023-07-02T10:02:26Z</time>
      </trkpt>
      <trkpt lat="49.83834" lon="2.56276">
        <ele>101.7</ele>
        <time>2023-07-02T10:02:27Z</time>
      </trkpt>
      <trkpt lat="49.83834" lon="2.56276">
        <ele>101.7</ele>
        <time>2023-07-02T10:02:28Z</time>
      </trkpt>
      <trkpt lat="49.83833" lon="2.56275">
        <ele>101.7</ele>
        <time>2023-07-02T10:02:29Z</time>
      </trkpt>
      <trkpt lat="49.83832" lon="2.56274">
        <ele>101.7</ele>
        <time>2023-07-02T10:02:30Z</time>
      </trkpt>
      <trkpt lat="49.83831" lon="2.56272">
        <ele>101.8</ele>
        <time>2023-07-02T10:02:31Z</time>
      </trkpt>
      <trkpt lat="49.8383" lon="2.56271">
        <ele>101.8</ele>
        <time>2023-07-02T10:02:32Z</time>
      </trkpt>
      <trkpt lat="49.83829" lon="2.56269">
        <ele>101.8</ele>
        <time>2023-07-02T10:02:33Z</time>
      </trkpt>
      <trkpt lat="49.83828" lon="2.56268">
        <ele>101.8</ele>
        <time>2023-07-02T10:02:35Z</time>
      </trkpt>
      <trkpt lat="49.83827" lon="2.56267">
        <ele>101.8</ele>
        <time>2023-07-02T10:02:36Z</time>
      </trkpt>
      <trkpt lat="49.83825" lon="2.56265">
        <ele>101.8</ele>
        <time>2023-07-02T10:02:37Z</time>
      </trkpt>
      <trkpt lat="49.83824" lon="2.56264">
        <ele>101.8</ele>
        <time>2023-07-02T10:02:38Z</time>
      </trkpt>
      <trkpt lat="49.83824" lon="2.56263">
        <ele>101.8</ele>
        <time>2023-07-02T10:02:39Z</time>
      </trkpt>
      <trkpt lat="49.83823" lon="2.56262">
        <ele>101.8</ele>
        <time>2023-07-02T10:02:40Z</time>
      </trkpt>
      <trkpt lat="49.83822" lon="2.5626">
        <ele>101.8</ele>
        <time>2023-07-02T10:02:42Z</time>
      </trkpt>
      <trkpt lat="49.83821" lon="2.56258">
        <ele>101.8</ele>
        <time>2023-07-02T10:02:43Z</time>
      </trkpt>
      <trkpt lat="49.83819" lon="2.56257">
        <ele>101.8</ele>
        <time>2023-07-02T10:02:44Z</time>
      </trkpt>
      <trkpt lat="49.83818" lon="2.56256">
        <ele>101.8</ele>
        <time>2023-07-02T10:02:45Z</time>
      </trkpt>
      <trkpt lat="49.83817" lon="2.56255">
        <ele>101.8</ele>
        <time>2023-07-02T10:02:46Z</time>
      </trkpt>
      <trkpt lat="49.83817" lon="2.56254">
        <ele>101.8</ele>
        <time>2023-07-02T10:02:47Z</time>
      </trkpt>
      <trkpt lat="49.83815" lon="2.56252">
        <ele>101.8</ele>
        <time>2023-07-02T10:02:48Z</time>
      </trkpt>
      <trkpt lat="49.83814" lon="2.56251">
        <ele>101.8</ele>
        <time>2023-07-02T10:02:50Z</time>
      </trkpt>
      <trkpt lat="49.83813" lon="2.5625">
        <ele>101.8</ele>
        <time>2023-07-02T10:02:51Z</time>
      </trkpt>
      <trkpt lat="49.83812" lon="2.56248">
        <ele>101.8</ele>
        <time>2023-07-02T10:02:52Z</time>
      </trkpt>
      <trkpt lat="49.83811" lon="2.56248">
        <ele>101.8</ele>
        <time>2023-07-02T10:02:53Z</time>
      </trkpt>
      <trkpt lat="49.83811" lon="2.56247">
        <ele>101.8</ele>
        <time>2023-07-02T10:02:54Z</time>
      </trkpt>
      <trkpt lat="49.8381" lon="2.56246">
        <ele>101.8</ele>
        <time>2023-07-02T10:02:55Z</time>
      </trkpt>
      <trkpt lat="49.83809" lon="2.56244">
        <ele>101.8</ele>
        <time>2023-07-02T10:02:56Z</time>
      </trkpt>
      <trkpt lat="49.83808" lon="2.56244">
        <ele>101.8</ele>
        <time>2023-07-02T10:02:57Z</time>
      </trkpt>
      <trkpt lat="49.83807" lon="2.56243">
        <ele>101.8</ele>
        <time>2023-07-02T10:02:58Z</time>
      </trkpt>
      <trkpt lat="49.83806" lon="2.56242">
        <ele>101.8</ele>
        <time>2023-07-02T10:03:00Z</time>
      </trkpt>
      <trkpt lat="49.83805" lon="2.5624">
        <ele>101.8</ele>
        <time>2023-07-02T10:03:01Z</time>
      </trkpt>
      <trkpt lat="49.83804" lon="2.56239">
        <ele>101.7</ele>
        <time>2023-07-02T10:03:02Z</time>
      </trkpt>
      <trkpt lat="49.83803" lon="2.56238">
        <ele>101.7</ele>
        <time>2023-07-02T10:03:03Z</time>
      </trkpt>
      <trkpt lat="49.83802" lon="2.56238">
        <ele>101.7</ele>
        <time>2023-07-02T10:03:04Z</time>
      </trkpt>
      <trkpt lat="49.83801" lon="2.56237">
        <ele>101.7</ele>
        <time>2023-07-02T10:03:05Z</time>
      </trkpt>
      <trkpt lat="49.838" lon="2.56236">
        <ele>101.7</ele>
        <time>2023-07-02T10:03:06Z</time>
      </trkpt>
      <trkpt lat="49.838" lon="2.56236">
        <ele>101.7</ele>
        <time>2023-07-02T10:03:07Z</time>
      </trkpt>
      <trkpt lat="49.83799" lon="2.56235">
        <ele>101.7</ele>
        <time>2023-07-02T10:03:08Z</time>
      </trkpt>
      <trkpt lat="49.83797" lon="2.56235">
        <ele>101.7</ele>
        <time>2023-07-02T10:03:10Z</time>
      </trkpt>
      <trkpt lat="49.83796" lon="2.56234">
        <ele>101.7</ele>
        <time>2023-07-02T10:03:11Z</time>
      </trkpt>
      <trkpt lat="49.83794" lon="2.56233">
        <ele>101.7</ele>
        <time>2023-07-02T10:03:12Z</time>
      </trkpt>
      <trkpt lat="49.83793" lon="2.56232">
        <ele>101.7</ele>
        <time>2023-07-02T10:03:13Z</time>
      </trkpt>
      <trkpt lat="49.83793" lon="2.56232">
        <ele>101.7</ele>
        <time>2023-07-02T10:03:14Z</time>
      </trkpt>
      <trkpt lat="49.83792" lon="2.56231">
        <ele>101.7</ele>
        <time>2023-07-02T10:03:15Z</time>
      </trkpt>
      <trkpt lat="49.83791" lon="2.5623">
        <ele>101.7</ele>
        <time>2023-07-02T10:03:16Z</time>
      </trkpt>
      <trkpt lat="49.8379" lon="2.56229">
        <ele>101.7</ele>
        <time>2023-07-02T10:03:17Z</time>
      </trkpt>
      <trkpt lat="49.83788" lon="2.56227">
        <ele>101.7</ele>
        <time>2023-07-02T10:03:18Z</time>
      </trkpt>
      <trkpt lat="49.83788" lon="2.56226">
        <ele>101.7</ele>
        <time>2023-07-02T10:03:20Z</time>
      </trkpt>
      <trkpt lat="49.83787" lon="2.56225">
        <ele>101.7</ele>
        <time>2023-07-02T10:03:21Z</time>
      </trkpt>
      <trkpt lat="49.83785" lon="2.56223">
        <ele>101.7</ele>
        <time>2023-07-02T10:03:22Z</time>
      </trkpt>
      <trkpt lat="49.83784" lon="2.56223">
        <ele>101.7</ele>
        <time>2023-07-02T10:03:23Z</time>
      </trkpt>
      <trkpt lat="49.83783" lon="2.56222">
        <ele>101.6</ele>
        <time>2023-07-02T10:03:24Z</time>
      </trkpt>
      <trkpt lat="49.83782" lon="2.56221">
        <ele>101.6</ele>
        <time>2023-07-02T10:03:25Z</time>
      </trkpt>
      <trkpt lat="49.83781" lon="2.5622">
        <ele>101.6</ele>
        <time>2023-07-02T10:03:26Z</time>
      </trkpt>
      <trkpt lat="49.8378" lon="2.5622">
        <ele>101.6</ele>
        <time>2023-07-02T10:03:27Z</time>
      </trkpt>
      <trkpt lat="49.83779" lon="2.56219">
        <ele>101.6</ele>
        <time>2023-07-02T10:03:28Z</time>
      </trkpt>
      <trkpt lat="49.83778" lon="2.56219">
        <ele>101.6</ele>
        <time>2023-07-02T10:03:30Z</time>
      </trkpt>
      <trkpt lat="49.83777" lon="2.56218">
        <ele>101.6</ele>
        <time>2023-07-02T10:03:31Z</time>
      </trkpt>
      <trkpt lat="49.83776" lon="2.56217">
        <ele>101.6</ele>
        <time>2023-07-02T10:03:32Z</time>
      </trkpt>
      <trkpt lat="49.83775" lon="2.56216">
        <ele>101.6</ele>
        <time>2023-07-02T10:03:33Z</time>
      </trkpt>
      <trkpt lat="49.83774" lon="2.56215">
        <ele>101.6</ele>
        <time>2023-07-02T10:03:34Z</time>
      </trkpt>
      <trkpt lat="49.83772" lon="2.56213">
        <ele>101.6</ele>
        <time>2023-07-02T10:03:35Z</time>
      </trkpt>
      <trkpt lat="49.83772" lon="2.56213">
        <ele>101.6</ele>
        <time>2023-07-02T10:03:36Z</time>
      </trkpt>
      <trkpt lat="49.83771" lon="2.56212">
        <ele>101.6</ele>
        <time>2023-07-02T10:03:37Z</time>
      </trkpt>
      <trkpt lat="49.83769" lon="2.56211">
        <ele>101.6</ele>
        <time>2023-07-02T10:03:38Z</time>
      </trkpt>
      <trkpt lat="49.83769" lon="2.5621">
        <ele>101.6</ele>
        <time>2023-07-02T10:03:40Z</time>
      </trkpt>
      <trkpt lat="49.83768" lon="2.56209">
        <ele>101.6</ele>
        <time>2023-07-02T10:03:41Z</time>
      </trkpt>
      <trkpt lat="49.83766" lon="2.56207">
        <ele>101.6</ele>
        <time>2023-07-02T10:03:42Z</time>
      </trkpt>
      <trkpt lat="49.83765" lon="2.56207">
        <ele>101.6</ele>
        <time>2023-07-02T10:03:43Z</time>
      </trkpt>
      <trkpt lat="49.83765" lon="2.56206">
        <ele>101.6</ele>
        <time>2023-07-02T10:03:44Z</time>
      </trkpt>
      <trkpt lat="49.83763" lon="2.56205">
        <ele>101.6</ele>
        <time>2023-07-02T10:03:45Z</time>
      </trkpt>
      <trkpt lat="49.83762" lon="2.56205">
        <ele>101.6</ele>
        <time>2023-07-02T10:03:46Z</time>
      </trkpt>
      <trkpt lat="49.83762" lon="2.56204">
        <ele>101.6</ele>
        <time>2023-07-02T10:03:47Z</time>
      </trkpt>
      <trkpt lat="49.8376" lon="2.56202">
        <ele>101.6</ele>
        <time>2023-07-02T10:03:48Z</time>
      </trkpt>
      <trkpt lat="49.83759" lon="2.56202">
        <ele>101.6</ele>
        <time>2023-07-02T10:03:50Z</time>
      </trkpt>
      <trkpt lat="49.83758" lon="2.56201">
        <ele>101.6</ele>
        <time>2023-07-02T10:03:51Z</time>
      </trkpt>
      <trkpt lat="49.83757" lon="2.562">
        <ele>101.6</ele>
        <time>2023-07-02T10:03:52Z</time>
      </trkpt>
      <trkpt lat="49.83756" lon="2.56199">
        <ele>101.6</ele>
        <time>2023-07-02T10:03:53Z</time>
      </trkpt>
      <trkpt lat="49.83754" lon="2.56197">
        <ele>101.6</ele>
        <time>2023-07-02T10:03:54Z</time>
      </trkpt>
      <trkpt lat="49.83753" lon="2.56197">
        <ele>101.6</ele>
        <time>2023-07-02T10:03:55Z</time>
      </trkpt>
      <trkpt lat="49.83753" lon="2.56196">
        <ele>101.6</ele>
        <time>2023-07-02T10:03:56Z</time>
      </trkpt>
      <trkpt lat="49.83752" lon="2.56195">
        <ele>101.6</ele>
        <time>2023-07-02T10:03:57Z</time>
      </trkpt>
      <trkpt lat="49.8375" lon="2.56194">
        <ele>101.6</ele>
        <time>2023-07-02T10:03:59Z</time>
      </trkpt>
      <trkpt lat="49.83749" lon="2.56193">
        <ele>101.6</ele>
        <time>2023-07-02T10:04:00Z</time>
      </trkpt>
      <trkpt lat="49.83748" lon="2.56191">
        <ele>101.6</ele>
        <time>2023-07-02T10:04:01Z</time>
      </trkpt>
      <trkpt lat="49.83747" lon="2.5619">
        <ele>101.6</ele>
        <time>2023-07-02T10:04:02Z</time>
      </trkpt>
      <trkpt lat="49.83746" lon="2.56189">
        <ele>101.6</ele>
        <time>2023-07-02T10:04:03Z</time>
      </trkpt>
      <trkpt lat="49.83745" lon="2.56188">
        <ele>101.6</ele>
        <time>2023-07-02T10:04:04Z</time>
      </trkpt>
      <trkpt lat="49.83744" lon="2.56188">
        <ele>101.6</ele>
        <time>2023-07-02T10:04:05Z</time>
      </trkpt>
      <trkpt lat="49.83743" lon="2.56187">
        <ele>101.6</ele>
        <time>2023-07-02T10:04:06Z</time>
      </trkpt>
      <trkpt lat="49.83741" lon="2.56185">
        <ele>101.6</ele>
        <time>2023-07-02T10:04:08Z</time>
      </trkpt>
      <trkpt lat="49.8374" lon="2.56184">
        <ele>101.6</ele>
        <time>2023-07-02T10:04:09Z</time>
      </trkpt>
      <trkpt lat="49.8374" lon="2.56184">
        <ele>101.6</ele>
        <time>2023-07-02T10:04:10Z</time>
      </trkpt>
      <trkpt lat="49.83738" lon="2.56182">
        <ele>101.6</ele>
        <time>2023-07-02T10:04:11Z</time>
      </trkpt>
      <trkpt lat="49.83737" lon="2.56182">
        <ele>101.6</ele>
        <time>2023-07-02T10:04:12Z</time>
      </trkpt>
      <trkpt lat="49.83736" lon="2.56181">
        <ele>101.6</ele>
        <time>2023-07-02T10:04:13Z</time>
      </trkpt>
      <trkpt lat="49.83735" lon="2.5618">
        <ele>101.6</ele>
        <time>2023-07-02T10:04:14Z</time>
      </trkpt>
      <trkpt lat="49.83734" lon="2.56179">
        <ele>101.6</ele>
        <time>2023-07-02T10:04:16Z</time>
      </trkpt>
      <trkpt lat="49.83733" lon="2.56178">
        <ele>101.6</ele>
        <time>2023-07-02T10:04:17Z</time>
      </trkpt>
      <trkpt lat="49.83732" lon="2.56177">
        <ele>101.6</ele>
        <time>2023-07-02T10:04:18Z</time>
      </trkpt>
      <trkpt lat="49.83731" lon="2.56176">
        <ele>101.6</ele>
        <time>2023-07-02T10:04:19Z</time>
      </trkpt>
      <trkpt lat="49.83729" lon="2.56174">
        <ele>101.6</ele>
        <time>2023-07-02T10:04:21Z</time>
      </trkpt>
      <trkpt lat="49.83728" lon="2.56173">
        <ele>101.6</ele>
        <time>2023-07-02T10:04:22Z</time>
      </trkpt>
      <trkpt lat="49.83727" lon="2.56172">
        <ele>101.6</ele>
        <time>2023-07-02T10:04:23Z</time>
      </trkpt>
      <trkpt lat="49.83726" lon="2.56171">
        <ele>101.6</ele>
        <time>2023-07-02T10:04:24Z</time>
      </trkpt>
      <trkpt lat="49.83725" lon="2.5617">
        <ele>101.6</ele>
        <time>2023-07-02T10:04:26Z</time>
      </trkpt>
      <trkpt lat="49.83724" lon="2.56169">
        <ele>101.6</ele>
        <time>2023-07-02T10:04:27Z</time>
      </trkpt>
      <trkpt lat="49.83722" lon="2.56167">
        <ele>101.5</ele>
        <time>2023-07-02T10:04:28Z</time>
      </trkpt>
      <trkpt lat="49.83721" lon="2.56167">
        <ele>101.5</ele>
        <time>2023-07-02T10:04:29Z</time>
      </trkpt>
      <trkpt lat="49.8372" lon="2.56166">
        <ele>101.5</ele>
        <time>2023-07-02T10:04:30Z</time>
      </trkpt>
      <trkpt lat="49.83719" lon="2.56165">
        <ele>101.5</ele>
        <time>2023-07-02T10:04:31Z</time>
      </trkpt>
      <trkpt lat="49.83718" lon="2.56165">
        <ele>101.5</ele>
        <time>2023-07-02T10:04:32Z</time>
      </trkpt>
      <trkpt lat="49.83717" lon="2.56164">
        <ele>101.5</ele>
        <time>2023-07-02T10:04:33Z</time>
      </trkpt>
      <trkpt lat="49.83715" lon="2.56162">
        <ele>101.5</ele>
        <time>2023-07-02T10:04:34Z</time>
      </trkpt>
      <trkpt lat="49.83714" lon="2.56162">
        <ele>101.5</ele>
        <time>2023-07-02T10:04:36Z</time>
      </trkpt>
      <trkpt lat="49.83714" lon="2.56161">
        <ele>101.5</ele>
        <time>2023-07-02T10:04:37Z</time>
      </trkpt>
      <trkpt lat="49.83712" lon="2.56159">
        <ele>101.5</ele>
        <time>2023-07-02T10:04:38Z</time>
      </trkpt>
      <trkpt lat="49.83711" lon="2.56159">
        <ele>101.4</ele>
        <time>2023-07-02T10:04:39Z</time>
      </trkpt>
      <trkpt lat="49.8371" lon="2.56158">
        <ele>101.4</ele>
        <time>2023-07-02T10:04:40Z</time>
      </trkpt>
      <trkpt lat="49.83709" lon="2.56156">
        <ele>101.4</ele>
        <time>2023-07-02T10:04:41Z</time>
      </trkpt>
      <trkpt lat="49.83708" lon="2.56156">
        <ele>101.4</ele>
        <time>2023-07-02T10:04:42Z</time>
      </trkpt>
      <trkpt lat="49.83707" lon="2.56155">
        <ele>101.4</ele>
        <time>2023-07-02T10:04:43Z</time>
      </trkpt>
      <trkpt lat="49.83705" lon="2.56153">
        <ele>101.4</ele>
        <time>2023-07-02T10:04:45Z</time>
      </trkpt>
      <trkpt lat="49.83705" lon="2.56153">
        <ele>101.4</ele>
        <time>2023-07-02T10:04:46Z</time>
      </trkpt>
      <trkpt lat="49.83704" lon="2.56152">
        <ele>101.4</ele>
        <time>2023-07-02T10:04:47Z</time>
      </trkpt>
      <trkpt lat="49.83703" lon="2.5615">
        <ele>101.3</ele>
        <time>2023-07-02T10:04:48Z</time>
      </trkpt>
      <trkpt lat="49.83702" lon="2.56149">
        <ele>101.3</ele>
        <time>2023-07-02T10:04:49Z</time>
      </trkpt>
      <trkpt lat="49.83701" lon="2.56148">
        <ele>101.3</ele>
        <time>2023-07-02T10:04:50Z</time>
      </trkpt>
      <trkpt lat="49.83699" lon="2.56146">
        <ele>101.3</ele>
        <time>2023-07-02T10:04:52Z</time>
      </trkpt>
      <trkpt lat="49.83699" lon="2.56146">
        <ele>101.3</ele>
        <time>2023-07-02T10:04:53Z</time>
      </trkpt>
      <trkpt lat="49.83698" lon="2.56145">
        <ele>101.3</ele>
        <time>2023-07-02T10:04:54Z</time>
      </trkpt>
      <trkpt lat="49.83697" lon="2.56144">
        <ele>101.3</ele>
        <time>2023-07-02T10:04:55Z</time>
      </trkpt>
      <trkpt lat="49.83696" lon="2.56143">
        <ele>101.2</ele>
        <time>2023-07-02T10:04:56Z</time>
      </trkpt>
      <trkpt lat="49.83695" lon="2.56142">
        <ele>101.2</ele>
        <time>2023-07-02T10:04:57Z</time>
      </trkpt>
      <trkpt lat="49.83694" lon="2.56141">
        <ele>101.2</ele>
        <time>2023-07-02T10:04:58Z</time>
      </trkpt>
      <trkpt lat="49.83693" lon="2.5614">
        <ele>101.2</ele>
        <time>2023-07-02T10:04:59Z</time>
      </trkpt>
      <trkpt lat="49.83692" lon="2.56139">
        <ele>101.2</ele>
        <time>2023-07-02T10:05:00Z</time>
      </trkpt>
      <trkpt lat="49.83691" lon="2.56137">
        <ele>101.2</ele>
        <time>2023-07-02T10:05:02Z</time>
      </trkpt>
      <trkpt lat="49.8369" lon="2.56137">
        <ele>101.2</ele>
        <time>2023-07-02T10:05:03Z</time>
      </trkpt>
      <trkpt lat="49.83689" lon="2.56136">
        <ele>101.1</ele>
        <time>2023-07-02T10:05:04Z</time>
      </trkpt>
      <trkpt lat="49.83688" lon="2.56135">
        <ele>101.1</ele>
        <time>2023-07-02T10:05:05Z</time>
      </trkpt>
      <trkpt lat="49.83687" lon="2.56134">
        <ele>101.1</ele>
        <time>2023-07-02T10:05:06Z</time>
      </trkpt>
      <trkpt lat="49.83686" lon="2.56133">
        <ele>101.1</ele>
        <time>2023-07-02T10:05:07Z</time>
      </trkpt>
      <trkpt lat="49.83684" lon="2.56132">
        <ele>101.1</ele>
        <time>2023-07-02T10:05:08Z</time>
      </trkpt>
      <trkpt lat="49.83683" lon="2.56131">
        <ele>101.1</ele>
        <time>2023-07-02T10:05:09Z</time>
      </trkpt>
      <trkpt lat="49.83682" lon="2.56131">
        <ele>101</ele>
        <time>2023-07-02T10:05:10Z</time>
      </trkpt>
      <trkpt lat="49.8368" lon="2.56129">
        <ele>101</ele>
        <time>2023-07-02T10:05:12Z</time>
      </trkpt>
      <trkpt lat="49.8368" lon="2.56129">
        <ele>101</ele>
        <time>2023-07-02T10:05:13Z</time>
      </trkpt>
      <trkpt lat="49.83679" lon="2.56128">
        <ele>101</ele>
        <time>2023-07-02T10:05:14Z</time>
      </trkpt>
      <trkpt lat="49.83677" lon="2.56127">
        <ele>101</ele>
        <time>2023-07-02T10:05:15Z</time>
      </trkpt>
      <trkpt lat="49.83676" lon="2.56126">
        <ele>101</ele>
        <time>2023-07-02T10:05:16Z</time>
      </trkpt>
      <trkpt lat="49.83676" lon="2.56125">
        <ele>100.9</ele>
        <time>2023-07-02T10:05:17Z</time>
      </trkpt>
      <trkpt lat="49.83674" lon="2.56124">
        <ele>100.9</ele>
        <time>2023-07-02T10:05:18Z</time>
      </trkpt>
      <trkpt lat="49.83673" lon="2.56123">
        <ele>100.9</ele>
        <time>2023-07-02T10:05:19Z</time>
      </trkpt>
      <trkpt lat="49.83671" lon="2.56122">
        <ele>100.9</ele>
        <time>2023-07-02T10:05:20Z</time>
      </trkpt>
      <trkpt lat="49.8367" lon="2.56121">
        <ele>100.9</ele>
        <time>2023-07-02T10:05:22Z</time>
      </trkpt>
      <trkpt lat="49.83669" lon="2.5612">
        <ele>100.8</ele>
        <time>2023-07-02T10:05:23Z</time>
      </trkpt>
      <trkpt lat="49.83668" lon="2.5612">
        <ele>100.8</ele>
        <time>2023-07-02T10:05:24Z</time>
      </trkpt>
      <trkpt lat="49.83667" lon="2.56119">
        <ele>100.8</ele>
        <time>2023-07-02T10:05:25Z</time>
      </trkpt>
      <trkpt lat="49.83666" lon="2.56118">
        <ele>100.8</ele>
        <time>2023-07-02T10:05:26Z</time>
      </trkpt>
      <trkpt lat="49.83665" lon="2.56117">
        <ele>100.8</ele>
        <time>2023-07-02T10:05:27Z</time>
      </trkpt>
      <trkpt lat="49.83663" lon="2.56115">
        <ele>100.7</ele>
        <time>2023-07-02T10:05:28Z</time>
      </trkpt>
      <trkpt lat="49.83663" lon="2.56114">
        <ele>100.7</ele>
        <time>2023-07-02T10:05:29Z</time>
      </trkpt>
      <trkpt lat="49.83662" lon="2.56113">
        <ele>100.7</ele>
        <time>2023-07-02T10:05:30Z</time>
      </trkpt>
      <trkpt lat="49.83661" lon="2.56112">
        <ele>100.7</ele>
        <time>2023-07-02T10:05:32Z</time>
      </trkpt>
      <trkpt lat="49.8366" lon="2.56111">
        <ele>100.7</ele>
        <time>2023-07-02T10:05:33Z</time>
      </trkpt>
      <trkpt lat="49.83659" lon="2.5611">
        <ele>100.7</ele>
        <time>2023-07-02T10:05:34Z</time>
      </trkpt>
      <trkpt lat="49.83658" lon="2.56108">
        <ele>100.7</ele>
        <time>2023-07-02T10:05:35Z</time>
      </trkpt>
      <trkpt lat="49.83658" lon="2.56107">
        <ele>100.7</ele>
        <time>2023-07-02T10:05:36Z</time>
      </trkpt>
      <trkpt lat="49.83657" lon="2.56107">
        <ele>100.6</ele>
        <time>2023-07-02T10:05:37Z</time>
      </trkpt>
      <trkpt lat="49.83656" lon="2.56106">
        <ele>100.6</ele>
        <time>2023-07-02T10:05:38Z</time>
      </trkpt>
      <trkpt lat="49.83654" lon="2.56104">
        <ele>100.6</ele>
        <time>2023-07-02T10:05:40Z</time>
      </trkpt>
      <trkpt lat="49.83653" lon="2.56103">
        <ele>100.6</ele>
        <time>2023-07-02T10:05:42Z</time>
      </trkpt>
      <trkpt lat="49.83652" lon="2.56103">
        <ele>100.6</ele>
        <time>2023-07-02T10:05:43Z</time>
      </trkpt>
      <trkpt lat="49.83651" lon="2.56103">
        <ele>100.6</ele>
        <time>2023-07-02T10:05:44Z</time>
      </trkpt>
      <trkpt lat="49.8365" lon="2.56103">
        <ele>100.6</ele>
        <time>2023-07-02T10:05:45Z</time>
      </trkpt>
      <trkpt lat="49.8365" lon="2.56103">
        <ele>100.5</ele>
        <time>2023-07-02T10:05:46Z</time>
      </trkpt>
      <trkpt lat="49.83651" lon="2.56104">
        <ele>100.5</ele>
        <time>2023-07-02T10:05:48Z</time>
      </trkpt>
      <trkpt lat="49.83651" lon="2.56104">
        <ele>100.5</ele>
        <time>2023-07-02T10:05:49Z</time>
      </trkpt>
      <trkpt lat="49.83651" lon="2.56104">
        <ele>100.5</ele>
        <time>2023-07-02T10:05:50Z</time>
      </trkpt>
      <trkpt lat="49.83651" lon="2.56104">
        <ele>100.5</ele>
        <time>2023-07-02T10:05:52Z</time>
      </trkpt>
      <trkpt lat="49.83652" lon="2.56104">
        <ele>100.5</ele>
        <time>2023-07-02T10:05:53Z</time>
      </trkpt>
      <trkpt lat="49.83652" lon="2.56104">
        <ele>100.5</ele>
        <time>2023-07-02T10:05:55Z</time>
      </trkpt>
      <trkpt lat="49.83651" lon="2.56104">
        <ele>100.5</ele>
        <time>2023-07-02T10:05:56Z</time>
      </trkpt>
      <trkpt lat="49.83651" lon="2.56104">
        <ele>100.5</ele>
        <time>2023-07-02T10:05:57Z</time>
      </trkpt>
      <trkpt lat="49.8365" lon="2.56103">
        <ele>100.5</ele>
        <time>2023-07-02T10:05:59Z</time>
      </trkpt>
      <trkpt lat="49.83649" lon="2.56103">
        <ele>100.5</ele>
        <time>2023-07-02T10:06:00Z</time>
      </trkpt>
      <trkpt lat="49.83647" lon="2.56102">
        <ele>100.5</ele>
        <time>2023-07-02T10:06:01Z</time>
      </trkpt>
      <trkpt lat="49.83646" lon="2.56101">
        <ele>100.5</ele>
        <time>2023-07-02T10:06:03Z</time>
      </trkpt>
      <trkpt lat="49.83645" lon="2.56101">
        <ele>100.5</ele>
        <time>2023-07-02T10:06:04Z</time>
      </trkpt>
      <trkpt lat="49.83644" lon="2.56101">
        <ele>100.5</ele>
        <time>2023-07-02T10:06:05Z</time>
      </trkpt>
      <trkpt lat="49.83642" lon="2.56102">
        <ele>100.4</ele>
        <time>2023-07-02T10:06:06Z</time>
      </trkpt>
      <trkpt lat="49.83641" lon="2.56103">
        <ele>100.4</ele>
        <time>2023-07-02T10:06:08Z</time>
      </trkpt>
      <trkpt lat="49.83641" lon="2.56103">
        <ele>100.4</ele>
        <time>2023-07-02T10:06:09Z</time>
      </trkpt>
      <trkpt lat="49.83639" lon="2.56105">
        <ele>100.4</ele>
        <time>2023-07-02T10:06:10Z</time>
      </trkpt>
      <trkpt lat="49.83638" lon="2.56106">
        <ele>100.4</ele>
        <time>2023-07-02T10:06:11Z</time>
      </trkpt>
      <trkpt lat="49.83637" lon="2.56106">
        <ele>100.4</ele>
        <time>2023-07-02T10:06:12Z</time>
      </trkpt>
      <trkpt lat="49.83637" lon="2.56108">
        <ele>100.4</ele>
        <time>2023-07-02T10:06:13Z</time>
      </trkpt>
      <trkpt lat="49.83637" lon="2.56109">
        <ele>100.4</ele>
        <time>2023-07-02T10:06:14Z</time>
      </trkpt>
      <trkpt lat="49.83637" lon="2.56111">
        <ele>100.4</ele>
        <time>2023-07-02T10:06:15Z</time>
      </trkpt>
      <trkpt lat="49.83638" lon="2.56114">
        <ele>100.4</ele>
        <time>2023-07-02T10:06:17Z</time>
      </trkpt>
      <trkpt lat="49.8364" lon="2.56114">
        <ele>100.4</ele>
        <time>2023-07-02T10:06:18Z</time>
      </trkpt>
      <trkpt lat="49.8364" lon="2.56112">
        <ele>100.4</ele>
        <time>2023-07-02T10:06:19Z</time>
      </trkpt>
      <trkpt lat="49.8364" lon="2.56111">
        <ele>100.4</ele>
        <time>2023-07-02T10:06:21Z</time>
      </trkpt>
      <trkpt lat="49.8364" lon="2.56109">
        <ele>100.4</ele>
        <time>2023-07-02T10:06:22Z</time>
      </trkpt>
      <trkpt lat="49.8364" lon="2.56107">
        <ele>100.3</ele>
        <time>2023-07-02T10:06:23Z</time>
      </trkpt>
      <trkpt lat="49.83639" lon="2.56105">
        <ele>100.3</ele>
        <time>2023-07-02T10:06:24Z</time>
      </trkpt>
      <trkpt lat="49.83639" lon="2.56102">
        <ele>100.3</ele>
        <time>2023-07-02T10:06:26Z</time>
      </trkpt>
      <trkpt lat="49.83638" lon="2.561">
        <ele>100.3</ele>
        <time>2023-07-02T10:06:28Z</time>
      </trkpt>
      <trkpt lat="49.83637" lon="2.56098">
        <ele>100.3</ele>
        <time>2023-07-02T10:06:29Z</time>
      </trkpt>
      <trkpt lat="49.83637" lon="2.56095">
        <ele>100.3</ele>
        <time>2023-07-02T10:06:30Z</time>
      </trkpt>
      <trkpt lat="49.83638" lon="2.56092">
        <ele>100.3</ele>
        <time>2023-07-02T10:06:32Z</time>
      </trkpt>
      <trkpt lat="49.83638" lon="2.5609">
        <ele>100.3</ele>
        <time>2023-07-02T10:06:33Z</time>
      </trkpt>
      <trkpt lat="49.83638" lon="2.56088">
        <ele>100.3</ele>
        <time>2023-07-02T10:06:34Z</time>
      </trkpt>
      <trkpt lat="49.83638" lon="2.56084">
        <ele>100.2</ele>
        <time>2023-07-02T10:06:36Z</time>
      </trkpt>
      <trkpt lat="49.83638" lon="2.56083">
        <ele>100.2</ele>
        <time>2023-07-02T10:06:37Z</time>
      </trkpt>
      <trkpt lat="49.83638" lon="2.56082">
        <ele>100.2</ele>
        <time>2023-07-02T10:06:38Z</time>
      </trkpt>
      <trkpt lat="49.83638" lon="2.5608">
        <ele>100.2</ele>
        <time>2023-07-02T10:06:39Z</time>
      </trkpt>
      <trkpt lat="49.83638" lon="2.56079">
        <ele>100.2</ele>
        <time>2023-07-02T10:06:40Z</time>
      </trkpt>
      <trkpt lat="49.83638" lon="2.56077">
        <ele>100.2</ele>
        <time>2023-07-02T10:06:41Z</time>
      </trkpt>
      <trkpt lat="49.83638" lon="2.56076">
        <ele>100.2</ele>
        <time>2023-07-02T10:06:42Z</time>
      </trkpt>
      <trkpt lat="49.83637" lon="2.56074">
        <ele>100.2</ele>
        <time>2023-07-02T10:06:43Z</time>
      </trkpt>
      <trkpt lat="49.83637" lon="2.56072">
        <ele>100.2</ele>
        <time>2023-07-02T10:06:44Z</time>
      </trkpt>
      <trkpt lat="49.83637" lon="2.56069">
        <ele>100.2</ele>
        <time>2023-07-02T10:06:45Z</time>
      </trkpt>
      <trkpt lat="49.83637" lon="2.56066">
        <ele>100.2</ele>
        <time>2023-07-02T10:06:47Z</time>
      </trkpt>
      <trkpt lat="49.83637" lon="2.56061">
        <ele>100.2</ele>
        <time>2023-07-02T10:06:48Z</time>
      </trkpt>
      <trkpt lat="49.83637" lon="2.5606">
        <ele>100.2</ele>
        <time>2023-07-02T10:06:49Z</time>
      </trkpt>
      <trkpt lat="49.83637" lon="2.56058">
        <ele>100.1</ele>
        <time>2023-07-02T10:06:50Z</time>
      </trkpt>
      <trkpt lat="49.83636" lon="2.56055">
        <ele>100.1</ele>
        <time>2023-07-02T10:06:51Z</time>
      </trkpt>
      <trkpt lat="49.83636" lon="2.56053">
        <ele>100.1</ele>
        <time>2023-07-02T10:06:52Z</time>
      </trkpt>
      <trkpt lat="49.83636" lon="2.56051">
        <ele>100.1</ele>
        <time>2023-07-02T10:06:53Z</time>
      </trkpt>
      <trkpt lat="49.83636" lon="2.56049">
        <ele>100.1</ele>
        <time>2023-07-02T10:06:54Z</time>
      </trkpt>
      <trkpt lat="49.83636" lon="2.56046">
        <ele>100.1</ele>
        <time>2023-07-02T10:06:56Z</time>
      </trkpt>
      <trkpt lat="49.83636" lon="2.56044">
        <ele>100.1</ele>
        <time>2023-07-02T10:06:57Z</time>
      </trkpt>
      <trkpt lat="49.83636" lon="2.56042">
        <ele>100.1</ele>
        <time>2023-07-02T10:06:58Z</time>
      </trkpt>
      <trkpt lat="49.83636" lon="2.56039">
        <ele>100.1</ele>
        <time>2023-07-02T10:06:59Z</time>
      </trkpt>
      <trkpt lat="49.83636" lon="2.56037">
        <ele>100.1</ele>
        <time>2023-07-02T10:07:00Z</time>
      </trkpt>
      <trkpt lat="49.83636" lon="2.56034">
        <ele>100.1</ele>
        <time>2023-07-02T10:07:01Z</time>
      </trkpt>
      <trkpt lat="49.83636" lon="2.56033">
        <ele>100.1</ele>
        <time>2023-07-02T10:07:02Z</time>
      </trkpt>
      <trkpt lat="49.83636" lon="2.5603">
        <ele>100.1</ele>
        <time>2023-07-02T10:07:04Z</time>
      </trkpt>
      <trkpt lat="49.83636" lon="2.56027">
        <ele>100.1</ele>
        <time>2023-07-02T10:07:05Z</time>
      </trkpt>
      <trkpt lat="49.83636" lon="2.56026">
        <ele>100.1</ele>
        <time>2023-07-02T10:07:06Z</time>
      </trkpt>
      <trkpt lat="49.83635" lon="2.56024">
        <ele>100.1</ele>
        <time>2023-07-02T10:07:07Z</time>
      </trkpt>
      <trkpt lat="49.83635" lon="2.56023">
        <ele>100.1</ele>
        <time>2023-07-02T10:07:08Z</time>
      </trkpt>
      <trkpt lat="49.83635" lon="2.56021">
        <ele>100.1</ele>
        <time>2023-07-02T10:07:09Z</time>
      </trkpt>
      <trkpt lat="49.83635" lon="2.56019">
        <ele>100.1</ele>
        <time>2023-07-02T10:07:11Z</time>
      </trkpt>
      <trkpt lat="49.83634" lon="2.56017">
        <ele>100.2</ele>
        <time>2023-07-02T10:07:12Z</time>
      </trkpt>
      <trkpt lat="49.83634" lon="2.56015">
        <ele>100.2</ele>
        <time>2023-07-02T10:07:13Z</time>
      </trkpt>
      <trkpt lat="49.83633" lon="2.56014">
        <ele>100.2</ele>
        <time>2023-07-02T10:07:14Z</time>
      </trkpt>
      <trkpt lat="49.83633" lon="2.56011">
        <ele>100.2</ele>
        <time>2023-07-02T10:07:15Z</time>
      </trkpt>
      <trkpt lat="49.83633" lon="2.56009">
        <ele>100.2</ele>
        <time>2023-07-02T10:07:16Z</time>
      </trkpt>
      <trkpt lat="49.83633" lon="2.56008">
        <ele>100.2</ele>
        <time>2023-07-02T10:07:17Z</time>
      </trkpt>
      <trkpt lat="49.83634" lon="2.56006">
        <ele>100.2</ele>
        <time>2023-07-02T10:07:19Z</time>
      </trkpt>
      <trkpt lat="49.83634" lon="2.56004">
        <ele>100.2</ele>
        <time>2023-07-02T10:07:20Z</time>
      </trkpt>
      <trkpt lat="49.83635" lon="2.56003">
        <ele>100.2</ele>
        <time>2023-07-02T10:07:21Z</time>
      </trkpt>
      <trkpt lat="49.83635" lon="2.56001">
        <ele>100.2</ele>
        <time>2023-07-02T10:07:22Z</time>
      </trkpt>
      <trkpt lat="49.83634" lon="2.55999">
        <ele>100.2</ele>
        <time>2023-07-02T10:07:23Z</time>
      </trkpt>
      <trkpt lat="49.83634" lon="2.55997">
        <ele>100.2</ele>
        <time>2023-07-02T10:07:25Z</time>
      </trkpt>
      <trkpt lat="49.83634" lon="2.55995">
        <ele>100.2</ele>
        <time>2023-07-02T10:07:26Z</time>
      </trkpt>
      <trkpt lat="49.83634" lon="2.55992">
        <ele>100.2</ele>
        <time>2023-07-02T10:07:27Z</time>
      </trkpt>
      <trkpt lat="49.83633" lon="2.55991">
        <ele>100.2</ele>
        <time>2023-07-02T10:07:28Z</time>
      </trkpt>
      <trkpt lat="49.83633" lon="2.55989">
        <ele>100.2</ele>
        <time>2023-07-02T10:07:29Z</time>
      </trkpt>
      <trkpt lat="49.83633" lon="2.55987">
        <ele>100.2</ele>
        <time>2023-07-02T10:07:30Z</time>
      </trkpt>
      <trkpt lat="49.83633" lon="2.55985">
        <ele>100.2</ele>
        <time>2023-07-02T10:07:31Z</time>
      </trkpt>
      <trkpt lat="49.83632" lon="2.55982">
        <ele>100.2</ele>
        <time>2023-07-02T10:07:33Z</time>
      </trkpt>
      <trkpt lat="49.83632" lon="2.55981">
        <ele>100.2</ele>
        <time>2023-07-02T10:07:34Z</time>
      </trkpt>
      <trkpt lat="49.83632" lon="2.5598">
        <ele>100.2</ele>
        <time>2023-07-02T10:07:35Z</time>
      </trkpt>
      <trkpt lat="49.83632" lon="2.55978">
        <ele>100.2</ele>
        <time>2023-07-02T10:07:36Z</time>
      </trkpt>
      <trkpt lat="49.83632" lon="2.55976">
        <ele>100.2</ele>
        <time>2023-07-02T10:07:37Z</time>
      </trkpt>
      <trkpt lat="49.83632" lon="2.55974">
        <ele>100.2</ele>
        <time>2023-07-02T10:07:38Z</time>
      </trkpt>
      <trkpt lat="49.83632" lon="2.55972">
        <ele>100.2</ele>
        <time>2023-07-02T10:07:39Z</time>
      </trkpt>
      <trkpt lat="49.83632" lon="2.55971">
        <ele>100.1</ele>
        <time>2023-07-02T10:07:40Z</time>
      </trkpt>
      <trkpt lat="49.83633" lon="2.55969">
        <ele>100.1</ele>
        <time>2023-07-02T10:07:41Z</time>
      </trkpt>
      <trkpt lat="49.83633" lon="2.55966">
        <ele>100.1</ele>
        <time>2023-07-02T10:07:43Z</time>
      </trkpt>
      <trkpt lat="49.83633" lon="2.55965">
        <ele>100.1</ele>
        <time>2023-07-02T10:07:44Z</time>
      </trkpt>
      <trkpt lat="49.83633" lon="2.55963">
        <ele>100.1</ele>
        <time>2023-07-02T10:07:45Z</time>
      </trkpt>
      <trkpt lat="49.83633" lon="2.5596">
        <ele>100.1</ele>
        <time>2023-07-02T10:07:46Z</time>
      </trkpt>
      <trkpt lat="49.83633" lon="2.55959">
        <ele>100.1</ele>
        <time>2023-07-02T10:07:47Z</time>
      </trkpt>
      <trkpt lat="49.83633" lon="2.55957">
        <ele>100.1</ele>
        <time>2023-07-02T10:07:48Z</time>
      </trkpt>
      <trkpt lat="49.83634" lon="2.55956">
        <ele>100.1</ele>
        <time>2023-07-02T10:07:49Z</time>
      </trkpt>
      <trkpt lat="49.83634" lon="2.55954">
        <ele>100.1</ele>
        <time>2023-07-02T10:07:50Z</time>
      </trkpt>
      <trkpt lat="49.83634" lon="2.55953">
        <ele>100.1</ele>
        <time>2023-07-02T10:07:51Z</time>
      </trkpt>
      <trkpt lat="49.83634" lon="2.55949">
        <ele>100.1</ele>
        <time>2023-07-02T10:07:53Z</time>
      </trkpt>
      <trkpt lat="49.83634" lon="2.55948">
        <ele>100.1</ele>
        <time>2023-07-02T10:07:54Z</time>
      </trkpt>
      <trkpt lat="49.83634" lon="2.55947">
        <ele>100.1</ele>
        <time>2023-07-02T10:07:55Z</time>
      </trkpt>
      <trkpt lat="49.83634" lon="2.55943">
        <ele>100.1</ele>
        <time>2023-07-02T10:07:56Z</time>
      </trkpt>
      <trkpt lat="49.83634" lon="2.55942">
        <ele>100.1</ele>
        <time>2023-07-02T10:07:57Z</time>
      </trkpt>
      <trkpt lat="49.83634" lon="2.5594">
        <ele>100</ele>
        <time>2023-07-02T10:07:58Z</time>
      </trkpt>
      <trkpt lat="49.83634" lon="2.55937">
        <ele>100</ele>
        <time>2023-07-02T10:07:59Z</time>
      </trkpt>
      <trkpt lat="49.83634" lon="2.55936">
        <ele>100</ele>
        <time>2023-07-02T10:08:00Z</time>
      </trkpt>
      <trkpt lat="49.83634" lon="2.55935">
        <ele>100</ele>
        <time>2023-07-02T10:08:01Z</time>
      </trkpt>
      <trkpt lat="49.83634" lon="2.55933">
        <ele>100</ele>
        <time>2023-07-02T10:08:03Z</time>
      </trkpt>
      <trkpt lat="49.83634" lon="2.55931">
        <ele>100</ele>
        <time>2023-07-02T10:08:04Z</time>
      </trkpt>
      <trkpt lat="49.83634" lon="2.55928">
        <ele>100</ele>
        <time>2023-07-02T10:08:05Z</time>
      </trkpt>
      <trkpt lat="49.83634" lon="2.55926">
        <ele>100</ele>
        <time>2023-07-02T10:08:06Z</time>
      </trkpt>
      <trkpt lat="49.83634" lon="2.55924">
        <ele>100</ele>
        <time>2023-07-02T10:08:07Z</time>
      </trkpt>
      <trkpt lat="49.83634" lon="2.55922">
        <ele>100</ele>
        <time>2023-07-02T10:08:08Z</time>
      </trkpt>
      <trkpt lat="49.83634" lon="2.5592">
        <ele>100</ele>
        <time>2023-07-02T10:08:09Z</time>
      </trkpt>
      <trkpt lat="49.83634" lon="2.55918">
        <ele>100</ele>
        <time>2023-07-02T10:08:10Z</time>
      </trkpt>
      <trkpt lat="49.83634" lon="2.55915">
        <ele>100</ele>
        <time>2023-07-02T10:08:12Z</time>
      </trkpt>
      <trkpt lat="49.83634" lon="2.55911">
        <ele>99.9</ele>
        <time>2023-07-02T10:08:14Z</time>
      </trkpt>
      <trkpt lat="49.83634" lon="2.5591">
        <ele>99.9</ele>
        <time>2023-07-02T10:08:15Z</time>
      </trkpt>
      <trkpt lat="49.83634" lon="2.55907">
        <ele>99.9</ele>
        <time>2023-07-02T10:08:16Z</time>
      </trkpt>
      <trkpt lat="49.83634" lon="2.55905">
        <ele>99.9</ele>
        <time>2023-07-02T10:08:17Z</time>
      </trkpt>
      <trkpt lat="49.83634" lon="2.55904">
        <ele>99.9</ele>
        <time>2023-07-02T10:08:18Z</time>
      </trkpt>
      <trkpt lat="49.83634" lon="2.55902">
        <ele>99.9</ele>
        <time>2023-07-02T10:08:20Z</time>
      </trkpt>
      <trkpt lat="49.83634" lon="2.559">
        <ele>99.9</ele>
        <time>2023-07-02T10:08:21Z</time>
      </trkpt>
      <trkpt lat="49.83634" lon="2.55896">
        <ele>99.9</ele>
        <time>2023-07-02T10:08:22Z</time>
      </trkpt>
      <trkpt lat="49.83634" lon="2.55895">
        <ele>99.9</ele>
        <time>2023-07-02T10:08:23Z</time>
      </trkpt>
      <trkpt lat="49.83634" lon="2.55894">
        <ele>99.8</ele>
        <time>2023-07-02T10:08:24Z</time>
      </trkpt>
      <trkpt lat="49.83634" lon="2.5589">
        <ele>99.8</ele>
        <time>2023-07-02T10:08:25Z</time>
      </trkpt>
      <trkpt lat="49.83633" lon="2.55889">
        <ele>99.8</ele>
        <time>2023-07-02T10:08:26Z</time>
      </trkpt>
      <trkpt lat="49.83633" lon="2.55888">
        <ele>99.8</ele>
        <time>2023-07-02T10:08:27Z</time>
      </trkpt>
      <trkpt lat="49.83633" lon="2.55886">
        <ele>99.8</ele>
        <time>2023-07-02T10:08:29Z</time>
      </trkpt>
      <trkpt lat="49.83633" lon="2.55883">
        <ele>99.8</ele>
        <time>2023-07-02T10:08:30Z</time>
      </trkpt>
      <trkpt lat="49.83633" lon="2.55881">
        <ele>99.8</ele>
        <time>2023-07-02T10:08:31Z</time>
      </trkpt>
      <trkpt lat="49.83633" lon="2.5588">
        <ele>99.8</ele>
        <time>2023-07-02T10:08:32Z</time>
      </trkpt>
      <trkpt lat="49.83633" lon="2.55878">
        <ele>99.8</ele>
        <time>2023-07-02T10:08:33Z</time>
      </trkpt>
      <trkpt lat="49.83633" lon="2.55875">
        <ele>99.7</ele>
        <time>2023-07-02T10:08:35Z</time>
      </trkpt>
      <trkpt lat="49.83633" lon="2.55873">
        <ele>99.7</ele>
        <time>2023-07-02T10:08:36Z</time>
      </trkpt>
      <trkpt lat="49.83633" lon="2.55872">
        <ele>99.7</ele>
        <time>2023-07-02T10:08:37Z</time>
      </trkpt>
      <trkpt lat="49.83633" lon="2.5587">
        <ele>99.7</ele>
        <time>2023-07-02T10:08:38Z</time>
      </trkpt>
      <trkpt lat="49.83633" lon="2.55868">
        <ele>99.7</ele>
        <time>2023-07-02T10:08:39Z</time>
      </trkpt>
      <trkpt lat="49.83633" lon="2.55867">
        <ele>99.7</ele>
        <time>2023-07-02T10:08:40Z</time>
      </trkpt>
      <trkpt lat="49.83633" lon="2.55865">
        <ele>99.7</ele>
        <time>2023-07-02T10:08:41Z</time>
      </trkpt>
      <trkpt lat="49.83633" lon="2.55863">
        <ele>99.7</ele>
        <time>2023-07-02T10:08:42Z</time>
      </trkpt>
      <trkpt lat="49.83633" lon="2.55861">
        <ele>99.7</ele>
        <time>2023-07-02T10:08:43Z</time>
      </trkpt>
      <trkpt lat="49.83633" lon="2.55859">
        <ele>99.7</ele>
        <time>2023-07-02T10:08:45Z</time>
      </trkpt>
      <trkpt lat="49.83633" lon="2.55857">
        <ele>99.7</ele>
        <time>2023-07-02T10:08:46Z</time>
      </trkpt>
      <trkpt lat="49.83633" lon="2.55854">
        <ele>99.7</ele>
        <time>2023-07-02T10:08:47Z</time>
      </trkpt>
      <trkpt lat="49.83633" lon="2.55853">
        <ele>99.7</ele>
        <time>2023-07-02T10:08:48Z</time>
      </trkpt>
      <trkpt lat="49.83633" lon="2.55851">
        <ele>99.7</ele>
        <time>2023-07-02T10:08:49Z</time>
      </trkpt>
      <trkpt lat="49.83634" lon="2.55849">
        <ele>99.7</ele>
        <time>2023-07-02T10:08:50Z</time>
      </trkpt>
      <trkpt lat="49.83634" lon="2.55847">
        <ele>99.7</ele>
        <time>2023-07-02T10:08:51Z</time>
      </trkpt>
      <trkpt lat="49.83633" lon="2.55846">
        <ele>99.7</ele>
        <time>2023-07-02T10:08:52Z</time>
      </trkpt>
      <trkpt lat="49.83633" lon="2.55843">
        <ele>99.7</ele>
        <time>2023-07-02T10:08:53Z</time>
      </trkpt>
      <trkpt lat="49.83633" lon="2.55842">
        <ele>99.8</ele>
        <time>2023-07-02T10:08:55Z</time>
      </trkpt>
      <trkpt lat="49.83633" lon="2.5584">
        <ele>99.8</ele>
        <time>2023-07-02T10:08:56Z</time>
      </trkpt>
      <trkpt lat="49.83632" lon="2.55837">
        <ele>99.8</ele>
        <time>2023-07-02T10:08:57Z</time>
      </trkpt>
      <trkpt lat="49.83632" lon="2.55836">
        <ele>99.8</ele>
        <time>2023-07-02T10:08:58Z</time>
      </trkpt>
      <trkpt lat="49.83632" lon="2.55835">
        <ele>99.8</ele>
        <time>2023-07-02T10:08:59Z</time>
      </trkpt>
      <trkpt lat="49.83631" lon="2.55834">
        <ele>99.8</ele>
        <time>2023-07-02T10:09:00Z</time>
      </trkpt>
      <trkpt lat="49.8363" lon="2.55832">
        <ele>99.8</ele>
        <time>2023-07-02T10:09:02Z</time>
      </trkpt>
      <trkpt lat="49.83629" lon="2.55831">
        <ele>99.8</ele>
        <time>2023-07-02T10:09:03Z</time>
      </trkpt>
      <trkpt lat="49.83627" lon="2.55831">
        <ele>99.7</ele>
        <time>2023-07-02T10:09:04Z</time>
      </trkpt>
      <trkpt lat="49.83627" lon="2.55831">
        <ele>99.7</ele>
        <time>2023-07-02T10:09:05Z</time>
      </trkpt>
      <trkpt lat="49.83626" lon="2.55831">
        <ele>99.7</ele>
        <time>2023-07-02T10:09:06Z</time>
      </trkpt>
      <trkpt lat="49.83625" lon="2.55832">
        <ele>99.7</ele>
        <time>2023-07-02T10:09:07Z</time>
      </trkpt>
      <trkpt lat="49.83623" lon="2.55833">
        <ele>99.7</ele>
        <time>2023-07-02T10:09:08Z</time>
      </trkpt>
      <trkpt lat="49.83622" lon="2.55834">
        <ele>99.7</ele>
        <time>2023-07-02T10:09:10Z</time>
      </trkpt>
      <trkpt lat="49.83621" lon="2.55836">
        <ele>99.7</ele>
        <time>2023-07-02T10:09:11Z</time>
      </trkpt>
      <trkpt lat="49.8362" lon="2.55837">
        <ele>99.7</ele>
        <time>2023-07-02T10:09:12Z</time>
      </trkpt>
      <trkpt lat="49.83619" lon="2.55838">
        <ele>99.7</ele>
        <time>2023-07-02T10:09:13Z</time>
      </trkpt>
      <trkpt lat="49.83618" lon="2.55839">
        <ele>99.6</ele>
        <time>2023-07-02T10:09:14Z</time>
      </trkpt>
      <trkpt lat="49.83617" lon="2.55841">
        <ele>99.6</ele>
        <time>2023-07-02T10:09:15Z</time>
      </trkpt>
      <trkpt lat="49.83617" lon="2.55842">
        <ele>99.6</ele>
        <time>2023-07-02T10:09:16Z</time>
      </trkpt>
      <trkpt lat="49.83616" lon="2.55843">
        <ele>99.6</ele>
        <time>2023-07-02T10:09:17Z</time>
      </trkpt>
      <trkpt lat="49.83616" lon="2.55845">
        <ele>99.6</ele>
        <time>2023-07-02T10:09:19Z</time>
      </trkpt>
      <trkpt lat="49.83617" lon="2.55847">
        <ele>99.6</ele>
        <time>2023-07-02T10:09:20Z</time>
      </trkpt>
      <trkpt lat="49.83617" lon="2.55848">
        <ele>99.6</ele>
        <time>2023-07-02T10:09:22Z</time>
      </trkpt>
      <trkpt lat="49.83615" lon="2.55848">
        <ele>99.6</ele>
        <time>2023-07-02T10:09:23Z</time>
      </trkpt>
      <trkpt lat="49.83614" lon="2.55849">
        <ele>99.6</ele>
        <time>2023-07-02T10:09:24Z</time>
      </trkpt>
      <trkpt lat="49.83613" lon="2.55849">
        <ele>99.6</ele>
        <time>2023-07-02T10:09:25Z</time>
      </trkpt>
      <trkpt lat="49.83612" lon="2.55849">
        <ele>99.6</ele>
        <time>2023-07-02T10:09:26Z</time>
      </trkpt>
      <trkpt lat="49.83611" lon="2.5585">
        <ele>99.6</ele>
        <time>2023-07-02T10:09:27Z</time>
      </trkpt>
      <trkpt lat="49.83609" lon="2.55852">
        <ele>99.6</ele>
        <time>2023-07-02T10:09:29Z</time>
      </trkpt>
      <trkpt lat="49.83608" lon="2.55853">
        <ele>99.6</ele>
        <time>2023-07-02T10:09:30Z</time>
      </trkpt>
      <trkpt lat="49.83608" lon="2.55853">
        <ele>99.6</ele>
        <time>2023-07-02T10:09:31Z</time>
      </trkpt>
      <trkpt lat="49.83607" lon="2.55854">
        <ele>99.6</ele>
        <time>2023-07-02T10:09:32Z</time>
      </trkpt>
      <trkpt lat="49.83606" lon="2.55856">
        <ele>99.6</ele>
        <time>2023-07-02T10:09:33Z</time>
      </trkpt>
      <trkpt lat="49.83605" lon="2.55857">
        <ele>99.6</ele>
        <time>2023-07-02T10:09:34Z</time>
      </trkpt>
      <trkpt lat="49.83603" lon="2.55859">
        <ele>99.6</ele>
        <time>2023-07-02T10:09:35Z</time>
      </trkpt>
      <trkpt lat="49.83602" lon="2.55859">
        <ele>99.6</ele>
        <time>2023-07-02T10:09:36Z</time>
      </trkpt>
      <trkpt lat="49.83602" lon="2.5586">
        <ele>99.6</ele>
        <time>2023-07-02T10:09:37Z</time>
      </trkpt>
      <trkpt lat="49.83601" lon="2.55861">
        <ele>99.6</ele>
        <time>2023-07-02T10:09:39Z</time>
      </trkpt>
      <trkpt lat="49.836" lon="2.55862">
        <ele>99.6</ele>
        <time>2023-07-02T10:09:40Z</time>
      </trkpt>
      <trkpt lat="49.83599" lon="2.55863">
        <ele>99.6</ele>
        <time>2023-07-02T10:09:41Z</time>
      </trkpt>
      <trkpt lat="49.83598" lon="2.55864">
        <ele>99.6</ele>
        <time>2023-07-02T10:09:42Z</time>
      </trkpt>
      <trkpt lat="49.83597" lon="2.55865">
        <ele>99.6</ele>
        <time>2023-07-02T10:09:43Z</time>
      </trkpt>
      <trkpt lat="49.83596" lon="2.55866">
        <ele>99.6</ele>
        <time>2023-07-02T10:09:44Z</time>
      </trkpt>
      <trkpt lat="49.83594" lon="2.55866">
        <ele>99.6</ele>
        <time>2023-07-02T10:09:45Z</time>
      </trkpt>
      <trkpt lat="49.83593" lon="2.55866">
        <ele>99.6</ele>
        <time>2023-07-02T10:09:46Z</time>
      </trkpt>
      <trkpt lat="49.83592" lon="2.55866">
        <ele>99.6</ele>
        <time>2023-07-02T10:09:47Z</time>
      </trkpt>
      <trkpt lat="49.8359" lon="2.55866">
        <ele>99.6</ele>
        <time>2023-07-02T10:09:49Z</time>
      </trkpt>
      <trkpt lat="49.83589" lon="2.55866">
        <ele>99.6</ele>
        <time>2023-07-02T10:09:50Z</time>
      </trkpt>
      <trkpt lat="49.83589" lon="2.55867">
        <ele>99.6</ele>
        <time>2023-07-02T10:09:51Z</time>
      </trkpt>
      <trkpt lat="49.83587" lon="2.55868">
        <ele>99.6</ele>
        <time>2023-07-02T10:09:52Z</time>
      </trkpt>
      <trkpt lat="49.83586" lon="2.55869">
        <ele>99.6</ele>
        <time>2023-07-02T10:09:53Z</time>
      </trkpt>
      <trkpt lat="49.83585" lon="2.55869">
        <ele>99.6</ele>
        <time>2023-07-02T10:09:54Z</time>
      </trkpt>
      <trkpt lat="49.83583" lon="2.55871">
        <ele>99.5</ele>
        <time>2023-07-02T10:09:55Z</time>
      </trkpt>
      <trkpt lat="49.83583" lon="2.55872">
        <ele>99.5</ele>
        <time>2023-07-02T10:09:57Z</time>
      </trkpt>
      <trkpt lat="49.83582" lon="2.55872">
        <ele>99.5</ele>
        <time>2023-07-02T10:09:58Z</time>
      </trkpt>
      <trkpt lat="49.83581" lon="2.55873">
        <ele>99.5</ele>
        <time>2023-07-02T10:09:59Z</time>
      </trkpt>
      <trkpt lat="49.8358" lon="2.55874">
        <ele>99.5</ele>
        <time>2023-07-02T10:10:00Z</time>
      </trkpt>
      <trkpt lat="49.83579" lon="2.55874">
        <ele>99.5</ele>
        <time>2023-07-02T10:10:01Z</time>
      </trkpt>
      <trkpt lat="49.83576" lon="2.55875">
        <ele>99.5</ele>
        <time>2023-07-02T10:10:02Z</time>
      </trkpt>
      <trkpt lat="49.83576" lon="2.55876">
        <ele>99.4</ele>
        <time>2023-07-02T10:10:03Z</time>
      </trkpt>
      <trkpt lat="49.83575" lon="2.55876">
        <ele>99.4</ele>
        <time>2023-07-02T10:10:04Z</time>
      </trkpt>
      <trkpt lat="49.83573" lon="2.55878">
        <ele>99.4</ele>
        <time>2023-07-02T10:10:06Z</time>
      </trkpt>
      <trkpt lat="49.83572" lon="2.55879">
        <ele>99.3</ele>
        <time>2023-07-02T10:10:07Z</time>
      </trkpt>
      <trkpt lat="49.83572" lon="2.5588">
        <ele>99.3</ele>
        <time>2023-07-02T10:10:08Z</time>
      </trkpt>
      <trkpt lat="49.83571" lon="2.55881">
        <ele>99.3</ele>
        <time>2023-07-02T10:10:09Z</time>
      </trkpt>
      <trkpt lat="49.8357" lon="2.55883">
        <ele>99.3</ele>
        <time>2023-07-02T10:10:10Z</time>
      </trkpt>
      <trkpt lat="49.83569" lon="2.55884">
        <ele>99.2</ele>
        <time>2023-07-02T10:10:11Z</time>
      </trkpt>
      <trkpt lat="49.83568" lon="2.55884">
        <ele>99.2</ele>
        <time>2023-07-02T10:10:12Z</time>
      </trkpt>
      <trkpt lat="49.83567" lon="2.55886">
        <ele>99.2</ele>
        <time>2023-07-02T10:10:14Z</time>
      </trkpt>
      <trkpt lat="49.83568" lon="2.55889">
        <ele>99.1</ele>
        <time>2023-07-02T10:10:16Z</time>
      </trkpt>
      <trkpt lat="49.83568" lon="2.55889">
        <ele>99.1</ele>
        <time>2023-07-02T10:10:17Z</time>
      </trkpt>
      <trkpt lat="49.83567" lon="2.55889">
        <ele>99.1</ele>
        <time>2023-07-02T10:10:18Z</time>
      </trkpt>
      <trkpt lat="49.83567" lon="2.55889">
        <ele>99.1</ele>
        <time>2023-07-02T10:10:20Z</time>
      </trkpt>
      <trkpt lat="49.83566" lon="2.55889">
        <ele>99.1</ele>
        <time>2023-07-02T10:10:21Z</time>
      </trkpt>
      <trkpt lat="49.83565" lon="2.55889">
        <ele>99</ele>
        <time>2023-07-02T10:10:22Z</time>
      </trkpt>
      <trkpt lat="49.83563" lon="2.55889">
        <ele>98.9</ele>
        <time>2023-07-02T10:10:23Z</time>
      </trkpt>
      <trkpt lat="49.83562" lon="2.5589">
        <ele>98.9</ele>
        <time>2023-07-02T10:10:24Z</time>
      </trkpt>
      <trkpt lat="49.83561" lon="2.5589">
        <ele>98.9</ele>
        <time>2023-07-02T10:10:25Z</time>
      </trkpt>
      <trkpt lat="49.83559" lon="2.55891">
        <ele>98.8</ele>
        <time>2023-07-02T10:10:26Z</time>
      </trkpt>
      <trkpt lat="49.83558" lon="2.55891">
        <ele>98.8</ele>
        <time>2023-07-02T10:10:28Z</time>
      </trkpt>
      <trkpt lat="49.83557" lon="2.55891">
        <ele>98.7</ele>
        <time>2023-07-02T10:10:29Z</time>
      </trkpt>
      <trkpt lat="49.83556" lon="2.55892">
        <ele>98.7</ele>
        <time>2023-07-02T10:10:30Z</time>
      </trkpt>
      <trkpt lat="49.83555" lon="2.55892">
        <ele>98.6</ele>
        <time>2023-07-02T10:10:31Z</time>
      </trkpt>
      <trkpt lat="49.83553" lon="2.55892">
        <ele>98.6</ele>
        <time>2023-07-02T10:10:32Z</time>
      </trkpt>
      <trkpt lat="49.83552" lon="2.55893">
        <ele>98.5</ele>
        <time>2023-07-02T10:10:33Z</time>
      </trkpt>
      <trkpt lat="49.83551" lon="2.55894">
        <ele>98.4</ele>
        <time>2023-07-02T10:10:34Z</time>
      </trkpt>
      <trkpt lat="49.83549" lon="2.55894">
        <ele>98.4</ele>
        <time>2023-07-02T10:10:35Z</time>
      </trkpt>
      <trkpt lat="49.83548" lon="2.55895">
        <ele>98.3</ele>
        <time>2023-07-02T10:10:37Z</time>
      </trkpt>
      <trkpt lat="49.83547" lon="2.55896">
        <ele>98.2</ele>
        <time>2023-07-02T10:10:38Z</time>
      </trkpt>
      <trkpt lat="49.83545" lon="2.55897">
        <ele>98.1</ele>
        <time>2023-07-02T10:10:39Z</time>
      </trkpt>
      <trkpt lat="49.83544" lon="2.55898">
        <ele>98.1</ele>
        <time>2023-07-02T10:10:40Z</time>
      </trkpt>
      <trkpt lat="49.83543" lon="2.55898">
        <ele>98</ele>
        <time>2023-07-02T10:10:41Z</time>
      </trkpt>
      <trkpt lat="49.83541" lon="2.559">
        <ele>97.9</ele>
        <time>2023-07-02T10:10:42Z</time>
      </trkpt>
      <trkpt lat="49.8354" lon="2.559">
        <ele>97.9</ele>
        <time>2023-07-02T10:10:43Z</time>
      </trkpt>
      <trkpt lat="49.83539" lon="2.55901">
        <ele>97.8</ele>
        <time>2023-07-02T10:10:44Z</time>
      </trkpt>
      <trkpt lat="49.83537" lon="2.55902">
        <ele>97.7</ele>
        <time>2023-07-02T10:10:46Z</time>
      </trkpt>
      <trkpt lat="49.83537" lon="2.55903">
        <ele>97.7</ele>
        <time>2023-07-02T10:10:47Z</time>
      </trkpt>
      <trkpt lat="49.83536" lon="2.55903">
        <ele>97.6</ele>
        <time>2023-07-02T10:10:48Z</time>
      </trkpt>
      <trkpt lat="49.83535" lon="2.55904">
        <ele>97.6</ele>
        <time>2023-07-02T10:10:49Z</time>
      </trkpt>
      <trkpt lat="49.83534" lon="2.55905">
        <ele>97.5</ele>
        <time>2023-07-02T10:10:50Z</time>
      </trkpt>
      <trkpt lat="49.83533" lon="2.55906">
        <ele>97.4</ele>
        <time>2023-07-02T10:10:51Z</time>
      </trkpt>
      <trkpt lat="49.83531" lon="2.55907">
        <ele>97.3</ele>
        <time>2023-07-02T10:10:52Z</time>
      </trkpt>
      <trkpt lat="49.8353" lon="2.55908">
        <ele>97.3</ele>
        <time>2023-07-02T10:10:53Z</time>
      </trkpt>
      <trkpt lat="49.83529" lon="2.55908">
        <ele>97.2</ele>
        <time>2023-07-02T10:10:54Z</time>
      </trkpt>
      <trkpt lat="49.83527" lon="2.5591">
        <ele>97.1</ele>
        <time>2023-07-02T10:10:56Z</time>
      </trkpt>
      <trkpt lat="49.83526" lon="2.5591">
        <ele>97</ele>
        <time>2023-07-02T10:10:57Z</time>
      </trkpt>
      <trkpt lat="49.83526" lon="2.55911">
        <ele>97</ele>
        <time>2023-07-02T10:10:58Z</time>
      </trkpt>
      <trkpt lat="49.83525" lon="2.55912">
        <ele>96.9</ele>
        <time>2023-07-02T10:10:59Z</time>
      </trkpt>
      <trkpt lat="49.83524" lon="2.55913">
        <ele>96.9</ele>
        <time>2023-07-02T10:11:00Z</time>
      </trkpt>
      <trkpt lat="49.83523" lon="2.55913">
        <ele>96.8</ele>
        <time>2023-07-02T10:11:01Z</time>
      </trkpt>
      <trkpt lat="49.83522" lon="2.55914">
        <ele>96.7</ele>
        <time>2023-07-02T10:11:02Z</time>
      </trkpt>
      <trkpt lat="49.8352" lon="2.55915">
        <ele>96.7</ele>
        <time>2023-07-02T10:11:03Z</time>
      </trkpt>
      <trkpt lat="49.83519" lon="2.55916">
        <ele>96.6</ele>
        <time>2023-07-02T10:11:05Z</time>
      </trkpt>
      <trkpt lat="49.83517" lon="2.55918">
        <ele>96.5</ele>
        <time>2023-07-02T10:11:06Z</time>
      </trkpt>
      <trkpt lat="49.83517" lon="2.55919">
        <ele>96.4</ele>
        <time>2023-07-02T10:11:07Z</time>
      </trkpt>
      <trkpt lat="49.83516" lon="2.55919">
        <ele>96.4</ele>
        <time>2023-07-02T10:11:08Z</time>
      </trkpt>
      <trkpt lat="49.83514" lon="2.55921">
        <ele>96.3</ele>
        <time>2023-07-02T10:11:09Z</time>
      </trkpt>
      <trkpt lat="49.83513" lon="2.55922">
        <ele>96.3</ele>
        <time>2023-07-02T10:11:10Z</time>
      </trkpt>
      <trkpt lat="49.83513" lon="2.55922">
        <ele>96.2</ele>
        <time>2023-07-02T10:11:11Z</time>
      </trkpt>
      <trkpt lat="49.83511" lon="2.55924">
        <ele>96.1</ele>
        <time>2023-07-02T10:11:12Z</time>
      </trkpt>
      <trkpt lat="49.8351" lon="2.55925">
        <ele>96.1</ele>
        <time>2023-07-02T10:11:13Z</time>
      </trkpt>
      <trkpt lat="49.83509" lon="2.55926">
        <ele>96</ele>
        <time>2023-07-02T10:11:15Z</time>
      </trkpt>
      <trkpt lat="49.83508" lon="2.55927">
        <ele>96</ele>
        <time>2023-07-02T10:11:16Z</time>
      </trkpt>
      <trkpt lat="49.83507" lon="2.55927">
        <ele>95.9</ele>
        <time>2023-07-02T10:11:17Z</time>
      </trkpt>
      <trkpt lat="49.83506" lon="2.55928">
        <ele>95.9</ele>
        <time>2023-07-02T10:11:18Z</time>
      </trkpt>
      <trkpt lat="49.83504" lon="2.55929">
        <ele>95.7</ele>
        <time>2023-07-02T10:11:19Z</time>
      </trkpt>
      <trkpt lat="49.83503" lon="2.5593">
        <ele>95.7</ele>
        <time>2023-07-02T10:11:20Z</time>
      </trkpt>
      <trkpt lat="49.83503" lon="2.5593">
        <ele>95.7</ele>
        <time>2023-07-02T10:11:21Z</time>
      </trkpt>
      <trkpt lat="49.83501" lon="2.5593">
        <ele>95.6</ele>
        <time>2023-07-02T10:11:23Z</time>
      </trkpt>
      <trkpt lat="49.835" lon="2.55929">
        <ele>95.5</ele>
        <time>2023-07-02T10:11:24Z</time>
      </trkpt>
      <trkpt lat="49.835" lon="2.55929">
        <ele>95.5</ele>
        <time>2023-07-02T10:11:25Z</time>
      </trkpt>
      <trkpt lat="49.83499" lon="2.55929">
        <ele>95.5</ele>
        <time>2023-07-02T10:11:26Z</time>
      </trkpt>
      <trkpt lat="49.83498" lon="2.55931">
        <ele>95.4</ele>
        <time>2023-07-02T10:11:28Z</time>
      </trkpt>
      <trkpt lat="49.83497" lon="2.55932">
        <ele>95.4</ele>
        <time>2023-07-02T10:11:29Z</time>
      </trkpt>
      <trkpt lat="49.83496" lon="2.55933">
        <ele>95.3</ele>
        <time>2023-07-02T10:11:30Z</time>
      </trkpt>
      <trkpt lat="49.83496" lon="2.55934">
        <ele>95.3</ele>
        <time>2023-07-02T10:11:31Z</time>
      </trkpt>
      <trkpt lat="49.83495" lon="2.55935">
        <ele>95.2</ele>
        <time>2023-07-02T10:11:32Z</time>
      </trkpt>
      <trkpt lat="49.83494" lon="2.55936">
        <ele>95.2</ele>
        <time>2023-07-02T10:11:33Z</time>
      </trkpt>
      <trkpt lat="49.83493" lon="2.55937">
        <ele>95.1</ele>
        <time>2023-07-02T10:11:34Z</time>
      </trkpt>
      <trkpt lat="49.83492" lon="2.55938">
        <ele>95.1</ele>
        <time>2023-07-02T10:11:36Z</time>
      </trkpt>
      <trkpt lat="49.83491" lon="2.55939">
        <ele>95</ele>
        <time>2023-07-02T10:11:37Z</time>
      </trkpt>
      <trkpt lat="49.8349" lon="2.55941">
        <ele>95</ele>
        <time>2023-07-02T10:11:38Z</time>
      </trkpt>
      <trkpt lat="49.83489" lon="2.55941">
        <ele>94.9</ele>
        <time>2023-07-02T10:11:39Z</time>
      </trkpt>
      <trkpt lat="49.83488" lon="2.55942">
        <ele>94.9</ele>
        <time>2023-07-02T10:11:40Z</time>
      </trkpt>
      <trkpt lat="49.83487" lon="2.55943">
        <ele>94.8</ele>
        <time>2023-07-02T10:11:41Z</time>
      </trkpt>
      <trkpt lat="49.83486" lon="2.55944">
        <ele>94.8</ele>
        <time>2023-07-02T10:11:42Z</time>
      </trkpt>
      <trkpt lat="49.83485" lon="2.55946">
        <ele>94.7</ele>
        <time>2023-07-02T10:11:44Z</time>
      </trkpt>
      <trkpt lat="49.83484" lon="2.55947">
        <ele>94.6</ele>
        <time>2023-07-02T10:11:45Z</time>
      </trkpt>
      <trkpt lat="49.83483" lon="2.55948">
        <ele>94.6</ele>
        <time>2023-07-02T10:11:46Z</time>
      </trkpt>
      <trkpt lat="49.83481" lon="2.55949">
        <ele>94.5</ele>
        <time>2023-07-02T10:11:47Z</time>
      </trkpt>
      <trkpt lat="49.8348" lon="2.5595">
        <ele>94.5</ele>
        <time>2023-07-02T10:11:48Z</time>
      </trkpt>
      <trkpt lat="49.83479" lon="2.5595">
        <ele>94.4</ele>
        <time>2023-07-02T10:11:49Z</time>
      </trkpt>
      <trkpt lat="49.83478" lon="2.5595">
        <ele>94.4</ele>
        <time>2023-07-02T10:11:50Z</time>
      </trkpt>
      <trkpt lat="49.83477" lon="2.55949">
        <ele>94.3</ele>
        <time>2023-07-02T10:11:52Z</time>
      </trkpt>
      <trkpt lat="49.83476" lon="2.55949">
        <ele>94.3</ele>
        <time>2023-07-02T10:11:53Z</time>
      </trkpt>
      <trkpt lat="49.83475" lon="2.55949">
        <ele>94.3</ele>
        <time>2023-07-02T10:11:54Z</time>
      </trkpt>
      <trkpt lat="49.83473" lon="2.55951">
        <ele>94.2</ele>
        <time>2023-07-02T10:11:55Z</time>
      </trkpt>
      <trkpt lat="49.83472" lon="2.55952">
        <ele>94.1</ele>
        <time>2023-07-02T10:11:56Z</time>
      </trkpt>
      <trkpt lat="49.83471" lon="2.55952">
        <ele>94.1</ele>
        <time>2023-07-02T10:11:57Z</time>
      </trkpt>
      <trkpt lat="49.8347" lon="2.55954">
        <ele>94</ele>
        <time>2023-07-02T10:11:58Z</time>
      </trkpt>
      <trkpt lat="49.83469" lon="2.55955">
        <ele>94</ele>
        <time>2023-07-02T10:11:59Z</time>
      </trkpt>
      <trkpt lat="49.83468" lon="2.55956">
        <ele>94</ele>
        <time>2023-07-02T10:12:00Z</time>
      </trkpt>
      <trkpt lat="49.83467" lon="2.55957">
        <ele>93.9</ele>
        <time>2023-07-02T10:12:02Z</time>
      </trkpt>
      <trkpt lat="49.83466" lon="2.55958">
        <ele>93.9</ele>
        <time>2023-07-02T10:12:03Z</time>
      </trkpt>
      <trkpt lat="49.83465" lon="2.55958">
        <ele>93.8</ele>
        <time>2023-07-02T10:12:04Z</time>
      </trkpt>
      <trkpt lat="49.83464" lon="2.55959">
        <ele>93.8</ele>
        <time>2023-07-02T10:12:05Z</time>
      </trkpt>
      <trkpt lat="49.83463" lon="2.5596">
        <ele>93.8</ele>
        <time>2023-07-02T10:12:06Z</time>
      </trkpt>
      <trkpt lat="49.83462" lon="2.5596">
        <ele>93.7</ele>
        <time>2023-07-02T10:12:08Z</time>
      </trkpt>
      <trkpt lat="49.8346" lon="2.55961">
        <ele>93.6</ele>
        <time>2023-07-02T10:12:09Z</time>
      </trkpt>
      <trkpt lat="49.83458" lon="2.55962">
        <ele>93.5</ele>
        <time>2023-07-02T10:12:10Z</time>
      </trkpt>
      <trkpt lat="49.83457" lon="2.55962">
        <ele>93.5</ele>
        <time>2023-07-02T10:12:11Z</time>
      </trkpt>
      <trkpt lat="49.83457" lon="2.55963">
        <ele>93.5</ele>
        <time>2023-07-02T10:12:12Z</time>
      </trkpt>
      <trkpt lat="49.83454" lon="2.55964">
        <ele>93.4</ele>
        <time>2023-07-02T10:12:13Z</time>
      </trkpt>
      <trkpt lat="49.83454" lon="2.55964">
        <ele>93.3</ele>
        <time>2023-07-02T10:12:15Z</time>
      </trkpt>
      <trkpt lat="49.83453" lon="2.55964">
        <ele>93.3</ele>
        <time>2023-07-02T10:12:16Z</time>
      </trkpt>
      <trkpt lat="49.83452" lon="2.55965">
        <ele>93.3</ele>
        <time>2023-07-02T10:12:17Z</time>
      </trkpt>
      <trkpt lat="49.83451" lon="2.55965">
        <ele>93.2</ele>
        <time>2023-07-02T10:12:18Z</time>
      </trkpt>
      <trkpt lat="49.8345" lon="2.55966">
        <ele>93.2</ele>
        <time>2023-07-02T10:12:19Z</time>
      </trkpt>
      <trkpt lat="49.83449" lon="2.55967">
        <ele>93.1</ele>
        <time>2023-07-02T10:12:20Z</time>
      </trkpt>
      <trkpt lat="49.83448" lon="2.55968">
        <ele>93.1</ele>
        <time>2023-07-02T10:12:21Z</time>
      </trkpt>
      <trkpt lat="49.83447" lon="2.55969">
        <ele>93</ele>
        <time>2023-07-02T10:12:23Z</time>
      </trkpt>
      <trkpt lat="49.83446" lon="2.5597">
        <ele>93</ele>
        <time>2023-07-02T10:12:24Z</time>
      </trkpt>
      <trkpt lat="49.83445" lon="2.55971">
        <ele>92.9</ele>
        <time>2023-07-02T10:12:25Z</time>
      </trkpt>
      <trkpt lat="49.83444" lon="2.55972">
        <ele>92.9</ele>
        <time>2023-07-02T10:12:26Z</time>
      </trkpt>
      <trkpt lat="49.83443" lon="2.55973">
        <ele>92.8</ele>
        <time>2023-07-02T10:12:27Z</time>
      </trkpt>
      <trkpt lat="49.83442" lon="2.55974">
        <ele>92.8</ele>
        <time>2023-07-02T10:12:28Z</time>
      </trkpt>
      <trkpt lat="49.83441" lon="2.55975">
        <ele>92.7</ele>
        <time>2023-07-02T10:12:29Z</time>
      </trkpt>
      <trkpt lat="49.8344" lon="2.55975">
        <ele>92.7</ele>
        <time>2023-07-02T10:12:30Z</time>
      </trkpt>
      <trkpt lat="49.83439" lon="2.55976">
        <ele>92.6</ele>
        <time>2023-07-02T10:12:31Z</time>
      </trkpt>
      <trkpt lat="49.83438" lon="2.55977">
        <ele>92.6</ele>
        <time>2023-07-02T10:12:33Z</time>
      </trkpt>
      <trkpt lat="49.83436" lon="2.55978">
        <ele>92.5</ele>
        <time>2023-07-02T10:12:34Z</time>
      </trkpt>
      <trkpt lat="49.83435" lon="2.55978">
        <ele>92.5</ele>
        <time>2023-07-02T10:12:35Z</time>
      </trkpt>
      <trkpt lat="49.83434" lon="2.55978">
        <ele>92.4</ele>
        <time>2023-07-02T10:12:36Z</time>
      </trkpt>
      <trkpt lat="49.83432" lon="2.55979">
        <ele>92.3</ele>
        <time>2023-07-02T10:12:37Z</time>
      </trkpt>
      <trkpt lat="49.83431" lon="2.55979">
        <ele>92.3</ele>
        <time>2023-07-02T10:12:38Z</time>
      </trkpt>
      <trkpt lat="49.8343" lon="2.55979">
        <ele>92.3</ele>
        <time>2023-07-02T10:12:39Z</time>
      </trkpt>
      <trkpt lat="49.83429" lon="2.5598">
        <ele>92.2</ele>
        <time>2023-07-02T10:12:40Z</time>
      </trkpt>
      <trkpt lat="49.83428" lon="2.55981">
        <ele>92.2</ele>
        <time>2023-07-02T10:12:42Z</time>
      </trkpt>
      <trkpt lat="49.83427" lon="2.55981">
        <ele>92.1</ele>
        <time>2023-07-02T10:12:43Z</time>
      </trkpt>
      <trkpt lat="49.83425" lon="2.55982">
        <ele>92.1</ele>
        <time>2023-07-02T10:12:44Z</time>
      </trkpt>
      <trkpt lat="49.83424" lon="2.55982">
        <ele>92</ele>
        <time>2023-07-02T10:12:45Z</time>
      </trkpt>
      <trkpt lat="49.83424" lon="2.55983">
        <ele>92</ele>
        <time>2023-07-02T10:12:46Z</time>
      </trkpt>
      <trkpt lat="49.83422" lon="2.55984">
        <ele>91.9</ele>
        <time>2023-07-02T10:12:47Z</time>
      </trkpt>
      <trkpt lat="49.83421" lon="2.55984">
        <ele>91.9</ele>
        <time>2023-07-02T10:12:48Z</time>
      </trkpt>
      <trkpt lat="49.83419" lon="2.55985">
        <ele>91.8</ele>
        <time>2023-07-02T10:12:49Z</time>
      </trkpt>
      <trkpt lat="49.83418" lon="2.55986">
        <ele>91.8</ele>
        <time>2023-07-02T10:12:50Z</time>
      </trkpt>
      <trkpt lat="49.83417" lon="2.55986">
        <ele>91.8</ele>
        <time>2023-07-02T10:12:51Z</time>
      </trkpt>
      <trkpt lat="49.83416" lon="2.55987">
        <ele>91.7</ele>
        <time>2023-07-02T10:12:53Z</time>
      </trkpt>
      <trkpt lat="49.83415" lon="2.55988">
        <ele>91.7</ele>
        <time>2023-07-02T10:12:54Z</time>
      </trkpt>
      <trkpt lat="49.83414" lon="2.55989">
        <ele>91.6</ele>
        <time>2023-07-02T10:12:55Z</time>
      </trkpt>
      <trkpt lat="49.83412" lon="2.5599">
        <ele>91.6</ele>
        <time>2023-07-02T10:12:56Z</time>
      </trkpt>
      <trkpt lat="49.83411" lon="2.5599">
        <ele>91.5</ele>
        <time>2023-07-02T10:12:57Z</time>
      </trkpt>
      <trkpt lat="49.83411" lon="2.5599">
        <ele>91.5</ele>
        <time>2023-07-02T10:12:58Z</time>
      </trkpt>
      <trkpt lat="49.83409" lon="2.55991">
        <ele>91.5</ele>
        <time>2023-07-02T10:13:00Z</time>
      </trkpt>
      <trkpt lat="49.83408" lon="2.55991">
        <ele>91.4</ele>
        <time>2023-07-02T10:13:01Z</time>
      </trkpt>
      <trkpt lat="49.83407" lon="2.55991">
        <ele>91.4</ele>
        <time>2023-07-02T10:13:02Z</time>
      </trkpt>
      <trkpt lat="49.83406" lon="2.55991">
        <ele>91.4</ele>
        <time>2023-07-02T10:13:03Z</time>
      </trkpt>
      <trkpt lat="49.83405" lon="2.55991">
        <ele>91.3</ele>
        <time>2023-07-02T10:13:04Z</time>
      </trkpt>
      <trkpt lat="49.83404" lon="2.55991">
        <ele>91.3</ele>
        <time>2023-07-02T10:13:06Z</time>
      </trkpt>
      <trkpt lat="49.83403" lon="2.55992">
        <ele>91.2</ele>
        <time>2023-07-02T10:13:07Z</time>
      </trkpt>
      <trkpt lat="49.83402" lon="2.55993">
        <ele>91.2</ele>
        <time>2023-07-02T10:13:08Z</time>
      </trkpt>
      <trkpt lat="49.83403" lon="2.55995">
        <ele>91.2</ele>
        <time>2023-07-02T10:13:09Z</time>
      </trkpt>
      <trkpt lat="49.83404" lon="2.55997">
        <ele>91.1</ele>
        <time>2023-07-02T10:13:10Z</time>
      </trkpt>
      <trkpt lat="49.83405" lon="2.55999">
        <ele>91.1</ele>
        <time>2023-07-02T10:13:12Z</time>
      </trkpt>
      <trkpt lat="49.83406" lon="2.56">
        <ele>91</ele>
        <time>2023-07-02T10:13:13Z</time>
      </trkpt>
      <trkpt lat="49.83407" lon="2.55999">
        <ele>91</ele>
        <time>2023-07-02T10:13:15Z</time>
      </trkpt>
      <trkpt lat="49.83408" lon="2.55999">
        <ele>91</ele>
        <time>2023-07-02T10:13:16Z</time>
      </trkpt>
      <trkpt lat="49.83408" lon="2.55998">
        <ele>91</ele>
        <time>2023-07-02T10:13:17Z</time>
      </trkpt>
      <trkpt lat="49.83408" lon="2.55997">
        <ele>90.9</ele>
        <time>2023-07-02T10:13:19Z</time>
      </trkpt>
      <trkpt lat="49.83408" lon="2.55997">
        <ele>90.9</ele>
        <time>2023-07-02T10:13:20Z</time>
      </trkpt>
      <trkpt lat="49.83408" lon="2.55996">
        <ele>90.9</ele>
        <time>2023-07-02T10:13:22Z</time>
      </trkpt>
      <trkpt lat="49.83408" lon="2.55996">
        <ele>90.9</ele>
        <time>2023-07-02T10:13:23Z</time>
      </trkpt>
      <trkpt lat="49.83408" lon="2.55995">
        <ele>90.9</ele>
        <time>2023-07-02T10:13:25Z</time>
      </trkpt>
      <trkpt lat="49.83408" lon="2.55995">
        <ele>90.9</ele>
        <time>2023-07-02T10:13:26Z</time>
      </trkpt>
      <trkpt lat="49.83408" lon="2.55995">
        <ele>90.9</ele>
        <time>2023-07-02T10:13:27Z</time>
      </trkpt>
      <trkpt lat="49.83408" lon="2.55995">
        <ele>90.9</ele>
        <time>2023-07-02T10:13:29Z</time>
      </trkpt>
      <trkpt lat="49.83408" lon="2.55994">
        <ele>90.9</ele>
        <time>2023-07-02T10:13:30Z</time>
      </trkpt>
      <trkpt lat="49.83408" lon="2.55994">
        <ele>90.9</ele>
        <time>2023-07-02T10:13:31Z</time>
      </trkpt>
      <trkpt lat="49.83408" lon="2.55994">
        <ele>90.9</ele>
        <time>2023-07-02T10:13:32Z</time>
      </trkpt>
      <trkpt lat="49.83408" lon="2.55994">
        <ele>90.9</ele>
        <time>2023-07-02T10:13:33Z</time>
      </trkpt>
      <trkpt lat="49.83408" lon="2.55994">
        <ele>90.9</ele>
        <time>2023-07-02T10:13:34Z</time>
      </trkpt>
      <trkpt lat="49.83408" lon="2.55994">
        <ele>90.9</ele>
        <time>2023-07-02T10:13:35Z</time>
      </trkpt>
      <trkpt lat="49.83408" lon="2.55994">
        <ele>90.9</ele>
        <time>2023-07-02T10:13:36Z</time>
      </trkpt>
      <trkpt lat="49.83408" lon="2.55994">
        <ele>90.9</ele>
        <time>2023-07-02T10:13:37Z</time>
      </trkpt>
      <trkpt lat="49.83408" lon="2.55994">
        <ele>90.9</ele>
        <time>2023-07-02T10:13:38Z</time>
      </trkpt>
      <trkpt lat="49.83408" lon="2.55994">
        <ele>90.9</ele>
        <time>2023-07-02T10:13:39Z</time>
      </trkpt>
      <trkpt lat="49.83408" lon="2.55994">
        <ele>90.9</ele>
        <time>2023-07-02T10:13:40Z</time>
      </trkpt>
      <trkpt lat="49.83408" lon="2.55994">
        <ele>90.9</ele>
        <time>2023-07-02T10:13:41Z</time>
      </trkpt>
      <trkpt lat="49.83408" lon="2.55994">
        <ele>90.9</ele>
        <time>2023-07-02T10:13:42Z</time>
      </trkpt>
      <trkpt lat="49.83408" lon="2.55994">
        <ele>90.9</ele>
        <time>2023-07-02T10:13:43Z</time>
      </trkpt>
      <trkpt lat="49.83408" lon="2.55994">
        <ele>90.9</ele>
        <time>2023-07-02T10:13:44Z</time>
      </trkpt>
      <trkpt lat="49.83408" lon="2.55994">
        <ele>90.9</ele>
        <time>2023-07-02T10:13:45Z</time>
      </trkpt>
      <trkpt lat="49.83408" lon="2.55994">
        <ele>90.9</ele>
        <time>2023-07-02T10:13:46Z</time>
      </trkpt>
      <trkpt lat="49.83408" lon="2.55994">
        <ele>90.9</ele>
        <time>2023-07-02T10:13:47Z</time>
      </trkpt>
      <trkpt lat="49.83408" lon="2.55994">
        <ele>90.9</ele>
        <time>2023-07-02T10:13:48Z</time>
      </trkpt>
      <trkpt lat="49.83408" lon="2.55994">
        <ele>90.9</ele>
        <time>2023-07-02T10:13:49Z</time>
      </trkpt>
      <trkpt lat="49.83408" lon="2.55994">
        <ele>90.9</ele>
        <time>2023-07-02T10:13:50Z</time>
      </trkpt>
      <trkpt lat="49.83408" lon="2.55994">
        <ele>90.9</ele>
        <time>2023-07-02T10:13:51Z</time>
      </trkpt>
      <trkpt lat="49.83408" lon="2.55994">
        <ele>90.9</ele>
        <time>2023-07-02T10:13:52Z</time>
      </trkpt>
      <trkpt lat="49.83408" lon="2.55994">
        <ele>90.9</ele>
        <time>2023-07-02T10:13:53Z</time>
      </trkpt>
      <trkpt lat="49.83408" lon="2.55994">
        <ele>90.9</ele>
        <time>2023-07-02T10:13:54Z</time>
      </trkpt>
      <trkpt lat="49.83408" lon="2.55993">
        <ele>90.8</ele>
        <time>2023-07-02T10:13:55Z</time>
      </trkpt>
      <trkpt lat="49.83408" lon="2.55993">
        <ele>90.8</ele>
        <time>2023-07-02T10:13:56Z</time>
      </trkpt>
      <trkpt lat="49.83408" lon="2.55992">
        <ele>90.8</ele>
        <time>2023-07-02T10:13:57Z</time>
      </trkpt>
      <trkpt lat="49.83407" lon="2.55992">
        <ele>90.8</ele>
        <time>2023-07-02T10:13:58Z</time>
      </trkpt>
      <trkpt lat="49.83407" lon="2.55992">
        <ele>90.8</ele>
        <time>2023-07-02T10:13:59Z</time>
      </trkpt>
      <trkpt lat="49.83407" lon="2.55992">
        <ele>90.8</ele>
        <time>2023-07-02T10:14:00Z</time>
      </trkpt>
      <trkpt lat="49.83407" lon="2.55992">
        <ele>90.8</ele>
        <time>2023-07-02T10:14:01Z</time>
      </trkpt>
      <trkpt lat="49.83407" lon="2.55992">
        <ele>90.8</ele>
        <time>2023-07-02T10:14:02Z</time>
      </trkpt>
      <trkpt lat="49.83407" lon="2.55992">
        <ele>90.8</ele>
        <time>2023-07-02T10:14:03Z</time>
      </trkpt>
      <trkpt lat="49.83407" lon="2.55992">
        <ele>90.8</ele>
        <time>2023-07-02T10:14:04Z</time>
      </trkpt>
      <trkpt lat="49.83408" lon="2.55992">
        <ele>90.8</ele>
        <time>2023-07-02T10:14:05Z</time>
      </trkpt>
      <trkpt lat="49.83408" lon="2.55991">
        <ele>90.8</ele>
        <time>2023-07-02T10:14:06Z</time>
      </trkpt>
      <trkpt lat="49.83408" lon="2.55991">
        <ele>90.8</ele>
        <time>2023-07-02T10:14:07Z</time>
      </trkpt>
      <trkpt lat="49.83408" lon="2.55991">
        <ele>90.8</ele>
        <time>2023-07-02T10:14:08Z</time>
      </trkpt>
      <trkpt lat="49.83408" lon="2.55991">
        <ele>90.8</ele>
        <time>2023-07-02T10:14:09Z</time>
      </trkpt>
      <trkpt lat="49.83408" lon="2.55991">
        <ele>90.8</ele>
        <time>2023-07-02T10:14:10Z</time>
      </trkpt>
      <trkpt lat="49.83408" lon="2.55991">
        <ele>90.8</ele>
        <time>2023-07-02T10:14:11Z</time>
      </trkpt>
      <trkpt lat="49.83408" lon="2.55991">
        <ele>90.8</ele>
        <time>2023-07-02T10:14:13Z</time>
      </trkpt>
      <trkpt lat="49.83408" lon="2.55991">
        <ele>90.8</ele>
        <time>2023-07-02T10:14:15Z</time>
      </trkpt>
      <trkpt lat="49.83408" lon="2.5599">
        <ele>90.8</ele>
        <time>2023-07-02T10:14:16Z</time>
      </trkpt>
      <trkpt lat="49.83408" lon="2.5599">
        <ele>90.8</ele>
        <time>2023-07-02T10:14:18Z</time>
      </trkpt>
      <trkpt lat="49.83408" lon="2.5599">
        <ele>90.8</ele>
        <time>2023-07-02T10:14:19Z</time>
      </trkpt>
      <trkpt lat="49.83408" lon="2.5599">
        <ele>90.8</ele>
        <time>2023-07-02T10:14:21Z</time>
      </trkpt>
      <trkpt lat="49.83408" lon="2.5599">
        <ele>90.8</ele>
        <time>2023-07-02T10:14:22Z</time>
      </trkpt>
      <trkpt lat="49.83408" lon="2.5599">
        <ele>90.8</ele>
        <time>2023-07-02T10:14:23Z</time>
      </trkpt>
      <trkpt lat="49.83408" lon="2.5599">
        <ele>90.8</ele>
        <time>2023-07-02T10:14:25Z</time>
      </trkpt>
      <trkpt lat="49.83408" lon="2.5599">
        <ele>90.8</ele>
        <time>2023-07-02T10:14:26Z</time>
      </trkpt>
      <trkpt lat="49.83408" lon="2.55991">
        <ele>90.8</ele>
        <time>2023-07-02T10:14:28Z</time>
      </trkpt>
      <trkpt lat="49.83408" lon="2.55991">
        <ele>90.7</ele>
        <time>2023-07-02T10:14:29Z</time>
      </trkpt>
      <trkpt lat="49.83408" lon="2.55991">
        <ele>90.7</ele>
        <time>2023-07-02T10:14:31Z</time>
      </trkpt>
      <trkpt lat="49.83408" lon="2.55991">
        <ele>90.7</ele>
        <time>2023-07-02T10:14:32Z</time>
      </trkpt>
      <trkpt lat="49.83408" lon="2.55991">
        <ele>90.7</ele>
        <time>2023-07-02T10:14:33Z</time>
      </trkpt>
      <trkpt lat="49.83408" lon="2.55991">
        <ele>90.7</ele>
        <time>2023-07-02T10:14:34Z</time>
      </trkpt>
      <trkpt lat="49.83408" lon="2.55991">
        <ele>90.7</ele>
        <time>2023-07-02T10:14:35Z</time>
      </trkpt>
      <trkpt lat="49.83408" lon="2.55991">
        <ele>90.7</ele>
        <time>2023-07-02T10:14:36Z</time>
      </trkpt>
      <trkpt lat="49.83408" lon="2.55991">
        <ele>90.7</ele>
        <time>2023-07-02T10:14:37Z</time>
      </trkpt>
      <trkpt lat="49.83408" lon="2.5599">
        <ele>90.7</ele>
        <time>2023-07-02T10:14:39Z</time>
      </trkpt>
      <trkpt lat="49.83408" lon="2.5599">
        <ele>90.7</ele>
        <time>2023-07-02T10:14:40Z</time>
      </trkpt>
      <trkpt lat="49.83407" lon="2.55989">
        <ele>90.7</ele>
        <time>2023-07-02T10:14:41Z</time>
      </trkpt>
      <trkpt lat="49.83407" lon="2.55989">
        <ele>90.7</ele>
        <time>2023-07-02T10:14:42Z</time>
      </trkpt>
      <trkpt lat="49.83406" lon="2.55989">
        <ele>90.7</ele>
        <time>2023-07-02T10:14:43Z</time>
      </trkpt>
      <trkpt lat="49.83405" lon="2.55988">
        <ele>90.6</ele>
        <time>2023-07-02T10:14:44Z</time>
      </trkpt>
      <trkpt lat="49.83404" lon="2.55988">
        <ele>90.6</ele>
        <time>2023-07-02T10:14:46Z</time>
      </trkpt>
      <trkpt lat="49.83403" lon="2.55987">
        <ele>90.6</ele>
        <time>2023-07-02T10:14:47Z</time>
      </trkpt>
      <trkpt lat="49.83403" lon="2.55985">
        <ele>90.5</ele>
        <time>2023-07-02T10:14:48Z</time>
      </trkpt>
      <trkpt lat="49.83403" lon="2.55983">
        <ele>90.5</ele>
        <time>2023-07-02T10:14:49Z</time>
      </trkpt>
      <trkpt lat="49.83403" lon="2.55982">
        <ele>90.5</ele>
        <time>2023-07-02T10:14:51Z</time>
      </trkpt>
      <trkpt lat="49.83403" lon="2.5598">
        <ele>90.5</ele>
        <time>2023-07-02T10:14:52Z</time>
      </trkpt>
      <trkpt lat="49.83403" lon="2.55979">
        <ele>90.5</ele>
        <time>2023-07-02T10:14:53Z</time>
      </trkpt>
      <trkpt lat="49.83402" lon="2.55977">
        <ele>90.4</ele>
        <time>2023-07-02T10:14:54Z</time>
      </trkpt>
      <trkpt lat="49.83402" lon="2.55976">
        <ele>90.4</ele>
        <time>2023-07-02T10:14:55Z</time>
      </trkpt>
      <trkpt lat="49.83401" lon="2.55975">
        <ele>90.4</ele>
        <time>2023-07-02T10:14:57Z</time>
      </trkpt>
      <trkpt lat="49.83401" lon="2.55973">
        <ele>90.4</ele>
        <time>2023-07-02T10:14:58Z</time>
      </trkpt>
      <trkpt lat="49.834" lon="2.55971">
        <ele>90.4</ele>
        <time>2023-07-02T10:14:59Z</time>
      </trkpt>
      <trkpt lat="49.834" lon="2.5597">
        <ele>90.3</ele>
        <time>2023-07-02T10:15:00Z</time>
      </trkpt>
      <trkpt lat="49.83399" lon="2.55969">
        <ele>90.3</ele>
        <time>2023-07-02T10:15:01Z</time>
      </trkpt>
      <trkpt lat="49.83399" lon="2.55967">
        <ele>90.3</ele>
        <time>2023-07-02T10:15:02Z</time>
      </trkpt>
      <trkpt lat="49.83398" lon="2.55966">
        <ele>90.3</ele>
        <time>2023-07-02T10:15:03Z</time>
      </trkpt>
      <trkpt lat="49.83397" lon="2.55964">
        <ele>90.2</ele>
        <time>2023-07-02T10:15:04Z</time>
      </trkpt>
      <trkpt lat="49.83396" lon="2.55963">
        <ele>90.2</ele>
        <time>2023-07-02T10:15:06Z</time>
      </trkpt>
      <trkpt lat="49.83396" lon="2.55961">
        <ele>90.2</ele>
        <time>2023-07-02T10:15:07Z</time>
      </trkpt>
      <trkpt lat="49.83395" lon="2.5596">
        <ele>90.2</ele>
        <time>2023-07-02T10:15:08Z</time>
      </trkpt>
      <trkpt lat="49.83395" lon="2.55959">
        <ele>90.2</ele>
        <time>2023-07-02T10:15:09Z</time>
      </trkpt>
      <trkpt lat="49.83394" lon="2.55957">
        <ele>90.1</ele>
        <time>2023-07-02T10:15:10Z</time>
      </trkpt>
      <trkpt lat="49.83394" lon="2.55955">
        <ele>90.1</ele>
        <time>2023-07-02T10:15:11Z</time>
      </trkpt>
      <trkpt lat="49.83394" lon="2.55954">
        <ele>90.1</ele>
        <time>2023-07-02T10:15:12Z</time>
      </trkpt>
      <trkpt lat="49.83394" lon="2.55953">
        <ele>90.1</ele>
        <time>2023-07-02T10:15:13Z</time>
      </trkpt>
      <trkpt lat="49.83393" lon="2.55952">
        <ele>90.1</ele>
        <time>2023-07-02T10:15:14Z</time>
      </trkpt>
      <trkpt lat="49.83393" lon="2.5595">
        <ele>90</ele>
        <time>2023-07-02T10:15:16Z</time>
      </trkpt>
      <trkpt lat="49.83392" lon="2.55949">
        <ele>90</ele>
        <time>2023-07-02T10:15:17Z</time>
      </trkpt>
      <trkpt lat="49.83392" lon="2.55947">
        <ele>90</ele>
        <time>2023-07-02T10:15:18Z</time>
      </trkpt>
      <trkpt lat="49.83391" lon="2.55946">
        <ele>90</ele>
        <time>2023-07-02T10:15:19Z</time>
      </trkpt>
      <trkpt lat="49.83391" lon="2.55945">
        <ele>89.9</ele>
        <time>2023-07-02T10:15:20Z</time>
      </trkpt>
      <trkpt lat="49.8339" lon="2.55943">
        <ele>89.9</ele>
        <time>2023-07-02T10:15:21Z</time>
      </trkpt>
      <trkpt lat="49.83389" lon="2.55942">
        <ele>89.9</ele>
        <time>2023-07-02T10:15:22Z</time>
      </trkpt>
      <trkpt lat="49.83389" lon="2.55941">
        <ele>89.9</ele>
        <time>2023-07-02T10:15:23Z</time>
      </trkpt>
      <trkpt lat="49.83388" lon="2.5594">
        <ele>89.9</ele>
        <time>2023-07-02T10:15:25Z</time>
      </trkpt>
      <trkpt lat="49.83387" lon="2.55938">
        <ele>89.8</ele>
        <time>2023-07-02T10:15:26Z</time>
      </trkpt>
      <trkpt lat="49.83387" lon="2.55936">
        <ele>89.8</ele>
        <time>2023-07-02T10:15:27Z</time>
      </trkpt>
      <trkpt lat="49.83386" lon="2.55934">
        <ele>89.8</ele>
        <time>2023-07-02T10:15:28Z</time>
      </trkpt>
      <trkpt lat="49.83385" lon="2.55933">
        <ele>89.7</ele>
        <time>2023-07-02T10:15:29Z</time>
      </trkpt>
      <trkpt lat="49.83384" lon="2.55932">
        <ele>89.7</ele>
        <time>2023-07-02T10:15:30Z</time>
      </trkpt>
      <trkpt lat="49.83383" lon="2.55931">
        <ele>89.7</ele>
        <time>2023-07-02T10:15:31Z</time>
      </trkpt>
      <trkpt lat="49.83382" lon="2.55929">
        <ele>89.6</ele>
        <time>2023-07-02T10:15:33Z</time>
      </trkpt>
      <trkpt lat="49.8338" lon="2.55928">
        <ele>89.6</ele>
        <time>2023-07-02T10:15:34Z</time>
      </trkpt>
      <trkpt lat="49.83379" lon="2.55927">
        <ele>89.6</ele>
        <time>2023-07-02T10:15:35Z</time>
      </trkpt>
      <trkpt lat="49.83378" lon="2.55925">
        <ele>89.5</ele>
        <time>2023-07-02T10:15:36Z</time>
      </trkpt>
      <trkpt lat="49.83377" lon="2.55924">
        <ele>89.5</ele>
        <time>2023-07-02T10:15:37Z</time>
      </trkpt>
      <trkpt lat="49.83375" lon="2.55922">
        <ele>89.5</ele>
        <time>2023-07-02T10:15:39Z</time>
      </trkpt>
      <trkpt lat="49.83375" lon="2.55921">
        <ele>89.4</ele>
        <time>2023-07-02T10:15:40Z</time>
      </trkpt>
      <trkpt lat="49.83374" lon="2.5592">
        <ele>89.4</ele>
        <time>2023-07-02T10:15:41Z</time>
      </trkpt>
      <trkpt lat="49.83373" lon="2.55917">
        <ele>89.4</ele>
        <time>2023-07-02T10:15:42Z</time>
      </trkpt>
      <trkpt lat="49.83372" lon="2.55916">
        <ele>89.4</ele>
        <time>2023-07-02T10:15:43Z</time>
      </trkpt>
      <trkpt lat="49.83372" lon="2.55915">
        <ele>89.3</ele>
        <time>2023-07-02T10:15:44Z</time>
      </trkpt>
      <trkpt lat="49.83371" lon="2.55914">
        <ele>89.3</ele>
        <time>2023-07-02T10:15:46Z</time>
      </trkpt>
      <trkpt lat="49.8337" lon="2.55913">
        <ele>89.3</ele>
        <time>2023-07-02T10:15:47Z</time>
      </trkpt>
      <trkpt lat="49.8337" lon="2.55911">
        <ele>89.3</ele>
        <time>2023-07-02T10:15:48Z</time>
      </trkpt>
      <trkpt lat="49.83368" lon="2.55909">
        <ele>89.2</ele>
        <time>2023-07-02T10:15:49Z</time>
      </trkpt>
      <trkpt lat="49.83368" lon="2.55908">
        <ele>89.2</ele>
        <time>2023-07-02T10:15:50Z</time>
      </trkpt>
      <trkpt lat="49.83367" lon="2.55907">
        <ele>89.2</ele>
        <time>2023-07-02T10:15:51Z</time>
      </trkpt>
      <trkpt lat="49.83366" lon="2.55906">
        <ele>89.1</ele>
        <time>2023-07-02T10:15:52Z</time>
      </trkpt>
      <trkpt lat="49.83365" lon="2.55904">
        <ele>89.1</ele>
        <time>2023-07-02T10:15:53Z</time>
      </trkpt>
      <trkpt lat="49.83364" lon="2.55903">
        <ele>89.1</ele>
        <time>2023-07-02T10:15:55Z</time>
      </trkpt>
      <trkpt lat="49.83363" lon="2.55901">
        <ele>89.1</ele>
        <time>2023-07-02T10:15:56Z</time>
      </trkpt>
      <trkpt lat="49.83362" lon="2.559">
        <ele>89</ele>
        <time>2023-07-02T10:15:57Z</time>
      </trkpt>
      <trkpt lat="49.83362" lon="2.55899">
        <ele>89</ele>
        <time>2023-07-02T10:15:58Z</time>
      </trkpt>
      <trkpt lat="49.83361" lon="2.55898">
        <ele>89</ele>
        <time>2023-07-02T10:15:59Z</time>
      </trkpt>
      <trkpt lat="49.83359" lon="2.55896">
        <ele>89</ele>
        <time>2023-07-02T10:16:00Z</time>
      </trkpt>
      <trkpt lat="49.83359" lon="2.55895">
        <ele>88.9</ele>
        <time>2023-07-02T10:16:01Z</time>
      </trkpt>
      <trkpt lat="49.83358" lon="2.55894">
        <ele>88.9</ele>
        <time>2023-07-02T10:16:02Z</time>
      </trkpt>
      <trkpt lat="49.83356" lon="2.55893">
        <ele>88.9</ele>
        <time>2023-07-02T10:16:04Z</time>
      </trkpt>
      <trkpt lat="49.83355" lon="2.55892">
        <ele>88.9</ele>
        <time>2023-07-02T10:16:05Z</time>
      </trkpt>
      <trkpt lat="49.83355" lon="2.55892">
        <ele>88.8</ele>
        <time>2023-07-02T10:16:06Z</time>
      </trkpt>
      <trkpt lat="49.83353" lon="2.55891">
        <ele>88.8</ele>
        <time>2023-07-02T10:16:07Z</time>
      </trkpt>
      <trkpt lat="49.83352" lon="2.5589">
        <ele>88.8</ele>
        <time>2023-07-02T10:16:08Z</time>
      </trkpt>
      <trkpt lat="49.83351" lon="2.55889">
        <ele>88.8</ele>
        <time>2023-07-02T10:16:10Z</time>
      </trkpt>
      <trkpt lat="49.83351" lon="2.55888">
        <ele>88.8</ele>
        <time>2023-07-02T10:16:11Z</time>
      </trkpt>
      <trkpt lat="49.83351" lon="2.55888">
        <ele>88.8</ele>
        <time>2023-07-02T10:16:12Z</time>
      </trkpt>
      <trkpt lat="49.83351" lon="2.55887">
        <ele>88.7</ele>
        <time>2023-07-02T10:16:13Z</time>
      </trkpt>
      <trkpt lat="49.8335" lon="2.55886">
        <ele>88.7</ele>
        <time>2023-07-02T10:16:15Z</time>
      </trkpt>
      <trkpt lat="49.8335" lon="2.55885">
        <ele>88.7</ele>
        <time>2023-07-02T10:16:16Z</time>
      </trkpt>
      <trkpt lat="49.83349" lon="2.55884">
        <ele>88.7</ele>
        <time>2023-07-02T10:16:17Z</time>
      </trkpt>
      <trkpt lat="49.83348" lon="2.55883">
        <ele>88.7</ele>
        <time>2023-07-02T10:16:18Z</time>
      </trkpt>
      <trkpt lat="49.83347" lon="2.55882">
        <ele>88.6</ele>
        <time>2023-07-02T10:16:19Z</time>
      </trkpt>
      <trkpt lat="49.83346" lon="2.55881">
        <ele>88.6</ele>
        <time>2023-07-02T10:16:20Z</time>
      </trkpt>
      <trkpt lat="49.83345" lon="2.55879">
        <ele>88.6</ele>
        <time>2023-07-02T10:16:21Z</time>
      </trkpt>
      <trkpt lat="49.83343" lon="2.55877">
        <ele>88.5</ele>
        <time>2023-07-02T10:16:23Z</time>
      </trkpt>
      <trkpt lat="49.83342" lon="2.55876">
        <ele>88.5</ele>
        <time>2023-07-02T10:16:24Z</time>
      </trkpt>
      <trkpt lat="49.83341" lon="2.55875">
        <ele>88.5</ele>
        <time>2023-07-02T10:16:25Z</time>
      </trkpt>
      <trkpt lat="49.83339" lon="2.55874">
        <ele>88.4</ele>
        <time>2023-07-02T10:16:26Z</time>
      </trkpt>
      <trkpt lat="49.83338" lon="2.55873">
        <ele>88.4</ele>
        <time>2023-07-02T10:16:27Z</time>
      </trkpt>
      <trkpt lat="49.83337" lon="2.55872">
        <ele>88.4</ele>
        <time>2023-07-02T10:16:28Z</time>
      </trkpt>
      <trkpt lat="49.83336" lon="2.5587">
        <ele>88.3</ele>
        <time>2023-07-02T10:16:30Z</time>
      </trkpt>
      <trkpt lat="49.83335" lon="2.55869">
        <ele>88.3</ele>
        <time>2023-07-02T10:16:31Z</time>
      </trkpt>
      <trkpt lat="49.83333" lon="2.55867">
        <ele>88.2</ele>
        <time>2023-07-02T10:16:32Z</time>
      </trkpt>
      <trkpt lat="49.83332" lon="2.55866">
        <ele>88.2</ele>
        <time>2023-07-02T10:16:33Z</time>
      </trkpt>
      <trkpt lat="49.83331" lon="2.55864">
        <ele>88.2</ele>
        <time>2023-07-02T10:16:34Z</time>
      </trkpt>
      <trkpt lat="49.8333" lon="2.55863">
        <ele>88.1</ele>
        <time>2023-07-02T10:16:35Z</time>
      </trkpt>
      <trkpt lat="49.83329" lon="2.55861">
        <ele>88.1</ele>
        <time>2023-07-02T10:16:37Z</time>
      </trkpt>
      <trkpt lat="49.83328" lon="2.5586">
        <ele>88.1</ele>
        <time>2023-07-02T10:16:38Z</time>
      </trkpt>
      <trkpt lat="49.83327" lon="2.55858">
        <ele>88</ele>
        <time>2023-07-02T10:16:39Z</time>
      </trkpt>
      <trkpt lat="49.83326" lon="2.55856">
        <ele>88</ele>
        <time>2023-07-02T10:16:40Z</time>
      </trkpt>
      <trkpt lat="49.83325" lon="2.55855">
        <ele>88</ele>
        <time>2023-07-02T10:16:41Z</time>
      </trkpt>
      <trkpt lat="49.83324" lon="2.55853">
        <ele>87.9</ele>
        <time>2023-07-02T10:16:42Z</time>
      </trkpt>
      <trkpt lat="49.83324" lon="2.55851">
        <ele>87.9</ele>
        <time>2023-07-02T10:16:44Z</time>
      </trkpt>
      <trkpt lat="49.83323" lon="2.5585">
        <ele>87.9</ele>
        <time>2023-07-02T10:16:45Z</time>
      </trkpt>
      <trkpt lat="49.83321" lon="2.55847">
        <ele>87.8</ele>
        <time>2023-07-02T10:16:46Z</time>
      </trkpt>
      <trkpt lat="49.83321" lon="2.55846">
        <ele>87.8</ele>
        <time>2023-07-02T10:16:47Z</time>
      </trkpt>
      <trkpt lat="49.8332" lon="2.55845">
        <ele>87.8</ele>
        <time>2023-07-02T10:16:48Z</time>
      </trkpt>
      <trkpt lat="49.83319" lon="2.55843">
        <ele>87.7</ele>
        <time>2023-07-02T10:16:49Z</time>
      </trkpt>
      <trkpt lat="49.83318" lon="2.55842">
        <ele>87.7</ele>
        <time>2023-07-02T10:16:50Z</time>
      </trkpt>
      <trkpt lat="49.83318" lon="2.55841">
        <ele>87.7</ele>
        <time>2023-07-02T10:16:51Z</time>
      </trkpt>
      <trkpt lat="49.83317" lon="2.5584">
        <ele>87.7</ele>
        <time>2023-07-02T10:16:52Z</time>
      </trkpt>
      <trkpt lat="49.83316" lon="2.55838">
        <ele>87.6</ele>
        <time>2023-07-02T10:16:53Z</time>
      </trkpt>
      <trkpt lat="49.83315" lon="2.55837">
        <ele>87.6</ele>
        <time>2023-07-02T10:16:55Z</time>
      </trkpt>
      <trkpt lat="49.83315" lon="2.55835">
        <ele>87.6</ele>
        <time>2023-07-02T10:16:56Z</time>
      </trkpt>
      <trkpt lat="49.83314" lon="2.55834">
        <ele>87.6</ele>
        <time>2023-07-02T10:16:57Z</time>
      </trkpt>
      <trkpt lat="49.83313" lon="2.55833">
        <ele>87.5</ele>
        <time>2023-07-02T10:16:58Z</time>
      </trkpt>
      <trkpt lat="49.83312" lon="2.55831">
        <ele>87.5</ele>
        <time>2023-07-02T10:16:59Z</time>
      </trkpt>
      <trkpt lat="49.83312" lon="2.5583">
        <ele>87.5</ele>
        <time>2023-07-02T10:17:00Z</time>
      </trkpt>
      <trkpt lat="49.83311" lon="2.55828">
        <ele>87.4</ele>
        <time>2023-07-02T10:17:02Z</time>
      </trkpt>
      <trkpt lat="49.8331" lon="2.55826">
        <ele>87.4</ele>
        <time>2023-07-02T10:17:03Z</time>
      </trkpt>
      <trkpt lat="49.83309" lon="2.55824">
        <ele>87.4</ele>
        <time>2023-07-02T10:17:04Z</time>
      </trkpt>
      <trkpt lat="49.83308" lon="2.55822">
        <ele>87.3</ele>
        <time>2023-07-02T10:17:05Z</time>
      </trkpt>
      <trkpt lat="49.83307" lon="2.5582">
        <ele>87.3</ele>
        <time>2023-07-02T10:17:06Z</time>
      </trkpt>
      <trkpt lat="49.83307" lon="2.55819">
        <ele>87.3</ele>
        <time>2023-07-02T10:17:07Z</time>
      </trkpt>
      <trkpt lat="49.83306" lon="2.55817">
        <ele>87.3</ele>
        <time>2023-07-02T10:17:08Z</time>
      </trkpt>
      <trkpt lat="49.83305" lon="2.55816">
        <ele>87.2</ele>
        <time>2023-07-02T10:17:09Z</time>
      </trkpt>
      <trkpt lat="49.83304" lon="2.55813">
        <ele>87.2</ele>
        <time>2023-07-02T10:17:11Z</time>
      </trkpt>
      <trkpt lat="49.83303" lon="2.55812">
        <ele>87.2</ele>
        <time>2023-07-02T10:17:12Z</time>
      </trkpt>
      <trkpt lat="49.83303" lon="2.55811">
        <ele>87.2</ele>
        <time>2023-07-02T10:17:13Z</time>
      </trkpt>
      <trkpt lat="49.83301" lon="2.55809">
        <ele>87.1</ele>
        <time>2023-07-02T10:17:14Z</time>
      </trkpt>
      <trkpt lat="49.83301" lon="2.55808">
        <ele>87.1</ele>
        <time>2023-07-02T10:17:15Z</time>
      </trkpt>
      <trkpt lat="49.833" lon="2.55807">
        <ele>87.1</ele>
        <time>2023-07-02T10:17:16Z</time>
      </trkpt>
      <trkpt lat="49.833" lon="2.55805">
        <ele>87</ele>
        <time>2023-07-02T10:17:17Z</time>
      </trkpt>
      <trkpt lat="49.83299" lon="2.55804">
        <ele>87</ele>
        <time>2023-07-02T10:17:18Z</time>
      </trkpt>
      <trkpt lat="49.83299" lon="2.55803">
        <ele>87</ele>
        <time>2023-07-02T10:17:19Z</time>
      </trkpt>
      <trkpt lat="49.83297" lon="2.558">
        <ele>87</ele>
        <time>2023-07-02T10:17:21Z</time>
      </trkpt>
      <trkpt lat="49.83297" lon="2.55799">
        <ele>86.9</ele>
        <time>2023-07-02T10:17:22Z</time>
      </trkpt>
      <trkpt lat="49.83296" lon="2.55798">
        <ele>86.9</ele>
        <time>2023-07-02T10:17:23Z</time>
      </trkpt>
      <trkpt lat="49.83295" lon="2.55795">
        <ele>86.9</ele>
        <time>2023-07-02T10:17:24Z</time>
      </trkpt>
      <trkpt lat="49.83295" lon="2.55794">
        <ele>86.8</ele>
        <time>2023-07-02T10:17:25Z</time>
      </trkpt>
      <trkpt lat="49.83294" lon="2.55793">
        <ele>86.8</ele>
        <time>2023-07-02T10:17:26Z</time>
      </trkpt>
      <trkpt lat="49.83293" lon="2.55791">
        <ele>86.8</ele>
        <time>2023-07-02T10:17:27Z</time>
      </trkpt>
      <trkpt lat="49.83292" lon="2.55789">
        <ele>86.8</ele>
        <time>2023-07-02T10:17:28Z</time>
      </trkpt>
      <trkpt lat="49.83292" lon="2.55788">
        <ele>86.7</ele>
        <time>2023-07-02T10:17:30Z</time>
      </trkpt>
      <trkpt lat="49.83291" lon="2.55787">
        <ele>86.7</ele>
        <time>2023-07-02T10:17:31Z</time>
      </trkpt>
      <trkpt lat="49.8329" lon="2.55785">
        <ele>86.7</ele>
        <time>2023-07-02T10:17:32Z</time>
      </trkpt>
      <trkpt lat="49.8329" lon="2.55784">
        <ele>86.7</ele>
        <time>2023-07-02T10:17:33Z</time>
      </trkpt>
      <trkpt lat="49.83289" lon="2.55783">
        <ele>86.6</ele>
        <time>2023-07-02T10:17:34Z</time>
      </trkpt>
      <trkpt lat="49.83288" lon="2.55781">
        <ele>86.6</ele>
        <time>2023-07-02T10:17:35Z</time>
      </trkpt>
      <trkpt lat="49.83288" lon="2.5578">
        <ele>86.6</ele>
        <time>2023-07-02T10:17:36Z</time>
      </trkpt>
      <trkpt lat="49.83287" lon="2.55779">
        <ele>86.5</ele>
        <time>2023-07-02T10:17:37Z</time>
      </trkpt>
      <trkpt lat="49.83287" lon="2.55777">
        <ele>86.5</ele>
        <time>2023-07-02T10:17:39Z</time>
      </trkpt>
      <trkpt lat="49.83286" lon="2.55775">
        <ele>86.5</ele>
        <time>2023-07-02T10:17:40Z</time>
      </trkpt>
      <trkpt lat="49.83285" lon="2.55773">
        <ele>86.4</ele>
        <time>2023-07-02T10:17:41Z</time>
      </trkpt>
      <trkpt lat="49.83285" lon="2.55772">
        <ele>86.4</ele>
        <time>2023-07-02T10:17:42Z</time>
      </trkpt>
      <trkpt lat="49.83284" lon="2.55771">
        <ele>86.4</ele>
        <time>2023-07-02T10:17:43Z</time>
      </trkpt>
      <trkpt lat="49.83283" lon="2.55769">
        <ele>86.4</ele>
        <time>2023-07-02T10:17:44Z</time>
      </trkpt>
      <trkpt lat="49.83283" lon="2.55768">
        <ele>86.4</ele>
        <time>2023-07-02T10:17:45Z</time>
      </trkpt>
      <trkpt lat="49.83282" lon="2.55766">
        <ele>86.3</ele>
        <time>2023-07-02T10:17:46Z</time>
      </trkpt>
      <trkpt lat="49.83281" lon="2.55765">
        <ele>86.3</ele>
        <time>2023-07-02T10:17:47Z</time>
      </trkpt>
      <trkpt lat="49.83281" lon="2.55763">
        <ele>86.3</ele>
        <time>2023-07-02T10:17:48Z</time>
      </trkpt>
      <trkpt lat="49.8328" lon="2.55762">
        <ele>86.3</ele>
        <time>2023-07-02T10:17:50Z</time>
      </trkpt>
      <trkpt lat="49.83279" lon="2.55759">
        <ele>86.2</ele>
        <time>2023-07-02T10:17:51Z</time>
      </trkpt>
      <trkpt lat="49.83278" lon="2.55758">
        <ele>86.2</ele>
        <time>2023-07-02T10:17:52Z</time>
      </trkpt>
      <trkpt lat="49.83278" lon="2.55757">
        <ele>86.2</ele>
        <time>2023-07-02T10:17:53Z</time>
      </trkpt>
      <trkpt lat="49.83277" lon="2.55754">
        <ele>86.2</ele>
        <time>2023-07-02T10:17:54Z</time>
      </trkpt>
      <trkpt lat="49.83276" lon="2.55753">
        <ele>86.1</ele>
        <time>2023-07-02T10:17:55Z</time>
      </trkpt>
      <trkpt lat="49.83276" lon="2.55752">
        <ele>86.1</ele>
        <time>2023-07-02T10:17:56Z</time>
      </trkpt>
      <trkpt lat="49.83275" lon="2.5575">
        <ele>86.1</ele>
        <time>2023-07-02T10:17:58Z</time>
      </trkpt>
      <trkpt lat="49.83274" lon="2.55748">
        <ele>86.1</ele>
        <time>2023-07-02T10:17:59Z</time>
      </trkpt>
      <trkpt lat="49.83273" lon="2.55747">
        <ele>86.1</ele>
        <time>2023-07-02T10:18:00Z</time>
      </trkpt>
      <trkpt lat="49.83272" lon="2.55745">
        <ele>86</ele>
        <time>2023-07-02T10:18:01Z</time>
      </trkpt>
      <trkpt lat="49.83271" lon="2.55743">
        <ele>86</ele>
        <time>2023-07-02T10:18:02Z</time>
      </trkpt>
      <trkpt lat="49.8327" lon="2.55742">
        <ele>86</ele>
        <time>2023-07-02T10:18:03Z</time>
      </trkpt>
      <trkpt lat="49.83269" lon="2.5574">
        <ele>86</ele>
        <time>2023-07-02T10:18:04Z</time>
      </trkpt>
      <trkpt lat="49.83268" lon="2.55739">
        <ele>85.9</ele>
        <time>2023-07-02T10:18:05Z</time>
      </trkpt>
      <trkpt lat="49.83267" lon="2.55737">
        <ele>85.9</ele>
        <time>2023-07-02T10:18:07Z</time>
      </trkpt>
      <trkpt lat="49.83267" lon="2.55735">
        <ele>85.9</ele>
        <time>2023-07-02T10:18:08Z</time>
      </trkpt>
      <trkpt lat="49.83266" lon="2.55734">
        <ele>85.9</ele>
        <time>2023-07-02T10:18:09Z</time>
      </trkpt>
      <trkpt lat="49.83265" lon="2.55731">
        <ele>85.8</ele>
        <time>2023-07-02T10:18:10Z</time>
      </trkpt>
      <trkpt lat="49.83264" lon="2.5573">
        <ele>85.8</ele>
        <time>2023-07-02T10:18:11Z</time>
      </trkpt>
      <trkpt lat="49.83264" lon="2.55729">
        <ele>85.8</ele>
        <time>2023-07-02T10:18:12Z</time>
      </trkpt>
      <trkpt lat="49.83263" lon="2.55726">
        <ele>85.8</ele>
        <time>2023-07-02T10:18:13Z</time>
      </trkpt>
      <trkpt lat="49.83262" lon="2.55725">
        <ele>85.7</ele>
        <time>2023-07-02T10:18:15Z</time>
      </trkpt>
      <trkpt lat="49.83262" lon="2.55724">
        <ele>85.7</ele>
        <time>2023-07-02T10:18:16Z</time>
      </trkpt>
      <trkpt lat="49.83261" lon="2.55722">
        <ele>85.7</ele>
        <time>2023-07-02T10:18:17Z</time>
      </trkpt>
      <trkpt lat="49.8326" lon="2.5572">
        <ele>85.7</ele>
        <time>2023-07-02T10:18:18Z</time>
      </trkpt>
      <trkpt lat="49.83259" lon="2.55718">
        <ele>85.6</ele>
        <time>2023-07-02T10:18:19Z</time>
      </trkpt>
      <trkpt lat="49.83259" lon="2.55717">
        <ele>85.6</ele>
        <time>2023-07-02T10:18:20Z</time>
      </trkpt>
      <trkpt lat="49.83257" lon="2.55714">
        <ele>85.6</ele>
        <time>2023-07-02T10:18:21Z</time>
      </trkpt>
      <trkpt lat="49.83257" lon="2.55713">
        <ele>85.5</ele>
        <time>2023-07-02T10:18:22Z</time>
      </trkpt>
      <trkpt lat="49.83256" lon="2.55711">
        <ele>85.5</ele>
        <time>2023-07-02T10:18:23Z</time>
      </trkpt>
      <trkpt lat="49.83256" lon="2.55709">
        <ele>85.5</ele>
        <time>2023-07-02T10:18:25Z</time>
      </trkpt>
      <trkpt lat="49.83255" lon="2.55708">
        <ele>85.5</ele>
        <time>2023-07-02T10:18:26Z</time>
      </trkpt>
      <trkpt lat="49.83254" lon="2.55706">
        <ele>85.4</ele>
        <time>2023-07-02T10:18:27Z</time>
      </trkpt>
      <trkpt lat="49.83253" lon="2.55704">
        <ele>85.4</ele>
        <time>2023-07-02T10:18:28Z</time>
      </trkpt>
      <trkpt lat="49.83252" lon="2.55701">
        <ele>85.3</ele>
        <time>2023-07-02T10:18:29Z</time>
      </trkpt>
      <trkpt lat="49.83251" lon="2.557">
        <ele>85.3</ele>
        <time>2023-07-02T10:18:30Z</time>
      </trkpt>
      <trkpt lat="49.83251" lon="2.55699">
        <ele>85.3</ele>
        <time>2023-07-02T10:18:31Z</time>
      </trkpt>
      <trkpt lat="49.8325" lon="2.55698">
        <ele>85.3</ele>
        <time>2023-07-02T10:18:32Z</time>
      </trkpt>
      <trkpt lat="49.8325" lon="2.55696">
        <ele>85.3</ele>
        <time>2023-07-02T10:18:34Z</time>
      </trkpt>
      <trkpt lat="49.83249" lon="2.55695">
        <ele>85.2</ele>
        <time>2023-07-02T10:18:35Z</time>
      </trkpt>
      <trkpt lat="49.83248" lon="2.55692">
        <ele>85.2</ele>
        <time>2023-07-02T10:18:36Z</time>
      </trkpt>
      <trkpt lat="49.83247" lon="2.55691">
        <ele>85.1</ele>
        <time>2023-07-02T10:18:37Z</time>
      </trkpt>
      <trkpt lat="49.83246" lon="2.5569">
        <ele>85.1</ele>
        <time>2023-07-02T10:18:38Z</time>
      </trkpt>
      <trkpt lat="49.83246" lon="2.55689">
        <ele>85.1</ele>
        <time>2023-07-02T10:18:39Z</time>
      </trkpt>
      <trkpt lat="49.83244" lon="2.55687">
        <ele>85</ele>
        <time>2023-07-02T10:18:40Z</time>
      </trkpt>
      <trkpt lat="49.83244" lon="2.55686">
        <ele>85</ele>
        <time>2023-07-02T10:18:41Z</time>
      </trkpt>
      <trkpt lat="49.83243" lon="2.55684">
        <ele>84.9</ele>
        <time>2023-07-02T10:18:43Z</time>
      </trkpt>
      <trkpt lat="49.83242" lon="2.55682">
        <ele>84.9</ele>
        <time>2023-07-02T10:18:44Z</time>
      </trkpt>
      <trkpt lat="49.83241" lon="2.55681">
        <ele>84.8</ele>
        <time>2023-07-02T10:18:45Z</time>
      </trkpt>
      <trkpt lat="49.83241" lon="2.55679">
        <ele>84.8</ele>
        <time>2023-07-02T10:18:46Z</time>
      </trkpt>
      <trkpt lat="49.8324" lon="2.55678">
        <ele>84.8</ele>
        <time>2023-07-02T10:18:48Z</time>
      </trkpt>
      <trkpt lat="49.83239" lon="2.55676">
        <ele>84.7</ele>
        <time>2023-07-02T10:18:49Z</time>
      </trkpt>
      <trkpt lat="49.83239" lon="2.55675">
        <ele>84.7</ele>
        <time>2023-07-02T10:18:50Z</time>
      </trkpt>
      <trkpt lat="49.83238" lon="2.55674">
        <ele>84.7</ele>
        <time>2023-07-02T10:18:51Z</time>
      </trkpt>
      <trkpt lat="49.83237" lon="2.55673">
        <ele>84.6</ele>
        <time>2023-07-02T10:18:52Z</time>
      </trkpt>
      <trkpt lat="49.83236" lon="2.55672">
        <ele>84.6</ele>
        <time>2023-07-02T10:18:53Z</time>
      </trkpt>
      <trkpt lat="49.83235" lon="2.5567">
        <ele>84.5</ele>
        <time>2023-07-02T10:18:55Z</time>
      </trkpt>
      <trkpt lat="49.83234" lon="2.55669">
        <ele>84.5</ele>
        <time>2023-07-02T10:18:56Z</time>
      </trkpt>
      <trkpt lat="49.83233" lon="2.55668">
        <ele>84.4</ele>
        <time>2023-07-02T10:18:57Z</time>
      </trkpt>
      <trkpt lat="49.83232" lon="2.55667">
        <ele>84.4</ele>
        <time>2023-07-02T10:18:58Z</time>
      </trkpt>
      <trkpt lat="49.83231" lon="2.55666">
        <ele>84.3</ele>
        <time>2023-07-02T10:18:59Z</time>
      </trkpt>
      <trkpt lat="49.8323" lon="2.55663">
        <ele>84.3</ele>
        <time>2023-07-02T10:19:01Z</time>
      </trkpt>
      <trkpt lat="49.83229" lon="2.55662">
        <ele>84.2</ele>
        <time>2023-07-02T10:19:02Z</time>
      </trkpt>
      <trkpt lat="49.83229" lon="2.55661">
        <ele>84.2</ele>
        <time>2023-07-02T10:19:03Z</time>
      </trkpt>
      <trkpt lat="49.83227" lon="2.55659">
        <ele>84.1</ele>
        <time>2023-07-02T10:19:04Z</time>
      </trkpt>
      <trkpt lat="49.83227" lon="2.55658">
        <ele>84.1</ele>
        <time>2023-07-02T10:19:05Z</time>
      </trkpt>
      <trkpt lat="49.83226" lon="2.55658">
        <ele>84.1</ele>
        <time>2023-07-02T10:19:06Z</time>
      </trkpt>
      <trkpt lat="49.83225" lon="2.55656">
        <ele>84</ele>
        <time>2023-07-02T10:19:07Z</time>
      </trkpt>
      <trkpt lat="49.83224" lon="2.55655">
        <ele>84</ele>
        <time>2023-07-02T10:19:08Z</time>
      </trkpt>
      <trkpt lat="49.83224" lon="2.55654">
        <ele>84</ele>
        <time>2023-07-02T10:19:09Z</time>
      </trkpt>
      <trkpt lat="49.83222" lon="2.55652">
        <ele>83.9</ele>
        <time>2023-07-02T10:19:11Z</time>
      </trkpt>
      <trkpt lat="49.83221" lon="2.55651">
        <ele>83.8</ele>
        <time>2023-07-02T10:19:12Z</time>
      </trkpt>
      <trkpt lat="49.83221" lon="2.5565">
        <ele>83.8</ele>
        <time>2023-07-02T10:19:13Z</time>
      </trkpt>
      <trkpt lat="49.83219" lon="2.55649">
        <ele>83.8</ele>
        <time>2023-07-02T10:19:14Z</time>
      </trkpt>
      <trkpt lat="49.83219" lon="2.55648">
        <ele>83.7</ele>
        <time>2023-07-02T10:19:15Z</time>
      </trkpt>
      <trkpt lat="49.83218" lon="2.55648">
        <ele>83.7</ele>
        <time>2023-07-02T10:19:16Z</time>
      </trkpt>
      <trkpt lat="49.83218" lon="2.55648">
        <ele>83.7</ele>
        <time>2023-07-02T10:19:17Z</time>
      </trkpt>
      <trkpt lat="49.83218" lon="2.55648">
        <ele>83.7</ele>
        <time>2023-07-02T10:19:19Z</time>
      </trkpt>
      <trkpt lat="49.83218" lon="2.55647">
        <ele>83.7</ele>
        <time>2023-07-02T10:19:20Z</time>
      </trkpt>
      <trkpt lat="49.83218" lon="2.55647">
        <ele>83.7</ele>
        <time>2023-07-02T10:19:22Z</time>
      </trkpt>
      <trkpt lat="49.83219" lon="2.55647">
        <ele>83.6</ele>
        <time>2023-07-02T10:19:23Z</time>
      </trkpt>
      <trkpt lat="49.83219" lon="2.55647">
        <ele>83.6</ele>
        <time>2023-07-02T10:19:25Z</time>
      </trkpt>
      <trkpt lat="49.83219" lon="2.55647">
        <ele>83.6</ele>
        <time>2023-07-02T10:19:26Z</time>
      </trkpt>
      <trkpt lat="49.83219" lon="2.55647">
        <ele>83.6</ele>
        <time>2023-07-02T10:19:27Z</time>
      </trkpt>
      <trkpt lat="49.83219" lon="2.55646">
        <ele>83.6</ele>
        <time>2023-07-02T10:19:29Z</time>
      </trkpt>
      <trkpt lat="49.83219" lon="2.55646">
        <ele>83.6</ele>
        <time>2023-07-02T10:19:30Z</time>
      </trkpt>
      <trkpt lat="49.83219" lon="2.55645">
        <ele>83.6</ele>
        <time>2023-07-02T10:19:31Z</time>
      </trkpt>
      <trkpt lat="49.83218" lon="2.55643">
        <ele>83.5</ele>
        <time>2023-07-02T10:19:32Z</time>
      </trkpt>
      <trkpt lat="49.83217" lon="2.55641">
        <ele>83.5</ele>
        <time>2023-07-02T10:19:33Z</time>
      </trkpt>
      <trkpt lat="49.83216" lon="2.5564">
        <ele>83.4</ele>
        <time>2023-07-02T10:19:34Z</time>
      </trkpt>
      <trkpt lat="49.83216" lon="2.55639">
        <ele>83.4</ele>
        <time>2023-07-02T10:19:35Z</time>
      </trkpt>
      <trkpt lat="49.83215" lon="2.55638">
        <ele>83.4</ele>
        <time>2023-07-02T10:19:37Z</time>
      </trkpt>
      <trkpt lat="49.83214" lon="2.55637">
        <ele>83.3</ele>
        <time>2023-07-02T10:19:38Z</time>
      </trkpt>
      <trkpt lat="49.83213" lon="2.55637">
        <ele>83.3</ele>
        <time>2023-07-02T10:19:39Z</time>
      </trkpt>
      <trkpt lat="49.83211" lon="2.55635">
        <ele>83.2</ele>
        <time>2023-07-02T10:19:40Z</time>
      </trkpt>
      <trkpt lat="49.8321" lon="2.55635">
        <ele>83.2</ele>
        <time>2023-07-02T10:19:41Z</time>
      </trkpt>
      <trkpt lat="49.83209" lon="2.55634">
        <ele>83.2</ele>
        <time>2023-07-02T10:19:42Z</time>
      </trkpt>
      <trkpt lat="49.83208" lon="2.55634">
        <ele>83.2</ele>
        <time>2023-07-02T10:19:43Z</time>
      </trkpt>
      <trkpt lat="49.83208" lon="2.55633">
        <ele>83.1</ele>
        <time>2023-07-02T10:19:45Z</time>
      </trkpt>
      <trkpt lat="49.83207" lon="2.55632">
        <ele>83.1</ele>
        <time>2023-07-02T10:19:46Z</time>
      </trkpt>
      <trkpt lat="49.83206" lon="2.55632">
        <ele>83.1</ele>
        <time>2023-07-02T10:19:47Z</time>
      </trkpt>
      <trkpt lat="49.83205" lon="2.55631">
        <ele>83</ele>
        <time>2023-07-02T10:19:48Z</time>
      </trkpt>
      <trkpt lat="49.83204" lon="2.55629">
        <ele>83</ele>
        <time>2023-07-02T10:19:49Z</time>
      </trkpt>
      <trkpt lat="49.83202" lon="2.55628">
        <ele>82.9</ele>
        <time>2023-07-02T10:19:50Z</time>
      </trkpt>
      <trkpt lat="49.83201" lon="2.55627">
        <ele>82.9</ele>
        <time>2023-07-02T10:19:51Z</time>
      </trkpt>
      <trkpt lat="49.832" lon="2.55625">
        <ele>82.8</ele>
        <time>2023-07-02T10:19:52Z</time>
      </trkpt>
      <trkpt lat="49.83198" lon="2.55624">
        <ele>82.8</ele>
        <time>2023-07-02T10:19:54Z</time>
      </trkpt>
      <trkpt lat="49.83197" lon="2.55623">
        <ele>82.7</ele>
        <time>2023-07-02T10:19:55Z</time>
      </trkpt>
      <trkpt lat="49.83196" lon="2.55622">
        <ele>82.7</ele>
        <time>2023-07-02T10:19:56Z</time>
      </trkpt>
      <trkpt lat="49.83195" lon="2.5562">
        <ele>82.6</ele>
        <time>2023-07-02T10:19:57Z</time>
      </trkpt>
      <trkpt lat="49.83194" lon="2.55619">
        <ele>82.6</ele>
        <time>2023-07-02T10:19:58Z</time>
      </trkpt>
      <trkpt lat="49.83193" lon="2.55618">
        <ele>82.6</ele>
        <time>2023-07-02T10:19:59Z</time>
      </trkpt>
      <trkpt lat="49.83191" lon="2.55617">
        <ele>82.5</ele>
        <time>2023-07-02T10:20:00Z</time>
      </trkpt>
      <trkpt lat="49.83189" lon="2.55615">
        <ele>82.4</ele>
        <time>2023-07-02T10:20:01Z</time>
      </trkpt>
      <trkpt lat="49.83189" lon="2.55614">
        <ele>82.4</ele>
        <time>2023-07-02T10:20:02Z</time>
      </trkpt>
      <trkpt lat="49.83188" lon="2.55614">
        <ele>82.4</ele>
        <time>2023-07-02T10:20:03Z</time>
      </trkpt>
      <trkpt lat="49.83187" lon="2.55612">
        <ele>82.3</ele>
        <time>2023-07-02T10:20:04Z</time>
      </trkpt>
      <trkpt lat="49.83185" lon="2.55611">
        <ele>82.3</ele>
        <time>2023-07-02T10:20:06Z</time>
      </trkpt>
      <trkpt lat="49.83184" lon="2.5561">
        <ele>82.2</ele>
        <time>2023-07-02T10:20:07Z</time>
      </trkpt>
      <trkpt lat="49.83184" lon="2.55611">
        <ele>82.2</ele>
        <time>2023-07-02T10:20:08Z</time>
      </trkpt>
      <trkpt lat="49.83183" lon="2.55612">
        <ele>82.2</ele>
        <time>2023-07-02T10:20:09Z</time>
      </trkpt>
      <trkpt lat="49.83183" lon="2.55613">
        <ele>82.2</ele>
        <time>2023-07-02T10:20:11Z</time>
      </trkpt>
      <trkpt lat="49.83183" lon="2.55613">
        <ele>82.2</ele>
        <time>2023-07-02T10:20:12Z</time>
      </trkpt>
      <trkpt lat="49.83183" lon="2.55613">
        <ele>82.2</ele>
        <time>2023-07-02T10:20:13Z</time>
      </trkpt>
      <trkpt lat="49.83183" lon="2.55613">
        <ele>82.2</ele>
        <time>2023-07-02T10:20:15Z</time>
      </trkpt>
      <trkpt lat="49.83183" lon="2.55613">
        <ele>82.2</ele>
        <time>2023-07-02T10:20:16Z</time>
      </trkpt>
      <trkpt lat="49.83183" lon="2.55613">
        <ele>82.1</ele>
        <time>2023-07-02T10:20:18Z</time>
      </trkpt>
      <trkpt lat="49.83183" lon="2.55612">
        <ele>82.1</ele>
        <time>2023-07-02T10:20:19Z</time>
      </trkpt>
      <trkpt lat="49.83183" lon="2.55612">
        <ele>82.1</ele>
        <time>2023-07-02T10:20:20Z</time>
      </trkpt>
      <trkpt lat="49.83183" lon="2.55612">
        <ele>82.1</ele>
        <time>2023-07-02T10:20:22Z</time>
      </trkpt>
      <trkpt lat="49.83183" lon="2.55612">
        <ele>82.1</ele>
        <time>2023-07-02T10:20:23Z</time>
      </trkpt>
      <trkpt lat="49.83183" lon="2.55611">
        <ele>82.1</ele>
        <time>2023-07-02T10:20:25Z</time>
      </trkpt>
      <trkpt lat="49.83183" lon="2.55611">
        <ele>82.1</ele>
        <time>2023-07-02T10:20:26Z</time>
      </trkpt>
      <trkpt lat="49.83183" lon="2.5561">
        <ele>82.1</ele>
        <time>2023-07-02T10:20:27Z</time>
      </trkpt>
      <trkpt lat="49.83182" lon="2.55609">
        <ele>82</ele>
        <time>2023-07-02T10:20:29Z</time>
      </trkpt>
      <trkpt lat="49.83181" lon="2.55609">
        <ele>82</ele>
        <time>2023-07-02T10:20:30Z</time>
      </trkpt>
      <trkpt lat="49.83181" lon="2.55608">
        <ele>82</ele>
        <time>2023-07-02T10:20:31Z</time>
      </trkpt>
      <trkpt lat="49.8318" lon="2.55607">
        <ele>81.9</ele>
        <time>2023-07-02T10:20:32Z</time>
      </trkpt>
      <trkpt lat="49.83179" lon="2.55607">
        <ele>81.9</ele>
        <time>2023-07-02T10:20:33Z</time>
      </trkpt>
      <trkpt lat="49.83177" lon="2.55606">
        <ele>81.8</ele>
        <time>2023-07-02T10:20:35Z</time>
      </trkpt>
      <trkpt lat="49.83176" lon="2.55605">
        <ele>81.8</ele>
        <time>2023-07-02T10:20:36Z</time>
      </trkpt>
      <trkpt lat="49.83174" lon="2.55603">
        <ele>81.7</ele>
        <time>2023-07-02T10:20:37Z</time>
      </trkpt>
      <trkpt lat="49.83174" lon="2.55602">
        <ele>81.7</ele>
        <time>2023-07-02T10:20:38Z</time>
      </trkpt>
      <trkpt lat="49.83173" lon="2.55601">
        <ele>81.6</ele>
        <time>2023-07-02T10:20:39Z</time>
      </trkpt>
      <trkpt lat="49.83172" lon="2.55598">
        <ele>81.6</ele>
        <time>2023-07-02T10:20:40Z</time>
      </trkpt>
      <trkpt lat="49.83172" lon="2.55597">
        <ele>81.5</ele>
        <time>2023-07-02T10:20:41Z</time>
      </trkpt>
      <trkpt lat="49.83171" lon="2.55595">
        <ele>81.5</ele>
        <time>2023-07-02T10:20:42Z</time>
      </trkpt>
      <trkpt lat="49.83171" lon="2.55594">
        <ele>81.4</ele>
        <time>2023-07-02T10:20:43Z</time>
      </trkpt>
      <trkpt lat="49.83169" lon="2.55592">
        <ele>81.4</ele>
        <time>2023-07-02T10:20:45Z</time>
      </trkpt>
      <trkpt lat="49.83168" lon="2.5559">
        <ele>81.3</ele>
        <time>2023-07-02T10:20:46Z</time>
      </trkpt>
      <trkpt lat="49.83167" lon="2.55588">
        <ele>81.2</ele>
        <time>2023-07-02T10:20:47Z</time>
      </trkpt>
      <trkpt lat="49.83166" lon="2.55587">
        <ele>81.1</ele>
        <time>2023-07-02T10:20:48Z</time>
      </trkpt>
      <trkpt lat="49.83164" lon="2.55585">
        <ele>81.1</ele>
        <time>2023-07-02T10:20:49Z</time>
      </trkpt>
      <trkpt lat="49.83163" lon="2.55583">
        <ele>81</ele>
        <time>2023-07-02T10:20:50Z</time>
      </trkpt>
      <trkpt lat="49.83162" lon="2.55581">
        <ele>80.9</ele>
        <time>2023-07-02T10:20:51Z</time>
      </trkpt>
      <trkpt lat="49.83161" lon="2.5558">
        <ele>80.9</ele>
        <time>2023-07-02T10:20:52Z</time>
      </trkpt>
      <trkpt lat="49.8316" lon="2.55578">
        <ele>80.8</ele>
        <time>2023-07-02T10:20:53Z</time>
      </trkpt>
      <trkpt lat="49.83159" lon="2.55577">
        <ele>80.7</ele>
        <time>2023-07-02T10:20:55Z</time>
      </trkpt>
      <trkpt lat="49.83158" lon="2.55575">
        <ele>80.7</ele>
        <time>2023-07-02T10:20:56Z</time>
      </trkpt>
      <trkpt lat="49.83156" lon="2.55573">
        <ele>80.6</ele>
        <time>2023-07-02T10:20:57Z</time>
      </trkpt>
      <trkpt lat="49.83155" lon="2.55572">
        <ele>80.5</ele>
        <time>2023-07-02T10:20:58Z</time>
      </trkpt>
      <trkpt lat="49.83155" lon="2.55571">
        <ele>80.5</ele>
        <time>2023-07-02T10:20:59Z</time>
      </trkpt>
      <trkpt lat="49.83154" lon="2.5557">
        <ele>80.4</ele>
        <time>2023-07-02T10:21:00Z</time>
      </trkpt>
      <trkpt lat="49.83153" lon="2.55569">
        <ele>80.4</ele>
        <time>2023-07-02T10:21:01Z</time>
      </trkpt>
      <trkpt lat="49.83151" lon="2.55567">
        <ele>80.3</ele>
        <time>2023-07-02T10:21:03Z</time>
      </trkpt>
      <trkpt lat="49.8315" lon="2.55566">
        <ele>80.2</ele>
        <time>2023-07-02T10:21:04Z</time>
      </trkpt>
      <trkpt lat="49.83149" lon="2.55565">
        <ele>80.2</ele>
        <time>2023-07-02T10:21:05Z</time>
      </trkpt>
      <trkpt lat="49.83148" lon="2.55564">
        <ele>80.1</ele>
        <time>2023-07-02T10:21:06Z</time>
      </trkpt>
      <trkpt lat="49.83146" lon="2.55563">
        <ele>80</ele>
        <time>2023-07-02T10:21:07Z</time>
      </trkpt>
      <trkpt lat="49.83144" lon="2.55561">
        <ele>79.9</ele>
        <time>2023-07-02T10:21:08Z</time>
      </trkpt>
      <trkpt lat="49.83144" lon="2.55561">
        <ele>79.8</ele>
        <time>2023-07-02T10:21:09Z</time>
      </trkpt>
      <trkpt lat="49.83143" lon="2.5556">
        <ele>79.8</ele>
        <time>2023-07-02T10:21:10Z</time>
      </trkpt>
      <trkpt lat="49.83142" lon="2.55559">
        <ele>79.7</ele>
        <time>2023-07-02T10:21:12Z</time>
      </trkpt>
      <trkpt lat="49.83141" lon="2.55558">
        <ele>79.7</ele>
        <time>2023-07-02T10:21:13Z</time>
      </trkpt>
      <trkpt lat="49.83139" lon="2.55557">
        <ele>79.5</ele>
        <time>2023-07-02T10:21:14Z</time>
      </trkpt>
      <trkpt lat="49.83138" lon="2.55556">
        <ele>79.5</ele>
        <time>2023-07-02T10:21:15Z</time>
      </trkpt>
      <trkpt lat="49.83137" lon="2.55556">
        <ele>79.5</ele>
        <time>2023-07-02T10:21:16Z</time>
      </trkpt>
      <trkpt lat="49.83136" lon="2.55555">
        <ele>79.4</ele>
        <time>2023-07-02T10:21:17Z</time>
      </trkpt>
      <trkpt lat="49.83135" lon="2.55554">
        <ele>79.3</ele>
        <time>2023-07-02T10:21:18Z</time>
      </trkpt>
      <trkpt lat="49.83134" lon="2.55553">
        <ele>79.2</ele>
        <time>2023-07-02T10:21:19Z</time>
      </trkpt>
      <trkpt lat="49.83133" lon="2.55552">
        <ele>79.2</ele>
        <time>2023-07-02T10:21:20Z</time>
      </trkpt>
      <trkpt lat="49.83132" lon="2.55551">
        <ele>79.1</ele>
        <time>2023-07-02T10:21:21Z</time>
      </trkpt>
      <trkpt lat="49.8313" lon="2.55549">
        <ele>79</ele>
        <time>2023-07-02T10:21:23Z</time>
      </trkpt>
      <trkpt lat="49.83129" lon="2.55548">
        <ele>79</ele>
        <time>2023-07-02T10:21:24Z</time>
      </trkpt>
      <trkpt lat="49.83129" lon="2.55548">
        <ele>78.9</ele>
        <time>2023-07-02T10:21:25Z</time>
      </trkpt>
      <trkpt lat="49.83127" lon="2.55546">
        <ele>78.9</ele>
        <time>2023-07-02T10:21:26Z</time>
      </trkpt>
      <trkpt lat="49.83126" lon="2.55545">
        <ele>78.8</ele>
        <time>2023-07-02T10:21:27Z</time>
      </trkpt>
      <trkpt lat="49.83125" lon="2.55544">
        <ele>78.7</ele>
        <time>2023-07-02T10:21:28Z</time>
      </trkpt>
      <trkpt lat="49.83124" lon="2.55543">
        <ele>78.6</ele>
        <time>2023-07-02T10:21:29Z</time>
      </trkpt>
      <trkpt lat="49.83123" lon="2.55542">
        <ele>78.6</ele>
        <time>2023-07-02T10:21:30Z</time>
      </trkpt>
      <trkpt lat="49.83122" lon="2.55541">
        <ele>78.5</ele>
        <time>2023-07-02T10:21:31Z</time>
      </trkpt>
      <trkpt lat="49.83121" lon="2.5554">
        <ele>78.5</ele>
        <time>2023-07-02T10:21:32Z</time>
      </trkpt>
      <trkpt lat="49.83119" lon="2.55538">
        <ele>78.4</ele>
        <time>2023-07-02T10:21:34Z</time>
      </trkpt>
      <trkpt lat="49.83119" lon="2.55538">
        <ele>78.3</ele>
        <time>2023-07-02T10:21:35Z</time>
      </trkpt>
      <trkpt lat="49.83118" lon="2.55537">
        <ele>78.3</ele>
        <time>2023-07-02T10:21:36Z</time>
      </trkpt>
      <trkpt lat="49.83116" lon="2.55535">
        <ele>78.2</ele>
        <time>2023-07-02T10:21:37Z</time>
      </trkpt>
      <trkpt lat="49.83115" lon="2.55534">
        <ele>78.1</ele>
        <time>2023-07-02T10:21:38Z</time>
      </trkpt>
      <trkpt lat="49.83115" lon="2.55533">
        <ele>78.1</ele>
        <time>2023-07-02T10:21:39Z</time>
      </trkpt>
      <trkpt lat="49.83114" lon="2.55532">
        <ele>78</ele>
        <time>2023-07-02T10:21:40Z</time>
      </trkpt>
      <trkpt lat="49.83113" lon="2.55531">
        <ele>78</ele>
        <time>2023-07-02T10:21:41Z</time>
      </trkpt>
      <trkpt lat="49.83112" lon="2.5553">
        <ele>77.9</ele>
        <time>2023-07-02T10:21:42Z</time>
      </trkpt>
      <trkpt lat="49.8311" lon="2.55529">
        <ele>77.8</ele>
        <time>2023-07-02T10:21:44Z</time>
      </trkpt>
      <trkpt lat="49.83109" lon="2.55528">
        <ele>77.8</ele>
        <time>2023-07-02T10:21:45Z</time>
      </trkpt>
      <trkpt lat="49.83108" lon="2.55527">
        <ele>77.7</ele>
        <time>2023-07-02T10:21:46Z</time>
      </trkpt>
      <trkpt lat="49.83107" lon="2.55526">
        <ele>77.7</ele>
        <time>2023-07-02T10:21:47Z</time>
      </trkpt>
      <trkpt lat="49.83106" lon="2.55525">
        <ele>77.6</ele>
        <time>2023-07-02T10:21:48Z</time>
      </trkpt>
      <trkpt lat="49.83104" lon="2.55523">
        <ele>77.5</ele>
        <time>2023-07-02T10:21:49Z</time>
      </trkpt>
      <trkpt lat="49.83104" lon="2.55523">
        <ele>77.5</ele>
        <time>2023-07-02T10:21:50Z</time>
      </trkpt>
      <trkpt lat="49.83103" lon="2.55522">
        <ele>77.4</ele>
        <time>2023-07-02T10:21:51Z</time>
      </trkpt>
      <trkpt lat="49.83102" lon="2.55521">
        <ele>77.4</ele>
        <time>2023-07-02T10:21:52Z</time>
      </trkpt>
      <trkpt lat="49.83101" lon="2.5552">
        <ele>77.3</ele>
        <time>2023-07-02T10:21:53Z</time>
      </trkpt>
      <trkpt lat="49.831" lon="2.55519">
        <ele>77.3</ele>
        <time>2023-07-02T10:21:55Z</time>
      </trkpt>
      <trkpt lat="49.83099" lon="2.55518">
        <ele>77.2</ele>
        <time>2023-07-02T10:21:56Z</time>
      </trkpt>
      <trkpt lat="49.83098" lon="2.55516">
        <ele>77.1</ele>
        <time>2023-07-02T10:21:57Z</time>
      </trkpt>
      <trkpt lat="49.83096" lon="2.55514">
        <ele>77</ele>
        <time>2023-07-02T10:21:58Z</time>
      </trkpt>
      <trkpt lat="49.83095" lon="2.55514">
        <ele>77</ele>
        <time>2023-07-02T10:21:59Z</time>
      </trkpt>
      <trkpt lat="49.83095" lon="2.55513">
        <ele>77</ele>
        <time>2023-07-02T10:22:00Z</time>
      </trkpt>
      <trkpt lat="49.83094" lon="2.55512">
        <ele>76.9</ele>
        <time>2023-07-02T10:22:01Z</time>
      </trkpt>
      <trkpt lat="49.83093" lon="2.55511">
        <ele>76.9</ele>
        <time>2023-07-02T10:22:02Z</time>
      </trkpt>
      <trkpt lat="49.83092" lon="2.5551">
        <ele>76.8</ele>
        <time>2023-07-02T10:22:03Z</time>
      </trkpt>
      <trkpt lat="49.8309" lon="2.55508">
        <ele>76.7</ele>
        <time>2023-07-02T10:22:05Z</time>
      </trkpt>
      <trkpt lat="49.8309" lon="2.55507">
        <ele>76.7</ele>
        <time>2023-07-02T10:22:06Z</time>
      </trkpt>
      <trkpt lat="49.83089" lon="2.55507">
        <ele>76.6</ele>
        <time>2023-07-02T10:22:07Z</time>
      </trkpt>
      <trkpt lat="49.83087" lon="2.55505">
        <ele>76.5</ele>
        <time>2023-07-02T10:22:08Z</time>
      </trkpt>
      <trkpt lat="49.83087" lon="2.55504">
        <ele>76.5</ele>
        <time>2023-07-02T10:22:09Z</time>
      </trkpt>
      <trkpt lat="49.83086" lon="2.55503">
        <ele>76.5</ele>
        <time>2023-07-02T10:22:10Z</time>
      </trkpt>
      <trkpt lat="49.83085" lon="2.55502">
        <ele>76.4</ele>
        <time>2023-07-02T10:22:11Z</time>
      </trkpt>
      <trkpt lat="49.83084" lon="2.55501">
        <ele>76.3</ele>
        <time>2023-07-02T10:22:12Z</time>
      </trkpt>
      <trkpt lat="49.83083" lon="2.555">
        <ele>76.3</ele>
        <time>2023-07-02T10:22:13Z</time>
      </trkpt>
      <trkpt lat="49.83081" lon="2.55498">
        <ele>76.2</ele>
        <time>2023-07-02T10:22:14Z</time>
      </trkpt>
      <trkpt lat="49.83081" lon="2.55497">
        <ele>76.1</ele>
        <time>2023-07-02T10:22:16Z</time>
      </trkpt>
      <trkpt lat="49.8308" lon="2.55496">
        <ele>76.1</ele>
        <time>2023-07-02T10:22:17Z</time>
      </trkpt>
      <trkpt lat="49.83079" lon="2.55495">
        <ele>76</ele>
        <time>2023-07-02T10:22:18Z</time>
      </trkpt>
      <trkpt lat="49.83078" lon="2.55494">
        <ele>76</ele>
        <time>2023-07-02T10:22:19Z</time>
      </trkpt>
      <trkpt lat="49.83076" lon="2.55492">
        <ele>75.9</ele>
        <time>2023-07-02T10:22:20Z</time>
      </trkpt>
      <trkpt lat="49.83075" lon="2.55491">
        <ele>75.8</ele>
        <time>2023-07-02T10:22:21Z</time>
      </trkpt>
      <trkpt lat="49.83074" lon="2.5549">
        <ele>75.8</ele>
        <time>2023-07-02T10:22:22Z</time>
      </trkpt>
      <trkpt lat="49.83073" lon="2.55489">
        <ele>75.7</ele>
        <time>2023-07-02T10:22:23Z</time>
      </trkpt>
      <trkpt lat="49.83071" lon="2.55487">
        <ele>75.6</ele>
        <time>2023-07-02T10:22:24Z</time>
      </trkpt>
      <trkpt lat="49.83071" lon="2.55486">
        <ele>75.6</ele>
        <time>2023-07-02T10:22:26Z</time>
      </trkpt>
      <trkpt lat="49.8307" lon="2.55485">
        <ele>75.5</ele>
        <time>2023-07-02T10:22:27Z</time>
      </trkpt>
      <trkpt lat="49.83068" lon="2.55484">
        <ele>75.4</ele>
        <time>2023-07-02T10:22:28Z</time>
      </trkpt>
      <trkpt lat="49.83067" lon="2.55483">
        <ele>75.4</ele>
        <time>2023-07-02T10:22:29Z</time>
      </trkpt>
      <trkpt lat="49.83067" lon="2.55482">
        <ele>75.3</ele>
        <time>2023-07-02T10:22:30Z</time>
      </trkpt>
      <trkpt lat="49.83065" lon="2.55481">
        <ele>75.3</ele>
        <time>2023-07-02T10:22:31Z</time>
      </trkpt>
      <trkpt lat="49.83064" lon="2.5548">
        <ele>75.2</ele>
        <time>2023-07-02T10:22:33Z</time>
      </trkpt>
      <trkpt lat="49.83063" lon="2.55479">
        <ele>75.2</ele>
        <time>2023-07-02T10:22:34Z</time>
      </trkpt>
      <trkpt lat="49.83062" lon="2.55477">
        <ele>75.1</ele>
        <time>2023-07-02T10:22:35Z</time>
      </trkpt>
      <trkpt lat="49.83061" lon="2.55477">
        <ele>75.1</ele>
        <time>2023-07-02T10:22:36Z</time>
      </trkpt>
      <trkpt lat="49.8306" lon="2.55476">
        <ele>75</ele>
        <time>2023-07-02T10:22:37Z</time>
      </trkpt>
      <trkpt lat="49.8306" lon="2.55474">
        <ele>75</ele>
        <time>2023-07-02T10:22:38Z</time>
      </trkpt>
      <trkpt lat="49.83059" lon="2.55473">
        <ele>74.9</ele>
        <time>2023-07-02T10:22:39Z</time>
      </trkpt>
      <trkpt lat="49.83057" lon="2.55471">
        <ele>74.8</ele>
        <time>2023-07-02T10:22:40Z</time>
      </trkpt>
      <trkpt lat="49.83056" lon="2.5547">
        <ele>74.8</ele>
        <time>2023-07-02T10:22:41Z</time>
      </trkpt>
      <trkpt lat="49.83056" lon="2.55469">
        <ele>74.7</ele>
        <time>2023-07-02T10:22:42Z</time>
      </trkpt>
      <trkpt lat="49.83054" lon="2.55467">
        <ele>74.6</ele>
        <time>2023-07-02T10:22:44Z</time>
      </trkpt>
      <trkpt lat="49.83053" lon="2.55466">
        <ele>74.6</ele>
        <time>2023-07-02T10:22:45Z</time>
      </trkpt>
      <trkpt lat="49.83053" lon="2.55465">
        <ele>74.6</ele>
        <time>2023-07-02T10:22:46Z</time>
      </trkpt>
      <trkpt lat="49.83052" lon="2.55464">
        <ele>74.5</ele>
        <time>2023-07-02T10:22:47Z</time>
      </trkpt>
      <trkpt lat="49.83051" lon="2.55463">
        <ele>74.5</ele>
        <time>2023-07-02T10:22:48Z</time>
      </trkpt>
      <trkpt lat="49.8305" lon="2.55462">
        <ele>74.4</ele>
        <time>2023-07-02T10:22:49Z</time>
      </trkpt>
      <trkpt lat="49.83049" lon="2.5546">
        <ele>74.4</ele>
        <time>2023-07-02T10:22:50Z</time>
      </trkpt>
      <trkpt lat="49.83048" lon="2.55459">
        <ele>74.3</ele>
        <time>2023-07-02T10:22:51Z</time>
      </trkpt>
      <trkpt lat="49.83046" lon="2.55457">
        <ele>74.2</ele>
        <time>2023-07-02T10:22:53Z</time>
      </trkpt>
      <trkpt lat="49.83045" lon="2.55456">
        <ele>74.2</ele>
        <time>2023-07-02T10:22:54Z</time>
      </trkpt>
      <trkpt lat="49.83044" lon="2.55454">
        <ele>74.1</ele>
        <time>2023-07-02T10:22:55Z</time>
      </trkpt>
      <trkpt lat="49.83043" lon="2.55453">
        <ele>74</ele>
        <time>2023-07-02T10:22:56Z</time>
      </trkpt>
      <trkpt lat="49.83042" lon="2.55451">
        <ele>74</ele>
        <time>2023-07-02T10:22:58Z</time>
      </trkpt>
      <trkpt lat="49.8304" lon="2.5545">
        <ele>73.9</ele>
        <time>2023-07-02T10:22:59Z</time>
      </trkpt>
      <trkpt lat="49.83039" lon="2.55449">
        <ele>73.8</ele>
        <time>2023-07-02T10:23:00Z</time>
      </trkpt>
      <trkpt lat="49.83039" lon="2.55448">
        <ele>73.8</ele>
        <time>2023-07-02T10:23:01Z</time>
      </trkpt>
      <trkpt lat="49.83037" lon="2.55446">
        <ele>73.7</ele>
        <time>2023-07-02T10:23:02Z</time>
      </trkpt>
      <trkpt lat="49.83036" lon="2.55445">
        <ele>73.7</ele>
        <time>2023-07-02T10:23:03Z</time>
      </trkpt>
      <trkpt lat="49.83035" lon="2.55444">
        <ele>73.6</ele>
        <time>2023-07-02T10:23:04Z</time>
      </trkpt>
      <trkpt lat="49.83034" lon="2.55442">
        <ele>73.6</ele>
        <time>2023-07-02T10:23:06Z</time>
      </trkpt>
      <trkpt lat="49.83033" lon="2.55441">
        <ele>73.5</ele>
        <time>2023-07-02T10:23:07Z</time>
      </trkpt>
      <trkpt lat="49.83032" lon="2.55441">
        <ele>73.5</ele>
        <time>2023-07-02T10:23:08Z</time>
      </trkpt>
      <trkpt lat="49.83032" lon="2.55439">
        <ele>73.4</ele>
        <time>2023-07-02T10:23:09Z</time>
      </trkpt>
      <trkpt lat="49.83031" lon="2.55438">
        <ele>73.4</ele>
        <time>2023-07-02T10:23:10Z</time>
      </trkpt>
      <trkpt lat="49.8303" lon="2.55437">
        <ele>73.3</ele>
        <time>2023-07-02T10:23:11Z</time>
      </trkpt>
      <trkpt lat="49.83029" lon="2.55436">
        <ele>73.3</ele>
        <time>2023-07-02T10:23:12Z</time>
      </trkpt>
      <trkpt lat="49.83028" lon="2.55434">
        <ele>73.2</ele>
        <time>2023-07-02T10:23:13Z</time>
      </trkpt>
      <trkpt lat="49.83027" lon="2.55432">
        <ele>73.2</ele>
        <time>2023-07-02T10:23:14Z</time>
      </trkpt>
      <trkpt lat="49.83026" lon="2.55431">
        <ele>73.1</ele>
        <time>2023-07-02T10:23:16Z</time>
      </trkpt>
      <trkpt lat="49.83025" lon="2.55429">
        <ele>73</ele>
        <time>2023-07-02T10:23:17Z</time>
      </trkpt>
      <trkpt lat="49.83024" lon="2.55428">
        <ele>73</ele>
        <time>2023-07-02T10:23:18Z</time>
      </trkpt>
      <trkpt lat="49.83023" lon="2.55427">
        <ele>72.9</ele>
        <time>2023-07-02T10:23:19Z</time>
      </trkpt>
      <trkpt lat="49.83022" lon="2.55426">
        <ele>72.9</ele>
        <time>2023-07-02T10:23:20Z</time>
      </trkpt>
      <trkpt lat="49.83021" lon="2.55424">
        <ele>72.8</ele>
        <time>2023-07-02T10:23:22Z</time>
      </trkpt>
      <trkpt lat="49.8302" lon="2.55423">
        <ele>72.7</ele>
        <time>2023-07-02T10:23:23Z</time>
      </trkpt>
      <trkpt lat="49.83019" lon="2.55421">
        <ele>72.7</ele>
        <time>2023-07-02T10:23:24Z</time>
      </trkpt>
      <trkpt lat="49.83017" lon="2.5542">
        <ele>72.6</ele>
        <time>2023-07-02T10:23:25Z</time>
      </trkpt>
      <trkpt lat="49.83016" lon="2.55419">
        <ele>72.6</ele>
        <time>2023-07-02T10:23:26Z</time>
      </trkpt>
      <trkpt lat="49.83015" lon="2.55417">
        <ele>72.5</ele>
        <time>2023-07-02T10:23:27Z</time>
      </trkpt>
      <trkpt lat="49.83014" lon="2.55416">
        <ele>72.4</ele>
        <time>2023-07-02T10:23:28Z</time>
      </trkpt>
      <trkpt lat="49.83013" lon="2.55415">
        <ele>72.4</ele>
        <time>2023-07-02T10:23:29Z</time>
      </trkpt>
      <trkpt lat="49.83012" lon="2.55413">
        <ele>72.3</ele>
        <time>2023-07-02T10:23:30Z</time>
      </trkpt>
      <trkpt lat="49.83011" lon="2.55412">
        <ele>72.3</ele>
        <time>2023-07-02T10:23:31Z</time>
      </trkpt>
      <trkpt lat="49.8301" lon="2.55411">
        <ele>72.2</ele>
        <time>2023-07-02T10:23:32Z</time>
      </trkpt>
      <trkpt lat="49.83009" lon="2.5541">
        <ele>72.2</ele>
        <time>2023-07-02T10:23:34Z</time>
      </trkpt>
      <trkpt lat="49.83008" lon="2.55408">
        <ele>72.1</ele>
        <time>2023-07-02T10:23:35Z</time>
      </trkpt>
      <trkpt lat="49.83007" lon="2.55407">
        <ele>72.1</ele>
        <time>2023-07-02T10:23:36Z</time>
      </trkpt>
      <trkpt lat="49.83007" lon="2.55406">
        <ele>72.1</ele>
        <time>2023-07-02T10:23:37Z</time>
      </trkpt>
      <trkpt lat="49.83006" lon="2.55404">
        <ele>72</ele>
        <time>2023-07-02T10:23:38Z</time>
      </trkpt>
      <trkpt lat="49.83005" lon="2.55403">
        <ele>72</ele>
        <time>2023-07-02T10:23:39Z</time>
      </trkpt>
      <trkpt lat="49.83004" lon="2.55402">
        <ele>71.9</ele>
        <time>2023-07-02T10:23:40Z</time>
      </trkpt>
      <trkpt lat="49.83003" lon="2.55401">
        <ele>71.9</ele>
        <time>2023-07-02T10:23:41Z</time>
      </trkpt>
      <trkpt lat="49.83003" lon="2.554">
        <ele>71.9</ele>
        <time>2023-07-02T10:23:42Z</time>
      </trkpt>
      <trkpt lat="49.83002" lon="2.55399">
        <ele>71.8</ele>
        <time>2023-07-02T10:23:44Z</time>
      </trkpt>
      <trkpt lat="49.83001" lon="2.55398">
        <ele>71.8</ele>
        <time>2023-07-02T10:23:45Z</time>
      </trkpt>
      <trkpt lat="49.83" lon="2.55395">
        <ele>71.7</ele>
        <time>2023-07-02T10:23:46Z</time>
      </trkpt>
      <trkpt lat="49.82999" lon="2.55395">
        <ele>71.7</ele>
        <time>2023-07-02T10:23:47Z</time>
      </trkpt>
      <trkpt lat="49.82998" lon="2.55394">
        <ele>71.6</ele>
        <time>2023-07-02T10:23:48Z</time>
      </trkpt>
      <trkpt lat="49.82998" lon="2.55393">
        <ele>71.6</ele>
        <time>2023-07-02T10:23:49Z</time>
      </trkpt>
      <trkpt lat="49.82997" lon="2.55391">
        <ele>71.6</ele>
        <time>2023-07-02T10:23:50Z</time>
      </trkpt>
      <trkpt lat="49.82996" lon="2.5539">
        <ele>71.5</ele>
        <time>2023-07-02T10:23:51Z</time>
      </trkpt>
      <trkpt lat="49.82995" lon="2.55389">
        <ele>71.5</ele>
        <time>2023-07-02T10:23:52Z</time>
      </trkpt>
      <trkpt lat="49.82994" lon="2.55388">
        <ele>71.5</ele>
        <time>2023-07-02T10:23:53Z</time>
      </trkpt>
      <trkpt lat="49.82993" lon="2.55387">
        <ele>71.4</ele>
        <time>2023-07-02T10:23:55Z</time>
      </trkpt>
      <trkpt lat="49.82992" lon="2.55386">
        <ele>71.4</ele>
        <time>2023-07-02T10:23:56Z</time>
      </trkpt>
      <trkpt lat="49.82991" lon="2.55384">
        <ele>71.3</ele>
        <time>2023-07-02T10:23:57Z</time>
      </trkpt>
      <trkpt lat="49.8299" lon="2.55383">
        <ele>71.3</ele>
        <time>2023-07-02T10:23:58Z</time>
      </trkpt>
      <trkpt lat="49.82989" lon="2.55381">
        <ele>71.3</ele>
        <time>2023-07-02T10:23:59Z</time>
      </trkpt>
      <trkpt lat="49.82988" lon="2.55379">
        <ele>71.2</ele>
        <time>2023-07-02T10:24:00Z</time>
      </trkpt>
      <trkpt lat="49.82987" lon="2.55378">
        <ele>71.2</ele>
        <time>2023-07-02T10:24:01Z</time>
      </trkpt>
      <trkpt lat="49.82986" lon="2.55377">
        <ele>71.2</ele>
        <time>2023-07-02T10:24:02Z</time>
      </trkpt>
      <trkpt lat="49.82985" lon="2.55376">
        <ele>71.1</ele>
        <time>2023-07-02T10:24:03Z</time>
      </trkpt>
      <trkpt lat="49.82984" lon="2.55375">
        <ele>71.1</ele>
        <time>2023-07-02T10:24:05Z</time>
      </trkpt>
      <trkpt lat="49.82983" lon="2.55373">
        <ele>71.1</ele>
        <time>2023-07-02T10:24:06Z</time>
      </trkpt>
      <trkpt lat="49.82982" lon="2.55372">
        <ele>71</ele>
        <time>2023-07-02T10:24:07Z</time>
      </trkpt>
      <trkpt lat="49.82981" lon="2.5537">
        <ele>71</ele>
        <time>2023-07-02T10:24:08Z</time>
      </trkpt>
      <trkpt lat="49.8298" lon="2.55369">
        <ele>70.9</ele>
        <time>2023-07-02T10:24:09Z</time>
      </trkpt>
      <trkpt lat="49.82979" lon="2.55368">
        <ele>70.8</ele>
        <time>2023-07-02T10:24:10Z</time>
      </trkpt>
      <trkpt lat="49.82978" lon="2.55367">
        <ele>70.8</ele>
        <time>2023-07-02T10:24:11Z</time>
      </trkpt>
      <trkpt lat="49.82977" lon="2.55368">
        <ele>70.8</ele>
        <time>2023-07-02T10:24:13Z</time>
      </trkpt>
      <trkpt lat="49.82976" lon="2.55369">
        <ele>70.8</ele>
        <time>2023-07-02T10:24:14Z</time>
      </trkpt>
      <trkpt lat="49.82975" lon="2.55371">
        <ele>70.8</ele>
        <time>2023-07-02T10:24:15Z</time>
      </trkpt>
      <trkpt lat="49.82975" lon="2.55374">
        <ele>70.8</ele>
        <time>2023-07-02T10:24:16Z</time>
      </trkpt>
      <trkpt lat="49.82975" lon="2.55376">
        <ele>70.8</ele>
        <time>2023-07-02T10:24:17Z</time>
      </trkpt>
      <trkpt lat="49.82975" lon="2.55378">
        <ele>70.8</ele>
        <time>2023-07-02T10:24:18Z</time>
      </trkpt>
      <trkpt lat="49.82976" lon="2.5538">
        <ele>70.7</ele>
        <time>2023-07-02T10:24:19Z</time>
      </trkpt>
      <trkpt lat="49.82976" lon="2.55382">
        <ele>70.7</ele>
        <time>2023-07-02T10:24:21Z</time>
      </trkpt>
      <trkpt lat="49.82977" lon="2.55385">
        <ele>70.7</ele>
        <time>2023-07-02T10:24:22Z</time>
      </trkpt>
      <trkpt lat="49.82978" lon="2.55387">
        <ele>70.7</ele>
        <time>2023-07-02T10:24:23Z</time>
      </trkpt>
      <trkpt lat="49.82978" lon="2.55389">
        <ele>70.7</ele>
        <time>2023-07-02T10:24:24Z</time>
      </trkpt>
      <trkpt lat="49.82979" lon="2.55391">
        <ele>70.7</ele>
        <time>2023-07-02T10:24:25Z</time>
      </trkpt>
      <trkpt lat="49.8298" lon="2.55393">
        <ele>70.7</ele>
        <time>2023-07-02T10:24:26Z</time>
      </trkpt>
      <trkpt lat="49.8298" lon="2.55395">
        <ele>70.7</ele>
        <time>2023-07-02T10:24:27Z</time>
      </trkpt>
      <trkpt lat="49.8298" lon="2.55397">
        <ele>70.7</ele>
        <time>2023-07-02T10:24:28Z</time>
      </trkpt>
      <trkpt lat="49.82981" lon="2.55399">
        <ele>70.7</ele>
        <time>2023-07-02T10:24:30Z</time>
      </trkpt>
      <trkpt lat="49.82981" lon="2.55401">
        <ele>70.7</ele>
        <time>2023-07-02T10:24:31Z</time>
      </trkpt>
      <trkpt lat="49.82981" lon="2.55404">
        <ele>70.7</ele>
        <time>2023-07-02T10:24:32Z</time>
      </trkpt>
      <trkpt lat="49.82982" lon="2.55406">
        <ele>70.7</ele>
        <time>2023-07-02T10:24:33Z</time>
      </trkpt>
      <trkpt lat="49.82982" lon="2.55408">
        <ele>70.7</ele>
        <time>2023-07-02T10:24:34Z</time>
      </trkpt>
      <trkpt lat="49.82983" lon="2.5541">
        <ele>70.7</ele>
        <time>2023-07-02T10:24:36Z</time>
      </trkpt>
      <trkpt lat="49.82983" lon="2.55412">
        <ele>70.7</ele>
        <time>2023-07-02T10:24:37Z</time>
      </trkpt>
      <trkpt lat="49.82984" lon="2.55415">
        <ele>70.8</ele>
        <time>2023-07-02T10:24:38Z</time>
      </trkpt>
      <trkpt lat="49.82985" lon="2.55416">
        <ele>70.8</ele>
        <time>2023-07-02T10:24:39Z</time>
      </trkpt>
      <trkpt lat="49.82985" lon="2.55418">
        <ele>70.8</ele>
        <time>2023-07-02T10:24:40Z</time>
      </trkpt>
      <trkpt lat="49.82985" lon="2.5542">
        <ele>70.8</ele>
        <time>2023-07-02T10:24:41Z</time>
      </trkpt>
      <trkpt lat="49.82986" lon="2.55422">
        <ele>70.8</ele>
        <time>2023-07-02T10:24:42Z</time>
      </trkpt>
      <trkpt lat="49.82986" lon="2.55424">
        <ele>70.8</ele>
        <time>2023-07-02T10:24:44Z</time>
      </trkpt>
      <trkpt lat="49.82987" lon="2.55427">
        <ele>70.8</ele>
        <time>2023-07-02T10:24:45Z</time>
      </trkpt>
      <trkpt lat="49.82987" lon="2.55428">
        <ele>70.8</ele>
        <time>2023-07-02T10:24:46Z</time>
      </trkpt>
      <trkpt lat="49.82987" lon="2.5543">
        <ele>70.8</ele>
        <time>2023-07-02T10:24:47Z</time>
      </trkpt>
      <trkpt lat="49.82987" lon="2.55432">
        <ele>70.8</ele>
        <time>2023-07-02T10:24:48Z</time>
      </trkpt>
      <trkpt lat="49.82988" lon="2.55434">
        <ele>70.8</ele>
        <time>2023-07-02T10:24:49Z</time>
      </trkpt>
      <trkpt lat="49.82988" lon="2.55436">
        <ele>70.8</ele>
        <time>2023-07-02T10:24:50Z</time>
      </trkpt>
      <trkpt lat="49.82988" lon="2.55438">
        <ele>70.8</ele>
        <time>2023-07-02T10:24:51Z</time>
      </trkpt>
      <trkpt lat="49.82989" lon="2.55441">
        <ele>70.8</ele>
        <time>2023-07-02T10:24:53Z</time>
      </trkpt>
      <trkpt lat="49.82988" lon="2.55443">
        <ele>70.8</ele>
        <time>2023-07-02T10:24:54Z</time>
      </trkpt>
      <trkpt lat="49.82988" lon="2.55444">
        <ele>70.8</ele>
        <time>2023-07-02T10:24:55Z</time>
      </trkpt>
      <trkpt lat="49.82987" lon="2.55445">
        <ele>70.8</ele>
        <time>2023-07-02T10:24:57Z</time>
      </trkpt>
      <trkpt lat="49.82987" lon="2.55446">
        <ele>70.8</ele>
        <time>2023-07-02T10:24:58Z</time>
      </trkpt>
      <trkpt lat="49.82986" lon="2.55446">
        <ele>70.8</ele>
        <time>2023-07-02T10:24:59Z</time>
      </trkpt>
      <trkpt lat="49.82986" lon="2.55446">
        <ele>70.8</ele>
        <time>2023-07-02T10:25:01Z</time>
      </trkpt>
      <trkpt lat="49.82986" lon="2.55446">
        <ele>70.8</ele>
        <time>2023-07-02T10:25:02Z</time>
      </trkpt>
      <trkpt lat="49.82986" lon="2.55446">
        <ele>70.8</ele>
        <time>2023-07-02T10:25:03Z</time>
      </trkpt>
      <trkpt lat="49.82986" lon="2.55445">
        <ele>70.8</ele>
        <time>2023-07-02T10:25:05Z</time>
      </trkpt>
      <trkpt lat="49.82986" lon="2.55445">
        <ele>70.8</ele>
        <time>2023-07-02T10:25:06Z</time>
      </trkpt>
      <trkpt lat="49.82985" lon="2.55445">
        <ele>70.8</ele>
        <time>2023-07-02T10:25:08Z</time>
      </trkpt>
      <trkpt lat="49.82985" lon="2.55445">
        <ele>70.8</ele>
        <time>2023-07-02T10:25:09Z</time>
      </trkpt>
      <trkpt lat="49.82985" lon="2.55445">
        <ele>70.8</ele>
        <time>2023-07-02T10:25:11Z</time>
      </trkpt>
      <trkpt lat="49.82985" lon="2.55445">
        <ele>70.8</ele>
        <time>2023-07-02T10:25:12Z</time>
      </trkpt>
      <trkpt lat="49.82985" lon="2.55445">
        <ele>70.8</ele>
        <time>2023-07-02T10:25:13Z</time>
      </trkpt>
      <trkpt lat="49.82986" lon="2.55444">
        <ele>70.8</ele>
        <time>2023-07-02T10:25:14Z</time>
      </trkpt>
      <trkpt lat="49.82986" lon="2.55444">
        <ele>70.8</ele>
        <time>2023-07-02T10:25:15Z</time>
      </trkpt>
      <trkpt lat="49.82986" lon="2.55444">
        <ele>70.8</ele>
        <time>2023-07-02T10:25:16Z</time>
      </trkpt>
      <trkpt lat="49.82986" lon="2.55444">
        <ele>70.8</ele>
        <time>2023-07-02T10:25:17Z</time>
      </trkpt>
      <trkpt lat="49.82986" lon="2.55444">
        <ele>70.8</ele>
        <time>2023-07-02T10:25:18Z</time>
      </trkpt>
      <trkpt lat="49.82986" lon="2.55444">
        <ele>70.8</ele>
        <time>2023-07-02T10:25:19Z</time>
      </trkpt>
      <trkpt lat="49.82986" lon="2.55444">
        <ele>70.8</ele>
        <time>2023-07-02T10:25:20Z</time>
      </trkpt>
      <trkpt lat="49.82986" lon="2.55444">
        <ele>70.8</ele>
        <time>2023-07-02T10:25:21Z</time>
      </trkpt>
      <trkpt lat="49.82986" lon="2.55444">
        <ele>70.8</ele>
        <time>2023-07-02T10:25:22Z</time>
      </trkpt>
      <trkpt lat="49.82986" lon="2.55444">
        <ele>70.8</ele>
        <time>2023-07-02T10:25:23Z</time>
      </trkpt>
      <trkpt lat="49.82986" lon="2.55444">
        <ele>70.8</ele>
        <time>2023-07-02T10:25:24Z</time>
      </trkpt>
      <trkpt lat="49.82986" lon="2.55444">
        <ele>70.8</ele>
        <time>2023-07-02T10:25:25Z</time>
      </trkpt>
      <trkpt lat="49.82986" lon="2.55444">
        <ele>70.8</ele>
        <time>2023-07-02T10:25:26Z</time>
      </trkpt>
      <trkpt lat="49.82986" lon="2.55444">
        <ele>70.8</ele>
        <time>2023-07-02T10:25:27Z</time>
      </trkpt>
      <trkpt lat="49.82986" lon="2.55443">
        <ele>70.8</ele>
        <time>2023-07-02T10:25:28Z</time>
      </trkpt>
      <trkpt lat="49.82986" lon="2.55443">
        <ele>70.8</ele>
        <time>2023-07-02T10:25:29Z</time>
      </trkpt>
      <trkpt lat="49.82986" lon="2.55443">
        <ele>70.8</ele>
        <time>2023-07-02T10:25:30Z</time>
      </trkpt>
      <trkpt lat="49.82986" lon="2.55443">
        <ele>70.8</ele>
        <time>2023-07-02T10:25:32Z</time>
      </trkpt>
      <trkpt lat="49.82986" lon="2.55443">
        <ele>70.8</ele>
        <time>2023-07-02T10:25:33Z</time>
      </trkpt>
      <trkpt lat="49.82986" lon="2.55443">
        <ele>70.8</ele>
        <time>2023-07-02T10:25:34Z</time>
      </trkpt>
      <trkpt lat="49.82986" lon="2.55443">
        <ele>70.8</ele>
        <time>2023-07-02T10:25:35Z</time>
      </trkpt>
      <trkpt lat="49.82986" lon="2.55443">
        <ele>70.8</ele>
        <time>2023-07-02T10:25:37Z</time>
      </trkpt>
      <trkpt lat="49.82986" lon="2.55443">
        <ele>70.8</ele>
        <time>2023-07-02T10:25:38Z</time>
      </trkpt>
      <trkpt lat="49.82986" lon="2.55443">
        <ele>70.8</ele>
        <time>2023-07-02T10:25:39Z</time>
      </trkpt>
      <trkpt lat="49.82986" lon="2.55443">
        <ele>70.8</ele>
        <time>2023-07-02T10:25:40Z</time>
      </trkpt>
      <trkpt lat="49.82986" lon="2.55443">
        <ele>70.8</ele>
        <time>2023-07-02T10:25:41Z</time>
      </trkpt>
      <trkpt lat="49.82986" lon="2.55443">
        <ele>70.8</ele>
        <time>2023-07-02T10:25:42Z</time>
      </trkpt>
      <trkpt lat="49.82986" lon="2.55443">
        <ele>70.8</ele>
        <time>2023-07-02T10:25:43Z</time>
      </trkpt>
      <trkpt lat="49.82986" lon="2.55443">
        <ele>70.8</ele>
        <time>2023-07-02T10:25:44Z</time>
      </trkpt>
      <trkpt lat="49.82986" lon="2.55443">
        <ele>70.8</ele>
        <time>2023-07-02T10:25:45Z</time>
      </trkpt>
      <trkpt lat="49.82986" lon="2.55443">
        <ele>70.8</ele>
        <time>2023-07-02T10:25:46Z</time>
      </trkpt>
      <trkpt lat="49.82986" lon="2.55443">
        <ele>70.8</ele>
        <time>2023-07-02T10:25:47Z</time>
      </trkpt>
      <trkpt lat="49.82986" lon="2.55443">
        <ele>70.8</ele>
        <time>2023-07-02T10:25:48Z</time>
      </trkpt>
      <trkpt lat="49.82986" lon="2.55443">
        <ele>70.8</ele>
        <time>2023-07-02T10:25:49Z</time>
      </trkpt>
      <trkpt lat="49.82986" lon="2.55443">
        <ele>70.8</ele>
        <time>2023-07-02T10:25:50Z</time>
      </trkpt>
      <trkpt lat="49.82986" lon="2.55441">
        <ele>70.8</ele>
        <time>2023-07-02T10:25:51Z</time>
      </trkpt>
      <trkpt lat="49.82987" lon="2.55439">
        <ele>70.8</ele>
        <time>2023-07-02T10:25:52Z</time>
      </trkpt>
      <trkpt lat="49.82987" lon="2.55437">
        <ele>70.8</ele>
        <time>2023-07-02T10:25:53Z</time>
      </trkpt>
      <trkpt lat="49.82987" lon="2.55436">
        <ele>70.8</ele>
        <time>2023-07-02T10:25:54Z</time>
      </trkpt>
      <trkpt lat="49.82986" lon="2.55434">
        <ele>70.8</ele>
        <time>2023-07-02T10:25:55Z</time>
      </trkpt>
      <trkpt lat="49.82986" lon="2.55431">
        <ele>70.8</ele>
        <time>2023-07-02T10:25:57Z</time>
      </trkpt>
      <trkpt lat="49.82986" lon="2.55429">
        <ele>70.8</ele>
        <time>2023-07-02T10:25:58Z</time>
      </trkpt>
      <trkpt lat="49.82986" lon="2.55428">
        <ele>70.8</ele>
        <time>2023-07-02T10:25:59Z</time>
      </trkpt>
      <trkpt lat="49.82986" lon="2.55424">
        <ele>70.8</ele>
        <time>2023-07-02T10:26:01Z</time>
      </trkpt>
      <trkpt lat="49.82985" lon="2.5542">
        <ele>70.8</ele>
        <time>2023-07-02T10:26:03Z</time>
      </trkpt>
      <trkpt lat="49.82985" lon="2.55419">
        <ele>70.8</ele>
        <time>2023-07-02T10:26:05Z</time>
      </trkpt>
      <trkpt lat="49.82985" lon="2.55419">
        <ele>70.8</ele>
        <time>2023-07-02T10:26:06Z</time>
      </trkpt>
      <trkpt lat="49.82985" lon="2.55419">
        <ele>70.8</ele>
        <time>2023-07-02T10:26:08Z</time>
      </trkpt>
      <trkpt lat="49.82985" lon="2.55419">
        <ele>70.8</ele>
        <time>2023-07-02T10:26:09Z</time>
      </trkpt>
      <trkpt lat="49.82985" lon="2.55418">
        <ele>70.8</ele>
        <time>2023-07-02T10:26:11Z</time>
      </trkpt>
      <trkpt lat="49.82985" lon="2.55418">
        <ele>70.8</ele>
        <time>2023-07-02T10:26:12Z</time>
      </trkpt>
      <trkpt lat="49.82985" lon="2.55418">
        <ele>70.8</ele>
        <time>2023-07-02T10:26:13Z</time>
      </trkpt>
      <trkpt lat="49.82985" lon="2.55418">
        <ele>70.8</ele>
        <time>2023-07-02T10:26:15Z</time>
      </trkpt>
      <trkpt lat="49.82985" lon="2.55418">
        <ele>70.8</ele>
        <time>2023-07-02T10:26:16Z</time>
      </trkpt>
      <trkpt lat="49.82984" lon="2.55417">
        <ele>70.7</ele>
        <time>2023-07-02T10:26:17Z</time>
      </trkpt>
      <trkpt lat="49.82984" lon="2.55417">
        <ele>70.7</ele>
        <time>2023-07-02T10:26:19Z</time>
      </trkpt>
      <trkpt lat="49.82984" lon="2.55417">
        <ele>70.7</ele>
        <time>2023-07-02T10:26:20Z</time>
      </trkpt>
      <trkpt lat="49.82984" lon="2.55417">
        <ele>70.7</ele>
        <time>2023-07-02T10:26:21Z</time>
      </trkpt>
      <trkpt lat="49.82984" lon="2.55417">
        <ele>70.7</ele>
        <time>2023-07-02T10:26:22Z</time>
      </trkpt>
      <trkpt lat="49.82984" lon="2.55416">
        <ele>70.7</ele>
        <time>2023-07-02T10:26:23Z</time>
      </trkpt>
      <trkpt lat="49.82984" lon="2.55416">
        <ele>70.7</ele>
        <time>2023-07-02T10:26:24Z</time>
      </trkpt>
      <trkpt lat="49.82984" lon="2.55416">
        <ele>70.7</ele>
        <time>2023-07-02T10:26:25Z</time>
      </trkpt>
      <trkpt lat="49.82984" lon="2.55416">
        <ele>70.7</ele>
        <time>2023-07-02T10:26:26Z</time>
      </trkpt>
      <trkpt lat="49.82983" lon="2.55415">
        <ele>70.7</ele>
        <time>2023-07-02T10:26:28Z</time>
      </trkpt>
      <trkpt lat="49.82983" lon="2.55415">
        <ele>70.7</ele>
        <time>2023-07-02T10:26:29Z</time>
      </trkpt>
      <trkpt lat="49.82983" lon="2.55415">
        <ele>70.7</ele>
        <time>2023-07-02T10:26:30Z</time>
      </trkpt>
      <trkpt lat="49.82983" lon="2.55411">
        <ele>70.7</ele>
        <time>2023-07-02T10:26:31Z</time>
      </trkpt>
      <trkpt lat="49.82983" lon="2.5541">
        <ele>70.7</ele>
        <time>2023-07-02T10:26:32Z</time>
      </trkpt>
      <trkpt lat="49.82983" lon="2.55408">
        <ele>70.7</ele>
        <time>2023-07-02T10:26:33Z</time>
      </trkpt>
      <trkpt lat="49.82982" lon="2.55406">
        <ele>70.7</ele>
        <time>2023-07-02T10:26:34Z</time>
      </trkpt>
      <trkpt lat="49.82982" lon="2.55405">
        <ele>70.7</ele>
        <time>2023-07-02T10:26:36Z</time>
      </trkpt>
      <trkpt lat="49.82982" lon="2.55403">
        <ele>70.7</ele>
        <time>2023-07-02T10:26:37Z</time>
      </trkpt>
      <trkpt lat="49.82982" lon="2.55402">
        <ele>70.7</ele>
        <time>2023-07-02T10:26:38Z</time>
      </trkpt>
      <trkpt lat="49.82982" lon="2.55401">
        <ele>70.7</ele>
        <time>2023-07-02T10:26:39Z</time>
      </trkpt>
      <trkpt lat="49.82981" lon="2.55399">
        <ele>70.7</ele>
        <time>2023-07-02T10:26:40Z</time>
      </trkpt>
      <trkpt lat="49.82981" lon="2.55397">
        <ele>70.7</ele>
        <time>2023-07-02T10:26:41Z</time>
      </trkpt>
      <trkpt lat="49.82981" lon="2.55397">
        <ele>70.7</ele>
        <time>2023-07-02T10:26:42Z</time>
      </trkpt>
      <trkpt lat="49.82981" lon="2.55396">
        <ele>70.7</ele>
        <time>2023-07-02T10:26:43Z</time>
      </trkpt>
      <trkpt lat="49.82981" lon="2.55394">
        <ele>70.7</ele>
        <time>2023-07-02T10:26:45Z</time>
      </trkpt>
      <trkpt lat="49.8298" lon="2.55392">
        <ele>70.7</ele>
        <time>2023-07-02T10:26:46Z</time>
      </trkpt>
      <trkpt lat="49.82979" lon="2.55389">
        <ele>70.7</ele>
        <time>2023-07-02T10:26:47Z</time>
      </trkpt>
      <trkpt lat="49.82979" lon="2.55387">
        <ele>70.7</ele>
        <time>2023-07-02T10:26:48Z</time>
      </trkpt>
      <trkpt lat="49.82979" lon="2.55386">
        <ele>70.7</ele>
        <time>2023-07-02T10:26:49Z</time>
      </trkpt>
      <trkpt lat="49.82978" lon="2.55382">
        <ele>70.8</ele>
        <time>2023-07-02T10:26:51Z</time>
      </trkpt>
      <trkpt lat="49.82977" lon="2.5538">
        <ele>70.8</ele>
        <time>2023-07-02T10:26:52Z</time>
      </trkpt>
      <trkpt lat="49.82977" lon="2.55376">
        <ele>70.8</ele>
        <time>2023-07-02T10:26:53Z</time>
      </trkpt>
      <trkpt lat="49.82977" lon="2.55374">
        <ele>70.8</ele>
        <time>2023-07-02T10:26:54Z</time>
      </trkpt>
      <trkpt lat="49.82978" lon="2.55372">
        <ele>70.8</ele>
        <time>2023-07-02T10:26:55Z</time>
      </trkpt>
      <trkpt lat="49.82978" lon="2.5537">
        <ele>70.8</ele>
        <time>2023-07-02T10:26:56Z</time>
      </trkpt>
      <trkpt lat="49.82978" lon="2.55368">
        <ele>70.9</ele>
        <time>2023-07-02T10:26:58Z</time>
      </trkpt>
      <trkpt lat="49.82979" lon="2.55365">
        <ele>70.9</ele>
        <time>2023-07-02T10:26:59Z</time>
      </trkpt>
      <trkpt lat="49.8298" lon="2.55363">
        <ele>70.9</ele>
        <time>2023-07-02T10:27:00Z</time>
      </trkpt>
      <trkpt lat="49.8298" lon="2.55361">
        <ele>70.9</ele>
        <time>2023-07-02T10:27:01Z</time>
      </trkpt>
      <trkpt lat="49.8298" lon="2.55359">
        <ele>70.9</ele>
        <time>2023-07-02T10:27:02Z</time>
      </trkpt>
      <trkpt lat="49.8298" lon="2.55357">
        <ele>70.9</ele>
        <time>2023-07-02T10:27:03Z</time>
      </trkpt>
      <trkpt lat="49.8298" lon="2.55355">
        <ele>70.8</ele>
        <time>2023-07-02T10:27:05Z</time>
      </trkpt>
      <trkpt lat="49.8298" lon="2.55352">
        <ele>70.8</ele>
        <time>2023-07-02T10:27:06Z</time>
      </trkpt>
      <trkpt lat="49.8298" lon="2.55351">
        <ele>70.8</ele>
        <time>2023-07-02T10:27:07Z</time>
      </trkpt>
      <trkpt lat="49.82981" lon="2.55349">
        <ele>70.8</ele>
        <time>2023-07-02T10:27:08Z</time>
      </trkpt>
      <trkpt lat="49.8298" lon="2.55346">
        <ele>70.7</ele>
        <time>2023-07-02T10:27:09Z</time>
      </trkpt>
      <trkpt lat="49.8298" lon="2.55344">
        <ele>70.7</ele>
        <time>2023-07-02T10:27:11Z</time>
      </trkpt>
      <trkpt lat="49.8298" lon="2.55343">
        <ele>70.7</ele>
        <time>2023-07-02T10:27:12Z</time>
      </trkpt>
      <trkpt lat="49.82979" lon="2.55341">
        <ele>70.6</ele>
        <time>2023-07-02T10:27:13Z</time>
      </trkpt>
      <trkpt lat="49.82979" lon="2.5534">
        <ele>70.6</ele>
        <time>2023-07-02T10:27:14Z</time>
      </trkpt>
      <trkpt lat="49.82979" lon="2.55337">
        <ele>70.6</ele>
        <time>2023-07-02T10:27:15Z</time>
      </trkpt>
      <trkpt lat="49.82979" lon="2.55335">
        <ele>70.6</ele>
        <time>2023-07-02T10:27:16Z</time>
      </trkpt>
      <trkpt lat="49.82979" lon="2.55333">
        <ele>70.5</ele>
        <time>2023-07-02T10:27:18Z</time>
      </trkpt>
      <trkpt lat="49.8298" lon="2.55332">
        <ele>70.5</ele>
        <time>2023-07-02T10:27:19Z</time>
      </trkpt>
      <trkpt lat="49.8298" lon="2.5533">
        <ele>70.5</ele>
        <time>2023-07-02T10:27:20Z</time>
      </trkpt>
      <trkpt lat="49.8298" lon="2.55329">
        <ele>70.5</ele>
        <time>2023-07-02T10:27:21Z</time>
      </trkpt>
      <trkpt lat="49.8298" lon="2.55327">
        <ele>70.4</ele>
        <time>2023-07-02T10:27:22Z</time>
      </trkpt>
      <trkpt lat="49.82981" lon="2.55325">
        <ele>70.4</ele>
        <time>2023-07-02T10:27:23Z</time>
      </trkpt>
      <trkpt lat="49.82981" lon="2.55322">
        <ele>70.3</ele>
        <time>2023-07-02T10:27:24Z</time>
      </trkpt>
      <trkpt lat="49.82981" lon="2.5532">
        <ele>70.3</ele>
        <time>2023-07-02T10:27:26Z</time>
      </trkpt>
      <trkpt lat="49.82981" lon="2.55319">
        <ele>70.3</ele>
        <time>2023-07-02T10:27:27Z</time>
      </trkpt>
      <trkpt lat="49.82981" lon="2.55316">
        <ele>70.3</ele>
        <time>2023-07-02T10:27:28Z</time>
      </trkpt>
      <trkpt lat="49.82981" lon="2.55315">
        <ele>70.3</ele>
        <time>2023-07-02T10:27:29Z</time>
      </trkpt>
      <trkpt lat="49.82981" lon="2.55313">
        <ele>70.2</ele>
        <time>2023-07-02T10:27:30Z</time>
      </trkpt>
      <trkpt lat="49.82981" lon="2.5531">
        <ele>70.2</ele>
        <time>2023-07-02T10:27:31Z</time>
      </trkpt>
      <trkpt lat="49.82981" lon="2.55309">
        <ele>70.2</ele>
        <time>2023-07-02T10:27:32Z</time>
      </trkpt>
      <trkpt lat="49.82981" lon="2.55307">
        <ele>70.2</ele>
        <time>2023-07-02T10:27:33Z</time>
      </trkpt>
      <trkpt lat="49.82981" lon="2.55304">
        <ele>70.1</ele>
        <time>2023-07-02T10:27:34Z</time>
      </trkpt>
      <trkpt lat="49.82981" lon="2.55302">
        <ele>70.1</ele>
        <time>2023-07-02T10:27:36Z</time>
      </trkpt>
      <trkpt lat="49.82981" lon="2.55301">
        <ele>70.1</ele>
        <time>2023-07-02T10:27:37Z</time>
      </trkpt>
      <trkpt lat="49.82981" lon="2.55299">
        <ele>70.1</ele>
        <time>2023-07-02T10:27:38Z</time>
      </trkpt>
      <trkpt lat="49.82981" lon="2.55298">
        <ele>70.1</ele>
        <time>2023-07-02T10:27:39Z</time>
      </trkpt>
      <trkpt lat="49.82981" lon="2.55296">
        <ele>70.1</ele>
        <time>2023-07-02T10:27:40Z</time>
      </trkpt>
      <trkpt lat="49.82981" lon="2.55293">
        <ele>70.1</ele>
        <time>2023-07-02T10:27:41Z</time>
      </trkpt>
      <trkpt lat="49.82981" lon="2.55291">
        <ele>70.1</ele>
        <time>2023-07-02T10:27:42Z</time>
      </trkpt>
      <trkpt lat="49.82981" lon="2.5529">
        <ele>70.1</ele>
        <time>2023-07-02T10:27:43Z</time>
      </trkpt>
      <trkpt lat="49.82981" lon="2.55287">
        <ele>70.1</ele>
        <time>2023-07-02T10:27:45Z</time>
      </trkpt>
      <trkpt lat="49.82981" lon="2.55286">
        <ele>70.1</ele>
        <time>2023-07-02T10:27:46Z</time>
      </trkpt>
      <trkpt lat="49.82981" lon="2.55285">
        <ele>70.1</ele>
        <time>2023-07-02T10:27:47Z</time>
      </trkpt>
      <trkpt lat="49.82981" lon="2.55283">
        <ele>70.1</ele>
        <time>2023-07-02T10:27:48Z</time>
      </trkpt>
      <trkpt lat="49.82981" lon="2.55281">
        <ele>70.1</ele>
        <time>2023-07-02T10:27:49Z</time>
      </trkpt>
      <trkpt lat="49.8298" lon="2.55279">
        <ele>70.1</ele>
        <time>2023-07-02T10:27:50Z</time>
      </trkpt>
      <trkpt lat="49.8298" lon="2.55278">
        <ele>70.1</ele>
        <time>2023-07-02T10:27:51Z</time>
      </trkpt>
      <trkpt lat="49.8298" lon="2.55276">
        <ele>70.1</ele>
        <time>2023-07-02T10:27:53Z</time>
      </trkpt>
      <trkpt lat="49.8298" lon="2.55274">
        <ele>70.1</ele>
        <time>2023-07-02T10:27:54Z</time>
      </trkpt>
      <trkpt lat="49.8298" lon="2.55273">
        <ele>70.1</ele>
        <time>2023-07-02T10:27:55Z</time>
      </trkpt>
      <trkpt lat="49.8298" lon="2.55271">
        <ele>70.1</ele>
        <time>2023-07-02T10:27:56Z</time>
      </trkpt>
      <trkpt lat="49.8298" lon="2.55269">
        <ele>70.1</ele>
        <time>2023-07-02T10:27:57Z</time>
      </trkpt>
      <trkpt lat="49.8298" lon="2.55266">
        <ele>70.1</ele>
        <time>2023-07-02T10:27:58Z</time>
      </trkpt>
      <trkpt lat="49.8298" lon="2.55265">
        <ele>70.1</ele>
        <time>2023-07-02T10:27:59Z</time>
      </trkpt>
      <trkpt lat="49.8298" lon="2.55263">
        <ele>70.1</ele>
        <time>2023-07-02T10:28:00Z</time>
      </trkpt>
      <trkpt lat="49.8298" lon="2.5526">
        <ele>70.2</ele>
        <time>2023-07-02T10:28:02Z</time>
      </trkpt>
      <trkpt lat="49.8298" lon="2.55259">
        <ele>70.2</ele>
        <time>2023-07-02T10:28:03Z</time>
      </trkpt>
      <trkpt lat="49.8298" lon="2.55257">
        <ele>70.2</ele>
        <time>2023-07-02T10:28:04Z</time>
      </trkpt>
      <trkpt lat="49.8298" lon="2.55254">
        <ele>70.2</ele>
        <time>2023-07-02T10:28:05Z</time>
      </trkpt>
      <trkpt lat="49.8298" lon="2.55253">
        <ele>70.2</ele>
        <time>2023-07-02T10:28:06Z</time>
      </trkpt>
      <trkpt lat="49.8298" lon="2.55252">
        <ele>70.2</ele>
        <time>2023-07-02T10:28:07Z</time>
      </trkpt>
      <trkpt lat="49.8298" lon="2.55248">
        <ele>70.2</ele>
        <time>2023-07-02T10:28:08Z</time>
      </trkpt>
      <trkpt lat="49.8298" lon="2.55247">
        <ele>70.2</ele>
        <time>2023-07-02T10:28:10Z</time>
      </trkpt>
      <trkpt lat="49.8298" lon="2.55246">
        <ele>70.3</ele>
        <time>2023-07-02T10:28:11Z</time>
      </trkpt>
      <trkpt lat="49.8298" lon="2.55243">
        <ele>70.3</ele>
        <time>2023-07-02T10:28:12Z</time>
      </trkpt>
      <trkpt lat="49.8298" lon="2.55241">
        <ele>70.3</ele>
        <time>2023-07-02T10:28:13Z</time>
      </trkpt>
      <trkpt lat="49.8298" lon="2.5524">
        <ele>70.3</ele>
        <time>2023-07-02T10:28:14Z</time>
      </trkpt>
      <trkpt lat="49.8298" lon="2.55238">
        <ele>70.3</ele>
        <time>2023-07-02T10:28:15Z</time>
      </trkpt>
      <trkpt lat="49.8298" lon="2.55236">
        <ele>70.3</ele>
        <time>2023-07-02T10:28:16Z</time>
      </trkpt>
      <trkpt lat="49.82979" lon="2.55234">
        <ele>70.3</ele>
        <time>2023-07-02T10:28:18Z</time>
      </trkpt>
      <trkpt lat="49.8298" lon="2.5523">
        <ele>70.3</ele>
        <time>2023-07-02T10:28:19Z</time>
      </trkpt>
      <trkpt lat="49.8298" lon="2.55229">
        <ele>70.3</ele>
        <time>2023-07-02T10:28:20Z</time>
      </trkpt>
      <trkpt lat="49.8298" lon="2.55228">
        <ele>70.3</ele>
        <time>2023-07-02T10:28:21Z</time>
      </trkpt>
      <trkpt lat="49.8298" lon="2.55226">
        <ele>70.4</ele>
        <time>2023-07-02T10:28:22Z</time>
      </trkpt>
      <trkpt lat="49.8298" lon="2.55224">
        <ele>70.4</ele>
        <time>2023-07-02T10:28:23Z</time>
      </trkpt>
      <trkpt lat="49.8298" lon="2.5522">
        <ele>70.4</ele>
        <time>2023-07-02T10:28:24Z</time>
      </trkpt>
      <trkpt lat="49.8298" lon="2.55219">
        <ele>70.4</ele>
        <time>2023-07-02T10:28:26Z</time>
      </trkpt>
      <trkpt lat="49.8298" lon="2.55218">
        <ele>70.4</ele>
        <time>2023-07-02T10:28:27Z</time>
      </trkpt>
      <trkpt lat="49.8298" lon="2.55216">
        <ele>70.4</ele>
        <time>2023-07-02T10:28:28Z</time>
      </trkpt>
      <trkpt lat="49.8298" lon="2.55214">
        <ele>70.4</ele>
        <time>2023-07-02T10:28:29Z</time>
      </trkpt>
      <trkpt lat="49.8298" lon="2.55212">
        <ele>70.4</ele>
        <time>2023-07-02T10:28:30Z</time>
      </trkpt>
      <trkpt lat="49.8298" lon="2.5521">
        <ele>70.4</ele>
        <time>2023-07-02T10:28:31Z</time>
      </trkpt>
      <trkpt lat="49.8298" lon="2.55209">
        <ele>70.4</ele>
        <time>2023-07-02T10:28:32Z</time>
      </trkpt>
      <trkpt lat="49.82981" lon="2.55206">
        <ele>70.5</ele>
        <time>2023-07-02T10:28:34Z</time>
      </trkpt>
      <trkpt lat="49.82981" lon="2.55202">
        <ele>70.5</ele>
        <time>2023-07-02T10:28:35Z</time>
      </trkpt>
      <trkpt lat="49.82981" lon="2.55201">
        <ele>70.5</ele>
        <time>2023-07-02T10:28:36Z</time>
      </trkpt>
      <trkpt lat="49.82981" lon="2.552">
        <ele>70.5</ele>
        <time>2023-07-02T10:28:37Z</time>
      </trkpt>
      <trkpt lat="49.82982" lon="2.55197">
        <ele>70.5</ele>
        <time>2023-07-02T10:28:38Z</time>
      </trkpt>
      <trkpt lat="49.82982" lon="2.55195">
        <ele>70.5</ele>
        <time>2023-07-02T10:28:40Z</time>
      </trkpt>
      <trkpt lat="49.82982" lon="2.55194">
        <ele>70.6</ele>
        <time>2023-07-02T10:28:41Z</time>
      </trkpt>
      <trkpt lat="49.82982" lon="2.55192">
        <ele>70.6</ele>
        <time>2023-07-02T10:28:42Z</time>
      </trkpt>
      <trkpt lat="49.82982" lon="2.5519">
        <ele>70.6</ele>
        <time>2023-07-02T10:28:43Z</time>
      </trkpt>
      <trkpt lat="49.82983" lon="2.55188">
        <ele>70.6</ele>
        <time>2023-07-02T10:28:45Z</time>
      </trkpt>
      <trkpt lat="49.82983" lon="2.55185">
        <ele>70.6</ele>
        <time>2023-07-02T10:28:46Z</time>
      </trkpt>
      <trkpt lat="49.82983" lon="2.55183">
        <ele>70.7</ele>
        <time>2023-07-02T10:28:47Z</time>
      </trkpt>
      <trkpt lat="49.82983" lon="2.55182">
        <ele>70.7</ele>
        <time>2023-07-02T10:28:48Z</time>
      </trkpt>
      <trkpt lat="49.82983" lon="2.5518">
        <ele>70.7</ele>
        <time>2023-07-02T10:28:49Z</time>
      </trkpt>
      <trkpt lat="49.82983" lon="2.55178">
        <ele>70.7</ele>
        <time>2023-07-02T10:28:50Z</time>
      </trkpt>
      <trkpt lat="49.82983" lon="2.55176">
        <ele>70.7</ele>
        <time>2023-07-02T10:28:52Z</time>
      </trkpt>
      <trkpt lat="49.82983" lon="2.55173">
        <ele>70.7</ele>
        <time>2023-07-02T10:28:53Z</time>
      </trkpt>
      <trkpt lat="49.82983" lon="2.55172">
        <ele>70.8</ele>
        <time>2023-07-02T10:28:54Z</time>
      </trkpt>
      <trkpt lat="49.82983" lon="2.5517">
        <ele>70.8</ele>
        <time>2023-07-02T10:28:55Z</time>
      </trkpt>
      <trkpt lat="49.82983" lon="2.55168">
        <ele>70.8</ele>
        <time>2023-07-02T10:28:56Z</time>
      </trkpt>
      <trkpt lat="49.82983" lon="2.55166">
        <ele>70.8</ele>
        <time>2023-07-02T10:28:57Z</time>
      </trkpt>
      <trkpt lat="49.82983" lon="2.55165">
        <ele>70.8</ele>
        <time>2023-07-02T10:28:58Z</time>
      </trkpt>
      <trkpt lat="49.82983" lon="2.55161">
        <ele>70.9</ele>
        <time>2023-07-02T10:28:59Z</time>
      </trkpt>
      <trkpt lat="49.82983" lon="2.5516">
        <ele>70.9</ele>
        <time>2023-07-02T10:29:01Z</time>
      </trkpt>
      <trkpt lat="49.82983" lon="2.55159">
        <ele>70.9</ele>
        <time>2023-07-02T10:29:02Z</time>
      </trkpt>
      <trkpt lat="49.82983" lon="2.55157">
        <ele>70.9</ele>
        <time>2023-07-02T10:29:03Z</time>
      </trkpt>
      <trkpt lat="49.82983" lon="2.55156">
        <ele>70.9</ele>
        <time>2023-07-02T10:29:04Z</time>
      </trkpt>
      <trkpt lat="49.82983" lon="2.55154">
        <ele>71</ele>
        <time>2023-07-02T10:29:05Z</time>
      </trkpt>
      <trkpt lat="49.82983" lon="2.55152">
        <ele>71</ele>
        <time>2023-07-02T10:29:06Z</time>
      </trkpt>
      <trkpt lat="49.82983" lon="2.55149">
        <ele>71</ele>
        <time>2023-07-02T10:29:08Z</time>
      </trkpt>
      <trkpt lat="49.82983" lon="2.55147">
        <ele>71</ele>
        <time>2023-07-02T10:29:09Z</time>
      </trkpt>
      <trkpt lat="49.82983" lon="2.55145">
        <ele>71</ele>
        <time>2023-07-02T10:29:10Z</time>
      </trkpt>
      <trkpt lat="49.82983" lon="2.55144">
        <ele>71.1</ele>
        <time>2023-07-02T10:29:11Z</time>
      </trkpt>
      <trkpt lat="49.82983" lon="2.5514">
        <ele>71.1</ele>
        <time>2023-07-02T10:29:12Z</time>
      </trkpt>
      <trkpt lat="49.82983" lon="2.55139">
        <ele>71.1</ele>
        <time>2023-07-02T10:29:14Z</time>
      </trkpt>
      <trkpt lat="49.82983" lon="2.55137">
        <ele>71.1</ele>
        <time>2023-07-02T10:29:15Z</time>
      </trkpt>
      <trkpt lat="49.82983" lon="2.55135">
        <ele>71.1</ele>
        <time>2023-07-02T10:29:16Z</time>
      </trkpt>
      <trkpt lat="49.82983" lon="2.55133">
        <ele>71.2</ele>
        <time>2023-07-02T10:29:17Z</time>
      </trkpt>
      <trkpt lat="49.82983" lon="2.5513">
        <ele>71.2</ele>
        <time>2023-07-02T10:29:18Z</time>
      </trkpt>
      <trkpt lat="49.82983" lon="2.55129">
        <ele>71.2</ele>
        <time>2023-07-02T10:29:19Z</time>
      </trkpt>
      <trkpt lat="49.82983" lon="2.55127">
        <ele>71.2</ele>
        <time>2023-07-02T10:29:20Z</time>
      </trkpt>
      <trkpt lat="49.82983" lon="2.55124">
        <ele>71.2</ele>
        <time>2023-07-02T10:29:21Z</time>
      </trkpt>
      <trkpt lat="49.82983" lon="2.55123">
        <ele>71.3</ele>
        <time>2023-07-02T10:29:23Z</time>
      </trkpt>
      <trkpt lat="49.82983" lon="2.55122">
        <ele>71.3</ele>
        <time>2023-07-02T10:29:24Z</time>
      </trkpt>
      <trkpt lat="49.82983" lon="2.5512">
        <ele>71.3</ele>
        <time>2023-07-02T10:29:25Z</time>
      </trkpt>
      <trkpt lat="49.82983" lon="2.55118">
        <ele>71.3</ele>
        <time>2023-07-02T10:29:26Z</time>
      </trkpt>
      <trkpt lat="49.82983" lon="2.55116">
        <ele>71.3</ele>
        <time>2023-07-02T10:29:27Z</time>
      </trkpt>
      <trkpt lat="49.82983" lon="2.55114">
        <ele>71.3</ele>
        <time>2023-07-02T10:29:28Z</time>
      </trkpt>
      <trkpt lat="49.82983" lon="2.55113">
        <ele>71.3</ele>
        <time>2023-07-02T10:29:29Z</time>
      </trkpt>
      <trkpt lat="49.82983" lon="2.55111">
        <ele>71.3</ele>
        <time>2023-07-02T10:29:31Z</time>
      </trkpt>
      <trkpt lat="49.82983" lon="2.55107">
        <ele>71.4</ele>
        <time>2023-07-02T10:29:32Z</time>
      </trkpt>
      <trkpt lat="49.82983" lon="2.55106">
        <ele>71.4</ele>
        <time>2023-07-02T10:29:33Z</time>
      </trkpt>
      <trkpt lat="49.82983" lon="2.55105">
        <ele>71.4</ele>
        <time>2023-07-02T10:29:34Z</time>
      </trkpt>
      <trkpt lat="49.82983" lon="2.55103">
        <ele>71.4</ele>
        <time>2023-07-02T10:29:35Z</time>
      </trkpt>
      <trkpt lat="49.82983" lon="2.55102">
        <ele>71.4</ele>
        <time>2023-07-02T10:29:36Z</time>
      </trkpt>
      <trkpt lat="49.82984" lon="2.551">
        <ele>71.4</ele>
        <time>2023-07-02T10:29:38Z</time>
      </trkpt>
      <trkpt lat="49.82984" lon="2.55098">
        <ele>71.4</ele>
        <time>2023-07-02T10:29:39Z</time>
      </trkpt>
      <trkpt lat="49.82984" lon="2.55095">
        <ele>71.4</ele>
        <time>2023-07-02T10:29:40Z</time>
      </trkpt>
      <trkpt lat="49.82984" lon="2.55092">
        <ele>71.5</ele>
        <time>2023-07-02T10:29:41Z</time>
      </trkpt>
      <trkpt lat="49.82984" lon="2.55091">
        <ele>71.5</ele>
        <time>2023-07-02T10:29:42Z</time>
      </trkpt>
      <trkpt lat="49.82984" lon="2.5509">
        <ele>71.5</ele>
        <time>2023-07-02T10:29:43Z</time>
      </trkpt>
      <trkpt lat="49.82984" lon="2.55086">
        <ele>71.5</ele>
        <time>2023-07-02T10:29:45Z</time>
      </trkpt>
      <trkpt lat="49.82984" lon="2.55085">
        <ele>71.5</ele>
        <time>2023-07-02T10:29:46Z</time>
      </trkpt>
      <trkpt lat="49.82984" lon="2.55084">
        <ele>71.5</ele>
        <time>2023-07-02T10:29:47Z</time>
      </trkpt>
      <trkpt lat="49.82985" lon="2.55081">
        <ele>71.5</ele>
        <time>2023-07-02T10:29:48Z</time>
      </trkpt>
      <trkpt lat="49.82985" lon="2.55079">
        <ele>71.6</ele>
        <time>2023-07-02T10:29:49Z</time>
      </trkpt>
      <trkpt lat="49.82985" lon="2.55078">
        <ele>71.6</ele>
        <time>2023-07-02T10:29:50Z</time>
      </trkpt>
      <trkpt lat="49.82985" lon="2.55075">
        <ele>71.6</ele>
        <time>2023-07-02T10:29:51Z</time>
      </trkpt>
      <trkpt lat="49.82985" lon="2.55074">
        <ele>71.6</ele>
        <time>2023-07-02T10:29:53Z</time>
      </trkpt>
      <trkpt lat="49.82985" lon="2.55072">
        <ele>71.6</ele>
        <time>2023-07-02T10:29:54Z</time>
      </trkpt>
      <trkpt lat="49.82985" lon="2.55069">
        <ele>71.6</ele>
        <time>2023-07-02T10:29:55Z</time>
      </trkpt>
      <trkpt lat="49.82985" lon="2.55068">
        <ele>71.7</ele>
        <time>2023-07-02T10:29:56Z</time>
      </trkpt>
      <trkpt lat="49.82985" lon="2.55067">
        <ele>71.7</ele>
        <time>2023-07-02T10:29:57Z</time>
      </trkpt>
      <trkpt lat="49.82985" lon="2.55065">
        <ele>71.7</ele>
        <time>2023-07-02T10:29:58Z</time>
      </trkpt>
      <trkpt lat="49.82985" lon="2.55063">
        <ele>71.7</ele>
        <time>2023-07-02T10:30:00Z</time>
      </trkpt>
      <trkpt lat="49.82985" lon="2.55061">
        <ele>71.7</ele>
        <time>2023-07-02T10:30:01Z</time>
      </trkpt>
      <trkpt lat="49.82985" lon="2.55058">
        <ele>71.7</ele>
        <time>2023-07-02T10:30:02Z</time>
      </trkpt>
      <trkpt lat="49.82985" lon="2.55057">
        <ele>71.7</ele>
        <time>2023-07-02T10:30:03Z</time>
      </trkpt>
      <trkpt lat="49.82985" lon="2.55055">
        <ele>71.8</ele>
        <time>2023-07-02T10:30:04Z</time>
      </trkpt>
      <trkpt lat="49.82984" lon="2.55052">
        <ele>71.8</ele>
        <time>2023-07-02T10:30:05Z</time>
      </trkpt>
      <trkpt lat="49.82984" lon="2.55051">
        <ele>71.8</ele>
        <time>2023-07-02T10:30:07Z</time>
      </trkpt>
      <trkpt lat="49.82984" lon="2.55049">
        <ele>71.8</ele>
        <time>2023-07-02T10:30:08Z</time>
      </trkpt>
      <trkpt lat="49.82983" lon="2.55046">
        <ele>71.8</ele>
        <time>2023-07-02T10:30:09Z</time>
      </trkpt>
      <trkpt lat="49.82983" lon="2.55045">
        <ele>71.8</ele>
        <time>2023-07-02T10:30:10Z</time>
      </trkpt>
      <trkpt lat="49.82983" lon="2.55044">
        <ele>71.9</ele>
        <time>2023-07-02T10:30:11Z</time>
      </trkpt>
      <trkpt lat="49.82983" lon="2.55041">
        <ele>71.9</ele>
        <time>2023-07-02T10:30:12Z</time>
      </trkpt>
      <trkpt lat="49.82982" lon="2.55039">
        <ele>71.9</ele>
        <time>2023-07-02T10:30:13Z</time>
      </trkpt>
      <trkpt lat="49.82982" lon="2.55037">
        <ele>71.9</ele>
        <time>2023-07-02T10:30:15Z</time>
      </trkpt>
      <trkpt lat="49.82982" lon="2.55036">
        <ele>71.9</ele>
        <time>2023-07-02T10:30:16Z</time>
      </trkpt>
      <trkpt lat="49.82982" lon="2.55034">
        <ele>71.9</ele>
        <time>2023-07-02T10:30:17Z</time>
      </trkpt>
      <trkpt lat="49.82982" lon="2.55033">
        <ele>72</ele>
        <time>2023-07-02T10:30:18Z</time>
      </trkpt>
      <trkpt lat="49.82981" lon="2.55031">
        <ele>72</ele>
        <time>2023-07-02T10:30:19Z</time>
      </trkpt>
      <trkpt lat="49.82981" lon="2.55029">
        <ele>72</ele>
        <time>2023-07-02T10:30:20Z</time>
      </trkpt>
      <trkpt lat="49.8298" lon="2.55027">
        <ele>72</ele>
        <time>2023-07-02T10:30:22Z</time>
      </trkpt>
      <trkpt lat="49.8298" lon="2.55024">
        <ele>72</ele>
        <time>2023-07-02T10:30:23Z</time>
      </trkpt>
      <trkpt lat="49.82979" lon="2.55023">
        <ele>72</ele>
        <time>2023-07-02T10:30:24Z</time>
      </trkpt>
      <trkpt lat="49.82979" lon="2.55022">
        <ele>72.1</ele>
        <time>2023-07-02T10:30:25Z</time>
      </trkpt>
      <trkpt lat="49.82978" lon="2.55019">
        <ele>72.1</ele>
        <time>2023-07-02T10:30:26Z</time>
      </trkpt>
      <trkpt lat="49.82978" lon="2.55017">
        <ele>72.1</ele>
        <time>2023-07-02T10:30:27Z</time>
      </trkpt>
      <trkpt lat="49.82978" lon="2.55015">
        <ele>72.1</ele>
        <time>2023-07-02T10:30:29Z</time>
      </trkpt>
      <trkpt lat="49.82978" lon="2.55014">
        <ele>72.1</ele>
        <time>2023-07-02T10:30:30Z</time>
      </trkpt>
      <trkpt lat="49.82978" lon="2.55012">
        <ele>72.1</ele>
        <time>2023-07-02T10:30:31Z</time>
      </trkpt>
      <trkpt lat="49.82978" lon="2.55011">
        <ele>72.1</ele>
        <time>2023-07-02T10:30:32Z</time>
      </trkpt>
      <trkpt lat="49.82978" lon="2.55009">
        <ele>72.1</ele>
        <time>2023-07-02T10:30:33Z</time>
      </trkpt>
      <trkpt lat="49.82978" lon="2.55007">
        <ele>72.2</ele>
        <time>2023-07-02T10:30:34Z</time>
      </trkpt>
      <trkpt lat="49.82978" lon="2.55005">
        <ele>72.2</ele>
        <time>2023-07-02T10:30:36Z</time>
      </trkpt>
      <trkpt lat="49.82978" lon="2.55002">
        <ele>72.2</ele>
        <time>2023-07-02T10:30:37Z</time>
      </trkpt>
      <trkpt lat="49.82978" lon="2.55">
        <ele>72.2</ele>
        <time>2023-07-02T10:30:38Z</time>
      </trkpt>
      <trkpt lat="49.82978" lon="2.54999">
        <ele>72.2</ele>
        <time>2023-07-02T10:30:39Z</time>
      </trkpt>
      <trkpt lat="49.82978" lon="2.54995">
        <ele>72.2</ele>
        <time>2023-07-02T10:30:41Z</time>
      </trkpt>
      <trkpt lat="49.82978" lon="2.54995">
        <ele>72.2</ele>
        <time>2023-07-02T10:30:43Z</time>
      </trkpt>
      <trkpt lat="49.82978" lon="2.54994">
        <ele>72.2</ele>
        <time>2023-07-02T10:30:44Z</time>
      </trkpt>
      <trkpt lat="49.82978" lon="2.54994">
        <ele>72.2</ele>
        <time>2023-07-02T10:30:45Z</time>
      </trkpt>
      <trkpt lat="49.82979" lon="2.54994">
        <ele>72.2</ele>
        <time>2023-07-02T10:30:46Z</time>
      </trkpt>
      <trkpt lat="49.82979" lon="2.54993">
        <ele>72.2</ele>
        <time>2023-07-02T10:30:47Z</time>
      </trkpt>
      <trkpt lat="49.82979" lon="2.54993">
        <ele>72.2</ele>
        <time>2023-07-02T10:30:49Z</time>
      </trkpt>
      <trkpt lat="49.82979" lon="2.54993">
        <ele>72.2</ele>
        <time>2023-07-02T10:30:51Z</time>
      </trkpt>
      <trkpt lat="49.82979" lon="2.54992">
        <ele>72.2</ele>
        <time>2023-07-02T10:30:52Z</time>
      </trkpt>
      <trkpt lat="49.82979" lon="2.54992">
        <ele>72.2</ele>
        <time>2023-07-02T10:30:53Z</time>
      </trkpt>
      <trkpt lat="49.82979" lon="2.54992">
        <ele>72.2</ele>
        <time>2023-07-02T10:30:55Z</time>
      </trkpt>
      <trkpt lat="49.82979" lon="2.54991">
        <ele>72.2</ele>
        <time>2023-07-02T10:30:56Z</time>
      </trkpt>
      <trkpt lat="49.82979" lon="2.54991">
        <ele>72.2</ele>
        <time>2023-07-02T10:30:57Z</time>
      </trkpt>
      <trkpt lat="49.82979" lon="2.5499">
        <ele>72.2</ele>
        <time>2023-07-02T10:30:59Z</time>
      </trkpt>
      <trkpt lat="49.82979" lon="2.5499">
        <ele>72.2</ele>
        <time>2023-07-02T10:31:00Z</time>
      </trkpt>
      <trkpt lat="49.82979" lon="2.5499">
        <ele>72.2</ele>
        <time>2023-07-02T10:31:01Z</time>
      </trkpt>
      <trkpt lat="49.82979" lon="2.54989">
        <ele>72.3</ele>
        <time>2023-07-02T10:31:02Z</time>
      </trkpt>
      <trkpt lat="49.82979" lon="2.54989">
        <ele>72.3</ele>
        <time>2023-07-02T10:31:03Z</time>
      </trkpt>
      <trkpt lat="49.82979" lon="2.54989">
        <ele>72.3</ele>
        <time>2023-07-02T10:31:04Z</time>
      </trkpt>
      <trkpt lat="49.82978" lon="2.54986">
        <ele>72.3</ele>
        <time>2023-07-02T10:31:06Z</time>
      </trkpt>
      <trkpt lat="49.82978" lon="2.54984">
        <ele>72.3</ele>
        <time>2023-07-02T10:31:07Z</time>
      </trkpt>
      <trkpt lat="49.82977" lon="2.54982">
        <ele>72.3</ele>
        <time>2023-07-02T10:31:08Z</time>
      </trkpt>
      <trkpt lat="49.82976" lon="2.5498">
        <ele>72.3</ele>
        <time>2023-07-02T10:31:09Z</time>
      </trkpt>
      <trkpt lat="49.82976" lon="2.54978">
        <ele>72.3</ele>
        <time>2023-07-02T10:31:10Z</time>
      </trkpt>
      <trkpt lat="49.82976" lon="2.54976">
        <ele>72.3</ele>
        <time>2023-07-02T10:31:11Z</time>
      </trkpt>
      <trkpt lat="49.82975" lon="2.54973">
        <ele>72.3</ele>
        <time>2023-07-02T10:31:13Z</time>
      </trkpt>
      <trkpt lat="49.82975" lon="2.54971">
        <ele>72.3</ele>
        <time>2023-07-02T10:31:14Z</time>
      </trkpt>
      <trkpt lat="49.82975" lon="2.5497">
        <ele>72.3</ele>
        <time>2023-07-02T10:31:15Z</time>
      </trkpt>
      <trkpt lat="49.82974" lon="2.54967">
        <ele>72.3</ele>
        <time>2023-07-02T10:31:16Z</time>
      </trkpt>
      <trkpt lat="49.82974" lon="2.54965">
        <ele>72.3</ele>
        <time>2023-07-02T10:31:17Z</time>
      </trkpt>
      <trkpt lat="49.82974" lon="2.54964">
        <ele>72.3</ele>
        <time>2023-07-02T10:31:18Z</time>
      </trkpt>
      <trkpt lat="49.82973" lon="2.54961">
        <ele>72.3</ele>
        <time>2023-07-02T10:31:20Z</time>
      </trkpt>
      <trkpt lat="49.82973" lon="2.54959">
        <ele>72.3</ele>
        <time>2023-07-02T10:31:21Z</time>
      </trkpt>
      <trkpt lat="49.82973" lon="2.54958">
        <ele>72.4</ele>
        <time>2023-07-02T10:31:22Z</time>
      </trkpt>
      <trkpt lat="49.82973" lon="2.54956">
        <ele>72.4</ele>
        <time>2023-07-02T10:31:23Z</time>
      </trkpt>
      <trkpt lat="49.82972" lon="2.54953">
        <ele>72.4</ele>
        <time>2023-07-02T10:31:24Z</time>
      </trkpt>
      <trkpt lat="49.82972" lon="2.54951">
        <ele>72.4</ele>
        <time>2023-07-02T10:31:25Z</time>
      </trkpt>
      <trkpt lat="49.82971" lon="2.54949">
        <ele>72.4</ele>
        <time>2023-07-02T10:31:26Z</time>
      </trkpt>
      <trkpt lat="49.82971" lon="2.54947">
        <ele>72.4</ele>
        <time>2023-07-02T10:31:27Z</time>
      </trkpt>
      <trkpt lat="49.8297" lon="2.54944">
        <ele>72.4</ele>
        <time>2023-07-02T10:31:29Z</time>
      </trkpt>
      <trkpt lat="49.8297" lon="2.54942">
        <ele>72.4</ele>
        <time>2023-07-02T10:31:30Z</time>
      </trkpt>
      <trkpt lat="49.8297" lon="2.5494">
        <ele>72.4</ele>
        <time>2023-07-02T10:31:31Z</time>
      </trkpt>
      <trkpt lat="49.82969" lon="2.54938">
        <ele>72.4</ele>
        <time>2023-07-02T10:31:32Z</time>
      </trkpt>
      <trkpt lat="49.82969" lon="2.54936">
        <ele>72.4</ele>
        <time>2023-07-02T10:31:33Z</time>
      </trkpt>
      <trkpt lat="49.82968" lon="2.54933">
        <ele>72.4</ele>
        <time>2023-07-02T10:31:34Z</time>
      </trkpt>
      <trkpt lat="49.82968" lon="2.54932">
        <ele>72.4</ele>
        <time>2023-07-02T10:31:36Z</time>
      </trkpt>
      <trkpt lat="49.82968" lon="2.5493">
        <ele>72.5</ele>
        <time>2023-07-02T10:31:37Z</time>
      </trkpt>
      <trkpt lat="49.82967" lon="2.54927">
        <ele>72.5</ele>
        <time>2023-07-02T10:31:38Z</time>
      </trkpt>
      <trkpt lat="49.82967" lon="2.54926">
        <ele>72.5</ele>
        <time>2023-07-02T10:31:39Z</time>
      </trkpt>
      <trkpt lat="49.82967" lon="2.54924">
        <ele>72.5</ele>
        <time>2023-07-02T10:31:40Z</time>
      </trkpt>
      <trkpt lat="49.82967" lon="2.54921">
        <ele>72.5</ele>
        <time>2023-07-02T10:31:41Z</time>
      </trkpt>
      <trkpt lat="49.82966" lon="2.5492">
        <ele>72.5</ele>
        <time>2023-07-02T10:31:43Z</time>
      </trkpt>
      <trkpt lat="49.82966" lon="2.54919">
        <ele>72.5</ele>
        <time>2023-07-02T10:31:44Z</time>
      </trkpt>
      <trkpt lat="49.82966" lon="2.54917">
        <ele>72.5</ele>
        <time>2023-07-02T10:31:45Z</time>
      </trkpt>
      <trkpt lat="49.82966" lon="2.54915">
        <ele>72.6</ele>
        <time>2023-07-02T10:31:46Z</time>
      </trkpt>
      <trkpt lat="49.82966" lon="2.54911">
        <ele>72.6</ele>
        <time>2023-07-02T10:31:47Z</time>
      </trkpt>
      <trkpt lat="49.82966" lon="2.5491">
        <ele>72.6</ele>
        <time>2023-07-02T10:31:48Z</time>
      </trkpt>
      <trkpt lat="49.82966" lon="2.54909">
        <ele>72.6</ele>
        <time>2023-07-02T10:31:49Z</time>
      </trkpt>
      <trkpt lat="49.82967" lon="2.54907">
        <ele>72.6</ele>
        <time>2023-07-02T10:31:51Z</time>
      </trkpt>
      <trkpt lat="49.82967" lon="2.54905">
        <ele>72.6</ele>
        <time>2023-07-02T10:31:52Z</time>
      </trkpt>
      <trkpt lat="49.82968" lon="2.54903">
        <ele>72.7</ele>
        <time>2023-07-02T10:31:53Z</time>
      </trkpt>
      <trkpt lat="49.82968" lon="2.54901">
        <ele>72.7</ele>
        <time>2023-07-02T10:31:54Z</time>
      </trkpt>
      <trkpt lat="49.82968" lon="2.549">
        <ele>72.7</ele>
        <time>2023-07-02T10:31:55Z</time>
      </trkpt>
      <trkpt lat="49.82969" lon="2.54897">
        <ele>72.7</ele>
        <time>2023-07-02T10:31:57Z</time>
      </trkpt>
      <trkpt lat="49.82969" lon="2.54895">
        <ele>72.7</ele>
        <time>2023-07-02T10:31:58Z</time>
      </trkpt>
      <trkpt lat="49.82969" lon="2.54894">
        <ele>72.7</ele>
        <time>2023-07-02T10:31:59Z</time>
      </trkpt>
      <trkpt lat="49.82969" lon="2.54892">
        <ele>72.7</ele>
        <time>2023-07-02T10:32:00Z</time>
      </trkpt>
      <trkpt lat="49.82969" lon="2.54891">
        <ele>72.8</ele>
        <time>2023-07-02T10:32:01Z</time>
      </trkpt>
      <trkpt lat="49.82969" lon="2.54889">
        <ele>72.8</ele>
        <time>2023-07-02T10:32:03Z</time>
      </trkpt>
      <trkpt lat="49.8297" lon="2.54888">
        <ele>72.8</ele>
        <time>2023-07-02T10:32:04Z</time>
      </trkpt>
      <trkpt lat="49.8297" lon="2.54888">
        <ele>72.8</ele>
        <time>2023-07-02T10:32:05Z</time>
      </trkpt>
      <trkpt lat="49.8297" lon="2.54889">
        <ele>72.8</ele>
        <time>2023-07-02T10:32:07Z</time>
      </trkpt>
      <trkpt lat="49.82969" lon="2.54889">
        <ele>72.8</ele>
        <time>2023-07-02T10:32:08Z</time>
      </trkpt>
      <trkpt lat="49.82969" lon="2.54889">
        <ele>72.8</ele>
        <time>2023-07-02T10:32:09Z</time>
      </trkpt>
      <trkpt lat="49.82969" lon="2.54889">
        <ele>72.8</ele>
        <time>2023-07-02T10:32:11Z</time>
      </trkpt>
      <trkpt lat="49.82969" lon="2.5489">
        <ele>72.8</ele>
        <time>2023-07-02T10:32:13Z</time>
      </trkpt>
      <trkpt lat="49.82969" lon="2.5489">
        <ele>72.8</ele>
        <time>2023-07-02T10:32:14Z</time>
      </trkpt>
      <trkpt lat="49.82969" lon="2.5489">
        <ele>72.8</ele>
        <time>2023-07-02T10:32:15Z</time>
      </trkpt>
      <trkpt lat="49.82969" lon="2.5489">
        <ele>72.8</ele>
        <time>2023-07-02T10:32:16Z</time>
      </trkpt>
      <trkpt lat="49.82969" lon="2.5489">
        <ele>72.8</ele>
        <time>2023-07-02T10:32:17Z</time>
      </trkpt>
      <trkpt lat="49.82969" lon="2.54889">
        <ele>72.8</ele>
        <time>2023-07-02T10:32:18Z</time>
      </trkpt>
      <trkpt lat="49.8297" lon="2.54887">
        <ele>72.8</ele>
        <time>2023-07-02T10:32:20Z</time>
      </trkpt>
      <trkpt lat="49.8297" lon="2.54885">
        <ele>72.9</ele>
        <time>2023-07-02T10:32:21Z</time>
      </trkpt>
      <trkpt lat="49.82971" lon="2.54884">
        <ele>72.9</ele>
        <time>2023-07-02T10:32:22Z</time>
      </trkpt>
      <trkpt lat="49.82971" lon="2.54882">
        <ele>72.9</ele>
        <time>2023-07-02T10:32:23Z</time>
      </trkpt>
      <trkpt lat="49.82972" lon="2.54881">
        <ele>72.9</ele>
        <time>2023-07-02T10:32:25Z</time>
      </trkpt>
      <trkpt lat="49.82972" lon="2.5488">
        <ele>73</ele>
        <time>2023-07-02T10:32:26Z</time>
      </trkpt>
      <trkpt lat="49.82972" lon="2.54878">
        <ele>73</ele>
        <time>2023-07-02T10:32:27Z</time>
      </trkpt>
      <trkpt lat="49.82972" lon="2.54876">
        <ele>73</ele>
        <time>2023-07-02T10:32:28Z</time>
      </trkpt>
      <trkpt lat="49.82972" lon="2.54874">
        <ele>73</ele>
        <time>2023-07-02T10:32:29Z</time>
      </trkpt>
      <trkpt lat="49.82972" lon="2.54871">
        <ele>73.1</ele>
        <time>2023-07-02T10:32:31Z</time>
      </trkpt>
      <trkpt lat="49.82972" lon="2.54869">
        <ele>73.1</ele>
        <time>2023-07-02T10:32:32Z</time>
      </trkpt>
      <trkpt lat="49.82971" lon="2.54866">
        <ele>73.2</ele>
        <time>2023-07-02T10:32:33Z</time>
      </trkpt>
      <trkpt lat="49.82971" lon="2.54864">
        <ele>73.2</ele>
        <time>2023-07-02T10:32:34Z</time>
      </trkpt>
      <trkpt lat="49.8297" lon="2.54861">
        <ele>73.3</ele>
        <time>2023-07-02T10:32:36Z</time>
      </trkpt>
      <trkpt lat="49.8297" lon="2.54859">
        <ele>73.3</ele>
        <time>2023-07-02T10:32:37Z</time>
      </trkpt>
      <trkpt lat="49.82969" lon="2.54858">
        <ele>73.4</ele>
        <time>2023-07-02T10:32:38Z</time>
      </trkpt>
      <trkpt lat="49.82968" lon="2.54856">
        <ele>73.4</ele>
        <time>2023-07-02T10:32:39Z</time>
      </trkpt>
      <trkpt lat="49.82968" lon="2.54854">
        <ele>73.4</ele>
        <time>2023-07-02T10:32:40Z</time>
      </trkpt>
      <trkpt lat="49.82967" lon="2.54852">
        <ele>73.5</ele>
        <time>2023-07-02T10:32:42Z</time>
      </trkpt>
      <trkpt lat="49.82967" lon="2.5485">
        <ele>73.5</ele>
        <time>2023-07-02T10:32:43Z</time>
      </trkpt>
      <trkpt lat="49.82967" lon="2.54849">
        <ele>73.5</ele>
        <time>2023-07-02T10:32:44Z</time>
      </trkpt>
      <trkpt lat="49.82967" lon="2.54847">
        <ele>73.6</ele>
        <time>2023-07-02T10:32:45Z</time>
      </trkpt>
      <trkpt lat="49.82967" lon="2.54846">
        <ele>73.6</ele>
        <time>2023-07-02T10:32:46Z</time>
      </trkpt>
      <trkpt lat="49.82968" lon="2.54845">
        <ele>73.6</ele>
        <time>2023-07-02T10:32:48Z</time>
      </trkpt>
      <trkpt lat="49.82968" lon="2.54843">
        <ele>73.6</ele>
        <time>2023-07-02T10:32:49Z</time>
      </trkpt>
      <trkpt lat="49.82968" lon="2.54842">
        <ele>73.7</ele>
        <time>2023-07-02T10:32:50Z</time>
      </trkpt>
      <trkpt lat="49.82968" lon="2.5484">
        <ele>73.7</ele>
        <time>2023-07-02T10:32:51Z</time>
      </trkpt>
      <trkpt lat="49.82968" lon="2.54839">
        <ele>73.7</ele>
        <time>2023-07-02T10:32:52Z</time>
      </trkpt>
      <trkpt lat="49.82968" lon="2.54837">
        <ele>73.7</ele>
        <time>2023-07-02T10:32:53Z</time>
      </trkpt>
      <trkpt lat="49.82968" lon="2.54836">
        <ele>73.7</ele>
        <time>2023-07-02T10:32:54Z</time>
      </trkpt>
      <trkpt lat="49.82969" lon="2.54836">
        <ele>73.7</ele>
        <time>2023-07-02T10:32:56Z</time>
      </trkpt>
      <trkpt lat="49.82969" lon="2.54834">
        <ele>73.7</ele>
        <time>2023-07-02T10:32:57Z</time>
      </trkpt>
      <trkpt lat="49.82969" lon="2.54832">
        <ele>73.8</ele>
        <time>2023-07-02T10:32:58Z</time>
      </trkpt>
      <trkpt lat="49.82969" lon="2.54829">
        <ele>73.8</ele>
        <time>2023-07-02T10:32:59Z</time>
      </trkpt>
      <trkpt lat="49.8297" lon="2.54827">
        <ele>73.8</ele>
        <time>2023-07-02T10:33:00Z</time>
      </trkpt>
      <trkpt lat="49.8297" lon="2.54825">
        <ele>73.8</ele>
        <time>2023-07-02T10:33:02Z</time>
      </trkpt>
      <trkpt lat="49.8297" lon="2.54823">
        <ele>73.8</ele>
        <time>2023-07-02T10:33:03Z</time>
      </trkpt>
      <trkpt lat="49.8297" lon="2.54821">
        <ele>73.9</ele>
        <time>2023-07-02T10:33:04Z</time>
      </trkpt>
      <trkpt lat="49.82971" lon="2.54819">
        <ele>73.9</ele>
        <time>2023-07-02T10:33:05Z</time>
      </trkpt>
      <trkpt lat="49.82971" lon="2.54817">
        <ele>73.9</ele>
        <time>2023-07-02T10:33:06Z</time>
      </trkpt>
      <trkpt lat="49.82971" lon="2.54815">
        <ele>73.9</ele>
        <time>2023-07-02T10:33:08Z</time>
      </trkpt>
      <trkpt lat="49.82971" lon="2.54812">
        <ele>73.9</ele>
        <time>2023-07-02T10:33:09Z</time>
      </trkpt>
      <trkpt lat="49.82971" lon="2.5481">
        <ele>73.9</ele>
        <time>2023-07-02T10:33:10Z</time>
      </trkpt>
      <trkpt lat="49.82971" lon="2.54807">
        <ele>74</ele>
        <time>2023-07-02T10:33:11Z</time>
      </trkpt>
      <trkpt lat="49.82971" lon="2.54806">
        <ele>74</ele>
        <time>2023-07-02T10:33:12Z</time>
      </trkpt>
      <trkpt lat="49.8297" lon="2.54805">
        <ele>74</ele>
        <time>2023-07-02T10:33:13Z</time>
      </trkpt>
      <trkpt lat="49.8297" lon="2.54802">
        <ele>74</ele>
        <time>2023-07-02T10:33:14Z</time>
      </trkpt>
      <trkpt lat="49.8297" lon="2.548">
        <ele>74</ele>
        <time>2023-07-02T10:33:16Z</time>
      </trkpt>
      <trkpt lat="49.8297" lon="2.54798">
        <ele>74</ele>
        <time>2023-07-02T10:33:17Z</time>
      </trkpt>
      <trkpt lat="49.8297" lon="2.54797">
        <ele>74</ele>
        <time>2023-07-02T10:33:18Z</time>
      </trkpt>
      <trkpt lat="49.82969" lon="2.54795">
        <ele>74</ele>
        <time>2023-07-02T10:33:19Z</time>
      </trkpt>
      <trkpt lat="49.82969" lon="2.54792">
        <ele>74.1</ele>
        <time>2023-07-02T10:33:20Z</time>
      </trkpt>
      <trkpt lat="49.82969" lon="2.5479">
        <ele>74.1</ele>
        <time>2023-07-02T10:33:21Z</time>
      </trkpt>
      <trkpt lat="49.82968" lon="2.54789">
        <ele>74.1</ele>
        <time>2023-07-02T10:33:22Z</time>
      </trkpt>
      <trkpt lat="49.82968" lon="2.54786">
        <ele>74.1</ele>
        <time>2023-07-02T10:33:24Z</time>
      </trkpt>
      <trkpt lat="49.82968" lon="2.54785">
        <ele>74.1</ele>
        <time>2023-07-02T10:33:25Z</time>
      </trkpt>
      <trkpt lat="49.82967" lon="2.54783">
        <ele>74.1</ele>
        <time>2023-07-02T10:33:26Z</time>
      </trkpt>
      <trkpt lat="49.82967" lon="2.54782">
        <ele>74.1</ele>
        <time>2023-07-02T10:33:27Z</time>
      </trkpt>
      <trkpt lat="49.82967" lon="2.5478">
        <ele>74.1</ele>
        <time>2023-07-02T10:33:28Z</time>
      </trkpt>
      <trkpt lat="49.82967" lon="2.54778">
        <ele>74.1</ele>
        <time>2023-07-02T10:33:29Z</time>
      </trkpt>
      <trkpt lat="49.82966" lon="2.54775">
        <ele>74.1</ele>
        <time>2023-07-02T10:33:30Z</time>
      </trkpt>
      <trkpt lat="49.82966" lon="2.54774">
        <ele>74.1</ele>
        <time>2023-07-02T10:33:32Z</time>
      </trkpt>
      <trkpt lat="49.82966" lon="2.54773">
        <ele>74.1</ele>
        <time>2023-07-02T10:33:33Z</time>
      </trkpt>
      <trkpt lat="49.82966" lon="2.54769">
        <ele>74.1</ele>
        <time>2023-07-02T10:33:34Z</time>
      </trkpt>
      <trkpt lat="49.82965" lon="2.54768">
        <ele>74.1</ele>
        <time>2023-07-02T10:33:35Z</time>
      </trkpt>
      <trkpt lat="49.82965" lon="2.54767">
        <ele>74.1</ele>
        <time>2023-07-02T10:33:36Z</time>
      </trkpt>
      <trkpt lat="49.82965" lon="2.54765">
        <ele>74.1</ele>
        <time>2023-07-02T10:33:37Z</time>
      </trkpt>
      <trkpt lat="49.82965" lon="2.54762">
        <ele>74.1</ele>
        <time>2023-07-02T10:33:38Z</time>
      </trkpt>
      <trkpt lat="49.82964" lon="2.54758">
        <ele>74.1</ele>
        <time>2023-07-02T10:33:39Z</time>
      </trkpt>
      <trkpt lat="49.82964" lon="2.54757">
        <ele>74.1</ele>
        <time>2023-07-02T10:33:41Z</time>
      </trkpt>
      <trkpt lat="49.82964" lon="2.54755">
        <ele>74.1</ele>
        <time>2023-07-02T10:33:42Z</time>
      </trkpt>
      <trkpt lat="49.82964" lon="2.54754">
        <ele>74.1</ele>
        <time>2023-07-02T10:33:43Z</time>
      </trkpt>
      <trkpt lat="49.82964" lon="2.54752">
        <ele>74.1</ele>
        <time>2023-07-02T10:33:44Z</time>
      </trkpt>
      <trkpt lat="49.82964" lon="2.54749">
        <ele>74.1</ele>
        <time>2023-07-02T10:33:45Z</time>
      </trkpt>
      <trkpt lat="49.82964" lon="2.54747">
        <ele>74.1</ele>
        <time>2023-07-02T10:33:46Z</time>
      </trkpt>
      <trkpt lat="49.82963" lon="2.54746">
        <ele>74.1</ele>
        <time>2023-07-02T10:33:47Z</time>
      </trkpt>
      <trkpt lat="49.82963" lon="2.54742">
        <ele>74.1</ele>
        <time>2023-07-02T10:33:48Z</time>
      </trkpt>
      <trkpt lat="49.82963" lon="2.5474">
        <ele>74.1</ele>
        <time>2023-07-02T10:33:50Z</time>
      </trkpt>
      <trkpt lat="49.82963" lon="2.54739">
        <ele>74.1</ele>
        <time>2023-07-02T10:33:51Z</time>
      </trkpt>
      <trkpt lat="49.82963" lon="2.54737">
        <ele>74.1</ele>
        <time>2023-07-02T10:33:52Z</time>
      </trkpt>
      <trkpt lat="49.82963" lon="2.54736">
        <ele>74.1</ele>
        <time>2023-07-02T10:33:53Z</time>
      </trkpt>
      <trkpt lat="49.82962" lon="2.54734">
        <ele>74.1</ele>
        <time>2023-07-02T10:33:54Z</time>
      </trkpt>
      <trkpt lat="49.82962" lon="2.54732">
        <ele>74.1</ele>
        <time>2023-07-02T10:33:55Z</time>
      </trkpt>
      <trkpt lat="49.82962" lon="2.5473">
        <ele>74.1</ele>
        <time>2023-07-02T10:33:56Z</time>
      </trkpt>
      <trkpt lat="49.82962" lon="2.54727">
        <ele>74.1</ele>
        <time>2023-07-02T10:33:58Z</time>
      </trkpt>
      <trkpt lat="49.82962" lon="2.54726">
        <ele>74.1</ele>
        <time>2023-07-02T10:33:59Z</time>
      </trkpt>
      <trkpt lat="49.82962" lon="2.54725">
        <ele>74.2</ele>
        <time>2023-07-02T10:34:00Z</time>
      </trkpt>
      <trkpt lat="49.82962" lon="2.54723">
        <ele>74.2</ele>
        <time>2023-07-02T10:34:01Z</time>
      </trkpt>
      <trkpt lat="49.82962" lon="2.54721">
        <ele>74.2</ele>
        <time>2023-07-02T10:34:02Z</time>
      </trkpt>
      <trkpt lat="49.82962" lon="2.54719">
        <ele>74.2</ele>
        <time>2023-07-02T10:34:03Z</time>
      </trkpt>
      <trkpt lat="49.82961" lon="2.54716">
        <ele>74.2</ele>
        <time>2023-07-02T10:34:05Z</time>
      </trkpt>
      <trkpt lat="49.82961" lon="2.54714">
        <ele>74.2</ele>
        <time>2023-07-02T10:34:06Z</time>
      </trkpt>
      <trkpt lat="49.82961" lon="2.54711">
        <ele>74.2</ele>
        <time>2023-07-02T10:34:07Z</time>
      </trkpt>
      <trkpt lat="49.8296" lon="2.54709">
        <ele>74.2</ele>
        <time>2023-07-02T10:34:08Z</time>
      </trkpt>
      <trkpt lat="49.8296" lon="2.54708">
        <ele>74.2</ele>
        <time>2023-07-02T10:34:10Z</time>
      </trkpt>
      <trkpt lat="49.8296" lon="2.54706">
        <ele>74.2</ele>
        <time>2023-07-02T10:34:11Z</time>
      </trkpt>
      <trkpt lat="49.82959" lon="2.54705">
        <ele>74.2</ele>
        <time>2023-07-02T10:34:12Z</time>
      </trkpt>
      <trkpt lat="49.82959" lon="2.54703">
        <ele>74.2</ele>
        <time>2023-07-02T10:34:13Z</time>
      </trkpt>
      <trkpt lat="49.82959" lon="2.54701">
        <ele>74.2</ele>
        <time>2023-07-02T10:34:14Z</time>
      </trkpt>
      <trkpt lat="49.82958" lon="2.54699">
        <ele>74.1</ele>
        <time>2023-07-02T10:34:15Z</time>
      </trkpt>
      <trkpt lat="49.82958" lon="2.54696">
        <ele>74.1</ele>
        <time>2023-07-02T10:34:16Z</time>
      </trkpt>
      <trkpt lat="49.82957" lon="2.54694">
        <ele>74.1</ele>
        <time>2023-07-02T10:34:17Z</time>
      </trkpt>
      <trkpt lat="49.82957" lon="2.54693">
        <ele>74.1</ele>
        <time>2023-07-02T10:34:19Z</time>
      </trkpt>
      <trkpt lat="49.82957" lon="2.54691">
        <ele>74.1</ele>
        <time>2023-07-02T10:34:20Z</time>
      </trkpt>
      <trkpt lat="49.82957" lon="2.5469">
        <ele>74.1</ele>
        <time>2023-07-02T10:34:21Z</time>
      </trkpt>
      <trkpt lat="49.82957" lon="2.54688">
        <ele>74.1</ele>
        <time>2023-07-02T10:34:22Z</time>
      </trkpt>
      <trkpt lat="49.82957" lon="2.54686">
        <ele>74.1</ele>
        <time>2023-07-02T10:34:23Z</time>
      </trkpt>
      <trkpt lat="49.82957" lon="2.54685">
        <ele>74.1</ele>
        <time>2023-07-02T10:34:24Z</time>
      </trkpt>
      <trkpt lat="49.82957" lon="2.54683">
        <ele>74.1</ele>
        <time>2023-07-02T10:34:25Z</time>
      </trkpt>
      <trkpt lat="49.82957" lon="2.5468">
        <ele>74.1</ele>
        <time>2023-07-02T10:34:26Z</time>
      </trkpt>
      <trkpt lat="49.82956" lon="2.54679">
        <ele>74.1</ele>
        <time>2023-07-02T10:34:28Z</time>
      </trkpt>
      <trkpt lat="49.82956" lon="2.54677">
        <ele>74.1</ele>
        <time>2023-07-02T10:34:29Z</time>
      </trkpt>
      <trkpt lat="49.82956" lon="2.54674">
        <ele>74.1</ele>
        <time>2023-07-02T10:34:30Z</time>
      </trkpt>
      <trkpt lat="49.82956" lon="2.54673">
        <ele>74.1</ele>
        <time>2023-07-02T10:34:31Z</time>
      </trkpt>
      <trkpt lat="49.82956" lon="2.54672">
        <ele>74.1</ele>
        <time>2023-07-02T10:34:32Z</time>
      </trkpt>
      <trkpt lat="49.82956" lon="2.5467">
        <ele>74.1</ele>
        <time>2023-07-02T10:34:33Z</time>
      </trkpt>
      <trkpt lat="49.82956" lon="2.54669">
        <ele>74.2</ele>
        <time>2023-07-02T10:34:34Z</time>
      </trkpt>
      <trkpt lat="49.82956" lon="2.54667">
        <ele>74.2</ele>
        <time>2023-07-02T10:34:36Z</time>
      </trkpt>
      <trkpt lat="49.82956" lon="2.54665">
        <ele>74.2</ele>
        <time>2023-07-02T10:34:37Z</time>
      </trkpt>
      <trkpt lat="49.82955" lon="2.54663">
        <ele>74.2</ele>
        <time>2023-07-02T10:34:38Z</time>
      </trkpt>
      <trkpt lat="49.82955" lon="2.54662">
        <ele>74.2</ele>
        <time>2023-07-02T10:34:39Z</time>
      </trkpt>
      <trkpt lat="49.82955" lon="2.5466">
        <ele>74.2</ele>
        <time>2023-07-02T10:34:40Z</time>
      </trkpt>
      <trkpt lat="49.82955" lon="2.54658">
        <ele>74.2</ele>
        <time>2023-07-02T10:34:41Z</time>
      </trkpt>
      <trkpt lat="49.82955" lon="2.54656">
        <ele>74.2</ele>
        <time>2023-07-02T10:34:42Z</time>
      </trkpt>
      <trkpt lat="49.82955" lon="2.54653">
        <ele>74.2</ele>
        <time>2023-07-02T10:34:44Z</time>
      </trkpt>
      <trkpt lat="49.82955" lon="2.54651">
        <ele>74.2</ele>
        <time>2023-07-02T10:34:45Z</time>
      </trkpt>
      <trkpt lat="49.82955" lon="2.5465">
        <ele>74.2</ele>
        <time>2023-07-02T10:34:46Z</time>
      </trkpt>
      <trkpt lat="49.82955" lon="2.54648">
        <ele>74.2</ele>
        <time>2023-07-02T10:34:47Z</time>
      </trkpt>
      <trkpt lat="49.82955" lon="2.54646">
        <ele>74.2</ele>
        <time>2023-07-02T10:34:48Z</time>
      </trkpt>
      <trkpt lat="49.82955" lon="2.54645">
        <ele>74.3</ele>
        <time>2023-07-02T10:34:49Z</time>
      </trkpt>
      <trkpt lat="49.82955" lon="2.54642">
        <ele>74.3</ele>
        <time>2023-07-02T10:34:50Z</time>
      </trkpt>
      <trkpt lat="49.82955" lon="2.5464">
        <ele>74.3</ele>
        <time>2023-07-02T10:34:52Z</time>
      </trkpt>
      <trkpt lat="49.82955" lon="2.54639">
        <ele>74.3</ele>
        <time>2023-07-02T10:34:53Z</time>
      </trkpt>
      <trkpt lat="49.82955" lon="2.54637">
        <ele>74.3</ele>
        <time>2023-07-02T10:34:54Z</time>
      </trkpt>
      <trkpt lat="49.82955" lon="2.54635">
        <ele>74.3</ele>
        <time>2023-07-02T10:34:55Z</time>
      </trkpt>
      <trkpt lat="49.82955" lon="2.54634">
        <ele>74.3</ele>
        <time>2023-07-02T10:34:56Z</time>
      </trkpt>
      <trkpt lat="49.82955" lon="2.54632">
        <ele>74.3</ele>
        <time>2023-07-02T10:34:57Z</time>
      </trkpt>
      <trkpt lat="49.82955" lon="2.54629">
        <ele>74.4</ele>
        <time>2023-07-02T10:34:59Z</time>
      </trkpt>
      <trkpt lat="49.82955" lon="2.54627">
        <ele>74.4</ele>
        <time>2023-07-02T10:35:00Z</time>
      </trkpt>
      <trkpt lat="49.82955" lon="2.54625">
        <ele>74.4</ele>
        <time>2023-07-02T10:35:01Z</time>
      </trkpt>
      <trkpt lat="49.82955" lon="2.54623">
        <ele>74.4</ele>
        <time>2023-07-02T10:35:03Z</time>
      </trkpt>
      <trkpt lat="49.82954" lon="2.54619">
        <ele>74.4</ele>
        <time>2023-07-02T10:35:04Z</time>
      </trkpt>
      <trkpt lat="49.82954" lon="2.54618">
        <ele>74.4</ele>
        <time>2023-07-02T10:35:05Z</time>
      </trkpt>
      <trkpt lat="49.82953" lon="2.54617">
        <ele>74.4</ele>
        <time>2023-07-02T10:35:06Z</time>
      </trkpt>
      <trkpt lat="49.82953" lon="2.54614">
        <ele>74.4</ele>
        <time>2023-07-02T10:35:07Z</time>
      </trkpt>
      <trkpt lat="49.82952" lon="2.54612">
        <ele>74.5</ele>
        <time>2023-07-02T10:35:08Z</time>
      </trkpt>
      <trkpt lat="49.82952" lon="2.5461">
        <ele>74.5</ele>
        <time>2023-07-02T10:35:09Z</time>
      </trkpt>
      <trkpt lat="49.82951" lon="2.54608">
        <ele>74.5</ele>
        <time>2023-07-02T10:35:11Z</time>
      </trkpt>
      <trkpt lat="49.82951" lon="2.54605">
        <ele>74.5</ele>
        <time>2023-07-02T10:35:12Z</time>
      </trkpt>
      <trkpt lat="49.8295" lon="2.54603">
        <ele>74.5</ele>
        <time>2023-07-02T10:35:13Z</time>
      </trkpt>
      <trkpt lat="49.82949" lon="2.546">
        <ele>74.5</ele>
        <time>2023-07-02T10:35:14Z</time>
      </trkpt>
      <trkpt lat="49.82949" lon="2.54599">
        <ele>74.6</ele>
        <time>2023-07-02T10:35:15Z</time>
      </trkpt>
      <trkpt lat="49.82949" lon="2.54597">
        <ele>74.6</ele>
        <time>2023-07-02T10:35:16Z</time>
      </trkpt>
      <trkpt lat="49.82948" lon="2.54596">
        <ele>74.6</ele>
        <time>2023-07-02T10:35:17Z</time>
      </trkpt>
      <trkpt lat="49.82948" lon="2.54593">
        <ele>74.6</ele>
        <time>2023-07-02T10:35:18Z</time>
      </trkpt>
      <trkpt lat="49.82948" lon="2.54591">
        <ele>74.6</ele>
        <time>2023-07-02T10:35:20Z</time>
      </trkpt>
      <trkpt lat="49.82947" lon="2.54588">
        <ele>74.7</ele>
        <time>2023-07-02T10:35:21Z</time>
      </trkpt>
      <trkpt lat="49.82947" lon="2.54587">
        <ele>74.7</ele>
        <time>2023-07-02T10:35:22Z</time>
      </trkpt>
      <trkpt lat="49.82947" lon="2.54585">
        <ele>74.7</ele>
        <time>2023-07-02T10:35:23Z</time>
      </trkpt>
      <trkpt lat="49.82946" lon="2.54584">
        <ele>74.7</ele>
        <time>2023-07-02T10:35:24Z</time>
      </trkpt>
      <trkpt lat="49.82946" lon="2.54582">
        <ele>74.7</ele>
        <time>2023-07-02T10:35:25Z</time>
      </trkpt>
      <trkpt lat="49.82945" lon="2.5458">
        <ele>74.8</ele>
        <time>2023-07-02T10:35:27Z</time>
      </trkpt>
      <trkpt lat="49.82945" lon="2.54577">
        <ele>74.8</ele>
        <time>2023-07-02T10:35:28Z</time>
      </trkpt>
      <trkpt lat="49.82945" lon="2.54575">
        <ele>74.8</ele>
        <time>2023-07-02T10:35:29Z</time>
      </trkpt>
      <trkpt lat="49.82945" lon="2.54574">
        <ele>74.8</ele>
        <time>2023-07-02T10:35:30Z</time>
      </trkpt>
      <trkpt lat="49.82945" lon="2.54572">
        <ele>74.9</ele>
        <time>2023-07-02T10:35:31Z</time>
      </trkpt>
      <trkpt lat="49.82944" lon="2.5457">
        <ele>74.9</ele>
        <time>2023-07-02T10:35:32Z</time>
      </trkpt>
      <trkpt lat="49.82944" lon="2.54567">
        <ele>74.9</ele>
        <time>2023-07-02T10:35:33Z</time>
      </trkpt>
      <trkpt lat="49.82944" lon="2.54566">
        <ele>75</ele>
        <time>2023-07-02T10:35:35Z</time>
      </trkpt>
      <trkpt lat="49.82944" lon="2.54564">
        <ele>75</ele>
        <time>2023-07-02T10:35:36Z</time>
      </trkpt>
      <trkpt lat="49.82944" lon="2.54563">
        <ele>75</ele>
        <time>2023-07-02T10:35:37Z</time>
      </trkpt>
      <trkpt lat="49.82944" lon="2.54561">
        <ele>75</ele>
        <time>2023-07-02T10:35:38Z</time>
      </trkpt>
      <trkpt lat="49.82944" lon="2.54559">
        <ele>75</ele>
        <time>2023-07-02T10:35:39Z</time>
      </trkpt>
      <trkpt lat="49.82944" lon="2.54557">
        <ele>75.1</ele>
        <time>2023-07-02T10:35:40Z</time>
      </trkpt>
      <trkpt lat="49.82944" lon="2.54555">
        <ele>75.1</ele>
        <time>2023-07-02T10:35:41Z</time>
      </trkpt>
      <trkpt lat="49.82944" lon="2.54553">
        <ele>75.1</ele>
        <time>2023-07-02T10:35:43Z</time>
      </trkpt>
      <trkpt lat="49.82944" lon="2.54551">
        <ele>75.2</ele>
        <time>2023-07-02T10:35:44Z</time>
      </trkpt>
      <trkpt lat="49.82945" lon="2.5455">
        <ele>75.2</ele>
        <time>2023-07-02T10:35:45Z</time>
      </trkpt>
      <trkpt lat="49.82945" lon="2.54548">
        <ele>75.2</ele>
        <time>2023-07-02T10:35:46Z</time>
      </trkpt>
      <trkpt lat="49.82944" lon="2.54545">
        <ele>75.3</ele>
        <time>2023-07-02T10:35:47Z</time>
      </trkpt>
      <trkpt lat="49.82944" lon="2.54543">
        <ele>75.3</ele>
        <time>2023-07-02T10:35:48Z</time>
      </trkpt>
      <trkpt lat="49.82944" lon="2.54542">
        <ele>75.3</ele>
        <time>2023-07-02T10:35:49Z</time>
      </trkpt>
      <trkpt lat="49.82944" lon="2.54539">
        <ele>75.4</ele>
        <time>2023-07-02T10:35:51Z</time>
      </trkpt>
      <trkpt lat="49.82944" lon="2.54538">
        <ele>75.4</ele>
        <time>2023-07-02T10:35:52Z</time>
      </trkpt>
      <trkpt lat="49.82944" lon="2.54536">
        <ele>75.4</ele>
        <time>2023-07-02T10:35:53Z</time>
      </trkpt>
      <trkpt lat="49.82943" lon="2.54533">
        <ele>75.4</ele>
        <time>2023-07-02T10:35:54Z</time>
      </trkpt>
      <trkpt lat="49.82943" lon="2.54532">
        <ele>75.5</ele>
        <time>2023-07-02T10:35:55Z</time>
      </trkpt>
      <trkpt lat="49.82943" lon="2.54531">
        <ele>75.5</ele>
        <time>2023-07-02T10:35:56Z</time>
      </trkpt>
      <trkpt lat="49.82943" lon="2.54529">
        <ele>75.5</ele>
        <time>2023-07-02T10:35:58Z</time>
      </trkpt>
      <trkpt lat="49.82942" lon="2.54527">
        <ele>75.5</ele>
        <time>2023-07-02T10:35:59Z</time>
      </trkpt>
      <trkpt lat="49.82942" lon="2.54526">
        <ele>75.6</ele>
        <time>2023-07-02T10:36:00Z</time>
      </trkpt>
      <trkpt lat="49.82942" lon="2.54524">
        <ele>75.6</ele>
        <time>2023-07-02T10:36:01Z</time>
      </trkpt>
      <trkpt lat="49.82942" lon="2.54522">
        <ele>75.6</ele>
        <time>2023-07-02T10:36:02Z</time>
      </trkpt>
      <trkpt lat="49.82942" lon="2.54521">
        <ele>75.6</ele>
        <time>2023-07-02T10:36:04Z</time>
      </trkpt>
      <trkpt lat="49.82941" lon="2.54519">
        <ele>75.7</ele>
        <time>2023-07-02T10:36:05Z</time>
      </trkpt>
      <trkpt lat="49.82941" lon="2.54517">
        <ele>75.7</ele>
        <time>2023-07-02T10:36:06Z</time>
      </trkpt>
      <trkpt lat="49.82941" lon="2.54515">
        <ele>75.7</ele>
        <time>2023-07-02T10:36:07Z</time>
      </trkpt>
      <trkpt lat="49.82941" lon="2.54513">
        <ele>75.7</ele>
        <time>2023-07-02T10:36:08Z</time>
      </trkpt>
      <trkpt lat="49.82941" lon="2.54511">
        <ele>75.8</ele>
        <time>2023-07-02T10:36:09Z</time>
      </trkpt>
      <trkpt lat="49.8294" lon="2.54509">
        <ele>75.8</ele>
        <time>2023-07-02T10:36:11Z</time>
      </trkpt>
      <trkpt lat="49.8294" lon="2.54506">
        <ele>75.8</ele>
        <time>2023-07-02T10:36:12Z</time>
      </trkpt>
      <trkpt lat="49.8294" lon="2.54504">
        <ele>75.8</ele>
        <time>2023-07-02T10:36:13Z</time>
      </trkpt>
      <trkpt lat="49.8294" lon="2.54503">
        <ele>75.9</ele>
        <time>2023-07-02T10:36:14Z</time>
      </trkpt>
      <trkpt lat="49.82941" lon="2.54501">
        <ele>75.9</ele>
        <time>2023-07-02T10:36:15Z</time>
      </trkpt>
      <trkpt lat="49.8294" lon="2.54499">
        <ele>75.9</ele>
        <time>2023-07-02T10:36:16Z</time>
      </trkpt>
      <trkpt lat="49.8294" lon="2.54497">
        <ele>75.9</ele>
        <time>2023-07-02T10:36:18Z</time>
      </trkpt>
      <trkpt lat="49.8294" lon="2.54494">
        <ele>76</ele>
        <time>2023-07-02T10:36:19Z</time>
      </trkpt>
      <trkpt lat="49.8294" lon="2.54492">
        <ele>76</ele>
        <time>2023-07-02T10:36:20Z</time>
      </trkpt>
      <trkpt lat="49.8294" lon="2.54491">
        <ele>76</ele>
        <time>2023-07-02T10:36:21Z</time>
      </trkpt>
      <trkpt lat="49.8294" lon="2.5449">
        <ele>76</ele>
        <time>2023-07-02T10:36:22Z</time>
      </trkpt>
      <trkpt lat="49.8294" lon="2.54488">
        <ele>76</ele>
        <time>2023-07-02T10:36:24Z</time>
      </trkpt>
      <trkpt lat="49.8294" lon="2.54486">
        <ele>76</ele>
        <time>2023-07-02T10:36:25Z</time>
      </trkpt>
      <trkpt lat="49.8294" lon="2.54485">
        <ele>76.1</ele>
        <time>2023-07-02T10:36:26Z</time>
      </trkpt>
      <trkpt lat="49.8294" lon="2.54483">
        <ele>76.1</ele>
        <time>2023-07-02T10:36:27Z</time>
      </trkpt>
      <trkpt lat="49.8294" lon="2.54482">
        <ele>76.1</ele>
        <time>2023-07-02T10:36:28Z</time>
      </trkpt>
      <trkpt lat="49.8294" lon="2.5448">
        <ele>76.1</ele>
        <time>2023-07-02T10:36:29Z</time>
      </trkpt>
      <trkpt lat="49.8294" lon="2.54478">
        <ele>76.1</ele>
        <time>2023-07-02T10:36:31Z</time>
      </trkpt>
      <trkpt lat="49.8294" lon="2.54476">
        <ele>76.2</ele>
        <time>2023-07-02T10:36:32Z</time>
      </trkpt>
      <trkpt lat="49.8294" lon="2.54475">
        <ele>76.2</ele>
        <time>2023-07-02T10:36:33Z</time>
      </trkpt>
      <trkpt lat="49.8294" lon="2.54473">
        <ele>76.2</ele>
        <time>2023-07-02T10:36:34Z</time>
      </trkpt>
      <trkpt lat="49.82941" lon="2.54471">
        <ele>76.2</ele>
        <time>2023-07-02T10:36:35Z</time>
      </trkpt>
      <trkpt lat="49.82941" lon="2.54468">
        <ele>76.3</ele>
        <time>2023-07-02T10:36:36Z</time>
      </trkpt>
      <trkpt lat="49.82941" lon="2.54467">
        <ele>76.3</ele>
        <time>2023-07-02T10:36:38Z</time>
      </trkpt>
      <trkpt lat="49.82941" lon="2.54466">
        <ele>76.3</ele>
        <time>2023-07-02T10:36:39Z</time>
      </trkpt>
      <trkpt lat="49.82941" lon="2.54464">
        <ele>76.3</ele>
        <time>2023-07-02T10:36:40Z</time>
      </trkpt>
      <trkpt lat="49.82941" lon="2.54462">
        <ele>76.4</ele>
        <time>2023-07-02T10:36:41Z</time>
      </trkpt>
      <trkpt lat="49.82941" lon="2.54461">
        <ele>76.4</ele>
        <time>2023-07-02T10:36:42Z</time>
      </trkpt>
      <trkpt lat="49.82941" lon="2.54459">
        <ele>76.4</ele>
        <time>2023-07-02T10:36:43Z</time>
      </trkpt>
      <trkpt lat="49.82941" lon="2.54457">
        <ele>76.4</ele>
        <time>2023-07-02T10:36:44Z</time>
      </trkpt>
      <trkpt lat="49.82941" lon="2.54455">
        <ele>76.4</ele>
        <time>2023-07-02T10:36:46Z</time>
      </trkpt>
      <trkpt lat="49.82941" lon="2.54453">
        <ele>76.5</ele>
        <time>2023-07-02T10:36:47Z</time>
      </trkpt>
      <trkpt lat="49.82941" lon="2.54451">
        <ele>76.5</ele>
        <time>2023-07-02T10:36:48Z</time>
      </trkpt>
      <trkpt lat="49.82941" lon="2.5445">
        <ele>76.5</ele>
        <time>2023-07-02T10:36:49Z</time>
      </trkpt>
      <trkpt lat="49.82941" lon="2.54448">
        <ele>76.5</ele>
        <time>2023-07-02T10:36:50Z</time>
      </trkpt>
      <trkpt lat="49.82941" lon="2.54446">
        <ele>76.6</ele>
        <time>2023-07-02T10:36:51Z</time>
      </trkpt>
      <trkpt lat="49.82941" lon="2.54444">
        <ele>76.6</ele>
        <time>2023-07-02T10:36:53Z</time>
      </trkpt>
      <trkpt lat="49.82941" lon="2.54442">
        <ele>76.6</ele>
        <time>2023-07-02T10:36:54Z</time>
      </trkpt>
      <trkpt lat="49.82941" lon="2.54441">
        <ele>76.6</ele>
        <time>2023-07-02T10:36:55Z</time>
      </trkpt>
      <trkpt lat="49.82941" lon="2.54439">
        <ele>76.6</ele>
        <time>2023-07-02T10:36:56Z</time>
      </trkpt>
      <trkpt lat="49.82941" lon="2.54437">
        <ele>76.6</ele>
        <time>2023-07-02T10:36:57Z</time>
      </trkpt>
      <trkpt lat="49.82941" lon="2.54435">
        <ele>76.7</ele>
        <time>2023-07-02T10:36:58Z</time>
      </trkpt>
      <trkpt lat="49.82941" lon="2.54431">
        <ele>76.7</ele>
        <time>2023-07-02T10:36:59Z</time>
      </trkpt>
      <trkpt lat="49.82941" lon="2.54429">
        <ele>76.7</ele>
        <time>2023-07-02T10:37:01Z</time>
      </trkpt>
      <trkpt lat="49.82941" lon="2.54427">
        <ele>76.7</ele>
        <time>2023-07-02T10:37:02Z</time>
      </trkpt>
      <trkpt lat="49.82941" lon="2.54425">
        <ele>76.7</ele>
        <time>2023-07-02T10:37:03Z</time>
      </trkpt>
      <trkpt lat="49.82941" lon="2.54424">
        <ele>76.7</ele>
        <time>2023-07-02T10:37:04Z</time>
      </trkpt>
      <trkpt lat="49.82941" lon="2.54422">
        <ele>76.7</ele>
        <time>2023-07-02T10:37:05Z</time>
      </trkpt>
      <trkpt lat="49.82941" lon="2.5442">
        <ele>76.7</ele>
        <time>2023-07-02T10:37:06Z</time>
      </trkpt>
      <trkpt lat="49.82941" lon="2.54418">
        <ele>76.7</ele>
        <time>2023-07-02T10:37:08Z</time>
      </trkpt>
      <trkpt lat="49.82941" lon="2.54416">
        <ele>76.8</ele>
        <time>2023-07-02T10:37:09Z</time>
      </trkpt>
      <trkpt lat="49.82941" lon="2.54415">
        <ele>76.8</ele>
        <time>2023-07-02T10:37:10Z</time>
      </trkpt>
      <trkpt lat="49.82941" lon="2.54413">
        <ele>76.8</ele>
        <time>2023-07-02T10:37:11Z</time>
      </trkpt>
      <trkpt lat="49.82941" lon="2.54411">
        <ele>76.8</ele>
        <time>2023-07-02T10:37:12Z</time>
      </trkpt>
      <trkpt lat="49.82941" lon="2.54409">
        <ele>76.8</ele>
        <time>2023-07-02T10:37:13Z</time>
      </trkpt>
      <trkpt lat="49.82941" lon="2.54408">
        <ele>76.8</ele>
        <time>2023-07-02T10:37:15Z</time>
      </trkpt>
      <trkpt lat="49.82941" lon="2.54406">
        <ele>76.8</ele>
        <time>2023-07-02T10:37:16Z</time>
      </trkpt>
      <trkpt lat="49.82941" lon="2.54404">
        <ele>76.8</ele>
        <time>2023-07-02T10:37:17Z</time>
      </trkpt>
      <trkpt lat="49.82941" lon="2.54402">
        <ele>76.8</ele>
        <time>2023-07-02T10:37:18Z</time>
      </trkpt>
      <trkpt lat="49.82941" lon="2.544">
        <ele>76.8</ele>
        <time>2023-07-02T10:37:19Z</time>
      </trkpt>
      <trkpt lat="49.82942" lon="2.54398">
        <ele>76.8</ele>
        <time>2023-07-02T10:37:20Z</time>
      </trkpt>
      <trkpt lat="49.82942" lon="2.54397">
        <ele>76.8</ele>
        <time>2023-07-02T10:37:22Z</time>
      </trkpt>
      <trkpt lat="49.82942" lon="2.54395">
        <ele>76.8</ele>
        <time>2023-07-02T10:37:23Z</time>
      </trkpt>
      <trkpt lat="49.82942" lon="2.54393">
        <ele>76.8</ele>
        <time>2023-07-02T10:37:24Z</time>
      </trkpt>
      <trkpt lat="49.82943" lon="2.54392">
        <ele>76.8</ele>
        <time>2023-07-02T10:37:25Z</time>
      </trkpt>
      <trkpt lat="49.82943" lon="2.5439">
        <ele>76.9</ele>
        <time>2023-07-02T10:37:26Z</time>
      </trkpt>
      <trkpt lat="49.82944" lon="2.54388">
        <ele>76.9</ele>
        <time>2023-07-02T10:37:27Z</time>
      </trkpt>
      <trkpt lat="49.82944" lon="2.54386">
        <ele>76.9</ele>
        <time>2023-07-02T10:37:28Z</time>
      </trkpt>
      <trkpt lat="49.82944" lon="2.54385">
        <ele>76.9</ele>
        <time>2023-07-02T10:37:30Z</time>
      </trkpt>
      <trkpt lat="49.82945" lon="2.54383">
        <ele>76.9</ele>
        <time>2023-07-02T10:37:31Z</time>
      </trkpt>
      <trkpt lat="49.82945" lon="2.54381">
        <ele>76.9</ele>
        <time>2023-07-02T10:37:32Z</time>
      </trkpt>
      <trkpt lat="49.82945" lon="2.54379">
        <ele>76.9</ele>
        <time>2023-07-02T10:37:33Z</time>
      </trkpt>
      <trkpt lat="49.82945" lon="2.54377">
        <ele>76.9</ele>
        <time>2023-07-02T10:37:34Z</time>
      </trkpt>
      <trkpt lat="49.82946" lon="2.54373">
        <ele>76.9</ele>
        <time>2023-07-02T10:37:35Z</time>
      </trkpt>
      <trkpt lat="49.82946" lon="2.54372">
        <ele>76.9</ele>
        <time>2023-07-02T10:37:37Z</time>
      </trkpt>
      <trkpt lat="49.82946" lon="2.5437">
        <ele>76.9</ele>
        <time>2023-07-02T10:37:38Z</time>
      </trkpt>
      <trkpt lat="49.82946" lon="2.54368">
        <ele>76.9</ele>
        <time>2023-07-02T10:37:39Z</time>
      </trkpt>
      <trkpt lat="49.82947" lon="2.54367">
        <ele>76.9</ele>
        <time>2023-07-02T10:37:40Z</time>
      </trkpt>
      <trkpt lat="49.82947" lon="2.54365">
        <ele>76.9</ele>
        <time>2023-07-02T10:37:41Z</time>
      </trkpt>
      <trkpt lat="49.82947" lon="2.54363">
        <ele>76.9</ele>
        <time>2023-07-02T10:37:42Z</time>
      </trkpt>
      <trkpt lat="49.82948" lon="2.54361">
        <ele>76.9</ele>
        <time>2023-07-02T10:37:44Z</time>
      </trkpt>
      <trkpt lat="49.82949" lon="2.54358">
        <ele>76.9</ele>
        <time>2023-07-02T10:37:45Z</time>
      </trkpt>
      <trkpt lat="49.82949" lon="2.54357">
        <ele>76.9</ele>
        <time>2023-07-02T10:37:46Z</time>
      </trkpt>
      <trkpt lat="49.82949" lon="2.54356">
        <ele>76.9</ele>
        <time>2023-07-02T10:37:47Z</time>
      </trkpt>
      <trkpt lat="49.8295" lon="2.54354">
        <ele>76.9</ele>
        <time>2023-07-02T10:37:48Z</time>
      </trkpt>
      <trkpt lat="49.8295" lon="2.54352">
        <ele>76.9</ele>
        <time>2023-07-02T10:37:49Z</time>
      </trkpt>
      <trkpt lat="49.82951" lon="2.5435">
        <ele>76.9</ele>
        <time>2023-07-02T10:37:51Z</time>
      </trkpt>
      <trkpt lat="49.82951" lon="2.54347">
        <ele>76.9</ele>
        <time>2023-07-02T10:37:52Z</time>
      </trkpt>
      <trkpt lat="49.82951" lon="2.54346">
        <ele>76.9</ele>
        <time>2023-07-02T10:37:53Z</time>
      </trkpt>
      <trkpt lat="49.82952" lon="2.54345">
        <ele>76.9</ele>
        <time>2023-07-02T10:37:54Z</time>
      </trkpt>
      <trkpt lat="49.82952" lon="2.54342">
        <ele>76.9</ele>
        <time>2023-07-02T10:37:55Z</time>
      </trkpt>
      <trkpt lat="49.82952" lon="2.54341">
        <ele>76.9</ele>
        <time>2023-07-02T10:37:56Z</time>
      </trkpt>
      <trkpt lat="49.82953" lon="2.54339">
        <ele>76.9</ele>
        <time>2023-07-02T10:37:57Z</time>
      </trkpt>
      <trkpt lat="49.82953" lon="2.54336">
        <ele>76.9</ele>
        <time>2023-07-02T10:37:59Z</time>
      </trkpt>
      <trkpt lat="49.82953" lon="2.54335">
        <ele>76.9</ele>
        <time>2023-07-02T10:38:00Z</time>
      </trkpt>
      <trkpt lat="49.82954" lon="2.54334">
        <ele>76.9</ele>
        <time>2023-07-02T10:38:01Z</time>
      </trkpt>
      <trkpt lat="49.82954" lon="2.54332">
        <ele>76.9</ele>
        <time>2023-07-02T10:38:02Z</time>
      </trkpt>
      <trkpt lat="49.82954" lon="2.5433">
        <ele>76.9</ele>
        <time>2023-07-02T10:38:03Z</time>
      </trkpt>
      <trkpt lat="49.82955" lon="2.54329">
        <ele>76.9</ele>
        <time>2023-07-02T10:38:04Z</time>
      </trkpt>
      <trkpt lat="49.82955" lon="2.54325">
        <ele>76.8</ele>
        <time>2023-07-02T10:38:05Z</time>
      </trkpt>
      <trkpt lat="49.82955" lon="2.54324">
        <ele>76.8</ele>
        <time>2023-07-02T10:38:07Z</time>
      </trkpt>
      <trkpt lat="49.82955" lon="2.54323">
        <ele>76.8</ele>
        <time>2023-07-02T10:38:08Z</time>
      </trkpt>
      <trkpt lat="49.82955" lon="2.5432">
        <ele>76.8</ele>
        <time>2023-07-02T10:38:09Z</time>
      </trkpt>
      <trkpt lat="49.82956" lon="2.54318">
        <ele>76.7</ele>
        <time>2023-07-02T10:38:10Z</time>
      </trkpt>
      <trkpt lat="49.82956" lon="2.54317">
        <ele>76.7</ele>
        <time>2023-07-02T10:38:11Z</time>
      </trkpt>
      <trkpt lat="49.82956" lon="2.54315">
        <ele>76.7</ele>
        <time>2023-07-02T10:38:12Z</time>
      </trkpt>
      <trkpt lat="49.82956" lon="2.54313">
        <ele>76.7</ele>
        <time>2023-07-02T10:38:13Z</time>
      </trkpt>
      <trkpt lat="49.82956" lon="2.54311">
        <ele>76.6</ele>
        <time>2023-07-02T10:38:15Z</time>
      </trkpt>
      <trkpt lat="49.82956" lon="2.54308">
        <ele>76.6</ele>
        <time>2023-07-02T10:38:16Z</time>
      </trkpt>
      <trkpt lat="49.82956" lon="2.54307">
        <ele>76.6</ele>
        <time>2023-07-02T10:38:17Z</time>
      </trkpt>
      <trkpt lat="49.82956" lon="2.54305">
        <ele>76.6</ele>
        <time>2023-07-02T10:38:18Z</time>
      </trkpt>
      <trkpt lat="49.82956" lon="2.54302">
        <ele>76.5</ele>
        <time>2023-07-02T10:38:19Z</time>
      </trkpt>
      <trkpt lat="49.82956" lon="2.54301">
        <ele>76.5</ele>
        <time>2023-07-02T10:38:20Z</time>
      </trkpt>
      <trkpt lat="49.82956" lon="2.54299">
        <ele>76.5</ele>
        <time>2023-07-02T10:38:21Z</time>
      </trkpt>
      <trkpt lat="49.82957" lon="2.54297">
        <ele>76.4</ele>
        <time>2023-07-02T10:38:23Z</time>
      </trkpt>
      <trkpt lat="49.82957" lon="2.54295">
        <ele>76.4</ele>
        <time>2023-07-02T10:38:24Z</time>
      </trkpt>
      <trkpt lat="49.82957" lon="2.54292">
        <ele>76.4</ele>
        <time>2023-07-02T10:38:25Z</time>
      </trkpt>
      <trkpt lat="49.82957" lon="2.54291">
        <ele>76.3</ele>
        <time>2023-07-02T10:38:26Z</time>
      </trkpt>
      <trkpt lat="49.82958" lon="2.54289">
        <ele>76.3</ele>
        <time>2023-07-02T10:38:27Z</time>
      </trkpt>
      <trkpt lat="49.82958" lon="2.54287">
        <ele>76.3</ele>
        <time>2023-07-02T10:38:28Z</time>
      </trkpt>
      <trkpt lat="49.82959" lon="2.54286">
        <ele>76.3</ele>
        <time>2023-07-02T10:38:29Z</time>
      </trkpt>
      <trkpt lat="49.82959" lon="2.54284">
        <ele>76.2</ele>
        <time>2023-07-02T10:38:31Z</time>
      </trkpt>
      <trkpt lat="49.8296" lon="2.54281">
        <ele>76.2</ele>
        <time>2023-07-02T10:38:32Z</time>
      </trkpt>
      <trkpt lat="49.8296" lon="2.54279">
        <ele>76.1</ele>
        <time>2023-07-02T10:38:33Z</time>
      </trkpt>
      <trkpt lat="49.82961" lon="2.54278">
        <ele>76.1</ele>
        <time>2023-07-02T10:38:34Z</time>
      </trkpt>
      <trkpt lat="49.82961" lon="2.54276">
        <ele>76.1</ele>
        <time>2023-07-02T10:38:35Z</time>
      </trkpt>
      <trkpt lat="49.82962" lon="2.54275">
        <ele>76</ele>
        <time>2023-07-02T10:38:36Z</time>
      </trkpt>
      <trkpt lat="49.82963" lon="2.54273">
        <ele>76</ele>
        <time>2023-07-02T10:38:38Z</time>
      </trkpt>
      <trkpt lat="49.82963" lon="2.54271">
        <ele>75.9</ele>
        <time>2023-07-02T10:38:39Z</time>
      </trkpt>
      <trkpt lat="49.82964" lon="2.54269">
        <ele>75.9</ele>
        <time>2023-07-02T10:38:40Z</time>
      </trkpt>
      <trkpt lat="49.82964" lon="2.54267">
        <ele>75.8</ele>
        <time>2023-07-02T10:38:41Z</time>
      </trkpt>
      <trkpt lat="49.82965" lon="2.54266">
        <ele>75.8</ele>
        <time>2023-07-02T10:38:42Z</time>
      </trkpt>
      <trkpt lat="49.82965" lon="2.54264">
        <ele>75.7</ele>
        <time>2023-07-02T10:38:43Z</time>
      </trkpt>
      <trkpt lat="49.82965" lon="2.54262">
        <ele>75.7</ele>
        <time>2023-07-02T10:38:44Z</time>
      </trkpt>
      <trkpt lat="49.82966" lon="2.5426">
        <ele>75.6</ele>
        <time>2023-07-02T10:38:46Z</time>
      </trkpt>
      <trkpt lat="49.82967" lon="2.54257">
        <ele>75.5</ele>
        <time>2023-07-02T10:38:47Z</time>
      </trkpt>
      <trkpt lat="49.82967" lon="2.54256">
        <ele>75.5</ele>
        <time>2023-07-02T10:38:48Z</time>
      </trkpt>
      <trkpt lat="49.82967" lon="2.54255">
        <ele>75.5</ele>
        <time>2023-07-02T10:38:49Z</time>
      </trkpt>
      <trkpt lat="49.82968" lon="2.54252">
        <ele>75.4</ele>
        <time>2023-07-02T10:38:50Z</time>
      </trkpt>
      <trkpt lat="49.82968" lon="2.54251">
        <ele>75.3</ele>
        <time>2023-07-02T10:38:51Z</time>
      </trkpt>
      <trkpt lat="49.82968" lon="2.54249">
        <ele>75.3</ele>
        <time>2023-07-02T10:38:52Z</time>
      </trkpt>
      <trkpt lat="49.82969" lon="2.54246">
        <ele>75.2</ele>
        <time>2023-07-02T10:38:53Z</time>
      </trkpt>
      <trkpt lat="49.82969" lon="2.54245">
        <ele>75.1</ele>
        <time>2023-07-02T10:38:55Z</time>
      </trkpt>
      <trkpt lat="49.8297" lon="2.54244">
        <ele>75.1</ele>
        <time>2023-07-02T10:38:56Z</time>
      </trkpt>
      <trkpt lat="49.82971" lon="2.54241">
        <ele>74.9</ele>
        <time>2023-07-02T10:38:57Z</time>
      </trkpt>
      <trkpt lat="49.82971" lon="2.5424">
        <ele>74.9</ele>
        <time>2023-07-02T10:38:58Z</time>
      </trkpt>
      <trkpt lat="49.82971" lon="2.54239">
        <ele>74.8</ele>
        <time>2023-07-02T10:38:59Z</time>
      </trkpt>
      <trkpt lat="49.82972" lon="2.54237">
        <ele>74.7</ele>
        <time>2023-07-02T10:39:00Z</time>
      </trkpt>
      <trkpt lat="49.82973" lon="2.54235">
        <ele>74.6</ele>
        <time>2023-07-02T10:39:01Z</time>
      </trkpt>
      <trkpt lat="49.82973" lon="2.54233">
        <ele>74.5</ele>
        <time>2023-07-02T10:39:03Z</time>
      </trkpt>
      <trkpt lat="49.82974" lon="2.5423">
        <ele>74.4</ele>
        <time>2023-07-02T10:39:04Z</time>
      </trkpt>
      <trkpt lat="49.82975" lon="2.54229">
        <ele>74.3</ele>
        <time>2023-07-02T10:39:05Z</time>
      </trkpt>
      <trkpt lat="49.82975" lon="2.54228">
        <ele>74.3</ele>
        <time>2023-07-02T10:39:06Z</time>
      </trkpt>
      <trkpt lat="49.82976" lon="2.54225">
        <ele>74.1</ele>
        <time>2023-07-02T10:39:07Z</time>
      </trkpt>
      <trkpt lat="49.82977" lon="2.54224">
        <ele>74</ele>
        <time>2023-07-02T10:39:08Z</time>
      </trkpt>
      <trkpt lat="49.82977" lon="2.54223">
        <ele>74</ele>
        <time>2023-07-02T10:39:09Z</time>
      </trkpt>
      <trkpt lat="49.82978" lon="2.54221">
        <ele>73.9</ele>
        <time>2023-07-02T10:39:10Z</time>
      </trkpt>
      <trkpt lat="49.82979" lon="2.54219">
        <ele>73.8</ele>
        <time>2023-07-02T10:39:12Z</time>
      </trkpt>
      <trkpt lat="49.8298" lon="2.54218">
        <ele>73.7</ele>
        <time>2023-07-02T10:39:13Z</time>
      </trkpt>
      <trkpt lat="49.8298" lon="2.54216">
        <ele>73.6</ele>
        <time>2023-07-02T10:39:14Z</time>
      </trkpt>
      <trkpt lat="49.82981" lon="2.54215">
        <ele>73.5</ele>
        <time>2023-07-02T10:39:15Z</time>
      </trkpt>
      <trkpt lat="49.82981" lon="2.54212">
        <ele>73.3</ele>
        <time>2023-07-02T10:39:16Z</time>
      </trkpt>
      <trkpt lat="49.82982" lon="2.54211">
        <ele>73.2</ele>
        <time>2023-07-02T10:39:17Z</time>
      </trkpt>
      <trkpt lat="49.82982" lon="2.5421">
        <ele>73.1</ele>
        <time>2023-07-02T10:39:18Z</time>
      </trkpt>
      <trkpt lat="49.82982" lon="2.54207">
        <ele>73</ele>
        <time>2023-07-02T10:39:20Z</time>
      </trkpt>
      <trkpt lat="49.82983" lon="2.54205">
        <ele>72.9</ele>
        <time>2023-07-02T10:39:21Z</time>
      </trkpt>
      <trkpt lat="49.82983" lon="2.54204">
        <ele>72.8</ele>
        <time>2023-07-02T10:39:22Z</time>
      </trkpt>
      <trkpt lat="49.82983" lon="2.54201">
        <ele>72.6</ele>
        <time>2023-07-02T10:39:23Z</time>
      </trkpt>
      <trkpt lat="49.82983" lon="2.542">
        <ele>72.5</ele>
        <time>2023-07-02T10:39:24Z</time>
      </trkpt>
      <trkpt lat="49.82984" lon="2.54198">
        <ele>72.5</ele>
        <time>2023-07-02T10:39:25Z</time>
      </trkpt>
      <trkpt lat="49.82983" lon="2.54195">
        <ele>72.3</ele>
        <time>2023-07-02T10:39:26Z</time>
      </trkpt>
      <trkpt lat="49.82983" lon="2.54194">
        <ele>72.2</ele>
        <time>2023-07-02T10:39:27Z</time>
      </trkpt>
      <trkpt lat="49.82983" lon="2.54192">
        <ele>72.1</ele>
        <time>2023-07-02T10:39:28Z</time>
      </trkpt>
      <trkpt lat="49.82982" lon="2.54189">
        <ele>71.9</ele>
        <time>2023-07-02T10:39:30Z</time>
      </trkpt>
      <trkpt lat="49.82982" lon="2.54188">
        <ele>71.8</ele>
        <time>2023-07-02T10:39:31Z</time>
      </trkpt>
      <trkpt lat="49.82982" lon="2.54187">
        <ele>71.7</ele>
        <time>2023-07-02T10:39:32Z</time>
      </trkpt>
      <trkpt lat="49.82981" lon="2.54186">
        <ele>71.6</ele>
        <time>2023-07-02T10:39:33Z</time>
      </trkpt>
      <trkpt lat="49.82981" lon="2.54184">
        <ele>71.5</ele>
        <time>2023-07-02T10:39:34Z</time>
      </trkpt>
      <trkpt lat="49.8298" lon="2.54182">
        <ele>71.4</ele>
        <time>2023-07-02T10:39:35Z</time>
      </trkpt>
      <trkpt lat="49.82979" lon="2.54181">
        <ele>71.2</ele>
        <time>2023-07-02T10:39:36Z</time>
      </trkpt>
      <trkpt lat="49.82978" lon="2.54179">
        <ele>71.1</ele>
        <time>2023-07-02T10:39:37Z</time>
      </trkpt>
      <trkpt lat="49.82978" lon="2.54177">
        <ele>71</ele>
        <time>2023-07-02T10:39:39Z</time>
      </trkpt>
      <trkpt lat="49.82977" lon="2.54175">
        <ele>70.8</ele>
        <time>2023-07-02T10:39:40Z</time>
      </trkpt>
      <trkpt lat="49.82977" lon="2.54174">
        <ele>70.7</ele>
        <time>2023-07-02T10:39:41Z</time>
      </trkpt>
      <trkpt lat="49.82976" lon="2.54173">
        <ele>70.6</ele>
        <time>2023-07-02T10:39:42Z</time>
      </trkpt>
      <trkpt lat="49.82975" lon="2.54172">
        <ele>70.5</ele>
        <time>2023-07-02T10:39:43Z</time>
      </trkpt>
      <trkpt lat="49.82974" lon="2.54171">
        <ele>70.3</ele>
        <time>2023-07-02T10:39:44Z</time>
      </trkpt>
      <trkpt lat="49.82973" lon="2.54169">
        <ele>70.2</ele>
        <time>2023-07-02T10:39:46Z</time>
      </trkpt>
      <trkpt lat="49.82972" lon="2.54168">
        <ele>70.1</ele>
        <time>2023-07-02T10:39:47Z</time>
      </trkpt>
      <trkpt lat="49.82971" lon="2.54167">
        <ele>69.9</ele>
        <time>2023-07-02T10:39:48Z</time>
      </trkpt>
      <trkpt lat="49.8297" lon="2.54166">
        <ele>69.8</ele>
        <time>2023-07-02T10:39:49Z</time>
      </trkpt>
      <trkpt lat="49.82969" lon="2.54164">
        <ele>69.5</ele>
        <time>2023-07-02T10:39:50Z</time>
      </trkpt>
      <trkpt lat="49.82968" lon="2.54163">
        <ele>69.4</ele>
        <time>2023-07-02T10:39:51Z</time>
      </trkpt>
      <trkpt lat="49.82968" lon="2.54162">
        <ele>69.3</ele>
        <time>2023-07-02T10:39:52Z</time>
      </trkpt>
      <trkpt lat="49.82966" lon="2.5416">
        <ele>68.9</ele>
        <time>2023-07-02T10:39:53Z</time>
      </trkpt>
      <trkpt lat="49.82965" lon="2.54159">
        <ele>68.8</ele>
        <time>2023-07-02T10:39:55Z</time>
      </trkpt>
      <trkpt lat="49.82964" lon="2.54157">
        <ele>68.6</ele>
        <time>2023-07-02T10:39:56Z</time>
      </trkpt>
      <trkpt lat="49.82964" lon="2.54156">
        <ele>68.5</ele>
        <time>2023-07-02T10:39:57Z</time>
      </trkpt>
      <trkpt lat="49.82963" lon="2.54155">
        <ele>68.3</ele>
        <time>2023-07-02T10:39:58Z</time>
      </trkpt>
      <trkpt lat="49.82962" lon="2.54154">
        <ele>68.1</ele>
        <time>2023-07-02T10:39:59Z</time>
      </trkpt>
      <trkpt lat="49.82961" lon="2.54152">
        <ele>67.9</ele>
        <time>2023-07-02T10:40:00Z</time>
      </trkpt>
      <trkpt lat="49.82961" lon="2.54151">
        <ele>67.7</ele>
        <time>2023-07-02T10:40:01Z</time>
      </trkpt>
      <trkpt lat="49.8296" lon="2.54149">
        <ele>67.5</ele>
        <time>2023-07-02T10:40:02Z</time>
      </trkpt>
      <trkpt lat="49.82959" lon="2.54148">
        <ele>67.3</ele>
        <time>2023-07-02T10:40:04Z</time>
      </trkpt>
      <trkpt lat="49.82959" lon="2.54147">
        <ele>67.1</ele>
        <time>2023-07-02T10:40:05Z</time>
      </trkpt>
      <trkpt lat="49.82958" lon="2.54145">
        <ele>66.9</ele>
        <time>2023-07-02T10:40:06Z</time>
      </trkpt>
      <trkpt lat="49.82957" lon="2.54144">
        <ele>66.7</ele>
        <time>2023-07-02T10:40:07Z</time>
      </trkpt>
      <trkpt lat="49.82956" lon="2.54143">
        <ele>66.5</ele>
        <time>2023-07-02T10:40:08Z</time>
      </trkpt>
      <trkpt lat="49.82955" lon="2.5414">
        <ele>66.2</ele>
        <time>2023-07-02T10:40:09Z</time>
      </trkpt>
      <trkpt lat="49.82955" lon="2.54139">
        <ele>66</ele>
        <time>2023-07-02T10:40:10Z</time>
      </trkpt>
      <trkpt lat="49.82954" lon="2.54138">
        <ele>65.9</ele>
        <time>2023-07-02T10:40:11Z</time>
      </trkpt>
      <trkpt lat="49.82953" lon="2.54136">
        <ele>65.6</ele>
        <time>2023-07-02T10:40:12Z</time>
      </trkpt>
      <trkpt lat="49.82952" lon="2.54135">
        <ele>65.5</ele>
        <time>2023-07-02T10:40:14Z</time>
      </trkpt>
      <trkpt lat="49.82952" lon="2.54134">
        <ele>65.3</ele>
        <time>2023-07-02T10:40:15Z</time>
      </trkpt>
      <trkpt lat="49.82951" lon="2.54132">
        <ele>65.1</ele>
        <time>2023-07-02T10:40:16Z</time>
      </trkpt>
      <trkpt lat="49.82951" lon="2.54131">
        <ele>65</ele>
        <time>2023-07-02T10:40:17Z</time>
      </trkpt>
      <trkpt lat="49.82951" lon="2.54129">
        <ele>64.9</ele>
        <time>2023-07-02T10:40:18Z</time>
      </trkpt>
      <trkpt lat="49.8295" lon="2.54127">
        <ele>64.7</ele>
        <time>2023-07-02T10:40:19Z</time>
      </trkpt>
      <trkpt lat="49.8295" lon="2.54127">
        <ele>64.6</ele>
        <time>2023-07-02T10:40:20Z</time>
      </trkpt>
      <trkpt lat="49.82949" lon="2.54126">
        <ele>64.5</ele>
        <time>2023-07-02T10:40:22Z</time>
      </trkpt>
      <trkpt lat="49.82949" lon="2.54125">
        <ele>64.4</ele>
        <time>2023-07-02T10:40:23Z</time>
      </trkpt>
      <trkpt lat="49.82948" lon="2.54124">
        <ele>64.2</ele>
        <time>2023-07-02T10:40:24Z</time>
      </trkpt>
      <trkpt lat="49.82947" lon="2.54123">
        <ele>64.1</ele>
        <time>2023-07-02T10:40:25Z</time>
      </trkpt>
      <trkpt lat="49.82947" lon="2.54123">
        <ele>64.1</ele>
        <time>2023-07-02T10:40:26Z</time>
      </trkpt>
      <trkpt lat="49.82946" lon="2.54123">
        <ele>64</ele>
        <time>2023-07-02T10:40:27Z</time>
      </trkpt>
      <trkpt lat="49.82946" lon="2.54122">
        <ele>63.9</ele>
        <time>2023-07-02T10:40:28Z</time>
      </trkpt>
      <trkpt lat="49.82945" lon="2.54121">
        <ele>63.7</ele>
        <time>2023-07-02T10:40:30Z</time>
      </trkpt>
      <trkpt lat="49.82944" lon="2.5412">
        <ele>63.6</ele>
        <time>2023-07-02T10:40:31Z</time>
      </trkpt>
      <trkpt lat="49.82943" lon="2.54119">
        <ele>63.5</ele>
        <time>2023-07-02T10:40:32Z</time>
      </trkpt>
      <trkpt lat="49.82942" lon="2.54118">
        <ele>63.3</ele>
        <time>2023-07-02T10:40:33Z</time>
      </trkpt>
      <trkpt lat="49.82941" lon="2.54117">
        <ele>63.2</ele>
        <time>2023-07-02T10:40:34Z</time>
      </trkpt>
      <trkpt lat="49.8294" lon="2.54116">
        <ele>63.1</ele>
        <time>2023-07-02T10:40:35Z</time>
      </trkpt>
      <trkpt lat="49.8294" lon="2.54114">
        <ele>62.9</ele>
        <time>2023-07-02T10:40:36Z</time>
      </trkpt>
      <trkpt lat="49.82938" lon="2.54113">
        <ele>62.7</ele>
        <time>2023-07-02T10:40:37Z</time>
      </trkpt>
      <trkpt lat="49.82936" lon="2.5411">
        <ele>62.4</ele>
        <time>2023-07-02T10:40:39Z</time>
      </trkpt>
      <trkpt lat="49.82935" lon="2.54109">
        <ele>62.3</ele>
        <time>2023-07-02T10:40:40Z</time>
      </trkpt>
      <trkpt lat="49.82932" lon="2.54106">
        <ele>62</ele>
        <time>2023-07-02T10:40:41Z</time>
      </trkpt>
      <trkpt lat="49.82932" lon="2.54106">
        <ele>61.9</ele>
        <time>2023-07-02T10:40:42Z</time>
      </trkpt>
      <trkpt lat="49.8293" lon="2.54104">
        <ele>61.7</ele>
        <time>2023-07-02T10:40:43Z</time>
      </trkpt>
      <trkpt lat="49.82929" lon="2.54103">
        <ele>61.6</ele>
        <time>2023-07-02T10:40:44Z</time>
      </trkpt>
      <trkpt lat="49.82928" lon="2.54102">
        <ele>61.4</ele>
        <time>2023-07-02T10:40:45Z</time>
      </trkpt>
      <trkpt lat="49.82927" lon="2.54101">
        <ele>61.3</ele>
        <time>2023-07-02T10:40:47Z</time>
      </trkpt>
      <trkpt lat="49.82925" lon="2.541">
        <ele>61.2</ele>
        <time>2023-07-02T10:40:48Z</time>
      </trkpt>
      <trkpt lat="49.82924" lon="2.54099">
        <ele>61</ele>
        <time>2023-07-02T10:40:49Z</time>
      </trkpt>
      <trkpt lat="49.82923" lon="2.54099">
        <ele>61</ele>
        <time>2023-07-02T10:40:50Z</time>
      </trkpt>
      <trkpt lat="49.82922" lon="2.54098">
        <ele>60.8</ele>
        <time>2023-07-02T10:40:51Z</time>
      </trkpt>
      <trkpt lat="49.82921" lon="2.54097">
        <ele>60.7</ele>
        <time>2023-07-02T10:40:52Z</time>
      </trkpt>
      <trkpt lat="49.8292" lon="2.54096">
        <ele>60.6</ele>
        <time>2023-07-02T10:40:54Z</time>
      </trkpt>
      <trkpt lat="49.82919" lon="2.54096">
        <ele>60.5</ele>
        <time>2023-07-02T10:40:55Z</time>
      </trkpt>
      <trkpt lat="49.82918" lon="2.54095">
        <ele>60.3</ele>
        <time>2023-07-02T10:40:56Z</time>
      </trkpt>
      <trkpt lat="49.82917" lon="2.54094">
        <ele>60.2</ele>
        <time>2023-07-02T10:40:57Z</time>
      </trkpt>
      <trkpt lat="49.82916" lon="2.54094">
        <ele>60.2</ele>
        <time>2023-07-02T10:40:58Z</time>
      </trkpt>
      <trkpt lat="49.82916" lon="2.54093">
        <ele>60.1</ele>
        <time>2023-07-02T10:40:59Z</time>
      </trkpt>
      <trkpt lat="49.82915" lon="2.54092">
        <ele>60</ele>
        <time>2023-07-02T10:41:01Z</time>
      </trkpt>
      <trkpt lat="49.82914" lon="2.54091">
        <ele>59.9</ele>
        <time>2023-07-02T10:41:02Z</time>
      </trkpt>
      <trkpt lat="49.82913" lon="2.54089">
        <ele>59.8</ele>
        <time>2023-07-02T10:41:03Z</time>
      </trkpt>
      <trkpt lat="49.82913" lon="2.54088">
        <ele>59.7</ele>
        <time>2023-07-02T10:41:04Z</time>
      </trkpt>
      <trkpt lat="49.82912" lon="2.54086">
        <ele>59.6</ele>
        <time>2023-07-02T10:41:05Z</time>
      </trkpt>
      <trkpt lat="49.82912" lon="2.54084">
        <ele>59.5</ele>
        <time>2023-07-02T10:41:06Z</time>
      </trkpt>
      <trkpt lat="49.82912" lon="2.54082">
        <ele>59.3</ele>
        <time>2023-07-02T10:41:08Z</time>
      </trkpt>
      <trkpt lat="49.82911" lon="2.5408">
        <ele>59.2</ele>
        <time>2023-07-02T10:41:09Z</time>
      </trkpt>
      <trkpt lat="49.82911" lon="2.54078">
        <ele>59.1</ele>
        <time>2023-07-02T10:41:10Z</time>
      </trkpt>
      <trkpt lat="49.8291" lon="2.54076">
        <ele>59</ele>
        <time>2023-07-02T10:41:11Z</time>
      </trkpt>
      <trkpt lat="49.8291" lon="2.54074">
        <ele>58.9</ele>
        <time>2023-07-02T10:41:12Z</time>
      </trkpt>
      <trkpt lat="49.8291" lon="2.54071">
        <ele>58.8</ele>
        <time>2023-07-02T10:41:13Z</time>
      </trkpt>
      <trkpt lat="49.82909" lon="2.54069">
        <ele>58.7</ele>
        <time>2023-07-02T10:41:14Z</time>
      </trkpt>
      <trkpt lat="49.82909" lon="2.54067">
        <ele>58.6</ele>
        <time>2023-07-02T10:41:15Z</time>
      </trkpt>
      <trkpt lat="49.82909" lon="2.54065">
        <ele>58.5</ele>
        <time>2023-07-02T10:41:17Z</time>
      </trkpt>
      <trkpt lat="49.82908" lon="2.54063">
        <ele>58.4</ele>
        <time>2023-07-02T10:41:18Z</time>
      </trkpt>
      <trkpt lat="49.82908" lon="2.54061">
        <ele>58.4</ele>
        <time>2023-07-02T10:41:19Z</time>
      </trkpt>
      <trkpt lat="49.82908" lon="2.54059">
        <ele>58.3</ele>
        <time>2023-07-02T10:41:20Z</time>
      </trkpt>
      <trkpt lat="49.82908" lon="2.54057">
        <ele>58.2</ele>
        <time>2023-07-02T10:41:21Z</time>
      </trkpt>
      <trkpt lat="49.82907" lon="2.54056">
        <ele>58.2</ele>
        <time>2023-07-02T10:41:22Z</time>
      </trkpt>
      <trkpt lat="49.82906" lon="2.54053">
        <ele>58.1</ele>
        <time>2023-07-02T10:41:24Z</time>
      </trkpt>
      <trkpt lat="49.82906" lon="2.54052">
        <ele>58.1</ele>
        <time>2023-07-02T10:41:25Z</time>
      </trkpt>
      <trkpt lat="49.82905" lon="2.54051">
        <ele>58.1</ele>
        <time>2023-07-02T10:41:26Z</time>
      </trkpt>
      <trkpt lat="49.82905" lon="2.54049">
        <ele>58.1</ele>
        <time>2023-07-02T10:41:27Z</time>
      </trkpt>
      <trkpt lat="49.82904" lon="2.54047">
        <ele>58</ele>
        <time>2023-07-02T10:41:28Z</time>
      </trkpt>
      <trkpt lat="49.82903" lon="2.54046">
        <ele>58</ele>
        <time>2023-07-02T10:41:29Z</time>
      </trkpt>
      <trkpt lat="49.82903" lon="2.54044">
        <ele>58</ele>
        <time>2023-07-02T10:41:31Z</time>
      </trkpt>
      <trkpt lat="49.82902" lon="2.54042">
        <ele>58</ele>
        <time>2023-07-02T10:41:32Z</time>
      </trkpt>
      <trkpt lat="49.82902" lon="2.54041">
        <ele>57.9</ele>
        <time>2023-07-02T10:41:33Z</time>
      </trkpt>
      <trkpt lat="49.82902" lon="2.54039">
        <ele>57.9</ele>
        <time>2023-07-02T10:41:34Z</time>
      </trkpt>
      <trkpt lat="49.82901" lon="2.54038">
        <ele>57.9</ele>
        <time>2023-07-02T10:41:35Z</time>
      </trkpt>
      <trkpt lat="49.829" lon="2.54036">
        <ele>57.9</ele>
        <time>2023-07-02T10:41:36Z</time>
      </trkpt>
      <trkpt lat="49.829" lon="2.54035">
        <ele>57.9</ele>
        <time>2023-07-02T10:41:37Z</time>
      </trkpt>
      <trkpt lat="49.82899" lon="2.54034">
        <ele>57.9</ele>
        <time>2023-07-02T10:41:38Z</time>
      </trkpt>
      <trkpt lat="49.82898" lon="2.54032">
        <ele>57.9</ele>
        <time>2023-07-02T10:41:40Z</time>
      </trkpt>
      <trkpt lat="49.82897" lon="2.54031">
        <ele>57.9</ele>
        <time>2023-07-02T10:41:41Z</time>
      </trkpt>
      <trkpt lat="49.82897" lon="2.5403">
        <ele>57.9</ele>
        <time>2023-07-02T10:41:42Z</time>
      </trkpt>
      <trkpt lat="49.82896" lon="2.54028">
        <ele>58</ele>
        <time>2023-07-02T10:41:43Z</time>
      </trkpt>
      <trkpt lat="49.82895" lon="2.54027">
        <ele>58</ele>
        <time>2023-07-02T10:41:44Z</time>
      </trkpt>
      <trkpt lat="49.82894" lon="2.54026">
        <ele>58</ele>
        <time>2023-07-02T10:41:45Z</time>
      </trkpt>
      <trkpt lat="49.82893" lon="2.54024">
        <ele>58</ele>
        <time>2023-07-02T10:41:47Z</time>
      </trkpt>
      <trkpt lat="49.82892" lon="2.54023">
        <ele>58</ele>
        <time>2023-07-02T10:41:48Z</time>
      </trkpt>
      <trkpt lat="49.82891" lon="2.54023">
        <ele>58</ele>
        <time>2023-07-02T10:41:49Z</time>
      </trkpt>
      <trkpt lat="49.82891" lon="2.54022">
        <ele>58</ele>
        <time>2023-07-02T10:41:50Z</time>
      </trkpt>
      <trkpt lat="49.8289" lon="2.5402">
        <ele>58.1</ele>
        <time>2023-07-02T10:41:51Z</time>
      </trkpt>
      <trkpt lat="49.82889" lon="2.54019">
        <ele>58.1</ele>
        <time>2023-07-02T10:41:52Z</time>
      </trkpt>
      <trkpt lat="49.82888" lon="2.54018">
        <ele>58.1</ele>
        <time>2023-07-02T10:41:54Z</time>
      </trkpt>
      <trkpt lat="49.82888" lon="2.54017">
        <ele>58.1</ele>
        <time>2023-07-02T10:41:55Z</time>
      </trkpt>
      <trkpt lat="49.82887" lon="2.54015">
        <ele>58.1</ele>
        <time>2023-07-02T10:41:56Z</time>
      </trkpt>
      <trkpt lat="49.82886" lon="2.54014">
        <ele>58.2</ele>
        <time>2023-07-02T10:41:57Z</time>
      </trkpt>
      <trkpt lat="49.82885" lon="2.54013">
        <ele>58.2</ele>
        <time>2023-07-02T10:41:58Z</time>
      </trkpt>
      <trkpt lat="49.82885" lon="2.54012">
        <ele>58.2</ele>
        <time>2023-07-02T10:41:59Z</time>
      </trkpt>
      <trkpt lat="49.82883" lon="2.54009">
        <ele>58.2</ele>
        <time>2023-07-02T10:42:01Z</time>
      </trkpt>
      <trkpt lat="49.82883" lon="2.54008">
        <ele>58.3</ele>
        <time>2023-07-02T10:42:02Z</time>
      </trkpt>
      <trkpt lat="49.82882" lon="2.54007">
        <ele>58.3</ele>
        <time>2023-07-02T10:42:03Z</time>
      </trkpt>
      <trkpt lat="49.82882" lon="2.54005">
        <ele>58.3</ele>
        <time>2023-07-02T10:42:04Z</time>
      </trkpt>
      <trkpt lat="49.82881" lon="2.54004">
        <ele>58.4</ele>
        <time>2023-07-02T10:42:05Z</time>
      </trkpt>
      <trkpt lat="49.8288" lon="2.54002">
        <ele>58.4</ele>
        <time>2023-07-02T10:42:06Z</time>
      </trkpt>
      <trkpt lat="49.8288" lon="2.54001">
        <ele>58.4</ele>
        <time>2023-07-02T10:42:07Z</time>
      </trkpt>
      <trkpt lat="49.82879" lon="2.54">
        <ele>58.5</ele>
        <time>2023-07-02T10:42:09Z</time>
      </trkpt>
      <trkpt lat="49.82878" lon="2.53998">
        <ele>58.5</ele>
        <time>2023-07-02T10:42:10Z</time>
      </trkpt>
      <trkpt lat="49.82877" lon="2.53997">
        <ele>58.5</ele>
        <time>2023-07-02T10:42:11Z</time>
      </trkpt>
      <trkpt lat="49.82877" lon="2.53996">
        <ele>58.6</ele>
        <time>2023-07-02T10:42:12Z</time>
      </trkpt>
      <trkpt lat="49.82876" lon="2.53994">
        <ele>58.6</ele>
        <time>2023-07-02T10:42:13Z</time>
      </trkpt>
      <trkpt lat="49.82876" lon="2.53993">
        <ele>58.7</ele>
        <time>2023-07-02T10:42:14Z</time>
      </trkpt>
      <trkpt lat="49.82875" lon="2.53991">
        <ele>58.7</ele>
        <time>2023-07-02T10:42:16Z</time>
      </trkpt>
      <trkpt lat="49.82874" lon="2.5399">
        <ele>58.8</ele>
        <time>2023-07-02T10:42:17Z</time>
      </trkpt>
      <trkpt lat="49.82874" lon="2.53988">
        <ele>58.8</ele>
        <time>2023-07-02T10:42:18Z</time>
      </trkpt>
      <trkpt lat="49.82873" lon="2.53987">
        <ele>58.9</ele>
        <time>2023-07-02T10:42:19Z</time>
      </trkpt>
      <trkpt lat="49.82872" lon="2.53985">
        <ele>58.9</ele>
        <time>2023-07-02T10:42:20Z</time>
      </trkpt>
      <trkpt lat="49.82872" lon="2.53984">
        <ele>58.9</ele>
        <time>2023-07-02T10:42:21Z</time>
      </trkpt>
      <trkpt lat="49.82871" lon="2.53983">
        <ele>59</ele>
        <time>2023-07-02T10:42:23Z</time>
      </trkpt>
      <trkpt lat="49.8287" lon="2.53982">
        <ele>59</ele>
        <time>2023-07-02T10:42:24Z</time>
      </trkpt>
      <trkpt lat="49.82869" lon="2.5398">
        <ele>59.1</ele>
        <time>2023-07-02T10:42:25Z</time>
      </trkpt>
      <trkpt lat="49.82868" lon="2.53979">
        <ele>59.1</ele>
        <time>2023-07-02T10:42:26Z</time>
      </trkpt>
      <trkpt lat="49.82868" lon="2.53978">
        <ele>59.2</ele>
        <time>2023-07-02T10:42:27Z</time>
      </trkpt>
      <trkpt lat="49.82867" lon="2.53977">
        <ele>59.2</ele>
        <time>2023-07-02T10:42:28Z</time>
      </trkpt>
      <trkpt lat="49.82866" lon="2.53976">
        <ele>59.3</ele>
        <time>2023-07-02T10:42:30Z</time>
      </trkpt>
      <trkpt lat="49.82865" lon="2.53975">
        <ele>59.4</ele>
        <time>2023-07-02T10:42:31Z</time>
      </trkpt>
      <trkpt lat="49.82864" lon="2.53974">
        <ele>59.4</ele>
        <time>2023-07-02T10:42:32Z</time>
      </trkpt>
      <trkpt lat="49.82863" lon="2.53973">
        <ele>59.5</ele>
        <time>2023-07-02T10:42:33Z</time>
      </trkpt>
      <trkpt lat="49.82863" lon="2.53972">
        <ele>59.6</ele>
        <time>2023-07-02T10:42:34Z</time>
      </trkpt>
      <trkpt lat="49.82862" lon="2.53971">
        <ele>59.6</ele>
        <time>2023-07-02T10:42:35Z</time>
      </trkpt>
      <trkpt lat="49.82862" lon="2.5397">
        <ele>59.7</ele>
        <time>2023-07-02T10:42:37Z</time>
      </trkpt>
      <trkpt lat="49.82861" lon="2.53969">
        <ele>59.8</ele>
        <time>2023-07-02T10:42:38Z</time>
      </trkpt>
      <trkpt lat="49.8286" lon="2.53968">
        <ele>59.8</ele>
        <time>2023-07-02T10:42:39Z</time>
      </trkpt>
      <trkpt lat="49.82859" lon="2.53966">
        <ele>59.9</ele>
        <time>2023-07-02T10:42:40Z</time>
      </trkpt>
      <trkpt lat="49.82858" lon="2.53965">
        <ele>60</ele>
        <time>2023-07-02T10:42:42Z</time>
      </trkpt>
      <trkpt lat="49.82858" lon="2.53964">
        <ele>60.1</ele>
        <time>2023-07-02T10:42:43Z</time>
      </trkpt>
      <trkpt lat="49.82857" lon="2.53963">
        <ele>60.2</ele>
        <time>2023-07-02T10:42:44Z</time>
      </trkpt>
      <trkpt lat="49.82856" lon="2.53962">
        <ele>60.3</ele>
        <time>2023-07-02T10:42:45Z</time>
      </trkpt>
      <trkpt lat="49.82855" lon="2.5396">
        <ele>60.4</ele>
        <time>2023-07-02T10:42:46Z</time>
      </trkpt>
      <trkpt lat="49.82855" lon="2.53959">
        <ele>60.5</ele>
        <time>2023-07-02T10:42:48Z</time>
      </trkpt>
      <trkpt lat="49.82854" lon="2.53957">
        <ele>60.6</ele>
        <time>2023-07-02T10:42:49Z</time>
      </trkpt>
      <trkpt lat="49.82853" lon="2.53956">
        <ele>60.7</ele>
        <time>2023-07-02T10:42:50Z</time>
      </trkpt>
      <trkpt lat="49.82853" lon="2.53955">
        <ele>60.8</ele>
        <time>2023-07-02T10:42:51Z</time>
      </trkpt>
      <trkpt lat="49.82852" lon="2.53954">
        <ele>60.9</ele>
        <time>2023-07-02T10:42:52Z</time>
      </trkpt>
      <trkpt lat="49.82851" lon="2.53953">
        <ele>61</ele>
        <time>2023-07-02T10:42:53Z</time>
      </trkpt>
      <trkpt lat="49.8285" lon="2.53951">
        <ele>61.1</ele>
        <time>2023-07-02T10:42:55Z</time>
      </trkpt>
      <trkpt lat="49.8285" lon="2.5395">
        <ele>61.2</ele>
        <time>2023-07-02T10:42:56Z</time>
      </trkpt>
      <trkpt lat="49.82849" lon="2.53949">
        <ele>61.4</ele>
        <time>2023-07-02T10:42:57Z</time>
      </trkpt>
      <trkpt lat="49.82848" lon="2.53948">
        <ele>61.4</ele>
        <time>2023-07-02T10:42:58Z</time>
      </trkpt>
      <trkpt lat="49.82848" lon="2.53946">
        <ele>61.6</ele>
        <time>2023-07-02T10:42:59Z</time>
      </trkpt>
      <trkpt lat="49.82847" lon="2.53945">
        <ele>61.7</ele>
        <time>2023-07-02T10:43:00Z</time>
      </trkpt>
      <trkpt lat="49.82846" lon="2.53943">
        <ele>61.8</ele>
        <time>2023-07-02T10:43:01Z</time>
      </trkpt>
      <trkpt lat="49.82845" lon="2.53942">
        <ele>61.9</ele>
        <time>2023-07-02T10:43:03Z</time>
      </trkpt>
      <trkpt lat="49.82845" lon="2.5394">
        <ele>62.1</ele>
        <time>2023-07-02T10:43:04Z</time>
      </trkpt>
      <trkpt lat="49.82844" lon="2.53939">
        <ele>62.2</ele>
        <time>2023-07-02T10:43:05Z</time>
      </trkpt>
      <trkpt lat="49.82844" lon="2.53938">
        <ele>62.2</ele>
        <time>2023-07-02T10:43:06Z</time>
      </trkpt>
      <trkpt lat="49.82843" lon="2.53935">
        <ele>62.4</ele>
        <time>2023-07-02T10:43:07Z</time>
      </trkpt>
      <trkpt lat="49.82842" lon="2.53934">
        <ele>62.5</ele>
        <time>2023-07-02T10:43:09Z</time>
      </trkpt>
      <trkpt lat="49.82842" lon="2.53933">
        <ele>62.6</ele>
        <time>2023-07-02T10:43:10Z</time>
      </trkpt>
      <trkpt lat="49.82841" lon="2.53932">
        <ele>62.7</ele>
        <time>2023-07-02T10:43:11Z</time>
      </trkpt>
      <trkpt lat="49.8284" lon="2.5393">
        <ele>62.8</ele>
        <time>2023-07-02T10:43:12Z</time>
      </trkpt>
      <trkpt lat="49.8284" lon="2.53929">
        <ele>62.9</ele>
        <time>2023-07-02T10:43:13Z</time>
      </trkpt>
      <trkpt lat="49.82839" lon="2.53927">
        <ele>63</ele>
        <time>2023-07-02T10:43:15Z</time>
      </trkpt>
      <trkpt lat="49.82838" lon="2.53926">
        <ele>63.1</ele>
        <time>2023-07-02T10:43:16Z</time>
      </trkpt>
      <trkpt lat="49.82838" lon="2.53925">
        <ele>63.2</ele>
        <time>2023-07-02T10:43:17Z</time>
      </trkpt>
      <trkpt lat="49.82837" lon="2.53923">
        <ele>63.3</ele>
        <time>2023-07-02T10:43:18Z</time>
      </trkpt>
      <trkpt lat="49.82836" lon="2.53922">
        <ele>63.4</ele>
        <time>2023-07-02T10:43:19Z</time>
      </trkpt>
      <trkpt lat="49.82836" lon="2.53921">
        <ele>63.5</ele>
        <time>2023-07-02T10:43:20Z</time>
      </trkpt>
      <trkpt lat="49.82835" lon="2.53919">
        <ele>63.6</ele>
        <time>2023-07-02T10:43:22Z</time>
      </trkpt>
      <trkpt lat="49.82835" lon="2.53917">
        <ele>63.7</ele>
        <time>2023-07-02T10:43:23Z</time>
      </trkpt>
      <trkpt lat="49.82834" lon="2.53916">
        <ele>63.7</ele>
        <time>2023-07-02T10:43:24Z</time>
      </trkpt>
      <trkpt lat="49.82834" lon="2.53915">
        <ele>63.8</ele>
        <time>2023-07-02T10:43:26Z</time>
      </trkpt>
      <trkpt lat="49.82833" lon="2.53914">
        <ele>63.8</ele>
        <time>2023-07-02T10:43:27Z</time>
      </trkpt>
      <trkpt lat="49.82833" lon="2.53912">
        <ele>63.9</ele>
        <time>2023-07-02T10:43:28Z</time>
      </trkpt>
      <trkpt lat="49.82832" lon="2.53911">
        <ele>64</ele>
        <time>2023-07-02T10:43:29Z</time>
      </trkpt>
      <trkpt lat="49.82832" lon="2.5391">
        <ele>64</ele>
        <time>2023-07-02T10:43:30Z</time>
      </trkpt>
      <trkpt lat="49.82831" lon="2.53908">
        <ele>64.1</ele>
        <time>2023-07-02T10:43:31Z</time>
      </trkpt>
      <trkpt lat="49.82831" lon="2.53907">
        <ele>64.1</ele>
        <time>2023-07-02T10:43:33Z</time>
      </trkpt>
      <trkpt lat="49.82831" lon="2.53905">
        <ele>64.2</ele>
        <time>2023-07-02T10:43:34Z</time>
      </trkpt>
      <trkpt lat="49.8283" lon="2.53904">
        <ele>64.2</ele>
        <time>2023-07-02T10:43:35Z</time>
      </trkpt>
      <trkpt lat="49.8283" lon="2.53903">
        <ele>64.3</ele>
        <time>2023-07-02T10:43:36Z</time>
      </trkpt>
      <trkpt lat="49.8283" lon="2.53901">
        <ele>64.3</ele>
        <time>2023-07-02T10:43:37Z</time>
      </trkpt>
      <trkpt lat="49.82829" lon="2.53899">
        <ele>64.4</ele>
        <time>2023-07-02T10:43:39Z</time>
      </trkpt>
      <trkpt lat="49.82829" lon="2.53898">
        <ele>64.4</ele>
        <time>2023-07-02T10:43:40Z</time>
      </trkpt>
      <trkpt lat="49.82828" lon="2.53896">
        <ele>64.4</ele>
        <time>2023-07-02T10:43:41Z</time>
      </trkpt>
      <trkpt lat="49.82828" lon="2.53895">
        <ele>64.5</ele>
        <time>2023-07-02T10:43:42Z</time>
      </trkpt>
      <trkpt lat="49.82828" lon="2.53893">
        <ele>64.5</ele>
        <time>2023-07-02T10:43:43Z</time>
      </trkpt>
      <trkpt lat="49.82827" lon="2.53891">
        <ele>64.6</ele>
        <time>2023-07-02T10:43:44Z</time>
      </trkpt>
      <trkpt lat="49.82827" lon="2.5389">
        <ele>64.6</ele>
        <time>2023-07-02T10:43:45Z</time>
      </trkpt>
      <trkpt lat="49.82826" lon="2.53888">
        <ele>64.6</ele>
        <time>2023-07-02T10:43:46Z</time>
      </trkpt>
      <trkpt lat="49.82826" lon="2.53887">
        <ele>64.6</ele>
        <time>2023-07-02T10:43:47Z</time>
      </trkpt>
      <trkpt lat="49.82825" lon="2.53886">
        <ele>64.7</ele>
        <time>2023-07-02T10:43:48Z</time>
      </trkpt>
      <trkpt lat="49.82825" lon="2.53884">
        <ele>64.7</ele>
        <time>2023-07-02T10:43:50Z</time>
      </trkpt>
      <trkpt lat="49.82824" lon="2.53882">
        <ele>64.7</ele>
        <time>2023-07-02T10:43:51Z</time>
      </trkpt>
      <trkpt lat="49.82824" lon="2.53881">
        <ele>64.7</ele>
        <time>2023-07-02T10:43:52Z</time>
      </trkpt>
      <trkpt lat="49.82823" lon="2.53879">
        <ele>64.8</ele>
        <time>2023-07-02T10:43:53Z</time>
      </trkpt>
      <trkpt lat="49.82822" lon="2.53878">
        <ele>64.8</ele>
        <time>2023-07-02T10:43:54Z</time>
      </trkpt>
      <trkpt lat="49.82822" lon="2.53876">
        <ele>64.8</ele>
        <time>2023-07-02T10:43:56Z</time>
      </trkpt>
      <trkpt lat="49.82822" lon="2.53874">
        <ele>64.8</ele>
        <time>2023-07-02T10:43:57Z</time>
      </trkpt>
      <trkpt lat="49.82821" lon="2.53872">
        <ele>64.8</ele>
        <time>2023-07-02T10:43:58Z</time>
      </trkpt>
      <trkpt lat="49.82821" lon="2.53871">
        <ele>64.9</ele>
        <time>2023-07-02T10:43:59Z</time>
      </trkpt>
      <trkpt lat="49.8282" lon="2.53869">
        <ele>64.9</ele>
        <time>2023-07-02T10:44:00Z</time>
      </trkpt>
      <trkpt lat="49.8282" lon="2.53867">
        <ele>64.9</ele>
        <time>2023-07-02T10:44:01Z</time>
      </trkpt>
      <trkpt lat="49.8282" lon="2.53865">
        <ele>64.9</ele>
        <time>2023-07-02T10:44:03Z</time>
      </trkpt>
      <trkpt lat="49.8282" lon="2.53864">
        <ele>64.9</ele>
        <time>2023-07-02T10:44:04Z</time>
      </trkpt>
      <trkpt lat="49.8282" lon="2.53862">
        <ele>65</ele>
        <time>2023-07-02T10:44:05Z</time>
      </trkpt>
      <trkpt lat="49.82819" lon="2.5386">
        <ele>65</ele>
        <time>2023-07-02T10:44:06Z</time>
      </trkpt>
      <trkpt lat="49.82819" lon="2.53858">
        <ele>65</ele>
        <time>2023-07-02T10:44:07Z</time>
      </trkpt>
      <trkpt lat="49.82819" lon="2.53856">
        <ele>65</ele>
        <time>2023-07-02T10:44:09Z</time>
      </trkpt>
      <trkpt lat="49.82818" lon="2.53855">
        <ele>65</ele>
        <time>2023-07-02T10:44:10Z</time>
      </trkpt>
      <trkpt lat="49.82818" lon="2.53853">
        <ele>65.1</ele>
        <time>2023-07-02T10:44:11Z</time>
      </trkpt>
      <trkpt lat="49.82818" lon="2.53851">
        <ele>65.1</ele>
        <time>2023-07-02T10:44:12Z</time>
      </trkpt>
      <trkpt lat="49.82817" lon="2.53849">
        <ele>65.1</ele>
        <time>2023-07-02T10:44:13Z</time>
      </trkpt>
      <trkpt lat="49.82817" lon="2.53847">
        <ele>65.1</ele>
        <time>2023-07-02T10:44:14Z</time>
      </trkpt>
      <trkpt lat="49.82816" lon="2.53845">
        <ele>65.1</ele>
        <time>2023-07-02T10:44:16Z</time>
      </trkpt>
      <trkpt lat="49.82816" lon="2.53844">
        <ele>65.1</ele>
        <time>2023-07-02T10:44:17Z</time>
      </trkpt>
      <trkpt lat="49.82815" lon="2.53841">
        <ele>65.2</ele>
        <time>2023-07-02T10:44:18Z</time>
      </trkpt>
      <trkpt lat="49.82815" lon="2.53839">
        <ele>65.2</ele>
        <time>2023-07-02T10:44:19Z</time>
      </trkpt>
      <trkpt lat="49.82815" lon="2.53838">
        <ele>65.2</ele>
        <time>2023-07-02T10:44:20Z</time>
      </trkpt>
      <trkpt lat="49.82814" lon="2.53836">
        <ele>65.2</ele>
        <time>2023-07-02T10:44:22Z</time>
      </trkpt>
      <trkpt lat="49.82814" lon="2.53834">
        <ele>65.2</ele>
        <time>2023-07-02T10:44:23Z</time>
      </trkpt>
      <trkpt lat="49.82813" lon="2.53832">
        <ele>65.2</ele>
        <time>2023-07-02T10:44:24Z</time>
      </trkpt>
      <trkpt lat="49.82813" lon="2.53831">
        <ele>65.2</ele>
        <time>2023-07-02T10:44:25Z</time>
      </trkpt>
      <trkpt lat="49.82812" lon="2.53829">
        <ele>65.2</ele>
        <time>2023-07-02T10:44:26Z</time>
      </trkpt>
      <trkpt lat="49.82812" lon="2.53826">
        <ele>65.2</ele>
        <time>2023-07-02T10:44:27Z</time>
      </trkpt>
      <trkpt lat="49.82811" lon="2.53825">
        <ele>65.2</ele>
        <time>2023-07-02T10:44:29Z</time>
      </trkpt>
      <trkpt lat="49.82811" lon="2.53823">
        <ele>65.2</ele>
        <time>2023-07-02T10:44:30Z</time>
      </trkpt>
      <trkpt lat="49.82811" lon="2.53822">
        <ele>65.2</ele>
        <time>2023-07-02T10:44:31Z</time>
      </trkpt>
      <trkpt lat="49.8281" lon="2.5382">
        <ele>65.1</ele>
        <time>2023-07-02T10:44:32Z</time>
      </trkpt>
      <trkpt lat="49.8281" lon="2.53818">
        <ele>65.1</ele>
        <time>2023-07-02T10:44:33Z</time>
      </trkpt>
      <trkpt lat="49.82809" lon="2.53815">
        <ele>65.1</ele>
        <time>2023-07-02T10:44:34Z</time>
      </trkpt>
      <trkpt lat="49.82809" lon="2.53814">
        <ele>65.1</ele>
        <time>2023-07-02T10:44:36Z</time>
      </trkpt>
      <trkpt lat="49.82809" lon="2.53813">
        <ele>65</ele>
        <time>2023-07-02T10:44:37Z</time>
      </trkpt>
      <trkpt lat="49.82809" lon="2.53811">
        <ele>65</ele>
        <time>2023-07-02T10:44:38Z</time>
      </trkpt>
      <trkpt lat="49.82808" lon="2.53809">
        <ele>65</ele>
        <time>2023-07-02T10:44:39Z</time>
      </trkpt>
      <trkpt lat="49.82808" lon="2.53808">
        <ele>65</ele>
        <time>2023-07-02T10:44:40Z</time>
      </trkpt>
      <trkpt lat="49.82808" lon="2.53806">
        <ele>64.9</ele>
        <time>2023-07-02T10:44:42Z</time>
      </trkpt>
      <trkpt lat="49.82808" lon="2.53804">
        <ele>64.9</ele>
        <time>2023-07-02T10:44:43Z</time>
      </trkpt>
      <trkpt lat="49.82808" lon="2.53801">
        <ele>64.8</ele>
        <time>2023-07-02T10:44:44Z</time>
      </trkpt>
      <trkpt lat="49.82808" lon="2.53799">
        <ele>64.8</ele>
        <time>2023-07-02T10:44:45Z</time>
      </trkpt>
      <trkpt lat="49.82809" lon="2.53796">
        <ele>64.8</ele>
        <time>2023-07-02T10:44:47Z</time>
      </trkpt>
      <trkpt lat="49.82809" lon="2.53795">
        <ele>64.7</ele>
        <time>2023-07-02T10:44:48Z</time>
      </trkpt>
      <trkpt lat="49.82809" lon="2.53794">
        <ele>64.7</ele>
        <time>2023-07-02T10:44:49Z</time>
      </trkpt>
      <trkpt lat="49.82809" lon="2.53792">
        <ele>64.7</ele>
        <time>2023-07-02T10:44:50Z</time>
      </trkpt>
      <trkpt lat="49.82809" lon="2.5379">
        <ele>64.7</ele>
        <time>2023-07-02T10:44:51Z</time>
      </trkpt>
      <trkpt lat="49.82809" lon="2.53788">
        <ele>64.6</ele>
        <time>2023-07-02T10:44:53Z</time>
      </trkpt>
      <trkpt lat="49.82809" lon="2.53787">
        <ele>64.6</ele>
        <time>2023-07-02T10:44:54Z</time>
      </trkpt>
      <trkpt lat="49.82809" lon="2.53785">
        <ele>64.6</ele>
        <time>2023-07-02T10:44:55Z</time>
      </trkpt>
      <trkpt lat="49.82809" lon="2.53784">
        <ele>64.6</ele>
        <time>2023-07-02T10:44:56Z</time>
      </trkpt>
      <trkpt lat="49.82809" lon="2.53782">
        <ele>64.6</ele>
        <time>2023-07-02T10:44:57Z</time>
      </trkpt>
      <trkpt lat="49.82808" lon="2.5378">
        <ele>64.5</ele>
        <time>2023-07-02T10:44:59Z</time>
      </trkpt>
      <trkpt lat="49.82808" lon="2.53778">
        <ele>64.5</ele>
        <time>2023-07-02T10:45:00Z</time>
      </trkpt>
      <trkpt lat="49.82808" lon="2.53777">
        <ele>64.5</ele>
        <time>2023-07-02T10:45:01Z</time>
      </trkpt>
      <trkpt lat="49.82808" lon="2.53775">
        <ele>64.5</ele>
        <time>2023-07-02T10:45:02Z</time>
      </trkpt>
      <trkpt lat="49.82808" lon="2.53773">
        <ele>64.5</ele>
        <time>2023-07-02T10:45:03Z</time>
      </trkpt>
      <trkpt lat="49.82808" lon="2.5377">
        <ele>64.5</ele>
        <time>2023-07-02T10:45:04Z</time>
      </trkpt>
      <trkpt lat="49.82807" lon="2.53769">
        <ele>64.5</ele>
        <time>2023-07-02T10:45:06Z</time>
      </trkpt>
      <trkpt lat="49.82807" lon="2.53767">
        <ele>64.5</ele>
        <time>2023-07-02T10:45:07Z</time>
      </trkpt>
      <trkpt lat="49.82807" lon="2.53765">
        <ele>64.4</ele>
        <time>2023-07-02T10:45:08Z</time>
      </trkpt>
      <trkpt lat="49.82807" lon="2.53763">
        <ele>64.4</ele>
        <time>2023-07-02T10:45:09Z</time>
      </trkpt>
      <trkpt lat="49.82806" lon="2.53762">
        <ele>64.3</ele>
        <time>2023-07-02T10:45:10Z</time>
      </trkpt>
      <trkpt lat="49.82807" lon="2.53759">
        <ele>64.2</ele>
        <time>2023-07-02T10:45:12Z</time>
      </trkpt>
      <trkpt lat="49.82807" lon="2.53758">
        <ele>64.2</ele>
        <time>2023-07-02T10:45:13Z</time>
      </trkpt>
      <trkpt lat="49.82807" lon="2.53758">
        <ele>64.2</ele>
        <time>2023-07-02T10:45:15Z</time>
      </trkpt>
      <trkpt lat="49.82808" lon="2.53758">
        <ele>64.2</ele>
        <time>2023-07-02T10:45:16Z</time>
      </trkpt>
      <trkpt lat="49.82808" lon="2.53758">
        <ele>64.2</ele>
        <time>2023-07-02T10:45:17Z</time>
      </trkpt>
      <trkpt lat="49.82808" lon="2.53758">
        <ele>64.2</ele>
        <time>2023-07-02T10:45:19Z</time>
      </trkpt>
      <trkpt lat="49.82808" lon="2.53758">
        <ele>64.2</ele>
        <time>2023-07-02T10:45:20Z</time>
      </trkpt>
      <trkpt lat="49.82808" lon="2.53759">
        <ele>64.1</ele>
        <time>2023-07-02T10:45:22Z</time>
      </trkpt>
      <trkpt lat="49.82808" lon="2.53759">
        <ele>64.1</ele>
        <time>2023-07-02T10:45:23Z</time>
      </trkpt>
      <trkpt lat="49.82808" lon="2.53759">
        <ele>64.1</ele>
        <time>2023-07-02T10:45:25Z</time>
      </trkpt>
      <trkpt lat="49.82808" lon="2.53759">
        <ele>64.1</ele>
        <time>2023-07-02T10:45:26Z</time>
      </trkpt>
      <trkpt lat="49.82808" lon="2.53759">
        <ele>64.1</ele>
        <time>2023-07-02T10:45:28Z</time>
      </trkpt>
      <trkpt lat="49.82808" lon="2.53759">
        <ele>64.1</ele>
        <time>2023-07-02T10:45:29Z</time>
      </trkpt>
      <trkpt lat="49.82807" lon="2.5376">
        <ele>64.1</ele>
        <time>2023-07-02T10:45:30Z</time>
      </trkpt>
      <trkpt lat="49.82807" lon="2.5376">
        <ele>64.1</ele>
        <time>2023-07-02T10:45:31Z</time>
      </trkpt>
      <trkpt lat="49.82807" lon="2.5376">
        <ele>64.1</ele>
        <time>2023-07-02T10:45:32Z</time>
      </trkpt>
      <trkpt lat="49.82806" lon="2.53762">
        <ele>64</ele>
        <time>2023-07-02T10:45:33Z</time>
      </trkpt>
      <trkpt lat="49.82807" lon="2.53759">
        <ele>63.9</ele>
        <time>2023-07-02T10:45:35Z</time>
      </trkpt>
      <trkpt lat="49.82806" lon="2.53759">
        <ele>63.9</ele>
        <time>2023-07-02T10:45:36Z</time>
      </trkpt>
      <trkpt lat="49.82806" lon="2.53759">
        <ele>63.9</ele>
        <time>2023-07-02T10:45:37Z</time>
      </trkpt>
      <trkpt lat="49.82805" lon="2.53758">
        <ele>63.8</ele>
        <time>2023-07-02T10:45:38Z</time>
      </trkpt>
      <trkpt lat="49.82804" lon="2.53758">
        <ele>63.8</ele>
        <time>2023-07-02T10:45:39Z</time>
      </trkpt>
      <trkpt lat="49.82803" lon="2.53758">
        <ele>63.7</ele>
        <time>2023-07-02T10:45:40Z</time>
      </trkpt>
      <trkpt lat="49.82802" lon="2.53759">
        <ele>63.7</ele>
        <time>2023-07-02T10:45:41Z</time>
      </trkpt>
      <trkpt lat="49.82801" lon="2.53759">
        <ele>63.7</ele>
        <time>2023-07-02T10:45:42Z</time>
      </trkpt>
      <trkpt lat="49.828" lon="2.53759">
        <ele>63.6</ele>
        <time>2023-07-02T10:45:43Z</time>
      </trkpt>
      <trkpt lat="49.82799" lon="2.53758">
        <ele>63.6</ele>
        <time>2023-07-02T10:45:45Z</time>
      </trkpt>
      <trkpt lat="49.82798" lon="2.53758">
        <ele>63.5</ele>
        <time>2023-07-02T10:45:46Z</time>
      </trkpt>
      <trkpt lat="49.82797" lon="2.53758">
        <ele>63.5</ele>
        <time>2023-07-02T10:45:47Z</time>
      </trkpt>
      <trkpt lat="49.82797" lon="2.53757">
        <ele>63.4</ele>
        <time>2023-07-02T10:45:48Z</time>
      </trkpt>
      <trkpt lat="49.82797" lon="2.53756">
        <ele>63.4</ele>
        <time>2023-07-02T10:45:49Z</time>
      </trkpt>
      <trkpt lat="49.82796" lon="2.53755">
        <ele>63.4</ele>
        <time>2023-07-02T10:45:50Z</time>
      </trkpt>
      <trkpt lat="49.82795" lon="2.53754">
        <ele>63.3</ele>
        <time>2023-07-02T10:45:51Z</time>
      </trkpt>
      <trkpt lat="49.82794" lon="2.53753">
        <ele>63.3</ele>
        <time>2023-07-02T10:45:52Z</time>
      </trkpt>
      <trkpt lat="49.82793" lon="2.53753">
        <ele>63.2</ele>
        <time>2023-07-02T10:45:54Z</time>
      </trkpt>
      <trkpt lat="49.82791" lon="2.53753">
        <ele>63.1</ele>
        <time>2023-07-02T10:45:55Z</time>
      </trkpt>
      <trkpt lat="49.8279" lon="2.53752">
        <ele>63</ele>
        <time>2023-07-02T10:45:56Z</time>
      </trkpt>
      <trkpt lat="49.82788" lon="2.53752">
        <ele>63</ele>
        <time>2023-07-02T10:45:57Z</time>
      </trkpt>
      <trkpt lat="49.82787" lon="2.53752">
        <ele>62.9</ele>
        <time>2023-07-02T10:45:58Z</time>
      </trkpt>
      <trkpt lat="49.82785" lon="2.53752">
        <ele>62.8</ele>
        <time>2023-07-02T10:46:00Z</time>
      </trkpt>
      <trkpt lat="49.82782" lon="2.53751">
        <ele>62.7</ele>
        <time>2023-07-02T10:46:01Z</time>
      </trkpt>
      <trkpt lat="49.82781" lon="2.5375">
        <ele>62.6</ele>
        <time>2023-07-02T10:46:02Z</time>
      </trkpt>
      <trkpt lat="49.82778" lon="2.53749">
        <ele>62.5</ele>
        <time>2023-07-02T10:46:03Z</time>
      </trkpt>
      <trkpt lat="49.82777" lon="2.53749">
        <ele>62.4</ele>
        <time>2023-07-02T10:46:04Z</time>
      </trkpt>
      <trkpt lat="49.82774" lon="2.53748">
        <ele>62.3</ele>
        <time>2023-07-02T10:46:05Z</time>
      </trkpt>
      <trkpt lat="49.82773" lon="2.53748">
        <ele>62.2</ele>
        <time>2023-07-02T10:46:06Z</time>
      </trkpt>
      <trkpt lat="49.82772" lon="2.53747">
        <ele>62.2</ele>
        <time>2023-07-02T10:46:07Z</time>
      </trkpt>
      <trkpt lat="49.8277" lon="2.53747">
        <ele>62.1</ele>
        <time>2023-07-02T10:46:08Z</time>
      </trkpt>
      <trkpt lat="49.82768" lon="2.53745">
        <ele>61.9</ele>
        <time>2023-07-02T10:46:09Z</time>
      </trkpt>
      <trkpt lat="49.82767" lon="2.53745">
        <ele>61.9</ele>
        <time>2023-07-02T10:46:11Z</time>
      </trkpt>
      <trkpt lat="49.82766" lon="2.53745">
        <ele>61.8</ele>
        <time>2023-07-02T10:46:12Z</time>
      </trkpt>
      <trkpt lat="49.82765" lon="2.53744">
        <ele>61.8</ele>
        <time>2023-07-02T10:46:13Z</time>
      </trkpt>
      <trkpt lat="49.82764" lon="2.53744">
        <ele>61.7</ele>
        <time>2023-07-02T10:46:14Z</time>
      </trkpt>
      <trkpt lat="49.82762" lon="2.53743">
        <ele>61.7</ele>
        <time>2023-07-02T10:46:15Z</time>
      </trkpt>
      <trkpt lat="49.82761" lon="2.53743">
        <ele>61.6</ele>
        <time>2023-07-02T10:46:16Z</time>
      </trkpt>
      <trkpt lat="49.82759" lon="2.53742">
        <ele>61.5</ele>
        <time>2023-07-02T10:46:17Z</time>
      </trkpt>
      <trkpt lat="49.82758" lon="2.53742">
        <ele>61.5</ele>
        <time>2023-07-02T10:46:18Z</time>
      </trkpt>
      <trkpt lat="49.82757" lon="2.53741">
        <ele>61.4</ele>
        <time>2023-07-02T10:46:19Z</time>
      </trkpt>
      <trkpt lat="49.82755" lon="2.53741">
        <ele>61.3</ele>
        <time>2023-07-02T10:46:20Z</time>
      </trkpt>
      <trkpt lat="49.82754" lon="2.53741">
        <ele>61.3</ele>
        <time>2023-07-02T10:46:22Z</time>
      </trkpt>
      <trkpt lat="49.82754" lon="2.53741">
        <ele>61.3</ele>
        <time>2023-07-02T10:46:23Z</time>
      </trkpt>
      <trkpt lat="49.82753" lon="2.53741">
        <ele>61.2</ele>
        <time>2023-07-02T10:46:24Z</time>
      </trkpt>
      <trkpt lat="49.82752" lon="2.53742">
        <ele>61.2</ele>
        <time>2023-07-02T10:46:25Z</time>
      </trkpt>
      <trkpt lat="49.8275" lon="2.53741">
        <ele>61.1</ele>
        <time>2023-07-02T10:46:26Z</time>
      </trkpt>
      <trkpt lat="49.82749" lon="2.53741">
        <ele>61</ele>
        <time>2023-07-02T10:46:27Z</time>
      </trkpt>
      <trkpt lat="49.82748" lon="2.53741">
        <ele>61</ele>
        <time>2023-07-02T10:46:28Z</time>
      </trkpt>
      <trkpt lat="49.82747" lon="2.53741">
        <ele>60.9</ele>
        <time>2023-07-02T10:46:29Z</time>
      </trkpt>
      <trkpt lat="49.82746" lon="2.53741">
        <ele>60.9</ele>
        <time>2023-07-02T10:46:30Z</time>
      </trkpt>
      <trkpt lat="49.82744" lon="2.53741">
        <ele>60.8</ele>
        <time>2023-07-02T10:46:31Z</time>
      </trkpt>
      <trkpt lat="49.82743" lon="2.5374">
        <ele>60.8</ele>
        <time>2023-07-02T10:46:33Z</time>
      </trkpt>
      <trkpt lat="49.82741" lon="2.5374">
        <ele>60.7</ele>
        <time>2023-07-02T10:46:34Z</time>
      </trkpt>
      <trkpt lat="49.8274" lon="2.5374">
        <ele>60.6</ele>
        <time>2023-07-02T10:46:35Z</time>
      </trkpt>
      <trkpt lat="49.82739" lon="2.53739">
        <ele>60.6</ele>
        <time>2023-07-02T10:46:36Z</time>
      </trkpt>
      <trkpt lat="49.82737" lon="2.53739">
        <ele>60.5</ele>
        <time>2023-07-02T10:46:37Z</time>
      </trkpt>
      <trkpt lat="49.82737" lon="2.53738">
        <ele>60.5</ele>
        <time>2023-07-02T10:46:38Z</time>
      </trkpt>
      <trkpt lat="49.82736" lon="2.53738">
        <ele>60.5</ele>
        <time>2023-07-02T10:46:39Z</time>
      </trkpt>
      <trkpt lat="49.82734" lon="2.53737">
        <ele>60.4</ele>
        <time>2023-07-02T10:46:40Z</time>
      </trkpt>
      <trkpt lat="49.82733" lon="2.53737">
        <ele>60.3</ele>
        <time>2023-07-02T10:46:41Z</time>
      </trkpt>
      <trkpt lat="49.82732" lon="2.53736">
        <ele>60.3</ele>
        <time>2023-07-02T10:46:42Z</time>
      </trkpt>
      <trkpt lat="49.8273" lon="2.53736">
        <ele>60.2</ele>
        <time>2023-07-02T10:46:44Z</time>
      </trkpt>
      <trkpt lat="49.82729" lon="2.53735">
        <ele>60.2</ele>
        <time>2023-07-02T10:46:45Z</time>
      </trkpt>
      <trkpt lat="49.82728" lon="2.53735">
        <ele>60.1</ele>
        <time>2023-07-02T10:46:46Z</time>
      </trkpt>
      <trkpt lat="49.82727" lon="2.53735">
        <ele>60.1</ele>
        <time>2023-07-02T10:46:47Z</time>
      </trkpt>
      <trkpt lat="49.82726" lon="2.53734">
        <ele>60.1</ele>
        <time>2023-07-02T10:46:48Z</time>
      </trkpt>
      <trkpt lat="49.82725" lon="2.53733">
        <ele>60</ele>
        <time>2023-07-02T10:46:49Z</time>
      </trkpt>
      <trkpt lat="49.82723" lon="2.53732">
        <ele>59.9</ele>
        <time>2023-07-02T10:46:50Z</time>
      </trkpt>
      <trkpt lat="49.82722" lon="2.53732">
        <ele>59.9</ele>
        <time>2023-07-02T10:46:51Z</time>
      </trkpt>
      <trkpt lat="49.82721" lon="2.53732">
        <ele>59.9</ele>
        <time>2023-07-02T10:46:52Z</time>
      </trkpt>
      <trkpt lat="49.8272" lon="2.53731">
        <ele>59.8</ele>
        <time>2023-07-02T10:46:53Z</time>
      </trkpt>
      <trkpt lat="49.82719" lon="2.5373">
        <ele>59.8</ele>
        <time>2023-07-02T10:46:54Z</time>
      </trkpt>
      <trkpt lat="49.82717" lon="2.5373">
        <ele>59.7</ele>
        <time>2023-07-02T10:46:56Z</time>
      </trkpt>
      <trkpt lat="49.82716" lon="2.53729">
        <ele>59.7</ele>
        <time>2023-07-02T10:46:57Z</time>
      </trkpt>
      <trkpt lat="49.82715" lon="2.53729">
        <ele>59.6</ele>
        <time>2023-07-02T10:46:58Z</time>
      </trkpt>
      <trkpt lat="49.82714" lon="2.53729">
        <ele>59.6</ele>
        <time>2023-07-02T10:46:59Z</time>
      </trkpt>
      <trkpt lat="49.82712" lon="2.53728">
        <ele>59.5</ele>
        <time>2023-07-02T10:47:00Z</time>
      </trkpt>
      <trkpt lat="49.82711" lon="2.53728">
        <ele>59.5</ele>
        <time>2023-07-02T10:47:01Z</time>
      </trkpt>
      <trkpt lat="49.8271" lon="2.53727">
        <ele>59.4</ele>
        <time>2023-07-02T10:47:02Z</time>
      </trkpt>
      <trkpt lat="49.82708" lon="2.53727">
        <ele>59.4</ele>
        <time>2023-07-02T10:47:03Z</time>
      </trkpt>
      <trkpt lat="49.82707" lon="2.53727">
        <ele>59.3</ele>
        <time>2023-07-02T10:47:04Z</time>
      </trkpt>
      <trkpt lat="49.82706" lon="2.53726">
        <ele>59.3</ele>
        <time>2023-07-02T10:47:05Z</time>
      </trkpt>
      <trkpt lat="49.82704" lon="2.53726">
        <ele>59.2</ele>
        <time>2023-07-02T10:47:07Z</time>
      </trkpt>
      <trkpt lat="49.82702" lon="2.53725">
        <ele>59.2</ele>
        <time>2023-07-02T10:47:08Z</time>
      </trkpt>
      <trkpt lat="49.82701" lon="2.53724">
        <ele>59.1</ele>
        <time>2023-07-02T10:47:09Z</time>
      </trkpt>
      <trkpt lat="49.827" lon="2.53724">
        <ele>59.1</ele>
        <time>2023-07-02T10:47:10Z</time>
      </trkpt>
      <trkpt lat="49.82699" lon="2.53723">
        <ele>59</ele>
        <time>2023-07-02T10:47:11Z</time>
      </trkpt>
      <trkpt lat="49.82697" lon="2.53723">
        <ele>59</ele>
        <time>2023-07-02T10:47:13Z</time>
      </trkpt>
      <trkpt lat="49.82696" lon="2.53722">
        <ele>58.9</ele>
        <time>2023-07-02T10:47:14Z</time>
      </trkpt>
      <trkpt lat="49.82695" lon="2.53721">
        <ele>58.9</ele>
        <time>2023-07-02T10:47:15Z</time>
      </trkpt>
      <trkpt lat="49.82693" lon="2.5372">
        <ele>58.8</ele>
        <time>2023-07-02T10:47:16Z</time>
      </trkpt>
      <trkpt lat="49.82692" lon="2.53719">
        <ele>58.8</ele>
        <time>2023-07-02T10:47:17Z</time>
      </trkpt>
      <trkpt lat="49.82691" lon="2.53719">
        <ele>58.7</ele>
        <time>2023-07-02T10:47:18Z</time>
      </trkpt>
      <trkpt lat="49.82689" lon="2.53718">
        <ele>58.7</ele>
        <time>2023-07-02T10:47:19Z</time>
      </trkpt>
      <trkpt lat="49.82688" lon="2.53717">
        <ele>58.6</ele>
        <time>2023-07-02T10:47:21Z</time>
      </trkpt>
      <trkpt lat="49.82687" lon="2.53717">
        <ele>58.6</ele>
        <time>2023-07-02T10:47:22Z</time>
      </trkpt>
      <trkpt lat="49.82686" lon="2.53715">
        <ele>58.6</ele>
        <time>2023-07-02T10:47:23Z</time>
      </trkpt>
      <trkpt lat="49.82685" lon="2.53715">
        <ele>58.5</ele>
        <time>2023-07-02T10:47:24Z</time>
      </trkpt>
      <trkpt lat="49.82684" lon="2.53714">
        <ele>58.5</ele>
        <time>2023-07-02T10:47:25Z</time>
      </trkpt>
      <trkpt lat="49.82683" lon="2.53713">
        <ele>58.5</ele>
        <time>2023-07-02T10:47:26Z</time>
      </trkpt>
      <trkpt lat="49.82682" lon="2.53711">
        <ele>58.4</ele>
        <time>2023-07-02T10:47:27Z</time>
      </trkpt>
      <trkpt lat="49.8268" lon="2.5371">
        <ele>58.4</ele>
        <time>2023-07-02T10:47:29Z</time>
      </trkpt>
      <trkpt lat="49.82679" lon="2.53709">
        <ele>58.3</ele>
        <time>2023-07-02T10:47:30Z</time>
      </trkpt>
      <trkpt lat="49.82677" lon="2.53708">
        <ele>58.3</ele>
        <time>2023-07-02T10:47:31Z</time>
      </trkpt>
      <trkpt lat="49.82677" lon="2.53707">
        <ele>58.3</ele>
        <time>2023-07-02T10:47:32Z</time>
      </trkpt>
      <trkpt lat="49.82676" lon="2.53707">
        <ele>58.2</ele>
        <time>2023-07-02T10:47:33Z</time>
      </trkpt>
      <trkpt lat="49.82675" lon="2.53706">
        <ele>58.2</ele>
        <time>2023-07-02T10:47:34Z</time>
      </trkpt>
      <trkpt lat="49.82673" lon="2.53705">
        <ele>58.2</ele>
        <time>2023-07-02T10:47:35Z</time>
      </trkpt>
      <trkpt lat="49.82672" lon="2.53704">
        <ele>58.1</ele>
        <time>2023-07-02T10:47:36Z</time>
      </trkpt>
      <trkpt lat="49.82671" lon="2.53703">
        <ele>58.1</ele>
        <time>2023-07-02T10:47:37Z</time>
      </trkpt>
      <trkpt lat="49.82669" lon="2.53701">
        <ele>58</ele>
        <time>2023-07-02T10:47:38Z</time>
      </trkpt>
      <trkpt lat="49.82668" lon="2.537">
        <ele>58</ele>
        <time>2023-07-02T10:47:40Z</time>
      </trkpt>
      <trkpt lat="49.82667" lon="2.53699">
        <ele>58</ele>
        <time>2023-07-02T10:47:41Z</time>
      </trkpt>
      <trkpt lat="49.82666" lon="2.53698">
        <ele>57.9</ele>
        <time>2023-07-02T10:47:42Z</time>
      </trkpt>
      <trkpt lat="49.82665" lon="2.53698">
        <ele>57.9</ele>
        <time>2023-07-02T10:47:43Z</time>
      </trkpt>
      <trkpt lat="49.82663" lon="2.53696">
        <ele>57.9</ele>
        <time>2023-07-02T10:47:44Z</time>
      </trkpt>
      <trkpt lat="49.82662" lon="2.53695">
        <ele>57.8</ele>
        <time>2023-07-02T10:47:45Z</time>
      </trkpt>
      <trkpt lat="49.82662" lon="2.53694">
        <ele>57.8</ele>
        <time>2023-07-02T10:47:46Z</time>
      </trkpt>
      <trkpt lat="49.8266" lon="2.53693">
        <ele>57.8</ele>
        <time>2023-07-02T10:47:47Z</time>
      </trkpt>
      <trkpt lat="49.82659" lon="2.53691">
        <ele>57.8</ele>
        <time>2023-07-02T10:47:48Z</time>
      </trkpt>
      <trkpt lat="49.82658" lon="2.5369">
        <ele>57.7</ele>
        <time>2023-07-02T10:47:49Z</time>
      </trkpt>
      <trkpt lat="49.82657" lon="2.53689">
        <ele>57.7</ele>
        <time>2023-07-02T10:47:50Z</time>
      </trkpt>
      <trkpt lat="49.82656" lon="2.53688">
        <ele>57.7</ele>
        <time>2023-07-02T10:47:52Z</time>
      </trkpt>
      <trkpt lat="49.82655" lon="2.53686">
        <ele>57.6</ele>
        <time>2023-07-02T10:47:53Z</time>
      </trkpt>
      <trkpt lat="49.82654" lon="2.53685">
        <ele>57.6</ele>
        <time>2023-07-02T10:47:54Z</time>
      </trkpt>
      <trkpt lat="49.82653" lon="2.53684">
        <ele>57.6</ele>
        <time>2023-07-02T10:47:55Z</time>
      </trkpt>
      <trkpt lat="49.82652" lon="2.53683">
        <ele>57.6</ele>
        <time>2023-07-02T10:47:56Z</time>
      </trkpt>
      <trkpt lat="49.82651" lon="2.53681">
        <ele>57.5</ele>
        <time>2023-07-02T10:47:58Z</time>
      </trkpt>
      <trkpt lat="49.8265" lon="2.5368">
        <ele>57.5</ele>
        <time>2023-07-02T10:47:59Z</time>
      </trkpt>
      <trkpt lat="49.82649" lon="2.5368">
        <ele>57.5</ele>
        <time>2023-07-02T10:48:00Z</time>
      </trkpt>
      <trkpt lat="49.82648" lon="2.53678">
        <ele>57.5</ele>
        <time>2023-07-02T10:48:01Z</time>
      </trkpt>
      <trkpt lat="49.82647" lon="2.53677">
        <ele>57.5</ele>
        <time>2023-07-02T10:48:02Z</time>
      </trkpt>
      <trkpt lat="49.82646" lon="2.53676">
        <ele>57.4</ele>
        <time>2023-07-02T10:48:03Z</time>
      </trkpt>
      <trkpt lat="49.82645" lon="2.53675">
        <ele>57.4</ele>
        <time>2023-07-02T10:48:04Z</time>
      </trkpt>
      <trkpt lat="49.82645" lon="2.53674">
        <ele>57.4</ele>
        <time>2023-07-02T10:48:05Z</time>
      </trkpt>
      <trkpt lat="49.82644" lon="2.53673">
        <ele>57.4</ele>
        <time>2023-07-02T10:48:06Z</time>
      </trkpt>
      <trkpt lat="49.82644" lon="2.53672">
        <ele>57.4</ele>
        <time>2023-07-02T10:48:08Z</time>
      </trkpt>
      <trkpt lat="49.82643" lon="2.53671">
        <ele>57.4</ele>
        <time>2023-07-02T10:48:09Z</time>
      </trkpt>
      <trkpt lat="49.82642" lon="2.5367">
        <ele>57.3</ele>
        <time>2023-07-02T10:48:10Z</time>
      </trkpt>
      <trkpt lat="49.82641" lon="2.53669">
        <ele>57.3</ele>
        <time>2023-07-02T10:48:11Z</time>
      </trkpt>
      <trkpt lat="49.8264" lon="2.53668">
        <ele>57.3</ele>
        <time>2023-07-02T10:48:12Z</time>
      </trkpt>
      <trkpt lat="49.8264" lon="2.53666">
        <ele>57.3</ele>
        <time>2023-07-02T10:48:13Z</time>
      </trkpt>
      <trkpt lat="49.82639" lon="2.53665">
        <ele>57.2</ele>
        <time>2023-07-02T10:48:14Z</time>
      </trkpt>
      <trkpt lat="49.82637" lon="2.53663">
        <ele>57.2</ele>
        <time>2023-07-02T10:48:16Z</time>
      </trkpt>
      <trkpt lat="49.82637" lon="2.53662">
        <ele>57.2</ele>
        <time>2023-07-02T10:48:17Z</time>
      </trkpt>
      <trkpt lat="49.82636" lon="2.53661">
        <ele>57.2</ele>
        <time>2023-07-02T10:48:18Z</time>
      </trkpt>
      <trkpt lat="49.82634" lon="2.53659">
        <ele>57.1</ele>
        <time>2023-07-02T10:48:19Z</time>
      </trkpt>
      <trkpt lat="49.82634" lon="2.53658">
        <ele>57.1</ele>
        <time>2023-07-02T10:48:20Z</time>
      </trkpt>
      <trkpt lat="49.82633" lon="2.53657">
        <ele>57.1</ele>
        <time>2023-07-02T10:48:21Z</time>
      </trkpt>
      <trkpt lat="49.82631" lon="2.53655">
        <ele>57.1</ele>
        <time>2023-07-02T10:48:23Z</time>
      </trkpt>
      <trkpt lat="49.8263" lon="2.53654">
        <ele>57</ele>
        <time>2023-07-02T10:48:24Z</time>
      </trkpt>
      <trkpt lat="49.82629" lon="2.53653">
        <ele>57</ele>
        <time>2023-07-02T10:48:25Z</time>
      </trkpt>
      <trkpt lat="49.82628" lon="2.53652">
        <ele>57</ele>
        <time>2023-07-02T10:48:26Z</time>
      </trkpt>
      <trkpt lat="49.82627" lon="2.53652">
        <ele>56.9</ele>
        <time>2023-07-02T10:48:27Z</time>
      </trkpt>
      <trkpt lat="49.82626" lon="2.5365">
        <ele>56.9</ele>
        <time>2023-07-02T10:48:28Z</time>
      </trkpt>
      <trkpt lat="49.82625" lon="2.5365">
        <ele>56.9</ele>
        <time>2023-07-02T10:48:30Z</time>
      </trkpt>
      <trkpt lat="49.82624" lon="2.53649">
        <ele>56.9</ele>
        <time>2023-07-02T10:48:31Z</time>
      </trkpt>
      <trkpt lat="49.82623" lon="2.53648">
        <ele>56.8</ele>
        <time>2023-07-02T10:48:32Z</time>
      </trkpt>
      <trkpt lat="49.82622" lon="2.53646">
        <ele>56.8</ele>
        <time>2023-07-02T10:48:33Z</time>
      </trkpt>
      <trkpt lat="49.82621" lon="2.53645">
        <ele>56.8</ele>
        <time>2023-07-02T10:48:34Z</time>
      </trkpt>
      <trkpt lat="49.8262" lon="2.53645">
        <ele>56.7</ele>
        <time>2023-07-02T10:48:35Z</time>
      </trkpt>
      <trkpt lat="49.82619" lon="2.53643">
        <ele>56.7</ele>
        <time>2023-07-02T10:48:36Z</time>
      </trkpt>
      <trkpt lat="49.82618" lon="2.53642">
        <ele>56.7</ele>
        <time>2023-07-02T10:48:37Z</time>
      </trkpt>
      <trkpt lat="49.82617" lon="2.5364">
        <ele>56.7</ele>
        <time>2023-07-02T10:48:38Z</time>
      </trkpt>
      <trkpt lat="49.82616" lon="2.53639">
        <ele>56.6</ele>
        <time>2023-07-02T10:48:40Z</time>
      </trkpt>
      <trkpt lat="49.82615" lon="2.53638">
        <ele>56.6</ele>
        <time>2023-07-02T10:48:41Z</time>
      </trkpt>
      <trkpt lat="49.82614" lon="2.53636">
        <ele>56.5</ele>
        <time>2023-07-02T10:48:42Z</time>
      </trkpt>
      <trkpt lat="49.82612" lon="2.53634">
        <ele>56.5</ele>
        <time>2023-07-02T10:48:43Z</time>
      </trkpt>
      <trkpt lat="49.82612" lon="2.53634">
        <ele>56.5</ele>
        <time>2023-07-02T10:48:44Z</time>
      </trkpt>
      <trkpt lat="49.82611" lon="2.53633">
        <ele>56.4</ele>
        <time>2023-07-02T10:48:45Z</time>
      </trkpt>
      <trkpt lat="49.82609" lon="2.53631">
        <ele>56.4</ele>
        <time>2023-07-02T10:48:46Z</time>
      </trkpt>
      <trkpt lat="49.82609" lon="2.5363">
        <ele>56.4</ele>
        <time>2023-07-02T10:48:47Z</time>
      </trkpt>
      <trkpt lat="49.82608" lon="2.53629">
        <ele>56.3</ele>
        <time>2023-07-02T10:48:48Z</time>
      </trkpt>
      <trkpt lat="49.82607" lon="2.53627">
        <ele>56.3</ele>
        <time>2023-07-02T10:48:50Z</time>
      </trkpt>
      <trkpt lat="49.82606" lon="2.53626">
        <ele>56.3</ele>
        <time>2023-07-02T10:48:51Z</time>
      </trkpt>
      <trkpt lat="49.82605" lon="2.53625">
        <ele>56.2</ele>
        <time>2023-07-02T10:48:52Z</time>
      </trkpt>
      <trkpt lat="49.82604" lon="2.53623">
        <ele>56.2</ele>
        <time>2023-07-02T10:48:53Z</time>
      </trkpt>
      <trkpt lat="49.82603" lon="2.53621">
        <ele>56.1</ele>
        <time>2023-07-02T10:48:54Z</time>
      </trkpt>
      <trkpt lat="49.82602" lon="2.5362">
        <ele>56.1</ele>
        <time>2023-07-02T10:48:55Z</time>
      </trkpt>
      <trkpt lat="49.82601" lon="2.53619">
        <ele>56.1</ele>
        <time>2023-07-02T10:48:56Z</time>
      </trkpt>
      <trkpt lat="49.826" lon="2.53618">
        <ele>56</ele>
        <time>2023-07-02T10:48:57Z</time>
      </trkpt>
      <trkpt lat="49.82599" lon="2.53617">
        <ele>56</ele>
        <time>2023-07-02T10:48:58Z</time>
      </trkpt>
      <trkpt lat="49.82597" lon="2.53615">
        <ele>55.9</ele>
        <time>2023-07-02T10:48:59Z</time>
      </trkpt>
      <trkpt lat="49.82596" lon="2.53614">
        <ele>55.9</ele>
        <time>2023-07-02T10:49:01Z</time>
      </trkpt>
      <trkpt lat="49.82595" lon="2.53613">
        <ele>55.8</ele>
        <time>2023-07-02T10:49:02Z</time>
      </trkpt>
      <trkpt lat="49.82594" lon="2.53612">
        <ele>55.8</ele>
        <time>2023-07-02T10:49:03Z</time>
      </trkpt>
      <trkpt lat="49.82593" lon="2.5361">
        <ele>55.7</ele>
        <time>2023-07-02T10:49:04Z</time>
      </trkpt>
      <trkpt lat="49.82591" lon="2.53608">
        <ele>55.7</ele>
        <time>2023-07-02T10:49:05Z</time>
      </trkpt>
      <trkpt lat="49.8259" lon="2.53607">
        <ele>55.6</ele>
        <time>2023-07-02T10:49:07Z</time>
      </trkpt>
      <trkpt lat="49.8259" lon="2.53606">
        <ele>55.6</ele>
        <time>2023-07-02T10:49:08Z</time>
      </trkpt>
      <trkpt lat="49.82589" lon="2.53605">
        <ele>55.6</ele>
        <time>2023-07-02T10:49:09Z</time>
      </trkpt>
      <trkpt lat="49.82588" lon="2.53604">
        <ele>55.5</ele>
        <time>2023-07-02T10:49:10Z</time>
      </trkpt>
      <trkpt lat="49.82587" lon="2.53602">
        <ele>55.5</ele>
        <time>2023-07-02T10:49:11Z</time>
      </trkpt>
      <trkpt lat="49.82587" lon="2.536">
        <ele>55.4</ele>
        <time>2023-07-02T10:49:12Z</time>
      </trkpt>
      <trkpt lat="49.82585" lon="2.53597">
        <ele>55.3</ele>
        <time>2023-07-02T10:49:13Z</time>
      </trkpt>
      <trkpt lat="49.82584" lon="2.53596">
        <ele>55.3</ele>
        <time>2023-07-02T10:49:15Z</time>
      </trkpt>
      <trkpt lat="49.82583" lon="2.53595">
        <ele>55.3</ele>
        <time>2023-07-02T10:49:16Z</time>
      </trkpt>
      <trkpt lat="49.82583" lon="2.53593">
        <ele>55.2</ele>
        <time>2023-07-02T10:49:17Z</time>
      </trkpt>
      <trkpt lat="49.82582" lon="2.53592">
        <ele>55.2</ele>
        <time>2023-07-02T10:49:18Z</time>
      </trkpt>
      <trkpt lat="49.82581" lon="2.53591">
        <ele>55.1</ele>
        <time>2023-07-02T10:49:19Z</time>
      </trkpt>
      <trkpt lat="49.8258" lon="2.53589">
        <ele>55.1</ele>
        <time>2023-07-02T10:49:20Z</time>
      </trkpt>
      <trkpt lat="49.82579" lon="2.53588">
        <ele>55.1</ele>
        <time>2023-07-02T10:49:21Z</time>
      </trkpt>
      <trkpt lat="49.82577" lon="2.53587">
        <ele>55.1</ele>
        <time>2023-07-02T10:49:23Z</time>
      </trkpt>
      <trkpt lat="49.82576" lon="2.53585">
        <ele>55.1</ele>
        <time>2023-07-02T10:49:24Z</time>
      </trkpt>
      <trkpt lat="49.82575" lon="2.53584">
        <ele>55.1</ele>
        <time>2023-07-02T10:49:25Z</time>
      </trkpt>
      <trkpt lat="49.82574" lon="2.53583">
        <ele>55.1</ele>
        <time>2023-07-02T10:49:26Z</time>
      </trkpt>
      <trkpt lat="49.82572" lon="2.53582">
        <ele>55.1</ele>
        <time>2023-07-02T10:49:28Z</time>
      </trkpt>
      <trkpt lat="49.82571" lon="2.53582">
        <ele>55.1</ele>
        <time>2023-07-02T10:49:29Z</time>
      </trkpt>
      <trkpt lat="49.82571" lon="2.53581">
        <ele>55.1</ele>
        <time>2023-07-02T10:49:30Z</time>
      </trkpt>
      <trkpt lat="49.8257" lon="2.53581">
        <ele>55</ele>
        <time>2023-07-02T10:49:31Z</time>
      </trkpt>
      <trkpt lat="49.82569" lon="2.5358">
        <ele>55</ele>
        <time>2023-07-02T10:49:32Z</time>
      </trkpt>
      <trkpt lat="49.82568" lon="2.53579">
        <ele>55</ele>
        <time>2023-07-02T10:49:33Z</time>
      </trkpt>
      <trkpt lat="49.82567" lon="2.53579">
        <ele>55</ele>
        <time>2023-07-02T10:49:34Z</time>
      </trkpt>
      <trkpt lat="49.82566" lon="2.53579">
        <ele>55</ele>
        <time>2023-07-02T10:49:35Z</time>
      </trkpt>
      <trkpt lat="49.82565" lon="2.53579">
        <ele>55</ele>
        <time>2023-07-02T10:49:37Z</time>
      </trkpt>
      <trkpt lat="49.82563" lon="2.53579">
        <ele>55</ele>
        <time>2023-07-02T10:49:38Z</time>
      </trkpt>
      <trkpt lat="49.82562" lon="2.5358">
        <ele>55</ele>
        <time>2023-07-02T10:49:39Z</time>
      </trkpt>
      <trkpt lat="49.82561" lon="2.5358">
        <ele>55</ele>
        <time>2023-07-02T10:49:40Z</time>
      </trkpt>
      <trkpt lat="49.8256" lon="2.53579">
        <ele>55</ele>
        <time>2023-07-02T10:49:41Z</time>
      </trkpt>
      <trkpt lat="49.8256" lon="2.53578">
        <ele>55</ele>
        <time>2023-07-02T10:49:43Z</time>
      </trkpt>
      <trkpt lat="49.82559" lon="2.53577">
        <ele>54.9</ele>
        <time>2023-07-02T10:49:44Z</time>
      </trkpt>
      <trkpt lat="49.82558" lon="2.53576">
        <ele>54.8</ele>
        <time>2023-07-02T10:49:45Z</time>
      </trkpt>
      <trkpt lat="49.82557" lon="2.53575">
        <ele>54.7</ele>
        <time>2023-07-02T10:49:46Z</time>
      </trkpt>
      <trkpt lat="49.82556" lon="2.53574">
        <ele>54.7</ele>
        <time>2023-07-02T10:49:47Z</time>
      </trkpt>
      <trkpt lat="49.82555" lon="2.53574">
        <ele>54.6</ele>
        <time>2023-07-02T10:49:48Z</time>
      </trkpt>
      <trkpt lat="49.82554" lon="2.53575">
        <ele>54.5</ele>
        <time>2023-07-02T10:49:49Z</time>
      </trkpt>
      <trkpt lat="49.82553" lon="2.53575">
        <ele>54.4</ele>
        <time>2023-07-02T10:49:50Z</time>
      </trkpt>
      <trkpt lat="49.82551" lon="2.53577">
        <ele>54.2</ele>
        <time>2023-07-02T10:49:52Z</time>
      </trkpt>
      <trkpt lat="49.8255" lon="2.53578">
        <ele>54.1</ele>
        <time>2023-07-02T10:49:53Z</time>
      </trkpt>
      <trkpt lat="49.82549" lon="2.5358">
        <ele>54.1</ele>
        <time>2023-07-02T10:49:54Z</time>
      </trkpt>
      <trkpt lat="49.82548" lon="2.53581">
        <ele>53.9</ele>
        <time>2023-07-02T10:49:55Z</time>
      </trkpt>
      <trkpt lat="49.82547" lon="2.53583">
        <ele>53.8</ele>
        <time>2023-07-02T10:49:56Z</time>
      </trkpt>
      <trkpt lat="49.82546" lon="2.53584">
        <ele>53.7</ele>
        <time>2023-07-02T10:49:58Z</time>
      </trkpt>
      <trkpt lat="49.82544" lon="2.53585">
        <ele>53.6</ele>
        <time>2023-07-02T10:49:59Z</time>
      </trkpt>
      <trkpt lat="49.82542" lon="2.53587">
        <ele>53.4</ele>
        <time>2023-07-02T10:50:00Z</time>
      </trkpt>
      <trkpt lat="49.82541" lon="2.53587">
        <ele>53.3</ele>
        <time>2023-07-02T10:50:01Z</time>
      </trkpt>
      <trkpt lat="49.82541" lon="2.53588">
        <ele>53.3</ele>
        <time>2023-07-02T10:50:02Z</time>
      </trkpt>
      <trkpt lat="49.82539" lon="2.53589">
        <ele>53.1</ele>
        <time>2023-07-02T10:50:03Z</time>
      </trkpt>
      <trkpt lat="49.82538" lon="2.53589">
        <ele>53</ele>
        <time>2023-07-02T10:50:04Z</time>
      </trkpt>
      <trkpt lat="49.82537" lon="2.5359">
        <ele>53</ele>
        <time>2023-07-02T10:50:05Z</time>
      </trkpt>
      <trkpt lat="49.82536" lon="2.5359">
        <ele>52.9</ele>
        <time>2023-07-02T10:50:06Z</time>
      </trkpt>
      <trkpt lat="49.82535" lon="2.5359">
        <ele>52.8</ele>
        <time>2023-07-02T10:50:07Z</time>
      </trkpt>
      <trkpt lat="49.82533" lon="2.53591">
        <ele>52.7</ele>
        <time>2023-07-02T10:50:09Z</time>
      </trkpt>
      <trkpt lat="49.82532" lon="2.53591">
        <ele>52.6</ele>
        <time>2023-07-02T10:50:10Z</time>
      </trkpt>
      <trkpt lat="49.82531" lon="2.53592">
        <ele>52.5</ele>
        <time>2023-07-02T10:50:11Z</time>
      </trkpt>
      <trkpt lat="49.8253" lon="2.53592">
        <ele>52.4</ele>
        <time>2023-07-02T10:50:12Z</time>
      </trkpt>
      <trkpt lat="49.82528" lon="2.53593">
        <ele>52.2</ele>
        <time>2023-07-02T10:50:13Z</time>
      </trkpt>
      <trkpt lat="49.82528" lon="2.53594">
        <ele>52.2</ele>
        <time>2023-07-02T10:50:14Z</time>
      </trkpt>
      <trkpt lat="49.82527" lon="2.53594">
        <ele>52.1</ele>
        <time>2023-07-02T10:50:15Z</time>
      </trkpt>
      <trkpt lat="49.82526" lon="2.53595">
        <ele>52</ele>
        <time>2023-07-02T10:50:16Z</time>
      </trkpt>
      <trkpt lat="49.82524" lon="2.53596">
        <ele>51.9</ele>
        <time>2023-07-02T10:50:17Z</time>
      </trkpt>
      <trkpt lat="49.82522" lon="2.53598">
        <ele>51.7</ele>
        <time>2023-07-02T10:50:19Z</time>
      </trkpt>
      <trkpt lat="49.82521" lon="2.53599">
        <ele>51.6</ele>
        <time>2023-07-02T10:50:21Z</time>
      </trkpt>
      <trkpt lat="49.82519" lon="2.536">
        <ele>51.4</ele>
        <time>2023-07-02T10:50:22Z</time>
      </trkpt>
      <trkpt lat="49.82518" lon="2.536">
        <ele>51.3</ele>
        <time>2023-07-02T10:50:23Z</time>
      </trkpt>
      <trkpt lat="49.82517" lon="2.536">
        <ele>51.3</ele>
        <time>2023-07-02T10:50:24Z</time>
      </trkpt>
      <trkpt lat="49.82515" lon="2.53601">
        <ele>51.1</ele>
        <time>2023-07-02T10:50:25Z</time>
      </trkpt>
      <trkpt lat="49.82514" lon="2.53602">
        <ele>51.1</ele>
        <time>2023-07-02T10:50:26Z</time>
      </trkpt>
      <trkpt lat="49.82513" lon="2.53602">
        <ele>51</ele>
        <time>2023-07-02T10:50:27Z</time>
      </trkpt>
      <trkpt lat="49.82512" lon="2.53602">
        <ele>50.9</ele>
        <time>2023-07-02T10:50:28Z</time>
      </trkpt>
      <trkpt lat="49.82511" lon="2.53603">
        <ele>50.8</ele>
        <time>2023-07-02T10:50:29Z</time>
      </trkpt>
      <trkpt lat="49.82509" lon="2.53603">
        <ele>50.7</ele>
        <time>2023-07-02T10:50:30Z</time>
      </trkpt>
      <trkpt lat="49.82508" lon="2.53603">
        <ele>50.6</ele>
        <time>2023-07-02T10:50:31Z</time>
      </trkpt>
      <trkpt lat="49.82506" lon="2.53604">
        <ele>50.5</ele>
        <time>2023-07-02T10:50:33Z</time>
      </trkpt>
      <trkpt lat="49.82505" lon="2.53604">
        <ele>50.4</ele>
        <time>2023-07-02T10:50:34Z</time>
      </trkpt>
      <trkpt lat="49.82503" lon="2.53605">
        <ele>50.2</ele>
        <time>2023-07-02T10:50:35Z</time>
      </trkpt>
      <trkpt lat="49.82502" lon="2.53605">
        <ele>50.2</ele>
        <time>2023-07-02T10:50:36Z</time>
      </trkpt>
      <trkpt lat="49.82502" lon="2.53606">
        <ele>50.1</ele>
        <time>2023-07-02T10:50:37Z</time>
      </trkpt>
      <trkpt lat="49.825" lon="2.53607">
        <ele>50</ele>
        <time>2023-07-02T10:50:38Z</time>
      </trkpt>
      <trkpt lat="49.82499" lon="2.53607">
        <ele>49.9</ele>
        <time>2023-07-02T10:50:39Z</time>
      </trkpt>
      <trkpt lat="49.82498" lon="2.53608">
        <ele>49.9</ele>
        <time>2023-07-02T10:50:40Z</time>
      </trkpt>
      <trkpt lat="49.82497" lon="2.53608">
        <ele>49.8</ele>
        <time>2023-07-02T10:50:41Z</time>
      </trkpt>
      <trkpt lat="49.82496" lon="2.53609">
        <ele>49.7</ele>
        <time>2023-07-02T10:50:42Z</time>
      </trkpt>
      <trkpt lat="49.82494" lon="2.5361">
        <ele>49.6</ele>
        <time>2023-07-02T10:50:44Z</time>
      </trkpt>
      <trkpt lat="49.82493" lon="2.5361">
        <ele>49.6</ele>
        <time>2023-07-02T10:50:45Z</time>
      </trkpt>
      <trkpt lat="49.82492" lon="2.53611">
        <ele>49.5</ele>
        <time>2023-07-02T10:50:46Z</time>
      </trkpt>
      <trkpt lat="49.82491" lon="2.53611">
        <ele>49.5</ele>
        <time>2023-07-02T10:50:47Z</time>
      </trkpt>
      <trkpt lat="49.8249" lon="2.53612">
        <ele>49.4</ele>
        <time>2023-07-02T10:50:48Z</time>
      </trkpt>
      <trkpt lat="49.82489" lon="2.53613">
        <ele>49.4</ele>
        <time>2023-07-02T10:50:50Z</time>
      </trkpt>
      <trkpt lat="49.82487" lon="2.53614">
        <ele>49.3</ele>
        <time>2023-07-02T10:50:51Z</time>
      </trkpt>
      <trkpt lat="49.82486" lon="2.53614">
        <ele>49.2</ele>
        <time>2023-07-02T10:50:52Z</time>
      </trkpt>
      <trkpt lat="49.82484" lon="2.53616">
        <ele>49.1</ele>
        <time>2023-07-02T10:50:53Z</time>
      </trkpt>
      <trkpt lat="49.82483" lon="2.53617">
        <ele>49.1</ele>
        <time>2023-07-02T10:50:54Z</time>
      </trkpt>
      <trkpt lat="49.82483" lon="2.53618">
        <ele>49.1</ele>
        <time>2023-07-02T10:50:55Z</time>
      </trkpt>
      <trkpt lat="49.82482" lon="2.53619">
        <ele>49</ele>
        <time>2023-07-02T10:50:56Z</time>
      </trkpt>
      <trkpt lat="49.82481" lon="2.53619">
        <ele>49</ele>
        <time>2023-07-02T10:50:57Z</time>
      </trkpt>
      <trkpt lat="49.8248" lon="2.5362">
        <ele>48.9</ele>
        <time>2023-07-02T10:50:58Z</time>
      </trkpt>
      <trkpt lat="49.82478" lon="2.5362">
        <ele>48.8</ele>
        <time>2023-07-02T10:51:00Z</time>
      </trkpt>
      <trkpt lat="49.82477" lon="2.5362">
        <ele>48.8</ele>
        <time>2023-07-02T10:51:01Z</time>
      </trkpt>
      <trkpt lat="49.82476" lon="2.5362">
        <ele>48.7</ele>
        <time>2023-07-02T10:51:02Z</time>
      </trkpt>
      <trkpt lat="49.82474" lon="2.53621">
        <ele>48.6</ele>
        <time>2023-07-02T10:51:03Z</time>
      </trkpt>
      <trkpt lat="49.82473" lon="2.53621">
        <ele>48.6</ele>
        <time>2023-07-02T10:51:04Z</time>
      </trkpt>
      <trkpt lat="49.82472" lon="2.53621">
        <ele>48.5</ele>
        <time>2023-07-02T10:51:05Z</time>
      </trkpt>
      <trkpt lat="49.82471" lon="2.53622">
        <ele>48.5</ele>
        <time>2023-07-02T10:51:06Z</time>
      </trkpt>
      <trkpt lat="49.82471" lon="2.53622">
        <ele>48.5</ele>
        <time>2023-07-02T10:51:07Z</time>
      </trkpt>
      <trkpt lat="49.8247" lon="2.53622">
        <ele>48.4</ele>
        <time>2023-07-02T10:51:08Z</time>
      </trkpt>
      <trkpt lat="49.82469" lon="2.53623">
        <ele>48.4</ele>
        <time>2023-07-02T10:51:10Z</time>
      </trkpt>
      <trkpt lat="49.82468" lon="2.53624">
        <ele>48.3</ele>
        <time>2023-07-02T10:51:11Z</time>
      </trkpt>
      <trkpt lat="49.82466" lon="2.53624">
        <ele>48.3</ele>
        <time>2023-07-02T10:51:12Z</time>
      </trkpt>
      <trkpt lat="49.82465" lon="2.53624">
        <ele>48.2</ele>
        <time>2023-07-02T10:51:13Z</time>
      </trkpt>
      <trkpt lat="49.82465" lon="2.53622">
        <ele>48.2</ele>
        <time>2023-07-02T10:51:14Z</time>
      </trkpt>
      <trkpt lat="49.82465" lon="2.53619">
        <ele>47.8</ele>
        <time>2023-07-02T10:51:16Z</time>
      </trkpt>
      <trkpt lat="49.82465" lon="2.53618">
        <ele>47.8</ele>
        <time>2023-07-02T10:51:17Z</time>
      </trkpt>
      <trkpt lat="49.82465" lon="2.53616">
        <ele>47.8</ele>
        <time>2023-07-02T10:51:19Z</time>
      </trkpt>
      <trkpt lat="49.82465" lon="2.53615">
        <ele>47.7</ele>
        <time>2023-07-02T10:51:20Z</time>
      </trkpt>
      <trkpt lat="49.82466" lon="2.53615">
        <ele>47.7</ele>
        <time>2023-07-02T10:51:22Z</time>
      </trkpt>
      <trkpt lat="49.82466" lon="2.53615">
        <ele>47.7</ele>
        <time>2023-07-02T10:51:23Z</time>
      </trkpt>
      <trkpt lat="49.82466" lon="2.53615">
        <ele>47.7</ele>
        <time>2023-07-02T10:51:24Z</time>
      </trkpt>
      <trkpt lat="49.82466" lon="2.53615">
        <ele>47.7</ele>
        <time>2023-07-02T10:51:26Z</time>
      </trkpt>
      <trkpt lat="49.82466" lon="2.53614">
        <ele>47.7</ele>
        <time>2023-07-02T10:51:27Z</time>
      </trkpt>
      <trkpt lat="49.82466" lon="2.53614">
        <ele>47.7</ele>
        <time>2023-07-02T10:51:28Z</time>
      </trkpt>
      <trkpt lat="49.82466" lon="2.53614">
        <ele>47.7</ele>
        <time>2023-07-02T10:51:29Z</time>
      </trkpt>
      <trkpt lat="49.82465" lon="2.53614">
        <ele>47.7</ele>
        <time>2023-07-02T10:51:30Z</time>
      </trkpt>
      <trkpt lat="49.82465" lon="2.53613">
        <ele>47.7</ele>
        <time>2023-07-02T10:51:31Z</time>
      </trkpt>
      <trkpt lat="49.82465" lon="2.53614">
        <ele>47.7</ele>
        <time>2023-07-02T10:51:33Z</time>
      </trkpt>
      <trkpt lat="49.82465" lon="2.53615">
        <ele>47.6</ele>
        <time>2023-07-02T10:51:34Z</time>
      </trkpt>
      <trkpt lat="49.82465" lon="2.53616">
        <ele>47.6</ele>
        <time>2023-07-02T10:51:36Z</time>
      </trkpt>
      <trkpt lat="49.82465" lon="2.53616">
        <ele>47.6</ele>
        <time>2023-07-02T10:51:37Z</time>
      </trkpt>
      <trkpt lat="49.82465" lon="2.53617">
        <ele>47.6</ele>
        <time>2023-07-02T10:51:39Z</time>
      </trkpt>
      <trkpt lat="49.82465" lon="2.53617">
        <ele>47.6</ele>
        <time>2023-07-02T10:51:40Z</time>
      </trkpt>
      <trkpt lat="49.82465" lon="2.53617">
        <ele>47.6</ele>
        <time>2023-07-02T10:51:42Z</time>
      </trkpt>
      <trkpt lat="49.82465" lon="2.53617">
        <ele>47.6</ele>
        <time>2023-07-02T10:51:43Z</time>
      </trkpt>
      <trkpt lat="49.82465" lon="2.53617">
        <ele>47.6</ele>
        <time>2023-07-02T10:51:45Z</time>
      </trkpt>
      <trkpt lat="49.82465" lon="2.53617">
        <ele>47.6</ele>
        <time>2023-07-02T10:51:46Z</time>
      </trkpt>
      <trkpt lat="49.82465" lon="2.53617">
        <ele>47.6</ele>
        <time>2023-07-02T10:51:47Z</time>
      </trkpt>
      <trkpt lat="49.82465" lon="2.53618">
        <ele>47.6</ele>
        <time>2023-07-02T10:51:49Z</time>
      </trkpt>
      <trkpt lat="49.82465" lon="2.53618">
        <ele>47.6</ele>
        <time>2023-07-02T10:51:50Z</time>
      </trkpt>
      <trkpt lat="49.82465" lon="2.53619">
        <ele>47.6</ele>
        <time>2023-07-02T10:51:51Z</time>
      </trkpt>
      <trkpt lat="49.82465" lon="2.53619">
        <ele>47.6</ele>
        <time>2023-07-02T10:51:52Z</time>
      </trkpt>
      <trkpt lat="49.82465" lon="2.53619">
        <ele>47.6</ele>
        <time>2023-07-02T10:51:53Z</time>
      </trkpt>
      <trkpt lat="49.82465" lon="2.53619">
        <ele>47.6</ele>
        <time>2023-07-02T10:51:54Z</time>
      </trkpt>
      <trkpt lat="49.82465" lon="2.53619">
        <ele>47.6</ele>
        <time>2023-07-02T10:51:55Z</time>
      </trkpt>
      <trkpt lat="49.82465" lon="2.53619">
        <ele>47.6</ele>
        <time>2023-07-02T10:51:56Z</time>
      </trkpt>
      <trkpt lat="49.82465" lon="2.53619">
        <ele>47.6</ele>
        <time>2023-07-02T10:51:57Z</time>
      </trkpt>
      <trkpt lat="49.82465" lon="2.53619">
        <ele>47.6</ele>
        <time>2023-07-02T10:51:58Z</time>
      </trkpt>
      <trkpt lat="49.82465" lon="2.53619">
        <ele>47.6</ele>
        <time>2023-07-02T10:51:59Z</time>
      </trkpt>
      <trkpt lat="49.82465" lon="2.53619">
        <ele>47.6</ele>
        <time>2023-07-02T10:52:00Z</time>
      </trkpt>
      <trkpt lat="49.82465" lon="2.53619">
        <ele>47.6</ele>
        <time>2023-07-02T10:52:01Z</time>
      </trkpt>
      <trkpt lat="49.82465" lon="2.53619">
        <ele>47.6</ele>
        <time>2023-07-02T10:52:02Z</time>
      </trkpt>
      <trkpt lat="49.82465" lon="2.53619">
        <ele>47.6</ele>
        <time>2023-07-02T10:52:03Z</time>
      </trkpt>
      <trkpt lat="49.82465" lon="2.53619">
        <ele>47.6</ele>
        <time>2023-07-02T10:52:04Z</time>
      </trkpt>
      <trkpt lat="49.82465" lon="2.53619">
        <ele>47.6</ele>
        <time>2023-07-02T10:52:05Z</time>
      </trkpt>
      <trkpt lat="49.82465" lon="2.53619">
        <ele>47.6</ele>
        <time>2023-07-02T10:52:06Z</time>
      </trkpt>
      <trkpt lat="49.82465" lon="2.53619">
        <ele>47.6</ele>
        <time>2023-07-02T10:52:07Z</time>
      </trkpt>
      <trkpt lat="49.82465" lon="2.53619">
        <ele>47.6</ele>
        <time>2023-07-02T10:52:08Z</time>
      </trkpt>
      <trkpt lat="49.82465" lon="2.53619">
        <ele>47.6</ele>
        <time>2023-07-02T10:52:09Z</time>
      </trkpt>
      <trkpt lat="49.82465" lon="2.53619">
        <ele>47.6</ele>
        <time>2023-07-02T10:52:10Z</time>
      </trkpt>
      <trkpt lat="49.82465" lon="2.53619">
        <ele>47.6</ele>
        <time>2023-07-02T10:52:11Z</time>
      </trkpt>
      <trkpt lat="49.82465" lon="2.53619">
        <ele>47.6</ele>
        <time>2023-07-02T10:52:12Z</time>
      </trkpt>
      <trkpt lat="49.82465" lon="2.53619">
        <ele>47.6</ele>
        <time>2023-07-02T10:52:13Z</time>
      </trkpt>
      <trkpt lat="49.82465" lon="2.53619">
        <ele>47.6</ele>
        <time>2023-07-02T10:52:14Z</time>
      </trkpt>
      <trkpt lat="49.82465" lon="2.53619">
        <ele>47.6</ele>
        <time>2023-07-02T10:52:15Z</time>
      </trkpt>
      <trkpt lat="49.82465" lon="2.53618">
        <ele>47.5</ele>
        <time>2023-07-02T10:52:16Z</time>
      </trkpt>
      <trkpt lat="49.82465" lon="2.53618">
        <ele>47.5</ele>
        <time>2023-07-02T10:52:17Z</time>
      </trkpt>
      <trkpt lat="49.82465" lon="2.53618">
        <ele>47.5</ele>
        <time>2023-07-02T10:52:18Z</time>
      </trkpt>
      <trkpt lat="49.82465" lon="2.53618">
        <ele>47.5</ele>
        <time>2023-07-02T10:52:19Z</time>
      </trkpt>
      <trkpt lat="49.82465" lon="2.53618">
        <ele>47.5</ele>
        <time>2023-07-02T10:52:20Z</time>
      </trkpt>
      <trkpt lat="49.82465" lon="2.53618">
        <ele>47.5</ele>
        <time>2023-07-02T10:52:21Z</time>
      </trkpt>
      <trkpt lat="49.82465" lon="2.53618">
        <ele>47.5</ele>
        <time>2023-07-02T10:52:22Z</time>
      </trkpt>
      <trkpt lat="49.82465" lon="2.53618">
        <ele>47.5</ele>
        <time>2023-07-02T10:52:23Z</time>
      </trkpt>
      <trkpt lat="49.82465" lon="2.53619">
        <ele>47.5</ele>
        <time>2023-07-02T10:52:24Z</time>
      </trkpt>
      <trkpt lat="49.82465" lon="2.53619">
        <ele>47.5</ele>
        <time>2023-07-02T10:52:25Z</time>
      </trkpt>
      <trkpt lat="49.82465" lon="2.53619">
        <ele>47.5</ele>
        <time>2023-07-02T10:52:26Z</time>
      </trkpt>
      <trkpt lat="49.82465" lon="2.53619">
        <ele>47.5</ele>
        <time>2023-07-02T10:52:27Z</time>
      </trkpt>
      <trkpt lat="49.82465" lon="2.53619">
        <ele>47.5</ele>
        <time>2023-07-02T10:52:28Z</time>
      </trkpt>
      <trkpt lat="49.82465" lon="2.53619">
        <ele>47.5</ele>
        <time>2023-07-02T10:52:29Z</time>
      </trkpt>
      <trkpt lat="49.82465" lon="2.53619">
        <ele>47.5</ele>
        <time>2023-07-02T10:52:31Z</time>
      </trkpt>
      <trkpt lat="49.82465" lon="2.53619">
        <ele>47.5</ele>
        <time>2023-07-02T10:52:32Z</time>
      </trkpt>
      <trkpt lat="49.82464" lon="2.53619">
        <ele>47.5</ele>
        <time>2023-07-02T10:52:33Z</time>
      </trkpt>
      <trkpt lat="49.82464" lon="2.53619">
        <ele>47.5</ele>
        <time>2023-07-02T10:52:34Z</time>
      </trkpt>
      <trkpt lat="49.82463" lon="2.53618">
        <ele>47.5</ele>
        <time>2023-07-02T10:52:35Z</time>
      </trkpt>
      <trkpt lat="49.82462" lon="2.53616">
        <ele>47.4</ele>
        <time>2023-07-02T10:52:37Z</time>
      </trkpt>
      <trkpt lat="49.82462" lon="2.53615">
        <ele>47.4</ele>
        <time>2023-07-02T10:52:38Z</time>
      </trkpt>
      <trkpt lat="49.82462" lon="2.53613">
        <ele>47.4</ele>
        <time>2023-07-02T10:52:40Z</time>
      </trkpt>
      <trkpt lat="49.82462" lon="2.53612">
        <ele>47.4</ele>
        <time>2023-07-02T10:52:41Z</time>
      </trkpt>
      <trkpt lat="49.82463" lon="2.53611">
        <ele>47.3</ele>
        <time>2023-07-02T10:52:42Z</time>
      </trkpt>
      <trkpt lat="49.82463" lon="2.53608">
        <ele>47.3</ele>
        <time>2023-07-02T10:52:43Z</time>
      </trkpt>
      <trkpt lat="49.82463" lon="2.53606">
        <ele>47.3</ele>
        <time>2023-07-02T10:52:44Z</time>
      </trkpt>
      <trkpt lat="49.82464" lon="2.53605">
        <ele>47.3</ele>
        <time>2023-07-02T10:52:45Z</time>
      </trkpt>
      <trkpt lat="49.82463" lon="2.53601">
        <ele>47.2</ele>
        <time>2023-07-02T10:52:47Z</time>
      </trkpt>
      <trkpt lat="49.82463" lon="2.536">
        <ele>47.2</ele>
        <time>2023-07-02T10:52:48Z</time>
      </trkpt>
      <trkpt lat="49.82463" lon="2.53599">
        <ele>47.2</ele>
        <time>2023-07-02T10:52:49Z</time>
      </trkpt>
      <trkpt lat="49.82463" lon="2.53597">
        <ele>47.1</ele>
        <time>2023-07-02T10:52:50Z</time>
      </trkpt>
      <trkpt lat="49.82463" lon="2.53594">
        <ele>47.1</ele>
        <time>2023-07-02T10:52:51Z</time>
      </trkpt>
      <trkpt lat="49.82462" lon="2.53593">
        <ele>47.1</ele>
        <time>2023-07-02T10:52:52Z</time>
      </trkpt>
      <trkpt lat="49.82462" lon="2.53591">
        <ele>47</ele>
        <time>2023-07-02T10:52:53Z</time>
      </trkpt>
      <trkpt lat="49.82462" lon="2.53589">
        <ele>47</ele>
        <time>2023-07-02T10:52:55Z</time>
      </trkpt>
      <trkpt lat="49.82462" lon="2.53588">
        <ele>47</ele>
        <time>2023-07-02T10:52:56Z</time>
      </trkpt>
      <trkpt lat="49.82462" lon="2.53586">
        <ele>47</ele>
        <time>2023-07-02T10:52:57Z</time>
      </trkpt>
      <trkpt lat="49.82461" lon="2.53584">
        <ele>47</ele>
        <time>2023-07-02T10:52:58Z</time>
      </trkpt>
      <trkpt lat="49.82461" lon="2.5358">
        <ele>46.9</ele>
        <time>2023-07-02T10:52:59Z</time>
      </trkpt>
      <trkpt lat="49.82461" lon="2.53579">
        <ele>46.9</ele>
        <time>2023-07-02T10:53:00Z</time>
      </trkpt>
      <trkpt lat="49.8246" lon="2.53578">
        <ele>46.9</ele>
        <time>2023-07-02T10:53:01Z</time>
      </trkpt>
      <trkpt lat="49.8246" lon="2.53576">
        <ele>46.9</ele>
        <time>2023-07-02T10:53:03Z</time>
      </trkpt>
      <trkpt lat="49.8246" lon="2.53575">
        <ele>46.9</ele>
        <time>2023-07-02T10:53:04Z</time>
      </trkpt>
      <trkpt lat="49.8246" lon="2.53574">
        <ele>46.8</ele>
        <time>2023-07-02T10:53:05Z</time>
      </trkpt>
      <trkpt lat="49.8246" lon="2.53572">
        <ele>46.8</ele>
        <time>2023-07-02T10:53:06Z</time>
      </trkpt>
      <trkpt lat="49.82459" lon="2.53568">
        <ele>46.8</ele>
        <time>2023-07-02T10:53:07Z</time>
      </trkpt>
      <trkpt lat="49.82459" lon="2.53566">
        <ele>46.8</ele>
        <time>2023-07-02T10:53:08Z</time>
      </trkpt>
      <trkpt lat="49.82458" lon="2.53561">
        <ele>46.7</ele>
        <time>2023-07-02T10:53:09Z</time>
      </trkpt>
      <trkpt lat="49.82457" lon="2.5356">
        <ele>46.7</ele>
        <time>2023-07-02T10:53:10Z</time>
      </trkpt>
      <trkpt lat="49.82457" lon="2.53557">
        <ele>46.7</ele>
        <time>2023-07-02T10:53:11Z</time>
      </trkpt>
      <trkpt lat="49.82456" lon="2.53555">
        <ele>46.7</ele>
        <time>2023-07-02T10:53:13Z</time>
      </trkpt>
      <trkpt lat="49.82456" lon="2.53552">
        <ele>46.6</ele>
        <time>2023-07-02T10:53:14Z</time>
      </trkpt>
      <trkpt lat="49.82455" lon="2.5355">
        <ele>46.6</ele>
        <time>2023-07-02T10:53:15Z</time>
      </trkpt>
      <trkpt lat="49.82455" lon="2.53547">
        <ele>46.6</ele>
        <time>2023-07-02T10:53:16Z</time>
      </trkpt>
      <trkpt lat="49.82454" lon="2.53546">
        <ele>46.6</ele>
        <time>2023-07-02T10:53:17Z</time>
      </trkpt>
      <trkpt lat="49.82454" lon="2.53545">
        <ele>46.6</ele>
        <time>2023-07-02T10:53:18Z</time>
      </trkpt>
      <trkpt lat="49.82453" lon="2.53542">
        <ele>46.5</ele>
        <time>2023-07-02T10:53:19Z</time>
      </trkpt>
      <trkpt lat="49.82452" lon="2.53541">
        <ele>46.5</ele>
        <time>2023-07-02T10:53:20Z</time>
      </trkpt>
      <trkpt lat="49.82452" lon="2.53539">
        <ele>46.5</ele>
        <time>2023-07-02T10:53:21Z</time>
      </trkpt>
      <trkpt lat="49.82451" lon="2.53538">
        <ele>46.5</ele>
        <time>2023-07-02T10:53:23Z</time>
      </trkpt>
      <trkpt lat="49.82451" lon="2.53536">
        <ele>46.5</ele>
        <time>2023-07-02T10:53:24Z</time>
      </trkpt>
      <trkpt lat="49.8245" lon="2.53534">
        <ele>46.5</ele>
        <time>2023-07-02T10:53:25Z</time>
      </trkpt>
      <trkpt lat="49.8245" lon="2.53533">
        <ele>46.5</ele>
        <time>2023-07-02T10:53:26Z</time>
      </trkpt>
      <trkpt lat="49.82449" lon="2.53531">
        <ele>46.4</ele>
        <time>2023-07-02T10:53:27Z</time>
      </trkpt>
      <trkpt lat="49.82449" lon="2.53529">
        <ele>46.4</ele>
        <time>2023-07-02T10:53:28Z</time>
      </trkpt>
      <trkpt lat="49.82448" lon="2.53528">
        <ele>46.4</ele>
        <time>2023-07-02T10:53:29Z</time>
      </trkpt>
      <trkpt lat="49.82448" lon="2.53526">
        <ele>46.4</ele>
        <time>2023-07-02T10:53:30Z</time>
      </trkpt>
      <trkpt lat="49.82447" lon="2.53523">
        <ele>46.4</ele>
        <time>2023-07-02T10:53:32Z</time>
      </trkpt>
      <trkpt lat="49.82446" lon="2.53522">
        <ele>46.4</ele>
        <time>2023-07-02T10:53:33Z</time>
      </trkpt>
      <trkpt lat="49.82446" lon="2.53521">
        <ele>46.4</ele>
        <time>2023-07-02T10:53:34Z</time>
      </trkpt>
      <trkpt lat="49.82445" lon="2.5352">
        <ele>46.4</ele>
        <time>2023-07-02T10:53:35Z</time>
      </trkpt>
      <trkpt lat="49.82444" lon="2.53519">
        <ele>46.3</ele>
        <time>2023-07-02T10:53:36Z</time>
      </trkpt>
      <trkpt lat="49.82443" lon="2.53518">
        <ele>46.3</ele>
        <time>2023-07-02T10:53:37Z</time>
      </trkpt>
      <trkpt lat="49.82442" lon="2.53516">
        <ele>46.3</ele>
        <time>2023-07-02T10:53:38Z</time>
      </trkpt>
      <trkpt lat="49.82441" lon="2.53515">
        <ele>46.3</ele>
        <time>2023-07-02T10:53:39Z</time>
      </trkpt>
      <trkpt lat="49.8244" lon="2.53515">
        <ele>46.3</ele>
        <time>2023-07-02T10:53:40Z</time>
      </trkpt>
      <trkpt lat="49.82439" lon="2.53513">
        <ele>46.3</ele>
        <time>2023-07-02T10:53:42Z</time>
      </trkpt>
      <trkpt lat="49.82439" lon="2.53511">
        <ele>46.3</ele>
        <time>2023-07-02T10:53:43Z</time>
      </trkpt>
      <trkpt lat="49.82438" lon="2.5351">
        <ele>46.2</ele>
        <time>2023-07-02T10:53:44Z</time>
      </trkpt>
      <trkpt lat="49.82437" lon="2.53509">
        <ele>46.2</ele>
        <time>2023-07-02T10:53:45Z</time>
      </trkpt>
      <trkpt lat="49.82437" lon="2.53507">
        <ele>46.2</ele>
        <time>2023-07-02T10:53:46Z</time>
      </trkpt>
      <trkpt lat="49.82436" lon="2.53506">
        <ele>46.2</ele>
        <time>2023-07-02T10:53:47Z</time>
      </trkpt>
      <trkpt lat="49.82435" lon="2.53504">
        <ele>46.2</ele>
        <time>2023-07-02T10:53:48Z</time>
      </trkpt>
      <trkpt lat="49.82435" lon="2.53503">
        <ele>46.2</ele>
        <time>2023-07-02T10:53:50Z</time>
      </trkpt>
      <trkpt lat="49.82434" lon="2.53501">
        <ele>46.2</ele>
        <time>2023-07-02T10:53:51Z</time>
      </trkpt>
      <trkpt lat="49.82433" lon="2.535">
        <ele>46.2</ele>
        <time>2023-07-02T10:53:52Z</time>
      </trkpt>
      <trkpt lat="49.82432" lon="2.53499">
        <ele>46.2</ele>
        <time>2023-07-02T10:53:53Z</time>
      </trkpt>
      <trkpt lat="49.82432" lon="2.53497">
        <ele>46.2</ele>
        <time>2023-07-02T10:53:54Z</time>
      </trkpt>
      <trkpt lat="49.82431" lon="2.53496">
        <ele>46.2</ele>
        <time>2023-07-02T10:53:55Z</time>
      </trkpt>
      <trkpt lat="49.8243" lon="2.53494">
        <ele>46.3</ele>
        <time>2023-07-02T10:53:56Z</time>
      </trkpt>
      <trkpt lat="49.82429" lon="2.53492">
        <ele>46.3</ele>
        <time>2023-07-02T10:53:58Z</time>
      </trkpt>
      <trkpt lat="49.82428" lon="2.53491">
        <ele>46.3</ele>
        <time>2023-07-02T10:53:59Z</time>
      </trkpt>
      <trkpt lat="49.82428" lon="2.5349">
        <ele>46.3</ele>
        <time>2023-07-02T10:54:00Z</time>
      </trkpt>
      <trkpt lat="49.82426" lon="2.53488">
        <ele>46.3</ele>
        <time>2023-07-02T10:54:01Z</time>
      </trkpt>
      <trkpt lat="49.82425" lon="2.53488">
        <ele>46.3</ele>
        <time>2023-07-02T10:54:02Z</time>
      </trkpt>
      <trkpt lat="49.82425" lon="2.53487">
        <ele>46.4</ele>
        <time>2023-07-02T10:54:03Z</time>
      </trkpt>
      <trkpt lat="49.82424" lon="2.53486">
        <ele>46.4</ele>
        <time>2023-07-02T10:54:04Z</time>
      </trkpt>
      <trkpt lat="49.82422" lon="2.53486">
        <ele>46.4</ele>
        <time>2023-07-02T10:54:05Z</time>
      </trkpt>
      <trkpt lat="49.82421" lon="2.53485">
        <ele>46.4</ele>
        <time>2023-07-02T10:54:07Z</time>
      </trkpt>
      <trkpt lat="49.8242" lon="2.53484">
        <ele>46.4</ele>
        <time>2023-07-02T10:54:08Z</time>
      </trkpt>
      <trkpt lat="49.82419" lon="2.53483">
        <ele>46.5</ele>
        <time>2023-07-02T10:54:09Z</time>
      </trkpt>
      <trkpt lat="49.82418" lon="2.53483">
        <ele>46.5</ele>
        <time>2023-07-02T10:54:10Z</time>
      </trkpt>
      <trkpt lat="49.82417" lon="2.53482">
        <ele>46.4</ele>
        <time>2023-07-02T10:54:11Z</time>
      </trkpt>
      <trkpt lat="49.82416" lon="2.53481">
        <ele>46.5</ele>
        <time>2023-07-02T10:54:12Z</time>
      </trkpt>
      <trkpt lat="49.82415" lon="2.5348">
        <ele>46.5</ele>
        <time>2023-07-02T10:54:13Z</time>
      </trkpt>
      <trkpt lat="49.82414" lon="2.53479">
        <ele>46.6</ele>
        <time>2023-07-02T10:54:15Z</time>
      </trkpt>
      <trkpt lat="49.82413" lon="2.53478">
        <ele>46.6</ele>
        <time>2023-07-02T10:54:16Z</time>
      </trkpt>
      <trkpt lat="49.82412" lon="2.53478">
        <ele>46.6</ele>
        <time>2023-07-02T10:54:17Z</time>
      </trkpt>
      <trkpt lat="49.8241" lon="2.53477">
        <ele>46.7</ele>
        <time>2023-07-02T10:54:18Z</time>
      </trkpt>
      <trkpt lat="49.82409" lon="2.53476">
        <ele>46.6</ele>
        <time>2023-07-02T10:54:19Z</time>
      </trkpt>
      <trkpt lat="49.82409" lon="2.53476">
        <ele>46.7</ele>
        <time>2023-07-02T10:54:20Z</time>
      </trkpt>
      <trkpt lat="49.82408" lon="2.53475">
        <ele>46.7</ele>
        <time>2023-07-02T10:54:21Z</time>
      </trkpt>
      <trkpt lat="49.82406" lon="2.53474">
        <ele>46.7</ele>
        <time>2023-07-02T10:54:22Z</time>
      </trkpt>
      <trkpt lat="49.82405" lon="2.53474">
        <ele>46.8</ele>
        <time>2023-07-02T10:54:24Z</time>
      </trkpt>
      <trkpt lat="49.82404" lon="2.53473">
        <ele>46.7</ele>
        <time>2023-07-02T10:54:25Z</time>
      </trkpt>
      <trkpt lat="49.82403" lon="2.53473">
        <ele>46.8</ele>
        <time>2023-07-02T10:54:26Z</time>
      </trkpt>
      <trkpt lat="49.82402" lon="2.53472">
        <ele>46.8</ele>
        <time>2023-07-02T10:54:27Z</time>
      </trkpt>
      <trkpt lat="49.82401" lon="2.53472">
        <ele>46.8</ele>
        <time>2023-07-02T10:54:28Z</time>
      </trkpt>
      <trkpt lat="49.824" lon="2.53471">
        <ele>46.8</ele>
        <time>2023-07-02T10:54:29Z</time>
      </trkpt>
      <trkpt lat="49.82399" lon="2.53471">
        <ele>46.9</ele>
        <time>2023-07-02T10:54:30Z</time>
      </trkpt>
      <trkpt lat="49.82398" lon="2.5347">
        <ele>46.8</ele>
        <time>2023-07-02T10:54:31Z</time>
      </trkpt>
      <trkpt lat="49.82397" lon="2.53469">
        <ele>46.9</ele>
        <time>2023-07-02T10:54:33Z</time>
      </trkpt>
      <trkpt lat="49.82396" lon="2.53468">
        <ele>46.9</ele>
        <time>2023-07-02T10:54:34Z</time>
      </trkpt>
      <trkpt lat="49.82396" lon="2.53468">
        <ele>46.9</ele>
        <time>2023-07-02T10:54:35Z</time>
      </trkpt>
      <trkpt lat="49.82395" lon="2.53467">
        <ele>46.8</ele>
        <time>2023-07-02T10:54:36Z</time>
      </trkpt>
      <trkpt lat="49.82394" lon="2.53466">
        <ele>46.9</ele>
        <time>2023-07-02T10:54:37Z</time>
      </trkpt>
      <trkpt lat="49.82392" lon="2.53465">
        <ele>47</ele>
        <time>2023-07-02T10:54:38Z</time>
      </trkpt>
      <trkpt lat="49.82391" lon="2.53464">
        <ele>47</ele>
        <time>2023-07-02T10:54:40Z</time>
      </trkpt>
      <trkpt lat="49.8239" lon="2.53464">
        <ele>47</ele>
        <time>2023-07-02T10:54:41Z</time>
      </trkpt>
      <trkpt lat="49.82389" lon="2.53464">
        <ele>47.1</ele>
        <time>2023-07-02T10:54:42Z</time>
      </trkpt>
      <trkpt lat="49.82388" lon="2.53463">
        <ele>47</ele>
        <time>2023-07-02T10:54:43Z</time>
      </trkpt>
      <trkpt lat="49.82387" lon="2.53462">
        <ele>47</ele>
        <time>2023-07-02T10:54:44Z</time>
      </trkpt>
      <trkpt lat="49.82386" lon="2.53461">
        <ele>47.1</ele>
        <time>2023-07-02T10:54:45Z</time>
      </trkpt>
      <trkpt lat="49.82385" lon="2.53461">
        <ele>47.1</ele>
        <time>2023-07-02T10:54:46Z</time>
      </trkpt>
      <trkpt lat="49.82383" lon="2.53459">
        <ele>47.2</ele>
        <time>2023-07-02T10:54:48Z</time>
      </trkpt>
      <trkpt lat="49.82382" lon="2.53458">
        <ele>47.2</ele>
        <time>2023-07-02T10:54:49Z</time>
      </trkpt>
      <trkpt lat="49.8238" lon="2.53457">
        <ele>47.3</ele>
        <time>2023-07-02T10:54:50Z</time>
      </trkpt>
      <trkpt lat="49.82378" lon="2.53455">
        <ele>47.4</ele>
        <time>2023-07-02T10:54:51Z</time>
      </trkpt>
      <trkpt lat="49.82377" lon="2.53455">
        <ele>47.4</ele>
        <time>2023-07-02T10:54:52Z</time>
      </trkpt>
      <trkpt lat="49.82375" lon="2.53453">
        <ele>47.4</ele>
        <time>2023-07-02T10:54:53Z</time>
      </trkpt>
      <trkpt lat="49.82374" lon="2.53453">
        <ele>47.4</ele>
        <time>2023-07-02T10:54:55Z</time>
      </trkpt>
      <trkpt lat="49.82371" lon="2.53452">
        <ele>47.5</ele>
        <time>2023-07-02T10:54:56Z</time>
      </trkpt>
      <trkpt lat="49.8237" lon="2.53451">
        <ele>47.5</ele>
        <time>2023-07-02T10:54:57Z</time>
      </trkpt>
      <trkpt lat="49.82368" lon="2.5345">
        <ele>47.5</ele>
        <time>2023-07-02T10:54:58Z</time>
      </trkpt>
      <trkpt lat="49.82367" lon="2.53449">
        <ele>47.6</ele>
        <time>2023-07-02T10:54:59Z</time>
      </trkpt>
      <trkpt lat="49.82365" lon="2.53447">
        <ele>47.6</ele>
        <time>2023-07-02T10:55:01Z</time>
      </trkpt>
      <trkpt lat="49.82364" lon="2.53446">
        <ele>47.7</ele>
        <time>2023-07-02T10:55:02Z</time>
      </trkpt>
      <trkpt lat="49.82363" lon="2.53445">
        <ele>47.7</ele>
        <time>2023-07-02T10:55:03Z</time>
      </trkpt>
      <trkpt lat="49.82361" lon="2.53444">
        <ele>47.7</ele>
        <time>2023-07-02T10:55:04Z</time>
      </trkpt>
      <trkpt lat="49.8236" lon="2.53443">
        <ele>47.7</ele>
        <time>2023-07-02T10:55:05Z</time>
      </trkpt>
      <trkpt lat="49.82359" lon="2.53443">
        <ele>47.8</ele>
        <time>2023-07-02T10:55:06Z</time>
      </trkpt>
      <trkpt lat="49.82357" lon="2.53441">
        <ele>47.8</ele>
        <time>2023-07-02T10:55:07Z</time>
      </trkpt>
      <trkpt lat="49.82356" lon="2.53441">
        <ele>47.7</ele>
        <time>2023-07-02T10:55:09Z</time>
      </trkpt>
      <trkpt lat="49.82355" lon="2.5344">
        <ele>47.8</ele>
        <time>2023-07-02T10:55:10Z</time>
      </trkpt>
      <trkpt lat="49.82354" lon="2.53439">
        <ele>47.8</ele>
        <time>2023-07-02T10:55:11Z</time>
      </trkpt>
      <trkpt lat="49.82353" lon="2.53438">
        <ele>47.8</ele>
        <time>2023-07-02T10:55:12Z</time>
      </trkpt>
      <trkpt lat="49.82353" lon="2.53438">
        <ele>47.8</ele>
        <time>2023-07-02T10:55:13Z</time>
      </trkpt>
      <trkpt lat="49.82352" lon="2.53437">
        <ele>47.8</ele>
        <time>2023-07-02T10:55:14Z</time>
      </trkpt>
      <trkpt lat="49.82351" lon="2.53436">
        <ele>47.8</ele>
        <time>2023-07-02T10:55:15Z</time>
      </trkpt>
      <trkpt lat="49.82351" lon="2.53435">
        <ele>47.8</ele>
        <time>2023-07-02T10:55:16Z</time>
      </trkpt>
      <trkpt lat="49.8235" lon="2.53434">
        <ele>47.8</ele>
        <time>2023-07-02T10:55:18Z</time>
      </trkpt>
      <trkpt lat="49.82349" lon="2.53434">
        <ele>47.8</ele>
        <time>2023-07-02T10:55:19Z</time>
      </trkpt>
      <trkpt lat="49.82348" lon="2.53433">
        <ele>47.8</ele>
        <time>2023-07-02T10:55:20Z</time>
      </trkpt>
      <trkpt lat="49.82347" lon="2.53432">
        <ele>47.8</ele>
        <time>2023-07-02T10:55:21Z</time>
      </trkpt>
      <trkpt lat="49.82346" lon="2.53432">
        <ele>47.8</ele>
        <time>2023-07-02T10:55:22Z</time>
      </trkpt>
      <trkpt lat="49.82345" lon="2.53431">
        <ele>47.8</ele>
        <time>2023-07-02T10:55:23Z</time>
      </trkpt>
      <trkpt lat="49.82344" lon="2.53431">
        <ele>47.8</ele>
        <time>2023-07-02T10:55:24Z</time>
      </trkpt>
      <trkpt lat="49.82343" lon="2.5343">
        <ele>47.8</ele>
        <time>2023-07-02T10:55:25Z</time>
      </trkpt>
      <trkpt lat="49.82342" lon="2.53429">
        <ele>47.8</ele>
        <time>2023-07-02T10:55:26Z</time>
      </trkpt>
      <trkpt lat="49.82341" lon="2.53429">
        <ele>47.8</ele>
        <time>2023-07-02T10:55:28Z</time>
      </trkpt>
      <trkpt lat="49.8234" lon="2.53428">
        <ele>47.8</ele>
        <time>2023-07-02T10:55:29Z</time>
      </trkpt>
      <trkpt lat="49.82339" lon="2.53428">
        <ele>47.8</ele>
        <time>2023-07-02T10:55:30Z</time>
      </trkpt>
      <trkpt lat="49.82339" lon="2.53427">
        <ele>47.8</ele>
        <time>2023-07-02T10:55:31Z</time>
      </trkpt>
      <trkpt lat="49.82337" lon="2.53426">
        <ele>47.8</ele>
        <time>2023-07-02T10:55:32Z</time>
      </trkpt>
      <trkpt lat="49.82336" lon="2.53425">
        <ele>47.8</ele>
        <time>2023-07-02T10:55:34Z</time>
      </trkpt>
      <trkpt lat="49.82335" lon="2.53424">
        <ele>47.8</ele>
        <time>2023-07-02T10:55:35Z</time>
      </trkpt>
      <trkpt lat="49.82334" lon="2.53423">
        <ele>47.8</ele>
        <time>2023-07-02T10:55:36Z</time>
      </trkpt>
      <trkpt lat="49.82333" lon="2.53422">
        <ele>47.8</ele>
        <time>2023-07-02T10:55:37Z</time>
      </trkpt>
      <trkpt lat="49.82332" lon="2.53421">
        <ele>47.8</ele>
        <time>2023-07-02T10:55:38Z</time>
      </trkpt>
      <trkpt lat="49.82331" lon="2.5342">
        <ele>47.8</ele>
        <time>2023-07-02T10:55:39Z</time>
      </trkpt>
      <trkpt lat="49.82329" lon="2.53419">
        <ele>47.8</ele>
        <time>2023-07-02T10:55:40Z</time>
      </trkpt>
      <trkpt lat="49.82328" lon="2.53419">
        <ele>47.8</ele>
        <time>2023-07-02T10:55:42Z</time>
      </trkpt>
      <trkpt lat="49.82327" lon="2.53418">
        <ele>47.8</ele>
        <time>2023-07-02T10:55:43Z</time>
      </trkpt>
      <trkpt lat="49.82325" lon="2.53417">
        <ele>47.8</ele>
        <time>2023-07-02T10:55:44Z</time>
      </trkpt>
      <trkpt lat="49.82324" lon="2.53416">
        <ele>47.8</ele>
        <time>2023-07-02T10:55:45Z</time>
      </trkpt>
      <trkpt lat="49.82323" lon="2.53415">
        <ele>47.8</ele>
        <time>2023-07-02T10:55:46Z</time>
      </trkpt>
      <trkpt lat="49.82322" lon="2.53414">
        <ele>47.8</ele>
        <time>2023-07-02T10:55:47Z</time>
      </trkpt>
      <trkpt lat="49.82321" lon="2.53414">
        <ele>47.8</ele>
        <time>2023-07-02T10:55:48Z</time>
      </trkpt>
      <trkpt lat="49.82319" lon="2.53413">
        <ele>47.8</ele>
        <time>2023-07-02T10:55:50Z</time>
      </trkpt>
      <trkpt lat="49.82318" lon="2.53412">
        <ele>47.8</ele>
        <time>2023-07-02T10:55:51Z</time>
      </trkpt>
      <trkpt lat="49.82317" lon="2.53411">
        <ele>47.8</ele>
        <time>2023-07-02T10:55:52Z</time>
      </trkpt>
      <trkpt lat="49.82316" lon="2.5341">
        <ele>47.8</ele>
        <time>2023-07-02T10:55:53Z</time>
      </trkpt>
      <trkpt lat="49.82314" lon="2.53409">
        <ele>47.8</ele>
        <time>2023-07-02T10:55:54Z</time>
      </trkpt>
      <trkpt lat="49.82313" lon="2.53409">
        <ele>47.8</ele>
        <time>2023-07-02T10:55:55Z</time>
      </trkpt>
      <trkpt lat="49.82313" lon="2.53408">
        <ele>47.8</ele>
        <time>2023-07-02T10:55:56Z</time>
      </trkpt>
      <trkpt lat="49.82312" lon="2.53407">
        <ele>47.8</ele>
        <time>2023-07-02T10:55:57Z</time>
      </trkpt>
      <trkpt lat="49.82311" lon="2.53407">
        <ele>47.8</ele>
        <time>2023-07-02T10:55:58Z</time>
      </trkpt>
      <trkpt lat="49.8231" lon="2.53406">
        <ele>47.7</ele>
        <time>2023-07-02T10:56:00Z</time>
      </trkpt>
      <trkpt lat="49.82309" lon="2.53405">
        <ele>47.8</ele>
        <time>2023-07-02T10:56:01Z</time>
      </trkpt>
      <trkpt lat="49.82308" lon="2.53404">
        <ele>47.7</ele>
        <time>2023-07-02T10:56:02Z</time>
      </trkpt>
      <trkpt lat="49.82307" lon="2.53403">
        <ele>47.7</ele>
        <time>2023-07-02T10:56:03Z</time>
      </trkpt>
      <trkpt lat="49.82306" lon="2.53402">
        <ele>47.7</ele>
        <time>2023-07-02T10:56:04Z</time>
      </trkpt>
      <trkpt lat="49.82306" lon="2.53401">
        <ele>47.7</ele>
        <time>2023-07-02T10:56:05Z</time>
      </trkpt>
      <trkpt lat="49.82305" lon="2.534">
        <ele>47.7</ele>
        <time>2023-07-02T10:56:06Z</time>
      </trkpt>
      <trkpt lat="49.82304" lon="2.53399">
        <ele>47.6</ele>
        <time>2023-07-02T10:56:07Z</time>
      </trkpt>
      <trkpt lat="49.82303" lon="2.53398">
        <ele>47.6</ele>
        <time>2023-07-02T10:56:09Z</time>
      </trkpt>
      <trkpt lat="49.82302" lon="2.53397">
        <ele>47.6</ele>
        <time>2023-07-02T10:56:10Z</time>
      </trkpt>
      <trkpt lat="49.82301" lon="2.53395">
        <ele>47.5</ele>
        <time>2023-07-02T10:56:11Z</time>
      </trkpt>
      <trkpt lat="49.82301" lon="2.53394">
        <ele>47.5</ele>
        <time>2023-07-02T10:56:12Z</time>
      </trkpt>
      <trkpt lat="49.823" lon="2.53393">
        <ele>47.4</ele>
        <time>2023-07-02T10:56:13Z</time>
      </trkpt>
      <trkpt lat="49.82298" lon="2.53393">
        <ele>47.4</ele>
        <time>2023-07-02T10:56:14Z</time>
      </trkpt>
      <trkpt lat="49.82298" lon="2.53392">
        <ele>47.4</ele>
        <time>2023-07-02T10:56:15Z</time>
      </trkpt>
      <trkpt lat="49.82297" lon="2.53391">
        <ele>47.4</ele>
        <time>2023-07-02T10:56:17Z</time>
      </trkpt>
      <trkpt lat="49.82296" lon="2.53391">
        <ele>47.3</ele>
        <time>2023-07-02T10:56:18Z</time>
      </trkpt>
      <trkpt lat="49.82295" lon="2.5339">
        <ele>47.3</ele>
        <time>2023-07-02T10:56:19Z</time>
      </trkpt>
      <trkpt lat="49.82294" lon="2.53389">
        <ele>47.2</ele>
        <time>2023-07-02T10:56:20Z</time>
      </trkpt>
      <trkpt lat="49.82293" lon="2.53389">
        <ele>47.1</ele>
        <time>2023-07-02T10:56:21Z</time>
      </trkpt>
      <trkpt lat="49.82291" lon="2.53388">
        <ele>47.1</ele>
        <time>2023-07-02T10:56:22Z</time>
      </trkpt>
      <trkpt lat="49.82291" lon="2.53388">
        <ele>47.1</ele>
        <time>2023-07-02T10:56:23Z</time>
      </trkpt>
      <trkpt lat="49.8229" lon="2.53388">
        <ele>47.1</ele>
        <time>2023-07-02T10:56:24Z</time>
      </trkpt>
      <trkpt lat="49.82289" lon="2.53387">
        <ele>47</ele>
        <time>2023-07-02T10:56:26Z</time>
      </trkpt>
      <trkpt lat="49.82288" lon="2.53387">
        <ele>47</ele>
        <time>2023-07-02T10:56:27Z</time>
      </trkpt>
      <trkpt lat="49.82287" lon="2.53387">
        <ele>46.9</ele>
        <time>2023-07-02T10:56:28Z</time>
      </trkpt>
      <trkpt lat="49.82286" lon="2.53387">
        <ele>46.9</ele>
        <time>2023-07-02T10:56:29Z</time>
      </trkpt>
      <trkpt lat="49.82285" lon="2.53387">
        <ele>46.9</ele>
        <time>2023-07-02T10:56:30Z</time>
      </trkpt>
      <trkpt lat="49.82284" lon="2.53387">
        <ele>46.8</ele>
        <time>2023-07-02T10:56:31Z</time>
      </trkpt>
      <trkpt lat="49.82283" lon="2.53387">
        <ele>46.8</ele>
        <time>2023-07-02T10:56:32Z</time>
      </trkpt>
      <trkpt lat="49.82282" lon="2.53387">
        <ele>46.8</ele>
        <time>2023-07-02T10:56:33Z</time>
      </trkpt>
      <trkpt lat="49.82282" lon="2.53387">
        <ele>46.8</ele>
        <time>2023-07-02T10:56:35Z</time>
      </trkpt>
      <trkpt lat="49.82281" lon="2.53387">
        <ele>46.7</ele>
        <time>2023-07-02T10:56:36Z</time>
      </trkpt>
      <trkpt lat="49.8228" lon="2.53386">
        <ele>46.7</ele>
        <time>2023-07-02T10:56:37Z</time>
      </trkpt>
      <trkpt lat="49.82279" lon="2.53386">
        <ele>46.7</ele>
        <time>2023-07-02T10:56:38Z</time>
      </trkpt>
      <trkpt lat="49.82278" lon="2.53385">
        <ele>46.6</ele>
        <time>2023-07-02T10:56:39Z</time>
      </trkpt>
      <trkpt lat="49.82277" lon="2.53385">
        <ele>46.5</ele>
        <time>2023-07-02T10:56:40Z</time>
      </trkpt>
      <trkpt lat="49.82276" lon="2.53384">
        <ele>46.4</ele>
        <time>2023-07-02T10:56:41Z</time>
      </trkpt>
      <trkpt lat="49.82275" lon="2.53384">
        <ele>46.4</ele>
        <time>2023-07-02T10:56:43Z</time>
      </trkpt>
      <trkpt lat="49.82274" lon="2.53383">
        <ele>46.4</ele>
        <time>2023-07-02T10:56:44Z</time>
      </trkpt>
      <trkpt lat="49.82273" lon="2.53382">
        <ele>46.3</ele>
        <time>2023-07-02T10:56:45Z</time>
      </trkpt>
      <trkpt lat="49.82272" lon="2.53381">
        <ele>46.3</ele>
        <time>2023-07-02T10:56:46Z</time>
      </trkpt>
      <trkpt lat="49.82271" lon="2.53381">
        <ele>46.2</ele>
        <time>2023-07-02T10:56:47Z</time>
      </trkpt>
      <trkpt lat="49.82271" lon="2.53381">
        <ele>46.1</ele>
        <time>2023-07-02T10:56:48Z</time>
      </trkpt>
      <trkpt lat="49.8227" lon="2.53381">
        <ele>46.1</ele>
        <time>2023-07-02T10:56:49Z</time>
      </trkpt>
      <trkpt lat="49.82268" lon="2.53381">
        <ele>46.1</ele>
        <time>2023-07-02T10:56:51Z</time>
      </trkpt>
      <trkpt lat="49.82267" lon="2.53381">
        <ele>46.1</ele>
        <time>2023-07-02T10:56:53Z</time>
      </trkpt>
      <trkpt lat="49.82267" lon="2.53382">
        <ele>46</ele>
        <time>2023-07-02T10:56:54Z</time>
      </trkpt>
      <trkpt lat="49.82266" lon="2.53382">
        <ele>46</ele>
        <time>2023-07-02T10:56:56Z</time>
      </trkpt>
      <trkpt lat="49.82266" lon="2.53383">
        <ele>46</ele>
        <time>2023-07-02T10:56:57Z</time>
      </trkpt>
      <trkpt lat="49.82266" lon="2.53383">
        <ele>46</ele>
        <time>2023-07-02T10:56:59Z</time>
      </trkpt>
      <trkpt lat="49.82266" lon="2.53383">
        <ele>45.9</ele>
        <time>2023-07-02T10:57:00Z</time>
      </trkpt>
      <trkpt lat="49.82266" lon="2.53383">
        <ele>45.9</ele>
        <time>2023-07-02T10:57:01Z</time>
      </trkpt>
      <trkpt lat="49.82266" lon="2.53383">
        <ele>45.9</ele>
        <time>2023-07-02T10:57:03Z</time>
      </trkpt>
      <trkpt lat="49.82266" lon="2.53383">
        <ele>45.9</ele>
        <time>2023-07-02T10:57:04Z</time>
      </trkpt>
      <trkpt lat="49.82266" lon="2.53383">
        <ele>45.8</ele>
        <time>2023-07-02T10:57:06Z</time>
      </trkpt>
      <trkpt lat="49.82266" lon="2.53383">
        <ele>45.8</ele>
        <time>2023-07-02T10:57:07Z</time>
      </trkpt>
      <trkpt lat="49.82266" lon="2.53383">
        <ele>45.8</ele>
        <time>2023-07-02T10:57:09Z</time>
      </trkpt>
      <trkpt lat="49.82266" lon="2.53383">
        <ele>45.8</ele>
        <time>2023-07-02T10:57:10Z</time>
      </trkpt>
      <trkpt lat="49.82266" lon="2.53383">
        <ele>45.7</ele>
        <time>2023-07-02T10:57:11Z</time>
      </trkpt>
      <trkpt lat="49.82266" lon="2.53383">
        <ele>45.7</ele>
        <time>2023-07-02T10:57:12Z</time>
      </trkpt>
      <trkpt lat="49.82266" lon="2.53383">
        <ele>45.7</ele>
        <time>2023-07-02T10:57:13Z</time>
      </trkpt>
      <trkpt lat="49.82266" lon="2.53383">
        <ele>45.7</ele>
        <time>2023-07-02T10:57:14Z</time>
      </trkpt>
      <trkpt lat="49.82266" lon="2.53383">
        <ele>45.6</ele>
        <time>2023-07-02T10:57:15Z</time>
      </trkpt>
      <trkpt lat="49.82266" lon="2.53383">
        <ele>45.6</ele>
        <time>2023-07-02T10:57:16Z</time>
      </trkpt>
      <trkpt lat="49.82266" lon="2.53383">
        <ele>45.6</ele>
        <time>2023-07-02T10:57:17Z</time>
      </trkpt>
      <trkpt lat="49.82266" lon="2.53383">
        <ele>45.6</ele>
        <time>2023-07-02T10:57:18Z</time>
      </trkpt>
      <trkpt lat="49.82266" lon="2.53383">
        <ele>45.5</ele>
        <time>2023-07-02T10:57:19Z</time>
      </trkpt>
      <trkpt lat="49.82266" lon="2.53382">
        <ele>45.5</ele>
        <time>2023-07-02T10:57:20Z</time>
      </trkpt>
      <trkpt lat="49.82265" lon="2.53382">
        <ele>45.5</ele>
        <time>2023-07-02T10:57:22Z</time>
      </trkpt>
      <trkpt lat="49.82265" lon="2.53381">
        <ele>45.4</ele>
        <time>2023-07-02T10:57:23Z</time>
      </trkpt>
      <trkpt lat="49.82264" lon="2.53381">
        <ele>45.3</ele>
        <time>2023-07-02T10:57:24Z</time>
      </trkpt>
      <trkpt lat="49.82263" lon="2.5338">
        <ele>45.3</ele>
        <time>2023-07-02T10:57:25Z</time>
      </trkpt>
      <trkpt lat="49.82262" lon="2.53379">
        <ele>45.3</ele>
        <time>2023-07-02T10:57:26Z</time>
      </trkpt>
      <trkpt lat="49.82261" lon="2.53378">
        <ele>45.2</ele>
        <time>2023-07-02T10:57:27Z</time>
      </trkpt>
      <trkpt lat="49.82259" lon="2.53376">
        <ele>45.1</ele>
        <time>2023-07-02T10:57:28Z</time>
      </trkpt>
      <trkpt lat="49.82259" lon="2.53375">
        <ele>45</ele>
        <time>2023-07-02T10:57:30Z</time>
      </trkpt>
      <trkpt lat="49.82258" lon="2.53375">
        <ele>45</ele>
        <time>2023-07-02T10:57:31Z</time>
      </trkpt>
      <trkpt lat="49.82257" lon="2.53374">
        <ele>45</ele>
        <time>2023-07-02T10:57:32Z</time>
      </trkpt>
      <trkpt lat="49.82256" lon="2.53373">
        <ele>45</ele>
        <time>2023-07-02T10:57:33Z</time>
      </trkpt>
      <trkpt lat="49.82255" lon="2.53371">
        <ele>45</ele>
        <time>2023-07-02T10:57:34Z</time>
      </trkpt>
      <trkpt lat="49.82254" lon="2.53369">
        <ele>45</ele>
        <time>2023-07-02T10:57:36Z</time>
      </trkpt>
      <trkpt lat="49.82253" lon="2.53367">
        <ele>45</ele>
        <time>2023-07-02T10:57:37Z</time>
      </trkpt>
      <trkpt lat="49.82253" lon="2.53366">
        <ele>45</ele>
        <time>2023-07-02T10:57:39Z</time>
      </trkpt>
      <trkpt lat="49.82254" lon="2.53366">
        <ele>45</ele>
        <time>2023-07-02T10:57:40Z</time>
      </trkpt>
      <trkpt lat="49.82254" lon="2.53366">
        <ele>45</ele>
        <time>2023-07-02T10:57:41Z</time>
      </trkpt>
      <trkpt lat="49.82255" lon="2.53366">
        <ele>45</ele>
        <time>2023-07-02T10:57:43Z</time>
      </trkpt>
      <trkpt lat="49.82255" lon="2.53366">
        <ele>45</ele>
        <time>2023-07-02T10:57:44Z</time>
      </trkpt>
      <trkpt lat="49.82255" lon="2.53366">
        <ele>45</ele>
        <time>2023-07-02T10:57:46Z</time>
      </trkpt>
      <trkpt lat="49.82255" lon="2.53366">
        <ele>45</ele>
        <time>2023-07-02T10:57:47Z</time>
      </trkpt>
      <trkpt lat="49.82255" lon="2.53366">
        <ele>45</ele>
        <time>2023-07-02T10:57:49Z</time>
      </trkpt>
      <trkpt lat="49.82255" lon="2.53366">
        <ele>45</ele>
        <time>2023-07-02T10:57:50Z</time>
      </trkpt>
      <trkpt lat="49.82255" lon="2.53366">
        <ele>45</ele>
        <time>2023-07-02T10:57:52Z</time>
      </trkpt>
      <trkpt lat="49.82255" lon="2.53366">
        <ele>45</ele>
        <time>2023-07-02T10:57:53Z</time>
      </trkpt>
      <trkpt lat="49.82255" lon="2.53367">
        <ele>45</ele>
        <time>2023-07-02T10:57:54Z</time>
      </trkpt>
      <trkpt lat="49.82256" lon="2.53367">
        <ele>45</ele>
        <time>2023-07-02T10:57:55Z</time>
      </trkpt>
      <trkpt lat="49.82256" lon="2.53367">
        <ele>45</ele>
        <time>2023-07-02T10:57:56Z</time>
      </trkpt>
      <trkpt lat="49.82256" lon="2.53367">
        <ele>45</ele>
        <time>2023-07-02T10:57:57Z</time>
      </trkpt>
      <trkpt lat="49.82256" lon="2.53367">
        <ele>45</ele>
        <time>2023-07-02T10:57:58Z</time>
      </trkpt>
      <trkpt lat="49.82256" lon="2.53367">
        <ele>45</ele>
        <time>2023-07-02T10:57:59Z</time>
      </trkpt>
      <trkpt lat="49.82256" lon="2.53367">
        <ele>45</ele>
        <time>2023-07-02T10:58:00Z</time>
      </trkpt>
      <trkpt lat="49.82256" lon="2.53367">
        <ele>45</ele>
        <time>2023-07-02T10:58:01Z</time>
      </trkpt>
      <trkpt lat="49.82256" lon="2.53367">
        <ele>45</ele>
        <time>2023-07-02T10:58:02Z</time>
      </trkpt>
      <trkpt lat="49.82256" lon="2.53367">
        <ele>45</ele>
        <time>2023-07-02T10:58:03Z</time>
      </trkpt>
      <trkpt lat="49.82256" lon="2.53367">
        <ele>45</ele>
        <time>2023-07-02T10:58:04Z</time>
      </trkpt>
      <trkpt lat="49.82256" lon="2.53367">
        <ele>45</ele>
        <time>2023-07-02T10:58:05Z</time>
      </trkpt>
      <trkpt lat="49.82256" lon="2.53367">
        <ele>45</ele>
        <time>2023-07-02T10:58:06Z</time>
      </trkpt>
      <trkpt lat="49.82256" lon="2.53367">
        <ele>45</ele>
        <time>2023-07-02T10:58:07Z</time>
      </trkpt>
      <trkpt lat="49.82256" lon="2.53367">
        <ele>45</ele>
        <time>2023-07-02T10:58:08Z</time>
      </trkpt>
      <trkpt lat="49.82256" lon="2.53367">
        <ele>45</ele>
        <time>2023-07-02T10:58:09Z</time>
      </trkpt>
      <trkpt lat="49.82256" lon="2.53367">
        <ele>45</ele>
        <time>2023-07-02T10:58:10Z</time>
      </trkpt>
      <trkpt lat="49.82254" lon="2.53365">
        <ele>45</ele>
        <time>2023-07-02T10:58:11Z</time>
      </trkpt>
      <trkpt lat="49.82253" lon="2.53363">
        <ele>45</ele>
        <time>2023-07-02T10:58:12Z</time>
      </trkpt>
      <trkpt lat="49.82253" lon="2.53363">
        <ele>45</ele>
        <time>2023-07-02T10:58:13Z</time>
      </trkpt>
      <trkpt lat="49.82253" lon="2.53363">
        <ele>45</ele>
        <time>2023-07-02T10:58:14Z</time>
      </trkpt>
      <trkpt lat="49.82253" lon="2.53363">
        <ele>45</ele>
        <time>2023-07-02T10:58:15Z</time>
      </trkpt>
      <trkpt lat="49.82253" lon="2.53363">
        <ele>45</ele>
        <time>2023-07-02T10:58:16Z</time>
      </trkpt>
      <trkpt lat="49.82253" lon="2.53363">
        <ele>45</ele>
        <time>2023-07-02T10:58:18Z</time>
      </trkpt>
      <trkpt lat="49.82253" lon="2.53363">
        <ele>45</ele>
        <time>2023-07-02T10:58:19Z</time>
      </trkpt>
      <trkpt lat="49.82253" lon="2.53362">
        <ele>45</ele>
        <time>2023-07-02T10:58:20Z</time>
      </trkpt>
      <trkpt lat="49.82252" lon="2.53361">
        <ele>45</ele>
        <time>2023-07-02T10:58:21Z</time>
      </trkpt>
      <trkpt lat="49.82252" lon="2.53359">
        <ele>45</ele>
        <time>2023-07-02T10:58:22Z</time>
      </trkpt>
      <trkpt lat="49.8225" lon="2.53356">
        <ele>45</ele>
        <time>2023-07-02T10:58:24Z</time>
      </trkpt>
      <trkpt lat="49.82249" lon="2.53355">
        <ele>45</ele>
        <time>2023-07-02T10:58:25Z</time>
      </trkpt>
      <trkpt lat="49.82247" lon="2.53354">
        <ele>45</ele>
        <time>2023-07-02T10:58:26Z</time>
      </trkpt>
      <trkpt lat="49.82246" lon="2.53352">
        <ele>45</ele>
        <time>2023-07-02T10:58:27Z</time>
      </trkpt>
      <trkpt lat="49.82244" lon="2.53351">
        <ele>45</ele>
        <time>2023-07-02T10:58:28Z</time>
      </trkpt>
      <trkpt lat="49.82243" lon="2.5335">
        <ele>45</ele>
        <time>2023-07-02T10:58:29Z</time>
      </trkpt>
      <trkpt lat="49.82241" lon="2.53348">
        <ele>45</ele>
        <time>2023-07-02T10:58:30Z</time>
      </trkpt>
      <trkpt lat="49.82239" lon="2.53347">
        <ele>45</ele>
        <time>2023-07-02T10:58:32Z</time>
      </trkpt>
      <trkpt lat="49.82238" lon="2.53346">
        <ele>45</ele>
        <time>2023-07-02T10:58:33Z</time>
      </trkpt>
      <trkpt lat="49.82237" lon="2.53344">
        <ele>45</ele>
        <time>2023-07-02T10:58:34Z</time>
      </trkpt>
      <trkpt lat="49.82234" lon="2.53341">
        <ele>45</ele>
        <time>2023-07-02T10:58:35Z</time>
      </trkpt>
      <trkpt lat="49.82233" lon="2.5334">
        <ele>45</ele>
        <time>2023-07-02T10:58:36Z</time>
      </trkpt>
      <trkpt lat="49.82232" lon="2.53338">
        <ele>45</ele>
        <time>2023-07-02T10:58:37Z</time>
      </trkpt>
      <trkpt lat="49.82231" lon="2.53338">
        <ele>45</ele>
        <time>2023-07-02T10:58:38Z</time>
      </trkpt>
      <trkpt lat="49.82229" lon="2.53337">
        <ele>45</ele>
        <time>2023-07-02T10:58:40Z</time>
      </trkpt>
      <trkpt lat="49.82228" lon="2.53336">
        <ele>45</ele>
        <time>2023-07-02T10:58:41Z</time>
      </trkpt>
      <trkpt lat="49.82226" lon="2.53335">
        <ele>45</ele>
        <time>2023-07-02T10:58:42Z</time>
      </trkpt>
      <trkpt lat="49.82225" lon="2.53334">
        <ele>45</ele>
        <time>2023-07-02T10:58:43Z</time>
      </trkpt>
      <trkpt lat="49.82224" lon="2.53332">
        <ele>45</ele>
        <time>2023-07-02T10:58:44Z</time>
      </trkpt>
      <trkpt lat="49.82223" lon="2.53331">
        <ele>45</ele>
        <time>2023-07-02T10:58:45Z</time>
      </trkpt>
      <trkpt lat="49.8222" lon="2.53328">
        <ele>45</ele>
        <time>2023-07-02T10:58:46Z</time>
      </trkpt>
      <trkpt lat="49.82219" lon="2.53327">
        <ele>45</ele>
        <time>2023-07-02T10:58:47Z</time>
      </trkpt>
      <trkpt lat="49.82217" lon="2.53325">
        <ele>45</ele>
        <time>2023-07-02T10:58:48Z</time>
      </trkpt>
      <trkpt lat="49.82216" lon="2.53324">
        <ele>45</ele>
        <time>2023-07-02T10:58:50Z</time>
      </trkpt>
      <trkpt lat="49.82215" lon="2.53322">
        <ele>45</ele>
        <time>2023-07-02T10:58:51Z</time>
      </trkpt>
      <trkpt lat="49.82214" lon="2.53321">
        <ele>45</ele>
        <time>2023-07-02T10:58:52Z</time>
      </trkpt>
      <trkpt lat="49.82212" lon="2.5332">
        <ele>45</ele>
        <time>2023-07-02T10:58:53Z</time>
      </trkpt>
      <trkpt lat="49.82211" lon="2.53318">
        <ele>45</ele>
        <time>2023-07-02T10:58:54Z</time>
      </trkpt>
      <trkpt lat="49.8221" lon="2.53317">
        <ele>45</ele>
        <time>2023-07-02T10:58:55Z</time>
      </trkpt>
      <trkpt lat="49.82208" lon="2.53316">
        <ele>45</ele>
        <time>2023-07-02T10:58:56Z</time>
      </trkpt>
      <trkpt lat="49.82207" lon="2.53315">
        <ele>45</ele>
        <time>2023-07-02T10:58:58Z</time>
      </trkpt>
      <trkpt lat="49.82206" lon="2.53314">
        <ele>45</ele>
        <time>2023-07-02T10:58:59Z</time>
      </trkpt>
      <trkpt lat="49.82205" lon="2.53313">
        <ele>45</ele>
        <time>2023-07-02T10:59:00Z</time>
      </trkpt>
      <trkpt lat="49.82204" lon="2.53312">
        <ele>45</ele>
        <time>2023-07-02T10:59:01Z</time>
      </trkpt>
      <trkpt lat="49.82203" lon="2.53311">
        <ele>45</ele>
        <time>2023-07-02T10:59:02Z</time>
      </trkpt>
      <trkpt lat="49.82202" lon="2.53311">
        <ele>45</ele>
        <time>2023-07-02T10:59:03Z</time>
      </trkpt>
      <trkpt lat="49.82201" lon="2.5331">
        <ele>45</ele>
        <time>2023-07-02T10:59:04Z</time>
      </trkpt>
      <trkpt lat="49.822" lon="2.53309">
        <ele>45</ele>
        <time>2023-07-02T10:59:05Z</time>
      </trkpt>
      <trkpt lat="49.82199" lon="2.53309">
        <ele>45</ele>
        <time>2023-07-02T10:59:07Z</time>
      </trkpt>
      <trkpt lat="49.82198" lon="2.53308">
        <ele>45</ele>
        <time>2023-07-02T10:59:08Z</time>
      </trkpt>
      <trkpt lat="49.82197" lon="2.53308">
        <ele>45</ele>
        <time>2023-07-02T10:59:09Z</time>
      </trkpt>
      <trkpt lat="49.82196" lon="2.53307">
        <ele>45</ele>
        <time>2023-07-02T10:59:10Z</time>
      </trkpt>
      <trkpt lat="49.82195" lon="2.53307">
        <ele>45</ele>
        <time>2023-07-02T10:59:11Z</time>
      </trkpt>
      <trkpt lat="49.82194" lon="2.53306">
        <ele>45</ele>
        <time>2023-07-02T10:59:12Z</time>
      </trkpt>
      <trkpt lat="49.82193" lon="2.53305">
        <ele>45</ele>
        <time>2023-07-02T10:59:13Z</time>
      </trkpt>
      <trkpt lat="49.82192" lon="2.53305">
        <ele>45</ele>
        <time>2023-07-02T10:59:15Z</time>
      </trkpt>
      <trkpt lat="49.82191" lon="2.53304">
        <ele>45</ele>
        <time>2023-07-02T10:59:16Z</time>
      </trkpt>
      <trkpt lat="49.8219" lon="2.53303">
        <ele>45</ele>
        <time>2023-07-02T10:59:17Z</time>
      </trkpt>
      <trkpt lat="49.82189" lon="2.53302">
        <ele>45</ele>
        <time>2023-07-02T10:59:18Z</time>
      </trkpt>
      <trkpt lat="49.82188" lon="2.53301">
        <ele>45</ele>
        <time>2023-07-02T10:59:19Z</time>
      </trkpt>
      <trkpt lat="49.82188" lon="2.53299">
        <ele>45</ele>
        <time>2023-07-02T10:59:20Z</time>
      </trkpt>
      <trkpt lat="49.82187" lon="2.53298">
        <ele>45</ele>
        <time>2023-07-02T10:59:21Z</time>
      </trkpt>
      <trkpt lat="49.82186" lon="2.53297">
        <ele>45</ele>
        <time>2023-07-02T10:59:22Z</time>
      </trkpt>
      <trkpt lat="49.82184" lon="2.53296">
        <ele>45</ele>
        <time>2023-07-02T10:59:24Z</time>
      </trkpt>
      <trkpt lat="49.82183" lon="2.53295">
        <ele>45</ele>
        <time>2023-07-02T10:59:25Z</time>
      </trkpt>
      <trkpt lat="49.82182" lon="2.53294">
        <ele>45</ele>
        <time>2023-07-02T10:59:26Z</time>
      </trkpt>
      <trkpt lat="49.82181" lon="2.53293">
        <ele>45</ele>
        <time>2023-07-02T10:59:27Z</time>
      </trkpt>
      <trkpt lat="49.8218" lon="2.53292">
        <ele>45</ele>
        <time>2023-07-02T10:59:28Z</time>
      </trkpt>
      <trkpt lat="49.82179" lon="2.53289">
        <ele>45</ele>
        <time>2023-07-02T10:59:29Z</time>
      </trkpt>
      <trkpt lat="49.82178" lon="2.53288">
        <ele>45</ele>
        <time>2023-07-02T10:59:30Z</time>
      </trkpt>
      <trkpt lat="49.82178" lon="2.53287">
        <ele>45</ele>
        <time>2023-07-02T10:59:31Z</time>
      </trkpt>
      <trkpt lat="49.82177" lon="2.53286">
        <ele>45</ele>
        <time>2023-07-02T10:59:32Z</time>
      </trkpt>
      <trkpt lat="49.82176" lon="2.53284">
        <ele>45</ele>
        <time>2023-07-02T10:59:34Z</time>
      </trkpt>
      <trkpt lat="49.82175" lon="2.53283">
        <ele>45</ele>
        <time>2023-07-02T10:59:35Z</time>
      </trkpt>
      <trkpt lat="49.82174" lon="2.53282">
        <ele>45</ele>
        <time>2023-07-02T10:59:36Z</time>
      </trkpt>
      <trkpt lat="49.82173" lon="2.53281">
        <ele>45</ele>
        <time>2023-07-02T10:59:37Z</time>
      </trkpt>
      <trkpt lat="49.82173" lon="2.53279">
        <ele>45</ele>
        <time>2023-07-02T10:59:38Z</time>
      </trkpt>
      <trkpt lat="49.82172" lon="2.53278">
        <ele>45</ele>
        <time>2023-07-02T10:59:39Z</time>
      </trkpt>
      <trkpt lat="49.82171" lon="2.53277">
        <ele>45</ele>
        <time>2023-07-02T10:59:40Z</time>
      </trkpt>
      <trkpt lat="49.8217" lon="2.53276">
        <ele>45</ele>
        <time>2023-07-02T10:59:41Z</time>
      </trkpt>
      <trkpt lat="49.82169" lon="2.53275">
        <ele>45</ele>
        <time>2023-07-02T10:59:43Z</time>
      </trkpt>
      <trkpt lat="49.82168" lon="2.53274">
        <ele>45</ele>
        <time>2023-07-02T10:59:44Z</time>
      </trkpt>
      <trkpt lat="49.82166" lon="2.53272">
        <ele>45</ele>
        <time>2023-07-02T10:59:45Z</time>
      </trkpt>
      <trkpt lat="49.82166" lon="2.53271">
        <ele>45</ele>
        <time>2023-07-02T10:59:46Z</time>
      </trkpt>
      <trkpt lat="49.82165" lon="2.5327">
        <ele>45</ele>
        <time>2023-07-02T10:59:47Z</time>
      </trkpt>
      <trkpt lat="49.82164" lon="2.53269">
        <ele>45</ele>
        <time>2023-07-02T10:59:48Z</time>
      </trkpt>
      <trkpt lat="49.82163" lon="2.53268">
        <ele>45</ele>
        <time>2023-07-02T10:59:49Z</time>
      </trkpt>
      <trkpt lat="49.82162" lon="2.53267">
        <ele>45</ele>
        <time>2023-07-02T10:59:51Z</time>
      </trkpt>
      <trkpt lat="49.8216" lon="2.53265">
        <ele>45</ele>
        <time>2023-07-02T10:59:52Z</time>
      </trkpt>
      <trkpt lat="49.82159" lon="2.53265">
        <ele>45</ele>
        <time>2023-07-02T10:59:53Z</time>
      </trkpt>
      <trkpt lat="49.82158" lon="2.53264">
        <ele>45</ele>
        <time>2023-07-02T10:59:54Z</time>
      </trkpt>
      <trkpt lat="49.82157" lon="2.53263">
        <ele>45</ele>
        <time>2023-07-02T10:59:55Z</time>
      </trkpt>
      <trkpt lat="49.82156" lon="2.53262">
        <ele>45</ele>
        <time>2023-07-02T10:59:56Z</time>
      </trkpt>
      <trkpt lat="49.82155" lon="2.53261">
        <ele>45</ele>
        <time>2023-07-02T10:59:57Z</time>
      </trkpt>
      <trkpt lat="49.82154" lon="2.53259">
        <ele>45</ele>
        <time>2023-07-02T10:59:58Z</time>
      </trkpt>
      <trkpt lat="49.82152" lon="2.53258">
        <ele>45</ele>
        <time>2023-07-02T11:00:00Z</time>
      </trkpt>
      <trkpt lat="49.82151" lon="2.53257">
        <ele>45</ele>
        <time>2023-07-02T11:00:01Z</time>
      </trkpt>
      <trkpt lat="49.8215" lon="2.53255">
        <ele>45</ele>
        <time>2023-07-02T11:00:02Z</time>
      </trkpt>
      <trkpt lat="49.82149" lon="2.53254">
        <ele>45</ele>
        <time>2023-07-02T11:00:03Z</time>
      </trkpt>
      <trkpt lat="49.82148" lon="2.53253">
        <ele>45</ele>
        <time>2023-07-02T11:00:04Z</time>
      </trkpt>
      <trkpt lat="49.82147" lon="2.53251">
        <ele>45</ele>
        <time>2023-07-02T11:00:05Z</time>
      </trkpt>
      <trkpt lat="49.82146" lon="2.5325">
        <ele>45</ele>
        <time>2023-07-02T11:00:06Z</time>
      </trkpt>
      <trkpt lat="49.82144" lon="2.53248">
        <ele>45</ele>
        <time>2023-07-02T11:00:08Z</time>
      </trkpt>
      <trkpt lat="49.82143" lon="2.53247">
        <ele>45</ele>
        <time>2023-07-02T11:00:09Z</time>
      </trkpt>
      <trkpt lat="49.82142" lon="2.53246">
        <ele>45</ele>
        <time>2023-07-02T11:00:10Z</time>
      </trkpt>
      <trkpt lat="49.82141" lon="2.53245">
        <ele>45</ele>
        <time>2023-07-02T11:00:11Z</time>
      </trkpt>
      <trkpt lat="49.8214" lon="2.53243">
        <ele>45</ele>
        <time>2023-07-02T11:00:12Z</time>
      </trkpt>
      <trkpt lat="49.82138" lon="2.53242">
        <ele>45</ele>
        <time>2023-07-02T11:00:13Z</time>
      </trkpt>
      <trkpt lat="49.82137" lon="2.53241">
        <ele>45</ele>
        <time>2023-07-02T11:00:14Z</time>
      </trkpt>
      <trkpt lat="49.82136" lon="2.53239">
        <ele>45</ele>
        <time>2023-07-02T11:00:16Z</time>
      </trkpt>
      <trkpt lat="49.82135" lon="2.53238">
        <ele>45</ele>
        <time>2023-07-02T11:00:17Z</time>
      </trkpt>
      <trkpt lat="49.82134" lon="2.53237">
        <ele>45</ele>
        <time>2023-07-02T11:00:18Z</time>
      </trkpt>
      <trkpt lat="49.82132" lon="2.53236">
        <ele>45</ele>
        <time>2023-07-02T11:00:19Z</time>
      </trkpt>
      <trkpt lat="49.82132" lon="2.53235">
        <ele>45</ele>
        <time>2023-07-02T11:00:20Z</time>
      </trkpt>
      <trkpt lat="49.82131" lon="2.53234">
        <ele>45</ele>
        <time>2023-07-02T11:00:21Z</time>
      </trkpt>
      <trkpt lat="49.8213" lon="2.53233">
        <ele>45</ele>
        <time>2023-07-02T11:00:23Z</time>
      </trkpt>
      <trkpt lat="49.82129" lon="2.53232">
        <ele>45</ele>
        <time>2023-07-02T11:00:24Z</time>
      </trkpt>
      <trkpt lat="49.82128" lon="2.53231">
        <ele>45</ele>
        <time>2023-07-02T11:00:25Z</time>
      </trkpt>
      <trkpt lat="49.82127" lon="2.5323">
        <ele>45</ele>
        <time>2023-07-02T11:00:26Z</time>
      </trkpt>
      <trkpt lat="49.82126" lon="2.53229">
        <ele>45</ele>
        <time>2023-07-02T11:00:27Z</time>
      </trkpt>
      <trkpt lat="49.82126" lon="2.53228">
        <ele>45</ele>
        <time>2023-07-02T11:00:28Z</time>
      </trkpt>
      <trkpt lat="49.82125" lon="2.53227">
        <ele>45</ele>
        <time>2023-07-02T11:00:30Z</time>
      </trkpt>
      <trkpt lat="49.82124" lon="2.53226">
        <ele>45</ele>
        <time>2023-07-02T11:00:31Z</time>
      </trkpt>
      <trkpt lat="49.82124" lon="2.53226">
        <ele>45</ele>
        <time>2023-07-02T11:00:32Z</time>
      </trkpt>
      <trkpt lat="49.82123" lon="2.53225">
        <ele>45</ele>
        <time>2023-07-02T11:00:33Z</time>
      </trkpt>
      <trkpt lat="49.82123" lon="2.53225">
        <ele>45</ele>
        <time>2023-07-02T11:00:34Z</time>
      </trkpt>
      <trkpt lat="49.82122" lon="2.53224">
        <ele>45</ele>
        <time>2023-07-02T11:00:35Z</time>
      </trkpt>
      <trkpt lat="49.82121" lon="2.53224">
        <ele>45</ele>
        <time>2023-07-02T11:00:37Z</time>
      </trkpt>
      <trkpt lat="49.82121" lon="2.53223">
        <ele>45</ele>
        <time>2023-07-02T11:00:38Z</time>
      </trkpt>
      <trkpt lat="49.8212" lon="2.53222">
        <ele>45</ele>
        <time>2023-07-02T11:00:39Z</time>
      </trkpt>
      <trkpt lat="49.8212" lon="2.53222">
        <ele>45</ele>
        <time>2023-07-02T11:00:40Z</time>
      </trkpt>
      <trkpt lat="49.82119" lon="2.53221">
        <ele>45</ele>
        <time>2023-07-02T11:00:41Z</time>
      </trkpt>
      <trkpt lat="49.82118" lon="2.53221">
        <ele>45</ele>
        <time>2023-07-02T11:00:42Z</time>
      </trkpt>
      <trkpt lat="49.82118" lon="2.53221">
        <ele>45</ele>
        <time>2023-07-02T11:00:43Z</time>
      </trkpt>
      <trkpt lat="49.82117" lon="2.5322">
        <ele>45</ele>
        <time>2023-07-02T11:00:45Z</time>
      </trkpt>
      <trkpt lat="49.82116" lon="2.5322">
        <ele>45</ele>
        <time>2023-07-02T11:00:46Z</time>
      </trkpt>
      <trkpt lat="49.82116" lon="2.53219">
        <ele>45</ele>
        <time>2023-07-02T11:00:47Z</time>
      </trkpt>
      <trkpt lat="49.82115" lon="2.53218">
        <ele>45</ele>
        <time>2023-07-02T11:00:48Z</time>
      </trkpt>
      <trkpt lat="49.82114" lon="2.53217">
        <ele>45</ele>
        <time>2023-07-02T11:00:49Z</time>
      </trkpt>
      <trkpt lat="49.82113" lon="2.53215">
        <ele>45</ele>
        <time>2023-07-02T11:00:50Z</time>
      </trkpt>
      <trkpt lat="49.82112" lon="2.53214">
        <ele>45</ele>
        <time>2023-07-02T11:00:51Z</time>
      </trkpt>
      <trkpt lat="49.82111" lon="2.53213">
        <ele>45</ele>
        <time>2023-07-02T11:00:52Z</time>
      </trkpt>
      <trkpt lat="49.8211" lon="2.53211">
        <ele>45</ele>
        <time>2023-07-02T11:00:54Z</time>
      </trkpt>
      <trkpt lat="49.82108" lon="2.53209">
        <ele>45</ele>
        <time>2023-07-02T11:00:55Z</time>
      </trkpt>
      <trkpt lat="49.82107" lon="2.53209">
        <ele>45</ele>
        <time>2023-07-02T11:00:56Z</time>
      </trkpt>
      <trkpt lat="49.82107" lon="2.53208">
        <ele>45</ele>
        <time>2023-07-02T11:00:57Z</time>
      </trkpt>
      <trkpt lat="49.82106" lon="2.53207">
        <ele>45</ele>
        <time>2023-07-02T11:00:58Z</time>
      </trkpt>
      <trkpt lat="49.82105" lon="2.53206">
        <ele>45</ele>
        <time>2023-07-02T11:00:59Z</time>
      </trkpt>
      <trkpt lat="49.82103" lon="2.53205">
        <ele>45</ele>
        <time>2023-07-02T11:01:01Z</time>
      </trkpt>
      <trkpt lat="49.82102" lon="2.53204">
        <ele>45</ele>
        <time>2023-07-02T11:01:02Z</time>
      </trkpt>
      <trkpt lat="49.82101" lon="2.53203">
        <ele>45</ele>
        <time>2023-07-02T11:01:03Z</time>
      </trkpt>
      <trkpt lat="49.821" lon="2.53203">
        <ele>45</ele>
        <time>2023-07-02T11:01:04Z</time>
      </trkpt>
      <trkpt lat="49.82099" lon="2.53202">
        <ele>45</ele>
        <time>2023-07-02T11:01:05Z</time>
      </trkpt>
      <trkpt lat="49.82098" lon="2.53201">
        <ele>45</ele>
        <time>2023-07-02T11:01:06Z</time>
      </trkpt>
      <trkpt lat="49.82097" lon="2.532">
        <ele>45</ele>
        <time>2023-07-02T11:01:07Z</time>
      </trkpt>
      <trkpt lat="49.82096" lon="2.532">
        <ele>45</ele>
        <time>2023-07-02T11:01:08Z</time>
      </trkpt>
      <trkpt lat="49.82095" lon="2.53199">
        <ele>45</ele>
        <time>2023-07-02T11:01:10Z</time>
      </trkpt>
      <trkpt lat="49.82094" lon="2.53199">
        <ele>45</ele>
        <time>2023-07-02T11:01:11Z</time>
      </trkpt>
      <trkpt lat="49.82093" lon="2.53199">
        <ele>45</ele>
        <time>2023-07-02T11:01:12Z</time>
      </trkpt>
      <trkpt lat="49.82092" lon="2.53198">
        <ele>45</ele>
        <time>2023-07-02T11:01:13Z</time>
      </trkpt>
      <trkpt lat="49.82091" lon="2.53197">
        <ele>45</ele>
        <time>2023-07-02T11:01:14Z</time>
      </trkpt>
      <trkpt lat="49.8209" lon="2.53196">
        <ele>45</ele>
        <time>2023-07-02T11:01:15Z</time>
      </trkpt>
      <trkpt lat="49.82089" lon="2.53195">
        <ele>45</ele>
        <time>2023-07-02T11:01:16Z</time>
      </trkpt>
      <trkpt lat="49.82088" lon="2.53194">
        <ele>45</ele>
        <time>2023-07-02T11:01:18Z</time>
      </trkpt>
      <trkpt lat="49.82087" lon="2.53194">
        <ele>45</ele>
        <time>2023-07-02T11:01:19Z</time>
      </trkpt>
      <trkpt lat="49.82086" lon="2.53193">
        <ele>45</ele>
        <time>2023-07-02T11:01:20Z</time>
      </trkpt>
      <trkpt lat="49.82085" lon="2.53192">
        <ele>45</ele>
        <time>2023-07-02T11:01:21Z</time>
      </trkpt>
      <trkpt lat="49.82084" lon="2.53191">
        <ele>45</ele>
        <time>2023-07-02T11:01:22Z</time>
      </trkpt>
      <trkpt lat="49.82082" lon="2.5319">
        <ele>45.1</ele>
        <time>2023-07-02T11:01:23Z</time>
      </trkpt>
      <trkpt lat="49.82081" lon="2.5319">
        <ele>45</ele>
        <time>2023-07-02T11:01:24Z</time>
      </trkpt>
      <trkpt lat="49.82079" lon="2.53188">
        <ele>45</ele>
        <time>2023-07-02T11:01:26Z</time>
      </trkpt>
      <trkpt lat="49.82078" lon="2.53187">
        <ele>45.1</ele>
        <time>2023-07-02T11:01:27Z</time>
      </trkpt>
      <trkpt lat="49.82077" lon="2.53186">
        <ele>45.1</ele>
        <time>2023-07-02T11:01:28Z</time>
      </trkpt>
      <trkpt lat="49.82076" lon="2.53185">
        <ele>45</ele>
        <time>2023-07-02T11:01:29Z</time>
      </trkpt>
      <trkpt lat="49.82074" lon="2.53184">
        <ele>45</ele>
        <time>2023-07-02T11:01:30Z</time>
      </trkpt>
      <trkpt lat="49.82073" lon="2.53183">
        <ele>45</ele>
        <time>2023-07-02T11:01:31Z</time>
      </trkpt>
      <trkpt lat="49.82071" lon="2.53182">
        <ele>45</ele>
        <time>2023-07-02T11:01:32Z</time>
      </trkpt>
      <trkpt lat="49.8207" lon="2.53181">
        <ele>45</ele>
        <time>2023-07-02T11:01:34Z</time>
      </trkpt>
      <trkpt lat="49.82068" lon="2.53179">
        <ele>45</ele>
        <time>2023-07-02T11:01:35Z</time>
      </trkpt>
      <trkpt lat="49.82067" lon="2.53178">
        <ele>45</ele>
        <time>2023-07-02T11:01:36Z</time>
      </trkpt>
      <trkpt lat="49.82066" lon="2.53177">
        <ele>45</ele>
        <time>2023-07-02T11:01:37Z</time>
      </trkpt>
      <trkpt lat="49.82064" lon="2.53176">
        <ele>45</ele>
        <time>2023-07-02T11:01:38Z</time>
      </trkpt>
      <trkpt lat="49.82063" lon="2.53174">
        <ele>45</ele>
        <time>2023-07-02T11:01:40Z</time>
      </trkpt>
      <trkpt lat="49.82062" lon="2.53173">
        <ele>45</ele>
        <time>2023-07-02T11:01:41Z</time>
      </trkpt>
      <trkpt lat="49.82061" lon="2.53172">
        <ele>45</ele>
        <time>2023-07-02T11:01:43Z</time>
      </trkpt>
      <trkpt lat="49.8206" lon="2.53171">
        <ele>45</ele>
        <time>2023-07-02T11:01:44Z</time>
      </trkpt>
      <trkpt lat="49.82059" lon="2.53171">
        <ele>44.9</ele>
        <time>2023-07-02T11:01:45Z</time>
      </trkpt>
      <trkpt lat="49.82058" lon="2.5317">
        <ele>45</ele>
        <time>2023-07-02T11:01:46Z</time>
      </trkpt>
      <trkpt lat="49.82057" lon="2.53169">
        <ele>44.9</ele>
        <time>2023-07-02T11:01:47Z</time>
      </trkpt>
      <trkpt lat="49.82055" lon="2.53168">
        <ele>44.9</ele>
        <time>2023-07-02T11:01:48Z</time>
      </trkpt>
      <trkpt lat="49.82054" lon="2.53168">
        <ele>44.9</ele>
        <time>2023-07-02T11:01:49Z</time>
      </trkpt>
      <trkpt lat="49.82054" lon="2.53167">
        <ele>44.9</ele>
        <time>2023-07-02T11:01:51Z</time>
      </trkpt>
      <trkpt lat="49.82053" lon="2.53167">
        <ele>44.9</ele>
        <time>2023-07-02T11:01:52Z</time>
      </trkpt>
      <trkpt lat="49.82052" lon="2.53166">
        <ele>44.9</ele>
        <time>2023-07-02T11:01:53Z</time>
      </trkpt>
      <trkpt lat="49.82051" lon="2.53165">
        <ele>44.8</ele>
        <time>2023-07-02T11:01:54Z</time>
      </trkpt>
      <trkpt lat="49.82051" lon="2.53165">
        <ele>44.8</ele>
        <time>2023-07-02T11:01:55Z</time>
      </trkpt>
      <trkpt lat="49.8205" lon="2.53165">
        <ele>44.8</ele>
        <time>2023-07-02T11:01:56Z</time>
      </trkpt>
      <trkpt lat="49.82049" lon="2.53164">
        <ele>44.8</ele>
        <time>2023-07-02T11:01:57Z</time>
      </trkpt>
      <trkpt lat="49.82047" lon="2.53163">
        <ele>44.8</ele>
        <time>2023-07-02T11:01:59Z</time>
      </trkpt>
      <trkpt lat="49.82046" lon="2.53163">
        <ele>44.8</ele>
        <time>2023-07-02T11:02:00Z</time>
      </trkpt>
      <trkpt lat="49.82045" lon="2.53163">
        <ele>44.7</ele>
        <time>2023-07-02T11:02:01Z</time>
      </trkpt>
      <trkpt lat="49.82044" lon="2.53163">
        <ele>44.7</ele>
        <time>2023-07-02T11:02:02Z</time>
      </trkpt>
      <trkpt lat="49.82043" lon="2.53162">
        <ele>44.6</ele>
        <time>2023-07-02T11:02:03Z</time>
      </trkpt>
      <trkpt lat="49.82042" lon="2.53162">
        <ele>44.6</ele>
        <time>2023-07-02T11:02:04Z</time>
      </trkpt>
      <trkpt lat="49.82041" lon="2.53161">
        <ele>44.6</ele>
        <time>2023-07-02T11:02:05Z</time>
      </trkpt>
      <trkpt lat="49.82039" lon="2.53159">
        <ele>44.5</ele>
        <time>2023-07-02T11:02:07Z</time>
      </trkpt>
      <trkpt lat="49.82038" lon="2.53159">
        <ele>44.5</ele>
        <time>2023-07-02T11:02:08Z</time>
      </trkpt>
      <trkpt lat="49.82037" lon="2.53158">
        <ele>44.5</ele>
        <time>2023-07-02T11:02:09Z</time>
      </trkpt>
      <trkpt lat="49.82036" lon="2.53157">
        <ele>44.5</ele>
        <time>2023-07-02T11:02:10Z</time>
      </trkpt>
      <trkpt lat="49.82035" lon="2.53156">
        <ele>44.5</ele>
        <time>2023-07-02T11:02:11Z</time>
      </trkpt>
      <trkpt lat="49.82034" lon="2.53155">
        <ele>44.4</ele>
        <time>2023-07-02T11:02:12Z</time>
      </trkpt>
      <trkpt lat="49.82033" lon="2.53154">
        <ele>44.4</ele>
        <time>2023-07-02T11:02:13Z</time>
      </trkpt>
      <trkpt lat="49.82032" lon="2.53153">
        <ele>44.4</ele>
        <time>2023-07-02T11:02:15Z</time>
      </trkpt>
      <trkpt lat="49.82032" lon="2.53153">
        <ele>44.3</ele>
        <time>2023-07-02T11:02:16Z</time>
      </trkpt>
      <trkpt lat="49.82031" lon="2.53152">
        <ele>44.3</ele>
        <time>2023-07-02T11:02:17Z</time>
      </trkpt>
      <trkpt lat="49.82031" lon="2.53151">
        <ele>44.3</ele>
        <time>2023-07-02T11:02:18Z</time>
      </trkpt>
      <trkpt lat="49.8203" lon="2.5315">
        <ele>44.3</ele>
        <time>2023-07-02T11:02:19Z</time>
      </trkpt>
      <trkpt lat="49.8203" lon="2.53149">
        <ele>44.3</ele>
        <time>2023-07-02T11:02:21Z</time>
      </trkpt>
      <trkpt lat="49.82029" lon="2.53149">
        <ele>44.2</ele>
        <time>2023-07-02T11:02:22Z</time>
      </trkpt>
      <trkpt lat="49.82028" lon="2.53148">
        <ele>44.2</ele>
        <time>2023-07-02T11:02:23Z</time>
      </trkpt>
      <trkpt lat="49.82028" lon="2.53147">
        <ele>44.2</ele>
        <time>2023-07-02T11:02:24Z</time>
      </trkpt>
      <trkpt lat="49.82028" lon="2.53147">
        <ele>44.2</ele>
        <time>2023-07-02T11:02:25Z</time>
      </trkpt>
      <trkpt lat="49.82027" lon="2.53146">
        <ele>44.2</ele>
        <time>2023-07-02T11:02:26Z</time>
      </trkpt>
      <trkpt lat="49.82026" lon="2.53146">
        <ele>44.1</ele>
        <time>2023-07-02T11:02:28Z</time>
      </trkpt>
      <trkpt lat="49.82026" lon="2.53146">
        <ele>44.1</ele>
        <time>2023-07-02T11:02:29Z</time>
      </trkpt>
      <trkpt lat="49.82026" lon="2.53146">
        <ele>44.1</ele>
        <time>2023-07-02T11:02:30Z</time>
      </trkpt>
      <trkpt lat="49.82026" lon="2.53145">
        <ele>44.1</ele>
        <time>2023-07-02T11:02:31Z</time>
      </trkpt>
      <trkpt lat="49.82025" lon="2.53145">
        <ele>44.1</ele>
        <time>2023-07-02T11:02:32Z</time>
      </trkpt>
      <trkpt lat="49.82025" lon="2.53145">
        <ele>44.1</ele>
        <time>2023-07-02T11:02:33Z</time>
      </trkpt>
      <trkpt lat="49.82025" lon="2.53145">
        <ele>44.1</ele>
        <time>2023-07-02T11:02:34Z</time>
      </trkpt>
      <trkpt lat="49.82025" lon="2.53145">
        <ele>44.1</ele>
        <time>2023-07-02T11:02:36Z</time>
      </trkpt>
      <trkpt lat="49.82024" lon="2.53145">
        <ele>44.1</ele>
        <time>2023-07-02T11:02:37Z</time>
      </trkpt>
      <trkpt lat="49.82024" lon="2.53145">
        <ele>44.1</ele>
        <time>2023-07-02T11:02:38Z</time>
      </trkpt>
      <trkpt lat="49.82024" lon="2.53145">
        <ele>44.1</ele>
        <time>2023-07-02T11:02:39Z</time>
      </trkpt>
      <trkpt lat="49.82024" lon="2.53145">
        <ele>44</ele>
        <time>2023-07-02T11:02:41Z</time>
      </trkpt>
      <trkpt lat="49.82023" lon="2.53145">
        <ele>44</ele>
        <time>2023-07-02T11:02:43Z</time>
      </trkpt>
      <trkpt lat="49.82023" lon="2.53145">
        <ele>44</ele>
        <time>2023-07-02T11:02:44Z</time>
      </trkpt>
      <trkpt lat="49.82023" lon="2.53145">
        <ele>44</ele>
        <time>2023-07-02T11:02:45Z</time>
      </trkpt>
      <trkpt lat="49.82023" lon="2.53145">
        <ele>44</ele>
        <time>2023-07-02T11:02:47Z</time>
      </trkpt>
      <trkpt lat="49.82022" lon="2.53145">
        <ele>44</ele>
        <time>2023-07-02T11:02:48Z</time>
      </trkpt>
      <trkpt lat="49.82022" lon="2.53145">
        <ele>44</ele>
        <time>2023-07-02T11:02:49Z</time>
      </trkpt>
      <trkpt lat="49.82022" lon="2.53145">
        <ele>44</ele>
        <time>2023-07-02T11:02:50Z</time>
      </trkpt>
      <trkpt lat="49.82022" lon="2.53145">
        <ele>44</ele>
        <time>2023-07-02T11:02:51Z</time>
      </trkpt>
      <trkpt lat="49.82022" lon="2.53144">
        <ele>44</ele>
        <time>2023-07-02T11:02:52Z</time>
      </trkpt>
      <trkpt lat="49.82021" lon="2.53144">
        <ele>44</ele>
        <time>2023-07-02T11:02:54Z</time>
      </trkpt>
      <trkpt lat="49.82021" lon="2.53144">
        <ele>44</ele>
        <time>2023-07-02T11:02:55Z</time>
      </trkpt>
      <trkpt lat="49.82021" lon="2.53144">
        <ele>43.9</ele>
        <time>2023-07-02T11:02:56Z</time>
      </trkpt>
      <trkpt lat="49.82021" lon="2.53144">
        <ele>43.9</ele>
        <time>2023-07-02T11:02:57Z</time>
      </trkpt>
      <trkpt lat="49.82018" lon="2.53146">
        <ele>43.8</ele>
        <time>2023-07-02T11:02:58Z</time>
      </trkpt>
      <trkpt lat="49.82018" lon="2.53146">
        <ele>43.8</ele>
        <time>2023-07-02T11:02:59Z</time>
      </trkpt>
      <trkpt lat="49.82017" lon="2.53146">
        <ele>43.8</ele>
        <time>2023-07-02T11:03:00Z</time>
      </trkpt>
      <trkpt lat="49.82014" lon="2.53145">
        <ele>43.7</ele>
        <time>2023-07-02T11:03:02Z</time>
      </trkpt>
      <trkpt lat="49.82013" lon="2.53144">
        <ele>43.7</ele>
        <time>2023-07-02T11:03:03Z</time>
      </trkpt>
      <trkpt lat="49.82011" lon="2.53144">
        <ele>43.6</ele>
        <time>2023-07-02T11:03:04Z</time>
      </trkpt>
      <trkpt lat="49.8201" lon="2.53144">
        <ele>43.6</ele>
        <time>2023-07-02T11:03:05Z</time>
      </trkpt>
      <trkpt lat="49.82009" lon="2.53144">
        <ele>43.6</ele>
        <time>2023-07-02T11:03:06Z</time>
      </trkpt>
      <trkpt lat="49.82008" lon="2.53143">
        <ele>43.5</ele>
        <time>2023-07-02T11:03:07Z</time>
      </trkpt>
      <trkpt lat="49.82007" lon="2.5314">
        <ele>43.6</ele>
        <time>2023-07-02T11:03:09Z</time>
      </trkpt>
      <trkpt lat="49.82007" lon="2.53138">
        <ele>43.5</ele>
        <time>2023-07-02T11:03:10Z</time>
      </trkpt>
      <trkpt lat="49.82006" lon="2.53137">
        <ele>43.5</ele>
        <time>2023-07-02T11:03:11Z</time>
      </trkpt>
      <trkpt lat="49.82006" lon="2.53135">
        <ele>43.5</ele>
        <time>2023-07-02T11:03:12Z</time>
      </trkpt>
      <trkpt lat="49.82005" lon="2.53135">
        <ele>43.5</ele>
        <time>2023-07-02T11:03:13Z</time>
      </trkpt>
      <trkpt lat="49.82005" lon="2.53134">
        <ele>43.5</ele>
        <time>2023-07-02T11:03:14Z</time>
      </trkpt>
      <trkpt lat="49.82004" lon="2.53134">
        <ele>43.5</ele>
        <time>2023-07-02T11:03:16Z</time>
      </trkpt>
      <trkpt lat="49.82005" lon="2.53134">
        <ele>43.5</ele>
        <time>2023-07-02T11:03:17Z</time>
      </trkpt>
      <trkpt lat="49.82005" lon="2.53134">
        <ele>43.5</ele>
        <time>2023-07-02T11:03:18Z</time>
      </trkpt>
      <trkpt lat="49.82004" lon="2.53134">
        <ele>43.5</ele>
        <time>2023-07-02T11:03:19Z</time>
      </trkpt>
      <trkpt lat="49.82003" lon="2.53134">
        <ele>43.5</ele>
        <time>2023-07-02T11:03:20Z</time>
      </trkpt>
      <trkpt lat="49.82002" lon="2.53134">
        <ele>43.5</ele>
        <time>2023-07-02T11:03:21Z</time>
      </trkpt>
      <trkpt lat="49.82002" lon="2.53133">
        <ele>43.4</ele>
        <time>2023-07-02T11:03:22Z</time>
      </trkpt>
      <trkpt lat="49.82002" lon="2.53133">
        <ele>43.4</ele>
        <time>2023-07-02T11:03:24Z</time>
      </trkpt>
      <trkpt lat="49.82002" lon="2.53134">
        <ele>43.4</ele>
        <time>2023-07-02T11:03:25Z</time>
      </trkpt>
      <trkpt lat="49.82002" lon="2.53134">
        <ele>43.4</ele>
        <time>2023-07-02T11:03:27Z</time>
      </trkpt>
      <trkpt lat="49.82003" lon="2.53134">
        <ele>43.4</ele>
        <time>2023-07-02T11:03:28Z</time>
      </trkpt>
      <trkpt lat="49.82003" lon="2.53133">
        <ele>43.4</ele>
        <time>2023-07-02T11:03:29Z</time>
      </trkpt>
      <trkpt lat="49.82003" lon="2.53133">
        <ele>43.4</ele>
        <time>2023-07-02T11:03:31Z</time>
      </trkpt>
      <trkpt lat="49.82003" lon="2.53133">
        <ele>43.4</ele>
        <time>2023-07-02T11:03:32Z</time>
      </trkpt>
      <trkpt lat="49.82003" lon="2.53133">
        <ele>43.4</ele>
        <time>2023-07-02T11:03:34Z</time>
      </trkpt>
      <trkpt lat="49.82003" lon="2.53133">
        <ele>43.4</ele>
        <time>2023-07-02T11:03:35Z</time>
      </trkpt>
      <trkpt lat="49.82003" lon="2.53133">
        <ele>43.4</ele>
        <time>2023-07-02T11:03:37Z</time>
      </trkpt>
      <trkpt lat="49.82003" lon="2.53133">
        <ele>43.4</ele>
        <time>2023-07-02T11:03:38Z</time>
      </trkpt>
      <trkpt lat="49.82003" lon="2.53133">
        <ele>43.4</ele>
        <time>2023-07-02T11:03:40Z</time>
      </trkpt>
      <trkpt lat="49.82003" lon="2.53133">
        <ele>43.4</ele>
        <time>2023-07-02T11:03:41Z</time>
      </trkpt>
      <trkpt lat="49.82003" lon="2.53132">
        <ele>43.4</ele>
        <time>2023-07-02T11:03:42Z</time>
      </trkpt>
      <trkpt lat="49.82003" lon="2.53132">
        <ele>43.4</ele>
        <time>2023-07-02T11:03:43Z</time>
      </trkpt>
      <trkpt lat="49.82003" lon="2.53132">
        <ele>43.4</ele>
        <time>2023-07-02T11:03:44Z</time>
      </trkpt>
      <trkpt lat="49.82003" lon="2.53132">
        <ele>43.4</ele>
        <time>2023-07-02T11:03:45Z</time>
      </trkpt>
      <trkpt lat="49.82003" lon="2.53132">
        <ele>43.4</ele>
        <time>2023-07-02T11:03:46Z</time>
      </trkpt>
      <trkpt lat="49.82003" lon="2.53132">
        <ele>43.3</ele>
        <time>2023-07-02T11:03:47Z</time>
      </trkpt>
      <trkpt lat="49.82003" lon="2.53132">
        <ele>43.3</ele>
        <time>2023-07-02T11:03:48Z</time>
      </trkpt>
      <trkpt lat="49.82003" lon="2.53132">
        <ele>43.3</ele>
        <time>2023-07-02T11:03:49Z</time>
      </trkpt>
      <trkpt lat="49.82003" lon="2.53132">
        <ele>43.3</ele>
        <time>2023-07-02T11:03:50Z</time>
      </trkpt>
      <trkpt lat="49.82003" lon="2.53132">
        <ele>43.3</ele>
        <time>2023-07-02T11:03:51Z</time>
      </trkpt>
      <trkpt lat="49.82003" lon="2.53132">
        <ele>43.3</ele>
        <time>2023-07-02T11:03:52Z</time>
      </trkpt>
      <trkpt lat="49.82003" lon="2.53132">
        <ele>43.3</ele>
        <time>2023-07-02T11:03:53Z</time>
      </trkpt>
      <trkpt lat="49.82003" lon="2.53132">
        <ele>43.3</ele>
        <time>2023-07-02T11:03:54Z</time>
      </trkpt>
      <trkpt lat="49.82003" lon="2.53132">
        <ele>43.3</ele>
        <time>2023-07-02T11:03:55Z</time>
      </trkpt>
      <trkpt lat="49.82003" lon="2.53132">
        <ele>43.3</ele>
        <time>2023-07-02T11:03:56Z</time>
      </trkpt>
      <trkpt lat="49.82003" lon="2.53132">
        <ele>43.3</ele>
        <time>2023-07-02T11:03:57Z</time>
      </trkpt>
      <trkpt lat="49.82003" lon="2.53132">
        <ele>43.3</ele>
        <time>2023-07-02T11:03:58Z</time>
      </trkpt>
      <trkpt lat="49.82003" lon="2.53132">
        <ele>43.3</ele>
        <time>2023-07-02T11:03:59Z</time>
      </trkpt>
      <trkpt lat="49.82003" lon="2.53132">
        <ele>43.3</ele>
        <time>2023-07-02T11:04:00Z</time>
      </trkpt>
      <trkpt lat="49.82003" lon="2.53132">
        <ele>43.3</ele>
        <time>2023-07-02T11:04:01Z</time>
      </trkpt>
      <trkpt lat="49.82003" lon="2.53132">
        <ele>43.3</ele>
        <time>2023-07-02T11:04:02Z</time>
      </trkpt>
      <trkpt lat="49.82003" lon="2.53132">
        <ele>43.3</ele>
        <time>2023-07-02T11:04:03Z</time>
      </trkpt>
      <trkpt lat="49.82003" lon="2.53132">
        <ele>43.3</ele>
        <time>2023-07-02T11:04:04Z</time>
      </trkpt>
      <trkpt lat="49.82003" lon="2.53132">
        <ele>43.3</ele>
        <time>2023-07-02T11:04:05Z</time>
      </trkpt>
      <trkpt lat="49.82003" lon="2.53132">
        <ele>43.2</ele>
        <time>2023-07-02T11:04:06Z</time>
      </trkpt>
      <trkpt lat="49.82003" lon="2.53132">
        <ele>43.2</ele>
        <time>2023-07-02T11:04:07Z</time>
      </trkpt>
      <trkpt lat="49.82003" lon="2.53132">
        <ele>43.2</ele>
        <time>2023-07-02T11:04:08Z</time>
      </trkpt>
      <trkpt lat="49.82003" lon="2.53132">
        <ele>43.2</ele>
        <time>2023-07-02T11:04:09Z</time>
      </trkpt>
      <trkpt lat="49.82003" lon="2.53132">
        <ele>43.2</ele>
        <time>2023-07-02T11:04:10Z</time>
      </trkpt>
      <trkpt lat="49.82003" lon="2.53132">
        <ele>43.2</ele>
        <time>2023-07-02T11:04:11Z</time>
      </trkpt>
      <trkpt lat="49.82003" lon="2.53132">
        <ele>43.2</ele>
        <time>2023-07-02T11:04:12Z</time>
      </trkpt>
      <trkpt lat="49.82003" lon="2.53132">
        <ele>43.2</ele>
        <time>2023-07-02T11:04:13Z</time>
      </trkpt>
      <trkpt lat="49.82003" lon="2.53132">
        <ele>43.2</ele>
        <time>2023-07-02T11:04:14Z</time>
      </trkpt>
      <trkpt lat="49.82003" lon="2.53132">
        <ele>43.2</ele>
        <time>2023-07-02T11:04:15Z</time>
      </trkpt>
      <trkpt lat="49.82003" lon="2.53132">
        <ele>43.2</ele>
        <time>2023-07-02T11:04:16Z</time>
      </trkpt>
      <trkpt lat="49.82002" lon="2.53132">
        <ele>43.2</ele>
        <time>2023-07-02T11:04:17Z</time>
      </trkpt>
      <trkpt lat="49.82001" lon="2.53132">
        <ele>43.2</ele>
        <time>2023-07-02T11:04:18Z</time>
      </trkpt>
      <trkpt lat="49.82001" lon="2.53132">
        <ele>43.2</ele>
        <time>2023-07-02T11:04:19Z</time>
      </trkpt>
      <trkpt lat="49.82" lon="2.53132">
        <ele>43.2</ele>
        <time>2023-07-02T11:04:20Z</time>
      </trkpt>
      <trkpt lat="49.81999" lon="2.53131">
        <ele>43.2</ele>
        <time>2023-07-02T11:04:21Z</time>
      </trkpt>
      <trkpt lat="49.81999" lon="2.5313">
        <ele>43.2</ele>
        <time>2023-07-02T11:04:23Z</time>
      </trkpt>
      <trkpt lat="49.81998" lon="2.53129">
        <ele>43.2</ele>
        <time>2023-07-02T11:04:24Z</time>
      </trkpt>
      <trkpt lat="49.81998" lon="2.53129">
        <ele>43.2</ele>
        <time>2023-07-02T11:04:25Z</time>
      </trkpt>
      <trkpt lat="49.81997" lon="2.53128">
        <ele>43.1</ele>
        <time>2023-07-02T11:04:26Z</time>
      </trkpt>
      <trkpt lat="49.81995" lon="2.53125">
        <ele>43.2</ele>
        <time>2023-07-02T11:04:27Z</time>
      </trkpt>
      <trkpt lat="49.81994" lon="2.53122">
        <ele>43.2</ele>
        <time>2023-07-02T11:04:28Z</time>
      </trkpt>
      <trkpt lat="49.81993" lon="2.53121">
        <ele>43.2</ele>
        <time>2023-07-02T11:04:30Z</time>
      </trkpt>
      <trkpt lat="49.81992" lon="2.53121">
        <ele>43.2</ele>
        <time>2023-07-02T11:04:31Z</time>
      </trkpt>
      <trkpt lat="49.81992" lon="2.5312">
        <ele>43.2</ele>
        <time>2023-07-02T11:04:32Z</time>
      </trkpt>
      <trkpt lat="49.81991" lon="2.5312">
        <ele>43.2</ele>
        <time>2023-07-02T11:04:33Z</time>
      </trkpt>
      <trkpt lat="49.8199" lon="2.53119">
        <ele>43.2</ele>
        <time>2023-07-02T11:04:34Z</time>
      </trkpt>
      <trkpt lat="49.81989" lon="2.53119">
        <ele>43.2</ele>
        <time>2023-07-02T11:04:35Z</time>
      </trkpt>
      <trkpt lat="49.81988" lon="2.53119">
        <ele>43.2</ele>
        <time>2023-07-02T11:04:36Z</time>
      </trkpt>
      <trkpt lat="49.81987" lon="2.53119">
        <ele>43.2</ele>
        <time>2023-07-02T11:04:38Z</time>
      </trkpt>
      <trkpt lat="49.81986" lon="2.53118">
        <ele>43.2</ele>
        <time>2023-07-02T11:04:39Z</time>
      </trkpt>
      <trkpt lat="49.81985" lon="2.53118">
        <ele>43.2</ele>
        <time>2023-07-02T11:04:40Z</time>
      </trkpt>
      <trkpt lat="49.81984" lon="2.53117">
        <ele>43.2</ele>
        <time>2023-07-02T11:04:41Z</time>
      </trkpt>
      <trkpt lat="49.81983" lon="2.53116">
        <ele>43.2</ele>
        <time>2023-07-02T11:04:42Z</time>
      </trkpt>
      <trkpt lat="49.81982" lon="2.53115">
        <ele>43.3</ele>
        <time>2023-07-02T11:04:43Z</time>
      </trkpt>
      <trkpt lat="49.81981" lon="2.53115">
        <ele>43.3</ele>
        <time>2023-07-02T11:04:44Z</time>
      </trkpt>
      <trkpt lat="49.8198" lon="2.53115">
        <ele>43.3</ele>
        <time>2023-07-02T11:04:46Z</time>
      </trkpt>
      <trkpt lat="49.81978" lon="2.53114">
        <ele>43.3</ele>
        <time>2023-07-02T11:04:47Z</time>
      </trkpt>
      <trkpt lat="49.81977" lon="2.53114">
        <ele>43.3</ele>
        <time>2023-07-02T11:04:48Z</time>
      </trkpt>
      <trkpt lat="49.81975" lon="2.53113">
        <ele>43.4</ele>
        <time>2023-07-02T11:04:49Z</time>
      </trkpt>
      <trkpt lat="49.81974" lon="2.53112">
        <ele>43.6</ele>
        <time>2023-07-02T11:04:50Z</time>
      </trkpt>
      <trkpt lat="49.81971" lon="2.5311">
        <ele>43.7</ele>
        <time>2023-07-02T11:04:51Z</time>
      </trkpt>
      <trkpt lat="49.8197" lon="2.53109">
        <ele>43.7</ele>
        <time>2023-07-02T11:04:52Z</time>
      </trkpt>
      <trkpt lat="49.81965" lon="2.53106">
        <ele>44</ele>
        <time>2023-07-02T11:04:54Z</time>
      </trkpt>
      <trkpt lat="49.81963" lon="2.53104">
        <ele>44</ele>
        <time>2023-07-02T11:04:56Z</time>
      </trkpt>
      <trkpt lat="49.81962" lon="2.53103">
        <ele>44.2</ele>
        <time>2023-07-02T11:04:58Z</time>
      </trkpt>
      <trkpt lat="49.8196" lon="2.53101">
        <ele>44.3</ele>
        <time>2023-07-02T11:04:59Z</time>
      </trkpt>
      <trkpt lat="49.81957" lon="2.53099">
        <ele>44.3</ele>
        <time>2023-07-02T11:05:00Z</time>
      </trkpt>
      <trkpt lat="49.81957" lon="2.53098">
        <ele>44.5</ele>
        <time>2023-07-02T11:05:01Z</time>
      </trkpt>
      <trkpt lat="49.81954" lon="2.53096">
        <ele>44.7</ele>
        <time>2023-07-02T11:05:03Z</time>
      </trkpt>
      <trkpt lat="49.81953" lon="2.53096">
        <ele>44.7</ele>
        <time>2023-07-02T11:05:04Z</time>
      </trkpt>
      <trkpt lat="49.8195" lon="2.53094">
        <ele>45</ele>
        <time>2023-07-02T11:05:05Z</time>
      </trkpt>
      <trkpt lat="49.81949" lon="2.53093">
        <ele>44.9</ele>
        <time>2023-07-02T11:05:06Z</time>
      </trkpt>
      <trkpt lat="49.81946" lon="2.53091">
        <ele>45.2</ele>
        <time>2023-07-02T11:05:07Z</time>
      </trkpt>
      <trkpt lat="49.81945" lon="2.5309">
        <ele>45.5</ele>
        <time>2023-07-02T11:05:08Z</time>
      </trkpt>
      <trkpt lat="49.81944" lon="2.53089">
        <ele>45.5</ele>
        <time>2023-07-02T11:05:10Z</time>
      </trkpt>
      <trkpt lat="49.81942" lon="2.53088">
        <ele>45.8</ele>
        <time>2023-07-02T11:05:11Z</time>
      </trkpt>
      <trkpt lat="49.81941" lon="2.53087">
        <ele>45.8</ele>
        <time>2023-07-02T11:05:12Z</time>
      </trkpt>
      <trkpt lat="49.81939" lon="2.53086">
        <ele>46.2</ele>
        <time>2023-07-02T11:05:13Z</time>
      </trkpt>
      <trkpt lat="49.81937" lon="2.53084">
        <ele>46.5</ele>
        <time>2023-07-02T11:05:14Z</time>
      </trkpt>
      <trkpt lat="49.81936" lon="2.53084">
        <ele>46.5</ele>
        <time>2023-07-02T11:05:16Z</time>
      </trkpt>
      <trkpt lat="49.81935" lon="2.53083">
        <ele>46.5</ele>
        <time>2023-07-02T11:05:17Z</time>
      </trkpt>
      <trkpt lat="49.81934" lon="2.53082">
        <ele>46.9</ele>
        <time>2023-07-02T11:05:18Z</time>
      </trkpt>
      <trkpt lat="49.81933" lon="2.53082">
        <ele>46.9</ele>
        <time>2023-07-02T11:05:19Z</time>
      </trkpt>
      <trkpt lat="49.81932" lon="2.5308">
        <ele>47.2</ele>
        <time>2023-07-02T11:05:20Z</time>
      </trkpt>
      <trkpt lat="49.81931" lon="2.5308">
        <ele>47.2</ele>
        <time>2023-07-02T11:05:21Z</time>
      </trkpt>
      <trkpt lat="49.8193" lon="2.53079">
        <ele>47.2</ele>
        <time>2023-07-02T11:05:22Z</time>
      </trkpt>
      <trkpt lat="49.81928" lon="2.53075">
        <ele>47.5</ele>
        <time>2023-07-02T11:05:24Z</time>
      </trkpt>
      <trkpt lat="49.81928" lon="2.53074">
        <ele>47.5</ele>
        <time>2023-07-02T11:05:25Z</time>
      </trkpt>
      <trkpt lat="49.81927" lon="2.53071">
        <ele>47.3</ele>
        <time>2023-07-02T11:05:27Z</time>
      </trkpt>
      <trkpt lat="49.81927" lon="2.5307">
        <ele>47.8</ele>
        <time>2023-07-02T11:05:28Z</time>
      </trkpt>
      <trkpt lat="49.81927" lon="2.53069">
        <ele>47.3</ele>
        <time>2023-07-02T11:05:30Z</time>
      </trkpt>
      <trkpt lat="49.81927" lon="2.53069">
        <ele>47.3</ele>
        <time>2023-07-02T11:05:31Z</time>
      </trkpt>
      <trkpt lat="49.81928" lon="2.53069">
        <ele>47.3</ele>
        <time>2023-07-02T11:05:33Z</time>
      </trkpt>
      <trkpt lat="49.81928" lon="2.53069">
        <ele>47.3</ele>
        <time>2023-07-02T11:05:34Z</time>
      </trkpt>
      <trkpt lat="49.81928" lon="2.53069">
        <ele>47.3</ele>
        <time>2023-07-02T11:05:35Z</time>
      </trkpt>
      <trkpt lat="49.81928" lon="2.53069">
        <ele>47.3</ele>
        <time>2023-07-02T11:05:37Z</time>
      </trkpt>
      <trkpt lat="49.81928" lon="2.53069">
        <ele>47.3</ele>
        <time>2023-07-02T11:05:38Z</time>
      </trkpt>
      <trkpt lat="49.81928" lon="2.53069">
        <ele>47.3</ele>
        <time>2023-07-02T11:05:40Z</time>
      </trkpt>
      <trkpt lat="49.81928" lon="2.53069">
        <ele>47.3</ele>
        <time>2023-07-02T11:05:41Z</time>
      </trkpt>
      <trkpt lat="49.81928" lon="2.53069">
        <ele>47.3</ele>
        <time>2023-07-02T11:05:43Z</time>
      </trkpt>
      <trkpt lat="49.81928" lon="2.53069">
        <ele>47.3</ele>
        <time>2023-07-02T11:05:44Z</time>
      </trkpt>
      <trkpt lat="49.81928" lon="2.5307">
        <ele>47.3</ele>
        <time>2023-07-02T11:05:45Z</time>
      </trkpt>
      <trkpt lat="49.81928" lon="2.5307">
        <ele>47.3</ele>
        <time>2023-07-02T11:05:46Z</time>
      </trkpt>
      <trkpt lat="49.81928" lon="2.5307">
        <ele>47.3</ele>
        <time>2023-07-02T11:05:48Z</time>
      </trkpt>
      <trkpt lat="49.81928" lon="2.53071">
        <ele>47.3</ele>
        <time>2023-07-02T11:05:49Z</time>
      </trkpt>
      <trkpt lat="49.81928" lon="2.53071">
        <ele>47.2</ele>
        <time>2023-07-02T11:05:50Z</time>
      </trkpt>
      <trkpt lat="49.81927" lon="2.53072">
        <ele>47.2</ele>
        <time>2023-07-02T11:05:51Z</time>
      </trkpt>
      <trkpt lat="49.81927" lon="2.53072">
        <ele>47.9</ele>
        <time>2023-07-02T11:05:52Z</time>
      </trkpt>
      <trkpt lat="49.81926" lon="2.53072">
        <ele>47.9</ele>
        <time>2023-07-02T11:05:54Z</time>
      </trkpt>
      <trkpt lat="49.81926" lon="2.53073">
        <ele>47.9</ele>
        <time>2023-07-02T11:05:55Z</time>
      </trkpt>
      <trkpt lat="49.81925" lon="2.53073">
        <ele>47.8</ele>
        <time>2023-07-02T11:05:56Z</time>
      </trkpt>
      <trkpt lat="49.81925" lon="2.53073">
        <ele>47.8</ele>
        <time>2023-07-02T11:05:57Z</time>
      </trkpt>
      <trkpt lat="49.81924" lon="2.53073">
        <ele>47.8</ele>
        <time>2023-07-02T11:05:58Z</time>
      </trkpt>
      <trkpt lat="49.81924" lon="2.53073">
        <ele>48.3</ele>
        <time>2023-07-02T11:06:00Z</time>
      </trkpt>
      <trkpt lat="49.81923" lon="2.53074">
        <ele>48.3</ele>
        <time>2023-07-02T11:06:01Z</time>
      </trkpt>
      <trkpt lat="49.81923" lon="2.53074">
        <ele>48.3</ele>
        <time>2023-07-02T11:06:02Z</time>
      </trkpt>
      <trkpt lat="49.81922" lon="2.53075">
        <ele>48.3</ele>
        <time>2023-07-02T11:06:03Z</time>
      </trkpt>
      <trkpt lat="49.81921" lon="2.53076">
        <ele>49</ele>
        <time>2023-07-02T11:06:04Z</time>
      </trkpt>
      <trkpt lat="49.8192" lon="2.53077">
        <ele>49</ele>
        <time>2023-07-02T11:06:05Z</time>
      </trkpt>
      <trkpt lat="49.81919" lon="2.53077">
        <ele>49</ele>
        <time>2023-07-02T11:06:06Z</time>
      </trkpt>
      <trkpt lat="49.81918" lon="2.53077">
        <ele>49.6</ele>
        <time>2023-07-02T11:06:08Z</time>
      </trkpt>
      <trkpt lat="49.81917" lon="2.53078">
        <ele>49.6</ele>
        <time>2023-07-02T11:06:09Z</time>
      </trkpt>
      <trkpt lat="49.81916" lon="2.53078">
        <ele>49.6</ele>
        <time>2023-07-02T11:06:10Z</time>
      </trkpt>
      <trkpt lat="49.81916" lon="2.53078">
        <ele>50.1</ele>
        <time>2023-07-02T11:06:11Z</time>
      </trkpt>
      <trkpt lat="49.81914" lon="2.53079">
        <ele>50.1</ele>
        <time>2023-07-02T11:06:12Z</time>
      </trkpt>
      <trkpt lat="49.81912" lon="2.5308">
        <ele>50.7</ele>
        <time>2023-07-02T11:06:14Z</time>
      </trkpt>
      <trkpt lat="49.81909" lon="2.53081">
        <ele>51.5</ele>
        <time>2023-07-02T11:06:15Z</time>
      </trkpt>
      <trkpt lat="49.81908" lon="2.53082">
        <ele>51.5</ele>
        <time>2023-07-02T11:06:16Z</time>
      </trkpt>
      <trkpt lat="49.81907" lon="2.53083">
        <ele>52</ele>
        <time>2023-07-02T11:06:17Z</time>
      </trkpt>
      <trkpt lat="49.81906" lon="2.53083">
        <ele>52</ele>
        <time>2023-07-02T11:06:18Z</time>
      </trkpt>
      <trkpt lat="49.81904" lon="2.53085">
        <ele>52.5</ele>
        <time>2023-07-02T11:06:19Z</time>
      </trkpt>
      <trkpt lat="49.81903" lon="2.53086">
        <ele>52.6</ele>
        <time>2023-07-02T11:06:20Z</time>
      </trkpt>
      <trkpt lat="49.81902" lon="2.53087">
        <ele>53.1</ele>
        <time>2023-07-02T11:06:22Z</time>
      </trkpt>
      <trkpt lat="49.81901" lon="2.53089">
        <ele>53.1</ele>
        <time>2023-07-02T11:06:23Z</time>
      </trkpt>
      <trkpt lat="49.819" lon="2.5309">
        <ele>53.2</ele>
        <time>2023-07-02T11:06:24Z</time>
      </trkpt>
      <trkpt lat="49.819" lon="2.53092">
        <ele>53.2</ele>
        <time>2023-07-02T11:06:25Z</time>
      </trkpt>
      <trkpt lat="49.819" lon="2.53093">
        <ele>53.2</ele>
        <time>2023-07-02T11:06:26Z</time>
      </trkpt>
      <trkpt lat="49.81899" lon="2.53095">
        <ele>53.3</ele>
        <time>2023-07-02T11:06:27Z</time>
      </trkpt>
      <trkpt lat="49.81899" lon="2.53096">
        <ele>53.8</ele>
        <time>2023-07-02T11:06:29Z</time>
      </trkpt>
      <trkpt lat="49.81898" lon="2.53097">
        <ele>53.8</ele>
        <time>2023-07-02T11:06:30Z</time>
      </trkpt>
      <trkpt lat="49.81898" lon="2.531">
        <ele>53.8</ele>
        <time>2023-07-02T11:06:31Z</time>
      </trkpt>
      <trkpt lat="49.81898" lon="2.53101">
        <ele>53.8</ele>
        <time>2023-07-02T11:06:32Z</time>
      </trkpt>
      <trkpt lat="49.81898" lon="2.53103">
        <ele>53.8</ele>
        <time>2023-07-02T11:06:33Z</time>
      </trkpt>
      <trkpt lat="49.81898" lon="2.53104">
        <ele>53.9</ele>
        <time>2023-07-02T11:06:35Z</time>
      </trkpt>
      <trkpt lat="49.81898" lon="2.53106">
        <ele>53.9</ele>
        <time>2023-07-02T11:06:36Z</time>
      </trkpt>
      <trkpt lat="49.81898" lon="2.53107">
        <ele>53.9</ele>
        <time>2023-07-02T11:06:37Z</time>
      </trkpt>
      <trkpt lat="49.81898" lon="2.53109">
        <ele>54</ele>
        <time>2023-07-02T11:06:38Z</time>
      </trkpt>
      <trkpt lat="49.81898" lon="2.53111">
        <ele>54</ele>
        <time>2023-07-02T11:06:39Z</time>
      </trkpt>
      <trkpt lat="49.81898" lon="2.53113">
        <ele>54.1</ele>
        <time>2023-07-02T11:06:40Z</time>
      </trkpt>
      <trkpt lat="49.81899" lon="2.53116">
        <ele>54.1</ele>
        <time>2023-07-02T11:06:41Z</time>
      </trkpt>
      <trkpt lat="49.81899" lon="2.53118">
        <ele>54.2</ele>
        <time>2023-07-02T11:06:43Z</time>
      </trkpt>
      <trkpt lat="49.81899" lon="2.53119">
        <ele>54.2</ele>
        <time>2023-07-02T11:06:44Z</time>
      </trkpt>
      <trkpt lat="49.81899" lon="2.53121">
        <ele>54.2</ele>
        <time>2023-07-02T11:06:45Z</time>
      </trkpt>
      <trkpt lat="49.819" lon="2.53122">
        <ele>54.3</ele>
        <time>2023-07-02T11:06:46Z</time>
      </trkpt>
      <trkpt lat="49.819" lon="2.53124">
        <ele>54.3</ele>
        <time>2023-07-02T11:06:48Z</time>
      </trkpt>
      <trkpt lat="49.819" lon="2.53127">
        <ele>54.4</ele>
        <time>2023-07-02T11:06:49Z</time>
      </trkpt>
      <trkpt lat="49.819" lon="2.53129">
        <ele>54.4</ele>
        <time>2023-07-02T11:06:50Z</time>
      </trkpt>
      <trkpt lat="49.81901" lon="2.53132">
        <ele>54.5</ele>
        <time>2023-07-02T11:06:51Z</time>
      </trkpt>
      <trkpt lat="49.81901" lon="2.53133">
        <ele>54.5</ele>
        <time>2023-07-02T11:06:52Z</time>
      </trkpt>
      <trkpt lat="49.81901" lon="2.53134">
        <ele>54.5</ele>
        <time>2023-07-02T11:06:53Z</time>
      </trkpt>
      <trkpt lat="49.81901" lon="2.53136">
        <ele>54.6</ele>
        <time>2023-07-02T11:06:54Z</time>
      </trkpt>
      <trkpt lat="49.81901" lon="2.53138">
        <ele>54.6</ele>
        <time>2023-07-02T11:06:56Z</time>
      </trkpt>
      <trkpt lat="49.81901" lon="2.53139">
        <ele>54.6</ele>
        <time>2023-07-02T11:06:57Z</time>
      </trkpt>
      <trkpt lat="49.81901" lon="2.53141">
        <ele>54.7</ele>
        <time>2023-07-02T11:06:58Z</time>
      </trkpt>
      <trkpt lat="49.81901" lon="2.53142">
        <ele>54.7</ele>
        <time>2023-07-02T11:06:59Z</time>
      </trkpt>
      <trkpt lat="49.819" lon="2.53143">
        <ele>54.7</ele>
        <time>2023-07-02T11:07:01Z</time>
      </trkpt>
      <trkpt lat="49.819" lon="2.53145">
        <ele>54.8</ele>
        <time>2023-07-02T11:07:02Z</time>
      </trkpt>
      <trkpt lat="49.81899" lon="2.53147">
        <ele>54.8</ele>
        <time>2023-07-02T11:07:03Z</time>
      </trkpt>
      <trkpt lat="49.81899" lon="2.53148">
        <ele>54.8</ele>
        <time>2023-07-02T11:07:04Z</time>
      </trkpt>
      <trkpt lat="49.81899" lon="2.5315">
        <ele>54.9</ele>
        <time>2023-07-02T11:07:05Z</time>
      </trkpt>
      <trkpt lat="49.81898" lon="2.53151">
        <ele>54.9</ele>
        <time>2023-07-02T11:07:06Z</time>
      </trkpt>
      <trkpt lat="49.81898" lon="2.53153">
        <ele>54.9</ele>
        <time>2023-07-02T11:07:08Z</time>
      </trkpt>
      <trkpt lat="49.81898" lon="2.53154">
        <ele>55</ele>
        <time>2023-07-02T11:07:09Z</time>
      </trkpt>
      <trkpt lat="49.81898" lon="2.53155">
        <ele>55</ele>
        <time>2023-07-02T11:07:10Z</time>
      </trkpt>
      <trkpt lat="49.81897" lon="2.53156">
        <ele>55</ele>
        <time>2023-07-02T11:07:11Z</time>
      </trkpt>
      <trkpt lat="49.81897" lon="2.53157">
        <ele>55</ele>
        <time>2023-07-02T11:07:12Z</time>
      </trkpt>
      <trkpt lat="49.81896" lon="2.5316">
        <ele>55.1</ele>
        <time>2023-07-02T11:07:13Z</time>
      </trkpt>
      <trkpt lat="49.81896" lon="2.53161">
        <ele>55.1</ele>
        <time>2023-07-02T11:07:15Z</time>
      </trkpt>
      <trkpt lat="49.81895" lon="2.53162">
        <ele>55.2</ele>
        <time>2023-07-02T11:07:16Z</time>
      </trkpt>
      <trkpt lat="49.81895" lon="2.53164">
        <ele>55.2</ele>
        <time>2023-07-02T11:07:17Z</time>
      </trkpt>
      <trkpt lat="49.81895" lon="2.53166">
        <ele>55.2</ele>
        <time>2023-07-02T11:07:18Z</time>
      </trkpt>
      <trkpt lat="49.81895" lon="2.53168">
        <ele>55.3</ele>
        <time>2023-07-02T11:07:19Z</time>
      </trkpt>
      <trkpt lat="49.81895" lon="2.53171">
        <ele>55.3</ele>
        <time>2023-07-02T11:07:20Z</time>
      </trkpt>
      <trkpt lat="49.81895" lon="2.53172">
        <ele>55.4</ele>
        <time>2023-07-02T11:07:22Z</time>
      </trkpt>
      <trkpt lat="49.81894" lon="2.53173">
        <ele>55.4</ele>
        <time>2023-07-02T11:07:23Z</time>
      </trkpt>
      <trkpt lat="49.81895" lon="2.53175">
        <ele>55.4</ele>
        <time>2023-07-02T11:07:24Z</time>
      </trkpt>
      <trkpt lat="49.81895" lon="2.53177">
        <ele>55.5</ele>
        <time>2023-07-02T11:07:25Z</time>
      </trkpt>
      <trkpt lat="49.81895" lon="2.53178">
        <ele>55.5</ele>
        <time>2023-07-02T11:07:26Z</time>
      </trkpt>
      <trkpt lat="49.81895" lon="2.53181">
        <ele>55.6</ele>
        <time>2023-07-02T11:07:27Z</time>
      </trkpt>
      <trkpt lat="49.81895" lon="2.53183">
        <ele>55.6</ele>
        <time>2023-07-02T11:07:29Z</time>
      </trkpt>
      <trkpt lat="49.81896" lon="2.53184">
        <ele>55.6</ele>
        <time>2023-07-02T11:07:30Z</time>
      </trkpt>
      <trkpt lat="49.81896" lon="2.53186">
        <ele>55.7</ele>
        <time>2023-07-02T11:07:31Z</time>
      </trkpt>
      <trkpt lat="49.81897" lon="2.53189">
        <ele>55.7</ele>
        <time>2023-07-02T11:07:32Z</time>
      </trkpt>
      <trkpt lat="49.81897" lon="2.5319">
        <ele>55.8</ele>
        <time>2023-07-02T11:07:33Z</time>
      </trkpt>
      <trkpt lat="49.81897" lon="2.53192">
        <ele>55.8</ele>
        <time>2023-07-02T11:07:34Z</time>
      </trkpt>
      <trkpt lat="49.81897" lon="2.53194">
        <ele>55.8</ele>
        <time>2023-07-02T11:07:35Z</time>
      </trkpt>
      <trkpt lat="49.81897" lon="2.53197">
        <ele>55.9</ele>
        <time>2023-07-02T11:07:36Z</time>
      </trkpt>
      <trkpt lat="49.81897" lon="2.53198">
        <ele>55.9</ele>
        <time>2023-07-02T11:07:38Z</time>
      </trkpt>
      <trkpt lat="49.81897" lon="2.53199">
        <ele>56</ele>
        <time>2023-07-02T11:07:39Z</time>
      </trkpt>
      <trkpt lat="49.81897" lon="2.53201">
        <ele>56</ele>
        <time>2023-07-02T11:07:40Z</time>
      </trkpt>
      <trkpt lat="49.81897" lon="2.53202">
        <ele>56</ele>
        <time>2023-07-02T11:07:41Z</time>
      </trkpt>
      <trkpt lat="49.81898" lon="2.53204">
        <ele>56.1</ele>
        <time>2023-07-02T11:07:42Z</time>
      </trkpt>
      <trkpt lat="49.81898" lon="2.53206">
        <ele>56.1</ele>
        <time>2023-07-02T11:07:44Z</time>
      </trkpt>
      <trkpt lat="49.81899" lon="2.53207">
        <ele>56.2</ele>
        <time>2023-07-02T11:07:45Z</time>
      </trkpt>
      <trkpt lat="49.81899" lon="2.53208">
        <ele>56.2</ele>
        <time>2023-07-02T11:07:47Z</time>
      </trkpt>
      <trkpt lat="49.819" lon="2.5321">
        <ele>56.2</ele>
        <time>2023-07-02T11:07:48Z</time>
      </trkpt>
      <trkpt lat="49.819" lon="2.53211">
        <ele>56.2</ele>
        <time>2023-07-02T11:07:49Z</time>
      </trkpt>
      <trkpt lat="49.81901" lon="2.53212">
        <ele>56.3</ele>
        <time>2023-07-02T11:07:50Z</time>
      </trkpt>
      <trkpt lat="49.81901" lon="2.53212">
        <ele>56.3</ele>
        <time>2023-07-02T11:07:51Z</time>
      </trkpt>
      <trkpt lat="49.81901" lon="2.53214">
        <ele>56.3</ele>
        <time>2023-07-02T11:07:52Z</time>
      </trkpt>
      <trkpt lat="49.81902" lon="2.53215">
        <ele>56.3</ele>
        <time>2023-07-02T11:07:53Z</time>
      </trkpt>
      <trkpt lat="49.81902" lon="2.53216">
        <ele>56.4</ele>
        <time>2023-07-02T11:07:54Z</time>
      </trkpt>
      <trkpt lat="49.81902" lon="2.53217">
        <ele>56.4</ele>
        <time>2023-07-02T11:07:56Z</time>
      </trkpt>
      <trkpt lat="49.81903" lon="2.53218">
        <ele>56.4</ele>
        <time>2023-07-02T11:07:57Z</time>
      </trkpt>
      <trkpt lat="49.81903" lon="2.53219">
        <ele>56.4</ele>
        <time>2023-07-02T11:07:58Z</time>
      </trkpt>
      <trkpt lat="49.81903" lon="2.5322">
        <ele>56.5</ele>
        <time>2023-07-02T11:07:59Z</time>
      </trkpt>
      <trkpt lat="49.81903" lon="2.5322">
        <ele>56.5</ele>
        <time>2023-07-02T11:08:00Z</time>
      </trkpt>
      <trkpt lat="49.81904" lon="2.53221">
        <ele>56.5</ele>
        <time>2023-07-02T11:08:01Z</time>
      </trkpt>
      <trkpt lat="49.81904" lon="2.53222">
        <ele>56.5</ele>
        <time>2023-07-02T11:08:03Z</time>
      </trkpt>
      <trkpt lat="49.81904" lon="2.53224">
        <ele>56.5</ele>
        <time>2023-07-02T11:08:04Z</time>
      </trkpt>
      <trkpt lat="49.81904" lon="2.53225">
        <ele>56.6</ele>
        <time>2023-07-02T11:08:05Z</time>
      </trkpt>
      <trkpt lat="49.81904" lon="2.53226">
        <ele>56.6</ele>
        <time>2023-07-02T11:08:06Z</time>
      </trkpt>
      <trkpt lat="49.81904" lon="2.53229">
        <ele>56.7</ele>
        <time>2023-07-02T11:08:07Z</time>
      </trkpt>
      <trkpt lat="49.81904" lon="2.5323">
        <ele>56.7</ele>
        <time>2023-07-02T11:08:08Z</time>
      </trkpt>
      <trkpt lat="49.81904" lon="2.53231">
        <ele>56.7</ele>
        <time>2023-07-02T11:08:10Z</time>
      </trkpt>
      <trkpt lat="49.81904" lon="2.53232">
        <ele>56.7</ele>
        <time>2023-07-02T11:08:11Z</time>
      </trkpt>
      <trkpt lat="49.81903" lon="2.53235">
        <ele>56.8</ele>
        <time>2023-07-02T11:08:12Z</time>
      </trkpt>
      <trkpt lat="49.81903" lon="2.53236">
        <ele>56.8</ele>
        <time>2023-07-02T11:08:14Z</time>
      </trkpt>
      <trkpt lat="49.81903" lon="2.53238">
        <ele>56.8</ele>
        <time>2023-07-02T11:08:15Z</time>
      </trkpt>
      <trkpt lat="49.81902" lon="2.53239">
        <ele>56.9</ele>
        <time>2023-07-02T11:08:16Z</time>
      </trkpt>
      <trkpt lat="49.81902" lon="2.53241">
        <ele>56.9</ele>
        <time>2023-07-02T11:08:17Z</time>
      </trkpt>
      <trkpt lat="49.81902" lon="2.53242">
        <ele>57</ele>
        <time>2023-07-02T11:08:18Z</time>
      </trkpt>
      <trkpt lat="49.81901" lon="2.53245">
        <ele>57</ele>
        <time>2023-07-02T11:08:19Z</time>
      </trkpt>
      <trkpt lat="49.81901" lon="2.53246">
        <ele>57</ele>
        <time>2023-07-02T11:08:21Z</time>
      </trkpt>
      <trkpt lat="49.81901" lon="2.53248">
        <ele>57.1</ele>
        <time>2023-07-02T11:08:22Z</time>
      </trkpt>
      <trkpt lat="49.81901" lon="2.53249">
        <ele>57.1</ele>
        <time>2023-07-02T11:08:23Z</time>
      </trkpt>
      <trkpt lat="49.81901" lon="2.53251">
        <ele>57.1</ele>
        <time>2023-07-02T11:08:24Z</time>
      </trkpt>
      <trkpt lat="49.81901" lon="2.53253">
        <ele>57.2</ele>
        <time>2023-07-02T11:08:25Z</time>
      </trkpt>
      <trkpt lat="49.81901" lon="2.53256">
        <ele>57.3</ele>
        <time>2023-07-02T11:08:27Z</time>
      </trkpt>
      <trkpt lat="49.81901" lon="2.53257">
        <ele>57.3</ele>
        <time>2023-07-02T11:08:28Z</time>
      </trkpt>
      <trkpt lat="49.81901" lon="2.53259">
        <ele>57.3</ele>
        <time>2023-07-02T11:08:29Z</time>
      </trkpt>
      <trkpt lat="49.81901" lon="2.53261">
        <ele>57.4</ele>
        <time>2023-07-02T11:08:30Z</time>
      </trkpt>
      <trkpt lat="49.81901" lon="2.53263">
        <ele>57.4</ele>
        <time>2023-07-02T11:08:31Z</time>
      </trkpt>
      <trkpt lat="49.81902" lon="2.53264">
        <ele>57.4</ele>
        <time>2023-07-02T11:08:33Z</time>
      </trkpt>
      <trkpt lat="49.81902" lon="2.53265">
        <ele>57.5</ele>
        <time>2023-07-02T11:08:34Z</time>
      </trkpt>
      <trkpt lat="49.81902" lon="2.53266">
        <ele>57.5</ele>
        <time>2023-07-02T11:08:35Z</time>
      </trkpt>
      <trkpt lat="49.81902" lon="2.53268">
        <ele>57.5</ele>
        <time>2023-07-02T11:08:36Z</time>
      </trkpt>
      <trkpt lat="49.81903" lon="2.53269">
        <ele>57.5</ele>
        <time>2023-07-02T11:08:37Z</time>
      </trkpt>
      <trkpt lat="49.81902" lon="2.5327">
        <ele>57.6</ele>
        <time>2023-07-02T11:08:39Z</time>
      </trkpt>
      <trkpt lat="49.81902" lon="2.53272">
        <ele>57.6</ele>
        <time>2023-07-02T11:08:40Z</time>
      </trkpt>
      <trkpt lat="49.81902" lon="2.53273">
        <ele>57.6</ele>
        <time>2023-07-02T11:08:41Z</time>
      </trkpt>
      <trkpt lat="49.81902" lon="2.53274">
        <ele>57.6</ele>
        <time>2023-07-02T11:08:42Z</time>
      </trkpt>
      <trkpt lat="49.81902" lon="2.53276">
        <ele>57.7</ele>
        <time>2023-07-02T11:08:43Z</time>
      </trkpt>
      <trkpt lat="49.81902" lon="2.53277">
        <ele>57.7</ele>
        <time>2023-07-02T11:08:44Z</time>
      </trkpt>
      <trkpt lat="49.81902" lon="2.53278">
        <ele>57.7</ele>
        <time>2023-07-02T11:08:46Z</time>
      </trkpt>
      <trkpt lat="49.81902" lon="2.53279">
        <ele>57.8</ele>
        <time>2023-07-02T11:08:47Z</time>
      </trkpt>
      <trkpt lat="49.81902" lon="2.53281">
        <ele>57.8</ele>
        <time>2023-07-02T11:08:48Z</time>
      </trkpt>
      <trkpt lat="49.81902" lon="2.53283">
        <ele>57.8</ele>
        <time>2023-07-02T11:08:50Z</time>
      </trkpt>
      <trkpt lat="49.81902" lon="2.53284">
        <ele>57.9</ele>
        <time>2023-07-02T11:08:52Z</time>
      </trkpt>
      <trkpt lat="49.81903" lon="2.53286">
        <ele>57.9</ele>
        <time>2023-07-02T11:08:53Z</time>
      </trkpt>
      <trkpt lat="49.81903" lon="2.53286">
        <ele>57.9</ele>
        <time>2023-07-02T11:08:54Z</time>
      </trkpt>
      <trkpt lat="49.81903" lon="2.53287">
        <ele>57.9</ele>
        <time>2023-07-02T11:08:55Z</time>
      </trkpt>
      <trkpt lat="49.81903" lon="2.53288">
        <ele>58</ele>
        <time>2023-07-02T11:08:56Z</time>
      </trkpt>
      <trkpt lat="49.81903" lon="2.5329">
        <ele>58</ele>
        <time>2023-07-02T11:08:58Z</time>
      </trkpt>
      <trkpt lat="49.81903" lon="2.53292">
        <ele>58</ele>
        <time>2023-07-02T11:08:59Z</time>
      </trkpt>
      <trkpt lat="49.81903" lon="2.53293">
        <ele>58.1</ele>
        <time>2023-07-02T11:09:00Z</time>
      </trkpt>
      <trkpt lat="49.81903" lon="2.53295">
        <ele>58.1</ele>
        <time>2023-07-02T11:09:02Z</time>
      </trkpt>
      <trkpt lat="49.81903" lon="2.53297">
        <ele>58.1</ele>
        <time>2023-07-02T11:09:03Z</time>
      </trkpt>
      <trkpt lat="49.81903" lon="2.53298">
        <ele>58.2</ele>
        <time>2023-07-02T11:09:04Z</time>
      </trkpt>
      <trkpt lat="49.81903" lon="2.533">
        <ele>58.2</ele>
        <time>2023-07-02T11:09:05Z</time>
      </trkpt>
      <trkpt lat="49.81903" lon="2.53302">
        <ele>58.2</ele>
        <time>2023-07-02T11:09:06Z</time>
      </trkpt>
      <trkpt lat="49.81903" lon="2.53303">
        <ele>58.3</ele>
        <time>2023-07-02T11:09:07Z</time>
      </trkpt>
      <trkpt lat="49.81902" lon="2.53305">
        <ele>58.3</ele>
        <time>2023-07-02T11:09:08Z</time>
      </trkpt>
      <trkpt lat="49.81902" lon="2.53307">
        <ele>58.4</ele>
        <time>2023-07-02T11:09:10Z</time>
      </trkpt>
      <trkpt lat="49.81902" lon="2.53308">
        <ele>58.4</ele>
        <time>2023-07-02T11:09:11Z</time>
      </trkpt>
      <trkpt lat="49.81902" lon="2.53311">
        <ele>58.4</ele>
        <time>2023-07-02T11:09:12Z</time>
      </trkpt>
      <trkpt lat="49.81902" lon="2.53312">
        <ele>58.5</ele>
        <time>2023-07-02T11:09:14Z</time>
      </trkpt>
      <trkpt lat="49.81902" lon="2.53314">
        <ele>58.5</ele>
        <time>2023-07-02T11:09:15Z</time>
      </trkpt>
      <trkpt lat="49.81901" lon="2.53315">
        <ele>58.5</ele>
        <time>2023-07-02T11:09:16Z</time>
      </trkpt>
      <trkpt lat="49.81901" lon="2.53316">
        <ele>58.6</ele>
        <time>2023-07-02T11:09:17Z</time>
      </trkpt>
      <trkpt lat="49.819" lon="2.53317">
        <ele>58.6</ele>
        <time>2023-07-02T11:09:18Z</time>
      </trkpt>
      <trkpt lat="49.81899" lon="2.53319">
        <ele>58.6</ele>
        <time>2023-07-02T11:09:19Z</time>
      </trkpt>
      <trkpt lat="49.81899" lon="2.53321">
        <ele>59</ele>
        <time>2023-07-02T11:09:21Z</time>
      </trkpt>
      <trkpt lat="49.81899" lon="2.53322">
        <ele>58.9</ele>
        <time>2023-07-02T11:09:22Z</time>
      </trkpt>
      <trkpt lat="49.81898" lon="2.53324">
        <ele>58.9</ele>
        <time>2023-07-02T11:09:23Z</time>
      </trkpt>
      <trkpt lat="49.81897" lon="2.53325">
        <ele>58.9</ele>
        <time>2023-07-02T11:09:24Z</time>
      </trkpt>
      <trkpt lat="49.81896" lon="2.53326">
        <ele>59.1</ele>
        <time>2023-07-02T11:09:25Z</time>
      </trkpt>
      <trkpt lat="49.81895" lon="2.53327">
        <ele>59.1</ele>
        <time>2023-07-02T11:09:27Z</time>
      </trkpt>
      <trkpt lat="49.81894" lon="2.53327">
        <ele>59.4</ele>
        <time>2023-07-02T11:09:28Z</time>
      </trkpt>
      <trkpt lat="49.81891" lon="2.53327">
        <ele>59.4</ele>
        <time>2023-07-02T11:09:29Z</time>
      </trkpt>
      <trkpt lat="49.8189" lon="2.53327">
        <ele>59.6</ele>
        <time>2023-07-02T11:09:31Z</time>
      </trkpt>
      <trkpt lat="49.81889" lon="2.53327">
        <ele>59.6</ele>
        <time>2023-07-02T11:09:32Z</time>
      </trkpt>
      <trkpt lat="49.81888" lon="2.53326">
        <ele>59.6</ele>
        <time>2023-07-02T11:09:33Z</time>
      </trkpt>
      <trkpt lat="49.81886" lon="2.53325">
        <ele>59.8</ele>
        <time>2023-07-02T11:09:35Z</time>
      </trkpt>
      <trkpt lat="49.81885" lon="2.53325">
        <ele>59.9</ele>
        <time>2023-07-02T11:09:36Z</time>
      </trkpt>
      <trkpt lat="49.81885" lon="2.53324">
        <ele>60.1</ele>
        <time>2023-07-02T11:09:38Z</time>
      </trkpt>
      <trkpt lat="49.81885" lon="2.53324">
        <ele>60.1</ele>
        <time>2023-07-02T11:09:39Z</time>
      </trkpt>
      <trkpt lat="49.81885" lon="2.53324">
        <ele>59.9</ele>
        <time>2023-07-02T11:09:41Z</time>
      </trkpt>
      <trkpt lat="49.81886" lon="2.53324">
        <ele>59.9</ele>
        <time>2023-07-02T11:09:42Z</time>
      </trkpt>
      <trkpt lat="49.81886" lon="2.53324">
        <ele>59.9</ele>
        <time>2023-07-02T11:09:43Z</time>
      </trkpt>
      <trkpt lat="49.81886" lon="2.53324">
        <ele>59.9</ele>
        <time>2023-07-02T11:09:45Z</time>
      </trkpt>
      <trkpt lat="49.81886" lon="2.53324">
        <ele>59.8</ele>
        <time>2023-07-02T11:09:46Z</time>
      </trkpt>
      <trkpt lat="49.81886" lon="2.53324">
        <ele>59.8</ele>
        <time>2023-07-02T11:09:48Z</time>
      </trkpt>
      <trkpt lat="49.81886" lon="2.53325">
        <ele>59.8</ele>
        <time>2023-07-02T11:09:50Z</time>
      </trkpt>
      <trkpt lat="49.81885" lon="2.53326">
        <ele>59.7</ele>
        <time>2023-07-02T11:09:51Z</time>
      </trkpt>
      <trkpt lat="49.81885" lon="2.53327">
        <ele>59.7</ele>
        <time>2023-07-02T11:09:52Z</time>
      </trkpt>
      <trkpt lat="49.81885" lon="2.53328">
        <ele>59.7</ele>
        <time>2023-07-02T11:09:53Z</time>
      </trkpt>
      <trkpt lat="49.81886" lon="2.53329">
        <ele>59.7</ele>
        <time>2023-07-02T11:09:55Z</time>
      </trkpt>
      <trkpt lat="49.81886" lon="2.5333">
        <ele>59.6</ele>
        <time>2023-07-02T11:09:56Z</time>
      </trkpt>
      <trkpt lat="49.81886" lon="2.5333">
        <ele>59.6</ele>
        <time>2023-07-02T11:09:57Z</time>
      </trkpt>
      <trkpt lat="49.81885" lon="2.53331">
        <ele>59.6</ele>
        <time>2023-07-02T11:09:58Z</time>
      </trkpt>
      <trkpt lat="49.81885" lon="2.53331">
        <ele>59.7</ele>
        <time>2023-07-02T11:10:00Z</time>
      </trkpt>
      <trkpt lat="49.81885" lon="2.5333">
        <ele>59.7</ele>
        <time>2023-07-02T11:10:01Z</time>
      </trkpt>
      <trkpt lat="49.81884" lon="2.53329">
        <ele>59.8</ele>
        <time>2023-07-02T11:10:03Z</time>
      </trkpt>
      <trkpt lat="49.81884" lon="2.53328">
        <ele>59.8</ele>
        <time>2023-07-02T11:10:04Z</time>
      </trkpt>
      <trkpt lat="49.81885" lon="2.53328">
        <ele>59.8</ele>
        <time>2023-07-02T11:10:06Z</time>
      </trkpt>
      <trkpt lat="49.81885" lon="2.53328">
        <ele>59.8</ele>
        <time>2023-07-02T11:10:07Z</time>
      </trkpt>
      <trkpt lat="49.81885" lon="2.53328">
        <ele>59.8</ele>
        <time>2023-07-02T11:10:08Z</time>
      </trkpt>
      <trkpt lat="49.81885" lon="2.53328">
        <ele>59.8</ele>
        <time>2023-07-02T11:10:10Z</time>
      </trkpt>
      <trkpt lat="49.81885" lon="2.53328">
        <ele>59.8</ele>
        <time>2023-07-02T11:10:11Z</time>
      </trkpt>
      <trkpt lat="49.81884" lon="2.53328">
        <ele>59.8</ele>
        <time>2023-07-02T11:10:13Z</time>
      </trkpt>
      <trkpt lat="49.81884" lon="2.53328">
        <ele>59.7</ele>
        <time>2023-07-02T11:10:14Z</time>
      </trkpt>
      <trkpt lat="49.81884" lon="2.53328">
        <ele>59.7</ele>
        <time>2023-07-02T11:10:16Z</time>
      </trkpt>
      <trkpt lat="49.81884" lon="2.53328">
        <ele>59.7</ele>
        <time>2023-07-02T11:10:17Z</time>
      </trkpt>
      <trkpt lat="49.81884" lon="2.53328">
        <ele>59.7</ele>
        <time>2023-07-02T11:10:19Z</time>
      </trkpt>
      <trkpt lat="49.81884" lon="2.53328">
        <ele>59.7</ele>
        <time>2023-07-02T11:10:20Z</time>
      </trkpt>
      <trkpt lat="49.81884" lon="2.53328">
        <ele>59.7</ele>
        <time>2023-07-02T11:10:21Z</time>
      </trkpt>
      <trkpt lat="49.81884" lon="2.53328">
        <ele>59.7</ele>
        <time>2023-07-02T11:10:23Z</time>
      </trkpt>
      <trkpt lat="49.81884" lon="2.53328">
        <ele>59.7</ele>
        <time>2023-07-02T11:10:24Z</time>
      </trkpt>
      <trkpt lat="49.81884" lon="2.53328">
        <ele>59.7</ele>
        <time>2023-07-02T11:10:25Z</time>
      </trkpt>
      <trkpt lat="49.81884" lon="2.53328">
        <ele>59.7</ele>
        <time>2023-07-02T11:10:26Z</time>
      </trkpt>
      <trkpt lat="49.81884" lon="2.53328">
        <ele>59.6</ele>
        <time>2023-07-02T11:10:27Z</time>
      </trkpt>
      <trkpt lat="49.81884" lon="2.53328">
        <ele>59.6</ele>
        <time>2023-07-02T11:10:28Z</time>
      </trkpt>
      <trkpt lat="49.81884" lon="2.53328">
        <ele>59.6</ele>
        <time>2023-07-02T11:10:29Z</time>
      </trkpt>
      <trkpt lat="49.81884" lon="2.53328">
        <ele>59.6</ele>
        <time>2023-07-02T11:10:30Z</time>
      </trkpt>
      <trkpt lat="49.81884" lon="2.53328">
        <ele>59.6</ele>
        <time>2023-07-02T11:10:31Z</time>
      </trkpt>
      <trkpt lat="49.81884" lon="2.53328">
        <ele>59.6</ele>
        <time>2023-07-02T11:10:32Z</time>
      </trkpt>
      <trkpt lat="49.81884" lon="2.53328">
        <ele>59.6</ele>
        <time>2023-07-02T11:10:33Z</time>
      </trkpt>
      <trkpt lat="49.81883" lon="2.53329">
        <ele>59.6</ele>
        <time>2023-07-02T11:10:34Z</time>
      </trkpt>
      <trkpt lat="49.81883" lon="2.5333">
        <ele>59.5</ele>
        <time>2023-07-02T11:10:36Z</time>
      </trkpt>
      <trkpt lat="49.81882" lon="2.53331">
        <ele>59.6</ele>
        <time>2023-07-02T11:10:37Z</time>
      </trkpt>
      <trkpt lat="49.81881" lon="2.53331">
        <ele>59.6</ele>
        <time>2023-07-02T11:10:38Z</time>
      </trkpt>
      <trkpt lat="49.8188" lon="2.53332">
        <ele>59.6</ele>
        <time>2023-07-02T11:10:39Z</time>
      </trkpt>
      <trkpt lat="49.81879" lon="2.53332">
        <ele>59.8</ele>
        <time>2023-07-02T11:10:40Z</time>
      </trkpt>
      <trkpt lat="49.81878" lon="2.53332">
        <ele>59.8</ele>
        <time>2023-07-02T11:10:42Z</time>
      </trkpt>
      <trkpt lat="49.81876" lon="2.53332">
        <ele>59.9</ele>
        <time>2023-07-02T11:10:43Z</time>
      </trkpt>
      <trkpt lat="49.81876" lon="2.53334">
        <ele>59.8</ele>
        <time>2023-07-02T11:10:44Z</time>
      </trkpt>
      <trkpt lat="49.81875" lon="2.53336">
        <ele>59.8</ele>
        <time>2023-07-02T11:10:46Z</time>
      </trkpt>
      <trkpt lat="49.81874" lon="2.53337">
        <ele>59.9</ele>
        <time>2023-07-02T11:10:47Z</time>
      </trkpt>
      <trkpt lat="49.81873" lon="2.53338">
        <ele>60</ele>
        <time>2023-07-02T11:10:48Z</time>
      </trkpt>
      <trkpt lat="49.81872" lon="2.53339">
        <ele>60.1</ele>
        <time>2023-07-02T11:10:49Z</time>
      </trkpt>
      <trkpt lat="49.81872" lon="2.5334">
        <ele>60.1</ele>
        <time>2023-07-02T11:10:50Z</time>
      </trkpt>
      <trkpt lat="49.81871" lon="2.53341">
        <ele>60.1</ele>
        <time>2023-07-02T11:10:51Z</time>
      </trkpt>
      <trkpt lat="49.8187" lon="2.53342">
        <ele>60.1</ele>
        <time>2023-07-02T11:10:53Z</time>
      </trkpt>
      <trkpt lat="49.81869" lon="2.53342">
        <ele>60.2</ele>
        <time>2023-07-02T11:10:55Z</time>
      </trkpt>
      <trkpt lat="49.81868" lon="2.53341">
        <ele>60.2</ele>
        <time>2023-07-02T11:10:56Z</time>
      </trkpt>
      <trkpt lat="49.81868" lon="2.5334">
        <ele>60.2</ele>
        <time>2023-07-02T11:10:58Z</time>
      </trkpt>
      <trkpt lat="49.81868" lon="2.5334">
        <ele>60.2</ele>
        <time>2023-07-02T11:10:59Z</time>
      </trkpt>
      <trkpt lat="49.81868" lon="2.5334">
        <ele>60.2</ele>
        <time>2023-07-02T11:11:01Z</time>
      </trkpt>
      <trkpt lat="49.81868" lon="2.53341">
        <ele>60.2</ele>
        <time>2023-07-02T11:11:02Z</time>
      </trkpt>
      <trkpt lat="49.81869" lon="2.53341">
        <ele>60.3</ele>
        <time>2023-07-02T11:11:04Z</time>
      </trkpt>
      <trkpt lat="49.81869" lon="2.53341">
        <ele>60.3</ele>
        <time>2023-07-02T11:11:05Z</time>
      </trkpt>
      <trkpt lat="49.81869" lon="2.53341">
        <ele>60.3</ele>
        <time>2023-07-02T11:11:06Z</time>
      </trkpt>
      <trkpt lat="49.81869" lon="2.53341">
        <ele>60.3</ele>
        <time>2023-07-02T11:11:08Z</time>
      </trkpt>
      <trkpt lat="49.81869" lon="2.53341">
        <ele>60.3</ele>
        <time>2023-07-02T11:11:09Z</time>
      </trkpt>
      <trkpt lat="49.81868" lon="2.53342">
        <ele>60.3</ele>
        <time>2023-07-02T11:11:10Z</time>
      </trkpt>
      <trkpt lat="49.81867" lon="2.53342">
        <ele>60.3</ele>
        <time>2023-07-02T11:11:12Z</time>
      </trkpt>
      <trkpt lat="49.81867" lon="2.53343">
        <ele>60.3</ele>
        <time>2023-07-02T11:11:13Z</time>
      </trkpt>
      <trkpt lat="49.81866" lon="2.53343">
        <ele>60.4</ele>
        <time>2023-07-02T11:11:14Z</time>
      </trkpt>
      <trkpt lat="49.81866" lon="2.53343">
        <ele>60.4</ele>
        <time>2023-07-02T11:11:16Z</time>
      </trkpt>
      <trkpt lat="49.81866" lon="2.53343">
        <ele>60.4</ele>
        <time>2023-07-02T11:11:17Z</time>
      </trkpt>
      <trkpt lat="49.81866" lon="2.53343">
        <ele>60.4</ele>
        <time>2023-07-02T11:11:18Z</time>
      </trkpt>
      <trkpt lat="49.81866" lon="2.53343">
        <ele>60.4</ele>
        <time>2023-07-02T11:11:19Z</time>
      </trkpt>
      <trkpt lat="49.81866" lon="2.53343">
        <ele>60.4</ele>
        <time>2023-07-02T11:11:20Z</time>
      </trkpt>
      <trkpt lat="49.81865" lon="2.53343">
        <ele>60.4</ele>
        <time>2023-07-02T11:11:21Z</time>
      </trkpt>
      <trkpt lat="49.81865" lon="2.53343">
        <ele>60.4</ele>
        <time>2023-07-02T11:11:22Z</time>
      </trkpt>
      <trkpt lat="49.81865" lon="2.53343">
        <ele>60.4</ele>
        <time>2023-07-02T11:11:23Z</time>
      </trkpt>
      <trkpt lat="49.81865" lon="2.53343">
        <ele>60.4</ele>
        <time>2023-07-02T11:11:24Z</time>
      </trkpt>
      <trkpt lat="49.81865" lon="2.53343">
        <ele>60.4</ele>
        <time>2023-07-02T11:11:25Z</time>
      </trkpt>
      <trkpt lat="49.81865" lon="2.53343">
        <ele>60.4</ele>
        <time>2023-07-02T11:11:26Z</time>
      </trkpt>
      <trkpt lat="49.81865" lon="2.53343">
        <ele>60.4</ele>
        <time>2023-07-02T11:11:27Z</time>
      </trkpt>
      <trkpt lat="49.81864" lon="2.53344">
        <ele>60.4</ele>
        <time>2023-07-02T11:11:29Z</time>
      </trkpt>
      <trkpt lat="49.81864" lon="2.53344">
        <ele>60.4</ele>
        <time>2023-07-02T11:11:31Z</time>
      </trkpt>
      <trkpt lat="49.81863" lon="2.53344">
        <ele>60.5</ele>
        <time>2023-07-02T11:11:32Z</time>
      </trkpt>
      <trkpt lat="49.81862" lon="2.53344">
        <ele>60.5</ele>
        <time>2023-07-02T11:11:33Z</time>
      </trkpt>
      <trkpt lat="49.81861" lon="2.53344">
        <ele>60.5</ele>
        <time>2023-07-02T11:11:34Z</time>
      </trkpt>
      <trkpt lat="49.8186" lon="2.53344">
        <ele>60.6</ele>
        <time>2023-07-02T11:11:35Z</time>
      </trkpt>
      <trkpt lat="49.81859" lon="2.53344">
        <ele>60.6</ele>
        <time>2023-07-02T11:11:37Z</time>
      </trkpt>
      <trkpt lat="49.81859" lon="2.53343">
        <ele>60.6</ele>
        <time>2023-07-02T11:11:38Z</time>
      </trkpt>
      <trkpt lat="49.8186" lon="2.53343">
        <ele>60.6</ele>
        <time>2023-07-02T11:11:39Z</time>
      </trkpt>
      <trkpt lat="49.8186" lon="2.53342">
        <ele>60.6</ele>
        <time>2023-07-02T11:11:41Z</time>
      </trkpt>
      <trkpt lat="49.81861" lon="2.53343">
        <ele>60.7</ele>
        <time>2023-07-02T11:11:42Z</time>
      </trkpt>
      <trkpt lat="49.8186" lon="2.53343">
        <ele>60.7</ele>
        <time>2023-07-02T11:11:44Z</time>
      </trkpt>
      <trkpt lat="49.8186" lon="2.53343">
        <ele>60.7</ele>
        <time>2023-07-02T11:11:45Z</time>
      </trkpt>
      <trkpt lat="49.8186" lon="2.53343">
        <ele>60.7</ele>
        <time>2023-07-02T11:11:47Z</time>
      </trkpt>
      <trkpt lat="49.8186" lon="2.53343">
        <ele>60.7</ele>
        <time>2023-07-02T11:11:48Z</time>
      </trkpt>
      <trkpt lat="49.8186" lon="2.53344">
        <ele>60.7</ele>
        <time>2023-07-02T11:11:50Z</time>
      </trkpt>
      <trkpt lat="49.8186" lon="2.53344">
        <ele>60.7</ele>
        <time>2023-07-02T11:11:51Z</time>
      </trkpt>
      <trkpt lat="49.8186" lon="2.53345">
        <ele>60.7</ele>
        <time>2023-07-02T11:11:52Z</time>
      </trkpt>
      <trkpt lat="49.81859" lon="2.53346">
        <ele>60.7</ele>
        <time>2023-07-02T11:11:54Z</time>
      </trkpt>
      <trkpt lat="49.81859" lon="2.53346">
        <ele>60.8</ele>
        <time>2023-07-02T11:11:55Z</time>
      </trkpt>
      <trkpt lat="49.81858" lon="2.53347">
        <ele>60.8</ele>
        <time>2023-07-02T11:11:56Z</time>
      </trkpt>
      <trkpt lat="49.81857" lon="2.53347">
        <ele>60.8</ele>
        <time>2023-07-02T11:11:57Z</time>
      </trkpt>
      <trkpt lat="49.81856" lon="2.53347">
        <ele>60.8</ele>
        <time>2023-07-02T11:11:59Z</time>
      </trkpt>
      <trkpt lat="49.81855" lon="2.53347">
        <ele>60.9</ele>
        <time>2023-07-02T11:12:00Z</time>
      </trkpt>
      <trkpt lat="49.81854" lon="2.53348">
        <ele>60.9</ele>
        <time>2023-07-02T11:12:01Z</time>
      </trkpt>
      <trkpt lat="49.81854" lon="2.53349">
        <ele>60.9</ele>
        <time>2023-07-02T11:12:02Z</time>
      </trkpt>
      <trkpt lat="49.81852" lon="2.5335">
        <ele>60.9</ele>
        <time>2023-07-02T11:12:03Z</time>
      </trkpt>
      <trkpt lat="49.81851" lon="2.5335">
        <ele>61</ele>
        <time>2023-07-02T11:12:04Z</time>
      </trkpt>
      <trkpt lat="49.81849" lon="2.53351">
        <ele>61</ele>
        <time>2023-07-02T11:12:05Z</time>
      </trkpt>
      <trkpt lat="49.81848" lon="2.53351">
        <ele>61</ele>
        <time>2023-07-02T11:12:07Z</time>
      </trkpt>
      <trkpt lat="49.81847" lon="2.53351">
        <ele>61</ele>
        <time>2023-07-02T11:12:08Z</time>
      </trkpt>
      <trkpt lat="49.81846" lon="2.53351">
        <ele>61.1</ele>
        <time>2023-07-02T11:12:09Z</time>
      </trkpt>
      <trkpt lat="49.81844" lon="2.53352">
        <ele>61.1</ele>
        <time>2023-07-02T11:12:10Z</time>
      </trkpt>
      <trkpt lat="49.81843" lon="2.53352">
        <ele>61.1</ele>
        <time>2023-07-02T11:12:12Z</time>
      </trkpt>
      <trkpt lat="49.81843" lon="2.53353">
        <ele>61.1</ele>
        <time>2023-07-02T11:12:13Z</time>
      </trkpt>
      <trkpt lat="49.81843" lon="2.53353">
        <ele>61.1</ele>
        <time>2023-07-02T11:12:14Z</time>
      </trkpt>
      <trkpt lat="49.81844" lon="2.53353">
        <ele>61.2</ele>
        <time>2023-07-02T11:12:16Z</time>
      </trkpt>
      <trkpt lat="49.81845" lon="2.53353">
        <ele>61.2</ele>
        <time>2023-07-02T11:12:17Z</time>
      </trkpt>
      <trkpt lat="49.81844" lon="2.53352">
        <ele>61.2</ele>
        <time>2023-07-02T11:12:19Z</time>
      </trkpt>
      <trkpt lat="49.81844" lon="2.53352">
        <ele>61.2</ele>
        <time>2023-07-02T11:12:20Z</time>
      </trkpt>
      <trkpt lat="49.81844" lon="2.53352">
        <ele>61.2</ele>
        <time>2023-07-02T11:12:22Z</time>
      </trkpt>
      <trkpt lat="49.81844" lon="2.53352">
        <ele>61.2</ele>
        <time>2023-07-02T11:12:23Z</time>
      </trkpt>
      <trkpt lat="49.81843" lon="2.53352">
        <ele>61.2</ele>
        <time>2023-07-02T11:12:24Z</time>
      </trkpt>
      <trkpt lat="49.81843" lon="2.53351">
        <ele>61.2</ele>
        <time>2023-07-02T11:12:26Z</time>
      </trkpt>
      <trkpt lat="49.81842" lon="2.53351">
        <ele>61.2</ele>
        <time>2023-07-02T11:12:27Z</time>
      </trkpt>
      <trkpt lat="49.81841" lon="2.53351">
        <ele>61.3</ele>
        <time>2023-07-02T11:12:28Z</time>
      </trkpt>
      <trkpt lat="49.81839" lon="2.53352">
        <ele>61.3</ele>
        <time>2023-07-02T11:12:29Z</time>
      </trkpt>
      <trkpt lat="49.81838" lon="2.53352">
        <ele>61.3</ele>
        <time>2023-07-02T11:12:30Z</time>
      </trkpt>
      <trkpt lat="49.81837" lon="2.53353">
        <ele>61.3</ele>
        <time>2023-07-02T11:12:32Z</time>
      </trkpt>
      <trkpt lat="49.81835" lon="2.53356">
        <ele>61.3</ele>
        <time>2023-07-02T11:12:33Z</time>
      </trkpt>
      <trkpt lat="49.81835" lon="2.53356">
        <ele>61.4</ele>
        <time>2023-07-02T11:12:34Z</time>
      </trkpt>
      <trkpt lat="49.81834" lon="2.53357">
        <ele>61.4</ele>
        <time>2023-07-02T11:12:35Z</time>
      </trkpt>
      <trkpt lat="49.81832" lon="2.53358">
        <ele>61.4</ele>
        <time>2023-07-02T11:12:36Z</time>
      </trkpt>
      <trkpt lat="49.81831" lon="2.53358">
        <ele>61.4</ele>
        <time>2023-07-02T11:12:37Z</time>
      </trkpt>
      <trkpt lat="49.81829" lon="2.53357">
        <ele>61.4</ele>
        <time>2023-07-02T11:12:38Z</time>
      </trkpt>
      <trkpt lat="49.81828" lon="2.53358">
        <ele>61.5</ele>
        <time>2023-07-02T11:12:39Z</time>
      </trkpt>
      <trkpt lat="49.81826" lon="2.5336">
        <ele>61.5</ele>
        <time>2023-07-02T11:12:40Z</time>
      </trkpt>
      <trkpt lat="49.81825" lon="2.53361">
        <ele>61.5</ele>
        <time>2023-07-02T11:12:42Z</time>
      </trkpt>
      <trkpt lat="49.81824" lon="2.53362">
        <ele>61.5</ele>
        <time>2023-07-02T11:12:43Z</time>
      </trkpt>
      <trkpt lat="49.81823" lon="2.53363">
        <ele>61.5</ele>
        <time>2023-07-02T11:12:44Z</time>
      </trkpt>
      <trkpt lat="49.81822" lon="2.53364">
        <ele>61.6</ele>
        <time>2023-07-02T11:12:45Z</time>
      </trkpt>
      <trkpt lat="49.81821" lon="2.53365">
        <ele>61.6</ele>
        <time>2023-07-02T11:12:46Z</time>
      </trkpt>
      <trkpt lat="49.8182" lon="2.53366">
        <ele>61.6</ele>
        <time>2023-07-02T11:12:47Z</time>
      </trkpt>
      <trkpt lat="49.81819" lon="2.53367">
        <ele>61.6</ele>
        <time>2023-07-02T11:12:49Z</time>
      </trkpt>
      <trkpt lat="49.81818" lon="2.53368">
        <ele>61.6</ele>
        <time>2023-07-02T11:12:50Z</time>
      </trkpt>
      <trkpt lat="49.81817" lon="2.53369">
        <ele>61.7</ele>
        <time>2023-07-02T11:12:51Z</time>
      </trkpt>
      <trkpt lat="49.81816" lon="2.5337">
        <ele>61.7</ele>
        <time>2023-07-02T11:12:52Z</time>
      </trkpt>
      <trkpt lat="49.81815" lon="2.53371">
        <ele>61.7</ele>
        <time>2023-07-02T11:12:53Z</time>
      </trkpt>
      <trkpt lat="49.81814" lon="2.53372">
        <ele>61.7</ele>
        <time>2023-07-02T11:12:54Z</time>
      </trkpt>
      <trkpt lat="49.81813" lon="2.53372">
        <ele>61.7</ele>
        <time>2023-07-02T11:12:55Z</time>
      </trkpt>
      <trkpt lat="49.81812" lon="2.53374">
        <ele>61.7</ele>
        <time>2023-07-02T11:12:56Z</time>
      </trkpt>
      <trkpt lat="49.81811" lon="2.53375">
        <ele>61.8</ele>
        <time>2023-07-02T11:12:58Z</time>
      </trkpt>
      <trkpt lat="49.81811" lon="2.53376">
        <ele>61.8</ele>
        <time>2023-07-02T11:12:59Z</time>
      </trkpt>
      <trkpt lat="49.8181" lon="2.53377">
        <ele>61.8</ele>
        <time>2023-07-02T11:13:00Z</time>
      </trkpt>
      <trkpt lat="49.81809" lon="2.53378">
        <ele>61.8</ele>
        <time>2023-07-02T11:13:01Z</time>
      </trkpt>
      <trkpt lat="49.81809" lon="2.53378">
        <ele>61.8</ele>
        <time>2023-07-02T11:13:02Z</time>
      </trkpt>
      <trkpt lat="49.81808" lon="2.53379">
        <ele>61.8</ele>
        <time>2023-07-02T11:13:03Z</time>
      </trkpt>
      <trkpt lat="49.81807" lon="2.5338">
        <ele>61.8</ele>
        <time>2023-07-02T11:13:04Z</time>
      </trkpt>
      <trkpt lat="49.81806" lon="2.53382">
        <ele>61.9</ele>
        <time>2023-07-02T11:13:05Z</time>
      </trkpt>
      <trkpt lat="49.81805" lon="2.53383">
        <ele>61.9</ele>
        <time>2023-07-02T11:13:07Z</time>
      </trkpt>
      <trkpt lat="49.81804" lon="2.53385">
        <ele>61.9</ele>
        <time>2023-07-02T11:13:08Z</time>
      </trkpt>
      <trkpt lat="49.81803" lon="2.53386">
        <ele>61.9</ele>
        <time>2023-07-02T11:13:09Z</time>
      </trkpt>
      <trkpt lat="49.81802" lon="2.53388">
        <ele>61.9</ele>
        <time>2023-07-02T11:13:10Z</time>
      </trkpt>
      <trkpt lat="49.81801" lon="2.53389">
        <ele>61.9</ele>
        <time>2023-07-02T11:13:11Z</time>
      </trkpt>
      <trkpt lat="49.818" lon="2.53391">
        <ele>62</ele>
        <time>2023-07-02T11:13:12Z</time>
      </trkpt>
      <trkpt lat="49.81799" lon="2.53393">
        <ele>62</ele>
        <time>2023-07-02T11:13:13Z</time>
      </trkpt>
      <trkpt lat="49.81798" lon="2.53394">
        <ele>62</ele>
        <time>2023-07-02T11:13:15Z</time>
      </trkpt>
      <trkpt lat="49.81797" lon="2.53396">
        <ele>62</ele>
        <time>2023-07-02T11:13:16Z</time>
      </trkpt>
      <trkpt lat="49.81795" lon="2.53398">
        <ele>62</ele>
        <time>2023-07-02T11:13:17Z</time>
      </trkpt>
      <trkpt lat="49.81795" lon="2.53399">
        <ele>62.1</ele>
        <time>2023-07-02T11:13:18Z</time>
      </trkpt>
      <trkpt lat="49.81794" lon="2.534">
        <ele>62.1</ele>
        <time>2023-07-02T11:13:19Z</time>
      </trkpt>
      <trkpt lat="49.81792" lon="2.53402">
        <ele>62.1</ele>
        <time>2023-07-02T11:13:20Z</time>
      </trkpt>
      <trkpt lat="49.81792" lon="2.53403">
        <ele>62.1</ele>
        <time>2023-07-02T11:13:22Z</time>
      </trkpt>
      <trkpt lat="49.81791" lon="2.53403">
        <ele>62.1</ele>
        <time>2023-07-02T11:13:23Z</time>
      </trkpt>
      <trkpt lat="49.8179" lon="2.53404">
        <ele>62.1</ele>
        <time>2023-07-02T11:13:24Z</time>
      </trkpt>
      <trkpt lat="49.81789" lon="2.53405">
        <ele>62.1</ele>
        <time>2023-07-02T11:13:25Z</time>
      </trkpt>
      <trkpt lat="49.81788" lon="2.53406">
        <ele>62.1</ele>
        <time>2023-07-02T11:13:26Z</time>
      </trkpt>
      <trkpt lat="49.81787" lon="2.53407">
        <ele>62.1</ele>
        <time>2023-07-02T11:13:27Z</time>
      </trkpt>
      <trkpt lat="49.81786" lon="2.53408">
        <ele>62.1</ele>
        <time>2023-07-02T11:13:28Z</time>
      </trkpt>
      <trkpt lat="49.81785" lon="2.53409">
        <ele>62.1</ele>
        <time>2023-07-02T11:13:30Z</time>
      </trkpt>
      <trkpt lat="49.81783" lon="2.53411">
        <ele>62.1</ele>
        <time>2023-07-02T11:13:31Z</time>
      </trkpt>
      <trkpt lat="49.81782" lon="2.53412">
        <ele>62.1</ele>
        <time>2023-07-02T11:13:32Z</time>
      </trkpt>
      <trkpt lat="49.81781" lon="2.53413">
        <ele>62</ele>
        <time>2023-07-02T11:13:33Z</time>
      </trkpt>
      <trkpt lat="49.8178" lon="2.53414">
        <ele>62</ele>
        <time>2023-07-02T11:13:34Z</time>
      </trkpt>
      <trkpt lat="49.81778" lon="2.53415">
        <ele>62</ele>
        <time>2023-07-02T11:13:36Z</time>
      </trkpt>
      <trkpt lat="49.81777" lon="2.53416">
        <ele>62</ele>
        <time>2023-07-02T11:13:37Z</time>
      </trkpt>
      <trkpt lat="49.81776" lon="2.53417">
        <ele>62</ele>
        <time>2023-07-02T11:13:38Z</time>
      </trkpt>
      <trkpt lat="49.81775" lon="2.53418">
        <ele>61.9</ele>
        <time>2023-07-02T11:13:39Z</time>
      </trkpt>
      <trkpt lat="49.81774" lon="2.53419">
        <ele>61.9</ele>
        <time>2023-07-02T11:13:40Z</time>
      </trkpt>
      <trkpt lat="49.81773" lon="2.5342">
        <ele>61.9</ele>
        <time>2023-07-02T11:13:41Z</time>
      </trkpt>
      <trkpt lat="49.81772" lon="2.53421">
        <ele>61.9</ele>
        <time>2023-07-02T11:13:43Z</time>
      </trkpt>
      <trkpt lat="49.81771" lon="2.53423">
        <ele>61.8</ele>
        <time>2023-07-02T11:13:44Z</time>
      </trkpt>
      <trkpt lat="49.8177" lon="2.53423">
        <ele>61.8</ele>
        <time>2023-07-02T11:13:45Z</time>
      </trkpt>
      <trkpt lat="49.81769" lon="2.53424">
        <ele>61.8</ele>
        <time>2023-07-02T11:13:46Z</time>
      </trkpt>
      <trkpt lat="49.81768" lon="2.53425">
        <ele>61.7</ele>
        <time>2023-07-02T11:13:47Z</time>
      </trkpt>
      <trkpt lat="49.81766" lon="2.53427">
        <ele>61.7</ele>
        <time>2023-07-02T11:13:48Z</time>
      </trkpt>
      <trkpt lat="49.81765" lon="2.53428">
        <ele>61.7</ele>
        <time>2023-07-02T11:13:49Z</time>
      </trkpt>
      <trkpt lat="49.81765" lon="2.53428">
        <ele>61.6</ele>
        <time>2023-07-02T11:13:50Z</time>
      </trkpt>
      <trkpt lat="49.81763" lon="2.53431">
        <ele>61.5</ele>
        <time>2023-07-02T11:13:52Z</time>
      </trkpt>
      <trkpt lat="49.81761" lon="2.53433">
        <ele>61.5</ele>
        <time>2023-07-02T11:13:54Z</time>
      </trkpt>
      <trkpt lat="49.8176" lon="2.53435">
        <ele>61.4</ele>
        <time>2023-07-02T11:13:55Z</time>
      </trkpt>
      <trkpt lat="49.81759" lon="2.53436">
        <ele>61.3</ele>
        <time>2023-07-02T11:13:56Z</time>
      </trkpt>
      <trkpt lat="49.81758" lon="2.53438">
        <ele>61.3</ele>
        <time>2023-07-02T11:13:57Z</time>
      </trkpt>
      <trkpt lat="49.81757" lon="2.53438">
        <ele>61.3</ele>
        <time>2023-07-02T11:13:58Z</time>
      </trkpt>
      <trkpt lat="49.81756" lon="2.53439">
        <ele>61.2</ele>
        <time>2023-07-02T11:13:59Z</time>
      </trkpt>
      <trkpt lat="49.81754" lon="2.53441">
        <ele>61.1</ele>
        <time>2023-07-02T11:14:01Z</time>
      </trkpt>
      <trkpt lat="49.81754" lon="2.53442">
        <ele>61.1</ele>
        <time>2023-07-02T11:14:02Z</time>
      </trkpt>
      <trkpt lat="49.81753" lon="2.53442">
        <ele>61.1</ele>
        <time>2023-07-02T11:14:03Z</time>
      </trkpt>
      <trkpt lat="49.81751" lon="2.53444">
        <ele>61</ele>
        <time>2023-07-02T11:14:04Z</time>
      </trkpt>
      <trkpt lat="49.8175" lon="2.53444">
        <ele>60.9</ele>
        <time>2023-07-02T11:14:05Z</time>
      </trkpt>
      <trkpt lat="49.8175" lon="2.53445">
        <ele>60.9</ele>
        <time>2023-07-02T11:14:06Z</time>
      </trkpt>
      <trkpt lat="49.81749" lon="2.53446">
        <ele>60.8</ele>
        <time>2023-07-02T11:14:07Z</time>
      </trkpt>
      <trkpt lat="49.81748" lon="2.53447">
        <ele>60.8</ele>
        <time>2023-07-02T11:14:08Z</time>
      </trkpt>
      <trkpt lat="49.81747" lon="2.53448">
        <ele>60.7</ele>
        <time>2023-07-02T11:14:10Z</time>
      </trkpt>
      <trkpt lat="49.81747" lon="2.53449">
        <ele>60.7</ele>
        <time>2023-07-02T11:14:11Z</time>
      </trkpt>
      <trkpt lat="49.81746" lon="2.53451">
        <ele>60.6</ele>
        <time>2023-07-02T11:14:12Z</time>
      </trkpt>
      <trkpt lat="49.81746" lon="2.53453">
        <ele>60.6</ele>
        <time>2023-07-02T11:14:13Z</time>
      </trkpt>
      <trkpt lat="49.81745" lon="2.53456">
        <ele>60.4</ele>
        <time>2023-07-02T11:14:14Z</time>
      </trkpt>
      <trkpt lat="49.81745" lon="2.53458">
        <ele>60.4</ele>
        <time>2023-07-02T11:14:16Z</time>
      </trkpt>
      <trkpt lat="49.81745" lon="2.53459">
        <ele>60.3</ele>
        <time>2023-07-02T11:14:17Z</time>
      </trkpt>
      <trkpt lat="49.81744" lon="2.53461">
        <ele>60.3</ele>
        <time>2023-07-02T11:14:18Z</time>
      </trkpt>
      <trkpt lat="49.81744" lon="2.53462">
        <ele>60.2</ele>
        <time>2023-07-02T11:14:19Z</time>
      </trkpt>
      <trkpt lat="49.81743" lon="2.53463">
        <ele>60.2</ele>
        <time>2023-07-02T11:14:20Z</time>
      </trkpt>
      <trkpt lat="49.81743" lon="2.53462">
        <ele>60.1</ele>
        <time>2023-07-02T11:14:21Z</time>
      </trkpt>
      <trkpt lat="49.81743" lon="2.53462">
        <ele>60.1</ele>
        <time>2023-07-02T11:14:22Z</time>
      </trkpt>
      <trkpt lat="49.81743" lon="2.53461">
        <ele>60.1</ele>
        <time>2023-07-02T11:14:24Z</time>
      </trkpt>
      <trkpt lat="49.81743" lon="2.53461">
        <ele>60.1</ele>
        <time>2023-07-02T11:14:25Z</time>
      </trkpt>
      <trkpt lat="49.81743" lon="2.5346">
        <ele>60</ele>
        <time>2023-07-02T11:14:27Z</time>
      </trkpt>
      <trkpt lat="49.81743" lon="2.5346">
        <ele>60</ele>
        <time>2023-07-02T11:14:28Z</time>
      </trkpt>
      <trkpt lat="49.81743" lon="2.5346">
        <ele>60</ele>
        <time>2023-07-02T11:14:29Z</time>
      </trkpt>
      <trkpt lat="49.81743" lon="2.53459">
        <ele>60</ele>
        <time>2023-07-02T11:14:31Z</time>
      </trkpt>
      <trkpt lat="49.81743" lon="2.53459">
        <ele>60</ele>
        <time>2023-07-02T11:14:32Z</time>
      </trkpt>
      <trkpt lat="49.81743" lon="2.53459">
        <ele>60</ele>
        <time>2023-07-02T11:14:34Z</time>
      </trkpt>
      <trkpt lat="49.81743" lon="2.53459">
        <ele>60</ele>
        <time>2023-07-02T11:14:35Z</time>
      </trkpt>
      <trkpt lat="49.81743" lon="2.53459">
        <ele>60</ele>
        <time>2023-07-02T11:14:37Z</time>
      </trkpt>
      <trkpt lat="49.81743" lon="2.53459">
        <ele>60</ele>
        <time>2023-07-02T11:14:38Z</time>
      </trkpt>
      <trkpt lat="49.81743" lon="2.53459">
        <ele>59.9</ele>
        <time>2023-07-02T11:14:39Z</time>
      </trkpt>
      <trkpt lat="49.81743" lon="2.5346">
        <ele>59.9</ele>
        <time>2023-07-02T11:14:40Z</time>
      </trkpt>
      <trkpt lat="49.81743" lon="2.5346">
        <ele>59.9</ele>
        <time>2023-07-02T11:14:42Z</time>
      </trkpt>
      <trkpt lat="49.81742" lon="2.5346">
        <ele>59.9</ele>
        <time>2023-07-02T11:14:43Z</time>
      </trkpt>
      <trkpt lat="49.81742" lon="2.5346">
        <ele>59.9</ele>
        <time>2023-07-02T11:14:44Z</time>
      </trkpt>
      <trkpt lat="49.81741" lon="2.53461">
        <ele>59.8</ele>
        <time>2023-07-02T11:14:45Z</time>
      </trkpt>
      <trkpt lat="49.8174" lon="2.53462">
        <ele>59.7</ele>
        <time>2023-07-02T11:14:47Z</time>
      </trkpt>
      <trkpt lat="49.8174" lon="2.53464">
        <ele>59.6</ele>
        <time>2023-07-02T11:14:48Z</time>
      </trkpt>
      <trkpt lat="49.81739" lon="2.53465">
        <ele>59.5</ele>
        <time>2023-07-02T11:14:49Z</time>
      </trkpt>
      <trkpt lat="49.81738" lon="2.53467">
        <ele>59.4</ele>
        <time>2023-07-02T11:14:50Z</time>
      </trkpt>
      <trkpt lat="49.81737" lon="2.53469">
        <ele>59.2</ele>
        <time>2023-07-02T11:14:51Z</time>
      </trkpt>
      <trkpt lat="49.81737" lon="2.5347">
        <ele>59.1</ele>
        <time>2023-07-02T11:14:52Z</time>
      </trkpt>
      <trkpt lat="49.81735" lon="2.53472">
        <ele>58.9</ele>
        <time>2023-07-02T11:14:54Z</time>
      </trkpt>
      <trkpt lat="49.81735" lon="2.53473">
        <ele>58.9</ele>
        <time>2023-07-02T11:14:55Z</time>
      </trkpt>
      <trkpt lat="49.81734" lon="2.53473">
        <ele>58.8</ele>
        <time>2023-07-02T11:14:56Z</time>
      </trkpt>
      <trkpt lat="49.81733" lon="2.53474">
        <ele>58.7</ele>
        <time>2023-07-02T11:14:57Z</time>
      </trkpt>
      <trkpt lat="49.81732" lon="2.53475">
        <ele>58.6</ele>
        <time>2023-07-02T11:14:59Z</time>
      </trkpt>
      <trkpt lat="49.81731" lon="2.53476">
        <ele>58.5</ele>
        <time>2023-07-02T11:15:00Z</time>
      </trkpt>
      <trkpt lat="49.8173" lon="2.53477">
        <ele>58.4</ele>
        <time>2023-07-02T11:15:01Z</time>
      </trkpt>
      <trkpt lat="49.81728" lon="2.53479">
        <ele>58.2</ele>
        <time>2023-07-02T11:15:02Z</time>
      </trkpt>
      <trkpt lat="49.81727" lon="2.5348">
        <ele>58</ele>
        <time>2023-07-02T11:15:03Z</time>
      </trkpt>
      <trkpt lat="49.81723" lon="2.53482">
        <ele>57.7</ele>
        <time>2023-07-02T11:15:04Z</time>
      </trkpt>
      <trkpt lat="49.81722" lon="2.53482">
        <ele>57.6</ele>
        <time>2023-07-02T11:15:05Z</time>
      </trkpt>
      <trkpt lat="49.8172" lon="2.53484">
        <ele>57.3</ele>
        <time>2023-07-02T11:15:06Z</time>
      </trkpt>
      <trkpt lat="49.81719" lon="2.53485">
        <ele>57.2</ele>
        <time>2023-07-02T11:15:07Z</time>
      </trkpt>
      <trkpt lat="49.81715" lon="2.53486">
        <ele>56.9</ele>
        <time>2023-07-02T11:15:09Z</time>
      </trkpt>
      <trkpt lat="49.81714" lon="2.53487">
        <ele>56.8</ele>
        <time>2023-07-02T11:15:10Z</time>
      </trkpt>
      <trkpt lat="49.81713" lon="2.53489">
        <ele>56.6</ele>
        <time>2023-07-02T11:15:11Z</time>
      </trkpt>
      <trkpt lat="49.81712" lon="2.53491">
        <ele>56.5</ele>
        <time>2023-07-02T11:15:12Z</time>
      </trkpt>
      <trkpt lat="49.81711" lon="2.53492">
        <ele>56.4</ele>
        <time>2023-07-02T11:15:13Z</time>
      </trkpt>
      <trkpt lat="49.81711" lon="2.53492">
        <ele>56.3</ele>
        <time>2023-07-02T11:15:14Z</time>
      </trkpt>
      <trkpt lat="49.81709" lon="2.53494">
        <ele>56.1</ele>
        <time>2023-07-02T11:15:16Z</time>
      </trkpt>
      <trkpt lat="49.81707" lon="2.53496">
        <ele>55.9</ele>
        <time>2023-07-02T11:15:17Z</time>
      </trkpt>
      <trkpt lat="49.81707" lon="2.53497">
        <ele>55.8</ele>
        <time>2023-07-02T11:15:18Z</time>
      </trkpt>
      <trkpt lat="49.81706" lon="2.53498">
        <ele>55.7</ele>
        <time>2023-07-02T11:15:19Z</time>
      </trkpt>
      <trkpt lat="49.81705" lon="2.53499">
        <ele>55.6</ele>
        <time>2023-07-02T11:15:20Z</time>
      </trkpt>
      <trkpt lat="49.81704" lon="2.53501">
        <ele>55.5</ele>
        <time>2023-07-02T11:15:22Z</time>
      </trkpt>
      <trkpt lat="49.81703" lon="2.53502">
        <ele>55.3</ele>
        <time>2023-07-02T11:15:23Z</time>
      </trkpt>
      <trkpt lat="49.81701" lon="2.53504">
        <ele>55.2</ele>
        <time>2023-07-02T11:15:24Z</time>
      </trkpt>
      <trkpt lat="49.81701" lon="2.53504">
        <ele>55.1</ele>
        <time>2023-07-02T11:15:25Z</time>
      </trkpt>
      <trkpt lat="49.817" lon="2.53504">
        <ele>55</ele>
        <time>2023-07-02T11:15:26Z</time>
      </trkpt>
      <trkpt lat="49.81698" lon="2.53505">
        <ele>54.9</ele>
        <time>2023-07-02T11:15:27Z</time>
      </trkpt>
      <trkpt lat="49.81697" lon="2.53507">
        <ele>54.7</ele>
        <time>2023-07-02T11:15:28Z</time>
      </trkpt>
      <trkpt lat="49.81696" lon="2.53508">
        <ele>54.6</ele>
        <time>2023-07-02T11:15:29Z</time>
      </trkpt>
      <trkpt lat="49.81695" lon="2.53511">
        <ele>54.4</ele>
        <time>2023-07-02T11:15:30Z</time>
      </trkpt>
      <trkpt lat="49.81694" lon="2.53512">
        <ele>54.3</ele>
        <time>2023-07-02T11:15:32Z</time>
      </trkpt>
      <trkpt lat="49.81693" lon="2.53514">
        <ele>54.2</ele>
        <time>2023-07-02T11:15:33Z</time>
      </trkpt>
      <trkpt lat="49.81692" lon="2.53515">
        <ele>54.1</ele>
        <time>2023-07-02T11:15:34Z</time>
      </trkpt>
      <trkpt lat="49.81691" lon="2.53516">
        <ele>54</ele>
        <time>2023-07-02T11:15:35Z</time>
      </trkpt>
      <trkpt lat="49.8169" lon="2.53517">
        <ele>53.9</ele>
        <time>2023-07-02T11:15:36Z</time>
      </trkpt>
      <trkpt lat="49.81689" lon="2.53519">
        <ele>53.8</ele>
        <time>2023-07-02T11:15:37Z</time>
      </trkpt>
      <trkpt lat="49.81688" lon="2.5352">
        <ele>53.7</ele>
        <time>2023-07-02T11:15:38Z</time>
      </trkpt>
      <trkpt lat="49.81687" lon="2.53522">
        <ele>53.6</ele>
        <time>2023-07-02T11:15:39Z</time>
      </trkpt>
      <trkpt lat="49.81687" lon="2.53523">
        <ele>53.6</ele>
        <time>2023-07-02T11:15:40Z</time>
      </trkpt>
      <trkpt lat="49.81686" lon="2.53524">
        <ele>53.5</ele>
        <time>2023-07-02T11:15:41Z</time>
      </trkpt>
      <trkpt lat="49.81686" lon="2.53526">
        <ele>53.5</ele>
        <time>2023-07-02T11:15:43Z</time>
      </trkpt>
      <trkpt lat="49.81686" lon="2.53526">
        <ele>53.4</ele>
        <time>2023-07-02T11:15:44Z</time>
      </trkpt>
      <trkpt lat="49.81686" lon="2.53527">
        <ele>53.4</ele>
        <time>2023-07-02T11:15:46Z</time>
      </trkpt>
      <trkpt lat="49.81685" lon="2.53528">
        <ele>53.4</ele>
        <time>2023-07-02T11:15:47Z</time>
      </trkpt>
      <trkpt lat="49.81685" lon="2.53528">
        <ele>53.4</ele>
        <time>2023-07-02T11:15:48Z</time>
      </trkpt>
      <trkpt lat="49.81685" lon="2.53529">
        <ele>53.3</ele>
        <time>2023-07-02T11:15:49Z</time>
      </trkpt>
      <trkpt lat="49.81685" lon="2.5353">
        <ele>53.3</ele>
        <time>2023-07-02T11:15:51Z</time>
      </trkpt>
      <trkpt lat="49.81684" lon="2.53531">
        <ele>53.2</ele>
        <time>2023-07-02T11:15:52Z</time>
      </trkpt>
      <trkpt lat="49.81684" lon="2.53532">
        <ele>53.2</ele>
        <time>2023-07-02T11:15:53Z</time>
      </trkpt>
      <trkpt lat="49.81683" lon="2.53532">
        <ele>53.2</ele>
        <time>2023-07-02T11:15:54Z</time>
      </trkpt>
      <trkpt lat="49.81683" lon="2.53533">
        <ele>53.1</ele>
        <time>2023-07-02T11:15:55Z</time>
      </trkpt>
      <trkpt lat="49.81682" lon="2.53534">
        <ele>53.1</ele>
        <time>2023-07-02T11:15:56Z</time>
      </trkpt>
      <trkpt lat="49.81682" lon="2.53534">
        <ele>53.1</ele>
        <time>2023-07-02T11:15:57Z</time>
      </trkpt>
      <trkpt lat="49.81681" lon="2.53535">
        <ele>53</ele>
        <time>2023-07-02T11:15:59Z</time>
      </trkpt>
      <trkpt lat="49.81681" lon="2.53537">
        <ele>53</ele>
        <time>2023-07-02T11:16:00Z</time>
      </trkpt>
      <trkpt lat="49.8168" lon="2.53538">
        <ele>52.9</ele>
        <time>2023-07-02T11:16:01Z</time>
      </trkpt>
      <trkpt lat="49.81679" lon="2.53538">
        <ele>52.9</ele>
        <time>2023-07-02T11:16:02Z</time>
      </trkpt>
      <trkpt lat="49.81679" lon="2.53539">
        <ele>52.8</ele>
        <time>2023-07-02T11:16:03Z</time>
      </trkpt>
      <trkpt lat="49.81678" lon="2.5354">
        <ele>52.8</ele>
        <time>2023-07-02T11:16:04Z</time>
      </trkpt>
      <trkpt lat="49.81677" lon="2.53541">
        <ele>52.8</ele>
        <time>2023-07-02T11:16:06Z</time>
      </trkpt>
      <trkpt lat="49.81676" lon="2.53543">
        <ele>52.7</ele>
        <time>2023-07-02T11:16:07Z</time>
      </trkpt>
      <trkpt lat="49.81675" lon="2.53543">
        <ele>52.6</ele>
        <time>2023-07-02T11:16:08Z</time>
      </trkpt>
      <trkpt lat="49.81674" lon="2.53544">
        <ele>52.6</ele>
        <time>2023-07-02T11:16:09Z</time>
      </trkpt>
      <trkpt lat="49.81673" lon="2.53546">
        <ele>52.5</ele>
        <time>2023-07-02T11:16:10Z</time>
      </trkpt>
      <trkpt lat="49.81672" lon="2.53547">
        <ele>52.5</ele>
        <time>2023-07-02T11:16:11Z</time>
      </trkpt>
      <trkpt lat="49.81671" lon="2.53549">
        <ele>52.4</ele>
        <time>2023-07-02T11:16:12Z</time>
      </trkpt>
      <trkpt lat="49.81669" lon="2.5355">
        <ele>52.3</ele>
        <time>2023-07-02T11:16:13Z</time>
      </trkpt>
      <trkpt lat="49.81668" lon="2.53551">
        <ele>52.3</ele>
        <time>2023-07-02T11:16:15Z</time>
      </trkpt>
      <trkpt lat="49.81666" lon="2.53551">
        <ele>52.2</ele>
        <time>2023-07-02T11:16:16Z</time>
      </trkpt>
      <trkpt lat="49.81664" lon="2.53553">
        <ele>52.2</ele>
        <time>2023-07-02T11:16:17Z</time>
      </trkpt>
      <trkpt lat="49.81664" lon="2.53554">
        <ele>52.1</ele>
        <time>2023-07-02T11:16:18Z</time>
      </trkpt>
      <trkpt lat="49.81664" lon="2.53555">
        <ele>52.1</ele>
        <time>2023-07-02T11:16:19Z</time>
      </trkpt>
      <trkpt lat="49.81663" lon="2.53557">
        <ele>52.1</ele>
        <time>2023-07-02T11:16:20Z</time>
      </trkpt>
      <trkpt lat="49.81663" lon="2.53558">
        <ele>52</ele>
        <time>2023-07-02T11:16:21Z</time>
      </trkpt>
      <trkpt lat="49.81662" lon="2.53559">
        <ele>52</ele>
        <time>2023-07-02T11:16:23Z</time>
      </trkpt>
      <trkpt lat="49.81661" lon="2.53561">
        <ele>52</ele>
        <time>2023-07-02T11:16:24Z</time>
      </trkpt>
      <trkpt lat="49.81661" lon="2.53561">
        <ele>52</ele>
        <time>2023-07-02T11:16:25Z</time>
      </trkpt>
      <trkpt lat="49.8166" lon="2.53559">
        <ele>51.9</ele>
        <time>2023-07-02T11:16:26Z</time>
      </trkpt>
      <trkpt lat="49.81659" lon="2.5356">
        <ele>51.9</ele>
        <time>2023-07-02T11:16:28Z</time>
      </trkpt>
      <trkpt lat="49.81658" lon="2.5356">
        <ele>51.9</ele>
        <time>2023-07-02T11:16:29Z</time>
      </trkpt>
      <trkpt lat="49.81657" lon="2.5356">
        <ele>51.9</ele>
        <time>2023-07-02T11:16:30Z</time>
      </trkpt>
      <trkpt lat="49.81656" lon="2.53561">
        <ele>51.8</ele>
        <time>2023-07-02T11:16:31Z</time>
      </trkpt>
      <trkpt lat="49.81655" lon="2.53562">
        <ele>51.8</ele>
        <time>2023-07-02T11:16:32Z</time>
      </trkpt>
      <trkpt lat="49.81654" lon="2.53564">
        <ele>51.8</ele>
        <time>2023-07-02T11:16:33Z</time>
      </trkpt>
      <trkpt lat="49.81653" lon="2.53565">
        <ele>51.7</ele>
        <time>2023-07-02T11:16:34Z</time>
      </trkpt>
      <trkpt lat="49.81653" lon="2.53566">
        <ele>51.7</ele>
        <time>2023-07-02T11:16:35Z</time>
      </trkpt>
      <trkpt lat="49.81652" lon="2.53568">
        <ele>51.7</ele>
        <time>2023-07-02T11:16:37Z</time>
      </trkpt>
      <trkpt lat="49.81651" lon="2.5357">
        <ele>51.6</ele>
        <time>2023-07-02T11:16:38Z</time>
      </trkpt>
      <trkpt lat="49.8165" lon="2.53572">
        <ele>51.6</ele>
        <time>2023-07-02T11:16:39Z</time>
      </trkpt>
      <trkpt lat="49.81649" lon="2.53576">
        <ele>51.5</ele>
        <time>2023-07-02T11:16:40Z</time>
      </trkpt>
      <trkpt lat="49.81648" lon="2.53578">
        <ele>51.5</ele>
        <time>2023-07-02T11:16:41Z</time>
      </trkpt>
      <trkpt lat="49.81648" lon="2.5358">
        <ele>51.4</ele>
        <time>2023-07-02T11:16:42Z</time>
      </trkpt>
      <trkpt lat="49.81647" lon="2.53583">
        <ele>51.4</ele>
        <time>2023-07-02T11:16:44Z</time>
      </trkpt>
      <trkpt lat="49.81647" lon="2.53585">
        <ele>51.4</ele>
        <time>2023-07-02T11:16:45Z</time>
      </trkpt>
      <trkpt lat="49.81646" lon="2.53587">
        <ele>51.3</ele>
        <time>2023-07-02T11:16:46Z</time>
      </trkpt>
      <trkpt lat="49.81646" lon="2.53589">
        <ele>51.3</ele>
        <time>2023-07-02T11:16:47Z</time>
      </trkpt>
      <trkpt lat="49.81646" lon="2.53591">
        <ele>51.3</ele>
        <time>2023-07-02T11:16:48Z</time>
      </trkpt>
      <trkpt lat="49.81645" lon="2.53595">
        <ele>51.2</ele>
        <time>2023-07-02T11:16:50Z</time>
      </trkpt>
      <trkpt lat="49.81646" lon="2.53597">
        <ele>51.2</ele>
        <time>2023-07-02T11:16:51Z</time>
      </trkpt>
      <trkpt lat="49.81646" lon="2.53599">
        <ele>51.1</ele>
        <time>2023-07-02T11:16:52Z</time>
      </trkpt>
      <trkpt lat="49.81646" lon="2.53601">
        <ele>51.1</ele>
        <time>2023-07-02T11:16:54Z</time>
      </trkpt>
      <trkpt lat="49.81647" lon="2.53603">
        <ele>51.1</ele>
        <time>2023-07-02T11:16:55Z</time>
      </trkpt>
      <trkpt lat="49.81647" lon="2.53606">
        <ele>51</ele>
        <time>2023-07-02T11:16:56Z</time>
      </trkpt>
      <trkpt lat="49.81648" lon="2.53608">
        <ele>51</ele>
        <time>2023-07-02T11:16:57Z</time>
      </trkpt>
      <trkpt lat="49.81648" lon="2.53609">
        <ele>51</ele>
        <time>2023-07-02T11:16:58Z</time>
      </trkpt>
      <trkpt lat="49.81649" lon="2.53611">
        <ele>50.9</ele>
        <time>2023-07-02T11:16:59Z</time>
      </trkpt>
      <trkpt lat="49.81649" lon="2.53613">
        <ele>50.9</ele>
        <time>2023-07-02T11:17:00Z</time>
      </trkpt>
      <trkpt lat="49.8165" lon="2.53615">
        <ele>50.9</ele>
        <time>2023-07-02T11:17:02Z</time>
      </trkpt>
      <trkpt lat="49.8165" lon="2.53618">
        <ele>50.9</ele>
        <time>2023-07-02T11:17:03Z</time>
      </trkpt>
      <trkpt lat="49.81651" lon="2.53619">
        <ele>50.8</ele>
        <time>2023-07-02T11:17:04Z</time>
      </trkpt>
      <trkpt lat="49.81652" lon="2.53621">
        <ele>50.8</ele>
        <time>2023-07-02T11:17:05Z</time>
      </trkpt>
      <trkpt lat="49.81652" lon="2.53622">
        <ele>50.8</ele>
        <time>2023-07-02T11:17:06Z</time>
      </trkpt>
      <trkpt lat="49.81653" lon="2.53625">
        <ele>50.8</ele>
        <time>2023-07-02T11:17:07Z</time>
      </trkpt>
      <trkpt lat="49.81653" lon="2.53626">
        <ele>50.8</ele>
        <time>2023-07-02T11:17:08Z</time>
      </trkpt>
      <trkpt lat="49.81654" lon="2.53628">
        <ele>50.8</ele>
        <time>2023-07-02T11:17:09Z</time>
      </trkpt>
      <trkpt lat="49.81654" lon="2.5363">
        <ele>50.7</ele>
        <time>2023-07-02T11:17:11Z</time>
      </trkpt>
      <trkpt lat="49.81655" lon="2.53633">
        <ele>50.7</ele>
        <time>2023-07-02T11:17:12Z</time>
      </trkpt>
      <trkpt lat="49.81655" lon="2.53634">
        <ele>50.7</ele>
        <time>2023-07-02T11:17:13Z</time>
      </trkpt>
      <trkpt lat="49.81655" lon="2.53637">
        <ele>50.7</ele>
        <time>2023-07-02T11:17:14Z</time>
      </trkpt>
      <trkpt lat="49.81656" lon="2.53641">
        <ele>50.6</ele>
        <time>2023-07-02T11:17:15Z</time>
      </trkpt>
      <trkpt lat="49.81656" lon="2.53643">
        <ele>50.6</ele>
        <time>2023-07-02T11:17:16Z</time>
      </trkpt>
      <trkpt lat="49.81656" lon="2.53647">
        <ele>50.6</ele>
        <time>2023-07-02T11:17:18Z</time>
      </trkpt>
      <trkpt lat="49.81656" lon="2.53649">
        <ele>50.6</ele>
        <time>2023-07-02T11:17:19Z</time>
      </trkpt>
      <trkpt lat="49.81657" lon="2.53651">
        <ele>50.6</ele>
        <time>2023-07-02T11:17:21Z</time>
      </trkpt>
      <trkpt lat="49.81657" lon="2.53654">
        <ele>50.5</ele>
        <time>2023-07-02T11:17:22Z</time>
      </trkpt>
      <trkpt lat="49.81658" lon="2.53656">
        <ele>50.5</ele>
        <time>2023-07-02T11:17:23Z</time>
      </trkpt>
      <trkpt lat="49.81658" lon="2.53658">
        <ele>50.5</ele>
        <time>2023-07-02T11:17:24Z</time>
      </trkpt>
      <trkpt lat="49.81659" lon="2.5366">
        <ele>50.5</ele>
        <time>2023-07-02T11:17:25Z</time>
      </trkpt>
      <trkpt lat="49.8166" lon="2.53662">
        <ele>50.5</ele>
        <time>2023-07-02T11:17:26Z</time>
      </trkpt>
      <trkpt lat="49.81661" lon="2.53664">
        <ele>50.5</ele>
        <time>2023-07-02T11:17:28Z</time>
      </trkpt>
      <trkpt lat="49.81661" lon="2.53666">
        <ele>50.4</ele>
        <time>2023-07-02T11:17:29Z</time>
      </trkpt>
      <trkpt lat="49.81662" lon="2.53668">
        <ele>50.4</ele>
        <time>2023-07-02T11:17:30Z</time>
      </trkpt>
      <trkpt lat="49.81662" lon="2.53671">
        <ele>50.4</ele>
        <time>2023-07-02T11:17:31Z</time>
      </trkpt>
      <trkpt lat="49.81662" lon="2.53672">
        <ele>50.4</ele>
        <time>2023-07-02T11:17:32Z</time>
      </trkpt>
      <trkpt lat="49.81662" lon="2.53674">
        <ele>50.4</ele>
        <time>2023-07-02T11:17:33Z</time>
      </trkpt>
      <trkpt lat="49.81663" lon="2.53677">
        <ele>50.4</ele>
        <time>2023-07-02T11:17:35Z</time>
      </trkpt>
      <trkpt lat="49.81663" lon="2.53679">
        <ele>50.4</ele>
        <time>2023-07-02T11:17:36Z</time>
      </trkpt>
      <trkpt lat="49.81664" lon="2.5368">
        <ele>50.4</ele>
        <time>2023-07-02T11:17:37Z</time>
      </trkpt>
      <trkpt lat="49.81665" lon="2.53683">
        <ele>50.4</ele>
        <time>2023-07-02T11:17:38Z</time>
      </trkpt>
      <trkpt lat="49.81665" lon="2.53684">
        <ele>50.4</ele>
        <time>2023-07-02T11:17:39Z</time>
      </trkpt>
      <trkpt lat="49.81666" lon="2.53685">
        <ele>50.4</ele>
        <time>2023-07-02T11:17:40Z</time>
      </trkpt>
      <trkpt lat="49.81666" lon="2.53687">
        <ele>50.4</ele>
        <time>2023-07-02T11:17:41Z</time>
      </trkpt>
      <trkpt lat="49.81666" lon="2.53688">
        <ele>50.4</ele>
        <time>2023-07-02T11:17:42Z</time>
      </trkpt>
      <trkpt lat="49.81667" lon="2.5369">
        <ele>50.4</ele>
        <time>2023-07-02T11:17:43Z</time>
      </trkpt>
      <trkpt lat="49.81667" lon="2.53691">
        <ele>50.4</ele>
        <time>2023-07-02T11:17:45Z</time>
      </trkpt>
      <trkpt lat="49.81668" lon="2.53693">
        <ele>50.4</ele>
        <time>2023-07-02T11:17:46Z</time>
      </trkpt>
      <trkpt lat="49.81668" lon="2.53695">
        <ele>50.4</ele>
        <time>2023-07-02T11:17:47Z</time>
      </trkpt>
      <trkpt lat="49.81668" lon="2.53696">
        <ele>50.4</ele>
        <time>2023-07-02T11:17:48Z</time>
      </trkpt>
      <trkpt lat="49.81668" lon="2.53698">
        <ele>50.4</ele>
        <time>2023-07-02T11:17:49Z</time>
      </trkpt>
      <trkpt lat="49.81668" lon="2.537">
        <ele>50.4</ele>
        <time>2023-07-02T11:17:50Z</time>
      </trkpt>
      <trkpt lat="49.81668" lon="2.53701">
        <ele>50.5</ele>
        <time>2023-07-02T11:17:51Z</time>
      </trkpt>
      <trkpt lat="49.81668" lon="2.53703">
        <ele>50.5</ele>
        <time>2023-07-02T11:17:52Z</time>
      </trkpt>
      <trkpt lat="49.81668" lon="2.53705">
        <ele>50.5</ele>
        <time>2023-07-02T11:17:54Z</time>
      </trkpt>
      <trkpt lat="49.81668" lon="2.53707">
        <ele>50.5</ele>
        <time>2023-07-02T11:17:55Z</time>
      </trkpt>
      <trkpt lat="49.81668" lon="2.53708">
        <ele>50.5</ele>
        <time>2023-07-02T11:17:56Z</time>
      </trkpt>
      <trkpt lat="49.81668" lon="2.5371">
        <ele>50.5</ele>
        <time>2023-07-02T11:17:57Z</time>
      </trkpt>
      <trkpt lat="49.81668" lon="2.53714">
        <ele>50.6</ele>
        <time>2023-07-02T11:17:59Z</time>
      </trkpt>
      <trkpt lat="49.81669" lon="2.53715">
        <ele>50.6</ele>
        <time>2023-07-02T11:18:00Z</time>
      </trkpt>
      <trkpt lat="49.81669" lon="2.53717">
        <ele>50.6</ele>
        <time>2023-07-02T11:18:01Z</time>
      </trkpt>
      <trkpt lat="49.81669" lon="2.53719">
        <ele>50.6</ele>
        <time>2023-07-02T11:18:02Z</time>
      </trkpt>
      <trkpt lat="49.8167" lon="2.53721">
        <ele>50.6</ele>
        <time>2023-07-02T11:18:03Z</time>
      </trkpt>
      <trkpt lat="49.8167" lon="2.53724">
        <ele>50.6</ele>
        <time>2023-07-02T11:18:04Z</time>
      </trkpt>
      <trkpt lat="49.8167" lon="2.53727">
        <ele>50.7</ele>
        <time>2023-07-02T11:18:06Z</time>
      </trkpt>
      <trkpt lat="49.81671" lon="2.5373">
        <ele>50.7</ele>
        <time>2023-07-02T11:18:07Z</time>
      </trkpt>
      <trkpt lat="49.81671" lon="2.53731">
        <ele>50.7</ele>
        <time>2023-07-02T11:18:08Z</time>
      </trkpt>
      <trkpt lat="49.81671" lon="2.53733">
        <ele>50.7</ele>
        <time>2023-07-02T11:18:09Z</time>
      </trkpt>
      <trkpt lat="49.81672" lon="2.53735">
        <ele>50.7</ele>
        <time>2023-07-02T11:18:10Z</time>
      </trkpt>
      <trkpt lat="49.81672" lon="2.53737">
        <ele>50.7</ele>
        <time>2023-07-02T11:18:12Z</time>
      </trkpt>
      <trkpt lat="49.81672" lon="2.53738">
        <ele>50.7</ele>
        <time>2023-07-02T11:18:13Z</time>
      </trkpt>
      <trkpt lat="49.81673" lon="2.5374">
        <ele>50.7</ele>
        <time>2023-07-02T11:18:14Z</time>
      </trkpt>
      <trkpt lat="49.81674" lon="2.53741">
        <ele>50.8</ele>
        <time>2023-07-02T11:18:16Z</time>
      </trkpt>
      <trkpt lat="49.81674" lon="2.53742">
        <ele>50.8</ele>
        <time>2023-07-02T11:18:17Z</time>
      </trkpt>
      <trkpt lat="49.81674" lon="2.53744">
        <ele>50.8</ele>
        <time>2023-07-02T11:18:18Z</time>
      </trkpt>
      <trkpt lat="49.81674" lon="2.53744">
        <ele>50.8</ele>
        <time>2023-07-02T11:18:19Z</time>
      </trkpt>
      <trkpt lat="49.81674" lon="2.53744">
        <ele>50.8</ele>
        <time>2023-07-02T11:18:20Z</time>
      </trkpt>
      <trkpt lat="49.81674" lon="2.53743">
        <ele>50.8</ele>
        <time>2023-07-02T11:18:22Z</time>
      </trkpt>
      <trkpt lat="49.81675" lon="2.53743">
        <ele>50.8</ele>
        <time>2023-07-02T11:18:23Z</time>
      </trkpt>
      <trkpt lat="49.81675" lon="2.53742">
        <ele>50.8</ele>
        <time>2023-07-02T11:18:25Z</time>
      </trkpt>
      <trkpt lat="49.81675" lon="2.53742">
        <ele>50.8</ele>
        <time>2023-07-02T11:18:27Z</time>
      </trkpt>
      <trkpt lat="49.81675" lon="2.53743">
        <ele>50.8</ele>
        <time>2023-07-02T11:18:28Z</time>
      </trkpt>
      <trkpt lat="49.81675" lon="2.53744">
        <ele>50.8</ele>
        <time>2023-07-02T11:18:29Z</time>
      </trkpt>
      <trkpt lat="49.81674" lon="2.53745">
        <ele>50.8</ele>
        <time>2023-07-02T11:18:30Z</time>
      </trkpt>
      <trkpt lat="49.81674" lon="2.53746">
        <ele>50.8</ele>
        <time>2023-07-02T11:18:31Z</time>
      </trkpt>
      <trkpt lat="49.81674" lon="2.53748">
        <ele>50.8</ele>
        <time>2023-07-02T11:18:33Z</time>
      </trkpt>
      <trkpt lat="49.81674" lon="2.5375">
        <ele>50.8</ele>
        <time>2023-07-02T11:18:34Z</time>
      </trkpt>
      <trkpt lat="49.81675" lon="2.53751">
        <ele>50.8</ele>
        <time>2023-07-02T11:18:35Z</time>
      </trkpt>
      <trkpt lat="49.81676" lon="2.53753">
        <ele>50.8</ele>
        <time>2023-07-02T11:18:36Z</time>
      </trkpt>
      <trkpt lat="49.81676" lon="2.53754">
        <ele>50.8</ele>
        <time>2023-07-02T11:18:37Z</time>
      </trkpt>
      <trkpt lat="49.81678" lon="2.53755">
        <ele>50.9</ele>
        <time>2023-07-02T11:18:38Z</time>
      </trkpt>
      <trkpt lat="49.8168" lon="2.53756">
        <ele>50.9</ele>
        <time>2023-07-02T11:18:39Z</time>
      </trkpt>
      <trkpt lat="49.81681" lon="2.53757">
        <ele>50.9</ele>
        <time>2023-07-02T11:18:41Z</time>
      </trkpt>
      <trkpt lat="49.81683" lon="2.53758">
        <ele>50.9</ele>
        <time>2023-07-02T11:18:42Z</time>
      </trkpt>
      <trkpt lat="49.81684" lon="2.53758">
        <ele>50.9</ele>
        <time>2023-07-02T11:18:43Z</time>
      </trkpt>
      <trkpt lat="49.81685" lon="2.53758">
        <ele>50.9</ele>
        <time>2023-07-02T11:18:44Z</time>
      </trkpt>
      <trkpt lat="49.81686" lon="2.53758">
        <ele>50.9</ele>
        <time>2023-07-02T11:18:45Z</time>
      </trkpt>
      <trkpt lat="49.81687" lon="2.53759">
        <ele>50.9</ele>
        <time>2023-07-02T11:18:46Z</time>
      </trkpt>
      <trkpt lat="49.81688" lon="2.53761">
        <ele>50.9</ele>
        <time>2023-07-02T11:18:48Z</time>
      </trkpt>
      <trkpt lat="49.81689" lon="2.53763">
        <ele>51.1</ele>
        <time>2023-07-02T11:18:49Z</time>
      </trkpt>
      <trkpt lat="49.8169" lon="2.53766">
        <ele>51.2</ele>
        <time>2023-07-02T11:18:51Z</time>
      </trkpt>
      <trkpt lat="49.81691" lon="2.53768">
        <ele>51.4</ele>
        <time>2023-07-02T11:18:52Z</time>
      </trkpt>
      <trkpt lat="49.81691" lon="2.53771">
        <ele>51.6</ele>
        <time>2023-07-02T11:18:53Z</time>
      </trkpt>
      <trkpt lat="49.81691" lon="2.53772">
        <ele>51.7</ele>
        <time>2023-07-02T11:18:54Z</time>
      </trkpt>
      <trkpt lat="49.8169" lon="2.53773">
        <ele>51.7</ele>
        <time>2023-07-02T11:18:55Z</time>
      </trkpt>
      <trkpt lat="49.8169" lon="2.53775">
        <ele>51.8</ele>
        <time>2023-07-02T11:18:56Z</time>
      </trkpt>
      <trkpt lat="49.8169" lon="2.53776">
        <ele>51.9</ele>
        <time>2023-07-02T11:18:57Z</time>
      </trkpt>
      <trkpt lat="49.81689" lon="2.53777">
        <ele>52</ele>
        <time>2023-07-02T11:18:59Z</time>
      </trkpt>
      <trkpt lat="49.81689" lon="2.53779">
        <ele>52.1</ele>
        <time>2023-07-02T11:19:00Z</time>
      </trkpt>
      <trkpt lat="49.81689" lon="2.5378">
        <ele>52.2</ele>
        <time>2023-07-02T11:19:01Z</time>
      </trkpt>
      <trkpt lat="49.81689" lon="2.53781">
        <ele>52.2</ele>
        <time>2023-07-02T11:19:02Z</time>
      </trkpt>
      <trkpt lat="49.81689" lon="2.53782">
        <ele>52.3</ele>
        <time>2023-07-02T11:19:03Z</time>
      </trkpt>
      <trkpt lat="49.81688" lon="2.53785">
        <ele>52.5</ele>
        <time>2023-07-02T11:19:04Z</time>
      </trkpt>
      <trkpt lat="49.81687" lon="2.53787">
        <ele>52.7</ele>
        <time>2023-07-02T11:19:06Z</time>
      </trkpt>
      <trkpt lat="49.81687" lon="2.53788">
        <ele>52.8</ele>
        <time>2023-07-02T11:19:07Z</time>
      </trkpt>
      <trkpt lat="49.81686" lon="2.5379">
        <ele>52.9</ele>
        <time>2023-07-02T11:19:09Z</time>
      </trkpt>
      <trkpt lat="49.81685" lon="2.53791">
        <ele>53</ele>
        <time>2023-07-02T11:19:10Z</time>
      </trkpt>
      <trkpt lat="49.81685" lon="2.53793">
        <ele>53.1</ele>
        <time>2023-07-02T11:19:11Z</time>
      </trkpt>
      <trkpt lat="49.81684" lon="2.53793">
        <ele>53.2</ele>
        <time>2023-07-02T11:19:13Z</time>
      </trkpt>
      <trkpt lat="49.81684" lon="2.53794">
        <ele>53.3</ele>
        <time>2023-07-02T11:19:14Z</time>
      </trkpt>
      <trkpt lat="49.81683" lon="2.53794">
        <ele>53.3</ele>
        <time>2023-07-02T11:19:15Z</time>
      </trkpt>
      <trkpt lat="49.81683" lon="2.53795">
        <ele>53.4</ele>
        <time>2023-07-02T11:19:16Z</time>
      </trkpt>
      <trkpt lat="49.81682" lon="2.53797">
        <ele>53.5</ele>
        <time>2023-07-02T11:19:17Z</time>
      </trkpt>
      <trkpt lat="49.81681" lon="2.53798">
        <ele>53.6</ele>
        <time>2023-07-02T11:19:18Z</time>
      </trkpt>
      <trkpt lat="49.81681" lon="2.538">
        <ele>53.8</ele>
        <time>2023-07-02T11:19:20Z</time>
      </trkpt>
      <trkpt lat="49.8168" lon="2.53801">
        <ele>53.9</ele>
        <time>2023-07-02T11:19:21Z</time>
      </trkpt>
      <trkpt lat="49.8168" lon="2.53802">
        <ele>53.9</ele>
        <time>2023-07-02T11:19:22Z</time>
      </trkpt>
      <trkpt lat="49.81679" lon="2.53804">
        <ele>54</ele>
        <time>2023-07-02T11:19:23Z</time>
      </trkpt>
      <trkpt lat="49.81679" lon="2.53805">
        <ele>54.1</ele>
        <time>2023-07-02T11:19:24Z</time>
      </trkpt>
      <trkpt lat="49.81678" lon="2.53807">
        <ele>54.2</ele>
        <time>2023-07-02T11:19:25Z</time>
      </trkpt>
      <trkpt lat="49.81677" lon="2.5381">
        <ele>54.4</ele>
        <time>2023-07-02T11:19:26Z</time>
      </trkpt>
      <trkpt lat="49.81677" lon="2.53811">
        <ele>54.5</ele>
        <time>2023-07-02T11:19:28Z</time>
      </trkpt>
      <trkpt lat="49.81676" lon="2.53813">
        <ele>54.6</ele>
        <time>2023-07-02T11:19:29Z</time>
      </trkpt>
      <trkpt lat="49.81676" lon="2.53814">
        <ele>54.6</ele>
        <time>2023-07-02T11:19:30Z</time>
      </trkpt>
      <trkpt lat="49.81675" lon="2.53816">
        <ele>54.7</ele>
        <time>2023-07-02T11:19:31Z</time>
      </trkpt>
      <trkpt lat="49.81675" lon="2.53817">
        <ele>54.8</ele>
        <time>2023-07-02T11:19:32Z</time>
      </trkpt>
      <trkpt lat="49.81674" lon="2.53819">
        <ele>54.9</ele>
        <time>2023-07-02T11:19:33Z</time>
      </trkpt>
      <trkpt lat="49.81674" lon="2.5382">
        <ele>54.9</ele>
        <time>2023-07-02T11:19:34Z</time>
      </trkpt>
      <trkpt lat="49.81674" lon="2.53822">
        <ele>55</ele>
        <time>2023-07-02T11:19:36Z</time>
      </trkpt>
      <trkpt lat="49.81674" lon="2.53824">
        <ele>55.1</ele>
        <time>2023-07-02T11:19:37Z</time>
      </trkpt>
      <trkpt lat="49.81674" lon="2.53825">
        <ele>55.1</ele>
        <time>2023-07-02T11:19:38Z</time>
      </trkpt>
      <trkpt lat="49.81674" lon="2.53827">
        <ele>55.2</ele>
        <time>2023-07-02T11:19:39Z</time>
      </trkpt>
      <trkpt lat="49.81674" lon="2.53828">
        <ele>55.2</ele>
        <time>2023-07-02T11:19:40Z</time>
      </trkpt>
      <trkpt lat="49.81673" lon="2.53829">
        <ele>55.3</ele>
        <time>2023-07-02T11:19:42Z</time>
      </trkpt>
      <trkpt lat="49.81672" lon="2.53831">
        <ele>55.4</ele>
        <time>2023-07-02T11:19:44Z</time>
      </trkpt>
      <trkpt lat="49.81671" lon="2.53832">
        <ele>55.5</ele>
        <time>2023-07-02T11:19:45Z</time>
      </trkpt>
      <trkpt lat="49.81671" lon="2.53833">
        <ele>55.5</ele>
        <time>2023-07-02T11:19:46Z</time>
      </trkpt>
      <trkpt lat="49.8167" lon="2.53834">
        <ele>55.6</ele>
        <time>2023-07-02T11:19:47Z</time>
      </trkpt>
      <trkpt lat="49.81669" lon="2.53835">
        <ele>55.7</ele>
        <time>2023-07-02T11:19:48Z</time>
      </trkpt>
      <trkpt lat="49.81668" lon="2.53835">
        <ele>55.7</ele>
        <time>2023-07-02T11:19:49Z</time>
      </trkpt>
      <trkpt lat="49.81667" lon="2.53836">
        <ele>55.8</ele>
        <time>2023-07-02T11:19:51Z</time>
      </trkpt>
      <trkpt lat="49.81666" lon="2.53836">
        <ele>55.9</ele>
        <time>2023-07-02T11:19:52Z</time>
      </trkpt>
      <trkpt lat="49.81666" lon="2.53837">
        <ele>55.9</ele>
        <time>2023-07-02T11:19:54Z</time>
      </trkpt>
      <trkpt lat="49.81666" lon="2.53838">
        <ele>56</ele>
        <time>2023-07-02T11:19:55Z</time>
      </trkpt>
      <trkpt lat="49.81666" lon="2.53838">
        <ele>56</ele>
        <time>2023-07-02T11:19:56Z</time>
      </trkpt>
      <trkpt lat="49.81666" lon="2.53839">
        <ele>56</ele>
        <time>2023-07-02T11:19:57Z</time>
      </trkpt>
      <trkpt lat="49.81666" lon="2.5384">
        <ele>56.1</ele>
        <time>2023-07-02T11:19:58Z</time>
      </trkpt>
      <trkpt lat="49.81666" lon="2.53841">
        <ele>56.1</ele>
        <time>2023-07-02T11:19:59Z</time>
      </trkpt>
      <trkpt lat="49.81665" lon="2.53842">
        <ele>56.2</ele>
        <time>2023-07-02T11:20:00Z</time>
      </trkpt>
      <trkpt lat="49.81665" lon="2.53842">
        <ele>56.2</ele>
        <time>2023-07-02T11:20:01Z</time>
      </trkpt>
      <trkpt lat="49.81665" lon="2.53843">
        <ele>56.2</ele>
        <time>2023-07-02T11:20:03Z</time>
      </trkpt>
      <trkpt lat="49.81664" lon="2.53843">
        <ele>56.3</ele>
        <time>2023-07-02T11:20:04Z</time>
      </trkpt>
      <trkpt lat="49.81663" lon="2.53843">
        <ele>56.3</ele>
        <time>2023-07-02T11:20:05Z</time>
      </trkpt>
      <trkpt lat="49.81661" lon="2.53841">
        <ele>56.5</ele>
        <time>2023-07-02T11:20:06Z</time>
      </trkpt>
      <trkpt lat="49.8166" lon="2.53841">
        <ele>56.5</ele>
        <time>2023-07-02T11:20:08Z</time>
      </trkpt>
      <trkpt lat="49.81659" lon="2.53841">
        <ele>56.6</ele>
        <time>2023-07-02T11:20:09Z</time>
      </trkpt>
      <trkpt lat="49.81658" lon="2.53841">
        <ele>56.7</ele>
        <time>2023-07-02T11:20:10Z</time>
      </trkpt>
      <trkpt lat="49.81657" lon="2.5384">
        <ele>56.7</ele>
        <time>2023-07-02T11:20:11Z</time>
      </trkpt>
      <trkpt lat="49.81655" lon="2.5384">
        <ele>56.8</ele>
        <time>2023-07-02T11:20:13Z</time>
      </trkpt>
      <trkpt lat="49.81654" lon="2.53839">
        <ele>56.9</ele>
        <time>2023-07-02T11:20:14Z</time>
      </trkpt>
      <trkpt lat="49.81653" lon="2.53839">
        <ele>57</ele>
        <time>2023-07-02T11:20:15Z</time>
      </trkpt>
      <trkpt lat="49.81652" lon="2.5384">
        <ele>57</ele>
        <time>2023-07-02T11:20:17Z</time>
      </trkpt>
      <trkpt lat="49.81651" lon="2.5384">
        <ele>57.1</ele>
        <time>2023-07-02T11:20:18Z</time>
      </trkpt>
      <trkpt lat="49.8165" lon="2.5384">
        <ele>57.2</ele>
        <time>2023-07-02T11:20:19Z</time>
      </trkpt>
      <trkpt lat="49.81649" lon="2.53839">
        <ele>57.2</ele>
        <time>2023-07-02T11:20:20Z</time>
      </trkpt>
      <trkpt lat="49.81649" lon="2.53839">
        <ele>57.3</ele>
        <time>2023-07-02T11:20:21Z</time>
      </trkpt>
      <trkpt lat="49.81648" lon="2.53839">
        <ele>57.3</ele>
        <time>2023-07-02T11:20:23Z</time>
      </trkpt>
      <trkpt lat="49.81647" lon="2.53839">
        <ele>57.4</ele>
        <time>2023-07-02T11:20:24Z</time>
      </trkpt>
      <trkpt lat="49.81646" lon="2.5384">
        <ele>57.4</ele>
        <time>2023-07-02T11:20:25Z</time>
      </trkpt>
      <trkpt lat="49.81646" lon="2.5384">
        <ele>57.4</ele>
        <time>2023-07-02T11:20:26Z</time>
      </trkpt>
      <trkpt lat="49.81645" lon="2.53841">
        <ele>57.5</ele>
        <time>2023-07-02T11:20:27Z</time>
      </trkpt>
      <trkpt lat="49.81644" lon="2.53842">
        <ele>57.6</ele>
        <time>2023-07-02T11:20:28Z</time>
      </trkpt>
      <trkpt lat="49.81644" lon="2.53842">
        <ele>57.6</ele>
        <time>2023-07-02T11:20:30Z</time>
      </trkpt>
      <trkpt lat="49.81643" lon="2.53843">
        <ele>57.7</ele>
        <time>2023-07-02T11:20:31Z</time>
      </trkpt>
      <trkpt lat="49.81642" lon="2.53844">
        <ele>57.7</ele>
        <time>2023-07-02T11:20:32Z</time>
      </trkpt>
      <trkpt lat="49.81642" lon="2.53844">
        <ele>57.8</ele>
        <time>2023-07-02T11:20:33Z</time>
      </trkpt>
      <trkpt lat="49.81641" lon="2.53845">
        <ele>57.8</ele>
        <time>2023-07-02T11:20:34Z</time>
      </trkpt>
      <trkpt lat="49.8164" lon="2.53846">
        <ele>57.9</ele>
        <time>2023-07-02T11:20:35Z</time>
      </trkpt>
      <trkpt lat="49.8164" lon="2.53847">
        <ele>57.9</ele>
        <time>2023-07-02T11:20:36Z</time>
      </trkpt>
      <trkpt lat="49.81639" lon="2.53847">
        <ele>58</ele>
        <time>2023-07-02T11:20:38Z</time>
      </trkpt>
      <trkpt lat="49.81638" lon="2.53848">
        <ele>58.1</ele>
        <time>2023-07-02T11:20:39Z</time>
      </trkpt>
      <trkpt lat="49.81637" lon="2.5385">
        <ele>58.2</ele>
        <time>2023-07-02T11:20:40Z</time>
      </trkpt>
      <trkpt lat="49.81636" lon="2.53851">
        <ele>58.3</ele>
        <time>2023-07-02T11:20:41Z</time>
      </trkpt>
      <trkpt lat="49.81635" lon="2.53853">
        <ele>58.3</ele>
        <time>2023-07-02T11:20:42Z</time>
      </trkpt>
      <trkpt lat="49.81634" lon="2.53855">
        <ele>58.6</ele>
        <time>2023-07-02T11:20:43Z</time>
      </trkpt>
      <trkpt lat="49.81633" lon="2.53856">
        <ele>58.7</ele>
        <time>2023-07-02T11:20:44Z</time>
      </trkpt>
      <trkpt lat="49.81631" lon="2.53858">
        <ele>58.9</ele>
        <time>2023-07-02T11:20:46Z</time>
      </trkpt>
      <trkpt lat="49.8163" lon="2.5386">
        <ele>59</ele>
        <time>2023-07-02T11:20:47Z</time>
      </trkpt>
      <trkpt lat="49.81628" lon="2.53861">
        <ele>59.2</ele>
        <time>2023-07-02T11:20:48Z</time>
      </trkpt>
      <trkpt lat="49.81627" lon="2.53862">
        <ele>59.3</ele>
        <time>2023-07-02T11:20:49Z</time>
      </trkpt>
      <trkpt lat="49.81625" lon="2.53864">
        <ele>59.5</ele>
        <time>2023-07-02T11:20:50Z</time>
      </trkpt>
      <trkpt lat="49.81624" lon="2.53865">
        <ele>59.6</ele>
        <time>2023-07-02T11:20:51Z</time>
      </trkpt>
      <trkpt lat="49.81622" lon="2.53866">
        <ele>59.7</ele>
        <time>2023-07-02T11:20:53Z</time>
      </trkpt>
      <trkpt lat="49.81621" lon="2.53867">
        <ele>59.9</ele>
        <time>2023-07-02T11:20:54Z</time>
      </trkpt>
      <trkpt lat="49.8162" lon="2.53869">
        <ele>60</ele>
        <time>2023-07-02T11:20:55Z</time>
      </trkpt>
      <trkpt lat="49.81619" lon="2.5387">
        <ele>60.1</ele>
        <time>2023-07-02T11:20:56Z</time>
      </trkpt>
      <trkpt lat="49.81618" lon="2.53871">
        <ele>60.2</ele>
        <time>2023-07-02T11:20:57Z</time>
      </trkpt>
      <trkpt lat="49.81616" lon="2.53872">
        <ele>60.3</ele>
        <time>2023-07-02T11:20:59Z</time>
      </trkpt>
      <trkpt lat="49.81615" lon="2.53873">
        <ele>60.4</ele>
        <time>2023-07-02T11:21:00Z</time>
      </trkpt>
      <trkpt lat="49.81614" lon="2.53875">
        <ele>60.5</ele>
        <time>2023-07-02T11:21:01Z</time>
      </trkpt>
      <trkpt lat="49.81614" lon="2.53875">
        <ele>60.6</ele>
        <time>2023-07-02T11:21:02Z</time>
      </trkpt>
      <trkpt lat="49.81613" lon="2.53876">
        <ele>60.7</ele>
        <time>2023-07-02T11:21:03Z</time>
      </trkpt>
      <trkpt lat="49.81612" lon="2.53878">
        <ele>60.8</ele>
        <time>2023-07-02T11:21:04Z</time>
      </trkpt>
      <trkpt lat="49.81611" lon="2.53879">
        <ele>60.9</ele>
        <time>2023-07-02T11:21:06Z</time>
      </trkpt>
      <trkpt lat="49.81609" lon="2.5388">
        <ele>61</ele>
        <time>2023-07-02T11:21:07Z</time>
      </trkpt>
      <trkpt lat="49.81609" lon="2.53881">
        <ele>61.1</ele>
        <time>2023-07-02T11:21:08Z</time>
      </trkpt>
      <trkpt lat="49.81608" lon="2.53883">
        <ele>61.2</ele>
        <time>2023-07-02T11:21:09Z</time>
      </trkpt>
      <trkpt lat="49.81607" lon="2.53884">
        <ele>61.3</ele>
        <time>2023-07-02T11:21:11Z</time>
      </trkpt>
      <trkpt lat="49.81607" lon="2.53885">
        <ele>61.4</ele>
        <time>2023-07-02T11:21:12Z</time>
      </trkpt>
      <trkpt lat="49.81606" lon="2.53886">
        <ele>61.4</ele>
        <time>2023-07-02T11:21:13Z</time>
      </trkpt>
      <trkpt lat="49.81605" lon="2.53887">
        <ele>61.5</ele>
        <time>2023-07-02T11:21:14Z</time>
      </trkpt>
      <trkpt lat="49.81604" lon="2.53888">
        <ele>61.6</ele>
        <time>2023-07-02T11:21:15Z</time>
      </trkpt>
      <trkpt lat="49.81603" lon="2.53888">
        <ele>61.7</ele>
        <time>2023-07-02T11:21:16Z</time>
      </trkpt>
      <trkpt lat="49.81602" lon="2.53888">
        <ele>61.8</ele>
        <time>2023-07-02T11:21:18Z</time>
      </trkpt>
      <trkpt lat="49.81601" lon="2.53887">
        <ele>61.9</ele>
        <time>2023-07-02T11:21:19Z</time>
      </trkpt>
      <trkpt lat="49.816" lon="2.53887">
        <ele>62</ele>
        <time>2023-07-02T11:21:21Z</time>
      </trkpt>
      <trkpt lat="49.81599" lon="2.53888">
        <ele>62</ele>
        <time>2023-07-02T11:21:22Z</time>
      </trkpt>
      <trkpt lat="49.81598" lon="2.53889">
        <ele>62.1</ele>
        <time>2023-07-02T11:21:23Z</time>
      </trkpt>
      <trkpt lat="49.81597" lon="2.5389">
        <ele>62.2</ele>
        <time>2023-07-02T11:21:24Z</time>
      </trkpt>
      <trkpt lat="49.81597" lon="2.5389">
        <ele>62.2</ele>
        <time>2023-07-02T11:21:25Z</time>
      </trkpt>
      <trkpt lat="49.81596" lon="2.53892">
        <ele>62.3</ele>
        <time>2023-07-02T11:21:26Z</time>
      </trkpt>
      <trkpt lat="49.81596" lon="2.53892">
        <ele>62.4</ele>
        <time>2023-07-02T11:21:28Z</time>
      </trkpt>
      <trkpt lat="49.81595" lon="2.53893">
        <ele>62.5</ele>
        <time>2023-07-02T11:21:29Z</time>
      </trkpt>
      <trkpt lat="49.81594" lon="2.53894">
        <ele>62.5</ele>
        <time>2023-07-02T11:21:30Z</time>
      </trkpt>
      <trkpt lat="49.81593" lon="2.53896">
        <ele>62.6</ele>
        <time>2023-07-02T11:21:31Z</time>
      </trkpt>
      <trkpt lat="49.81593" lon="2.53897">
        <ele>62.7</ele>
        <time>2023-07-02T11:21:32Z</time>
      </trkpt>
      <trkpt lat="49.81592" lon="2.53898">
        <ele>62.8</ele>
        <time>2023-07-02T11:21:34Z</time>
      </trkpt>
      <trkpt lat="49.81592" lon="2.53899">
        <ele>62.8</ele>
        <time>2023-07-02T11:21:35Z</time>
      </trkpt>
      <trkpt lat="49.81591" lon="2.539">
        <ele>62.9</ele>
        <time>2023-07-02T11:21:36Z</time>
      </trkpt>
      <trkpt lat="49.8159" lon="2.53902">
        <ele>63</ele>
        <time>2023-07-02T11:21:37Z</time>
      </trkpt>
      <trkpt lat="49.81589" lon="2.53904">
        <ele>63.1</ele>
        <time>2023-07-02T11:21:39Z</time>
      </trkpt>
      <trkpt lat="49.81588" lon="2.53905">
        <ele>63.2</ele>
        <time>2023-07-02T11:21:40Z</time>
      </trkpt>
      <trkpt lat="49.81587" lon="2.53906">
        <ele>63.3</ele>
        <time>2023-07-02T11:21:41Z</time>
      </trkpt>
      <trkpt lat="49.81584" lon="2.53909">
        <ele>63.5</ele>
        <time>2023-07-02T11:21:43Z</time>
      </trkpt>
      <trkpt lat="49.81584" lon="2.5391">
        <ele>63.6</ele>
        <time>2023-07-02T11:21:44Z</time>
      </trkpt>
      <trkpt lat="49.81583" lon="2.53909">
        <ele>63.6</ele>
        <time>2023-07-02T11:21:46Z</time>
      </trkpt>
      <trkpt lat="49.81582" lon="2.53909">
        <ele>63.7</ele>
        <time>2023-07-02T11:21:47Z</time>
      </trkpt>
      <trkpt lat="49.81582" lon="2.53909">
        <ele>63.7</ele>
        <time>2023-07-02T11:21:49Z</time>
      </trkpt>
      <trkpt lat="49.81583" lon="2.53909">
        <ele>63.7</ele>
        <time>2023-07-02T11:21:50Z</time>
      </trkpt>
      <trkpt lat="49.81583" lon="2.53909">
        <ele>63.7</ele>
        <time>2023-07-02T11:21:51Z</time>
      </trkpt>
      <trkpt lat="49.81583" lon="2.53909">
        <ele>63.7</ele>
        <time>2023-07-02T11:21:53Z</time>
      </trkpt>
      <trkpt lat="49.81583" lon="2.53909">
        <ele>63.7</ele>
        <time>2023-07-02T11:21:54Z</time>
      </trkpt>
      <trkpt lat="49.81583" lon="2.5391">
        <ele>63.7</ele>
        <time>2023-07-02T11:21:56Z</time>
      </trkpt>
      <trkpt lat="49.81583" lon="2.5391">
        <ele>63.8</ele>
        <time>2023-07-02T11:21:57Z</time>
      </trkpt>
      <trkpt lat="49.81583" lon="2.5391">
        <ele>63.8</ele>
        <time>2023-07-02T11:21:59Z</time>
      </trkpt>
      <trkpt lat="49.81583" lon="2.53912">
        <ele>63.8</ele>
        <time>2023-07-02T11:22:00Z</time>
      </trkpt>
      <trkpt lat="49.81584" lon="2.53913">
        <ele>63.9</ele>
        <time>2023-07-02T11:22:01Z</time>
      </trkpt>
      <trkpt lat="49.81585" lon="2.53914">
        <ele>64</ele>
        <time>2023-07-02T11:22:02Z</time>
      </trkpt>
      <trkpt lat="49.81585" lon="2.53916">
        <ele>64.1</ele>
        <time>2023-07-02T11:22:03Z</time>
      </trkpt>
      <trkpt lat="49.81586" lon="2.53917">
        <ele>64.2</ele>
        <time>2023-07-02T11:22:04Z</time>
      </trkpt>
      <trkpt lat="49.81587" lon="2.53919">
        <ele>64.3</ele>
        <time>2023-07-02T11:22:06Z</time>
      </trkpt>
      <trkpt lat="49.81587" lon="2.53921">
        <ele>64.3</ele>
        <time>2023-07-02T11:22:07Z</time>
      </trkpt>
      <trkpt lat="49.81588" lon="2.53922">
        <ele>64.4</ele>
        <time>2023-07-02T11:22:08Z</time>
      </trkpt>
      <trkpt lat="49.81588" lon="2.53924">
        <ele>64.5</ele>
        <time>2023-07-02T11:22:09Z</time>
      </trkpt>
      <trkpt lat="49.81588" lon="2.53926">
        <ele>64.5</ele>
        <time>2023-07-02T11:22:10Z</time>
      </trkpt>
      <trkpt lat="49.81587" lon="2.53928">
        <ele>64.6</ele>
        <time>2023-07-02T11:22:12Z</time>
      </trkpt>
      <trkpt lat="49.81587" lon="2.53929">
        <ele>64.7</ele>
        <time>2023-07-02T11:22:13Z</time>
      </trkpt>
      <trkpt lat="49.81585" lon="2.5393">
        <ele>64.8</ele>
        <time>2023-07-02T11:22:14Z</time>
      </trkpt>
      <trkpt lat="49.81584" lon="2.5393">
        <ele>64.9</ele>
        <time>2023-07-02T11:22:15Z</time>
      </trkpt>
      <trkpt lat="49.81584" lon="2.53931">
        <ele>64.9</ele>
        <time>2023-07-02T11:22:16Z</time>
      </trkpt>
      <trkpt lat="49.81583" lon="2.53933">
        <ele>65</ele>
        <time>2023-07-02T11:22:17Z</time>
      </trkpt>
      <trkpt lat="49.81582" lon="2.53934">
        <ele>65.1</ele>
        <time>2023-07-02T11:22:18Z</time>
      </trkpt>
      <trkpt lat="49.81581" lon="2.53937">
        <ele>65.2</ele>
        <time>2023-07-02T11:22:20Z</time>
      </trkpt>
      <trkpt lat="49.81581" lon="2.53938">
        <ele>65.3</ele>
        <time>2023-07-02T11:22:21Z</time>
      </trkpt>
      <trkpt lat="49.8158" lon="2.53939">
        <ele>65.3</ele>
        <time>2023-07-02T11:22:23Z</time>
      </trkpt>
      <trkpt lat="49.81579" lon="2.53941">
        <ele>65.4</ele>
        <time>2023-07-02T11:22:24Z</time>
      </trkpt>
      <trkpt lat="49.81578" lon="2.53943">
        <ele>65.5</ele>
        <time>2023-07-02T11:22:25Z</time>
      </trkpt>
      <trkpt lat="49.81578" lon="2.53945">
        <ele>65.6</ele>
        <time>2023-07-02T11:22:26Z</time>
      </trkpt>
      <trkpt lat="49.81577" lon="2.53946">
        <ele>65.7</ele>
        <time>2023-07-02T11:22:27Z</time>
      </trkpt>
      <trkpt lat="49.81577" lon="2.53949">
        <ele>65.8</ele>
        <time>2023-07-02T11:22:29Z</time>
      </trkpt>
      <trkpt lat="49.81576" lon="2.53951">
        <ele>65.9</ele>
        <time>2023-07-02T11:22:30Z</time>
      </trkpt>
      <trkpt lat="49.81576" lon="2.53953">
        <ele>66</ele>
        <time>2023-07-02T11:22:31Z</time>
      </trkpt>
      <trkpt lat="49.81576" lon="2.53955">
        <ele>66.1</ele>
        <time>2023-07-02T11:22:32Z</time>
      </trkpt>
      <trkpt lat="49.81576" lon="2.53957">
        <ele>66.2</ele>
        <time>2023-07-02T11:22:33Z</time>
      </trkpt>
      <trkpt lat="49.81577" lon="2.53958">
        <ele>66.2</ele>
        <time>2023-07-02T11:22:34Z</time>
      </trkpt>
      <trkpt lat="49.81577" lon="2.53961">
        <ele>66.3</ele>
        <time>2023-07-02T11:22:35Z</time>
      </trkpt>
      <trkpt lat="49.81577" lon="2.53963">
        <ele>66.4</ele>
        <time>2023-07-02T11:22:37Z</time>
      </trkpt>
      <trkpt lat="49.81577" lon="2.53964">
        <ele>66.5</ele>
        <time>2023-07-02T11:22:38Z</time>
      </trkpt>
      <trkpt lat="49.81577" lon="2.53967">
        <ele>66.6</ele>
        <time>2023-07-02T11:22:39Z</time>
      </trkpt>
      <trkpt lat="49.81577" lon="2.53969">
        <ele>66.6</ele>
        <time>2023-07-02T11:22:40Z</time>
      </trkpt>
      <trkpt lat="49.81576" lon="2.5397">
        <ele>66.7</ele>
        <time>2023-07-02T11:22:41Z</time>
      </trkpt>
      <trkpt lat="49.81576" lon="2.53973">
        <ele>66.8</ele>
        <time>2023-07-02T11:22:42Z</time>
      </trkpt>
      <trkpt lat="49.81575" lon="2.53974">
        <ele>66.9</ele>
        <time>2023-07-02T11:22:44Z</time>
      </trkpt>
      <trkpt lat="49.81575" lon="2.53975">
        <ele>66.9</ele>
        <time>2023-07-02T11:22:45Z</time>
      </trkpt>
      <trkpt lat="49.81574" lon="2.53977">
        <ele>67</ele>
        <time>2023-07-02T11:22:46Z</time>
      </trkpt>
      <trkpt lat="49.81574" lon="2.53979">
        <ele>67.1</ele>
        <time>2023-07-02T11:22:47Z</time>
      </trkpt>
      <trkpt lat="49.81574" lon="2.5398">
        <ele>67.1</ele>
        <time>2023-07-02T11:22:48Z</time>
      </trkpt>
      <trkpt lat="49.81572" lon="2.53983">
        <ele>67.3</ele>
        <time>2023-07-02T11:22:50Z</time>
      </trkpt>
      <trkpt lat="49.81572" lon="2.53984">
        <ele>67.3</ele>
        <time>2023-07-02T11:22:51Z</time>
      </trkpt>
      <trkpt lat="49.81572" lon="2.53985">
        <ele>67.4</ele>
        <time>2023-07-02T11:22:52Z</time>
      </trkpt>
      <trkpt lat="49.81571" lon="2.53987">
        <ele>67.5</ele>
        <time>2023-07-02T11:22:53Z</time>
      </trkpt>
      <trkpt lat="49.8157" lon="2.53988">
        <ele>67.5</ele>
        <time>2023-07-02T11:22:54Z</time>
      </trkpt>
      <trkpt lat="49.8157" lon="2.53989">
        <ele>67.6</ele>
        <time>2023-07-02T11:22:55Z</time>
      </trkpt>
      <trkpt lat="49.81569" lon="2.53991">
        <ele>67.7</ele>
        <time>2023-07-02T11:22:56Z</time>
      </trkpt>
      <trkpt lat="49.81569" lon="2.53992">
        <ele>67.7</ele>
        <time>2023-07-02T11:22:58Z</time>
      </trkpt>
      <trkpt lat="49.81568" lon="2.53994">
        <ele>67.8</ele>
        <time>2023-07-02T11:22:59Z</time>
      </trkpt>
      <trkpt lat="49.81568" lon="2.53995">
        <ele>67.9</ele>
        <time>2023-07-02T11:23:00Z</time>
      </trkpt>
      <trkpt lat="49.81567" lon="2.53997">
        <ele>67.9</ele>
        <time>2023-07-02T11:23:01Z</time>
      </trkpt>
      <trkpt lat="49.81566" lon="2.53998">
        <ele>68</ele>
        <time>2023-07-02T11:23:02Z</time>
      </trkpt>
      <trkpt lat="49.81566" lon="2.53999">
        <ele>68.1</ele>
        <time>2023-07-02T11:23:03Z</time>
      </trkpt>
      <trkpt lat="49.81565" lon="2.54">
        <ele>68.1</ele>
        <time>2023-07-02T11:23:05Z</time>
      </trkpt>
      <trkpt lat="49.81564" lon="2.54002">
        <ele>68.2</ele>
        <time>2023-07-02T11:23:06Z</time>
      </trkpt>
      <trkpt lat="49.81564" lon="2.54003">
        <ele>68.3</ele>
        <time>2023-07-02T11:23:07Z</time>
      </trkpt>
      <trkpt lat="49.81563" lon="2.54005">
        <ele>68.4</ele>
        <time>2023-07-02T11:23:08Z</time>
      </trkpt>
      <trkpt lat="49.81563" lon="2.54006">
        <ele>68.4</ele>
        <time>2023-07-02T11:23:09Z</time>
      </trkpt>
      <trkpt lat="49.81562" lon="2.54008">
        <ele>68.5</ele>
        <time>2023-07-02T11:23:11Z</time>
      </trkpt>
      <trkpt lat="49.81561" lon="2.5401">
        <ele>68.6</ele>
        <time>2023-07-02T11:23:12Z</time>
      </trkpt>
      <trkpt lat="49.81561" lon="2.54011">
        <ele>68.7</ele>
        <time>2023-07-02T11:23:13Z</time>
      </trkpt>
      <trkpt lat="49.8156" lon="2.54013">
        <ele>68.7</ele>
        <time>2023-07-02T11:23:14Z</time>
      </trkpt>
      <trkpt lat="49.8156" lon="2.54014">
        <ele>68.8</ele>
        <time>2023-07-02T11:23:15Z</time>
      </trkpt>
      <trkpt lat="49.81559" lon="2.54016">
        <ele>68.9</ele>
        <time>2023-07-02T11:23:17Z</time>
      </trkpt>
      <trkpt lat="49.81558" lon="2.54018">
        <ele>69</ele>
        <time>2023-07-02T11:23:18Z</time>
      </trkpt>
      <trkpt lat="49.81557" lon="2.5402">
        <ele>69.1</ele>
        <time>2023-07-02T11:23:19Z</time>
      </trkpt>
      <trkpt lat="49.81557" lon="2.54022">
        <ele>69.2</ele>
        <time>2023-07-02T11:23:20Z</time>
      </trkpt>
      <trkpt lat="49.81556" lon="2.54024">
        <ele>69.2</ele>
        <time>2023-07-02T11:23:21Z</time>
      </trkpt>
      <trkpt lat="49.81556" lon="2.54025">
        <ele>69.3</ele>
        <time>2023-07-02T11:23:23Z</time>
      </trkpt>
      <trkpt lat="49.81555" lon="2.54027">
        <ele>69.4</ele>
        <time>2023-07-02T11:23:24Z</time>
      </trkpt>
      <trkpt lat="49.81555" lon="2.54029">
        <ele>69.5</ele>
        <time>2023-07-02T11:23:25Z</time>
      </trkpt>
      <trkpt lat="49.81554" lon="2.5403">
        <ele>69.5</ele>
        <time>2023-07-02T11:23:26Z</time>
      </trkpt>
      <trkpt lat="49.81554" lon="2.54031">
        <ele>69.6</ele>
        <time>2023-07-02T11:23:27Z</time>
      </trkpt>
      <trkpt lat="49.81553" lon="2.54033">
        <ele>69.6</ele>
        <time>2023-07-02T11:23:28Z</time>
      </trkpt>
      <trkpt lat="49.81553" lon="2.54035">
        <ele>69.7</ele>
        <time>2023-07-02T11:23:30Z</time>
      </trkpt>
      <trkpt lat="49.81552" lon="2.54036">
        <ele>69.8</ele>
        <time>2023-07-02T11:23:31Z</time>
      </trkpt>
      <trkpt lat="49.81552" lon="2.54038">
        <ele>69.9</ele>
        <time>2023-07-02T11:23:32Z</time>
      </trkpt>
      <trkpt lat="49.81551" lon="2.54039">
        <ele>69.9</ele>
        <time>2023-07-02T11:23:33Z</time>
      </trkpt>
      <trkpt lat="49.81551" lon="2.54041">
        <ele>70</ele>
        <time>2023-07-02T11:23:34Z</time>
      </trkpt>
      <trkpt lat="49.8155" lon="2.54043">
        <ele>70.1</ele>
        <time>2023-07-02T11:23:35Z</time>
      </trkpt>
      <trkpt lat="49.8155" lon="2.54044">
        <ele>70.1</ele>
        <time>2023-07-02T11:23:36Z</time>
      </trkpt>
      <trkpt lat="49.81549" lon="2.54045">
        <ele>70.2</ele>
        <time>2023-07-02T11:23:38Z</time>
      </trkpt>
      <trkpt lat="49.81549" lon="2.54047">
        <ele>70.3</ele>
        <time>2023-07-02T11:23:39Z</time>
      </trkpt>
      <trkpt lat="49.81548" lon="2.54048">
        <ele>70.3</ele>
        <time>2023-07-02T11:23:40Z</time>
      </trkpt>
      <trkpt lat="49.81548" lon="2.5405">
        <ele>70.4</ele>
        <time>2023-07-02T11:23:41Z</time>
      </trkpt>
      <trkpt lat="49.81547" lon="2.54052">
        <ele>70.5</ele>
        <time>2023-07-02T11:23:42Z</time>
      </trkpt>
      <trkpt lat="49.81547" lon="2.54053">
        <ele>70.5</ele>
        <time>2023-07-02T11:23:44Z</time>
      </trkpt>
      <trkpt lat="49.81547" lon="2.54055">
        <ele>70.6</ele>
        <time>2023-07-02T11:23:45Z</time>
      </trkpt>
      <trkpt lat="49.81546" lon="2.54057">
        <ele>70.7</ele>
        <time>2023-07-02T11:23:46Z</time>
      </trkpt>
      <trkpt lat="49.81545" lon="2.54058">
        <ele>70.8</ele>
        <time>2023-07-02T11:23:47Z</time>
      </trkpt>
      <trkpt lat="49.81545" lon="2.54059">
        <ele>70.8</ele>
        <time>2023-07-02T11:23:48Z</time>
      </trkpt>
      <trkpt lat="49.81544" lon="2.54061">
        <ele>70.9</ele>
        <time>2023-07-02T11:23:50Z</time>
      </trkpt>
      <trkpt lat="49.81544" lon="2.54063">
        <ele>71</ele>
        <time>2023-07-02T11:23:51Z</time>
      </trkpt>
      <trkpt lat="49.81542" lon="2.54066">
        <ele>71.1</ele>
        <time>2023-07-02T11:23:52Z</time>
      </trkpt>
      <trkpt lat="49.81542" lon="2.54067">
        <ele>71.2</ele>
        <time>2023-07-02T11:23:53Z</time>
      </trkpt>
      <trkpt lat="49.81542" lon="2.54068">
        <ele>71.2</ele>
        <time>2023-07-02T11:23:54Z</time>
      </trkpt>
      <trkpt lat="49.81541" lon="2.54071">
        <ele>71.3</ele>
        <time>2023-07-02T11:23:55Z</time>
      </trkpt>
      <trkpt lat="49.81541" lon="2.54072">
        <ele>71.4</ele>
        <time>2023-07-02T11:23:57Z</time>
      </trkpt>
      <trkpt lat="49.81541" lon="2.54074">
        <ele>71.5</ele>
        <time>2023-07-02T11:23:58Z</time>
      </trkpt>
      <trkpt lat="49.8154" lon="2.54075">
        <ele>71.5</ele>
        <time>2023-07-02T11:23:59Z</time>
      </trkpt>
      <trkpt lat="49.8154" lon="2.54077">
        <ele>71.6</ele>
        <time>2023-07-02T11:24:00Z</time>
      </trkpt>
      <trkpt lat="49.81539" lon="2.54078">
        <ele>71.7</ele>
        <time>2023-07-02T11:24:01Z</time>
      </trkpt>
      <trkpt lat="49.81539" lon="2.5408">
        <ele>71.8</ele>
        <time>2023-07-02T11:24:03Z</time>
      </trkpt>
      <trkpt lat="49.81538" lon="2.54082">
        <ele>71.8</ele>
        <time>2023-07-02T11:24:04Z</time>
      </trkpt>
      <trkpt lat="49.81537" lon="2.54083">
        <ele>71.9</ele>
        <time>2023-07-02T11:24:05Z</time>
      </trkpt>
      <trkpt lat="49.81537" lon="2.54084">
        <ele>72</ele>
        <time>2023-07-02T11:24:06Z</time>
      </trkpt>
      <trkpt lat="49.81536" lon="2.54086">
        <ele>72</ele>
        <time>2023-07-02T11:24:07Z</time>
      </trkpt>
      <trkpt lat="49.81535" lon="2.54088">
        <ele>72.1</ele>
        <time>2023-07-02T11:24:09Z</time>
      </trkpt>
      <trkpt lat="49.81535" lon="2.5409">
        <ele>72.2</ele>
        <time>2023-07-02T11:24:10Z</time>
      </trkpt>
      <trkpt lat="49.81535" lon="2.54092">
        <ele>72.3</ele>
        <time>2023-07-02T11:24:11Z</time>
      </trkpt>
      <trkpt lat="49.81534" lon="2.54094">
        <ele>72.4</ele>
        <time>2023-07-02T11:24:12Z</time>
      </trkpt>
      <trkpt lat="49.81534" lon="2.54095">
        <ele>72.5</ele>
        <time>2023-07-02T11:24:13Z</time>
      </trkpt>
      <trkpt lat="49.81534" lon="2.54097">
        <ele>72.5</ele>
        <time>2023-07-02T11:24:14Z</time>
      </trkpt>
      <trkpt lat="49.81533" lon="2.541">
        <ele>72.7</ele>
        <time>2023-07-02T11:24:16Z</time>
      </trkpt>
      <trkpt lat="49.81532" lon="2.54102">
        <ele>72.7</ele>
        <time>2023-07-02T11:24:17Z</time>
      </trkpt>
      <trkpt lat="49.81532" lon="2.54103">
        <ele>72.8</ele>
        <time>2023-07-02T11:24:18Z</time>
      </trkpt>
      <trkpt lat="49.81531" lon="2.54106">
        <ele>72.9</ele>
        <time>2023-07-02T11:24:19Z</time>
      </trkpt>
      <trkpt lat="49.81531" lon="2.54107">
        <ele>73</ele>
        <time>2023-07-02T11:24:21Z</time>
      </trkpt>
      <trkpt lat="49.81531" lon="2.54108">
        <ele>73</ele>
        <time>2023-07-02T11:24:22Z</time>
      </trkpt>
      <trkpt lat="49.8153" lon="2.5411">
        <ele>73.1</ele>
        <time>2023-07-02T11:24:23Z</time>
      </trkpt>
      <trkpt lat="49.8153" lon="2.54111">
        <ele>73.2</ele>
        <time>2023-07-02T11:24:24Z</time>
      </trkpt>
      <trkpt lat="49.81529" lon="2.54113">
        <ele>73.3</ele>
        <time>2023-07-02T11:24:25Z</time>
      </trkpt>
      <trkpt lat="49.81529" lon="2.54114">
        <ele>73.3</ele>
        <time>2023-07-02T11:24:27Z</time>
      </trkpt>
      <trkpt lat="49.81528" lon="2.54116">
        <ele>73.4</ele>
        <time>2023-07-02T11:24:28Z</time>
      </trkpt>
      <trkpt lat="49.81528" lon="2.54117">
        <ele>73.5</ele>
        <time>2023-07-02T11:24:29Z</time>
      </trkpt>
      <trkpt lat="49.81528" lon="2.54119">
        <ele>73.6</ele>
        <time>2023-07-02T11:24:30Z</time>
      </trkpt>
      <trkpt lat="49.81527" lon="2.54121">
        <ele>73.7</ele>
        <time>2023-07-02T11:24:31Z</time>
      </trkpt>
      <trkpt lat="49.81527" lon="2.54122">
        <ele>73.7</ele>
        <time>2023-07-02T11:24:33Z</time>
      </trkpt>
      <trkpt lat="49.81526" lon="2.54123">
        <ele>73.8</ele>
        <time>2023-07-02T11:24:34Z</time>
      </trkpt>
      <trkpt lat="49.81526" lon="2.54125">
        <ele>73.8</ele>
        <time>2023-07-02T11:24:35Z</time>
      </trkpt>
      <trkpt lat="49.81526" lon="2.54126">
        <ele>73.9</ele>
        <time>2023-07-02T11:24:36Z</time>
      </trkpt>
      <trkpt lat="49.81525" lon="2.54128">
        <ele>74</ele>
        <time>2023-07-02T11:24:37Z</time>
      </trkpt>
      <trkpt lat="49.81525" lon="2.54129">
        <ele>74.1</ele>
        <time>2023-07-02T11:24:39Z</time>
      </trkpt>
      <trkpt lat="49.81524" lon="2.54131">
        <ele>74.1</ele>
        <time>2023-07-02T11:24:40Z</time>
      </trkpt>
      <trkpt lat="49.81524" lon="2.54132">
        <ele>74.2</ele>
        <time>2023-07-02T11:24:41Z</time>
      </trkpt>
      <trkpt lat="49.81523" lon="2.54133">
        <ele>74.3</ele>
        <time>2023-07-02T11:24:42Z</time>
      </trkpt>
      <trkpt lat="49.81522" lon="2.54135">
        <ele>74.4</ele>
        <time>2023-07-02T11:24:43Z</time>
      </trkpt>
      <trkpt lat="49.81522" lon="2.54136">
        <ele>74.4</ele>
        <time>2023-07-02T11:24:44Z</time>
      </trkpt>
      <trkpt lat="49.81521" lon="2.54137">
        <ele>74.5</ele>
        <time>2023-07-02T11:24:46Z</time>
      </trkpt>
      <trkpt lat="49.81521" lon="2.54139">
        <ele>74.6</ele>
        <time>2023-07-02T11:24:47Z</time>
      </trkpt>
      <trkpt lat="49.8152" lon="2.5414">
        <ele>74.6</ele>
        <time>2023-07-02T11:24:48Z</time>
      </trkpt>
      <trkpt lat="49.81519" lon="2.54142">
        <ele>74.7</ele>
        <time>2023-07-02T11:24:49Z</time>
      </trkpt>
      <trkpt lat="49.81518" lon="2.54143">
        <ele>74.8</ele>
        <time>2023-07-02T11:24:50Z</time>
      </trkpt>
      <trkpt lat="49.81517" lon="2.54145">
        <ele>74.9</ele>
        <time>2023-07-02T11:24:51Z</time>
      </trkpt>
      <trkpt lat="49.81517" lon="2.54147">
        <ele>75</ele>
        <time>2023-07-02T11:24:53Z</time>
      </trkpt>
      <trkpt lat="49.81516" lon="2.54148">
        <ele>75.1</ele>
        <time>2023-07-02T11:24:54Z</time>
      </trkpt>
      <trkpt lat="49.81516" lon="2.54149">
        <ele>75.1</ele>
        <time>2023-07-02T11:24:55Z</time>
      </trkpt>
      <trkpt lat="49.81515" lon="2.54151">
        <ele>75.2</ele>
        <time>2023-07-02T11:24:56Z</time>
      </trkpt>
      <trkpt lat="49.81515" lon="2.54152">
        <ele>75.3</ele>
        <time>2023-07-02T11:24:57Z</time>
      </trkpt>
      <trkpt lat="49.81515" lon="2.54153">
        <ele>75.3</ele>
        <time>2023-07-02T11:24:58Z</time>
      </trkpt>
      <trkpt lat="49.81514" lon="2.54155">
        <ele>75.4</ele>
        <time>2023-07-02T11:24:59Z</time>
      </trkpt>
      <trkpt lat="49.81514" lon="2.54157">
        <ele>75.5</ele>
        <time>2023-07-02T11:25:01Z</time>
      </trkpt>
      <trkpt lat="49.81513" lon="2.54159">
        <ele>75.6</ele>
        <time>2023-07-02T11:25:02Z</time>
      </trkpt>
      <trkpt lat="49.81513" lon="2.5416">
        <ele>75.7</ele>
        <time>2023-07-02T11:25:03Z</time>
      </trkpt>
      <trkpt lat="49.81512" lon="2.54161">
        <ele>75.7</ele>
        <time>2023-07-02T11:25:04Z</time>
      </trkpt>
      <trkpt lat="49.81512" lon="2.54163">
        <ele>75.8</ele>
        <time>2023-07-02T11:25:06Z</time>
      </trkpt>
      <trkpt lat="49.81511" lon="2.54164">
        <ele>75.9</ele>
        <time>2023-07-02T11:25:07Z</time>
      </trkpt>
      <trkpt lat="49.81511" lon="2.54166">
        <ele>76</ele>
        <time>2023-07-02T11:25:08Z</time>
      </trkpt>
      <trkpt lat="49.8151" lon="2.54167">
        <ele>76</ele>
        <time>2023-07-02T11:25:09Z</time>
      </trkpt>
      <trkpt lat="49.8151" lon="2.54168">
        <ele>76.1</ele>
        <time>2023-07-02T11:25:10Z</time>
      </trkpt>
      <trkpt lat="49.81509" lon="2.54169">
        <ele>76.1</ele>
        <time>2023-07-02T11:25:11Z</time>
      </trkpt>
      <trkpt lat="49.81509" lon="2.5417">
        <ele>76.2</ele>
        <time>2023-07-02T11:25:12Z</time>
      </trkpt>
      <trkpt lat="49.81508" lon="2.54172">
        <ele>76.3</ele>
        <time>2023-07-02T11:25:14Z</time>
      </trkpt>
      <trkpt lat="49.81508" lon="2.54173">
        <ele>76.4</ele>
        <time>2023-07-02T11:25:15Z</time>
      </trkpt>
      <trkpt lat="49.81507" lon="2.54175">
        <ele>76.4</ele>
        <time>2023-07-02T11:25:16Z</time>
      </trkpt>
      <trkpt lat="49.81507" lon="2.54176">
        <ele>76.5</ele>
        <time>2023-07-02T11:25:17Z</time>
      </trkpt>
      <trkpt lat="49.81506" lon="2.54177">
        <ele>76.5</ele>
        <time>2023-07-02T11:25:18Z</time>
      </trkpt>
      <trkpt lat="49.81506" lon="2.54178">
        <ele>76.6</ele>
        <time>2023-07-02T11:25:19Z</time>
      </trkpt>
      <trkpt lat="49.81505" lon="2.5418">
        <ele>76.7</ele>
        <time>2023-07-02T11:25:20Z</time>
      </trkpt>
      <trkpt lat="49.81505" lon="2.54181">
        <ele>76.8</ele>
        <time>2023-07-02T11:25:22Z</time>
      </trkpt>
      <trkpt lat="49.81504" lon="2.54183">
        <ele>76.9</ele>
        <time>2023-07-02T11:25:23Z</time>
      </trkpt>
      <trkpt lat="49.81503" lon="2.54185">
        <ele>77</ele>
        <time>2023-07-02T11:25:24Z</time>
      </trkpt>
      <trkpt lat="49.81502" lon="2.54187">
        <ele>77.1</ele>
        <time>2023-07-02T11:25:25Z</time>
      </trkpt>
      <trkpt lat="49.81502" lon="2.54188">
        <ele>77.1</ele>
        <time>2023-07-02T11:25:26Z</time>
      </trkpt>
      <trkpt lat="49.81501" lon="2.5419">
        <ele>77.3</ele>
        <time>2023-07-02T11:25:28Z</time>
      </trkpt>
      <trkpt lat="49.815" lon="2.54192">
        <ele>77.4</ele>
        <time>2023-07-02T11:25:29Z</time>
      </trkpt>
      <trkpt lat="49.81499" lon="2.54195">
        <ele>77.5</ele>
        <time>2023-07-02T11:25:30Z</time>
      </trkpt>
      <trkpt lat="49.81499" lon="2.54196">
        <ele>77.6</ele>
        <time>2023-07-02T11:25:31Z</time>
      </trkpt>
      <trkpt lat="49.81499" lon="2.54197">
        <ele>77.6</ele>
        <time>2023-07-02T11:25:32Z</time>
      </trkpt>
      <trkpt lat="49.81497" lon="2.54199">
        <ele>77.8</ele>
        <time>2023-07-02T11:25:34Z</time>
      </trkpt>
      <trkpt lat="49.81497" lon="2.54201">
        <ele>77.9</ele>
        <time>2023-07-02T11:25:36Z</time>
      </trkpt>
      <trkpt lat="49.81496" lon="2.54202">
        <ele>77.9</ele>
        <time>2023-07-02T11:25:37Z</time>
      </trkpt>
      <trkpt lat="49.81496" lon="2.54203">
        <ele>78</ele>
        <time>2023-07-02T11:25:38Z</time>
      </trkpt>
      <trkpt lat="49.81495" lon="2.54205">
        <ele>78.1</ele>
        <time>2023-07-02T11:25:39Z</time>
      </trkpt>
      <trkpt lat="49.81494" lon="2.54206">
        <ele>78.2</ele>
        <time>2023-07-02T11:25:40Z</time>
      </trkpt>
      <trkpt lat="49.81493" lon="2.54207">
        <ele>78.2</ele>
        <time>2023-07-02T11:25:42Z</time>
      </trkpt>
      <trkpt lat="49.81493" lon="2.54209">
        <ele>78.3</ele>
        <time>2023-07-02T11:25:43Z</time>
      </trkpt>
      <trkpt lat="49.81492" lon="2.5421">
        <ele>78.4</ele>
        <time>2023-07-02T11:25:44Z</time>
      </trkpt>
      <trkpt lat="49.81491" lon="2.54212">
        <ele>78.5</ele>
        <time>2023-07-02T11:25:45Z</time>
      </trkpt>
      <trkpt lat="49.81491" lon="2.54213">
        <ele>78.6</ele>
        <time>2023-07-02T11:25:47Z</time>
      </trkpt>
      <trkpt lat="49.8149" lon="2.54215">
        <ele>78.7</ele>
        <time>2023-07-02T11:25:48Z</time>
      </trkpt>
      <trkpt lat="49.8149" lon="2.54216">
        <ele>78.7</ele>
        <time>2023-07-02T11:25:49Z</time>
      </trkpt>
      <trkpt lat="49.81489" lon="2.54217">
        <ele>78.8</ele>
        <time>2023-07-02T11:25:50Z</time>
      </trkpt>
      <trkpt lat="49.81489" lon="2.54219">
        <ele>78.9</ele>
        <time>2023-07-02T11:25:51Z</time>
      </trkpt>
      <trkpt lat="49.81488" lon="2.5422">
        <ele>79</ele>
        <time>2023-07-02T11:25:52Z</time>
      </trkpt>
      <trkpt lat="49.81488" lon="2.54222">
        <ele>79</ele>
        <time>2023-07-02T11:25:54Z</time>
      </trkpt>
      <trkpt lat="49.81487" lon="2.54223">
        <ele>79.1</ele>
        <time>2023-07-02T11:25:55Z</time>
      </trkpt>
      <trkpt lat="49.81487" lon="2.54225">
        <ele>79.2</ele>
        <time>2023-07-02T11:25:56Z</time>
      </trkpt>
      <trkpt lat="49.81487" lon="2.54226">
        <ele>79.3</ele>
        <time>2023-07-02T11:25:57Z</time>
      </trkpt>
      <trkpt lat="49.81487" lon="2.54228">
        <ele>79.3</ele>
        <time>2023-07-02T11:25:58Z</time>
      </trkpt>
      <trkpt lat="49.81486" lon="2.54229">
        <ele>79.4</ele>
        <time>2023-07-02T11:25:59Z</time>
      </trkpt>
      <trkpt lat="49.81486" lon="2.54231">
        <ele>79.5</ele>
        <time>2023-07-02T11:26:00Z</time>
      </trkpt>
      <trkpt lat="49.81486" lon="2.54233">
        <ele>79.6</ele>
        <time>2023-07-02T11:26:02Z</time>
      </trkpt>
      <trkpt lat="49.81485" lon="2.54235">
        <ele>79.7</ele>
        <time>2023-07-02T11:26:03Z</time>
      </trkpt>
      <trkpt lat="49.81485" lon="2.54236">
        <ele>79.7</ele>
        <time>2023-07-02T11:26:04Z</time>
      </trkpt>
      <trkpt lat="49.81485" lon="2.54238">
        <ele>79.8</ele>
        <time>2023-07-02T11:26:05Z</time>
      </trkpt>
      <trkpt lat="49.81484" lon="2.54239">
        <ele>79.9</ele>
        <time>2023-07-02T11:26:07Z</time>
      </trkpt>
      <trkpt lat="49.81484" lon="2.54241">
        <ele>80</ele>
        <time>2023-07-02T11:26:08Z</time>
      </trkpt>
      <trkpt lat="49.81484" lon="2.54244">
        <ele>80.1</ele>
        <time>2023-07-02T11:26:09Z</time>
      </trkpt>
      <trkpt lat="49.81483" lon="2.54245">
        <ele>80.1</ele>
        <time>2023-07-02T11:26:10Z</time>
      </trkpt>
      <trkpt lat="49.81483" lon="2.54246">
        <ele>80.2</ele>
        <time>2023-07-02T11:26:11Z</time>
      </trkpt>
      <trkpt lat="49.81483" lon="2.54246">
        <ele>80.2</ele>
        <time>2023-07-02T11:26:12Z</time>
      </trkpt>
      <trkpt lat="49.81483" lon="2.54248">
        <ele>80.3</ele>
        <time>2023-07-02T11:26:13Z</time>
      </trkpt>
      <trkpt lat="49.81482" lon="2.54249">
        <ele>80.4</ele>
        <time>2023-07-02T11:26:14Z</time>
      </trkpt>
      <trkpt lat="49.81482" lon="2.5425">
        <ele>80.5</ele>
        <time>2023-07-02T11:26:16Z</time>
      </trkpt>
      <trkpt lat="49.81481" lon="2.54251">
        <ele>80.5</ele>
        <time>2023-07-02T11:26:17Z</time>
      </trkpt>
      <trkpt lat="49.81481" lon="2.54253">
        <ele>80.6</ele>
        <time>2023-07-02T11:26:18Z</time>
      </trkpt>
      <trkpt lat="49.8148" lon="2.54255">
        <ele>80.7</ele>
        <time>2023-07-02T11:26:19Z</time>
      </trkpt>
      <trkpt lat="49.8148" lon="2.54256">
        <ele>80.8</ele>
        <time>2023-07-02T11:26:20Z</time>
      </trkpt>
      <trkpt lat="49.81479" lon="2.54257">
        <ele>80.9</ele>
        <time>2023-07-02T11:26:21Z</time>
      </trkpt>
      <trkpt lat="49.81479" lon="2.54259">
        <ele>80.9</ele>
        <time>2023-07-02T11:26:22Z</time>
      </trkpt>
      <trkpt lat="49.81478" lon="2.54261">
        <ele>81</ele>
        <time>2023-07-02T11:26:24Z</time>
      </trkpt>
      <trkpt lat="49.81477" lon="2.54262">
        <ele>81.1</ele>
        <time>2023-07-02T11:26:25Z</time>
      </trkpt>
      <trkpt lat="49.81476" lon="2.54264">
        <ele>81.2</ele>
        <time>2023-07-02T11:26:26Z</time>
      </trkpt>
      <trkpt lat="49.81476" lon="2.54265">
        <ele>81.3</ele>
        <time>2023-07-02T11:26:27Z</time>
      </trkpt>
      <trkpt lat="49.81475" lon="2.54267">
        <ele>81.4</ele>
        <time>2023-07-02T11:26:28Z</time>
      </trkpt>
      <trkpt lat="49.81474" lon="2.54269">
        <ele>81.5</ele>
        <time>2023-07-02T11:26:30Z</time>
      </trkpt>
      <trkpt lat="49.81474" lon="2.5427">
        <ele>81.6</ele>
        <time>2023-07-02T11:26:31Z</time>
      </trkpt>
      <trkpt lat="49.81473" lon="2.54272">
        <ele>81.7</ele>
        <time>2023-07-02T11:26:32Z</time>
      </trkpt>
      <trkpt lat="49.81472" lon="2.54273">
        <ele>81.7</ele>
        <time>2023-07-02T11:26:33Z</time>
      </trkpt>
      <trkpt lat="49.81472" lon="2.54275">
        <ele>81.8</ele>
        <time>2023-07-02T11:26:34Z</time>
      </trkpt>
      <trkpt lat="49.81471" lon="2.54276">
        <ele>81.9</ele>
        <time>2023-07-02T11:26:35Z</time>
      </trkpt>
      <trkpt lat="49.8147" lon="2.54278">
        <ele>82</ele>
        <time>2023-07-02T11:26:36Z</time>
      </trkpt>
      <trkpt lat="49.8147" lon="2.54279">
        <ele>82.1</ele>
        <time>2023-07-02T11:26:37Z</time>
      </trkpt>
      <trkpt lat="49.81469" lon="2.54281">
        <ele>82.2</ele>
        <time>2023-07-02T11:26:39Z</time>
      </trkpt>
      <trkpt lat="49.81469" lon="2.54283">
        <ele>82.3</ele>
        <time>2023-07-02T11:26:40Z</time>
      </trkpt>
      <trkpt lat="49.81468" lon="2.54284">
        <ele>82.3</ele>
        <time>2023-07-02T11:26:41Z</time>
      </trkpt>
      <trkpt lat="49.81467" lon="2.54285">
        <ele>82.4</ele>
        <time>2023-07-02T11:26:42Z</time>
      </trkpt>
      <trkpt lat="49.81467" lon="2.54287">
        <ele>82.5</ele>
        <time>2023-07-02T11:26:43Z</time>
      </trkpt>
      <trkpt lat="49.81466" lon="2.54287">
        <ele>82.6</ele>
        <time>2023-07-02T11:26:44Z</time>
      </trkpt>
      <trkpt lat="49.81465" lon="2.54287">
        <ele>82.6</ele>
        <time>2023-07-02T11:26:45Z</time>
      </trkpt>
      <trkpt lat="49.81464" lon="2.54288">
        <ele>82.7</ele>
        <time>2023-07-02T11:26:46Z</time>
      </trkpt>
      <trkpt lat="49.81462" lon="2.54289">
        <ele>82.8</ele>
        <time>2023-07-02T11:26:48Z</time>
      </trkpt>
      <trkpt lat="49.81462" lon="2.5429">
        <ele>82.9</ele>
        <time>2023-07-02T11:26:49Z</time>
      </trkpt>
      <trkpt lat="49.81461" lon="2.54291">
        <ele>83</ele>
        <time>2023-07-02T11:26:50Z</time>
      </trkpt>
      <trkpt lat="49.8146" lon="2.54293">
        <ele>83.1</ele>
        <time>2023-07-02T11:26:51Z</time>
      </trkpt>
      <trkpt lat="49.8146" lon="2.54295">
        <ele>83.2</ele>
        <time>2023-07-02T11:26:52Z</time>
      </trkpt>
      <trkpt lat="49.81459" lon="2.54296">
        <ele>83.3</ele>
        <time>2023-07-02T11:26:53Z</time>
      </trkpt>
      <trkpt lat="49.81458" lon="2.54299">
        <ele>83.4</ele>
        <time>2023-07-02T11:26:55Z</time>
      </trkpt>
      <trkpt lat="49.81456" lon="2.54301">
        <ele>83.6</ele>
        <time>2023-07-02T11:26:57Z</time>
      </trkpt>
      <trkpt lat="49.81456" lon="2.54302">
        <ele>83.6</ele>
        <time>2023-07-02T11:26:58Z</time>
      </trkpt>
      <trkpt lat="49.81455" lon="2.54304">
        <ele>83.7</ele>
        <time>2023-07-02T11:26:59Z</time>
      </trkpt>
      <trkpt lat="49.81455" lon="2.54305">
        <ele>83.8</ele>
        <time>2023-07-02T11:27:00Z</time>
      </trkpt>
      <trkpt lat="49.81454" lon="2.54306">
        <ele>83.9</ele>
        <time>2023-07-02T11:27:02Z</time>
      </trkpt>
      <trkpt lat="49.81454" lon="2.54308">
        <ele>83.9</ele>
        <time>2023-07-02T11:27:03Z</time>
      </trkpt>
      <trkpt lat="49.81453" lon="2.5431">
        <ele>84</ele>
        <time>2023-07-02T11:27:04Z</time>
      </trkpt>
      <trkpt lat="49.81453" lon="2.54311">
        <ele>84.1</ele>
        <time>2023-07-02T11:27:05Z</time>
      </trkpt>
      <trkpt lat="49.81453" lon="2.54312">
        <ele>84.1</ele>
        <time>2023-07-02T11:27:06Z</time>
      </trkpt>
      <trkpt lat="49.81452" lon="2.54313">
        <ele>84.2</ele>
        <time>2023-07-02T11:27:07Z</time>
      </trkpt>
      <trkpt lat="49.81452" lon="2.54315">
        <ele>84.3</ele>
        <time>2023-07-02T11:27:08Z</time>
      </trkpt>
      <trkpt lat="49.81451" lon="2.54316">
        <ele>84.3</ele>
        <time>2023-07-02T11:27:10Z</time>
      </trkpt>
      <trkpt lat="49.81451" lon="2.54317">
        <ele>84.4</ele>
        <time>2023-07-02T11:27:11Z</time>
      </trkpt>
      <trkpt lat="49.81451" lon="2.54319">
        <ele>84.5</ele>
        <time>2023-07-02T11:27:12Z</time>
      </trkpt>
      <trkpt lat="49.8145" lon="2.5432">
        <ele>84.5</ele>
        <time>2023-07-02T11:27:13Z</time>
      </trkpt>
      <trkpt lat="49.8145" lon="2.54322">
        <ele>84.6</ele>
        <time>2023-07-02T11:27:14Z</time>
      </trkpt>
      <trkpt lat="49.81449" lon="2.54323">
        <ele>84.7</ele>
        <time>2023-07-02T11:27:15Z</time>
      </trkpt>
      <trkpt lat="49.81448" lon="2.54326">
        <ele>84.8</ele>
        <time>2023-07-02T11:27:17Z</time>
      </trkpt>
      <trkpt lat="49.81447" lon="2.54328">
        <ele>84.9</ele>
        <time>2023-07-02T11:27:19Z</time>
      </trkpt>
      <trkpt lat="49.81447" lon="2.54329">
        <ele>85</ele>
        <time>2023-07-02T11:27:20Z</time>
      </trkpt>
      <trkpt lat="49.81446" lon="2.54331">
        <ele>85</ele>
        <time>2023-07-02T11:27:21Z</time>
      </trkpt>
      <trkpt lat="49.81445" lon="2.54332">
        <ele>85.1</ele>
        <time>2023-07-02T11:27:22Z</time>
      </trkpt>
      <trkpt lat="49.81445" lon="2.54333">
        <ele>85.2</ele>
        <time>2023-07-02T11:27:23Z</time>
      </trkpt>
      <trkpt lat="49.81444" lon="2.54335">
        <ele>85.2</ele>
        <time>2023-07-02T11:27:25Z</time>
      </trkpt>
      <trkpt lat="49.81444" lon="2.54337">
        <ele>85.3</ele>
        <time>2023-07-02T11:27:26Z</time>
      </trkpt>
      <trkpt lat="49.81443" lon="2.5434">
        <ele>85.4</ele>
        <time>2023-07-02T11:27:28Z</time>
      </trkpt>
      <trkpt lat="49.81442" lon="2.54341">
        <ele>85.5</ele>
        <time>2023-07-02T11:27:29Z</time>
      </trkpt>
      <trkpt lat="49.81442" lon="2.54344">
        <ele>85.6</ele>
        <time>2023-07-02T11:27:31Z</time>
      </trkpt>
      <trkpt lat="49.81441" lon="2.54345">
        <ele>85.7</ele>
        <time>2023-07-02T11:27:32Z</time>
      </trkpt>
      <trkpt lat="49.81441" lon="2.54347">
        <ele>85.7</ele>
        <time>2023-07-02T11:27:33Z</time>
      </trkpt>
      <trkpt lat="49.8144" lon="2.54348">
        <ele>85.8</ele>
        <time>2023-07-02T11:27:34Z</time>
      </trkpt>
      <trkpt lat="49.8144" lon="2.5435">
        <ele>85.8</ele>
        <time>2023-07-02T11:27:35Z</time>
      </trkpt>
      <trkpt lat="49.81439" lon="2.54351">
        <ele>85.9</ele>
        <time>2023-07-02T11:27:36Z</time>
      </trkpt>
      <trkpt lat="49.81439" lon="2.54353">
        <ele>86</ele>
        <time>2023-07-02T11:27:37Z</time>
      </trkpt>
      <trkpt lat="49.81438" lon="2.54355">
        <ele>86.1</ele>
        <time>2023-07-02T11:27:39Z</time>
      </trkpt>
      <trkpt lat="49.81437" lon="2.54356">
        <ele>86.1</ele>
        <time>2023-07-02T11:27:40Z</time>
      </trkpt>
      <trkpt lat="49.81437" lon="2.54358">
        <ele>86.2</ele>
        <time>2023-07-02T11:27:41Z</time>
      </trkpt>
      <trkpt lat="49.81436" lon="2.54359">
        <ele>86.3</ele>
        <time>2023-07-02T11:27:42Z</time>
      </trkpt>
      <trkpt lat="49.81436" lon="2.54361">
        <ele>86.3</ele>
        <time>2023-07-02T11:27:43Z</time>
      </trkpt>
      <trkpt lat="49.81435" lon="2.54362">
        <ele>86.4</ele>
        <time>2023-07-02T11:27:45Z</time>
      </trkpt>
      <trkpt lat="49.81434" lon="2.54364">
        <ele>86.4</ele>
        <time>2023-07-02T11:27:46Z</time>
      </trkpt>
      <trkpt lat="49.81434" lon="2.54365">
        <ele>86.5</ele>
        <time>2023-07-02T11:27:47Z</time>
      </trkpt>
      <trkpt lat="49.81433" lon="2.54367">
        <ele>86.6</ele>
        <time>2023-07-02T11:27:48Z</time>
      </trkpt>
      <trkpt lat="49.81432" lon="2.54368">
        <ele>86.6</ele>
        <time>2023-07-02T11:27:49Z</time>
      </trkpt>
      <trkpt lat="49.81432" lon="2.54369">
        <ele>86.7</ele>
        <time>2023-07-02T11:27:50Z</time>
      </trkpt>
      <trkpt lat="49.81431" lon="2.54371">
        <ele>86.7</ele>
        <time>2023-07-02T11:27:52Z</time>
      </trkpt>
      <trkpt lat="49.8143" lon="2.54372">
        <ele>86.8</ele>
        <time>2023-07-02T11:27:53Z</time>
      </trkpt>
      <trkpt lat="49.8143" lon="2.54373">
        <ele>86.8</ele>
        <time>2023-07-02T11:27:54Z</time>
      </trkpt>
      <trkpt lat="49.81429" lon="2.54375">
        <ele>86.9</ele>
        <time>2023-07-02T11:27:55Z</time>
      </trkpt>
      <trkpt lat="49.81429" lon="2.54376">
        <ele>86.9</ele>
        <time>2023-07-02T11:27:56Z</time>
      </trkpt>
      <trkpt lat="49.81428" lon="2.54378">
        <ele>87</ele>
        <time>2023-07-02T11:27:58Z</time>
      </trkpt>
      <trkpt lat="49.81428" lon="2.54379">
        <ele>87</ele>
        <time>2023-07-02T11:27:59Z</time>
      </trkpt>
      <trkpt lat="49.81427" lon="2.54381">
        <ele>87.1</ele>
        <time>2023-07-02T11:28:00Z</time>
      </trkpt>
      <trkpt lat="49.81427" lon="2.54383">
        <ele>87.1</ele>
        <time>2023-07-02T11:28:01Z</time>
      </trkpt>
      <trkpt lat="49.81426" lon="2.54384">
        <ele>87.2</ele>
        <time>2023-07-02T11:28:02Z</time>
      </trkpt>
      <trkpt lat="49.81425" lon="2.54386">
        <ele>87.3</ele>
        <time>2023-07-02T11:28:04Z</time>
      </trkpt>
      <trkpt lat="49.81425" lon="2.54387">
        <ele>87.3</ele>
        <time>2023-07-02T11:28:05Z</time>
      </trkpt>
      <trkpt lat="49.81424" lon="2.54389">
        <ele>87.4</ele>
        <time>2023-07-02T11:28:06Z</time>
      </trkpt>
      <trkpt lat="49.81424" lon="2.5439">
        <ele>87.4</ele>
        <time>2023-07-02T11:28:07Z</time>
      </trkpt>
      <trkpt lat="49.81423" lon="2.54392">
        <ele>87.5</ele>
        <time>2023-07-02T11:28:08Z</time>
      </trkpt>
      <trkpt lat="49.81423" lon="2.54393">
        <ele>87.5</ele>
        <time>2023-07-02T11:28:09Z</time>
      </trkpt>
      <trkpt lat="49.81422" lon="2.54395">
        <ele>87.6</ele>
        <time>2023-07-02T11:28:11Z</time>
      </trkpt>
      <trkpt lat="49.81422" lon="2.54396">
        <ele>87.6</ele>
        <time>2023-07-02T11:28:12Z</time>
      </trkpt>
      <trkpt lat="49.81421" lon="2.54398">
        <ele>87.7</ele>
        <time>2023-07-02T11:28:13Z</time>
      </trkpt>
      <trkpt lat="49.8142" lon="2.54399">
        <ele>87.7</ele>
        <time>2023-07-02T11:28:14Z</time>
      </trkpt>
      <trkpt lat="49.8142" lon="2.544">
        <ele>87.7</ele>
        <time>2023-07-02T11:28:15Z</time>
      </trkpt>
      <trkpt lat="49.81419" lon="2.54402">
        <ele>87.8</ele>
        <time>2023-07-02T11:28:16Z</time>
      </trkpt>
      <trkpt lat="49.81418" lon="2.54404">
        <ele>87.9</ele>
        <time>2023-07-02T11:28:18Z</time>
      </trkpt>
      <trkpt lat="49.81418" lon="2.54405">
        <ele>87.9</ele>
        <time>2023-07-02T11:28:19Z</time>
      </trkpt>
      <trkpt lat="49.81417" lon="2.54406">
        <ele>87.9</ele>
        <time>2023-07-02T11:28:20Z</time>
      </trkpt>
      <trkpt lat="49.81416" lon="2.54408">
        <ele>88</ele>
        <time>2023-07-02T11:28:21Z</time>
      </trkpt>
      <trkpt lat="49.81416" lon="2.54409">
        <ele>88</ele>
        <time>2023-07-02T11:28:22Z</time>
      </trkpt>
      <trkpt lat="49.81415" lon="2.54411">
        <ele>88</ele>
        <time>2023-07-02T11:28:24Z</time>
      </trkpt>
      <trkpt lat="49.81415" lon="2.54412">
        <ele>88.1</ele>
        <time>2023-07-02T11:28:25Z</time>
      </trkpt>
      <trkpt lat="49.81414" lon="2.54414">
        <ele>88.1</ele>
        <time>2023-07-02T11:28:26Z</time>
      </trkpt>
      <trkpt lat="49.81414" lon="2.54415">
        <ele>88.1</ele>
        <time>2023-07-02T11:28:27Z</time>
      </trkpt>
      <trkpt lat="49.81413" lon="2.54416">
        <ele>88.2</ele>
        <time>2023-07-02T11:28:28Z</time>
      </trkpt>
      <trkpt lat="49.81412" lon="2.54418">
        <ele>88.2</ele>
        <time>2023-07-02T11:28:29Z</time>
      </trkpt>
      <trkpt lat="49.81411" lon="2.5442">
        <ele>88.3</ele>
        <time>2023-07-02T11:28:31Z</time>
      </trkpt>
      <trkpt lat="49.8141" lon="2.54421">
        <ele>88.3</ele>
        <time>2023-07-02T11:28:32Z</time>
      </trkpt>
      <trkpt lat="49.81409" lon="2.54423">
        <ele>88.4</ele>
        <time>2023-07-02T11:28:33Z</time>
      </trkpt>
      <trkpt lat="49.81409" lon="2.54424">
        <ele>88.4</ele>
        <time>2023-07-02T11:28:34Z</time>
      </trkpt>
      <trkpt lat="49.81408" lon="2.54426">
        <ele>88.4</ele>
        <time>2023-07-02T11:28:36Z</time>
      </trkpt>
      <trkpt lat="49.81407" lon="2.54428">
        <ele>88.5</ele>
        <time>2023-07-02T11:28:37Z</time>
      </trkpt>
      <trkpt lat="49.81406" lon="2.54431">
        <ele>88.5</ele>
        <time>2023-07-02T11:28:38Z</time>
      </trkpt>
      <trkpt lat="49.81405" lon="2.54432">
        <ele>88.6</ele>
        <time>2023-07-02T11:28:39Z</time>
      </trkpt>
      <trkpt lat="49.81405" lon="2.54433">
        <ele>88.6</ele>
        <time>2023-07-02T11:28:40Z</time>
      </trkpt>
      <trkpt lat="49.81404" lon="2.54434">
        <ele>88.6</ele>
        <time>2023-07-02T11:28:41Z</time>
      </trkpt>
      <trkpt lat="49.81403" lon="2.54435">
        <ele>88.6</ele>
        <time>2023-07-02T11:28:42Z</time>
      </trkpt>
      <trkpt lat="49.81402" lon="2.54437">
        <ele>88.7</ele>
        <time>2023-07-02T11:28:44Z</time>
      </trkpt>
      <trkpt lat="49.81401" lon="2.54439">
        <ele>88.7</ele>
        <time>2023-07-02T11:28:45Z</time>
      </trkpt>
      <trkpt lat="49.81401" lon="2.5444">
        <ele>88.7</ele>
        <time>2023-07-02T11:28:46Z</time>
      </trkpt>
      <trkpt lat="49.81399" lon="2.54443">
        <ele>88.8</ele>
        <time>2023-07-02T11:28:47Z</time>
      </trkpt>
      <trkpt lat="49.81399" lon="2.54444">
        <ele>88.8</ele>
        <time>2023-07-02T11:28:48Z</time>
      </trkpt>
      <trkpt lat="49.81399" lon="2.54445">
        <ele>88.8</ele>
        <time>2023-07-02T11:28:49Z</time>
      </trkpt>
      <trkpt lat="49.81398" lon="2.54447">
        <ele>88.9</ele>
        <time>2023-07-02T11:28:51Z</time>
      </trkpt>
      <trkpt lat="49.81397" lon="2.54448">
        <ele>88.9</ele>
        <time>2023-07-02T11:28:52Z</time>
      </trkpt>
      <trkpt lat="49.81396" lon="2.5445">
        <ele>88.9</ele>
        <time>2023-07-02T11:28:53Z</time>
      </trkpt>
      <trkpt lat="49.81395" lon="2.54452">
        <ele>88.9</ele>
        <time>2023-07-02T11:28:54Z</time>
      </trkpt>
      <trkpt lat="49.81394" lon="2.54453">
        <ele>89</ele>
        <time>2023-07-02T11:28:55Z</time>
      </trkpt>
      <trkpt lat="49.81394" lon="2.54454">
        <ele>89</ele>
        <time>2023-07-02T11:28:56Z</time>
      </trkpt>
      <trkpt lat="49.81392" lon="2.54457">
        <ele>89</ele>
        <time>2023-07-02T11:28:57Z</time>
      </trkpt>
      <trkpt lat="49.81392" lon="2.54458">
        <ele>89</ele>
        <time>2023-07-02T11:28:59Z</time>
      </trkpt>
      <trkpt lat="49.81391" lon="2.54459">
        <ele>89</ele>
        <time>2023-07-02T11:29:00Z</time>
      </trkpt>
      <trkpt lat="49.81391" lon="2.5446">
        <ele>89.1</ele>
        <time>2023-07-02T11:29:01Z</time>
      </trkpt>
      <trkpt lat="49.8139" lon="2.54461">
        <ele>89.1</ele>
        <time>2023-07-02T11:29:02Z</time>
      </trkpt>
      <trkpt lat="49.81389" lon="2.54462">
        <ele>89.1</ele>
        <time>2023-07-02T11:29:03Z</time>
      </trkpt>
      <trkpt lat="49.81387" lon="2.54464">
        <ele>89.1</ele>
        <time>2023-07-02T11:29:04Z</time>
      </trkpt>
      <trkpt lat="49.81386" lon="2.54465">
        <ele>89.1</ele>
        <time>2023-07-02T11:29:05Z</time>
      </trkpt>
      <trkpt lat="49.81386" lon="2.54466">
        <ele>89.2</ele>
        <time>2023-07-02T11:29:07Z</time>
      </trkpt>
      <trkpt lat="49.81385" lon="2.54466">
        <ele>89.2</ele>
        <time>2023-07-02T11:29:08Z</time>
      </trkpt>
      <trkpt lat="49.81384" lon="2.54467">
        <ele>89.2</ele>
        <time>2023-07-02T11:29:09Z</time>
      </trkpt>
      <trkpt lat="49.81383" lon="2.54468">
        <ele>89.2</ele>
        <time>2023-07-02T11:29:10Z</time>
      </trkpt>
      <trkpt lat="49.81381" lon="2.5447">
        <ele>89.2</ele>
        <time>2023-07-02T11:29:11Z</time>
      </trkpt>
      <trkpt lat="49.81381" lon="2.54471">
        <ele>89.3</ele>
        <time>2023-07-02T11:29:12Z</time>
      </trkpt>
      <trkpt lat="49.8138" lon="2.54471">
        <ele>89.3</ele>
        <time>2023-07-02T11:29:13Z</time>
      </trkpt>
      <trkpt lat="49.81379" lon="2.54472">
        <ele>89.3</ele>
        <time>2023-07-02T11:29:15Z</time>
      </trkpt>
      <trkpt lat="49.81378" lon="2.54473">
        <ele>89.3</ele>
        <time>2023-07-02T11:29:16Z</time>
      </trkpt>
      <trkpt lat="49.81377" lon="2.54475">
        <ele>89.3</ele>
        <time>2023-07-02T11:29:17Z</time>
      </trkpt>
      <trkpt lat="49.81376" lon="2.54477">
        <ele>89.3</ele>
        <time>2023-07-02T11:29:18Z</time>
      </trkpt>
      <trkpt lat="49.81375" lon="2.54478">
        <ele>89.4</ele>
        <time>2023-07-02T11:29:19Z</time>
      </trkpt>
      <trkpt lat="49.81374" lon="2.54479">
        <ele>89.4</ele>
        <time>2023-07-02T11:29:20Z</time>
      </trkpt>
      <trkpt lat="49.81374" lon="2.5448">
        <ele>89.4</ele>
        <time>2023-07-02T11:29:21Z</time>
      </trkpt>
      <trkpt lat="49.81373" lon="2.54481">
        <ele>89.4</ele>
        <time>2023-07-02T11:29:23Z</time>
      </trkpt>
      <trkpt lat="49.81372" lon="2.54482">
        <ele>89.4</ele>
        <time>2023-07-02T11:29:24Z</time>
      </trkpt>
      <trkpt lat="49.81371" lon="2.54483">
        <ele>89.4</ele>
        <time>2023-07-02T11:29:25Z</time>
      </trkpt>
      <trkpt lat="49.8137" lon="2.54485">
        <ele>89.4</ele>
        <time>2023-07-02T11:29:26Z</time>
      </trkpt>
      <trkpt lat="49.81369" lon="2.54486">
        <ele>89.5</ele>
        <time>2023-07-02T11:29:27Z</time>
      </trkpt>
      <trkpt lat="49.81368" lon="2.54487">
        <ele>89.5</ele>
        <time>2023-07-02T11:29:28Z</time>
      </trkpt>
      <trkpt lat="49.81367" lon="2.54488">
        <ele>89.5</ele>
        <time>2023-07-02T11:29:29Z</time>
      </trkpt>
      <trkpt lat="49.81367" lon="2.5449">
        <ele>89.5</ele>
        <time>2023-07-02T11:29:30Z</time>
      </trkpt>
      <trkpt lat="49.81365" lon="2.54492">
        <ele>89.5</ele>
        <time>2023-07-02T11:29:32Z</time>
      </trkpt>
      <trkpt lat="49.81364" lon="2.54493">
        <ele>89.6</ele>
        <time>2023-07-02T11:29:33Z</time>
      </trkpt>
      <trkpt lat="49.81363" lon="2.54496">
        <ele>89.6</ele>
        <time>2023-07-02T11:29:34Z</time>
      </trkpt>
      <trkpt lat="49.81362" lon="2.54497">
        <ele>89.6</ele>
        <time>2023-07-02T11:29:36Z</time>
      </trkpt>
      <trkpt lat="49.81362" lon="2.54498">
        <ele>89.6</ele>
        <time>2023-07-02T11:29:37Z</time>
      </trkpt>
      <trkpt lat="49.81361" lon="2.54499">
        <ele>89.6</ele>
        <time>2023-07-02T11:29:38Z</time>
      </trkpt>
      <trkpt lat="49.8136" lon="2.54501">
        <ele>89.6</ele>
        <time>2023-07-02T11:29:39Z</time>
      </trkpt>
      <trkpt lat="49.81359" lon="2.54502">
        <ele>89.6</ele>
        <time>2023-07-02T11:29:40Z</time>
      </trkpt>
      <trkpt lat="49.81359" lon="2.54503">
        <ele>89.7</ele>
        <time>2023-07-02T11:29:41Z</time>
      </trkpt>
      <trkpt lat="49.81358" lon="2.54505">
        <ele>89.7</ele>
        <time>2023-07-02T11:29:42Z</time>
      </trkpt>
      <trkpt lat="49.81357" lon="2.54506">
        <ele>89.7</ele>
        <time>2023-07-02T11:29:44Z</time>
      </trkpt>
      <trkpt lat="49.81356" lon="2.54508">
        <ele>89.7</ele>
        <time>2023-07-02T11:29:45Z</time>
      </trkpt>
      <trkpt lat="49.81355" lon="2.54509">
        <ele>89.7</ele>
        <time>2023-07-02T11:29:46Z</time>
      </trkpt>
      <trkpt lat="49.81354" lon="2.5451">
        <ele>89.7</ele>
        <time>2023-07-02T11:29:47Z</time>
      </trkpt>
      <trkpt lat="49.81354" lon="2.54512">
        <ele>89.7</ele>
        <time>2023-07-02T11:29:48Z</time>
      </trkpt>
      <trkpt lat="49.81353" lon="2.54513">
        <ele>89.8</ele>
        <time>2023-07-02T11:29:49Z</time>
      </trkpt>
      <trkpt lat="49.81351" lon="2.54515">
        <ele>89.8</ele>
        <time>2023-07-02T11:29:51Z</time>
      </trkpt>
      <trkpt lat="49.8135" lon="2.54518">
        <ele>89.8</ele>
        <time>2023-07-02T11:29:52Z</time>
      </trkpt>
      <trkpt lat="49.81349" lon="2.54519">
        <ele>89.8</ele>
        <time>2023-07-02T11:29:53Z</time>
      </trkpt>
      <trkpt lat="49.81349" lon="2.5452">
        <ele>89.8</ele>
        <time>2023-07-02T11:29:54Z</time>
      </trkpt>
      <trkpt lat="49.81348" lon="2.54522">
        <ele>89.8</ele>
        <time>2023-07-02T11:29:56Z</time>
      </trkpt>
      <trkpt lat="49.81347" lon="2.54523">
        <ele>89.9</ele>
        <time>2023-07-02T11:29:57Z</time>
      </trkpt>
      <trkpt lat="49.81346" lon="2.54524">
        <ele>89.9</ele>
        <time>2023-07-02T11:29:58Z</time>
      </trkpt>
      <trkpt lat="49.81345" lon="2.54526">
        <ele>89.9</ele>
        <time>2023-07-02T11:29:59Z</time>
      </trkpt>
      <trkpt lat="49.81344" lon="2.54527">
        <ele>89.9</ele>
        <time>2023-07-02T11:30:00Z</time>
      </trkpt>
      <trkpt lat="49.81344" lon="2.54528">
        <ele>89.9</ele>
        <time>2023-07-02T11:30:01Z</time>
      </trkpt>
      <trkpt lat="49.81342" lon="2.5453">
        <ele>89.9</ele>
        <time>2023-07-02T11:30:02Z</time>
      </trkpt>
      <trkpt lat="49.81341" lon="2.54531">
        <ele>89.9</ele>
        <time>2023-07-02T11:30:03Z</time>
      </trkpt>
      <trkpt lat="49.81341" lon="2.54532">
        <ele>89.9</ele>
        <time>2023-07-02T11:30:05Z</time>
      </trkpt>
      <trkpt lat="49.8134" lon="2.54533">
        <ele>89.9</ele>
        <time>2023-07-02T11:30:06Z</time>
      </trkpt>
      <trkpt lat="49.81339" lon="2.54534">
        <ele>89.9</ele>
        <time>2023-07-02T11:30:07Z</time>
      </trkpt>
      <trkpt lat="49.81338" lon="2.54535">
        <ele>89.9</ele>
        <time>2023-07-02T11:30:08Z</time>
      </trkpt>
      <trkpt lat="49.81338" lon="2.54536">
        <ele>90</ele>
        <time>2023-07-02T11:30:09Z</time>
      </trkpt>
      <trkpt lat="49.81337" lon="2.54537">
        <ele>90</ele>
        <time>2023-07-02T11:30:10Z</time>
      </trkpt>
      <trkpt lat="49.81336" lon="2.54538">
        <ele>90</ele>
        <time>2023-07-02T11:30:11Z</time>
      </trkpt>
      <trkpt lat="49.81335" lon="2.5454">
        <ele>90</ele>
        <time>2023-07-02T11:30:13Z</time>
      </trkpt>
      <trkpt lat="49.81334" lon="2.54541">
        <ele>90</ele>
        <time>2023-07-02T11:30:14Z</time>
      </trkpt>
      <trkpt lat="49.81334" lon="2.54542">
        <ele>90</ele>
        <time>2023-07-02T11:30:15Z</time>
      </trkpt>
      <trkpt lat="49.81332" lon="2.54544">
        <ele>90</ele>
        <time>2023-07-02T11:30:16Z</time>
      </trkpt>
      <trkpt lat="49.81331" lon="2.54545">
        <ele>90</ele>
        <time>2023-07-02T11:30:17Z</time>
      </trkpt>
      <trkpt lat="49.81331" lon="2.54546">
        <ele>90</ele>
        <time>2023-07-02T11:30:18Z</time>
      </trkpt>
      <trkpt lat="49.81329" lon="2.54548">
        <ele>90</ele>
        <time>2023-07-02T11:30:19Z</time>
      </trkpt>
      <trkpt lat="49.81328" lon="2.54548">
        <ele>90</ele>
        <time>2023-07-02T11:30:21Z</time>
      </trkpt>
      <trkpt lat="49.81327" lon="2.54549">
        <ele>90</ele>
        <time>2023-07-02T11:30:22Z</time>
      </trkpt>
      <trkpt lat="49.81326" lon="2.54551">
        <ele>90</ele>
        <time>2023-07-02T11:30:23Z</time>
      </trkpt>
      <trkpt lat="49.81325" lon="2.54552">
        <ele>90</ele>
        <time>2023-07-02T11:30:24Z</time>
      </trkpt>
      <trkpt lat="49.81324" lon="2.54553">
        <ele>90</ele>
        <time>2023-07-02T11:30:25Z</time>
      </trkpt>
      <trkpt lat="49.81324" lon="2.54554">
        <ele>90</ele>
        <time>2023-07-02T11:30:26Z</time>
      </trkpt>
      <trkpt lat="49.81323" lon="2.54556">
        <ele>90</ele>
        <time>2023-07-02T11:30:27Z</time>
      </trkpt>
      <trkpt lat="49.81322" lon="2.54557">
        <ele>90.1</ele>
        <time>2023-07-02T11:30:28Z</time>
      </trkpt>
      <trkpt lat="49.81321" lon="2.54559">
        <ele>90.1</ele>
        <time>2023-07-02T11:30:30Z</time>
      </trkpt>
      <trkpt lat="49.8132" lon="2.5456">
        <ele>90.1</ele>
        <time>2023-07-02T11:30:31Z</time>
      </trkpt>
      <trkpt lat="49.81319" lon="2.54561">
        <ele>90.1</ele>
        <time>2023-07-02T11:30:32Z</time>
      </trkpt>
      <trkpt lat="49.81318" lon="2.54562">
        <ele>90.1</ele>
        <time>2023-07-02T11:30:33Z</time>
      </trkpt>
      <trkpt lat="49.81317" lon="2.54562">
        <ele>90.1</ele>
        <time>2023-07-02T11:30:34Z</time>
      </trkpt>
      <trkpt lat="49.81316" lon="2.54563">
        <ele>90.1</ele>
        <time>2023-07-02T11:30:36Z</time>
      </trkpt>
      <trkpt lat="49.81316" lon="2.54564">
        <ele>90.1</ele>
        <time>2023-07-02T11:30:37Z</time>
      </trkpt>
      <trkpt lat="49.81316" lon="2.54564">
        <ele>90.1</ele>
        <time>2023-07-02T11:30:38Z</time>
      </trkpt>
      <trkpt lat="49.81317" lon="2.54563">
        <ele>90.1</ele>
        <time>2023-07-02T11:30:39Z</time>
      </trkpt>
      <trkpt lat="49.81317" lon="2.54564">
        <ele>90.1</ele>
        <time>2023-07-02T11:30:40Z</time>
      </trkpt>
      <trkpt lat="49.81317" lon="2.54564">
        <ele>90.1</ele>
        <time>2023-07-02T11:30:42Z</time>
      </trkpt>
      <trkpt lat="49.81318" lon="2.54565">
        <ele>90.1</ele>
        <time>2023-07-02T11:30:43Z</time>
      </trkpt>
      <trkpt lat="49.81318" lon="2.54566">
        <ele>90.1</ele>
        <time>2023-07-02T11:30:44Z</time>
      </trkpt>
      <trkpt lat="49.81318" lon="2.54568">
        <ele>90.1</ele>
        <time>2023-07-02T11:30:45Z</time>
      </trkpt>
      <trkpt lat="49.81318" lon="2.54571">
        <ele>90.1</ele>
        <time>2023-07-02T11:30:46Z</time>
      </trkpt>
      <trkpt lat="49.81318" lon="2.54572">
        <ele>90.1</ele>
        <time>2023-07-02T11:30:48Z</time>
      </trkpt>
      <trkpt lat="49.81318" lon="2.54574">
        <ele>90.1</ele>
        <time>2023-07-02T11:30:49Z</time>
      </trkpt>
      <trkpt lat="49.81319" lon="2.54576">
        <ele>90.1</ele>
        <time>2023-07-02T11:30:50Z</time>
      </trkpt>
      <trkpt lat="49.8132" lon="2.54577">
        <ele>90</ele>
        <time>2023-07-02T11:30:51Z</time>
      </trkpt>
      <trkpt lat="49.8132" lon="2.54578">
        <ele>90</ele>
        <time>2023-07-02T11:30:52Z</time>
      </trkpt>
      <trkpt lat="49.81322" lon="2.5458">
        <ele>90</ele>
        <time>2023-07-02T11:30:53Z</time>
      </trkpt>
      <trkpt lat="49.81323" lon="2.54581">
        <ele>90</ele>
        <time>2023-07-02T11:30:55Z</time>
      </trkpt>
      <trkpt lat="49.81323" lon="2.54582">
        <ele>90</ele>
        <time>2023-07-02T11:30:56Z</time>
      </trkpt>
      <trkpt lat="49.81325" lon="2.54584">
        <ele>90</ele>
        <time>2023-07-02T11:30:57Z</time>
      </trkpt>
      <trkpt lat="49.81325" lon="2.54585">
        <ele>90</ele>
        <time>2023-07-02T11:30:58Z</time>
      </trkpt>
      <trkpt lat="49.81326" lon="2.54586">
        <ele>90</ele>
        <time>2023-07-02T11:30:59Z</time>
      </trkpt>
      <trkpt lat="49.81327" lon="2.54588">
        <ele>90</ele>
        <time>2023-07-02T11:31:01Z</time>
      </trkpt>
      <trkpt lat="49.81328" lon="2.5459">
        <ele>90</ele>
        <time>2023-07-02T11:31:02Z</time>
      </trkpt>
      <trkpt lat="49.81329" lon="2.54594">
        <ele>90</ele>
        <time>2023-07-02T11:31:03Z</time>
      </trkpt>
      <trkpt lat="49.8133" lon="2.54597">
        <ele>90</ele>
        <time>2023-07-02T11:31:05Z</time>
      </trkpt>
      <trkpt lat="49.81331" lon="2.54598">
        <ele>90</ele>
        <time>2023-07-02T11:31:06Z</time>
      </trkpt>
      <trkpt lat="49.81331" lon="2.546">
        <ele>90</ele>
        <time>2023-07-02T11:31:07Z</time>
      </trkpt>
      <trkpt lat="49.81332" lon="2.54601">
        <ele>90</ele>
        <time>2023-07-02T11:31:08Z</time>
      </trkpt>
      <trkpt lat="49.81333" lon="2.54602">
        <ele>90</ele>
        <time>2023-07-02T11:31:09Z</time>
      </trkpt>
      <trkpt lat="49.81334" lon="2.54603">
        <ele>90</ele>
        <time>2023-07-02T11:31:10Z</time>
      </trkpt>
      <trkpt lat="49.81335" lon="2.54604">
        <ele>90</ele>
        <time>2023-07-02T11:31:12Z</time>
      </trkpt>
      <trkpt lat="49.81336" lon="2.54605">
        <ele>90</ele>
        <time>2023-07-02T11:31:13Z</time>
      </trkpt>
      <trkpt lat="49.81336" lon="2.54606">
        <ele>90</ele>
        <time>2023-07-02T11:31:14Z</time>
      </trkpt>
      <trkpt lat="49.81337" lon="2.54608">
        <ele>90</ele>
        <time>2023-07-02T11:31:15Z</time>
      </trkpt>
      <trkpt lat="49.81338" lon="2.54609">
        <ele>90</ele>
        <time>2023-07-02T11:31:16Z</time>
      </trkpt>
      <trkpt lat="49.81338" lon="2.5461">
        <ele>90</ele>
        <time>2023-07-02T11:31:17Z</time>
      </trkpt>
      <trkpt lat="49.81339" lon="2.54612">
        <ele>90</ele>
        <time>2023-07-02T11:31:18Z</time>
      </trkpt>
      <trkpt lat="49.8134" lon="2.54613">
        <ele>90</ele>
        <time>2023-07-02T11:31:20Z</time>
      </trkpt>
      <trkpt lat="49.8134" lon="2.54614">
        <ele>90</ele>
        <time>2023-07-02T11:31:21Z</time>
      </trkpt>
      <trkpt lat="49.81341" lon="2.54615">
        <ele>90</ele>
        <time>2023-07-02T11:31:22Z</time>
      </trkpt>
      <trkpt lat="49.81342" lon="2.54617">
        <ele>90</ele>
        <time>2023-07-02T11:31:23Z</time>
      </trkpt>
      <trkpt lat="49.81344" lon="2.54619">
        <ele>90</ele>
        <time>2023-07-02T11:31:24Z</time>
      </trkpt>
      <trkpt lat="49.81345" lon="2.54622">
        <ele>90</ele>
        <time>2023-07-02T11:31:25Z</time>
      </trkpt>
      <trkpt lat="49.81345" lon="2.54623">
        <ele>90</ele>
        <time>2023-07-02T11:31:26Z</time>
      </trkpt>
      <trkpt lat="49.81347" lon="2.54625">
        <ele>90</ele>
        <time>2023-07-02T11:31:27Z</time>
      </trkpt>
      <trkpt lat="49.81348" lon="2.54627">
        <ele>90</ele>
        <time>2023-07-02T11:31:29Z</time>
      </trkpt>
      <trkpt lat="49.81349" lon="2.54628">
        <ele>90</ele>
        <time>2023-07-02T11:31:30Z</time>
      </trkpt>
      <trkpt lat="49.8135" lon="2.5463">
        <ele>90</ele>
        <time>2023-07-02T11:31:31Z</time>
      </trkpt>
      <trkpt lat="49.81351" lon="2.54632">
        <ele>90</ele>
        <time>2023-07-02T11:31:32Z</time>
      </trkpt>
      <trkpt lat="49.81352" lon="2.54633">
        <ele>90</ele>
        <time>2023-07-02T11:31:33Z</time>
      </trkpt>
      <trkpt lat="49.81353" lon="2.54634">
        <ele>89.9</ele>
        <time>2023-07-02T11:31:34Z</time>
      </trkpt>
      <trkpt lat="49.81354" lon="2.54636">
        <ele>89.9</ele>
        <time>2023-07-02T11:31:36Z</time>
      </trkpt>
      <trkpt lat="49.81355" lon="2.54637">
        <ele>89.9</ele>
        <time>2023-07-02T11:31:37Z</time>
      </trkpt>
      <trkpt lat="49.81356" lon="2.54639">
        <ele>89.9</ele>
        <time>2023-07-02T11:31:38Z</time>
      </trkpt>
      <trkpt lat="49.81357" lon="2.5464">
        <ele>89.9</ele>
        <time>2023-07-02T11:31:39Z</time>
      </trkpt>
      <trkpt lat="49.81358" lon="2.54641">
        <ele>89.9</ele>
        <time>2023-07-02T11:31:40Z</time>
      </trkpt>
      <trkpt lat="49.81359" lon="2.54642">
        <ele>89.9</ele>
        <time>2023-07-02T11:31:41Z</time>
      </trkpt>
      <trkpt lat="49.81359" lon="2.54642">
        <ele>89.9</ele>
        <time>2023-07-02T11:31:42Z</time>
      </trkpt>
      <trkpt lat="49.8136" lon="2.54643">
        <ele>89.9</ele>
        <time>2023-07-02T11:31:43Z</time>
      </trkpt>
      <trkpt lat="49.81362" lon="2.54646">
        <ele>89.9</ele>
        <time>2023-07-02T11:31:45Z</time>
      </trkpt>
      <trkpt lat="49.81362" lon="2.54647">
        <ele>89.9</ele>
        <time>2023-07-02T11:31:46Z</time>
      </trkpt>
      <trkpt lat="49.81363" lon="2.54648">
        <ele>89.9</ele>
        <time>2023-07-02T11:31:47Z</time>
      </trkpt>
      <trkpt lat="49.81364" lon="2.54649">
        <ele>89.9</ele>
        <time>2023-07-02T11:31:48Z</time>
      </trkpt>
      <trkpt lat="49.81365" lon="2.5465">
        <ele>89.9</ele>
        <time>2023-07-02T11:31:49Z</time>
      </trkpt>
      <trkpt lat="49.81365" lon="2.54651">
        <ele>89.9</ele>
        <time>2023-07-02T11:31:50Z</time>
      </trkpt>
      <trkpt lat="49.81366" lon="2.54652">
        <ele>89.9</ele>
        <time>2023-07-02T11:31:51Z</time>
      </trkpt>
      <trkpt lat="49.81367" lon="2.54653">
        <ele>89.9</ele>
        <time>2023-07-02T11:31:53Z</time>
      </trkpt>
      <trkpt lat="49.81368" lon="2.54655">
        <ele>89.9</ele>
        <time>2023-07-02T11:31:54Z</time>
      </trkpt>
      <trkpt lat="49.8137" lon="2.54657">
        <ele>89.9</ele>
        <time>2023-07-02T11:31:55Z</time>
      </trkpt>
      <trkpt lat="49.8137" lon="2.54658">
        <ele>89.9</ele>
        <time>2023-07-02T11:31:56Z</time>
      </trkpt>
      <trkpt lat="49.81371" lon="2.54659">
        <ele>89.9</ele>
        <time>2023-07-02T11:31:57Z</time>
      </trkpt>
      <trkpt lat="49.81371" lon="2.5466">
        <ele>89.9</ele>
        <time>2023-07-02T11:31:58Z</time>
      </trkpt>
      <trkpt lat="49.81372" lon="2.54661">
        <ele>89.9</ele>
        <time>2023-07-02T11:32:00Z</time>
      </trkpt>
      <trkpt lat="49.81373" lon="2.54663">
        <ele>89.9</ele>
        <time>2023-07-02T11:32:01Z</time>
      </trkpt>
      <trkpt lat="49.81374" lon="2.54665">
        <ele>89.9</ele>
        <time>2023-07-02T11:32:02Z</time>
      </trkpt>
      <trkpt lat="49.81374" lon="2.54666">
        <ele>89.9</ele>
        <time>2023-07-02T11:32:03Z</time>
      </trkpt>
      <trkpt lat="49.81375" lon="2.54667">
        <ele>89.9</ele>
        <time>2023-07-02T11:32:04Z</time>
      </trkpt>
      <trkpt lat="49.81376" lon="2.54668">
        <ele>89.9</ele>
        <time>2023-07-02T11:32:05Z</time>
      </trkpt>
      <trkpt lat="49.81377" lon="2.54669">
        <ele>89.8</ele>
        <time>2023-07-02T11:32:07Z</time>
      </trkpt>
      <trkpt lat="49.81378" lon="2.5467">
        <ele>89.8</ele>
        <time>2023-07-02T11:32:08Z</time>
      </trkpt>
      <trkpt lat="49.81378" lon="2.54672">
        <ele>89.8</ele>
        <time>2023-07-02T11:32:09Z</time>
      </trkpt>
      <trkpt lat="49.81379" lon="2.54673">
        <ele>89.8</ele>
        <time>2023-07-02T11:32:10Z</time>
      </trkpt>
      <trkpt lat="49.8138" lon="2.54674">
        <ele>89.8</ele>
        <time>2023-07-02T11:32:11Z</time>
      </trkpt>
      <trkpt lat="49.8138" lon="2.54677">
        <ele>89.8</ele>
        <time>2023-07-02T11:32:12Z</time>
      </trkpt>
      <trkpt lat="49.81381" lon="2.54679">
        <ele>89.8</ele>
        <time>2023-07-02T11:32:14Z</time>
      </trkpt>
      <trkpt lat="49.81381" lon="2.5468">
        <ele>89.8</ele>
        <time>2023-07-02T11:32:15Z</time>
      </trkpt>
      <trkpt lat="49.81382" lon="2.54682">
        <ele>89.8</ele>
        <time>2023-07-02T11:32:16Z</time>
      </trkpt>
      <trkpt lat="49.81382" lon="2.54683">
        <ele>89.7</ele>
        <time>2023-07-02T11:32:17Z</time>
      </trkpt>
      <trkpt lat="49.81383" lon="2.54684">
        <ele>89.7</ele>
        <time>2023-07-02T11:32:18Z</time>
      </trkpt>
      <trkpt lat="49.81384" lon="2.54685">
        <ele>89.7</ele>
        <time>2023-07-02T11:32:20Z</time>
      </trkpt>
      <trkpt lat="49.81385" lon="2.54686">
        <ele>89.7</ele>
        <time>2023-07-02T11:32:21Z</time>
      </trkpt>
      <trkpt lat="49.81386" lon="2.54688">
        <ele>89.7</ele>
        <time>2023-07-02T11:32:22Z</time>
      </trkpt>
      <trkpt lat="49.81387" lon="2.54689">
        <ele>89.6</ele>
        <time>2023-07-02T11:32:23Z</time>
      </trkpt>
      <trkpt lat="49.81388" lon="2.54691">
        <ele>89.6</ele>
        <time>2023-07-02T11:32:24Z</time>
      </trkpt>
      <trkpt lat="49.81388" lon="2.54692">
        <ele>89.6</ele>
        <time>2023-07-02T11:32:25Z</time>
      </trkpt>
      <trkpt lat="49.81389" lon="2.54694">
        <ele>89.6</ele>
        <time>2023-07-02T11:32:26Z</time>
      </trkpt>
      <trkpt lat="49.8139" lon="2.54695">
        <ele>89.6</ele>
        <time>2023-07-02T11:32:28Z</time>
      </trkpt>
      <trkpt lat="49.81391" lon="2.54696">
        <ele>89.5</ele>
        <time>2023-07-02T11:32:29Z</time>
      </trkpt>
      <trkpt lat="49.81392" lon="2.54699">
        <ele>89.5</ele>
        <time>2023-07-02T11:32:30Z</time>
      </trkpt>
      <trkpt lat="49.81393" lon="2.547">
        <ele>89.5</ele>
        <time>2023-07-02T11:32:31Z</time>
      </trkpt>
      <trkpt lat="49.81393" lon="2.547">
        <ele>89.5</ele>
        <time>2023-07-02T11:32:32Z</time>
      </trkpt>
      <trkpt lat="49.81394" lon="2.54702">
        <ele>89.5</ele>
        <time>2023-07-02T11:32:33Z</time>
      </trkpt>
      <trkpt lat="49.81395" lon="2.54703">
        <ele>89.5</ele>
        <time>2023-07-02T11:32:35Z</time>
      </trkpt>
      <trkpt lat="49.81396" lon="2.54704">
        <ele>89.5</ele>
        <time>2023-07-02T11:32:36Z</time>
      </trkpt>
      <trkpt lat="49.81397" lon="2.54706">
        <ele>89.5</ele>
        <time>2023-07-02T11:32:37Z</time>
      </trkpt>
      <trkpt lat="49.81398" lon="2.54707">
        <ele>89.5</ele>
        <time>2023-07-02T11:32:38Z</time>
      </trkpt>
      <trkpt lat="49.81398" lon="2.54708">
        <ele>89.5</ele>
        <time>2023-07-02T11:32:39Z</time>
      </trkpt>
      <trkpt lat="49.81399" lon="2.54709">
        <ele>89.5</ele>
        <time>2023-07-02T11:32:41Z</time>
      </trkpt>
      <trkpt lat="49.814" lon="2.54711">
        <ele>89.5</ele>
        <time>2023-07-02T11:32:42Z</time>
      </trkpt>
      <trkpt lat="49.81402" lon="2.54713">
        <ele>89.5</ele>
        <time>2023-07-02T11:32:43Z</time>
      </trkpt>
      <trkpt lat="49.81402" lon="2.54714">
        <ele>89.5</ele>
        <time>2023-07-02T11:32:44Z</time>
      </trkpt>
      <trkpt lat="49.81403" lon="2.54715">
        <ele>89.5</ele>
        <time>2023-07-02T11:32:45Z</time>
      </trkpt>
      <trkpt lat="49.81404" lon="2.54718">
        <ele>89.5</ele>
        <time>2023-07-02T11:32:46Z</time>
      </trkpt>
      <trkpt lat="49.81405" lon="2.54719">
        <ele>89.5</ele>
        <time>2023-07-02T11:32:48Z</time>
      </trkpt>
      <trkpt lat="49.81405" lon="2.5472">
        <ele>89.5</ele>
        <time>2023-07-02T11:32:49Z</time>
      </trkpt>
      <trkpt lat="49.81407" lon="2.54722">
        <ele>89.5</ele>
        <time>2023-07-02T11:32:50Z</time>
      </trkpt>
      <trkpt lat="49.81408" lon="2.54723">
        <ele>89.5</ele>
        <time>2023-07-02T11:32:51Z</time>
      </trkpt>
      <trkpt lat="49.81408" lon="2.54724">
        <ele>89.5</ele>
        <time>2023-07-02T11:32:52Z</time>
      </trkpt>
      <trkpt lat="49.81409" lon="2.54725">
        <ele>89.5</ele>
        <time>2023-07-02T11:32:54Z</time>
      </trkpt>
      <trkpt lat="49.8141" lon="2.54726">
        <ele>89.5</ele>
        <time>2023-07-02T11:32:55Z</time>
      </trkpt>
      <trkpt lat="49.81411" lon="2.54727">
        <ele>89.5</ele>
        <time>2023-07-02T11:32:56Z</time>
      </trkpt>
      <trkpt lat="49.81412" lon="2.54728">
        <ele>89.5</ele>
        <time>2023-07-02T11:32:57Z</time>
      </trkpt>
      <trkpt lat="49.81412" lon="2.54729">
        <ele>89.5</ele>
        <time>2023-07-02T11:32:58Z</time>
      </trkpt>
      <trkpt lat="49.81413" lon="2.5473">
        <ele>89.5</ele>
        <time>2023-07-02T11:32:59Z</time>
      </trkpt>
      <trkpt lat="49.81414" lon="2.54732">
        <ele>89.5</ele>
        <time>2023-07-02T11:33:01Z</time>
      </trkpt>
      <trkpt lat="49.81415" lon="2.54734">
        <ele>89.5</ele>
        <time>2023-07-02T11:33:02Z</time>
      </trkpt>
      <trkpt lat="49.81416" lon="2.54735">
        <ele>89.5</ele>
        <time>2023-07-02T11:33:03Z</time>
      </trkpt>
      <trkpt lat="49.81417" lon="2.54736">
        <ele>89.5</ele>
        <time>2023-07-02T11:33:04Z</time>
      </trkpt>
      <trkpt lat="49.81417" lon="2.54737">
        <ele>89.4</ele>
        <time>2023-07-02T11:33:05Z</time>
      </trkpt>
      <trkpt lat="49.81419" lon="2.5474">
        <ele>89.4</ele>
        <time>2023-07-02T11:33:07Z</time>
      </trkpt>
      <trkpt lat="49.8142" lon="2.54741">
        <ele>89.4</ele>
        <time>2023-07-02T11:33:08Z</time>
      </trkpt>
      <trkpt lat="49.8142" lon="2.54742">
        <ele>89.4</ele>
        <time>2023-07-02T11:33:09Z</time>
      </trkpt>
      <trkpt lat="49.81422" lon="2.54744">
        <ele>89.4</ele>
        <time>2023-07-02T11:33:10Z</time>
      </trkpt>
      <trkpt lat="49.81422" lon="2.54745">
        <ele>89.4</ele>
        <time>2023-07-02T11:33:11Z</time>
      </trkpt>
      <trkpt lat="49.81423" lon="2.54746">
        <ele>89.4</ele>
        <time>2023-07-02T11:33:12Z</time>
      </trkpt>
      <trkpt lat="49.81424" lon="2.54749">
        <ele>89.4</ele>
        <time>2023-07-02T11:33:14Z</time>
      </trkpt>
      <trkpt lat="49.81425" lon="2.5475">
        <ele>89.4</ele>
        <time>2023-07-02T11:33:15Z</time>
      </trkpt>
      <trkpt lat="49.81425" lon="2.5475">
        <ele>89.3</ele>
        <time>2023-07-02T11:33:16Z</time>
      </trkpt>
      <trkpt lat="49.81427" lon="2.54752">
        <ele>89.3</ele>
        <time>2023-07-02T11:33:17Z</time>
      </trkpt>
      <trkpt lat="49.81428" lon="2.54753">
        <ele>89.3</ele>
        <time>2023-07-02T11:33:18Z</time>
      </trkpt>
      <trkpt lat="49.81428" lon="2.54753">
        <ele>89.3</ele>
        <time>2023-07-02T11:33:20Z</time>
      </trkpt>
      <trkpt lat="49.81429" lon="2.54754">
        <ele>89.3</ele>
        <time>2023-07-02T11:33:21Z</time>
      </trkpt>
      <trkpt lat="49.8143" lon="2.54754">
        <ele>89.3</ele>
        <time>2023-07-02T11:33:22Z</time>
      </trkpt>
      <trkpt lat="49.81431" lon="2.54755">
        <ele>89.3</ele>
        <time>2023-07-02T11:33:23Z</time>
      </trkpt>
      <trkpt lat="49.81432" lon="2.54755">
        <ele>89.3</ele>
        <time>2023-07-02T11:33:25Z</time>
      </trkpt>
      <trkpt lat="49.81433" lon="2.54756">
        <ele>89.3</ele>
        <time>2023-07-02T11:33:26Z</time>
      </trkpt>
      <trkpt lat="49.81433" lon="2.54757">
        <ele>89.3</ele>
        <time>2023-07-02T11:33:27Z</time>
      </trkpt>
      <trkpt lat="49.81434" lon="2.54757">
        <ele>89.3</ele>
        <time>2023-07-02T11:33:28Z</time>
      </trkpt>
      <trkpt lat="49.81435" lon="2.54757">
        <ele>89.3</ele>
        <time>2023-07-02T11:33:29Z</time>
      </trkpt>
      <trkpt lat="49.81436" lon="2.54756">
        <ele>89.3</ele>
        <time>2023-07-02T11:33:30Z</time>
      </trkpt>
      <trkpt lat="49.81437" lon="2.54754">
        <ele>89.2</ele>
        <time>2023-07-02T11:33:32Z</time>
      </trkpt>
      <trkpt lat="49.81437" lon="2.54753">
        <ele>89.2</ele>
        <time>2023-07-02T11:33:34Z</time>
      </trkpt>
      <trkpt lat="49.81438" lon="2.54752">
        <ele>89.2</ele>
        <time>2023-07-02T11:33:35Z</time>
      </trkpt>
      <trkpt lat="49.81438" lon="2.5475">
        <ele>89.2</ele>
        <time>2023-07-02T11:33:36Z</time>
      </trkpt>
      <trkpt lat="49.81439" lon="2.54749">
        <ele>89.2</ele>
        <time>2023-07-02T11:33:37Z</time>
      </trkpt>
      <trkpt lat="49.8144" lon="2.54747">
        <ele>89.2</ele>
        <time>2023-07-02T11:33:38Z</time>
      </trkpt>
      <trkpt lat="49.8144" lon="2.54746">
        <ele>89.2</ele>
        <time>2023-07-02T11:33:39Z</time>
      </trkpt>
      <trkpt lat="49.81439" lon="2.54746">
        <ele>89.3</ele>
        <time>2023-07-02T11:33:40Z</time>
      </trkpt>
      <trkpt lat="49.81439" lon="2.54746">
        <ele>89.3</ele>
        <time>2023-07-02T11:33:41Z</time>
      </trkpt>
      <trkpt lat="49.81438" lon="2.54746">
        <ele>89.3</ele>
        <time>2023-07-02T11:33:43Z</time>
      </trkpt>
      <trkpt lat="49.81437" lon="2.54746">
        <ele>89.3</ele>
        <time>2023-07-02T11:33:44Z</time>
      </trkpt>
      <trkpt lat="49.81436" lon="2.54747">
        <ele>89.3</ele>
        <time>2023-07-02T11:33:45Z</time>
      </trkpt>
      <trkpt lat="49.81436" lon="2.54748">
        <ele>89.3</ele>
        <time>2023-07-02T11:33:47Z</time>
      </trkpt>
      <trkpt lat="49.81436" lon="2.54749">
        <ele>89.3</ele>
        <time>2023-07-02T11:33:48Z</time>
      </trkpt>
      <trkpt lat="49.81435" lon="2.54749">
        <ele>89.3</ele>
        <time>2023-07-02T11:33:50Z</time>
      </trkpt>
      <trkpt lat="49.81435" lon="2.5475">
        <ele>89.3</ele>
        <time>2023-07-02T11:33:51Z</time>
      </trkpt>
      <trkpt lat="49.81435" lon="2.5475">
        <ele>89.3</ele>
        <time>2023-07-02T11:33:53Z</time>
      </trkpt>
      <trkpt lat="49.81435" lon="2.5475">
        <ele>89.3</ele>
        <time>2023-07-02T11:33:54Z</time>
      </trkpt>
      <trkpt lat="49.81435" lon="2.5475">
        <ele>89.3</ele>
        <time>2023-07-02T11:33:55Z</time>
      </trkpt>
      <trkpt lat="49.81435" lon="2.5475">
        <ele>89.3</ele>
        <time>2023-07-02T11:33:57Z</time>
      </trkpt>
      <trkpt lat="49.81435" lon="2.54751">
        <ele>89.3</ele>
        <time>2023-07-02T11:33:58Z</time>
      </trkpt>
      <trkpt lat="49.81435" lon="2.54751">
        <ele>89.3</ele>
        <time>2023-07-02T11:33:59Z</time>
      </trkpt>
      <trkpt lat="49.81435" lon="2.54751">
        <ele>89.3</ele>
        <time>2023-07-02T11:34:00Z</time>
      </trkpt>
      <trkpt lat="49.81435" lon="2.54751">
        <ele>89.3</ele>
        <time>2023-07-02T11:34:01Z</time>
      </trkpt>
      <trkpt lat="49.81435" lon="2.54751">
        <ele>89.4</ele>
        <time>2023-07-02T11:34:02Z</time>
      </trkpt>
      <trkpt lat="49.81435" lon="2.54751">
        <ele>89.4</ele>
        <time>2023-07-02T11:34:03Z</time>
      </trkpt>
      <trkpt lat="49.81435" lon="2.54751">
        <ele>89.4</ele>
        <time>2023-07-02T11:34:04Z</time>
      </trkpt>
      <trkpt lat="49.81435" lon="2.54751">
        <ele>89.4</ele>
        <time>2023-07-02T11:34:05Z</time>
      </trkpt>
      <trkpt lat="49.81435" lon="2.54751">
        <ele>89.4</ele>
        <time>2023-07-02T11:34:06Z</time>
      </trkpt>
      <trkpt lat="49.81435" lon="2.54751">
        <ele>89.4</ele>
        <time>2023-07-02T11:34:07Z</time>
      </trkpt>
      <trkpt lat="49.81435" lon="2.54751">
        <ele>89.4</ele>
        <time>2023-07-02T11:34:08Z</time>
      </trkpt>
      <trkpt lat="49.81435" lon="2.54751">
        <ele>89.4</ele>
        <time>2023-07-02T11:34:09Z</time>
      </trkpt>
      <trkpt lat="49.81435" lon="2.54751">
        <ele>89.4</ele>
        <time>2023-07-02T11:34:10Z</time>
      </trkpt>
      <trkpt lat="49.81435" lon="2.54751">
        <ele>89.4</ele>
        <time>2023-07-02T11:34:11Z</time>
      </trkpt>
      <trkpt lat="49.81435" lon="2.54751">
        <ele>89.4</ele>
        <time>2023-07-02T11:34:12Z</time>
      </trkpt>
      <trkpt lat="49.81435" lon="2.54751">
        <ele>89.4</ele>
        <time>2023-07-02T11:34:13Z</time>
      </trkpt>
      <trkpt lat="49.81435" lon="2.54751">
        <ele>89.4</ele>
        <time>2023-07-02T11:34:14Z</time>
      </trkpt>
      <trkpt lat="49.81435" lon="2.54751">
        <ele>89.4</ele>
        <time>2023-07-02T11:34:15Z</time>
      </trkpt>
      <trkpt lat="49.81435" lon="2.54751">
        <ele>89.4</ele>
        <time>2023-07-02T11:34:16Z</time>
      </trkpt>
      <trkpt lat="49.81435" lon="2.54751">
        <ele>89.4</ele>
        <time>2023-07-02T11:34:17Z</time>
      </trkpt>
      <trkpt lat="49.81435" lon="2.54751">
        <ele>89.4</ele>
        <time>2023-07-02T11:34:18Z</time>
      </trkpt>
      <trkpt lat="49.81435" lon="2.54751">
        <ele>89.4</ele>
        <time>2023-07-02T11:34:19Z</time>
      </trkpt>
      <trkpt lat="49.81435" lon="2.54751">
        <ele>89.4</ele>
        <time>2023-07-02T11:34:20Z</time>
      </trkpt>
      <trkpt lat="49.81435" lon="2.54751">
        <ele>89.4</ele>
        <time>2023-07-02T11:34:21Z</time>
      </trkpt>
      <trkpt lat="49.81435" lon="2.54751">
        <ele>89.4</ele>
        <time>2023-07-02T11:34:22Z</time>
      </trkpt>
      <trkpt lat="49.81435" lon="2.54751">
        <ele>89.4</ele>
        <time>2023-07-02T11:34:23Z</time>
      </trkpt>
      <trkpt lat="49.81435" lon="2.54751">
        <ele>89.4</ele>
        <time>2023-07-02T11:34:24Z</time>
      </trkpt>
      <trkpt lat="49.81435" lon="2.54751">
        <ele>89.4</ele>
        <time>2023-07-02T11:34:25Z</time>
      </trkpt>
      <trkpt lat="49.81435" lon="2.54751">
        <ele>89.4</ele>
        <time>2023-07-02T11:34:26Z</time>
      </trkpt>
      <trkpt lat="49.81435" lon="2.54751">
        <ele>89.4</ele>
        <time>2023-07-02T11:34:27Z</time>
      </trkpt>
      <trkpt lat="49.81435" lon="2.54751">
        <ele>89.4</ele>
        <time>2023-07-02T11:34:28Z</time>
      </trkpt>
      <trkpt lat="49.81435" lon="2.54751">
        <ele>89.4</ele>
        <time>2023-07-02T11:34:29Z</time>
      </trkpt>
      <trkpt lat="49.81435" lon="2.54751">
        <ele>89.4</ele>
        <time>2023-07-02T11:34:30Z</time>
      </trkpt>
      <trkpt lat="49.81435" lon="2.54751">
        <ele>89.4</ele>
        <time>2023-07-02T11:34:31Z</time>
      </trkpt>
      <trkpt lat="49.81435" lon="2.54751">
        <ele>89.4</ele>
        <time>2023-07-02T11:34:32Z</time>
      </trkpt>
      <trkpt lat="49.81435" lon="2.54751">
        <ele>89.4</ele>
        <time>2023-07-02T11:34:33Z</time>
      </trkpt>
      <trkpt lat="49.81435" lon="2.54751">
        <ele>89.4</ele>
        <time>2023-07-02T11:34:34Z</time>
      </trkpt>
      <trkpt lat="49.81435" lon="2.54751">
        <ele>89.4</ele>
        <time>2023-07-02T11:34:35Z</time>
      </trkpt>
      <trkpt lat="49.81435" lon="2.54751">
        <ele>89.4</ele>
        <time>2023-07-02T11:34:36Z</time>
      </trkpt>
      <trkpt lat="49.81435" lon="2.54751">
        <ele>89.4</ele>
        <time>2023-07-02T11:34:37Z</time>
      </trkpt>
      <trkpt lat="49.81435" lon="2.54751">
        <ele>89.4</ele>
        <time>2023-07-02T11:34:38Z</time>
      </trkpt>
      <trkpt lat="49.81435" lon="2.54751">
        <ele>89.4</ele>
        <time>2023-07-02T11:34:39Z</time>
      </trkpt>
      <trkpt lat="49.81435" lon="2.54752">
        <ele>89.4</ele>
        <time>2023-07-02T11:34:41Z</time>
      </trkpt>
      <trkpt lat="49.81434" lon="2.54753">
        <ele>89.4</ele>
        <time>2023-07-02T11:34:42Z</time>
      </trkpt>
      <trkpt lat="49.81434" lon="2.54755">
        <ele>89.4</ele>
        <time>2023-07-02T11:34:44Z</time>
      </trkpt>
      <trkpt lat="49.81434" lon="2.54755">
        <ele>89.4</ele>
        <time>2023-07-02T11:34:45Z</time>
      </trkpt>
      <trkpt lat="49.81434" lon="2.54756">
        <ele>89.4</ele>
        <time>2023-07-02T11:34:47Z</time>
      </trkpt>
      <trkpt lat="49.81434" lon="2.54756">
        <ele>89.4</ele>
        <time>2023-07-02T11:34:48Z</time>
      </trkpt>
      <trkpt lat="49.81434" lon="2.54756">
        <ele>89.4</ele>
        <time>2023-07-02T11:34:50Z</time>
      </trkpt>
      <trkpt lat="49.81433" lon="2.54757">
        <ele>89.4</ele>
        <time>2023-07-02T11:34:51Z</time>
      </trkpt>
      <trkpt lat="49.81433" lon="2.54757">
        <ele>89.4</ele>
        <time>2023-07-02T11:34:52Z</time>
      </trkpt>
      <trkpt lat="49.81433" lon="2.54757">
        <ele>89.4</ele>
        <time>2023-07-02T11:34:54Z</time>
      </trkpt>
      <trkpt lat="49.81433" lon="2.54757">
        <ele>89.4</ele>
        <time>2023-07-02T11:34:55Z</time>
      </trkpt>
      <trkpt lat="49.81433" lon="2.54757">
        <ele>89.4</ele>
        <time>2023-07-02T11:34:57Z</time>
      </trkpt>
      <trkpt lat="49.81433" lon="2.54757">
        <ele>89.4</ele>
        <time>2023-07-02T11:34:58Z</time>
      </trkpt>
      <trkpt lat="49.81433" lon="2.54757">
        <ele>89.4</ele>
        <time>2023-07-02T11:34:59Z</time>
      </trkpt>
      <trkpt lat="49.81433" lon="2.54757">
        <ele>89.4</ele>
        <time>2023-07-02T11:35:01Z</time>
      </trkpt>
      <trkpt lat="49.81433" lon="2.54757">
        <ele>89.4</ele>
        <time>2023-07-02T11:35:02Z</time>
      </trkpt>
      <trkpt lat="49.81433" lon="2.54757">
        <ele>89.4</ele>
        <time>2023-07-02T11:35:03Z</time>
      </trkpt>
      <trkpt lat="49.81433" lon="2.54757">
        <ele>89.4</ele>
        <time>2023-07-02T11:35:04Z</time>
      </trkpt>
      <trkpt lat="49.81433" lon="2.54757">
        <ele>89.4</ele>
        <time>2023-07-02T11:35:05Z</time>
      </trkpt>
      <trkpt lat="49.81433" lon="2.54757">
        <ele>89.4</ele>
        <time>2023-07-02T11:35:06Z</time>
      </trkpt>
      <trkpt lat="49.81433" lon="2.54757">
        <ele>89.4</ele>
        <time>2023-07-02T11:35:07Z</time>
      </trkpt>
      <trkpt lat="49.81433" lon="2.54757">
        <ele>89.4</ele>
        <time>2023-07-02T11:35:08Z</time>
      </trkpt>
      <trkpt lat="49.81433" lon="2.54757">
        <ele>89.4</ele>
        <time>2023-07-02T11:35:09Z</time>
      </trkpt>
      <trkpt lat="49.81433" lon="2.54757">
        <ele>89.4</ele>
        <time>2023-07-02T11:35:10Z</time>
      </trkpt>
      <trkpt lat="49.81433" lon="2.54757">
        <ele>89.4</ele>
        <time>2023-07-02T11:35:11Z</time>
      </trkpt>
      <trkpt lat="49.81433" lon="2.54757">
        <ele>89.4</ele>
        <time>2023-07-02T11:35:12Z</time>
      </trkpt>
      <trkpt lat="49.81433" lon="2.54757">
        <ele>89.4</ele>
        <time>2023-07-02T11:35:13Z</time>
      </trkpt>
      <trkpt lat="49.81433" lon="2.54757">
        <ele>89.4</ele>
        <time>2023-07-02T11:35:14Z</time>
      </trkpt>
      <trkpt lat="49.81433" lon="2.54757">
        <ele>89.4</ele>
        <time>2023-07-02T11:35:15Z</time>
      </trkpt>
      <trkpt lat="49.81433" lon="2.54757">
        <ele>89.4</ele>
        <time>2023-07-02T11:35:16Z</time>
      </trkpt>
      <trkpt lat="49.81433" lon="2.54757">
        <ele>89.4</ele>
        <time>2023-07-02T11:35:17Z</time>
      </trkpt>
      <trkpt lat="49.81433" lon="2.54757">
        <ele>89.4</ele>
        <time>2023-07-02T11:35:18Z</time>
      </trkpt>
      <trkpt lat="49.81433" lon="2.54757">
        <ele>89.4</ele>
        <time>2023-07-02T11:35:19Z</time>
      </trkpt>
      <trkpt lat="49.81433" lon="2.54757">
        <ele>89.4</ele>
        <time>2023-07-02T11:35:20Z</time>
      </trkpt>
      <trkpt lat="49.81433" lon="2.54757">
        <ele>89.4</ele>
        <time>2023-07-02T11:35:21Z</time>
      </trkpt>
      <trkpt lat="49.81433" lon="2.54757">
        <ele>89.4</ele>
        <time>2023-07-02T11:35:22Z</time>
      </trkpt>
      <trkpt lat="49.81433" lon="2.54757">
        <ele>89.4</ele>
        <time>2023-07-02T11:35:23Z</time>
      </trkpt>
      <trkpt lat="49.81433" lon="2.54757">
        <ele>89.4</ele>
        <time>2023-07-02T11:35:24Z</time>
      </trkpt>
      <trkpt lat="49.81433" lon="2.54757">
        <ele>89.4</ele>
        <time>2023-07-02T11:35:25Z</time>
      </trkpt>
      <trkpt lat="49.81433" lon="2.54757">
        <ele>89.4</ele>
        <time>2023-07-02T11:35:26Z</time>
      </trkpt>
      <trkpt lat="49.81433" lon="2.54757">
        <ele>89.4</ele>
        <time>2023-07-02T11:35:27Z</time>
      </trkpt>
      <trkpt lat="49.81433" lon="2.54757">
        <ele>89.4</ele>
        <time>2023-07-02T11:35:28Z</time>
      </trkpt>
      <trkpt lat="49.81433" lon="2.54757">
        <ele>89.4</ele>
        <time>2023-07-02T11:35:29Z</time>
      </trkpt>
      <trkpt lat="49.81433" lon="2.54757">
        <ele>89.4</ele>
        <time>2023-07-02T11:35:30Z</time>
      </trkpt>
      <trkpt lat="49.81433" lon="2.54757">
        <ele>89.4</ele>
        <time>2023-07-02T11:35:31Z</time>
      </trkpt>
      <trkpt lat="49.81433" lon="2.54757">
        <ele>89.4</ele>
        <time>2023-07-02T11:35:32Z</time>
      </trkpt>
      <trkpt lat="49.81433" lon="2.54757">
        <ele>89.4</ele>
        <time>2023-07-02T11:35:33Z</time>
      </trkpt>
      <trkpt lat="49.81433" lon="2.54757">
        <ele>89.4</ele>
        <time>2023-07-02T11:35:34Z</time>
      </trkpt>
      <trkpt lat="49.81433" lon="2.54757">
        <ele>89.4</ele>
        <time>2023-07-02T11:35:35Z</time>
      </trkpt>
      <trkpt lat="49.81433" lon="2.54757">
        <ele>89.4</ele>
        <time>2023-07-02T11:35:36Z</time>
      </trkpt>
      <trkpt lat="49.81433" lon="2.54757">
        <ele>89.4</ele>
        <time>2023-07-02T11:35:37Z</time>
      </trkpt>
      <trkpt lat="49.81433" lon="2.54757">
        <ele>89.4</ele>
        <time>2023-07-02T11:35:38Z</time>
      </trkpt>
      <trkpt lat="49.81433" lon="2.54757">
        <ele>89.4</ele>
        <time>2023-07-02T11:35:39Z</time>
      </trkpt>
      <trkpt lat="49.81433" lon="2.54757">
        <ele>89.4</ele>
        <time>2023-07-02T11:35:40Z</time>
      </trkpt>
      <trkpt lat="49.81433" lon="2.54757">
        <ele>89.4</ele>
        <time>2023-07-02T11:35:41Z</time>
      </trkpt>
      <trkpt lat="49.81433" lon="2.54757">
        <ele>89.4</ele>
        <time>2023-07-02T11:35:42Z</time>
      </trkpt>
      <trkpt lat="49.81433" lon="2.54757">
        <ele>89.4</ele>
        <time>2023-07-02T11:35:43Z</time>
      </trkpt>
      <trkpt lat="49.81433" lon="2.54757">
        <ele>89.4</ele>
        <time>2023-07-02T11:35:44Z</time>
      </trkpt>
      <trkpt lat="49.81433" lon="2.54757">
        <ele>89.4</ele>
        <time>2023-07-02T11:35:45Z</time>
      </trkpt>
      <trkpt lat="49.81433" lon="2.54757">
        <ele>89.4</ele>
        <time>2023-07-02T11:35:46Z</time>
      </trkpt>
      <trkpt lat="49.81433" lon="2.54757">
        <ele>89.4</ele>
        <time>2023-07-02T11:35:47Z</time>
      </trkpt>
      <trkpt lat="49.81433" lon="2.54757">
        <ele>89.4</ele>
        <time>2023-07-02T11:35:48Z</time>
      </trkpt>
      <trkpt lat="49.81433" lon="2.54757">
        <ele>89.4</ele>
        <time>2023-07-02T11:35:49Z</time>
      </trkpt>
      <trkpt lat="49.81433" lon="2.54757">
        <ele>89.4</ele>
        <time>2023-07-02T11:35:50Z</time>
      </trkpt>
      <trkpt lat="49.81433" lon="2.54757">
        <ele>89.4</ele>
        <time>2023-07-02T11:35:51Z</time>
      </trkpt>
      <trkpt lat="49.81433" lon="2.54757">
        <ele>89.4</ele>
        <time>2023-07-02T11:35:52Z</time>
      </trkpt>
      <trkpt lat="49.81433" lon="2.54757">
        <ele>89.5</ele>
        <time>2023-07-02T11:35:53Z</time>
      </trkpt>
      <trkpt lat="49.81433" lon="2.54757">
        <ele>89.5</ele>
        <time>2023-07-02T11:35:54Z</time>
      </trkpt>
      <trkpt lat="49.81433" lon="2.54757">
        <ele>89.5</ele>
        <time>2023-07-02T11:35:56Z</time>
      </trkpt>
      <trkpt lat="49.81433" lon="2.54756">
        <ele>89.5</ele>
        <time>2023-07-02T11:35:57Z</time>
      </trkpt>
      <trkpt lat="49.81433" lon="2.54756">
        <ele>89.5</ele>
        <time>2023-07-02T11:35:58Z</time>
      </trkpt>
      <trkpt lat="49.81433" lon="2.54757">
        <ele>89.5</ele>
        <time>2023-07-02T11:36:00Z</time>
      </trkpt>
      <trkpt lat="49.81433" lon="2.54757">
        <ele>89.5</ele>
        <time>2023-07-02T11:36:01Z</time>
      </trkpt>
      <trkpt lat="49.81433" lon="2.54757">
        <ele>89.5</ele>
        <time>2023-07-02T11:36:02Z</time>
      </trkpt>
      <trkpt lat="49.81433" lon="2.54757">
        <ele>89.5</ele>
        <time>2023-07-02T11:36:04Z</time>
      </trkpt>
      <trkpt lat="49.81433" lon="2.54757">
        <ele>89.5</ele>
        <time>2023-07-02T11:36:05Z</time>
      </trkpt>
      <trkpt lat="49.81433" lon="2.54757">
        <ele>89.5</ele>
        <time>2023-07-02T11:36:06Z</time>
      </trkpt>
      <trkpt lat="49.81433" lon="2.54757">
        <ele>89.5</ele>
        <time>2023-07-02T11:36:07Z</time>
      </trkpt>
      <trkpt lat="49.81433" lon="2.54757">
        <ele>89.5</ele>
        <time>2023-07-02T11:36:08Z</time>
      </trkpt>
      <trkpt lat="49.81433" lon="2.54757">
        <ele>89.5</ele>
        <time>2023-07-02T11:36:10Z</time>
      </trkpt>
      <trkpt lat="49.81433" lon="2.54757">
        <ele>89.5</ele>
        <time>2023-07-02T11:36:11Z</time>
      </trkpt>
      <trkpt lat="49.81433" lon="2.54757">
        <ele>89.5</ele>
        <time>2023-07-02T11:36:13Z</time>
      </trkpt>
      <trkpt lat="49.81433" lon="2.54757">
        <ele>89.5</ele>
        <time>2023-07-02T11:36:14Z</time>
      </trkpt>
      <trkpt lat="49.81433" lon="2.54757">
        <ele>89.5</ele>
        <time>2023-07-02T11:36:16Z</time>
      </trkpt>
      <trkpt lat="49.81433" lon="2.54757">
        <ele>89.5</ele>
        <time>2023-07-02T11:36:17Z</time>
      </trkpt>
      <trkpt lat="49.81433" lon="2.54757">
        <ele>89.5</ele>
        <time>2023-07-02T11:36:19Z</time>
      </trkpt>
      <trkpt lat="49.81433" lon="2.54757">
        <ele>89.5</ele>
        <time>2023-07-02T11:36:20Z</time>
      </trkpt>
      <trkpt lat="49.81433" lon="2.54757">
        <ele>89.5</ele>
        <time>2023-07-02T11:36:21Z</time>
      </trkpt>
      <trkpt lat="49.81433" lon="2.54757">
        <ele>89.5</ele>
        <time>2023-07-02T11:36:23Z</time>
      </trkpt>
      <trkpt lat="49.81433" lon="2.54757">
        <ele>89.5</ele>
        <time>2023-07-02T11:36:24Z</time>
      </trkpt>
      <trkpt lat="49.81432" lon="2.54757">
        <ele>89.5</ele>
        <time>2023-07-02T11:36:26Z</time>
      </trkpt>
      <trkpt lat="49.81432" lon="2.54756">
        <ele>89.5</ele>
        <time>2023-07-02T11:36:27Z</time>
      </trkpt>
      <trkpt lat="49.81432" lon="2.54756">
        <ele>89.5</ele>
        <time>2023-07-02T11:36:28Z</time>
      </trkpt>
      <trkpt lat="49.81432" lon="2.54756">
        <ele>89.5</ele>
        <time>2023-07-02T11:36:30Z</time>
      </trkpt>
      <trkpt lat="49.81431" lon="2.54756">
        <ele>89.6</ele>
        <time>2023-07-02T11:36:31Z</time>
      </trkpt>
      <trkpt lat="49.81432" lon="2.54758">
        <ele>89.6</ele>
        <time>2023-07-02T11:36:32Z</time>
      </trkpt>
      <trkpt lat="49.81433" lon="2.5476">
        <ele>89.6</ele>
        <time>2023-07-02T11:36:33Z</time>
      </trkpt>
      <trkpt lat="49.81434" lon="2.54762">
        <ele>89.6</ele>
        <time>2023-07-02T11:36:34Z</time>
      </trkpt>
      <trkpt lat="49.81435" lon="2.54764">
        <ele>89.6</ele>
        <time>2023-07-02T11:36:35Z</time>
      </trkpt>
      <trkpt lat="49.81436" lon="2.54765">
        <ele>89.6</ele>
        <time>2023-07-02T11:36:36Z</time>
      </trkpt>
      <trkpt lat="49.81436" lon="2.54766">
        <ele>89.7</ele>
        <time>2023-07-02T11:36:37Z</time>
      </trkpt>
      <trkpt lat="49.81437" lon="2.54767">
        <ele>89.7</ele>
        <time>2023-07-02T11:36:39Z</time>
      </trkpt>
      <trkpt lat="49.81438" lon="2.54769">
        <ele>89.7</ele>
        <time>2023-07-02T11:36:40Z</time>
      </trkpt>
      <trkpt lat="49.81438" lon="2.5477">
        <ele>89.7</ele>
        <time>2023-07-02T11:36:41Z</time>
      </trkpt>
      <trkpt lat="49.81439" lon="2.54771">
        <ele>89.7</ele>
        <time>2023-07-02T11:36:42Z</time>
      </trkpt>
      <trkpt lat="49.81439" lon="2.54772">
        <ele>89.7</ele>
        <time>2023-07-02T11:36:43Z</time>
      </trkpt>
      <trkpt lat="49.8144" lon="2.54774">
        <ele>89.7</ele>
        <time>2023-07-02T11:36:44Z</time>
      </trkpt>
      <trkpt lat="49.81441" lon="2.54774">
        <ele>89.7</ele>
        <time>2023-07-02T11:36:45Z</time>
      </trkpt>
      <trkpt lat="49.81442" lon="2.54776">
        <ele>89.7</ele>
        <time>2023-07-02T11:36:47Z</time>
      </trkpt>
      <trkpt lat="49.81443" lon="2.54777">
        <ele>89.7</ele>
        <time>2023-07-02T11:36:49Z</time>
      </trkpt>
      <trkpt lat="49.81444" lon="2.54778">
        <ele>89.7</ele>
        <time>2023-07-02T11:36:50Z</time>
      </trkpt>
      <trkpt lat="49.81444" lon="2.54779">
        <ele>89.7</ele>
        <time>2023-07-02T11:36:51Z</time>
      </trkpt>
      <trkpt lat="49.81445" lon="2.5478">
        <ele>89.7</ele>
        <time>2023-07-02T11:36:52Z</time>
      </trkpt>
      <trkpt lat="49.81445" lon="2.54781">
        <ele>89.7</ele>
        <time>2023-07-02T11:36:53Z</time>
      </trkpt>
      <trkpt lat="49.81447" lon="2.54783">
        <ele>89.7</ele>
        <time>2023-07-02T11:36:54Z</time>
      </trkpt>
      <trkpt lat="49.81447" lon="2.54784">
        <ele>89.7</ele>
        <time>2023-07-02T11:36:56Z</time>
      </trkpt>
      <trkpt lat="49.81448" lon="2.54785">
        <ele>89.7</ele>
        <time>2023-07-02T11:36:57Z</time>
      </trkpt>
      <trkpt lat="49.81449" lon="2.54786">
        <ele>89.7</ele>
        <time>2023-07-02T11:36:58Z</time>
      </trkpt>
      <trkpt lat="49.8145" lon="2.54787">
        <ele>89.7</ele>
        <time>2023-07-02T11:36:59Z</time>
      </trkpt>
      <trkpt lat="49.8145" lon="2.54788">
        <ele>89.7</ele>
        <time>2023-07-02T11:37:00Z</time>
      </trkpt>
      <trkpt lat="49.81451" lon="2.5479">
        <ele>89.7</ele>
        <time>2023-07-02T11:37:02Z</time>
      </trkpt>
      <trkpt lat="49.81452" lon="2.54791">
        <ele>89.7</ele>
        <time>2023-07-02T11:37:03Z</time>
      </trkpt>
      <trkpt lat="49.81452" lon="2.54792">
        <ele>89.7</ele>
        <time>2023-07-02T11:37:04Z</time>
      </trkpt>
      <trkpt lat="49.81453" lon="2.54794">
        <ele>89.7</ele>
        <time>2023-07-02T11:37:05Z</time>
      </trkpt>
      <trkpt lat="49.81454" lon="2.54795">
        <ele>89.7</ele>
        <time>2023-07-02T11:37:06Z</time>
      </trkpt>
      <trkpt lat="49.81454" lon="2.54796">
        <ele>89.7</ele>
        <time>2023-07-02T11:37:07Z</time>
      </trkpt>
      <trkpt lat="49.81456" lon="2.54799">
        <ele>89.7</ele>
        <time>2023-07-02T11:37:09Z</time>
      </trkpt>
      <trkpt lat="49.81456" lon="2.54799">
        <ele>89.7</ele>
        <time>2023-07-02T11:37:10Z</time>
      </trkpt>
      <trkpt lat="49.81457" lon="2.548">
        <ele>89.7</ele>
        <time>2023-07-02T11:37:11Z</time>
      </trkpt>
      <trkpt lat="49.81458" lon="2.54801">
        <ele>89.7</ele>
        <time>2023-07-02T11:37:13Z</time>
      </trkpt>
      <trkpt lat="49.81459" lon="2.54803">
        <ele>89.7</ele>
        <time>2023-07-02T11:37:14Z</time>
      </trkpt>
      <trkpt lat="49.81459" lon="2.54804">
        <ele>89.7</ele>
        <time>2023-07-02T11:37:15Z</time>
      </trkpt>
      <trkpt lat="49.8146" lon="2.54805">
        <ele>89.7</ele>
        <time>2023-07-02T11:37:16Z</time>
      </trkpt>
      <trkpt lat="49.81461" lon="2.54806">
        <ele>89.7</ele>
        <time>2023-07-02T11:37:17Z</time>
      </trkpt>
      <trkpt lat="49.81462" lon="2.54807">
        <ele>89.7</ele>
        <time>2023-07-02T11:37:19Z</time>
      </trkpt>
      <trkpt lat="49.81463" lon="2.54809">
        <ele>89.7</ele>
        <time>2023-07-02T11:37:20Z</time>
      </trkpt>
      <trkpt lat="49.81464" lon="2.5481">
        <ele>89.7</ele>
        <time>2023-07-02T11:37:21Z</time>
      </trkpt>
      <trkpt lat="49.81465" lon="2.54811">
        <ele>89.7</ele>
        <time>2023-07-02T11:37:23Z</time>
      </trkpt>
      <trkpt lat="49.81466" lon="2.54812">
        <ele>89.7</ele>
        <time>2023-07-02T11:37:24Z</time>
      </trkpt>
      <trkpt lat="49.81467" lon="2.54813">
        <ele>89.7</ele>
        <time>2023-07-02T11:37:25Z</time>
      </trkpt>
      <trkpt lat="49.81467" lon="2.54814">
        <ele>89.7</ele>
        <time>2023-07-02T11:37:26Z</time>
      </trkpt>
      <trkpt lat="49.81468" lon="2.54815">
        <ele>89.7</ele>
        <time>2023-07-02T11:37:27Z</time>
      </trkpt>
      <trkpt lat="49.81469" lon="2.54816">
        <ele>89.6</ele>
        <time>2023-07-02T11:37:28Z</time>
      </trkpt>
      <trkpt lat="49.8147" lon="2.54817">
        <ele>89.6</ele>
        <time>2023-07-02T11:37:30Z</time>
      </trkpt>
      <trkpt lat="49.81471" lon="2.54818">
        <ele>89.6</ele>
        <time>2023-07-02T11:37:31Z</time>
      </trkpt>
      <trkpt lat="49.81472" lon="2.54819">
        <ele>89.6</ele>
        <time>2023-07-02T11:37:32Z</time>
      </trkpt>
      <trkpt lat="49.81472" lon="2.5482">
        <ele>89.6</ele>
        <time>2023-07-02T11:37:33Z</time>
      </trkpt>
      <trkpt lat="49.81473" lon="2.54822">
        <ele>89.6</ele>
        <time>2023-07-02T11:37:34Z</time>
      </trkpt>
      <trkpt lat="49.81474" lon="2.54823">
        <ele>89.6</ele>
        <time>2023-07-02T11:37:35Z</time>
      </trkpt>
      <trkpt lat="49.81475" lon="2.54824">
        <ele>89.6</ele>
        <time>2023-07-02T11:37:36Z</time>
      </trkpt>
      <trkpt lat="49.81476" lon="2.54827">
        <ele>89.6</ele>
        <time>2023-07-02T11:37:38Z</time>
      </trkpt>
      <trkpt lat="49.81477" lon="2.54828">
        <ele>89.6</ele>
        <time>2023-07-02T11:37:39Z</time>
      </trkpt>
      <trkpt lat="49.81477" lon="2.54828">
        <ele>89.6</ele>
        <time>2023-07-02T11:37:40Z</time>
      </trkpt>
      <trkpt lat="49.81478" lon="2.5483">
        <ele>89.5</ele>
        <time>2023-07-02T11:37:41Z</time>
      </trkpt>
      <trkpt lat="49.81479" lon="2.54831">
        <ele>89.5</ele>
        <time>2023-07-02T11:37:42Z</time>
      </trkpt>
      <trkpt lat="49.8148" lon="2.54833">
        <ele>89.5</ele>
        <time>2023-07-02T11:37:44Z</time>
      </trkpt>
      <trkpt lat="49.8148" lon="2.54835">
        <ele>89.5</ele>
        <time>2023-07-02T11:37:45Z</time>
      </trkpt>
      <trkpt lat="49.81481" lon="2.54837">
        <ele>89.5</ele>
        <time>2023-07-02T11:37:46Z</time>
      </trkpt>
      <trkpt lat="49.81482" lon="2.54838">
        <ele>89.5</ele>
        <time>2023-07-02T11:37:47Z</time>
      </trkpt>
      <trkpt lat="49.81483" lon="2.5484">
        <ele>89.4</ele>
        <time>2023-07-02T11:37:49Z</time>
      </trkpt>
      <trkpt lat="49.81484" lon="2.54842">
        <ele>89.4</ele>
        <time>2023-07-02T11:37:50Z</time>
      </trkpt>
      <trkpt lat="49.81484" lon="2.54843">
        <ele>89.4</ele>
        <time>2023-07-02T11:37:51Z</time>
      </trkpt>
      <trkpt lat="49.81485" lon="2.54844">
        <ele>89.4</ele>
        <time>2023-07-02T11:37:53Z</time>
      </trkpt>
      <trkpt lat="49.81486" lon="2.54845">
        <ele>89.4</ele>
        <time>2023-07-02T11:37:54Z</time>
      </trkpt>
      <trkpt lat="49.81487" lon="2.54846">
        <ele>89.4</ele>
        <time>2023-07-02T11:37:55Z</time>
      </trkpt>
      <trkpt lat="49.81488" lon="2.54848">
        <ele>89.4</ele>
        <time>2023-07-02T11:37:56Z</time>
      </trkpt>
      <trkpt lat="49.81488" lon="2.54849">
        <ele>89.3</ele>
        <time>2023-07-02T11:37:57Z</time>
      </trkpt>
      <trkpt lat="49.81489" lon="2.5485">
        <ele>89.3</ele>
        <time>2023-07-02T11:37:59Z</time>
      </trkpt>
      <trkpt lat="49.8149" lon="2.54852">
        <ele>89.3</ele>
        <time>2023-07-02T11:38:00Z</time>
      </trkpt>
      <trkpt lat="49.81491" lon="2.54853">
        <ele>89.3</ele>
        <time>2023-07-02T11:38:01Z</time>
      </trkpt>
      <trkpt lat="49.81491" lon="2.54854">
        <ele>89.3</ele>
        <time>2023-07-02T11:38:02Z</time>
      </trkpt>
      <trkpt lat="49.81492" lon="2.54855">
        <ele>89.3</ele>
        <time>2023-07-02T11:38:03Z</time>
      </trkpt>
      <trkpt lat="49.81493" lon="2.54858">
        <ele>89.2</ele>
        <time>2023-07-02T11:38:04Z</time>
      </trkpt>
      <trkpt lat="49.81494" lon="2.54859">
        <ele>89.2</ele>
        <time>2023-07-02T11:38:06Z</time>
      </trkpt>
      <trkpt lat="49.81494" lon="2.54861">
        <ele>89.2</ele>
        <time>2023-07-02T11:38:07Z</time>
      </trkpt>
      <trkpt lat="49.81495" lon="2.54862">
        <ele>89.2</ele>
        <time>2023-07-02T11:38:08Z</time>
      </trkpt>
      <trkpt lat="49.81495" lon="2.54863">
        <ele>89.2</ele>
        <time>2023-07-02T11:38:09Z</time>
      </trkpt>
      <trkpt lat="49.81496" lon="2.54864">
        <ele>89.1</ele>
        <time>2023-07-02T11:38:10Z</time>
      </trkpt>
      <trkpt lat="49.81498" lon="2.54867">
        <ele>89.1</ele>
        <time>2023-07-02T11:38:12Z</time>
      </trkpt>
      <trkpt lat="49.81498" lon="2.54868">
        <ele>89.1</ele>
        <time>2023-07-02T11:38:13Z</time>
      </trkpt>
      <trkpt lat="49.81499" lon="2.54869">
        <ele>89.1</ele>
        <time>2023-07-02T11:38:14Z</time>
      </trkpt>
      <trkpt lat="49.81499" lon="2.5487">
        <ele>89.1</ele>
        <time>2023-07-02T11:38:15Z</time>
      </trkpt>
      <trkpt lat="49.815" lon="2.54871">
        <ele>89</ele>
        <time>2023-07-02T11:38:16Z</time>
      </trkpt>
      <trkpt lat="49.81501" lon="2.54872">
        <ele>89</ele>
        <time>2023-07-02T11:38:17Z</time>
      </trkpt>
      <trkpt lat="49.81502" lon="2.54873">
        <ele>89</ele>
        <time>2023-07-02T11:38:19Z</time>
      </trkpt>
      <trkpt lat="49.81502" lon="2.54874">
        <ele>89</ele>
        <time>2023-07-02T11:38:20Z</time>
      </trkpt>
      <trkpt lat="49.81503" lon="2.54875">
        <ele>89</ele>
        <time>2023-07-02T11:38:22Z</time>
      </trkpt>
      <trkpt lat="49.81504" lon="2.54877">
        <ele>88.9</ele>
        <time>2023-07-02T11:38:23Z</time>
      </trkpt>
      <trkpt lat="49.81505" lon="2.54878">
        <ele>88.9</ele>
        <time>2023-07-02T11:38:24Z</time>
      </trkpt>
      <trkpt lat="49.81505" lon="2.54879">
        <ele>88.9</ele>
        <time>2023-07-02T11:38:25Z</time>
      </trkpt>
      <trkpt lat="49.81506" lon="2.5488">
        <ele>88.9</ele>
        <time>2023-07-02T11:38:26Z</time>
      </trkpt>
      <trkpt lat="49.81507" lon="2.54882">
        <ele>88.9</ele>
        <time>2023-07-02T11:38:28Z</time>
      </trkpt>
      <trkpt lat="49.81507" lon="2.54883">
        <ele>88.9</ele>
        <time>2023-07-02T11:38:29Z</time>
      </trkpt>
      <trkpt lat="49.81508" lon="2.54884">
        <ele>88.9</ele>
        <time>2023-07-02T11:38:30Z</time>
      </trkpt>
      <trkpt lat="49.81509" lon="2.54885">
        <ele>88.8</ele>
        <time>2023-07-02T11:38:31Z</time>
      </trkpt>
      <trkpt lat="49.8151" lon="2.54886">
        <ele>88.8</ele>
        <time>2023-07-02T11:38:32Z</time>
      </trkpt>
      <trkpt lat="49.8151" lon="2.54888">
        <ele>88.8</ele>
        <time>2023-07-02T11:38:33Z</time>
      </trkpt>
      <trkpt lat="49.81511" lon="2.54889">
        <ele>88.8</ele>
        <time>2023-07-02T11:38:34Z</time>
      </trkpt>
      <trkpt lat="49.81512" lon="2.54891">
        <ele>88.8</ele>
        <time>2023-07-02T11:38:35Z</time>
      </trkpt>
      <trkpt lat="49.81513" lon="2.54893">
        <ele>88.8</ele>
        <time>2023-07-02T11:38:37Z</time>
      </trkpt>
      <trkpt lat="49.81513" lon="2.54894">
        <ele>88.8</ele>
        <time>2023-07-02T11:38:38Z</time>
      </trkpt>
      <trkpt lat="49.81514" lon="2.54896">
        <ele>88.8</ele>
        <time>2023-07-02T11:38:39Z</time>
      </trkpt>
      <trkpt lat="49.81515" lon="2.54897">
        <ele>88.8</ele>
        <time>2023-07-02T11:38:40Z</time>
      </trkpt>
      <trkpt lat="49.81516" lon="2.54899">
        <ele>88.8</ele>
        <time>2023-07-02T11:38:42Z</time>
      </trkpt>
      <trkpt lat="49.81517" lon="2.54902">
        <ele>88.8</ele>
        <time>2023-07-02T11:38:43Z</time>
      </trkpt>
      <trkpt lat="49.81518" lon="2.54903">
        <ele>88.8</ele>
        <time>2023-07-02T11:38:44Z</time>
      </trkpt>
      <trkpt lat="49.81518" lon="2.54904">
        <ele>88.8</ele>
        <time>2023-07-02T11:38:45Z</time>
      </trkpt>
      <trkpt lat="49.81519" lon="2.54905">
        <ele>88.8</ele>
        <time>2023-07-02T11:38:46Z</time>
      </trkpt>
      <trkpt lat="49.8152" lon="2.54906">
        <ele>88.8</ele>
        <time>2023-07-02T11:38:47Z</time>
      </trkpt>
      <trkpt lat="49.81521" lon="2.54908">
        <ele>88.8</ele>
        <time>2023-07-02T11:38:49Z</time>
      </trkpt>
      <trkpt lat="49.81522" lon="2.5491">
        <ele>88.9</ele>
        <time>2023-07-02T11:38:50Z</time>
      </trkpt>
      <trkpt lat="49.81523" lon="2.54911">
        <ele>88.9</ele>
        <time>2023-07-02T11:38:51Z</time>
      </trkpt>
      <trkpt lat="49.81523" lon="2.54912">
        <ele>88.9</ele>
        <time>2023-07-02T11:38:52Z</time>
      </trkpt>
      <trkpt lat="49.81525" lon="2.54914">
        <ele>88.9</ele>
        <time>2023-07-02T11:38:53Z</time>
      </trkpt>
      <trkpt lat="49.81526" lon="2.54914">
        <ele>88.9</ele>
        <time>2023-07-02T11:38:55Z</time>
      </trkpt>
      <trkpt lat="49.81527" lon="2.54915">
        <ele>89</ele>
        <time>2023-07-02T11:38:56Z</time>
      </trkpt>
      <trkpt lat="49.81528" lon="2.54916">
        <ele>89</ele>
        <time>2023-07-02T11:38:57Z</time>
      </trkpt>
      <trkpt lat="49.81529" lon="2.54917">
        <ele>89</ele>
        <time>2023-07-02T11:38:58Z</time>
      </trkpt>
      <trkpt lat="49.81529" lon="2.54918">
        <ele>89</ele>
        <time>2023-07-02T11:38:59Z</time>
      </trkpt>
      <trkpt lat="49.81531" lon="2.5492">
        <ele>89</ele>
        <time>2023-07-02T11:39:01Z</time>
      </trkpt>
      <trkpt lat="49.81532" lon="2.54921">
        <ele>89.1</ele>
        <time>2023-07-02T11:39:02Z</time>
      </trkpt>
      <trkpt lat="49.81532" lon="2.54922">
        <ele>89.1</ele>
        <time>2023-07-02T11:39:03Z</time>
      </trkpt>
      <trkpt lat="49.81534" lon="2.54923">
        <ele>89.1</ele>
        <time>2023-07-02T11:39:05Z</time>
      </trkpt>
      <trkpt lat="49.81535" lon="2.54924">
        <ele>89.1</ele>
        <time>2023-07-02T11:39:06Z</time>
      </trkpt>
      <trkpt lat="49.81535" lon="2.54925">
        <ele>89.1</ele>
        <time>2023-07-02T11:39:07Z</time>
      </trkpt>
      <trkpt lat="49.81536" lon="2.54926">
        <ele>89.1</ele>
        <time>2023-07-02T11:39:08Z</time>
      </trkpt>
      <trkpt lat="49.81537" lon="2.54927">
        <ele>89.2</ele>
        <time>2023-07-02T11:39:10Z</time>
      </trkpt>
      <trkpt lat="49.81538" lon="2.54928">
        <ele>89.2</ele>
        <time>2023-07-02T11:39:11Z</time>
      </trkpt>
      <trkpt lat="49.81539" lon="2.54929">
        <ele>89.2</ele>
        <time>2023-07-02T11:39:12Z</time>
      </trkpt>
      <trkpt lat="49.8154" lon="2.5493">
        <ele>89.2</ele>
        <time>2023-07-02T11:39:13Z</time>
      </trkpt>
      <trkpt lat="49.81541" lon="2.54931">
        <ele>89.2</ele>
        <time>2023-07-02T11:39:14Z</time>
      </trkpt>
      <trkpt lat="49.81542" lon="2.54932">
        <ele>89.2</ele>
        <time>2023-07-02T11:39:15Z</time>
      </trkpt>
      <trkpt lat="49.81543" lon="2.54933">
        <ele>89.2</ele>
        <time>2023-07-02T11:39:16Z</time>
      </trkpt>
      <trkpt lat="49.81544" lon="2.54935">
        <ele>89.3</ele>
        <time>2023-07-02T11:39:18Z</time>
      </trkpt>
      <trkpt lat="49.81545" lon="2.54936">
        <ele>89.3</ele>
        <time>2023-07-02T11:39:19Z</time>
      </trkpt>
      <trkpt lat="49.81546" lon="2.54937">
        <ele>89.3</ele>
        <time>2023-07-02T11:39:20Z</time>
      </trkpt>
      <trkpt lat="49.81546" lon="2.54938">
        <ele>89.3</ele>
        <time>2023-07-02T11:39:21Z</time>
      </trkpt>
      <trkpt lat="49.81547" lon="2.54939">
        <ele>89.3</ele>
        <time>2023-07-02T11:39:22Z</time>
      </trkpt>
      <trkpt lat="49.81548" lon="2.54941">
        <ele>89.3</ele>
        <time>2023-07-02T11:39:23Z</time>
      </trkpt>
      <trkpt lat="49.81549" lon="2.54942">
        <ele>89.3</ele>
        <time>2023-07-02T11:39:25Z</time>
      </trkpt>
      <trkpt lat="49.81549" lon="2.54943">
        <ele>89.2</ele>
        <time>2023-07-02T11:39:26Z</time>
      </trkpt>
      <trkpt lat="49.8155" lon="2.54945">
        <ele>89.2</ele>
        <time>2023-07-02T11:39:27Z</time>
      </trkpt>
      <trkpt lat="49.81551" lon="2.54947">
        <ele>89.2</ele>
        <time>2023-07-02T11:39:28Z</time>
      </trkpt>
      <trkpt lat="49.81552" lon="2.54948">
        <ele>89.2</ele>
        <time>2023-07-02T11:39:30Z</time>
      </trkpt>
      <trkpt lat="49.81553" lon="2.54949">
        <ele>89.2</ele>
        <time>2023-07-02T11:39:31Z</time>
      </trkpt>
      <trkpt lat="49.81554" lon="2.54952">
        <ele>89.2</ele>
        <time>2023-07-02T11:39:33Z</time>
      </trkpt>
      <trkpt lat="49.81555" lon="2.54953">
        <ele>89.1</ele>
        <time>2023-07-02T11:39:34Z</time>
      </trkpt>
      <trkpt lat="49.81555" lon="2.54954">
        <ele>89.1</ele>
        <time>2023-07-02T11:39:35Z</time>
      </trkpt>
      <trkpt lat="49.81556" lon="2.54955">
        <ele>89.1</ele>
        <time>2023-07-02T11:39:36Z</time>
      </trkpt>
      <trkpt lat="49.81556" lon="2.54957">
        <ele>89.1</ele>
        <time>2023-07-02T11:39:37Z</time>
      </trkpt>
      <trkpt lat="49.81557" lon="2.54958">
        <ele>89.1</ele>
        <time>2023-07-02T11:39:38Z</time>
      </trkpt>
      <trkpt lat="49.81558" lon="2.54961">
        <ele>89</ele>
        <time>2023-07-02T11:39:39Z</time>
      </trkpt>
      <trkpt lat="49.81559" lon="2.54962">
        <ele>89</ele>
        <time>2023-07-02T11:39:41Z</time>
      </trkpt>
      <trkpt lat="49.81559" lon="2.54963">
        <ele>89</ele>
        <time>2023-07-02T11:39:42Z</time>
      </trkpt>
      <trkpt lat="49.81561" lon="2.54965">
        <ele>88.9</ele>
        <time>2023-07-02T11:39:43Z</time>
      </trkpt>
      <trkpt lat="49.81561" lon="2.54966">
        <ele>88.9</ele>
        <time>2023-07-02T11:39:44Z</time>
      </trkpt>
      <trkpt lat="49.81562" lon="2.54966">
        <ele>88.9</ele>
        <time>2023-07-02T11:39:45Z</time>
      </trkpt>
      <trkpt lat="49.81564" lon="2.54968">
        <ele>88.8</ele>
        <time>2023-07-02T11:39:46Z</time>
      </trkpt>
      <trkpt lat="49.81564" lon="2.54969">
        <ele>88.8</ele>
        <time>2023-07-02T11:39:48Z</time>
      </trkpt>
      <trkpt lat="49.81565" lon="2.5497">
        <ele>88.8</ele>
        <time>2023-07-02T11:39:49Z</time>
      </trkpt>
      <trkpt lat="49.81567" lon="2.54972">
        <ele>88.8</ele>
        <time>2023-07-02T11:39:50Z</time>
      </trkpt>
      <trkpt lat="49.81567" lon="2.54973">
        <ele>88.8</ele>
        <time>2023-07-02T11:39:51Z</time>
      </trkpt>
      <trkpt lat="49.81568" lon="2.54974">
        <ele>88.8</ele>
        <time>2023-07-02T11:39:52Z</time>
      </trkpt>
      <trkpt lat="49.81569" lon="2.54976">
        <ele>88.7</ele>
        <time>2023-07-02T11:39:53Z</time>
      </trkpt>
      <trkpt lat="49.81569" lon="2.54977">
        <ele>88.7</ele>
        <time>2023-07-02T11:39:54Z</time>
      </trkpt>
      <trkpt lat="49.8157" lon="2.54978">
        <ele>88.7</ele>
        <time>2023-07-02T11:39:56Z</time>
      </trkpt>
      <trkpt lat="49.8157" lon="2.54978">
        <ele>88.7</ele>
        <time>2023-07-02T11:39:57Z</time>
      </trkpt>
      <trkpt lat="49.81572" lon="2.54981">
        <ele>88.7</ele>
        <time>2023-07-02T11:39:58Z</time>
      </trkpt>
      <trkpt lat="49.81572" lon="2.54982">
        <ele>88.7</ele>
        <time>2023-07-02T11:39:59Z</time>
      </trkpt>
      <trkpt lat="49.81573" lon="2.54983">
        <ele>88.7</ele>
        <time>2023-07-02T11:40:00Z</time>
      </trkpt>
      <trkpt lat="49.81574" lon="2.54985">
        <ele>88.7</ele>
        <time>2023-07-02T11:40:01Z</time>
      </trkpt>
      <trkpt lat="49.81575" lon="2.54986">
        <ele>88.7</ele>
        <time>2023-07-02T11:40:03Z</time>
      </trkpt>
      <trkpt lat="49.81576" lon="2.54986">
        <ele>88.7</ele>
        <time>2023-07-02T11:40:04Z</time>
      </trkpt>
      <trkpt lat="49.81577" lon="2.54988">
        <ele>88.6</ele>
        <time>2023-07-02T11:40:05Z</time>
      </trkpt>
      <trkpt lat="49.81578" lon="2.54989">
        <ele>88.6</ele>
        <time>2023-07-02T11:40:06Z</time>
      </trkpt>
      <trkpt lat="49.81578" lon="2.5499">
        <ele>88.6</ele>
        <time>2023-07-02T11:40:07Z</time>
      </trkpt>
      <trkpt lat="49.8158" lon="2.54992">
        <ele>88.6</ele>
        <time>2023-07-02T11:40:08Z</time>
      </trkpt>
      <trkpt lat="49.8158" lon="2.54993">
        <ele>88.6</ele>
        <time>2023-07-02T11:40:09Z</time>
      </trkpt>
      <trkpt lat="49.81581" lon="2.54994">
        <ele>88.6</ele>
        <time>2023-07-02T11:40:11Z</time>
      </trkpt>
      <trkpt lat="49.81582" lon="2.54995">
        <ele>88.6</ele>
        <time>2023-07-02T11:40:12Z</time>
      </trkpt>
      <trkpt lat="49.81582" lon="2.54996">
        <ele>88.6</ele>
        <time>2023-07-02T11:40:13Z</time>
      </trkpt>
      <trkpt lat="49.81583" lon="2.54997">
        <ele>88.6</ele>
        <time>2023-07-02T11:40:14Z</time>
      </trkpt>
      <trkpt lat="49.81584" lon="2.55">
        <ele>88.6</ele>
        <time>2023-07-02T11:40:15Z</time>
      </trkpt>
      <trkpt lat="49.81585" lon="2.55001">
        <ele>88.5</ele>
        <time>2023-07-02T11:40:16Z</time>
      </trkpt>
      <trkpt lat="49.81585" lon="2.55002">
        <ele>88.5</ele>
        <time>2023-07-02T11:40:17Z</time>
      </trkpt>
      <trkpt lat="49.81586" lon="2.55003">
        <ele>88.5</ele>
        <time>2023-07-02T11:40:19Z</time>
      </trkpt>
      <trkpt lat="49.81587" lon="2.55005">
        <ele>88.5</ele>
        <time>2023-07-02T11:40:20Z</time>
      </trkpt>
      <trkpt lat="49.81588" lon="2.55006">
        <ele>88.5</ele>
        <time>2023-07-02T11:40:21Z</time>
      </trkpt>
      <trkpt lat="49.81589" lon="2.55008">
        <ele>88.4</ele>
        <time>2023-07-02T11:40:22Z</time>
      </trkpt>
      <trkpt lat="49.8159" lon="2.55009">
        <ele>88.4</ele>
        <time>2023-07-02T11:40:23Z</time>
      </trkpt>
      <trkpt lat="49.8159" lon="2.5501">
        <ele>88.4</ele>
        <time>2023-07-02T11:40:24Z</time>
      </trkpt>
      <trkpt lat="49.81592" lon="2.55012">
        <ele>88.4</ele>
        <time>2023-07-02T11:40:25Z</time>
      </trkpt>
      <trkpt lat="49.81593" lon="2.55013">
        <ele>88.3</ele>
        <time>2023-07-02T11:40:27Z</time>
      </trkpt>
      <trkpt lat="49.81593" lon="2.55014">
        <ele>88.3</ele>
        <time>2023-07-02T11:40:28Z</time>
      </trkpt>
      <trkpt lat="49.81594" lon="2.55016">
        <ele>88.3</ele>
        <time>2023-07-02T11:40:29Z</time>
      </trkpt>
      <trkpt lat="49.81595" lon="2.55017">
        <ele>88.2</ele>
        <time>2023-07-02T11:40:30Z</time>
      </trkpt>
      <trkpt lat="49.81596" lon="2.55018">
        <ele>88.2</ele>
        <time>2023-07-02T11:40:31Z</time>
      </trkpt>
      <trkpt lat="49.81596" lon="2.5502">
        <ele>88.2</ele>
        <time>2023-07-02T11:40:32Z</time>
      </trkpt>
      <trkpt lat="49.81597" lon="2.55021">
        <ele>88.1</ele>
        <time>2023-07-02T11:40:34Z</time>
      </trkpt>
      <trkpt lat="49.81597" lon="2.55022">
        <ele>88.1</ele>
        <time>2023-07-02T11:40:35Z</time>
      </trkpt>
      <trkpt lat="49.81599" lon="2.55023">
        <ele>88.1</ele>
        <time>2023-07-02T11:40:36Z</time>
      </trkpt>
      <trkpt lat="49.81599" lon="2.55024">
        <ele>88.1</ele>
        <time>2023-07-02T11:40:37Z</time>
      </trkpt>
      <trkpt lat="49.816" lon="2.55024">
        <ele>88</ele>
        <time>2023-07-02T11:40:38Z</time>
      </trkpt>
      <trkpt lat="49.816" lon="2.55024">
        <ele>88</ele>
        <time>2023-07-02T11:40:39Z</time>
      </trkpt>
      <trkpt lat="49.816" lon="2.55024">
        <ele>88</ele>
        <time>2023-07-02T11:40:41Z</time>
      </trkpt>
      <trkpt lat="49.816" lon="2.55024">
        <ele>88</ele>
        <time>2023-07-02T11:40:42Z</time>
      </trkpt>
      <trkpt lat="49.816" lon="2.55023">
        <ele>88</ele>
        <time>2023-07-02T11:40:44Z</time>
      </trkpt>
      <trkpt lat="49.81601" lon="2.55024">
        <ele>88</ele>
        <time>2023-07-02T11:40:45Z</time>
      </trkpt>
      <trkpt lat="49.81601" lon="2.55024">
        <ele>88</ele>
        <time>2023-07-02T11:40:46Z</time>
      </trkpt>
      <trkpt lat="49.81602" lon="2.55025">
        <ele>88</ele>
        <time>2023-07-02T11:40:47Z</time>
      </trkpt>
      <trkpt lat="49.81602" lon="2.55026">
        <ele>87.9</ele>
        <time>2023-07-02T11:40:49Z</time>
      </trkpt>
      <trkpt lat="49.81603" lon="2.55027">
        <ele>87.9</ele>
        <time>2023-07-02T11:40:50Z</time>
      </trkpt>
      <trkpt lat="49.81603" lon="2.55029">
        <ele>87.9</ele>
        <time>2023-07-02T11:40:51Z</time>
      </trkpt>
      <trkpt lat="49.81603" lon="2.5503">
        <ele>87.8</ele>
        <time>2023-07-02T11:40:52Z</time>
      </trkpt>
      <trkpt lat="49.81604" lon="2.55032">
        <ele>87.8</ele>
        <time>2023-07-02T11:40:53Z</time>
      </trkpt>
      <trkpt lat="49.81604" lon="2.55033">
        <ele>87.8</ele>
        <time>2023-07-02T11:40:54Z</time>
      </trkpt>
      <trkpt lat="49.81605" lon="2.55035">
        <ele>87.8</ele>
        <time>2023-07-02T11:40:56Z</time>
      </trkpt>
      <trkpt lat="49.81605" lon="2.55036">
        <ele>87.7</ele>
        <time>2023-07-02T11:40:57Z</time>
      </trkpt>
      <trkpt lat="49.81606" lon="2.55038">
        <ele>87.7</ele>
        <time>2023-07-02T11:40:58Z</time>
      </trkpt>
      <trkpt lat="49.81606" lon="2.55039">
        <ele>87.7</ele>
        <time>2023-07-02T11:40:59Z</time>
      </trkpt>
      <trkpt lat="49.81607" lon="2.55041">
        <ele>87.7</ele>
        <time>2023-07-02T11:41:00Z</time>
      </trkpt>
      <trkpt lat="49.81608" lon="2.55042">
        <ele>87.6</ele>
        <time>2023-07-02T11:41:02Z</time>
      </trkpt>
      <trkpt lat="49.81609" lon="2.55042">
        <ele>87.6</ele>
        <time>2023-07-02T11:41:03Z</time>
      </trkpt>
      <trkpt lat="49.8161" lon="2.55044">
        <ele>87.6</ele>
        <time>2023-07-02T11:41:04Z</time>
      </trkpt>
      <trkpt lat="49.8161" lon="2.55045">
        <ele>87.6</ele>
        <time>2023-07-02T11:41:05Z</time>
      </trkpt>
      <trkpt lat="49.8161" lon="2.55047">
        <ele>87.6</ele>
        <time>2023-07-02T11:41:06Z</time>
      </trkpt>
      <trkpt lat="49.81609" lon="2.55049">
        <ele>87.7</ele>
        <time>2023-07-02T11:41:07Z</time>
      </trkpt>
      <trkpt lat="49.81609" lon="2.55053">
        <ele>87.7</ele>
        <time>2023-07-02T11:41:09Z</time>
      </trkpt>
      <trkpt lat="49.81609" lon="2.55055">
        <ele>87.7</ele>
        <time>2023-07-02T11:41:11Z</time>
      </trkpt>
      <trkpt lat="49.81609" lon="2.55057">
        <ele>87.8</ele>
        <time>2023-07-02T11:41:12Z</time>
      </trkpt>
      <trkpt lat="49.8161" lon="2.55058">
        <ele>87.8</ele>
        <time>2023-07-02T11:41:13Z</time>
      </trkpt>
      <trkpt lat="49.8161" lon="2.5506">
        <ele>87.8</ele>
        <time>2023-07-02T11:41:14Z</time>
      </trkpt>
      <trkpt lat="49.81611" lon="2.55061">
        <ele>87.8</ele>
        <time>2023-07-02T11:41:15Z</time>
      </trkpt>
      <trkpt lat="49.81611" lon="2.55063">
        <ele>87.9</ele>
        <time>2023-07-02T11:41:16Z</time>
      </trkpt>
      <trkpt lat="49.81611" lon="2.55064">
        <ele>87.9</ele>
        <time>2023-07-02T11:41:18Z</time>
      </trkpt>
      <trkpt lat="49.81611" lon="2.55065">
        <ele>87.9</ele>
        <time>2023-07-02T11:41:19Z</time>
      </trkpt>
      <trkpt lat="49.8161" lon="2.55066">
        <ele>88</ele>
        <time>2023-07-02T11:41:20Z</time>
      </trkpt>
      <trkpt lat="49.8161" lon="2.55068">
        <ele>88</ele>
        <time>2023-07-02T11:41:21Z</time>
      </trkpt>
      <trkpt lat="49.8161" lon="2.5507">
        <ele>88</ele>
        <time>2023-07-02T11:41:22Z</time>
      </trkpt>
      <trkpt lat="49.8161" lon="2.55071">
        <ele>88.1</ele>
        <time>2023-07-02T11:41:23Z</time>
      </trkpt>
      <trkpt lat="49.81609" lon="2.55073">
        <ele>88.1</ele>
        <time>2023-07-02T11:41:25Z</time>
      </trkpt>
      <trkpt lat="49.81609" lon="2.55075">
        <ele>88.2</ele>
        <time>2023-07-02T11:41:26Z</time>
      </trkpt>
      <trkpt lat="49.81608" lon="2.55077">
        <ele>88.2</ele>
        <time>2023-07-02T11:41:27Z</time>
      </trkpt>
      <trkpt lat="49.81608" lon="2.55078">
        <ele>88.3</ele>
        <time>2023-07-02T11:41:28Z</time>
      </trkpt>
      <trkpt lat="49.81608" lon="2.5508">
        <ele>88.3</ele>
        <time>2023-07-02T11:41:29Z</time>
      </trkpt>
      <trkpt lat="49.81608" lon="2.5508">
        <ele>88.3</ele>
        <time>2023-07-02T11:41:30Z</time>
      </trkpt>
      <trkpt lat="49.81607" lon="2.55081">
        <ele>88.3</ele>
        <time>2023-07-02T11:41:32Z</time>
      </trkpt>
      <trkpt lat="49.81607" lon="2.55082">
        <ele>88.4</ele>
        <time>2023-07-02T11:41:33Z</time>
      </trkpt>
      <trkpt lat="49.81606" lon="2.55084">
        <ele>88.4</ele>
        <time>2023-07-02T11:41:34Z</time>
      </trkpt>
      <trkpt lat="49.81606" lon="2.55087">
        <ele>88.5</ele>
        <time>2023-07-02T11:41:35Z</time>
      </trkpt>
      <trkpt lat="49.81606" lon="2.55088">
        <ele>88.5</ele>
        <time>2023-07-02T11:41:36Z</time>
      </trkpt>
      <trkpt lat="49.81606" lon="2.5509">
        <ele>88.6</ele>
        <time>2023-07-02T11:41:37Z</time>
      </trkpt>
      <trkpt lat="49.81606" lon="2.55094">
        <ele>88.7</ele>
        <time>2023-07-02T11:41:39Z</time>
      </trkpt>
      <trkpt lat="49.81606" lon="2.55095">
        <ele>88.7</ele>
        <time>2023-07-02T11:41:40Z</time>
      </trkpt>
      <trkpt lat="49.81606" lon="2.55098">
        <ele>88.8</ele>
        <time>2023-07-02T11:41:41Z</time>
      </trkpt>
      <trkpt lat="49.81606" lon="2.55101">
        <ele>88.8</ele>
        <time>2023-07-02T11:41:42Z</time>
      </trkpt>
      <trkpt lat="49.81606" lon="2.55103">
        <ele>88.9</ele>
        <time>2023-07-02T11:41:43Z</time>
      </trkpt>
      <trkpt lat="49.81606" lon="2.55105">
        <ele>88.9</ele>
        <time>2023-07-02T11:41:44Z</time>
      </trkpt>
      <trkpt lat="49.81606" lon="2.55108">
        <ele>89</ele>
        <time>2023-07-02T11:41:46Z</time>
      </trkpt>
      <trkpt lat="49.81606" lon="2.5511">
        <ele>89</ele>
        <time>2023-07-02T11:41:47Z</time>
      </trkpt>
      <trkpt lat="49.81606" lon="2.55112">
        <ele>89.1</ele>
        <time>2023-07-02T11:41:48Z</time>
      </trkpt>
      <trkpt lat="49.81606" lon="2.55115">
        <ele>89.1</ele>
        <time>2023-07-02T11:41:49Z</time>
      </trkpt>
      <trkpt lat="49.81606" lon="2.55117">
        <ele>89.2</ele>
        <time>2023-07-02T11:41:50Z</time>
      </trkpt>
      <trkpt lat="49.81606" lon="2.55119">
        <ele>89.2</ele>
        <time>2023-07-02T11:41:51Z</time>
      </trkpt>
      <trkpt lat="49.81606" lon="2.55123">
        <ele>89.3</ele>
        <time>2023-07-02T11:41:52Z</time>
      </trkpt>
      <trkpt lat="49.81606" lon="2.55125">
        <ele>89.4</ele>
        <time>2023-07-02T11:41:54Z</time>
      </trkpt>
      <trkpt lat="49.81606" lon="2.55127">
        <ele>89.4</ele>
        <time>2023-07-02T11:41:55Z</time>
      </trkpt>
      <trkpt lat="49.81606" lon="2.55128">
        <ele>89.4</ele>
        <time>2023-07-02T11:41:56Z</time>
      </trkpt>
      <trkpt lat="49.81606" lon="2.5513">
        <ele>89.5</ele>
        <time>2023-07-02T11:41:57Z</time>
      </trkpt>
      <trkpt lat="49.81606" lon="2.55132">
        <ele>89.5</ele>
        <time>2023-07-02T11:41:58Z</time>
      </trkpt>
      <trkpt lat="49.81606" lon="2.55134">
        <ele>89.6</ele>
        <time>2023-07-02T11:41:59Z</time>
      </trkpt>
      <trkpt lat="49.81606" lon="2.55138">
        <ele>89.6</ele>
        <time>2023-07-02T11:42:01Z</time>
      </trkpt>
      <trkpt lat="49.81606" lon="2.55139">
        <ele>89.7</ele>
        <time>2023-07-02T11:42:02Z</time>
      </trkpt>
      <trkpt lat="49.81606" lon="2.5514">
        <ele>89.7</ele>
        <time>2023-07-02T11:42:03Z</time>
      </trkpt>
      <trkpt lat="49.81606" lon="2.55142">
        <ele>89.7</ele>
        <time>2023-07-02T11:42:04Z</time>
      </trkpt>
      <trkpt lat="49.81606" lon="2.55145">
        <ele>89.8</ele>
        <time>2023-07-02T11:42:05Z</time>
      </trkpt>
      <trkpt lat="49.81606" lon="2.55147">
        <ele>89.8</ele>
        <time>2023-07-02T11:42:06Z</time>
      </trkpt>
      <trkpt lat="49.81606" lon="2.55149">
        <ele>89.9</ele>
        <time>2023-07-02T11:42:07Z</time>
      </trkpt>
      <trkpt lat="49.81606" lon="2.55151">
        <ele>89.9</ele>
        <time>2023-07-02T11:42:09Z</time>
      </trkpt>
      <trkpt lat="49.81607" lon="2.55154">
        <ele>90</ele>
        <time>2023-07-02T11:42:10Z</time>
      </trkpt>
      <trkpt lat="49.81607" lon="2.55155">
        <ele>90</ele>
        <time>2023-07-02T11:42:11Z</time>
      </trkpt>
      <trkpt lat="49.81607" lon="2.55157">
        <ele>90.1</ele>
        <time>2023-07-02T11:42:12Z</time>
      </trkpt>
      <trkpt lat="49.81607" lon="2.55159">
        <ele>90.1</ele>
        <time>2023-07-02T11:42:13Z</time>
      </trkpt>
      <trkpt lat="49.81607" lon="2.55161">
        <ele>90.2</ele>
        <time>2023-07-02T11:42:14Z</time>
      </trkpt>
      <trkpt lat="49.81608" lon="2.55164">
        <ele>90.3</ele>
        <time>2023-07-02T11:42:15Z</time>
      </trkpt>
      <trkpt lat="49.81608" lon="2.55165">
        <ele>90.3</ele>
        <time>2023-07-02T11:42:17Z</time>
      </trkpt>
      <trkpt lat="49.81608" lon="2.55167">
        <ele>90.3</ele>
        <time>2023-07-02T11:42:18Z</time>
      </trkpt>
      <trkpt lat="49.81608" lon="2.55169">
        <ele>90.4</ele>
        <time>2023-07-02T11:42:19Z</time>
      </trkpt>
      <trkpt lat="49.81609" lon="2.55171">
        <ele>90.4</ele>
        <time>2023-07-02T11:42:20Z</time>
      </trkpt>
      <trkpt lat="49.81609" lon="2.55172">
        <ele>90.5</ele>
        <time>2023-07-02T11:42:21Z</time>
      </trkpt>
      <trkpt lat="49.81609" lon="2.55174">
        <ele>90.5</ele>
        <time>2023-07-02T11:42:22Z</time>
      </trkpt>
      <trkpt lat="49.8161" lon="2.55176">
        <ele>90.6</ele>
        <time>2023-07-02T11:42:23Z</time>
      </trkpt>
      <trkpt lat="49.8161" lon="2.55178">
        <ele>90.6</ele>
        <time>2023-07-02T11:42:25Z</time>
      </trkpt>
      <trkpt lat="49.8161" lon="2.5518">
        <ele>90.6</ele>
        <time>2023-07-02T11:42:26Z</time>
      </trkpt>
      <trkpt lat="49.8161" lon="2.55181">
        <ele>90.7</ele>
        <time>2023-07-02T11:42:27Z</time>
      </trkpt>
      <trkpt lat="49.81611" lon="2.55183">
        <ele>90.7</ele>
        <time>2023-07-02T11:42:28Z</time>
      </trkpt>
      <trkpt lat="49.81611" lon="2.55185">
        <ele>90.7</ele>
        <time>2023-07-02T11:42:29Z</time>
      </trkpt>
      <trkpt lat="49.81611" lon="2.55187">
        <ele>90.8</ele>
        <time>2023-07-02T11:42:30Z</time>
      </trkpt>
      <trkpt lat="49.81611" lon="2.55189">
        <ele>90.8</ele>
        <time>2023-07-02T11:42:31Z</time>
      </trkpt>
      <trkpt lat="49.81611" lon="2.5519">
        <ele>90.8</ele>
        <time>2023-07-02T11:42:33Z</time>
      </trkpt>
      <trkpt lat="49.81612" lon="2.55192">
        <ele>90.8</ele>
        <time>2023-07-02T11:42:34Z</time>
      </trkpt>
      <trkpt lat="49.81612" lon="2.55194">
        <ele>90.9</ele>
        <time>2023-07-02T11:42:35Z</time>
      </trkpt>
      <trkpt lat="49.81612" lon="2.55197">
        <ele>90.9</ele>
        <time>2023-07-02T11:42:36Z</time>
      </trkpt>
      <trkpt lat="49.81613" lon="2.55198">
        <ele>90.9</ele>
        <time>2023-07-02T11:42:37Z</time>
      </trkpt>
      <trkpt lat="49.81613" lon="2.55199">
        <ele>91</ele>
        <time>2023-07-02T11:42:38Z</time>
      </trkpt>
      <trkpt lat="49.81613" lon="2.55201">
        <ele>91</ele>
        <time>2023-07-02T11:42:39Z</time>
      </trkpt>
      <trkpt lat="49.81613" lon="2.55203">
        <ele>91</ele>
        <time>2023-07-02T11:42:41Z</time>
      </trkpt>
      <trkpt lat="49.81613" lon="2.55204">
        <ele>91.1</ele>
        <time>2023-07-02T11:42:42Z</time>
      </trkpt>
      <trkpt lat="49.81614" lon="2.55206">
        <ele>91.1</ele>
        <time>2023-07-02T11:42:43Z</time>
      </trkpt>
      <trkpt lat="49.81614" lon="2.55208">
        <ele>91.1</ele>
        <time>2023-07-02T11:42:44Z</time>
      </trkpt>
      <trkpt lat="49.81614" lon="2.55209">
        <ele>91.2</ele>
        <time>2023-07-02T11:42:45Z</time>
      </trkpt>
      <trkpt lat="49.81615" lon="2.55211">
        <ele>91.2</ele>
        <time>2023-07-02T11:42:46Z</time>
      </trkpt>
      <trkpt lat="49.81615" lon="2.55213">
        <ele>91.2</ele>
        <time>2023-07-02T11:42:48Z</time>
      </trkpt>
      <trkpt lat="49.81616" lon="2.55214">
        <ele>91.3</ele>
        <time>2023-07-02T11:42:49Z</time>
      </trkpt>
      <trkpt lat="49.81616" lon="2.55217">
        <ele>91.3</ele>
        <time>2023-07-02T11:42:50Z</time>
      </trkpt>
      <trkpt lat="49.81616" lon="2.55218">
        <ele>91.3</ele>
        <time>2023-07-02T11:42:51Z</time>
      </trkpt>
      <trkpt lat="49.81616" lon="2.5522">
        <ele>91.4</ele>
        <time>2023-07-02T11:42:52Z</time>
      </trkpt>
      <trkpt lat="49.81617" lon="2.55223">
        <ele>91.4</ele>
        <time>2023-07-02T11:42:53Z</time>
      </trkpt>
      <trkpt lat="49.81617" lon="2.55224">
        <ele>91.5</ele>
        <time>2023-07-02T11:42:54Z</time>
      </trkpt>
      <trkpt lat="49.81617" lon="2.55226">
        <ele>91.5</ele>
        <time>2023-07-02T11:42:55Z</time>
      </trkpt>
      <trkpt lat="49.81617" lon="2.55228">
        <ele>91.5</ele>
        <time>2023-07-02T11:42:57Z</time>
      </trkpt>
      <trkpt lat="49.81617" lon="2.55231">
        <ele>91.6</ele>
        <time>2023-07-02T11:42:59Z</time>
      </trkpt>
      <trkpt lat="49.81618" lon="2.55232">
        <ele>91.6</ele>
        <time>2023-07-02T11:43:00Z</time>
      </trkpt>
      <trkpt lat="49.81618" lon="2.55236">
        <ele>91.6</ele>
        <time>2023-07-02T11:43:01Z</time>
      </trkpt>
      <trkpt lat="49.81618" lon="2.55239">
        <ele>91.7</ele>
        <time>2023-07-02T11:43:03Z</time>
      </trkpt>
      <trkpt lat="49.81618" lon="2.55241">
        <ele>91.7</ele>
        <time>2023-07-02T11:43:04Z</time>
      </trkpt>
      <trkpt lat="49.81618" lon="2.55243">
        <ele>91.8</ele>
        <time>2023-07-02T11:43:05Z</time>
      </trkpt>
      <trkpt lat="49.81618" lon="2.55244">
        <ele>91.8</ele>
        <time>2023-07-02T11:43:06Z</time>
      </trkpt>
      <trkpt lat="49.81619" lon="2.55246">
        <ele>91.8</ele>
        <time>2023-07-02T11:43:07Z</time>
      </trkpt>
      <trkpt lat="49.81619" lon="2.55248">
        <ele>91.8</ele>
        <time>2023-07-02T11:43:09Z</time>
      </trkpt>
      <trkpt lat="49.81619" lon="2.55251">
        <ele>91.9</ele>
        <time>2023-07-02T11:43:10Z</time>
      </trkpt>
      <trkpt lat="49.81619" lon="2.55254">
        <ele>91.9</ele>
        <time>2023-07-02T11:43:11Z</time>
      </trkpt>
      <trkpt lat="49.81619" lon="2.55255">
        <ele>92</ele>
        <time>2023-07-02T11:43:12Z</time>
      </trkpt>
      <trkpt lat="49.81619" lon="2.55256">
        <ele>92</ele>
        <time>2023-07-02T11:43:13Z</time>
      </trkpt>
      <trkpt lat="49.8162" lon="2.55258">
        <ele>92</ele>
        <time>2023-07-02T11:43:14Z</time>
      </trkpt>
      <trkpt lat="49.8162" lon="2.55259">
        <ele>92</ele>
        <time>2023-07-02T11:43:15Z</time>
      </trkpt>
      <trkpt lat="49.8162" lon="2.55261">
        <ele>92.1</ele>
        <time>2023-07-02T11:43:16Z</time>
      </trkpt>
      <trkpt lat="49.81621" lon="2.55264">
        <ele>92.1</ele>
        <time>2023-07-02T11:43:18Z</time>
      </trkpt>
      <trkpt lat="49.81621" lon="2.55265">
        <ele>92.1</ele>
        <time>2023-07-02T11:43:19Z</time>
      </trkpt>
      <trkpt lat="49.81621" lon="2.55267">
        <ele>92.2</ele>
        <time>2023-07-02T11:43:20Z</time>
      </trkpt>
      <trkpt lat="49.81622" lon="2.5527">
        <ele>92.2</ele>
        <time>2023-07-02T11:43:21Z</time>
      </trkpt>
      <trkpt lat="49.81622" lon="2.55271">
        <ele>92.2</ele>
        <time>2023-07-02T11:43:22Z</time>
      </trkpt>
      <trkpt lat="49.81622" lon="2.55272">
        <ele>92.3</ele>
        <time>2023-07-02T11:43:23Z</time>
      </trkpt>
      <trkpt lat="49.81623" lon="2.55275">
        <ele>92.3</ele>
        <time>2023-07-02T11:43:24Z</time>
      </trkpt>
      <trkpt lat="49.81623" lon="2.55277">
        <ele>92.3</ele>
        <time>2023-07-02T11:43:26Z</time>
      </trkpt>
      <trkpt lat="49.81623" lon="2.55278">
        <ele>92.4</ele>
        <time>2023-07-02T11:43:27Z</time>
      </trkpt>
      <trkpt lat="49.81623" lon="2.5528">
        <ele>92.4</ele>
        <time>2023-07-02T11:43:28Z</time>
      </trkpt>
      <trkpt lat="49.81624" lon="2.55281">
        <ele>92.4</ele>
        <time>2023-07-02T11:43:29Z</time>
      </trkpt>
      <trkpt lat="49.81624" lon="2.55283">
        <ele>92.4</ele>
        <time>2023-07-02T11:43:30Z</time>
      </trkpt>
      <trkpt lat="49.81624" lon="2.55284">
        <ele>92.5</ele>
        <time>2023-07-02T11:43:31Z</time>
      </trkpt>
      <trkpt lat="49.81625" lon="2.55286">
        <ele>92.5</ele>
        <time>2023-07-02T11:43:32Z</time>
      </trkpt>
      <trkpt lat="49.81625" lon="2.55288">
        <ele>92.5</ele>
        <time>2023-07-02T11:43:34Z</time>
      </trkpt>
      <trkpt lat="49.81625" lon="2.5529">
        <ele>92.5</ele>
        <time>2023-07-02T11:43:35Z</time>
      </trkpt>
      <trkpt lat="49.81626" lon="2.55292">
        <ele>92.5</ele>
        <time>2023-07-02T11:43:36Z</time>
      </trkpt>
      <trkpt lat="49.81626" lon="2.55293">
        <ele>92.6</ele>
        <time>2023-07-02T11:43:37Z</time>
      </trkpt>
      <trkpt lat="49.81626" lon="2.55295">
        <ele>92.6</ele>
        <time>2023-07-02T11:43:38Z</time>
      </trkpt>
      <trkpt lat="49.81626" lon="2.55296">
        <ele>92.6</ele>
        <time>2023-07-02T11:43:39Z</time>
      </trkpt>
      <trkpt lat="49.81627" lon="2.55298">
        <ele>92.6</ele>
        <time>2023-07-02T11:43:40Z</time>
      </trkpt>
      <trkpt lat="49.81627" lon="2.55301">
        <ele>92.6</ele>
        <time>2023-07-02T11:43:42Z</time>
      </trkpt>
      <trkpt lat="49.81627" lon="2.55302">
        <ele>92.6</ele>
        <time>2023-07-02T11:43:43Z</time>
      </trkpt>
      <trkpt lat="49.81627" lon="2.55304">
        <ele>92.6</ele>
        <time>2023-07-02T11:43:44Z</time>
      </trkpt>
      <trkpt lat="49.81628" lon="2.55305">
        <ele>92.6</ele>
        <time>2023-07-02T11:43:45Z</time>
      </trkpt>
      <trkpt lat="49.81628" lon="2.55307">
        <ele>92.7</ele>
        <time>2023-07-02T11:43:46Z</time>
      </trkpt>
      <trkpt lat="49.81628" lon="2.55308">
        <ele>92.7</ele>
        <time>2023-07-02T11:43:47Z</time>
      </trkpt>
      <trkpt lat="49.81628" lon="2.5531">
        <ele>92.7</ele>
        <time>2023-07-02T11:43:48Z</time>
      </trkpt>
      <trkpt lat="49.81629" lon="2.55312">
        <ele>92.7</ele>
        <time>2023-07-02T11:43:50Z</time>
      </trkpt>
      <trkpt lat="49.81629" lon="2.55314">
        <ele>92.7</ele>
        <time>2023-07-02T11:43:51Z</time>
      </trkpt>
      <trkpt lat="49.81629" lon="2.55315">
        <ele>92.7</ele>
        <time>2023-07-02T11:43:52Z</time>
      </trkpt>
      <trkpt lat="49.8163" lon="2.55317">
        <ele>92.7</ele>
        <time>2023-07-02T11:43:53Z</time>
      </trkpt>
      <trkpt lat="49.8163" lon="2.55319">
        <ele>92.7</ele>
        <time>2023-07-02T11:43:54Z</time>
      </trkpt>
      <trkpt lat="49.8163" lon="2.55322">
        <ele>92.7</ele>
        <time>2023-07-02T11:43:56Z</time>
      </trkpt>
      <trkpt lat="49.81631" lon="2.55324">
        <ele>92.7</ele>
        <time>2023-07-02T11:43:57Z</time>
      </trkpt>
      <trkpt lat="49.81631" lon="2.55326">
        <ele>92.8</ele>
        <time>2023-07-02T11:43:58Z</time>
      </trkpt>
      <trkpt lat="49.81631" lon="2.55328">
        <ele>92.8</ele>
        <time>2023-07-02T11:43:59Z</time>
      </trkpt>
      <trkpt lat="49.81632" lon="2.55329">
        <ele>92.8</ele>
        <time>2023-07-02T11:44:01Z</time>
      </trkpt>
      <trkpt lat="49.81632" lon="2.55331">
        <ele>92.8</ele>
        <time>2023-07-02T11:44:02Z</time>
      </trkpt>
      <trkpt lat="49.81632" lon="2.55333">
        <ele>92.8</ele>
        <time>2023-07-02T11:44:03Z</time>
      </trkpt>
      <trkpt lat="49.81632" lon="2.55335">
        <ele>92.8</ele>
        <time>2023-07-02T11:44:04Z</time>
      </trkpt>
      <trkpt lat="49.81632" lon="2.55338">
        <ele>92.8</ele>
        <time>2023-07-02T11:44:05Z</time>
      </trkpt>
      <trkpt lat="49.81633" lon="2.55339">
        <ele>92.8</ele>
        <time>2023-07-02T11:44:06Z</time>
      </trkpt>
      <trkpt lat="49.81633" lon="2.55341">
        <ele>92.8</ele>
        <time>2023-07-02T11:44:07Z</time>
      </trkpt>
      <trkpt lat="49.81633" lon="2.55342">
        <ele>92.8</ele>
        <time>2023-07-02T11:44:09Z</time>
      </trkpt>
      <trkpt lat="49.81633" lon="2.55344">
        <ele>92.9</ele>
        <time>2023-07-02T11:44:10Z</time>
      </trkpt>
      <trkpt lat="49.81634" lon="2.55346">
        <ele>92.9</ele>
        <time>2023-07-02T11:44:11Z</time>
      </trkpt>
      <trkpt lat="49.81634" lon="2.55349">
        <ele>92.9</ele>
        <time>2023-07-02T11:44:12Z</time>
      </trkpt>
      <trkpt lat="49.81634" lon="2.5535">
        <ele>92.9</ele>
        <time>2023-07-02T11:44:13Z</time>
      </trkpt>
      <trkpt lat="49.81635" lon="2.55351">
        <ele>92.9</ele>
        <time>2023-07-02T11:44:14Z</time>
      </trkpt>
      <trkpt lat="49.81635" lon="2.55354">
        <ele>92.9</ele>
        <time>2023-07-02T11:44:16Z</time>
      </trkpt>
      <trkpt lat="49.81636" lon="2.55356">
        <ele>92.9</ele>
        <time>2023-07-02T11:44:17Z</time>
      </trkpt>
      <trkpt lat="49.81636" lon="2.55357">
        <ele>92.9</ele>
        <time>2023-07-02T11:44:18Z</time>
      </trkpt>
      <trkpt lat="49.81637" lon="2.55359">
        <ele>92.9</ele>
        <time>2023-07-02T11:44:19Z</time>
      </trkpt>
      <trkpt lat="49.81637" lon="2.55361">
        <ele>92.9</ele>
        <time>2023-07-02T11:44:20Z</time>
      </trkpt>
      <trkpt lat="49.81637" lon="2.55362">
        <ele>92.9</ele>
        <time>2023-07-02T11:44:21Z</time>
      </trkpt>
      <trkpt lat="49.81637" lon="2.55365">
        <ele>92.9</ele>
        <time>2023-07-02T11:44:22Z</time>
      </trkpt>
      <trkpt lat="49.81638" lon="2.55366">
        <ele>92.9</ele>
        <time>2023-07-02T11:44:24Z</time>
      </trkpt>
      <trkpt lat="49.81638" lon="2.55368">
        <ele>92.9</ele>
        <time>2023-07-02T11:44:25Z</time>
      </trkpt>
      <trkpt lat="49.81638" lon="2.55369">
        <ele>92.9</ele>
        <time>2023-07-02T11:44:26Z</time>
      </trkpt>
      <trkpt lat="49.81638" lon="2.55371">
        <ele>92.9</ele>
        <time>2023-07-02T11:44:27Z</time>
      </trkpt>
      <trkpt lat="49.81639" lon="2.55373">
        <ele>92.9</ele>
        <time>2023-07-02T11:44:28Z</time>
      </trkpt>
      <trkpt lat="49.81639" lon="2.55376">
        <ele>92.8</ele>
        <time>2023-07-02T11:44:29Z</time>
      </trkpt>
      <trkpt lat="49.8164" lon="2.55377">
        <ele>92.8</ele>
        <time>2023-07-02T11:44:30Z</time>
      </trkpt>
      <trkpt lat="49.8164" lon="2.55379">
        <ele>92.8</ele>
        <time>2023-07-02T11:44:32Z</time>
      </trkpt>
      <trkpt lat="49.8164" lon="2.5538">
        <ele>92.8</ele>
        <time>2023-07-02T11:44:33Z</time>
      </trkpt>
      <trkpt lat="49.81641" lon="2.55382">
        <ele>92.8</ele>
        <time>2023-07-02T11:44:34Z</time>
      </trkpt>
      <trkpt lat="49.81641" lon="2.55383">
        <ele>92.8</ele>
        <time>2023-07-02T11:44:35Z</time>
      </trkpt>
      <trkpt lat="49.81641" lon="2.55386">
        <ele>92.8</ele>
        <time>2023-07-02T11:44:36Z</time>
      </trkpt>
      <trkpt lat="49.81641" lon="2.55388">
        <ele>92.8</ele>
        <time>2023-07-02T11:44:38Z</time>
      </trkpt>
      <trkpt lat="49.81642" lon="2.55389">
        <ele>92.8</ele>
        <time>2023-07-02T11:44:39Z</time>
      </trkpt>
      <trkpt lat="49.81642" lon="2.55391">
        <ele>92.8</ele>
        <time>2023-07-02T11:44:40Z</time>
      </trkpt>
      <trkpt lat="49.81642" lon="2.55392">
        <ele>92.7</ele>
        <time>2023-07-02T11:44:41Z</time>
      </trkpt>
      <trkpt lat="49.81642" lon="2.55394">
        <ele>92.7</ele>
        <time>2023-07-02T11:44:42Z</time>
      </trkpt>
      <trkpt lat="49.81643" lon="2.55397">
        <ele>92.7</ele>
        <time>2023-07-02T11:44:44Z</time>
      </trkpt>
      <trkpt lat="49.81644" lon="2.55398">
        <ele>92.7</ele>
        <time>2023-07-02T11:44:46Z</time>
      </trkpt>
      <trkpt lat="49.81644" lon="2.554">
        <ele>92.7</ele>
        <time>2023-07-02T11:44:47Z</time>
      </trkpt>
      <trkpt lat="49.81645" lon="2.55401">
        <ele>92.7</ele>
        <time>2023-07-02T11:44:48Z</time>
      </trkpt>
      <trkpt lat="49.81645" lon="2.55403">
        <ele>92.7</ele>
        <time>2023-07-02T11:44:49Z</time>
      </trkpt>
      <trkpt lat="49.81645" lon="2.55404">
        <ele>92.7</ele>
        <time>2023-07-02T11:44:50Z</time>
      </trkpt>
      <trkpt lat="49.81646" lon="2.55405">
        <ele>92.7</ele>
        <time>2023-07-02T11:44:52Z</time>
      </trkpt>
      <trkpt lat="49.81647" lon="2.55407">
        <ele>92.7</ele>
        <time>2023-07-02T11:44:53Z</time>
      </trkpt>
      <trkpt lat="49.81647" lon="2.55409">
        <ele>92.7</ele>
        <time>2023-07-02T11:44:54Z</time>
      </trkpt>
      <trkpt lat="49.81648" lon="2.55411">
        <ele>92.6</ele>
        <time>2023-07-02T11:44:55Z</time>
      </trkpt>
      <trkpt lat="49.81648" lon="2.55413">
        <ele>92.6</ele>
        <time>2023-07-02T11:44:56Z</time>
      </trkpt>
      <trkpt lat="49.81649" lon="2.55415">
        <ele>92.6</ele>
        <time>2023-07-02T11:44:57Z</time>
      </trkpt>
      <trkpt lat="49.81649" lon="2.55416">
        <ele>92.6</ele>
        <time>2023-07-02T11:44:59Z</time>
      </trkpt>
      <trkpt lat="49.8165" lon="2.55419">
        <ele>92.6</ele>
        <time>2023-07-02T11:45:00Z</time>
      </trkpt>
      <trkpt lat="49.8165" lon="2.5542">
        <ele>92.6</ele>
        <time>2023-07-02T11:45:02Z</time>
      </trkpt>
      <trkpt lat="49.81651" lon="2.55422">
        <ele>92.6</ele>
        <time>2023-07-02T11:45:03Z</time>
      </trkpt>
      <trkpt lat="49.81651" lon="2.55423">
        <ele>92.6</ele>
        <time>2023-07-02T11:45:04Z</time>
      </trkpt>
      <trkpt lat="49.81651" lon="2.55425">
        <ele>92.5</ele>
        <time>2023-07-02T11:45:06Z</time>
      </trkpt>
      <trkpt lat="49.81651" lon="2.55425">
        <ele>92.5</ele>
        <time>2023-07-02T11:45:08Z</time>
      </trkpt>
      <trkpt lat="49.8165" lon="2.55426">
        <ele>92.5</ele>
        <time>2023-07-02T11:45:09Z</time>
      </trkpt>
      <trkpt lat="49.8165" lon="2.55425">
        <ele>92.5</ele>
        <time>2023-07-02T11:45:10Z</time>
      </trkpt>
      <trkpt lat="49.8165" lon="2.55425">
        <ele>92.5</ele>
        <time>2023-07-02T11:45:12Z</time>
      </trkpt>
      <trkpt lat="49.81651" lon="2.55425">
        <ele>92.5</ele>
        <time>2023-07-02T11:45:13Z</time>
      </trkpt>
      <trkpt lat="49.81651" lon="2.55425">
        <ele>92.5</ele>
        <time>2023-07-02T11:45:15Z</time>
      </trkpt>
      <trkpt lat="49.81651" lon="2.55425">
        <ele>92.5</ele>
        <time>2023-07-02T11:45:16Z</time>
      </trkpt>
      <trkpt lat="49.81651" lon="2.55425">
        <ele>92.5</ele>
        <time>2023-07-02T11:45:18Z</time>
      </trkpt>
      <trkpt lat="49.81651" lon="2.55425">
        <ele>92.5</ele>
        <time>2023-07-02T11:45:19Z</time>
      </trkpt>
      <trkpt lat="49.81651" lon="2.55425">
        <ele>92.5</ele>
        <time>2023-07-02T11:45:20Z</time>
      </trkpt>
      <trkpt lat="49.81651" lon="2.55424">
        <ele>92.5</ele>
        <time>2023-07-02T11:45:21Z</time>
      </trkpt>
      <trkpt lat="49.81651" lon="2.55424">
        <ele>92.5</ele>
        <time>2023-07-02T11:45:22Z</time>
      </trkpt>
      <trkpt lat="49.81651" lon="2.55424">
        <ele>92.5</ele>
        <time>2023-07-02T11:45:23Z</time>
      </trkpt>
      <trkpt lat="49.81651" lon="2.55424">
        <ele>92.5</ele>
        <time>2023-07-02T11:45:24Z</time>
      </trkpt>
      <trkpt lat="49.81651" lon="2.55423">
        <ele>92.5</ele>
        <time>2023-07-02T11:45:25Z</time>
      </trkpt>
      <trkpt lat="49.81651" lon="2.55423">
        <ele>92.5</ele>
        <time>2023-07-02T11:45:26Z</time>
      </trkpt>
      <trkpt lat="49.81651" lon="2.55423">
        <ele>92.5</ele>
        <time>2023-07-02T11:45:27Z</time>
      </trkpt>
      <trkpt lat="49.81651" lon="2.55423">
        <ele>92.5</ele>
        <time>2023-07-02T11:45:28Z</time>
      </trkpt>
      <trkpt lat="49.81651" lon="2.55423">
        <ele>92.5</ele>
        <time>2023-07-02T11:45:29Z</time>
      </trkpt>
      <trkpt lat="49.81651" lon="2.55423">
        <ele>92.5</ele>
        <time>2023-07-02T11:45:30Z</time>
      </trkpt>
      <trkpt lat="49.81651" lon="2.55423">
        <ele>92.5</ele>
        <time>2023-07-02T11:45:31Z</time>
      </trkpt>
      <trkpt lat="49.8165" lon="2.55421">
        <ele>92.5</ele>
        <time>2023-07-02T11:45:32Z</time>
      </trkpt>
      <trkpt lat="49.8165" lon="2.5542">
        <ele>92.5</ele>
        <time>2023-07-02T11:45:33Z</time>
      </trkpt>
      <trkpt lat="49.8165" lon="2.55419">
        <ele>92.5</ele>
        <time>2023-07-02T11:45:34Z</time>
      </trkpt>
      <trkpt lat="49.81649" lon="2.55419">
        <ele>92.5</ele>
        <time>2023-07-02T11:45:35Z</time>
      </trkpt>
      <trkpt lat="49.81649" lon="2.5542">
        <ele>92.5</ele>
        <time>2023-07-02T11:45:36Z</time>
      </trkpt>
      <trkpt lat="49.81649" lon="2.5542">
        <ele>92.5</ele>
        <time>2023-07-02T11:45:37Z</time>
      </trkpt>
      <trkpt lat="49.81648" lon="2.5542">
        <ele>92.5</ele>
        <time>2023-07-02T11:45:39Z</time>
      </trkpt>
      <trkpt lat="49.81647" lon="2.5542">
        <ele>92.5</ele>
        <time>2023-07-02T11:45:40Z</time>
      </trkpt>
      <trkpt lat="49.81646" lon="2.55422">
        <ele>92.5</ele>
        <time>2023-07-02T11:45:41Z</time>
      </trkpt>
      <trkpt lat="49.81645" lon="2.55425">
        <ele>92.5</ele>
        <time>2023-07-02T11:45:42Z</time>
      </trkpt>
      <trkpt lat="49.81645" lon="2.55428">
        <ele>92.5</ele>
        <time>2023-07-02T11:45:43Z</time>
      </trkpt>
      <trkpt lat="49.81645" lon="2.5543">
        <ele>92.5</ele>
        <time>2023-07-02T11:45:44Z</time>
      </trkpt>
      <trkpt lat="49.81645" lon="2.55432">
        <ele>92.5</ele>
        <time>2023-07-02T11:45:45Z</time>
      </trkpt>
      <trkpt lat="49.81645" lon="2.55434">
        <ele>92.5</ele>
        <time>2023-07-02T11:45:47Z</time>
      </trkpt>
      <trkpt lat="49.81645" lon="2.55437">
        <ele>92.5</ele>
        <time>2023-07-02T11:45:48Z</time>
      </trkpt>
      <trkpt lat="49.81645" lon="2.55438">
        <ele>92.6</ele>
        <time>2023-07-02T11:45:49Z</time>
      </trkpt>
      <trkpt lat="49.81645" lon="2.55441">
        <ele>92.6</ele>
        <time>2023-07-02T11:45:51Z</time>
      </trkpt>
      <trkpt lat="49.81645" lon="2.55443">
        <ele>92.6</ele>
        <time>2023-07-02T11:45:52Z</time>
      </trkpt>
      <trkpt lat="49.81645" lon="2.55445">
        <ele>92.6</ele>
        <time>2023-07-02T11:45:53Z</time>
      </trkpt>
      <trkpt lat="49.81645" lon="2.55447">
        <ele>92.6</ele>
        <time>2023-07-02T11:45:54Z</time>
      </trkpt>
      <trkpt lat="49.81645" lon="2.55448">
        <ele>92.6</ele>
        <time>2023-07-02T11:45:55Z</time>
      </trkpt>
      <trkpt lat="49.81645" lon="2.5545">
        <ele>92.6</ele>
        <time>2023-07-02T11:45:56Z</time>
      </trkpt>
      <trkpt lat="49.81645" lon="2.55453">
        <ele>92.6</ele>
        <time>2023-07-02T11:45:58Z</time>
      </trkpt>
      <trkpt lat="49.81645" lon="2.55455">
        <ele>92.6</ele>
        <time>2023-07-02T11:45:59Z</time>
      </trkpt>
      <trkpt lat="49.81645" lon="2.55456">
        <ele>92.6</ele>
        <time>2023-07-02T11:46:00Z</time>
      </trkpt>
      <trkpt lat="49.81644" lon="2.55458">
        <ele>92.6</ele>
        <time>2023-07-02T11:46:01Z</time>
      </trkpt>
      <trkpt lat="49.81644" lon="2.55461">
        <ele>92.6</ele>
        <time>2023-07-02T11:46:02Z</time>
      </trkpt>
      <trkpt lat="49.81643" lon="2.55463">
        <ele>92.6</ele>
        <time>2023-07-02T11:46:03Z</time>
      </trkpt>
      <trkpt lat="49.81643" lon="2.55466">
        <ele>92.6</ele>
        <time>2023-07-02T11:46:05Z</time>
      </trkpt>
      <trkpt lat="49.81642" lon="2.55468">
        <ele>92.6</ele>
        <time>2023-07-02T11:46:06Z</time>
      </trkpt>
      <trkpt lat="49.81641" lon="2.5547">
        <ele>92.7</ele>
        <time>2023-07-02T11:46:07Z</time>
      </trkpt>
      <trkpt lat="49.81641" lon="2.55472">
        <ele>92.7</ele>
        <time>2023-07-02T11:46:08Z</time>
      </trkpt>
      <trkpt lat="49.81641" lon="2.55475">
        <ele>92.7</ele>
        <time>2023-07-02T11:46:09Z</time>
      </trkpt>
      <trkpt lat="49.81641" lon="2.55479">
        <ele>92.7</ele>
        <time>2023-07-02T11:46:11Z</time>
      </trkpt>
      <trkpt lat="49.8164" lon="2.55481">
        <ele>92.7</ele>
        <time>2023-07-02T11:46:12Z</time>
      </trkpt>
      <trkpt lat="49.8164" lon="2.55484">
        <ele>92.7</ele>
        <time>2023-07-02T11:46:13Z</time>
      </trkpt>
      <trkpt lat="49.8164" lon="2.55485">
        <ele>92.7</ele>
        <time>2023-07-02T11:46:14Z</time>
      </trkpt>
      <trkpt lat="49.8164" lon="2.55487">
        <ele>92.7</ele>
        <time>2023-07-02T11:46:15Z</time>
      </trkpt>
      <trkpt lat="49.8164" lon="2.55489">
        <ele>92.7</ele>
        <time>2023-07-02T11:46:17Z</time>
      </trkpt>
      <trkpt lat="49.8164" lon="2.55491">
        <ele>92.8</ele>
        <time>2023-07-02T11:46:18Z</time>
      </trkpt>
      <trkpt lat="49.81639" lon="2.55493">
        <ele>92.8</ele>
        <time>2023-07-02T11:46:19Z</time>
      </trkpt>
      <trkpt lat="49.81639" lon="2.55495">
        <ele>92.8</ele>
        <time>2023-07-02T11:46:20Z</time>
      </trkpt>
      <trkpt lat="49.81639" lon="2.55497">
        <ele>92.8</ele>
        <time>2023-07-02T11:46:21Z</time>
      </trkpt>
      <trkpt lat="49.81639" lon="2.55499">
        <ele>92.8</ele>
        <time>2023-07-02T11:46:22Z</time>
      </trkpt>
      <trkpt lat="49.81638" lon="2.555">
        <ele>92.8</ele>
        <time>2023-07-02T11:46:23Z</time>
      </trkpt>
      <trkpt lat="49.81638" lon="2.55504">
        <ele>92.9</ele>
        <time>2023-07-02T11:46:25Z</time>
      </trkpt>
      <trkpt lat="49.81638" lon="2.55505">
        <ele>92.9</ele>
        <time>2023-07-02T11:46:26Z</time>
      </trkpt>
      <trkpt lat="49.81637" lon="2.55506">
        <ele>92.9</ele>
        <time>2023-07-02T11:46:27Z</time>
      </trkpt>
      <trkpt lat="49.81637" lon="2.55508">
        <ele>92.9</ele>
        <time>2023-07-02T11:46:28Z</time>
      </trkpt>
      <trkpt lat="49.81637" lon="2.5551">
        <ele>92.9</ele>
        <time>2023-07-02T11:46:29Z</time>
      </trkpt>
      <trkpt lat="49.81637" lon="2.55511">
        <ele>92.9</ele>
        <time>2023-07-02T11:46:30Z</time>
      </trkpt>
      <trkpt lat="49.81636" lon="2.55514">
        <ele>93</ele>
        <time>2023-07-02T11:46:32Z</time>
      </trkpt>
      <trkpt lat="49.81636" lon="2.55516">
        <ele>93</ele>
        <time>2023-07-02T11:46:33Z</time>
      </trkpt>
      <trkpt lat="49.81636" lon="2.55518">
        <ele>93</ele>
        <time>2023-07-02T11:46:34Z</time>
      </trkpt>
      <trkpt lat="49.81635" lon="2.55519">
        <ele>93</ele>
        <time>2023-07-02T11:46:35Z</time>
      </trkpt>
      <trkpt lat="49.81635" lon="2.55522">
        <ele>93.1</ele>
        <time>2023-07-02T11:46:37Z</time>
      </trkpt>
      <trkpt lat="49.81635" lon="2.55525">
        <ele>93.1</ele>
        <time>2023-07-02T11:46:38Z</time>
      </trkpt>
      <trkpt lat="49.81635" lon="2.55526">
        <ele>93.1</ele>
        <time>2023-07-02T11:46:39Z</time>
      </trkpt>
      <trkpt lat="49.81634" lon="2.55527">
        <ele>93.1</ele>
        <time>2023-07-02T11:46:40Z</time>
      </trkpt>
      <trkpt lat="49.81634" lon="2.5553">
        <ele>93.1</ele>
        <time>2023-07-02T11:46:41Z</time>
      </trkpt>
      <trkpt lat="49.81633" lon="2.55531">
        <ele>93.1</ele>
        <time>2023-07-02T11:46:42Z</time>
      </trkpt>
      <trkpt lat="49.81633" lon="2.55533">
        <ele>93.1</ele>
        <time>2023-07-02T11:46:43Z</time>
      </trkpt>
      <trkpt lat="49.81633" lon="2.55535">
        <ele>93.2</ele>
        <time>2023-07-02T11:46:45Z</time>
      </trkpt>
      <trkpt lat="49.81632" lon="2.55537">
        <ele>93.2</ele>
        <time>2023-07-02T11:46:46Z</time>
      </trkpt>
      <trkpt lat="49.81632" lon="2.55539">
        <ele>93.2</ele>
        <time>2023-07-02T11:46:47Z</time>
      </trkpt>
      <trkpt lat="49.81632" lon="2.55541">
        <ele>93.2</ele>
        <time>2023-07-02T11:46:48Z</time>
      </trkpt>
      <trkpt lat="49.81632" lon="2.55543">
        <ele>93.2</ele>
        <time>2023-07-02T11:46:50Z</time>
      </trkpt>
      <trkpt lat="49.81631" lon="2.55545">
        <ele>93.2</ele>
        <time>2023-07-02T11:46:51Z</time>
      </trkpt>
      <trkpt lat="49.81631" lon="2.55547">
        <ele>93.2</ele>
        <time>2023-07-02T11:46:52Z</time>
      </trkpt>
      <trkpt lat="49.8163" lon="2.5555">
        <ele>93.2</ele>
        <time>2023-07-02T11:46:53Z</time>
      </trkpt>
      <trkpt lat="49.8163" lon="2.55552">
        <ele>93.2</ele>
        <time>2023-07-02T11:46:54Z</time>
      </trkpt>
      <trkpt lat="49.8163" lon="2.55553">
        <ele>93.2</ele>
        <time>2023-07-02T11:46:55Z</time>
      </trkpt>
      <trkpt lat="49.81629" lon="2.55554">
        <ele>93.2</ele>
        <time>2023-07-02T11:46:56Z</time>
      </trkpt>
      <trkpt lat="49.81629" lon="2.55556">
        <ele>93.2</ele>
        <time>2023-07-02T11:46:57Z</time>
      </trkpt>
      <trkpt lat="49.81629" lon="2.55559">
        <ele>93.2</ele>
        <time>2023-07-02T11:46:59Z</time>
      </trkpt>
      <trkpt lat="49.81629" lon="2.55561">
        <ele>93.2</ele>
        <time>2023-07-02T11:47:00Z</time>
      </trkpt>
      <trkpt lat="49.81628" lon="2.55563">
        <ele>93.2</ele>
        <time>2023-07-02T11:47:01Z</time>
      </trkpt>
      <trkpt lat="49.81627" lon="2.55566">
        <ele>93.3</ele>
        <time>2023-07-02T11:47:02Z</time>
      </trkpt>
      <trkpt lat="49.81627" lon="2.55567">
        <ele>93.3</ele>
        <time>2023-07-02T11:47:03Z</time>
      </trkpt>
      <trkpt lat="49.81627" lon="2.55568">
        <ele>93.3</ele>
        <time>2023-07-02T11:47:04Z</time>
      </trkpt>
      <trkpt lat="49.81626" lon="2.55571">
        <ele>93.3</ele>
        <time>2023-07-02T11:47:05Z</time>
      </trkpt>
      <trkpt lat="49.81626" lon="2.55573">
        <ele>93.3</ele>
        <time>2023-07-02T11:47:06Z</time>
      </trkpt>
      <trkpt lat="49.81625" lon="2.55574">
        <ele>93.3</ele>
        <time>2023-07-02T11:47:08Z</time>
      </trkpt>
      <trkpt lat="49.81625" lon="2.55576">
        <ele>93.3</ele>
        <time>2023-07-02T11:47:09Z</time>
      </trkpt>
      <trkpt lat="49.81625" lon="2.55577">
        <ele>93.3</ele>
        <time>2023-07-02T11:47:10Z</time>
      </trkpt>
      <trkpt lat="49.81624" lon="2.55579">
        <ele>93.3</ele>
        <time>2023-07-02T11:47:11Z</time>
      </trkpt>
      <trkpt lat="49.81624" lon="2.5558">
        <ele>93.3</ele>
        <time>2023-07-02T11:47:12Z</time>
      </trkpt>
      <trkpt lat="49.81624" lon="2.55582">
        <ele>93.3</ele>
        <time>2023-07-02T11:47:13Z</time>
      </trkpt>
      <trkpt lat="49.81624" lon="2.55584">
        <ele>93.3</ele>
        <time>2023-07-02T11:47:14Z</time>
      </trkpt>
      <trkpt lat="49.81624" lon="2.55585">
        <ele>93.3</ele>
        <time>2023-07-02T11:47:16Z</time>
      </trkpt>
      <trkpt lat="49.81624" lon="2.55588">
        <ele>93.3</ele>
        <time>2023-07-02T11:47:17Z</time>
      </trkpt>
      <trkpt lat="49.81624" lon="2.55589">
        <ele>93.3</ele>
        <time>2023-07-02T11:47:18Z</time>
      </trkpt>
      <trkpt lat="49.81624" lon="2.55591">
        <ele>93.3</ele>
        <time>2023-07-02T11:47:20Z</time>
      </trkpt>
      <trkpt lat="49.81624" lon="2.55593">
        <ele>93.3</ele>
        <time>2023-07-02T11:47:21Z</time>
      </trkpt>
      <trkpt lat="49.81623" lon="2.55594">
        <ele>93.3</ele>
        <time>2023-07-02T11:47:22Z</time>
      </trkpt>
      <trkpt lat="49.81623" lon="2.55596">
        <ele>93.3</ele>
        <time>2023-07-02T11:47:23Z</time>
      </trkpt>
      <trkpt lat="49.81623" lon="2.55598">
        <ele>93.4</ele>
        <time>2023-07-02T11:47:24Z</time>
      </trkpt>
      <trkpt lat="49.81623" lon="2.55599">
        <ele>93.4</ele>
        <time>2023-07-02T11:47:25Z</time>
      </trkpt>
      <trkpt lat="49.81623" lon="2.55601">
        <ele>93.4</ele>
        <time>2023-07-02T11:47:26Z</time>
      </trkpt>
      <trkpt lat="49.81623" lon="2.55603">
        <ele>93.4</ele>
        <time>2023-07-02T11:47:28Z</time>
      </trkpt>
      <trkpt lat="49.81622" lon="2.55604">
        <ele>93.4</ele>
        <time>2023-07-02T11:47:29Z</time>
      </trkpt>
      <trkpt lat="49.81622" lon="2.55606">
        <ele>93.4</ele>
        <time>2023-07-02T11:47:30Z</time>
      </trkpt>
      <trkpt lat="49.81622" lon="2.55607">
        <ele>93.5</ele>
        <time>2023-07-02T11:47:31Z</time>
      </trkpt>
      <trkpt lat="49.81622" lon="2.55609">
        <ele>93.5</ele>
        <time>2023-07-02T11:47:32Z</time>
      </trkpt>
      <trkpt lat="49.81622" lon="2.55611">
        <ele>93.5</ele>
        <time>2023-07-02T11:47:33Z</time>
      </trkpt>
      <trkpt lat="49.81621" lon="2.55612">
        <ele>93.5</ele>
        <time>2023-07-02T11:47:34Z</time>
      </trkpt>
      <trkpt lat="49.8162" lon="2.55615">
        <ele>93.5</ele>
        <time>2023-07-02T11:47:36Z</time>
      </trkpt>
      <trkpt lat="49.8162" lon="2.55616">
        <ele>93.6</ele>
        <time>2023-07-02T11:47:37Z</time>
      </trkpt>
      <trkpt lat="49.8162" lon="2.55618">
        <ele>93.6</ele>
        <time>2023-07-02T11:47:38Z</time>
      </trkpt>
      <trkpt lat="49.8162" lon="2.55621">
        <ele>93.6</ele>
        <time>2023-07-02T11:47:39Z</time>
      </trkpt>
      <trkpt lat="49.81619" lon="2.55622">
        <ele>93.6</ele>
        <time>2023-07-02T11:47:40Z</time>
      </trkpt>
      <trkpt lat="49.81619" lon="2.55624">
        <ele>93.6</ele>
        <time>2023-07-02T11:47:41Z</time>
      </trkpt>
      <trkpt lat="49.81619" lon="2.55627">
        <ele>93.7</ele>
        <time>2023-07-02T11:47:42Z</time>
      </trkpt>
      <trkpt lat="49.81619" lon="2.55628">
        <ele>93.7</ele>
        <time>2023-07-02T11:47:44Z</time>
      </trkpt>
      <trkpt lat="49.81618" lon="2.5563">
        <ele>93.7</ele>
        <time>2023-07-02T11:47:45Z</time>
      </trkpt>
      <trkpt lat="49.81618" lon="2.55633">
        <ele>93.7</ele>
        <time>2023-07-02T11:47:46Z</time>
      </trkpt>
      <trkpt lat="49.81618" lon="2.55634">
        <ele>93.7</ele>
        <time>2023-07-02T11:47:47Z</time>
      </trkpt>
      <trkpt lat="49.81618" lon="2.55636">
        <ele>93.8</ele>
        <time>2023-07-02T11:47:48Z</time>
      </trkpt>
      <trkpt lat="49.81617" lon="2.55639">
        <ele>93.8</ele>
        <time>2023-07-02T11:47:50Z</time>
      </trkpt>
      <trkpt lat="49.81617" lon="2.55641">
        <ele>93.8</ele>
        <time>2023-07-02T11:47:51Z</time>
      </trkpt>
      <trkpt lat="49.81616" lon="2.55642">
        <ele>93.8</ele>
        <time>2023-07-02T11:47:52Z</time>
      </trkpt>
      <trkpt lat="49.81616" lon="2.55644">
        <ele>93.8</ele>
        <time>2023-07-02T11:47:53Z</time>
      </trkpt>
      <trkpt lat="49.81616" lon="2.55646">
        <ele>93.8</ele>
        <time>2023-07-02T11:47:54Z</time>
      </trkpt>
      <trkpt lat="49.81616" lon="2.55648">
        <ele>93.9</ele>
        <time>2023-07-02T11:47:56Z</time>
      </trkpt>
      <trkpt lat="49.81615" lon="2.5565">
        <ele>93.9</ele>
        <time>2023-07-02T11:47:57Z</time>
      </trkpt>
      <trkpt lat="49.81615" lon="2.55653">
        <ele>93.9</ele>
        <time>2023-07-02T11:47:58Z</time>
      </trkpt>
      <trkpt lat="49.81614" lon="2.55654">
        <ele>93.9</ele>
        <time>2023-07-02T11:47:59Z</time>
      </trkpt>
      <trkpt lat="49.81614" lon="2.55656">
        <ele>93.9</ele>
        <time>2023-07-02T11:48:00Z</time>
      </trkpt>
      <trkpt lat="49.81614" lon="2.55657">
        <ele>94</ele>
        <time>2023-07-02T11:48:01Z</time>
      </trkpt>
      <trkpt lat="49.81614" lon="2.55659">
        <ele>94</ele>
        <time>2023-07-02T11:48:02Z</time>
      </trkpt>
      <trkpt lat="49.81613" lon="2.5566">
        <ele>94</ele>
        <time>2023-07-02T11:48:04Z</time>
      </trkpt>
      <trkpt lat="49.81613" lon="2.55662">
        <ele>94</ele>
        <time>2023-07-02T11:48:05Z</time>
      </trkpt>
      <trkpt lat="49.81613" lon="2.55664">
        <ele>94</ele>
        <time>2023-07-02T11:48:06Z</time>
      </trkpt>
      <trkpt lat="49.81613" lon="2.55666">
        <ele>94.1</ele>
        <time>2023-07-02T11:48:07Z</time>
      </trkpt>
      <trkpt lat="49.81613" lon="2.55667">
        <ele>94.1</ele>
        <time>2023-07-02T11:48:08Z</time>
      </trkpt>
      <trkpt lat="49.81613" lon="2.55669">
        <ele>94.1</ele>
        <time>2023-07-02T11:48:09Z</time>
      </trkpt>
      <trkpt lat="49.81613" lon="2.55671">
        <ele>94.1</ele>
        <time>2023-07-02T11:48:10Z</time>
      </trkpt>
      <trkpt lat="49.81613" lon="2.55673">
        <ele>94.2</ele>
        <time>2023-07-02T11:48:12Z</time>
      </trkpt>
      <trkpt lat="49.81612" lon="2.55675">
        <ele>94.2</ele>
        <time>2023-07-02T11:48:13Z</time>
      </trkpt>
      <trkpt lat="49.81612" lon="2.55677">
        <ele>94.2</ele>
        <time>2023-07-02T11:48:14Z</time>
      </trkpt>
      <trkpt lat="49.81611" lon="2.55679">
        <ele>94.2</ele>
        <time>2023-07-02T11:48:15Z</time>
      </trkpt>
      <trkpt lat="49.81611" lon="2.55682">
        <ele>94.2</ele>
        <time>2023-07-02T11:48:16Z</time>
      </trkpt>
      <trkpt lat="49.81611" lon="2.55683">
        <ele>94.2</ele>
        <time>2023-07-02T11:48:17Z</time>
      </trkpt>
      <trkpt lat="49.81611" lon="2.55685">
        <ele>94.3</ele>
        <time>2023-07-02T11:48:18Z</time>
      </trkpt>
      <trkpt lat="49.8161" lon="2.55688">
        <ele>94.3</ele>
        <time>2023-07-02T11:48:20Z</time>
      </trkpt>
      <trkpt lat="49.8161" lon="2.55689">
        <ele>94.3</ele>
        <time>2023-07-02T11:48:21Z</time>
      </trkpt>
      <trkpt lat="49.8161" lon="2.5569">
        <ele>94.3</ele>
        <time>2023-07-02T11:48:22Z</time>
      </trkpt>
      <trkpt lat="49.8161" lon="2.55692">
        <ele>94.3</ele>
        <time>2023-07-02T11:48:23Z</time>
      </trkpt>
      <trkpt lat="49.81609" lon="2.55694">
        <ele>94.3</ele>
        <time>2023-07-02T11:48:24Z</time>
      </trkpt>
      <trkpt lat="49.81609" lon="2.55695">
        <ele>94.3</ele>
        <time>2023-07-02T11:48:25Z</time>
      </trkpt>
      <trkpt lat="49.81608" lon="2.55698">
        <ele>94.3</ele>
        <time>2023-07-02T11:48:26Z</time>
      </trkpt>
      <trkpt lat="49.81608" lon="2.557">
        <ele>94.3</ele>
        <time>2023-07-02T11:48:28Z</time>
      </trkpt>
      <trkpt lat="49.81608" lon="2.55701">
        <ele>94.3</ele>
        <time>2023-07-02T11:48:29Z</time>
      </trkpt>
      <trkpt lat="49.81607" lon="2.55704">
        <ele>94.3</ele>
        <time>2023-07-02T11:48:30Z</time>
      </trkpt>
      <trkpt lat="49.81607" lon="2.55705">
        <ele>94.4</ele>
        <time>2023-07-02T11:48:31Z</time>
      </trkpt>
      <trkpt lat="49.81607" lon="2.55706">
        <ele>94.4</ele>
        <time>2023-07-02T11:48:32Z</time>
      </trkpt>
      <trkpt lat="49.81607" lon="2.55708">
        <ele>94.4</ele>
        <time>2023-07-02T11:48:33Z</time>
      </trkpt>
      <trkpt lat="49.81606" lon="2.55709">
        <ele>94.4</ele>
        <time>2023-07-02T11:48:34Z</time>
      </trkpt>
      <trkpt lat="49.81605" lon="2.55711">
        <ele>94.4</ele>
        <time>2023-07-02T11:48:35Z</time>
      </trkpt>
      <trkpt lat="49.81605" lon="2.55713">
        <ele>94.4</ele>
        <time>2023-07-02T11:48:37Z</time>
      </trkpt>
      <trkpt lat="49.81605" lon="2.55715">
        <ele>94.4</ele>
        <time>2023-07-02T11:48:38Z</time>
      </trkpt>
      <trkpt lat="49.81604" lon="2.55717">
        <ele>94.4</ele>
        <time>2023-07-02T11:48:39Z</time>
      </trkpt>
      <trkpt lat="49.81604" lon="2.55719">
        <ele>94.4</ele>
        <time>2023-07-02T11:48:40Z</time>
      </trkpt>
      <trkpt lat="49.81604" lon="2.5572">
        <ele>94.3</ele>
        <time>2023-07-02T11:48:41Z</time>
      </trkpt>
      <trkpt lat="49.81604" lon="2.55723">
        <ele>94.3</ele>
        <time>2023-07-02T11:48:42Z</time>
      </trkpt>
      <trkpt lat="49.81603" lon="2.55725">
        <ele>94.3</ele>
        <time>2023-07-02T11:48:44Z</time>
      </trkpt>
      <trkpt lat="49.81603" lon="2.55726">
        <ele>94.3</ele>
        <time>2023-07-02T11:48:45Z</time>
      </trkpt>
      <trkpt lat="49.81603" lon="2.5573">
        <ele>94.3</ele>
        <time>2023-07-02T11:48:47Z</time>
      </trkpt>
      <trkpt lat="49.81603" lon="2.55731">
        <ele>94.3</ele>
        <time>2023-07-02T11:48:48Z</time>
      </trkpt>
      <trkpt lat="49.81603" lon="2.55732">
        <ele>94.3</ele>
        <time>2023-07-02T11:48:49Z</time>
      </trkpt>
      <trkpt lat="49.81602" lon="2.55734">
        <ele>94.3</ele>
        <time>2023-07-02T11:48:50Z</time>
      </trkpt>
      <trkpt lat="49.81602" lon="2.55736">
        <ele>94.3</ele>
        <time>2023-07-02T11:48:51Z</time>
      </trkpt>
      <trkpt lat="49.81602" lon="2.55738">
        <ele>94.3</ele>
        <time>2023-07-02T11:48:52Z</time>
      </trkpt>
      <trkpt lat="49.81601" lon="2.55739">
        <ele>94.3</ele>
        <time>2023-07-02T11:48:53Z</time>
      </trkpt>
      <trkpt lat="49.81601" lon="2.55741">
        <ele>94.3</ele>
        <time>2023-07-02T11:48:54Z</time>
      </trkpt>
      <trkpt lat="49.81601" lon="2.55742">
        <ele>94.3</ele>
        <time>2023-07-02T11:48:56Z</time>
      </trkpt>
      <trkpt lat="49.81601" lon="2.55744">
        <ele>94.3</ele>
        <time>2023-07-02T11:48:57Z</time>
      </trkpt>
      <trkpt lat="49.81601" lon="2.55745">
        <ele>94.3</ele>
        <time>2023-07-02T11:48:58Z</time>
      </trkpt>
      <trkpt lat="49.81601" lon="2.55747">
        <ele>94.4</ele>
        <time>2023-07-02T11:48:59Z</time>
      </trkpt>
      <trkpt lat="49.816" lon="2.5575">
        <ele>94.4</ele>
        <time>2023-07-02T11:49:00Z</time>
      </trkpt>
      <trkpt lat="49.816" lon="2.55752">
        <ele>94.4</ele>
        <time>2023-07-02T11:49:01Z</time>
      </trkpt>
      <trkpt lat="49.816" lon="2.55753">
        <ele>94.4</ele>
        <time>2023-07-02T11:49:02Z</time>
      </trkpt>
      <trkpt lat="49.816" lon="2.55755">
        <ele>94.4</ele>
        <time>2023-07-02T11:49:04Z</time>
      </trkpt>
      <trkpt lat="49.816" lon="2.55756">
        <ele>94.4</ele>
        <time>2023-07-02T11:49:05Z</time>
      </trkpt>
      <trkpt lat="49.81599" lon="2.55758">
        <ele>94.4</ele>
        <time>2023-07-02T11:49:06Z</time>
      </trkpt>
      <trkpt lat="49.81599" lon="2.55759">
        <ele>94.4</ele>
        <time>2023-07-02T11:49:07Z</time>
      </trkpt>
      <trkpt lat="49.81599" lon="2.55761">
        <ele>94.4</ele>
        <time>2023-07-02T11:49:08Z</time>
      </trkpt>
      <trkpt lat="49.81599" lon="2.55762">
        <ele>94.4</ele>
        <time>2023-07-02T11:49:09Z</time>
      </trkpt>
      <trkpt lat="49.816" lon="2.55764">
        <ele>94.5</ele>
        <time>2023-07-02T11:49:11Z</time>
      </trkpt>
      <trkpt lat="49.81601" lon="2.55764">
        <ele>94.5</ele>
        <time>2023-07-02T11:49:12Z</time>
      </trkpt>
      <trkpt lat="49.81601" lon="2.55764">
        <ele>94.5</ele>
        <time>2023-07-02T11:49:13Z</time>
      </trkpt>
      <trkpt lat="49.81601" lon="2.55765">
        <ele>94.5</ele>
        <time>2023-07-02T11:49:15Z</time>
      </trkpt>
      <trkpt lat="49.81601" lon="2.55766">
        <ele>94.5</ele>
        <time>2023-07-02T11:49:16Z</time>
      </trkpt>
      <trkpt lat="49.81601" lon="2.55767">
        <ele>94.5</ele>
        <time>2023-07-02T11:49:17Z</time>
      </trkpt>
      <trkpt lat="49.81601" lon="2.55768">
        <ele>94.5</ele>
        <time>2023-07-02T11:49:18Z</time>
      </trkpt>
      <trkpt lat="49.81601" lon="2.55769">
        <ele>94.5</ele>
        <time>2023-07-02T11:49:19Z</time>
      </trkpt>
      <trkpt lat="49.816" lon="2.5577">
        <ele>94.5</ele>
        <time>2023-07-02T11:49:20Z</time>
      </trkpt>
      <trkpt lat="49.81599" lon="2.55774">
        <ele>94.5</ele>
        <time>2023-07-02T11:49:22Z</time>
      </trkpt>
      <trkpt lat="49.81599" lon="2.55775">
        <ele>94.5</ele>
        <time>2023-07-02T11:49:23Z</time>
      </trkpt>
      <trkpt lat="49.81599" lon="2.55776">
        <ele>94.5</ele>
        <time>2023-07-02T11:49:24Z</time>
      </trkpt>
      <trkpt lat="49.81598" lon="2.55778">
        <ele>94.5</ele>
        <time>2023-07-02T11:49:25Z</time>
      </trkpt>
      <trkpt lat="49.81598" lon="2.55779">
        <ele>94.5</ele>
        <time>2023-07-02T11:49:26Z</time>
      </trkpt>
      <trkpt lat="49.81597" lon="2.55781">
        <ele>94.5</ele>
        <time>2023-07-02T11:49:27Z</time>
      </trkpt>
      <trkpt lat="49.81597" lon="2.55784">
        <ele>94.5</ele>
        <time>2023-07-02T11:49:29Z</time>
      </trkpt>
      <trkpt lat="49.81596" lon="2.55785">
        <ele>94.5</ele>
        <time>2023-07-02T11:49:30Z</time>
      </trkpt>
      <trkpt lat="49.81596" lon="2.55787">
        <ele>94.6</ele>
        <time>2023-07-02T11:49:31Z</time>
      </trkpt>
      <trkpt lat="49.81595" lon="2.55788">
        <ele>94.6</ele>
        <time>2023-07-02T11:49:32Z</time>
      </trkpt>
      <trkpt lat="49.81594" lon="2.55789">
        <ele>94.6</ele>
        <time>2023-07-02T11:49:33Z</time>
      </trkpt>
      <trkpt lat="49.81594" lon="2.55791">
        <ele>94.6</ele>
        <time>2023-07-02T11:49:35Z</time>
      </trkpt>
      <trkpt lat="49.81593" lon="2.55793">
        <ele>94.6</ele>
        <time>2023-07-02T11:49:36Z</time>
      </trkpt>
      <trkpt lat="49.81593" lon="2.55794">
        <ele>94.6</ele>
        <time>2023-07-02T11:49:37Z</time>
      </trkpt>
      <trkpt lat="49.81593" lon="2.55796">
        <ele>94.6</ele>
        <time>2023-07-02T11:49:38Z</time>
      </trkpt>
      <trkpt lat="49.81593" lon="2.55797">
        <ele>94.6</ele>
        <time>2023-07-02T11:49:39Z</time>
      </trkpt>
      <trkpt lat="49.81592" lon="2.55799">
        <ele>94.6</ele>
        <time>2023-07-02T11:49:41Z</time>
      </trkpt>
      <trkpt lat="49.81592" lon="2.55801">
        <ele>94.6</ele>
        <time>2023-07-02T11:49:42Z</time>
      </trkpt>
      <trkpt lat="49.81592" lon="2.55803">
        <ele>94.6</ele>
        <time>2023-07-02T11:49:43Z</time>
      </trkpt>
      <trkpt lat="49.81591" lon="2.55804">
        <ele>94.6</ele>
        <time>2023-07-02T11:49:44Z</time>
      </trkpt>
      <trkpt lat="49.81591" lon="2.55805">
        <ele>94.6</ele>
        <time>2023-07-02T11:49:45Z</time>
      </trkpt>
      <trkpt lat="49.81591" lon="2.55808">
        <ele>94.7</ele>
        <time>2023-07-02T11:49:46Z</time>
      </trkpt>
      <trkpt lat="49.8159" lon="2.5581">
        <ele>94.7</ele>
        <time>2023-07-02T11:49:48Z</time>
      </trkpt>
      <trkpt lat="49.8159" lon="2.55811">
        <ele>94.7</ele>
        <time>2023-07-02T11:49:49Z</time>
      </trkpt>
      <trkpt lat="49.8159" lon="2.55813">
        <ele>94.7</ele>
        <time>2023-07-02T11:49:50Z</time>
      </trkpt>
      <trkpt lat="49.8159" lon="2.55814">
        <ele>94.7</ele>
        <time>2023-07-02T11:49:51Z</time>
      </trkpt>
      <trkpt lat="49.81589" lon="2.55815">
        <ele>94.7</ele>
        <time>2023-07-02T11:49:52Z</time>
      </trkpt>
      <trkpt lat="49.81589" lon="2.55817">
        <ele>94.7</ele>
        <time>2023-07-02T11:49:54Z</time>
      </trkpt>
      <trkpt lat="49.81589" lon="2.55819">
        <ele>94.7</ele>
        <time>2023-07-02T11:49:55Z</time>
      </trkpt>
      <trkpt lat="49.81589" lon="2.5582">
        <ele>94.8</ele>
        <time>2023-07-02T11:49:56Z</time>
      </trkpt>
      <trkpt lat="49.81588" lon="2.55822">
        <ele>94.8</ele>
        <time>2023-07-02T11:49:57Z</time>
      </trkpt>
      <trkpt lat="49.81588" lon="2.55823">
        <ele>94.8</ele>
        <time>2023-07-02T11:49:58Z</time>
      </trkpt>
      <trkpt lat="49.81587" lon="2.55825">
        <ele>94.8</ele>
        <time>2023-07-02T11:49:59Z</time>
      </trkpt>
      <trkpt lat="49.81587" lon="2.55827">
        <ele>94.8</ele>
        <time>2023-07-02T11:50:00Z</time>
      </trkpt>
      <trkpt lat="49.81586" lon="2.55829">
        <ele>94.8</ele>
        <time>2023-07-02T11:50:02Z</time>
      </trkpt>
      <trkpt lat="49.81586" lon="2.55831">
        <ele>94.8</ele>
        <time>2023-07-02T11:50:03Z</time>
      </trkpt>
      <trkpt lat="49.81586" lon="2.55833">
        <ele>94.8</ele>
        <time>2023-07-02T11:50:04Z</time>
      </trkpt>
      <trkpt lat="49.81585" lon="2.55835">
        <ele>94.8</ele>
        <time>2023-07-02T11:50:05Z</time>
      </trkpt>
      <trkpt lat="49.81585" lon="2.55837">
        <ele>94.9</ele>
        <time>2023-07-02T11:50:06Z</time>
      </trkpt>
      <trkpt lat="49.81585" lon="2.55838">
        <ele>94.9</ele>
        <time>2023-07-02T11:50:07Z</time>
      </trkpt>
      <trkpt lat="49.81584" lon="2.55842">
        <ele>94.9</ele>
        <time>2023-07-02T11:50:09Z</time>
      </trkpt>
      <trkpt lat="49.81584" lon="2.55843">
        <ele>94.9</ele>
        <time>2023-07-02T11:50:10Z</time>
      </trkpt>
      <trkpt lat="49.81584" lon="2.55844">
        <ele>94.9</ele>
        <time>2023-07-02T11:50:11Z</time>
      </trkpt>
      <trkpt lat="49.81583" lon="2.55846">
        <ele>94.9</ele>
        <time>2023-07-02T11:50:12Z</time>
      </trkpt>
      <trkpt lat="49.81583" lon="2.55848">
        <ele>94.9</ele>
        <time>2023-07-02T11:50:13Z</time>
      </trkpt>
      <trkpt lat="49.81583" lon="2.55849">
        <ele>94.9</ele>
        <time>2023-07-02T11:50:14Z</time>
      </trkpt>
      <trkpt lat="49.81582" lon="2.55852">
        <ele>94.9</ele>
        <time>2023-07-02T11:50:16Z</time>
      </trkpt>
      <trkpt lat="49.81582" lon="2.55854">
        <ele>94.9</ele>
        <time>2023-07-02T11:50:17Z</time>
      </trkpt>
      <trkpt lat="49.81582" lon="2.55855">
        <ele>95</ele>
        <time>2023-07-02T11:50:18Z</time>
      </trkpt>
      <trkpt lat="49.81581" lon="2.55857">
        <ele>95</ele>
        <time>2023-07-02T11:50:19Z</time>
      </trkpt>
      <trkpt lat="49.81581" lon="2.55858">
        <ele>95</ele>
        <time>2023-07-02T11:50:20Z</time>
      </trkpt>
      <trkpt lat="49.81581" lon="2.5586">
        <ele>95</ele>
        <time>2023-07-02T11:50:21Z</time>
      </trkpt>
      <trkpt lat="49.8158" lon="2.55864">
        <ele>95</ele>
        <time>2023-07-02T11:50:22Z</time>
      </trkpt>
      <trkpt lat="49.81579" lon="2.55866">
        <ele>95</ele>
        <time>2023-07-02T11:50:24Z</time>
      </trkpt>
      <trkpt lat="49.81579" lon="2.55867">
        <ele>95</ele>
        <time>2023-07-02T11:50:25Z</time>
      </trkpt>
      <trkpt lat="49.81578" lon="2.55869">
        <ele>95</ele>
        <time>2023-07-02T11:50:27Z</time>
      </trkpt>
      <trkpt lat="49.81578" lon="2.55871">
        <ele>95</ele>
        <time>2023-07-02T11:50:28Z</time>
      </trkpt>
      <trkpt lat="49.81577" lon="2.55874">
        <ele>95.1</ele>
        <time>2023-07-02T11:50:29Z</time>
      </trkpt>
      <trkpt lat="49.81577" lon="2.55876">
        <ele>95.1</ele>
        <time>2023-07-02T11:50:30Z</time>
      </trkpt>
      <trkpt lat="49.81577" lon="2.55877">
        <ele>95.1</ele>
        <time>2023-07-02T11:50:32Z</time>
      </trkpt>
      <trkpt lat="49.81577" lon="2.55879">
        <ele>95.1</ele>
        <time>2023-07-02T11:50:33Z</time>
      </trkpt>
      <trkpt lat="49.81577" lon="2.55881">
        <ele>95.1</ele>
        <time>2023-07-02T11:50:34Z</time>
      </trkpt>
      <trkpt lat="49.81576" lon="2.55882">
        <ele>95.1</ele>
        <time>2023-07-02T11:50:35Z</time>
      </trkpt>
      <trkpt lat="49.81576" lon="2.55883">
        <ele>95.2</ele>
        <time>2023-07-02T11:50:36Z</time>
      </trkpt>
      <trkpt lat="49.81576" lon="2.55885">
        <ele>95.2</ele>
        <time>2023-07-02T11:50:37Z</time>
      </trkpt>
      <trkpt lat="49.81575" lon="2.55886">
        <ele>95.2</ele>
        <time>2023-07-02T11:50:39Z</time>
      </trkpt>
      <trkpt lat="49.81574" lon="2.55888">
        <ele>95.2</ele>
        <time>2023-07-02T11:50:40Z</time>
      </trkpt>
      <trkpt lat="49.81574" lon="2.5589">
        <ele>95.3</ele>
        <time>2023-07-02T11:50:41Z</time>
      </trkpt>
      <trkpt lat="49.81573" lon="2.55891">
        <ele>95.3</ele>
        <time>2023-07-02T11:50:42Z</time>
      </trkpt>
      <trkpt lat="49.81573" lon="2.55893">
        <ele>95.3</ele>
        <time>2023-07-02T11:50:43Z</time>
      </trkpt>
      <trkpt lat="49.81573" lon="2.55894">
        <ele>95.3</ele>
        <time>2023-07-02T11:50:44Z</time>
      </trkpt>
      <trkpt lat="49.81573" lon="2.55896">
        <ele>95.3</ele>
        <time>2023-07-02T11:50:45Z</time>
      </trkpt>
      <trkpt lat="49.81573" lon="2.55899">
        <ele>95.4</ele>
        <time>2023-07-02T11:50:47Z</time>
      </trkpt>
      <trkpt lat="49.81573" lon="2.559">
        <ele>95.4</ele>
        <time>2023-07-02T11:50:48Z</time>
      </trkpt>
      <trkpt lat="49.81572" lon="2.55901">
        <ele>95.4</ele>
        <time>2023-07-02T11:50:49Z</time>
      </trkpt>
      <trkpt lat="49.81572" lon="2.55903">
        <ele>95.4</ele>
        <time>2023-07-02T11:50:50Z</time>
      </trkpt>
      <trkpt lat="49.81572" lon="2.55905">
        <ele>95.4</ele>
        <time>2023-07-02T11:50:51Z</time>
      </trkpt>
      <trkpt lat="49.81571" lon="2.55906">
        <ele>95.4</ele>
        <time>2023-07-02T11:50:52Z</time>
      </trkpt>
      <trkpt lat="49.81571" lon="2.55908">
        <ele>95.5</ele>
        <time>2023-07-02T11:50:53Z</time>
      </trkpt>
      <trkpt lat="49.81571" lon="2.5591">
        <ele>95.5</ele>
        <time>2023-07-02T11:50:55Z</time>
      </trkpt>
      <trkpt lat="49.81571" lon="2.55911">
        <ele>95.5</ele>
        <time>2023-07-02T11:50:56Z</time>
      </trkpt>
      <trkpt lat="49.8157" lon="2.55913">
        <ele>95.5</ele>
        <time>2023-07-02T11:50:57Z</time>
      </trkpt>
      <trkpt lat="49.8157" lon="2.55915">
        <ele>95.5</ele>
        <time>2023-07-02T11:50:58Z</time>
      </trkpt>
      <trkpt lat="49.8157" lon="2.55916">
        <ele>95.5</ele>
        <time>2023-07-02T11:50:59Z</time>
      </trkpt>
      <trkpt lat="49.8157" lon="2.55917">
        <ele>95.5</ele>
        <time>2023-07-02T11:51:00Z</time>
      </trkpt>
      <trkpt lat="49.8157" lon="2.55919">
        <ele>95.5</ele>
        <time>2023-07-02T11:51:02Z</time>
      </trkpt>
      <trkpt lat="49.8157" lon="2.55921">
        <ele>95.5</ele>
        <time>2023-07-02T11:51:03Z</time>
      </trkpt>
      <trkpt lat="49.81569" lon="2.55923">
        <ele>95.5</ele>
        <time>2023-07-02T11:51:04Z</time>
      </trkpt>
      <trkpt lat="49.81569" lon="2.55925">
        <ele>95.5</ele>
        <time>2023-07-02T11:51:05Z</time>
      </trkpt>
      <trkpt lat="49.81569" lon="2.55926">
        <ele>95.5</ele>
        <time>2023-07-02T11:51:06Z</time>
      </trkpt>
      <trkpt lat="49.81568" lon="2.55928">
        <ele>95.6</ele>
        <time>2023-07-02T11:51:07Z</time>
      </trkpt>
      <trkpt lat="49.81568" lon="2.55929">
        <ele>95.6</ele>
        <time>2023-07-02T11:51:08Z</time>
      </trkpt>
      <trkpt lat="49.81567" lon="2.55931">
        <ele>95.6</ele>
        <time>2023-07-02T11:51:10Z</time>
      </trkpt>
      <trkpt lat="49.81567" lon="2.55933">
        <ele>95.6</ele>
        <time>2023-07-02T11:51:11Z</time>
      </trkpt>
      <trkpt lat="49.81567" lon="2.55935">
        <ele>95.6</ele>
        <time>2023-07-02T11:51:12Z</time>
      </trkpt>
      <trkpt lat="49.81567" lon="2.55936">
        <ele>95.6</ele>
        <time>2023-07-02T11:51:13Z</time>
      </trkpt>
      <trkpt lat="49.81566" lon="2.55938">
        <ele>95.6</ele>
        <time>2023-07-02T11:51:14Z</time>
      </trkpt>
      <trkpt lat="49.81566" lon="2.5594">
        <ele>95.6</ele>
        <time>2023-07-02T11:51:15Z</time>
      </trkpt>
      <trkpt lat="49.81565" lon="2.55942">
        <ele>95.6</ele>
        <time>2023-07-02T11:51:17Z</time>
      </trkpt>
      <trkpt lat="49.81564" lon="2.55946">
        <ele>95.7</ele>
        <time>2023-07-02T11:51:18Z</time>
      </trkpt>
      <trkpt lat="49.81564" lon="2.55947">
        <ele>95.7</ele>
        <time>2023-07-02T11:51:20Z</time>
      </trkpt>
      <trkpt lat="49.81563" lon="2.55949">
        <ele>95.7</ele>
        <time>2023-07-02T11:51:21Z</time>
      </trkpt>
      <trkpt lat="49.81563" lon="2.55951">
        <ele>95.7</ele>
        <time>2023-07-02T11:51:22Z</time>
      </trkpt>
      <trkpt lat="49.81562" lon="2.55952">
        <ele>95.8</ele>
        <time>2023-07-02T11:51:23Z</time>
      </trkpt>
      <trkpt lat="49.81562" lon="2.55954">
        <ele>95.8</ele>
        <time>2023-07-02T11:51:25Z</time>
      </trkpt>
      <trkpt lat="49.81562" lon="2.55957">
        <ele>95.8</ele>
        <time>2023-07-02T11:51:26Z</time>
      </trkpt>
      <trkpt lat="49.81561" lon="2.55959">
        <ele>95.8</ele>
        <time>2023-07-02T11:51:27Z</time>
      </trkpt>
      <trkpt lat="49.81561" lon="2.55961">
        <ele>95.8</ele>
        <time>2023-07-02T11:51:28Z</time>
      </trkpt>
      <trkpt lat="49.81561" lon="2.55963">
        <ele>95.9</ele>
        <time>2023-07-02T11:51:29Z</time>
      </trkpt>
      <trkpt lat="49.8156" lon="2.55964">
        <ele>95.9</ele>
        <time>2023-07-02T11:51:30Z</time>
      </trkpt>
      <trkpt lat="49.81559" lon="2.55965">
        <ele>95.9</ele>
        <time>2023-07-02T11:51:31Z</time>
      </trkpt>
      <trkpt lat="49.81559" lon="2.55967">
        <ele>95.9</ele>
        <time>2023-07-02T11:51:33Z</time>
      </trkpt>
      <trkpt lat="49.81558" lon="2.55968">
        <ele>96</ele>
        <time>2023-07-02T11:51:34Z</time>
      </trkpt>
      <trkpt lat="49.81558" lon="2.5597">
        <ele>96</ele>
        <time>2023-07-02T11:51:35Z</time>
      </trkpt>
      <trkpt lat="49.81557" lon="2.55973">
        <ele>96</ele>
        <time>2023-07-02T11:51:36Z</time>
      </trkpt>
      <trkpt lat="49.81557" lon="2.55975">
        <ele>96</ele>
        <time>2023-07-02T11:51:37Z</time>
      </trkpt>
      <trkpt lat="49.81557" lon="2.55976">
        <ele>96.1</ele>
        <time>2023-07-02T11:51:38Z</time>
      </trkpt>
      <trkpt lat="49.81557" lon="2.55977">
        <ele>96.1</ele>
        <time>2023-07-02T11:51:39Z</time>
      </trkpt>
      <trkpt lat="49.81556" lon="2.55979">
        <ele>96.1</ele>
        <time>2023-07-02T11:51:41Z</time>
      </trkpt>
      <trkpt lat="49.81556" lon="2.55981">
        <ele>96.1</ele>
        <time>2023-07-02T11:51:42Z</time>
      </trkpt>
      <trkpt lat="49.81556" lon="2.55983">
        <ele>96.2</ele>
        <time>2023-07-02T11:51:43Z</time>
      </trkpt>
      <trkpt lat="49.81555" lon="2.55985">
        <ele>96.2</ele>
        <time>2023-07-02T11:51:44Z</time>
      </trkpt>
      <trkpt lat="49.81554" lon="2.55987">
        <ele>96.2</ele>
        <time>2023-07-02T11:51:46Z</time>
      </trkpt>
      <trkpt lat="49.81554" lon="2.55989">
        <ele>96.2</ele>
        <time>2023-07-02T11:51:47Z</time>
      </trkpt>
      <trkpt lat="49.81554" lon="2.5599">
        <ele>96.2</ele>
        <time>2023-07-02T11:51:48Z</time>
      </trkpt>
      <trkpt lat="49.81553" lon="2.55992">
        <ele>96.3</ele>
        <time>2023-07-02T11:51:50Z</time>
      </trkpt>
      <trkpt lat="49.81553" lon="2.55993">
        <ele>96.3</ele>
        <time>2023-07-02T11:51:51Z</time>
      </trkpt>
      <trkpt lat="49.81552" lon="2.55996">
        <ele>96.3</ele>
        <time>2023-07-02T11:51:52Z</time>
      </trkpt>
      <trkpt lat="49.81552" lon="2.55998">
        <ele>96.3</ele>
        <time>2023-07-02T11:51:54Z</time>
      </trkpt>
      <trkpt lat="49.81552" lon="2.55999">
        <ele>96.3</ele>
        <time>2023-07-02T11:51:55Z</time>
      </trkpt>
      <trkpt lat="49.81552" lon="2.56001">
        <ele>96.3</ele>
        <time>2023-07-02T11:51:56Z</time>
      </trkpt>
      <trkpt lat="49.81551" lon="2.56004">
        <ele>96.3</ele>
        <time>2023-07-02T11:51:57Z</time>
      </trkpt>
      <trkpt lat="49.81551" lon="2.56005">
        <ele>96.3</ele>
        <time>2023-07-02T11:51:58Z</time>
      </trkpt>
      <trkpt lat="49.81551" lon="2.56006">
        <ele>96.3</ele>
        <time>2023-07-02T11:51:59Z</time>
      </trkpt>
      <trkpt lat="49.8155" lon="2.56009">
        <ele>96.3</ele>
        <time>2023-07-02T11:52:01Z</time>
      </trkpt>
      <trkpt lat="49.81549" lon="2.56011">
        <ele>96.3</ele>
        <time>2023-07-02T11:52:02Z</time>
      </trkpt>
      <trkpt lat="49.81549" lon="2.56012">
        <ele>96.3</ele>
        <time>2023-07-02T11:52:03Z</time>
      </trkpt>
      <trkpt lat="49.81549" lon="2.56015">
        <ele>96.3</ele>
        <time>2023-07-02T11:52:04Z</time>
      </trkpt>
      <trkpt lat="49.81548" lon="2.56016">
        <ele>96.3</ele>
        <time>2023-07-02T11:52:05Z</time>
      </trkpt>
      <trkpt lat="49.81548" lon="2.56017">
        <ele>96.3</ele>
        <time>2023-07-02T11:52:06Z</time>
      </trkpt>
      <trkpt lat="49.81548" lon="2.56019">
        <ele>96.3</ele>
        <time>2023-07-02T11:52:08Z</time>
      </trkpt>
      <trkpt lat="49.81548" lon="2.56021">
        <ele>96.3</ele>
        <time>2023-07-02T11:52:09Z</time>
      </trkpt>
      <trkpt lat="49.81547" lon="2.56023">
        <ele>96.3</ele>
        <time>2023-07-02T11:52:10Z</time>
      </trkpt>
      <trkpt lat="49.81547" lon="2.56024">
        <ele>96.3</ele>
        <time>2023-07-02T11:52:11Z</time>
      </trkpt>
      <trkpt lat="49.81546" lon="2.56026">
        <ele>96.2</ele>
        <time>2023-07-02T11:52:12Z</time>
      </trkpt>
      <trkpt lat="49.81545" lon="2.56027">
        <ele>96.2</ele>
        <time>2023-07-02T11:52:14Z</time>
      </trkpt>
      <trkpt lat="49.81545" lon="2.56029">
        <ele>96.2</ele>
        <time>2023-07-02T11:52:15Z</time>
      </trkpt>
      <trkpt lat="49.81544" lon="2.56031">
        <ele>96.2</ele>
        <time>2023-07-02T11:52:16Z</time>
      </trkpt>
      <trkpt lat="49.81544" lon="2.56032">
        <ele>96.2</ele>
        <time>2023-07-02T11:52:17Z</time>
      </trkpt>
      <trkpt lat="49.81543" lon="2.56034">
        <ele>96.1</ele>
        <time>2023-07-02T11:52:18Z</time>
      </trkpt>
      <trkpt lat="49.81543" lon="2.56036">
        <ele>96.1</ele>
        <time>2023-07-02T11:52:19Z</time>
      </trkpt>
      <trkpt lat="49.81543" lon="2.56038">
        <ele>96.1</ele>
        <time>2023-07-02T11:52:21Z</time>
      </trkpt>
      <trkpt lat="49.81542" lon="2.56039">
        <ele>96.1</ele>
        <time>2023-07-02T11:52:22Z</time>
      </trkpt>
      <trkpt lat="49.81542" lon="2.5604">
        <ele>96.1</ele>
        <time>2023-07-02T11:52:23Z</time>
      </trkpt>
      <trkpt lat="49.81541" lon="2.56042">
        <ele>96.1</ele>
        <time>2023-07-02T11:52:24Z</time>
      </trkpt>
      <trkpt lat="49.81541" lon="2.56044">
        <ele>96</ele>
        <time>2023-07-02T11:52:25Z</time>
      </trkpt>
      <trkpt lat="49.81541" lon="2.56045">
        <ele>96</ele>
        <time>2023-07-02T11:52:26Z</time>
      </trkpt>
      <trkpt lat="49.81541" lon="2.56047">
        <ele>96</ele>
        <time>2023-07-02T11:52:28Z</time>
      </trkpt>
      <trkpt lat="49.8154" lon="2.56049">
        <ele>96</ele>
        <time>2023-07-02T11:52:29Z</time>
      </trkpt>
      <trkpt lat="49.8154" lon="2.5605">
        <ele>96</ele>
        <time>2023-07-02T11:52:30Z</time>
      </trkpt>
      <trkpt lat="49.8154" lon="2.56052">
        <ele>96</ele>
        <time>2023-07-02T11:52:31Z</time>
      </trkpt>
      <trkpt lat="49.8154" lon="2.56054">
        <ele>95.9</ele>
        <time>2023-07-02T11:52:32Z</time>
      </trkpt>
      <trkpt lat="49.8154" lon="2.56055">
        <ele>95.9</ele>
        <time>2023-07-02T11:52:33Z</time>
      </trkpt>
      <trkpt lat="49.8154" lon="2.56057">
        <ele>95.9</ele>
        <time>2023-07-02T11:52:35Z</time>
      </trkpt>
      <trkpt lat="49.8154" lon="2.56058">
        <ele>95.9</ele>
        <time>2023-07-02T11:52:36Z</time>
      </trkpt>
      <trkpt lat="49.81539" lon="2.5606">
        <ele>95.8</ele>
        <time>2023-07-02T11:52:37Z</time>
      </trkpt>
      <trkpt lat="49.81539" lon="2.56061">
        <ele>95.8</ele>
        <time>2023-07-02T11:52:38Z</time>
      </trkpt>
      <trkpt lat="49.81539" lon="2.56063">
        <ele>95.8</ele>
        <time>2023-07-02T11:52:39Z</time>
      </trkpt>
      <trkpt lat="49.81539" lon="2.56064">
        <ele>95.8</ele>
        <time>2023-07-02T11:52:40Z</time>
      </trkpt>
      <trkpt lat="49.81539" lon="2.56065">
        <ele>95.8</ele>
        <time>2023-07-02T11:52:41Z</time>
      </trkpt>
      <trkpt lat="49.81539" lon="2.56067">
        <ele>95.7</ele>
        <time>2023-07-02T11:52:42Z</time>
      </trkpt>
      <trkpt lat="49.81538" lon="2.56068">
        <ele>95.7</ele>
        <time>2023-07-02T11:52:44Z</time>
      </trkpt>
      <trkpt lat="49.81538" lon="2.5607">
        <ele>95.7</ele>
        <time>2023-07-02T11:52:45Z</time>
      </trkpt>
      <trkpt lat="49.81537" lon="2.56071">
        <ele>95.6</ele>
        <time>2023-07-02T11:52:46Z</time>
      </trkpt>
      <trkpt lat="49.81537" lon="2.56074">
        <ele>95.6</ele>
        <time>2023-07-02T11:52:47Z</time>
      </trkpt>
      <trkpt lat="49.81536" lon="2.56075">
        <ele>95.6</ele>
        <time>2023-07-02T11:52:48Z</time>
      </trkpt>
      <trkpt lat="49.81536" lon="2.56076">
        <ele>95.6</ele>
        <time>2023-07-02T11:52:50Z</time>
      </trkpt>
      <trkpt lat="49.81536" lon="2.56078">
        <ele>95.5</ele>
        <time>2023-07-02T11:52:51Z</time>
      </trkpt>
      <trkpt lat="49.81535" lon="2.56079">
        <ele>95.5</ele>
        <time>2023-07-02T11:52:53Z</time>
      </trkpt>
      <trkpt lat="49.81535" lon="2.56081">
        <ele>95.5</ele>
        <time>2023-07-02T11:52:54Z</time>
      </trkpt>
      <trkpt lat="49.81534" lon="2.56084">
        <ele>95.4</ele>
        <time>2023-07-02T11:52:55Z</time>
      </trkpt>
      <trkpt lat="49.81534" lon="2.56085">
        <ele>95.4</ele>
        <time>2023-07-02T11:52:56Z</time>
      </trkpt>
      <trkpt lat="49.81534" lon="2.56086">
        <ele>95.4</ele>
        <time>2023-07-02T11:52:57Z</time>
      </trkpt>
      <trkpt lat="49.81533" lon="2.56088">
        <ele>95.3</ele>
        <time>2023-07-02T11:52:58Z</time>
      </trkpt>
      <trkpt lat="49.81533" lon="2.5609">
        <ele>95.3</ele>
        <time>2023-07-02T11:52:59Z</time>
      </trkpt>
      <trkpt lat="49.81532" lon="2.56091">
        <ele>95.3</ele>
        <time>2023-07-02T11:53:01Z</time>
      </trkpt>
      <trkpt lat="49.81532" lon="2.56094">
        <ele>95.2</ele>
        <time>2023-07-02T11:53:02Z</time>
      </trkpt>
      <trkpt lat="49.81531" lon="2.56096">
        <ele>95.2</ele>
        <time>2023-07-02T11:53:03Z</time>
      </trkpt>
      <trkpt lat="49.81531" lon="2.56097">
        <ele>95.2</ele>
        <time>2023-07-02T11:53:04Z</time>
      </trkpt>
      <trkpt lat="49.81531" lon="2.56099">
        <ele>95.1</ele>
        <time>2023-07-02T11:53:05Z</time>
      </trkpt>
      <trkpt lat="49.8153" lon="2.56101">
        <ele>95.1</ele>
        <time>2023-07-02T11:53:06Z</time>
      </trkpt>
      <trkpt lat="49.81529" lon="2.56104">
        <ele>95</ele>
        <time>2023-07-02T11:53:07Z</time>
      </trkpt>
      <trkpt lat="49.81529" lon="2.56105">
        <ele>95</ele>
        <time>2023-07-02T11:53:09Z</time>
      </trkpt>
      <trkpt lat="49.81529" lon="2.56106">
        <ele>95</ele>
        <time>2023-07-02T11:53:10Z</time>
      </trkpt>
      <trkpt lat="49.81528" lon="2.56109">
        <ele>95</ele>
        <time>2023-07-02T11:53:11Z</time>
      </trkpt>
      <trkpt lat="49.81528" lon="2.56111">
        <ele>95</ele>
        <time>2023-07-02T11:53:12Z</time>
      </trkpt>
      <trkpt lat="49.81528" lon="2.56112">
        <ele>94.9</ele>
        <time>2023-07-02T11:53:13Z</time>
      </trkpt>
      <trkpt lat="49.81527" lon="2.56115">
        <ele>94.9</ele>
        <time>2023-07-02T11:53:14Z</time>
      </trkpt>
      <trkpt lat="49.81527" lon="2.56116">
        <ele>94.9</ele>
        <time>2023-07-02T11:53:16Z</time>
      </trkpt>
      <trkpt lat="49.81527" lon="2.56117">
        <ele>94.9</ele>
        <time>2023-07-02T11:53:17Z</time>
      </trkpt>
      <trkpt lat="49.81526" lon="2.5612">
        <ele>94.8</ele>
        <time>2023-07-02T11:53:18Z</time>
      </trkpt>
      <trkpt lat="49.81526" lon="2.56122">
        <ele>94.8</ele>
        <time>2023-07-02T11:53:19Z</time>
      </trkpt>
      <trkpt lat="49.81526" lon="2.56123">
        <ele>94.8</ele>
        <time>2023-07-02T11:53:20Z</time>
      </trkpt>
      <trkpt lat="49.81525" lon="2.56126">
        <ele>94.7</ele>
        <time>2023-07-02T11:53:21Z</time>
      </trkpt>
      <trkpt lat="49.81525" lon="2.56127">
        <ele>94.7</ele>
        <time>2023-07-02T11:53:23Z</time>
      </trkpt>
      <trkpt lat="49.81525" lon="2.56128">
        <ele>94.7</ele>
        <time>2023-07-02T11:53:24Z</time>
      </trkpt>
      <trkpt lat="49.81524" lon="2.56132">
        <ele>94.7</ele>
        <time>2023-07-02T11:53:25Z</time>
      </trkpt>
      <trkpt lat="49.81524" lon="2.56133">
        <ele>94.6</ele>
        <time>2023-07-02T11:53:26Z</time>
      </trkpt>
      <trkpt lat="49.81524" lon="2.56134">
        <ele>94.6</ele>
        <time>2023-07-02T11:53:27Z</time>
      </trkpt>
      <trkpt lat="49.81523" lon="2.56136">
        <ele>94.6</ele>
        <time>2023-07-02T11:53:28Z</time>
      </trkpt>
      <trkpt lat="49.81523" lon="2.56137">
        <ele>94.6</ele>
        <time>2023-07-02T11:53:29Z</time>
      </trkpt>
      <trkpt lat="49.81522" lon="2.56139">
        <ele>94.5</ele>
        <time>2023-07-02T11:53:30Z</time>
      </trkpt>
      <trkpt lat="49.81522" lon="2.56141">
        <ele>94.5</ele>
        <time>2023-07-02T11:53:32Z</time>
      </trkpt>
      <trkpt lat="49.81521" lon="2.56143">
        <ele>94.5</ele>
        <time>2023-07-02T11:53:33Z</time>
      </trkpt>
      <trkpt lat="49.8152" lon="2.56146">
        <ele>94.4</ele>
        <time>2023-07-02T11:53:34Z</time>
      </trkpt>
      <trkpt lat="49.81519" lon="2.56147">
        <ele>94.4</ele>
        <time>2023-07-02T11:53:35Z</time>
      </trkpt>
      <trkpt lat="49.81519" lon="2.56148">
        <ele>94.4</ele>
        <time>2023-07-02T11:53:36Z</time>
      </trkpt>
      <trkpt lat="49.81519" lon="2.56149">
        <ele>94.3</ele>
        <time>2023-07-02T11:53:37Z</time>
      </trkpt>
      <trkpt lat="49.81518" lon="2.5615">
        <ele>94.3</ele>
        <time>2023-07-02T11:53:38Z</time>
      </trkpt>
      <trkpt lat="49.81518" lon="2.56152">
        <ele>94.3</ele>
        <time>2023-07-02T11:53:40Z</time>
      </trkpt>
      <trkpt lat="49.81518" lon="2.56154">
        <ele>94.2</ele>
        <time>2023-07-02T11:53:41Z</time>
      </trkpt>
      <trkpt lat="49.81517" lon="2.56155">
        <ele>94.2</ele>
        <time>2023-07-02T11:53:42Z</time>
      </trkpt>
      <trkpt lat="49.81517" lon="2.56156">
        <ele>94.2</ele>
        <time>2023-07-02T11:53:43Z</time>
      </trkpt>
      <trkpt lat="49.81516" lon="2.56158">
        <ele>94.2</ele>
        <time>2023-07-02T11:53:44Z</time>
      </trkpt>
      <trkpt lat="49.81516" lon="2.5616">
        <ele>94.1</ele>
        <time>2023-07-02T11:53:46Z</time>
      </trkpt>
      <trkpt lat="49.81516" lon="2.56161">
        <ele>94.1</ele>
        <time>2023-07-02T11:53:47Z</time>
      </trkpt>
      <trkpt lat="49.81517" lon="2.56161">
        <ele>94.1</ele>
        <time>2023-07-02T11:53:49Z</time>
      </trkpt>
      <trkpt lat="49.81517" lon="2.56161">
        <ele>94.1</ele>
        <time>2023-07-02T11:53:50Z</time>
      </trkpt>
      <trkpt lat="49.81517" lon="2.56161">
        <ele>94.1</ele>
        <time>2023-07-02T11:53:51Z</time>
      </trkpt>
      <trkpt lat="49.81516" lon="2.56161">
        <ele>94.1</ele>
        <time>2023-07-02T11:53:52Z</time>
      </trkpt>
      <trkpt lat="49.81516" lon="2.56162">
        <ele>94.1</ele>
        <time>2023-07-02T11:53:53Z</time>
      </trkpt>
      <trkpt lat="49.81516" lon="2.56163">
        <ele>94.1</ele>
        <time>2023-07-02T11:53:55Z</time>
      </trkpt>
      <trkpt lat="49.81515" lon="2.56164">
        <ele>94.1</ele>
        <time>2023-07-02T11:53:56Z</time>
      </trkpt>
      <trkpt lat="49.81515" lon="2.56165">
        <ele>94.1</ele>
        <time>2023-07-02T11:53:57Z</time>
      </trkpt>
      <trkpt lat="49.81514" lon="2.56166">
        <ele>94</ele>
        <time>2023-07-02T11:53:58Z</time>
      </trkpt>
      <trkpt lat="49.81514" lon="2.56168">
        <ele>94</ele>
        <time>2023-07-02T11:53:59Z</time>
      </trkpt>
      <trkpt lat="49.81513" lon="2.56171">
        <ele>94</ele>
        <time>2023-07-02T11:54:01Z</time>
      </trkpt>
      <trkpt lat="49.81513" lon="2.56171">
        <ele>94</ele>
        <time>2023-07-02T11:54:02Z</time>
      </trkpt>
      <trkpt lat="49.81513" lon="2.56172">
        <ele>94</ele>
        <time>2023-07-02T11:54:03Z</time>
      </trkpt>
      <trkpt lat="49.81513" lon="2.56173">
        <ele>93.9</ele>
        <time>2023-07-02T11:54:04Z</time>
      </trkpt>
      <trkpt lat="49.81513" lon="2.56174">
        <ele>93.9</ele>
        <time>2023-07-02T11:54:06Z</time>
      </trkpt>
      <trkpt lat="49.81513" lon="2.56176">
        <ele>93.9</ele>
        <time>2023-07-02T11:54:07Z</time>
      </trkpt>
      <trkpt lat="49.81512" lon="2.56179">
        <ele>93.9</ele>
        <time>2023-07-02T11:54:08Z</time>
      </trkpt>
      <trkpt lat="49.81512" lon="2.5618">
        <ele>93.9</ele>
        <time>2023-07-02T11:54:09Z</time>
      </trkpt>
      <trkpt lat="49.81512" lon="2.56181">
        <ele>93.8</ele>
        <time>2023-07-02T11:54:11Z</time>
      </trkpt>
      <trkpt lat="49.81512" lon="2.56183">
        <ele>93.8</ele>
        <time>2023-07-02T11:54:12Z</time>
      </trkpt>
      <trkpt lat="49.81512" lon="2.56184">
        <ele>93.8</ele>
        <time>2023-07-02T11:54:13Z</time>
      </trkpt>
      <trkpt lat="49.81511" lon="2.56186">
        <ele>93.8</ele>
        <time>2023-07-02T11:54:14Z</time>
      </trkpt>
      <trkpt lat="49.81511" lon="2.56188">
        <ele>93.8</ele>
        <time>2023-07-02T11:54:15Z</time>
      </trkpt>
      <trkpt lat="49.81511" lon="2.5619">
        <ele>93.7</ele>
        <time>2023-07-02T11:54:16Z</time>
      </trkpt>
      <trkpt lat="49.81511" lon="2.56193">
        <ele>93.7</ele>
        <time>2023-07-02T11:54:18Z</time>
      </trkpt>
      <trkpt lat="49.81511" lon="2.56195">
        <ele>93.6</ele>
        <time>2023-07-02T11:54:19Z</time>
      </trkpt>
      <trkpt lat="49.8151" lon="2.56198">
        <ele>93.6</ele>
        <time>2023-07-02T11:54:20Z</time>
      </trkpt>
      <trkpt lat="49.8151" lon="2.562">
        <ele>93.6</ele>
        <time>2023-07-02T11:54:21Z</time>
      </trkpt>
      <trkpt lat="49.81509" lon="2.56202">
        <ele>93.5</ele>
        <time>2023-07-02T11:54:22Z</time>
      </trkpt>
      <trkpt lat="49.81509" lon="2.56204">
        <ele>93.5</ele>
        <time>2023-07-02T11:54:23Z</time>
      </trkpt>
      <trkpt lat="49.81508" lon="2.56207">
        <ele>93.4</ele>
        <time>2023-07-02T11:54:25Z</time>
      </trkpt>
      <trkpt lat="49.81508" lon="2.56208">
        <ele>93.4</ele>
        <time>2023-07-02T11:54:26Z</time>
      </trkpt>
      <trkpt lat="49.81508" lon="2.56209">
        <ele>93.4</ele>
        <time>2023-07-02T11:54:27Z</time>
      </trkpt>
      <trkpt lat="49.81508" lon="2.56211">
        <ele>93.4</ele>
        <time>2023-07-02T11:54:28Z</time>
      </trkpt>
      <trkpt lat="49.81507" lon="2.56212">
        <ele>93.3</ele>
        <time>2023-07-02T11:54:29Z</time>
      </trkpt>
      <trkpt lat="49.81507" lon="2.56214">
        <ele>93.3</ele>
        <time>2023-07-02T11:54:31Z</time>
      </trkpt>
      <trkpt lat="49.81507" lon="2.56217">
        <ele>93.2</ele>
        <time>2023-07-02T11:54:32Z</time>
      </trkpt>
      <trkpt lat="49.81507" lon="2.56219">
        <ele>93.1</ele>
        <time>2023-07-02T11:54:33Z</time>
      </trkpt>
      <trkpt lat="49.81506" lon="2.56221">
        <ele>93.1</ele>
        <time>2023-07-02T11:54:34Z</time>
      </trkpt>
      <trkpt lat="49.81506" lon="2.56223">
        <ele>93</ele>
        <time>2023-07-02T11:54:35Z</time>
      </trkpt>
      <trkpt lat="49.81505" lon="2.56226">
        <ele>93</ele>
        <time>2023-07-02T11:54:37Z</time>
      </trkpt>
      <trkpt lat="49.81505" lon="2.56227">
        <ele>92.9</ele>
        <time>2023-07-02T11:54:38Z</time>
      </trkpt>
      <trkpt lat="49.81505" lon="2.56228">
        <ele>92.9</ele>
        <time>2023-07-02T11:54:39Z</time>
      </trkpt>
      <trkpt lat="49.81503" lon="2.56231">
        <ele>92.8</ele>
        <time>2023-07-02T11:54:40Z</time>
      </trkpt>
      <trkpt lat="49.81503" lon="2.56232">
        <ele>92.8</ele>
        <time>2023-07-02T11:54:41Z</time>
      </trkpt>
      <trkpt lat="49.81502" lon="2.56233">
        <ele>92.7</ele>
        <time>2023-07-02T11:54:42Z</time>
      </trkpt>
      <trkpt lat="49.81501" lon="2.56235">
        <ele>92.7</ele>
        <time>2023-07-02T11:54:43Z</time>
      </trkpt>
      <trkpt lat="49.81501" lon="2.56237">
        <ele>92.7</ele>
        <time>2023-07-02T11:54:45Z</time>
      </trkpt>
      <trkpt lat="49.81501" lon="2.56238">
        <ele>92.6</ele>
        <time>2023-07-02T11:54:46Z</time>
      </trkpt>
      <trkpt lat="49.815" lon="2.5624">
        <ele>92.6</ele>
        <time>2023-07-02T11:54:47Z</time>
      </trkpt>
      <trkpt lat="49.815" lon="2.56242">
        <ele>92.6</ele>
        <time>2023-07-02T11:54:48Z</time>
      </trkpt>
      <trkpt lat="49.81499" lon="2.56243">
        <ele>92.6</ele>
        <time>2023-07-02T11:54:49Z</time>
      </trkpt>
      <trkpt lat="49.81499" lon="2.56245">
        <ele>92.5</ele>
        <time>2023-07-02T11:54:50Z</time>
      </trkpt>
      <trkpt lat="49.81498" lon="2.56246">
        <ele>92.5</ele>
        <time>2023-07-02T11:54:52Z</time>
      </trkpt>
      <trkpt lat="49.81498" lon="2.56248">
        <ele>92.5</ele>
        <time>2023-07-02T11:54:53Z</time>
      </trkpt>
      <trkpt lat="49.81498" lon="2.5625">
        <ele>92.5</ele>
        <time>2023-07-02T11:54:54Z</time>
      </trkpt>
      <trkpt lat="49.81497" lon="2.56251">
        <ele>92.5</ele>
        <time>2023-07-02T11:54:55Z</time>
      </trkpt>
      <trkpt lat="49.81497" lon="2.56253">
        <ele>92.4</ele>
        <time>2023-07-02T11:54:56Z</time>
      </trkpt>
      <trkpt lat="49.81497" lon="2.56255">
        <ele>92.4</ele>
        <time>2023-07-02T11:54:57Z</time>
      </trkpt>
      <trkpt lat="49.81496" lon="2.56257">
        <ele>92.4</ele>
        <time>2023-07-02T11:54:58Z</time>
      </trkpt>
      <trkpt lat="49.81496" lon="2.56259">
        <ele>92.4</ele>
        <time>2023-07-02T11:55:00Z</time>
      </trkpt>
      <trkpt lat="49.81495" lon="2.5626">
        <ele>92.4</ele>
        <time>2023-07-02T11:55:01Z</time>
      </trkpt>
      <trkpt lat="49.81495" lon="2.56262">
        <ele>92.3</ele>
        <time>2023-07-02T11:55:02Z</time>
      </trkpt>
      <trkpt lat="49.81495" lon="2.56264">
        <ele>92.3</ele>
        <time>2023-07-02T11:55:03Z</time>
      </trkpt>
      <trkpt lat="49.81495" lon="2.56265">
        <ele>92.3</ele>
        <time>2023-07-02T11:55:04Z</time>
      </trkpt>
      <trkpt lat="49.81494" lon="2.56267">
        <ele>92.3</ele>
        <time>2023-07-02T11:55:05Z</time>
      </trkpt>
      <trkpt lat="49.81494" lon="2.56269">
        <ele>92.3</ele>
        <time>2023-07-02T11:55:06Z</time>
      </trkpt>
      <trkpt lat="49.81493" lon="2.56271">
        <ele>92.2</ele>
        <time>2023-07-02T11:55:08Z</time>
      </trkpt>
      <trkpt lat="49.81493" lon="2.56273">
        <ele>92.2</ele>
        <time>2023-07-02T11:55:09Z</time>
      </trkpt>
      <trkpt lat="49.81493" lon="2.56275">
        <ele>92.2</ele>
        <time>2023-07-02T11:55:10Z</time>
      </trkpt>
      <trkpt lat="49.81492" lon="2.56277">
        <ele>92.2</ele>
        <time>2023-07-02T11:55:11Z</time>
      </trkpt>
      <trkpt lat="49.81491" lon="2.5628">
        <ele>92.2</ele>
        <time>2023-07-02T11:55:12Z</time>
      </trkpt>
      <trkpt lat="49.81491" lon="2.56282">
        <ele>92.2</ele>
        <time>2023-07-02T11:55:13Z</time>
      </trkpt>
      <trkpt lat="49.81491" lon="2.56283">
        <ele>92.2</ele>
        <time>2023-07-02T11:55:15Z</time>
      </trkpt>
      <trkpt lat="49.8149" lon="2.56285">
        <ele>92.2</ele>
        <time>2023-07-02T11:55:16Z</time>
      </trkpt>
      <trkpt lat="49.8149" lon="2.56286">
        <ele>92.2</ele>
        <time>2023-07-02T11:55:17Z</time>
      </trkpt>
      <trkpt lat="49.8149" lon="2.56288">
        <ele>92.2</ele>
        <time>2023-07-02T11:55:18Z</time>
      </trkpt>
      <trkpt lat="49.8149" lon="2.56289">
        <ele>92.2</ele>
        <time>2023-07-02T11:55:19Z</time>
      </trkpt>
      <trkpt lat="49.8149" lon="2.56291">
        <ele>92.2</ele>
        <time>2023-07-02T11:55:21Z</time>
      </trkpt>
      <trkpt lat="49.81489" lon="2.56293">
        <ele>92.2</ele>
        <time>2023-07-02T11:55:22Z</time>
      </trkpt>
      <trkpt lat="49.81489" lon="2.56294">
        <ele>92.2</ele>
        <time>2023-07-02T11:55:23Z</time>
      </trkpt>
      <trkpt lat="49.81489" lon="2.56295">
        <ele>92.2</ele>
        <time>2023-07-02T11:55:24Z</time>
      </trkpt>
      <trkpt lat="49.81488" lon="2.56295">
        <ele>92.3</ele>
        <time>2023-07-02T11:55:25Z</time>
      </trkpt>
      <trkpt lat="49.81488" lon="2.56295">
        <ele>92.3</ele>
        <time>2023-07-02T11:55:26Z</time>
      </trkpt>
      <trkpt lat="49.81489" lon="2.56295">
        <ele>92.3</ele>
        <time>2023-07-02T11:55:27Z</time>
      </trkpt>
      <trkpt lat="49.81489" lon="2.56295">
        <ele>92.3</ele>
        <time>2023-07-02T11:55:29Z</time>
      </trkpt>
      <trkpt lat="49.81489" lon="2.56294">
        <ele>92.3</ele>
        <time>2023-07-02T11:55:30Z</time>
      </trkpt>
      <trkpt lat="49.8149" lon="2.56294">
        <ele>92.3</ele>
        <time>2023-07-02T11:55:32Z</time>
      </trkpt>
      <trkpt lat="49.8149" lon="2.56294">
        <ele>92.3</ele>
        <time>2023-07-02T11:55:33Z</time>
      </trkpt>
      <trkpt lat="49.8149" lon="2.56293">
        <ele>92.3</ele>
        <time>2023-07-02T11:55:35Z</time>
      </trkpt>
      <trkpt lat="49.8149" lon="2.56293">
        <ele>92.3</ele>
        <time>2023-07-02T11:55:36Z</time>
      </trkpt>
      <trkpt lat="49.8149" lon="2.56293">
        <ele>92.3</ele>
        <time>2023-07-02T11:55:38Z</time>
      </trkpt>
      <trkpt lat="49.8149" lon="2.56293">
        <ele>92.3</ele>
        <time>2023-07-02T11:55:39Z</time>
      </trkpt>
      <trkpt lat="49.8149" lon="2.56293">
        <ele>92.3</ele>
        <time>2023-07-02T11:55:40Z</time>
      </trkpt>
      <trkpt lat="49.81491" lon="2.56293">
        <ele>92.4</ele>
        <time>2023-07-02T11:55:42Z</time>
      </trkpt>
      <trkpt lat="49.81491" lon="2.56293">
        <ele>92.4</ele>
        <time>2023-07-02T11:55:43Z</time>
      </trkpt>
      <trkpt lat="49.81491" lon="2.56292">
        <ele>92.4</ele>
        <time>2023-07-02T11:55:45Z</time>
      </trkpt>
      <trkpt lat="49.81491" lon="2.56292">
        <ele>92.4</ele>
        <time>2023-07-02T11:55:46Z</time>
      </trkpt>
      <trkpt lat="49.81491" lon="2.56291">
        <ele>92.4</ele>
        <time>2023-07-02T11:55:47Z</time>
      </trkpt>
      <trkpt lat="49.81491" lon="2.56291">
        <ele>92.4</ele>
        <time>2023-07-02T11:55:48Z</time>
      </trkpt>
      <trkpt lat="49.81491" lon="2.56291">
        <ele>92.4</ele>
        <time>2023-07-02T11:55:49Z</time>
      </trkpt>
      <trkpt lat="49.81491" lon="2.56291">
        <ele>92.4</ele>
        <time>2023-07-02T11:55:50Z</time>
      </trkpt>
      <trkpt lat="49.81491" lon="2.56291">
        <ele>92.4</ele>
        <time>2023-07-02T11:55:51Z</time>
      </trkpt>
      <trkpt lat="49.81491" lon="2.56291">
        <ele>92.4</ele>
        <time>2023-07-02T11:55:52Z</time>
      </trkpt>
      <trkpt lat="49.81491" lon="2.56291">
        <ele>92.4</ele>
        <time>2023-07-02T11:55:53Z</time>
      </trkpt>
      <trkpt lat="49.81491" lon="2.56291">
        <ele>92.4</ele>
        <time>2023-07-02T11:55:54Z</time>
      </trkpt>
      <trkpt lat="49.81491" lon="2.56291">
        <ele>92.4</ele>
        <time>2023-07-02T11:55:55Z</time>
      </trkpt>
      <trkpt lat="49.81491" lon="2.56291">
        <ele>92.4</ele>
        <time>2023-07-02T11:55:56Z</time>
      </trkpt>
      <trkpt lat="49.81491" lon="2.56291">
        <ele>92.4</ele>
        <time>2023-07-02T11:55:57Z</time>
      </trkpt>
      <trkpt lat="49.81491" lon="2.56292">
        <ele>92.4</ele>
        <time>2023-07-02T11:55:58Z</time>
      </trkpt>
      <trkpt lat="49.81491" lon="2.56292">
        <ele>92.4</ele>
        <time>2023-07-02T11:55:59Z</time>
      </trkpt>
      <trkpt lat="49.81491" lon="2.56293">
        <ele>92.5</ele>
        <time>2023-07-02T11:56:00Z</time>
      </trkpt>
      <trkpt lat="49.8149" lon="2.56293">
        <ele>92.5</ele>
        <time>2023-07-02T11:56:01Z</time>
      </trkpt>
      <trkpt lat="49.81489" lon="2.56294">
        <ele>92.5</ele>
        <time>2023-07-02T11:56:03Z</time>
      </trkpt>
      <trkpt lat="49.81489" lon="2.56296">
        <ele>92.5</ele>
        <time>2023-07-02T11:56:04Z</time>
      </trkpt>
      <trkpt lat="49.81489" lon="2.56297">
        <ele>92.6</ele>
        <time>2023-07-02T11:56:05Z</time>
      </trkpt>
      <trkpt lat="49.81489" lon="2.56298">
        <ele>92.6</ele>
        <time>2023-07-02T11:56:06Z</time>
      </trkpt>
      <trkpt lat="49.81489" lon="2.56299">
        <ele>92.6</ele>
        <time>2023-07-02T11:56:07Z</time>
      </trkpt>
      <trkpt lat="49.81488" lon="2.56301">
        <ele>92.6</ele>
        <time>2023-07-02T11:56:09Z</time>
      </trkpt>
      <trkpt lat="49.81488" lon="2.56303">
        <ele>92.7</ele>
        <time>2023-07-02T11:56:10Z</time>
      </trkpt>
      <trkpt lat="49.81488" lon="2.56305">
        <ele>92.7</ele>
        <time>2023-07-02T11:56:11Z</time>
      </trkpt>
      <trkpt lat="49.81488" lon="2.56308">
        <ele>92.8</ele>
        <time>2023-07-02T11:56:12Z</time>
      </trkpt>
      <trkpt lat="49.81488" lon="2.56309">
        <ele>92.8</ele>
        <time>2023-07-02T11:56:14Z</time>
      </trkpt>
      <trkpt lat="49.81488" lon="2.56311">
        <ele>92.8</ele>
        <time>2023-07-02T11:56:15Z</time>
      </trkpt>
      <trkpt lat="49.81489" lon="2.56312">
        <ele>92.8</ele>
        <time>2023-07-02T11:56:16Z</time>
      </trkpt>
      <trkpt lat="49.81489" lon="2.56314">
        <ele>92.9</ele>
        <time>2023-07-02T11:56:17Z</time>
      </trkpt>
      <trkpt lat="49.81489" lon="2.56316">
        <ele>92.9</ele>
        <time>2023-07-02T11:56:18Z</time>
      </trkpt>
      <trkpt lat="49.81489" lon="2.56318">
        <ele>92.9</ele>
        <time>2023-07-02T11:56:20Z</time>
      </trkpt>
      <trkpt lat="49.81488" lon="2.56319">
        <ele>92.9</ele>
        <time>2023-07-02T11:56:21Z</time>
      </trkpt>
      <trkpt lat="49.81488" lon="2.5632">
        <ele>93</ele>
        <time>2023-07-02T11:56:22Z</time>
      </trkpt>
      <trkpt lat="49.81487" lon="2.56321">
        <ele>93</ele>
        <time>2023-07-02T11:56:23Z</time>
      </trkpt>
      <trkpt lat="49.81487" lon="2.56323">
        <ele>93</ele>
        <time>2023-07-02T11:56:24Z</time>
      </trkpt>
      <trkpt lat="49.81487" lon="2.56326">
        <ele>93</ele>
        <time>2023-07-02T11:56:26Z</time>
      </trkpt>
      <trkpt lat="49.81486" lon="2.56329">
        <ele>93.1</ele>
        <time>2023-07-02T11:56:27Z</time>
      </trkpt>
      <trkpt lat="49.81486" lon="2.56331">
        <ele>93.1</ele>
        <time>2023-07-02T11:56:28Z</time>
      </trkpt>
      <trkpt lat="49.81486" lon="2.56332">
        <ele>93.1</ele>
        <time>2023-07-02T11:56:30Z</time>
      </trkpt>
      <trkpt lat="49.81486" lon="2.56334">
        <ele>93.1</ele>
        <time>2023-07-02T11:56:31Z</time>
      </trkpt>
      <trkpt lat="49.81485" lon="2.56336">
        <ele>93.2</ele>
        <time>2023-07-02T11:56:32Z</time>
      </trkpt>
      <trkpt lat="49.81485" lon="2.56337">
        <ele>93.2</ele>
        <time>2023-07-02T11:56:33Z</time>
      </trkpt>
      <trkpt lat="49.81485" lon="2.5634">
        <ele>93.2</ele>
        <time>2023-07-02T11:56:34Z</time>
      </trkpt>
      <trkpt lat="49.81485" lon="2.56343">
        <ele>93.2</ele>
        <time>2023-07-02T11:56:35Z</time>
      </trkpt>
      <trkpt lat="49.81485" lon="2.56347">
        <ele>93.3</ele>
        <time>2023-07-02T11:56:37Z</time>
      </trkpt>
      <trkpt lat="49.81485" lon="2.56349">
        <ele>93.3</ele>
        <time>2023-07-02T11:56:38Z</time>
      </trkpt>
      <trkpt lat="49.81485" lon="2.56351">
        <ele>93.3</ele>
        <time>2023-07-02T11:56:39Z</time>
      </trkpt>
      <trkpt lat="49.81484" lon="2.56353">
        <ele>93.3</ele>
        <time>2023-07-02T11:56:41Z</time>
      </trkpt>
      <trkpt lat="49.81484" lon="2.56356">
        <ele>93.3</ele>
        <time>2023-07-02T11:56:42Z</time>
      </trkpt>
      <trkpt lat="49.81484" lon="2.56358">
        <ele>93.3</ele>
        <time>2023-07-02T11:56:43Z</time>
      </trkpt>
      <trkpt lat="49.81484" lon="2.5636">
        <ele>93.3</ele>
        <time>2023-07-02T11:56:44Z</time>
      </trkpt>
      <trkpt lat="49.81483" lon="2.56361">
        <ele>93.3</ele>
        <time>2023-07-02T11:56:45Z</time>
      </trkpt>
      <trkpt lat="49.81483" lon="2.56363">
        <ele>93.3</ele>
        <time>2023-07-02T11:56:47Z</time>
      </trkpt>
      <trkpt lat="49.81483" lon="2.56365">
        <ele>93.3</ele>
        <time>2023-07-02T11:56:48Z</time>
      </trkpt>
      <trkpt lat="49.81483" lon="2.56366">
        <ele>93.3</ele>
        <time>2023-07-02T11:56:49Z</time>
      </trkpt>
      <trkpt lat="49.81482" lon="2.56368">
        <ele>93.4</ele>
        <time>2023-07-02T11:56:50Z</time>
      </trkpt>
      <trkpt lat="49.81482" lon="2.56369">
        <ele>93.4</ele>
        <time>2023-07-02T11:56:51Z</time>
      </trkpt>
      <trkpt lat="49.81481" lon="2.5637">
        <ele>93.4</ele>
        <time>2023-07-02T11:56:53Z</time>
      </trkpt>
      <trkpt lat="49.81481" lon="2.56372">
        <ele>93.4</ele>
        <time>2023-07-02T11:56:54Z</time>
      </trkpt>
      <trkpt lat="49.8148" lon="2.56374">
        <ele>93.4</ele>
        <time>2023-07-02T11:56:55Z</time>
      </trkpt>
      <trkpt lat="49.81479" lon="2.56376">
        <ele>93.4</ele>
        <time>2023-07-02T11:56:56Z</time>
      </trkpt>
      <trkpt lat="49.81479" lon="2.56379">
        <ele>93.4</ele>
        <time>2023-07-02T11:56:57Z</time>
      </trkpt>
      <trkpt lat="49.81478" lon="2.5638">
        <ele>93.4</ele>
        <time>2023-07-02T11:56:58Z</time>
      </trkpt>
      <trkpt lat="49.81478" lon="2.56382">
        <ele>93.4</ele>
        <time>2023-07-02T11:57:00Z</time>
      </trkpt>
      <trkpt lat="49.81478" lon="2.56383">
        <ele>93.4</ele>
        <time>2023-07-02T11:57:01Z</time>
      </trkpt>
      <trkpt lat="49.81477" lon="2.56385">
        <ele>93.4</ele>
        <time>2023-07-02T11:57:02Z</time>
      </trkpt>
      <trkpt lat="49.81477" lon="2.56386">
        <ele>93.4</ele>
        <time>2023-07-02T11:57:03Z</time>
      </trkpt>
      <trkpt lat="49.81476" lon="2.56388">
        <ele>93.4</ele>
        <time>2023-07-02T11:57:04Z</time>
      </trkpt>
      <trkpt lat="49.81476" lon="2.5639">
        <ele>93.4</ele>
        <time>2023-07-02T11:57:05Z</time>
      </trkpt>
      <trkpt lat="49.81476" lon="2.56393">
        <ele>93.4</ele>
        <time>2023-07-02T11:57:07Z</time>
      </trkpt>
      <trkpt lat="49.81475" lon="2.56395">
        <ele>93.4</ele>
        <time>2023-07-02T11:57:08Z</time>
      </trkpt>
      <trkpt lat="49.81475" lon="2.56396">
        <ele>93.4</ele>
        <time>2023-07-02T11:57:09Z</time>
      </trkpt>
      <trkpt lat="49.81475" lon="2.56399">
        <ele>93.4</ele>
        <time>2023-07-02T11:57:10Z</time>
      </trkpt>
      <trkpt lat="49.81474" lon="2.56401">
        <ele>93.4</ele>
        <time>2023-07-02T11:57:11Z</time>
      </trkpt>
      <trkpt lat="49.81474" lon="2.56402">
        <ele>93.4</ele>
        <time>2023-07-02T11:57:12Z</time>
      </trkpt>
      <trkpt lat="49.81474" lon="2.56404">
        <ele>93.5</ele>
        <time>2023-07-02T11:57:13Z</time>
      </trkpt>
      <trkpt lat="49.81474" lon="2.56406">
        <ele>93.5</ele>
        <time>2023-07-02T11:57:14Z</time>
      </trkpt>
      <trkpt lat="49.81473" lon="2.56408">
        <ele>93.5</ele>
        <time>2023-07-02T11:57:16Z</time>
      </trkpt>
      <trkpt lat="49.81473" lon="2.56409">
        <ele>93.5</ele>
        <time>2023-07-02T11:57:17Z</time>
      </trkpt>
      <trkpt lat="49.81473" lon="2.56411">
        <ele>93.5</ele>
        <time>2023-07-02T11:57:18Z</time>
      </trkpt>
      <trkpt lat="49.81473" lon="2.56413">
        <ele>93.5</ele>
        <time>2023-07-02T11:57:19Z</time>
      </trkpt>
      <trkpt lat="49.81472" lon="2.56414">
        <ele>93.5</ele>
        <time>2023-07-02T11:57:20Z</time>
      </trkpt>
      <trkpt lat="49.81472" lon="2.56416">
        <ele>93.5</ele>
        <time>2023-07-02T11:57:21Z</time>
      </trkpt>
      <trkpt lat="49.81472" lon="2.56418">
        <ele>93.5</ele>
        <time>2023-07-02T11:57:22Z</time>
      </trkpt>
      <trkpt lat="49.81472" lon="2.5642">
        <ele>93.5</ele>
        <time>2023-07-02T11:57:24Z</time>
      </trkpt>
      <trkpt lat="49.81472" lon="2.56422">
        <ele>93.5</ele>
        <time>2023-07-02T11:57:25Z</time>
      </trkpt>
      <trkpt lat="49.81472" lon="2.56423">
        <ele>93.5</ele>
        <time>2023-07-02T11:57:26Z</time>
      </trkpt>
      <trkpt lat="49.81472" lon="2.56427">
        <ele>93.5</ele>
        <time>2023-07-02T11:57:27Z</time>
      </trkpt>
      <trkpt lat="49.81472" lon="2.56428">
        <ele>93.5</ele>
        <time>2023-07-02T11:57:28Z</time>
      </trkpt>
      <trkpt lat="49.81472" lon="2.56429">
        <ele>93.5</ele>
        <time>2023-07-02T11:57:29Z</time>
      </trkpt>
      <trkpt lat="49.81472" lon="2.56431">
        <ele>93.5</ele>
        <time>2023-07-02T11:57:31Z</time>
      </trkpt>
      <trkpt lat="49.81471" lon="2.56433">
        <ele>93.5</ele>
        <time>2023-07-02T11:57:32Z</time>
      </trkpt>
      <trkpt lat="49.81471" lon="2.56434">
        <ele>93.5</ele>
        <time>2023-07-02T11:57:33Z</time>
      </trkpt>
      <trkpt lat="49.8147" lon="2.56436">
        <ele>93.5</ele>
        <time>2023-07-02T11:57:34Z</time>
      </trkpt>
      <trkpt lat="49.8147" lon="2.56438">
        <ele>93.5</ele>
        <time>2023-07-02T11:57:35Z</time>
      </trkpt>
      <trkpt lat="49.8147" lon="2.56439">
        <ele>93.5</ele>
        <time>2023-07-02T11:57:36Z</time>
      </trkpt>
      <trkpt lat="49.81469" lon="2.56442">
        <ele>93.5</ele>
        <time>2023-07-02T11:57:38Z</time>
      </trkpt>
      <trkpt lat="49.81469" lon="2.56444">
        <ele>93.5</ele>
        <time>2023-07-02T11:57:39Z</time>
      </trkpt>
      <trkpt lat="49.81469" lon="2.56445">
        <ele>93.5</ele>
        <time>2023-07-02T11:57:40Z</time>
      </trkpt>
      <trkpt lat="49.81468" lon="2.56447">
        <ele>93.5</ele>
        <time>2023-07-02T11:57:41Z</time>
      </trkpt>
      <trkpt lat="49.81468" lon="2.56449">
        <ele>93.5</ele>
        <time>2023-07-02T11:57:42Z</time>
      </trkpt>
      <trkpt lat="49.81467" lon="2.56452">
        <ele>93.5</ele>
        <time>2023-07-02T11:57:44Z</time>
      </trkpt>
      <trkpt lat="49.81467" lon="2.56454">
        <ele>93.5</ele>
        <time>2023-07-02T11:57:45Z</time>
      </trkpt>
      <trkpt lat="49.81467" lon="2.56456">
        <ele>93.5</ele>
        <time>2023-07-02T11:57:46Z</time>
      </trkpt>
      <trkpt lat="49.81467" lon="2.56459">
        <ele>93.5</ele>
        <time>2023-07-02T11:57:47Z</time>
      </trkpt>
      <trkpt lat="49.81466" lon="2.56461">
        <ele>93.5</ele>
        <time>2023-07-02T11:57:49Z</time>
      </trkpt>
      <trkpt lat="49.81466" lon="2.56463">
        <ele>93.5</ele>
        <time>2023-07-02T11:57:50Z</time>
      </trkpt>
      <trkpt lat="49.81466" lon="2.56465">
        <ele>93.4</ele>
        <time>2023-07-02T11:57:51Z</time>
      </trkpt>
      <trkpt lat="49.81466" lon="2.56466">
        <ele>93.4</ele>
        <time>2023-07-02T11:57:52Z</time>
      </trkpt>
      <trkpt lat="49.81466" lon="2.5647">
        <ele>93.4</ele>
        <time>2023-07-02T11:57:54Z</time>
      </trkpt>
      <trkpt lat="49.81466" lon="2.56471">
        <ele>93.4</ele>
        <time>2023-07-02T11:57:55Z</time>
      </trkpt>
      <trkpt lat="49.81466" lon="2.56472">
        <ele>93.4</ele>
        <time>2023-07-02T11:57:56Z</time>
      </trkpt>
      <trkpt lat="49.81466" lon="2.56475">
        <ele>93.4</ele>
        <time>2023-07-02T11:57:57Z</time>
      </trkpt>
      <trkpt lat="49.81466" lon="2.56477">
        <ele>93.4</ele>
        <time>2023-07-02T11:57:58Z</time>
      </trkpt>
      <trkpt lat="49.81465" lon="2.56478">
        <ele>93.4</ele>
        <time>2023-07-02T11:57:59Z</time>
      </trkpt>
      <trkpt lat="49.81465" lon="2.56481">
        <ele>93.4</ele>
        <time>2023-07-02T11:58:01Z</time>
      </trkpt>
      <trkpt lat="49.81466" lon="2.56483">
        <ele>93.4</ele>
        <time>2023-07-02T11:58:02Z</time>
      </trkpt>
      <trkpt lat="49.81466" lon="2.56485">
        <ele>93.3</ele>
        <time>2023-07-02T11:58:03Z</time>
      </trkpt>
      <trkpt lat="49.81466" lon="2.56487">
        <ele>93.3</ele>
        <time>2023-07-02T11:58:04Z</time>
      </trkpt>
      <trkpt lat="49.81466" lon="2.56489">
        <ele>93.3</ele>
        <time>2023-07-02T11:58:05Z</time>
      </trkpt>
      <trkpt lat="49.81466" lon="2.56491">
        <ele>93.3</ele>
        <time>2023-07-02T11:58:07Z</time>
      </trkpt>
      <trkpt lat="49.81466" lon="2.56493">
        <ele>93.3</ele>
        <time>2023-07-02T11:58:08Z</time>
      </trkpt>
      <trkpt lat="49.81466" lon="2.56495">
        <ele>93.3</ele>
        <time>2023-07-02T11:58:09Z</time>
      </trkpt>
      <trkpt lat="49.81466" lon="2.56497">
        <ele>93.3</ele>
        <time>2023-07-02T11:58:10Z</time>
      </trkpt>
      <trkpt lat="49.81466" lon="2.56501">
        <ele>93.3</ele>
        <time>2023-07-02T11:58:11Z</time>
      </trkpt>
      <trkpt lat="49.81466" lon="2.56502">
        <ele>93.3</ele>
        <time>2023-07-02T11:58:12Z</time>
      </trkpt>
      <trkpt lat="49.81467" lon="2.56503">
        <ele>93.2</ele>
        <time>2023-07-02T11:58:13Z</time>
      </trkpt>
      <trkpt lat="49.81467" lon="2.56507">
        <ele>93.2</ele>
        <time>2023-07-02T11:58:14Z</time>
      </trkpt>
      <trkpt lat="49.81467" lon="2.56508">
        <ele>93.2</ele>
        <time>2023-07-02T11:58:16Z</time>
      </trkpt>
      <trkpt lat="49.81467" lon="2.56509">
        <ele>93.2</ele>
        <time>2023-07-02T11:58:17Z</time>
      </trkpt>
      <trkpt lat="49.81468" lon="2.56511">
        <ele>93.2</ele>
        <time>2023-07-02T11:58:18Z</time>
      </trkpt>
      <trkpt lat="49.81468" lon="2.56513">
        <ele>93.2</ele>
        <time>2023-07-02T11:58:19Z</time>
      </trkpt>
      <trkpt lat="49.81468" lon="2.56515">
        <ele>93.2</ele>
        <time>2023-07-02T11:58:20Z</time>
      </trkpt>
      <trkpt lat="49.81469" lon="2.56517">
        <ele>93.2</ele>
        <time>2023-07-02T11:58:21Z</time>
      </trkpt>
      <trkpt lat="49.81469" lon="2.56519">
        <ele>93.2</ele>
        <time>2023-07-02T11:58:22Z</time>
      </trkpt>
      <trkpt lat="49.81469" lon="2.56521">
        <ele>93.2</ele>
        <time>2023-07-02T11:58:23Z</time>
      </trkpt>
      <trkpt lat="49.81469" lon="2.56523">
        <ele>93.2</ele>
        <time>2023-07-02T11:58:24Z</time>
      </trkpt>
      <trkpt lat="49.8147" lon="2.56526">
        <ele>93.2</ele>
        <time>2023-07-02T11:58:26Z</time>
      </trkpt>
      <trkpt lat="49.8147" lon="2.56528">
        <ele>93.1</ele>
        <time>2023-07-02T11:58:27Z</time>
      </trkpt>
      <trkpt lat="49.8147" lon="2.5653">
        <ele>93.1</ele>
        <time>2023-07-02T11:58:28Z</time>
      </trkpt>
      <trkpt lat="49.8147" lon="2.56532">
        <ele>93.1</ele>
        <time>2023-07-02T11:58:30Z</time>
      </trkpt>
      <trkpt lat="49.81471" lon="2.56533">
        <ele>93.1</ele>
        <time>2023-07-02T11:58:31Z</time>
      </trkpt>
      <trkpt lat="49.81471" lon="2.56535">
        <ele>93.1</ele>
        <time>2023-07-02T11:58:32Z</time>
      </trkpt>
      <trkpt lat="49.81471" lon="2.56537">
        <ele>93.1</ele>
        <time>2023-07-02T11:58:33Z</time>
      </trkpt>
      <trkpt lat="49.81471" lon="2.56539">
        <ele>93.1</ele>
        <time>2023-07-02T11:58:34Z</time>
      </trkpt>
      <trkpt lat="49.81471" lon="2.5654">
        <ele>93.1</ele>
        <time>2023-07-02T11:58:35Z</time>
      </trkpt>
      <trkpt lat="49.81471" lon="2.56542">
        <ele>93.1</ele>
        <time>2023-07-02T11:58:36Z</time>
      </trkpt>
      <trkpt lat="49.81472" lon="2.56544">
        <ele>93.1</ele>
        <time>2023-07-02T11:58:37Z</time>
      </trkpt>
      <trkpt lat="49.81472" lon="2.56545">
        <ele>93.1</ele>
        <time>2023-07-02T11:58:39Z</time>
      </trkpt>
      <trkpt lat="49.81472" lon="2.56547">
        <ele>93.1</ele>
        <time>2023-07-02T11:58:40Z</time>
      </trkpt>
      <trkpt lat="49.81473" lon="2.56548">
        <ele>93.1</ele>
        <time>2023-07-02T11:58:41Z</time>
      </trkpt>
      <trkpt lat="49.81474" lon="2.56549">
        <ele>93.1</ele>
        <time>2023-07-02T11:58:42Z</time>
      </trkpt>
      <trkpt lat="49.81475" lon="2.56549">
        <ele>93</ele>
        <time>2023-07-02T11:58:43Z</time>
      </trkpt>
      <trkpt lat="49.81475" lon="2.5655">
        <ele>93</ele>
        <time>2023-07-02T11:58:45Z</time>
      </trkpt>
      <trkpt lat="49.81475" lon="2.56551">
        <ele>93</ele>
        <time>2023-07-02T11:58:46Z</time>
      </trkpt>
      <trkpt lat="49.81475" lon="2.56552">
        <ele>93</ele>
        <time>2023-07-02T11:58:47Z</time>
      </trkpt>
      <trkpt lat="49.81475" lon="2.56553">
        <ele>93</ele>
        <time>2023-07-02T11:58:48Z</time>
      </trkpt>
      <trkpt lat="49.81475" lon="2.56555">
        <ele>93</ele>
        <time>2023-07-02T11:58:49Z</time>
      </trkpt>
      <trkpt lat="49.81475" lon="2.56556">
        <ele>93</ele>
        <time>2023-07-02T11:58:50Z</time>
      </trkpt>
      <trkpt lat="49.81476" lon="2.56558">
        <ele>93</ele>
        <time>2023-07-02T11:58:52Z</time>
      </trkpt>
      <trkpt lat="49.81476" lon="2.5656">
        <ele>93</ele>
        <time>2023-07-02T11:58:53Z</time>
      </trkpt>
      <trkpt lat="49.81476" lon="2.56561">
        <ele>93</ele>
        <time>2023-07-02T11:58:54Z</time>
      </trkpt>
      <trkpt lat="49.81476" lon="2.56563">
        <ele>93</ele>
        <time>2023-07-02T11:58:55Z</time>
      </trkpt>
      <trkpt lat="49.81475" lon="2.56565">
        <ele>93</ele>
        <time>2023-07-02T11:58:56Z</time>
      </trkpt>
      <trkpt lat="49.81474" lon="2.56567">
        <ele>92.9</ele>
        <time>2023-07-02T11:58:58Z</time>
      </trkpt>
      <trkpt lat="49.81474" lon="2.56568">
        <ele>92.9</ele>
        <time>2023-07-02T11:58:59Z</time>
      </trkpt>
      <trkpt lat="49.81474" lon="2.56571">
        <ele>92.9</ele>
        <time>2023-07-02T11:59:00Z</time>
      </trkpt>
      <trkpt lat="49.81474" lon="2.56572">
        <ele>92.9</ele>
        <time>2023-07-02T11:59:01Z</time>
      </trkpt>
      <trkpt lat="49.81474" lon="2.56574">
        <ele>92.9</ele>
        <time>2023-07-02T11:59:02Z</time>
      </trkpt>
      <trkpt lat="49.81474" lon="2.56576">
        <ele>92.9</ele>
        <time>2023-07-02T11:59:03Z</time>
      </trkpt>
      <trkpt lat="49.81474" lon="2.56578">
        <ele>92.9</ele>
        <time>2023-07-02T11:59:04Z</time>
      </trkpt>
      <trkpt lat="49.81475" lon="2.5658">
        <ele>92.9</ele>
        <time>2023-07-02T11:59:06Z</time>
      </trkpt>
      <trkpt lat="49.81475" lon="2.56582">
        <ele>92.8</ele>
        <time>2023-07-02T11:59:07Z</time>
      </trkpt>
      <trkpt lat="49.81475" lon="2.56584">
        <ele>92.8</ele>
        <time>2023-07-02T11:59:08Z</time>
      </trkpt>
      <trkpt lat="49.81476" lon="2.56586">
        <ele>92.8</ele>
        <time>2023-07-02T11:59:09Z</time>
      </trkpt>
      <trkpt lat="49.81476" lon="2.56588">
        <ele>92.8</ele>
        <time>2023-07-02T11:59:10Z</time>
      </trkpt>
      <trkpt lat="49.81476" lon="2.56589">
        <ele>92.8</ele>
        <time>2023-07-02T11:59:11Z</time>
      </trkpt>
      <trkpt lat="49.81477" lon="2.56593">
        <ele>92.7</ele>
        <time>2023-07-02T11:59:12Z</time>
      </trkpt>
      <trkpt lat="49.81477" lon="2.56595">
        <ele>92.7</ele>
        <time>2023-07-02T11:59:14Z</time>
      </trkpt>
      <trkpt lat="49.81477" lon="2.56596">
        <ele>92.7</ele>
        <time>2023-07-02T11:59:15Z</time>
      </trkpt>
      <trkpt lat="49.81478" lon="2.56598">
        <ele>92.7</ele>
        <time>2023-07-02T11:59:16Z</time>
      </trkpt>
      <trkpt lat="49.81478" lon="2.566">
        <ele>92.7</ele>
        <time>2023-07-02T11:59:17Z</time>
      </trkpt>
      <trkpt lat="49.81479" lon="2.56603">
        <ele>92.7</ele>
        <time>2023-07-02T11:59:19Z</time>
      </trkpt>
      <trkpt lat="49.81479" lon="2.56605">
        <ele>92.6</ele>
        <time>2023-07-02T11:59:20Z</time>
      </trkpt>
      <trkpt lat="49.81479" lon="2.56606">
        <ele>92.6</ele>
        <time>2023-07-02T11:59:21Z</time>
      </trkpt>
      <trkpt lat="49.81479" lon="2.56607">
        <ele>92.6</ele>
        <time>2023-07-02T11:59:22Z</time>
      </trkpt>
      <trkpt lat="49.8148" lon="2.56609">
        <ele>92.6</ele>
        <time>2023-07-02T11:59:23Z</time>
      </trkpt>
      <trkpt lat="49.8148" lon="2.56611">
        <ele>92.6</ele>
        <time>2023-07-02T11:59:24Z</time>
      </trkpt>
      <trkpt lat="49.8148" lon="2.56613">
        <ele>92.6</ele>
        <time>2023-07-02T11:59:25Z</time>
      </trkpt>
      <trkpt lat="49.8148" lon="2.56615">
        <ele>92.5</ele>
        <time>2023-07-02T11:59:27Z</time>
      </trkpt>
      <trkpt lat="49.81481" lon="2.56617">
        <ele>92.5</ele>
        <time>2023-07-02T11:59:28Z</time>
      </trkpt>
      <trkpt lat="49.81481" lon="2.5662">
        <ele>92.5</ele>
        <time>2023-07-02T11:59:29Z</time>
      </trkpt>
      <trkpt lat="49.81482" lon="2.56621">
        <ele>92.5</ele>
        <time>2023-07-02T11:59:30Z</time>
      </trkpt>
      <trkpt lat="49.81482" lon="2.56622">
        <ele>92.5</ele>
        <time>2023-07-02T11:59:31Z</time>
      </trkpt>
      <trkpt lat="49.81482" lon="2.56624">
        <ele>92.5</ele>
        <time>2023-07-02T11:59:32Z</time>
      </trkpt>
      <trkpt lat="49.81483" lon="2.56626">
        <ele>92.5</ele>
        <time>2023-07-02T11:59:33Z</time>
      </trkpt>
      <trkpt lat="49.81484" lon="2.56629">
        <ele>92.5</ele>
        <time>2023-07-02T11:59:35Z</time>
      </trkpt>
      <trkpt lat="49.81484" lon="2.5663">
        <ele>92.5</ele>
        <time>2023-07-02T11:59:36Z</time>
      </trkpt>
      <trkpt lat="49.81484" lon="2.56631">
        <ele>92.4</ele>
        <time>2023-07-02T11:59:37Z</time>
      </trkpt>
      <trkpt lat="49.81485" lon="2.56634">
        <ele>92.4</ele>
        <time>2023-07-02T11:59:38Z</time>
      </trkpt>
      <trkpt lat="49.81486" lon="2.56635">
        <ele>92.4</ele>
        <time>2023-07-02T11:59:40Z</time>
      </trkpt>
      <trkpt lat="49.81486" lon="2.56636">
        <ele>92.4</ele>
        <time>2023-07-02T11:59:41Z</time>
      </trkpt>
      <trkpt lat="49.81487" lon="2.56637">
        <ele>92.3</ele>
        <time>2023-07-02T11:59:42Z</time>
      </trkpt>
      <trkpt lat="49.81488" lon="2.56637">
        <ele>92.3</ele>
        <time>2023-07-02T11:59:44Z</time>
      </trkpt>
      <trkpt lat="49.81489" lon="2.56638">
        <ele>92.3</ele>
        <time>2023-07-02T11:59:45Z</time>
      </trkpt>
      <trkpt lat="49.8149" lon="2.56639">
        <ele>92.3</ele>
        <time>2023-07-02T11:59:47Z</time>
      </trkpt>
      <trkpt lat="49.8149" lon="2.56639">
        <ele>92.3</ele>
        <time>2023-07-02T11:59:48Z</time>
      </trkpt>
      <trkpt lat="49.8149" lon="2.56638">
        <ele>92.2</ele>
        <time>2023-07-02T11:59:50Z</time>
      </trkpt>
      <trkpt lat="49.81489" lon="2.56637">
        <ele>92.2</ele>
        <time>2023-07-02T11:59:51Z</time>
      </trkpt>
      <trkpt lat="49.81489" lon="2.56636">
        <ele>92.2</ele>
        <time>2023-07-02T11:59:53Z</time>
      </trkpt>
      <trkpt lat="49.81489" lon="2.56636">
        <ele>92.2</ele>
        <time>2023-07-02T11:59:54Z</time>
      </trkpt>
      <trkpt lat="49.81489" lon="2.56636">
        <ele>92.2</ele>
        <time>2023-07-02T11:59:55Z</time>
      </trkpt>
      <trkpt lat="49.81489" lon="2.56636">
        <ele>92.2</ele>
        <time>2023-07-02T11:59:56Z</time>
      </trkpt>
      <trkpt lat="49.8149" lon="2.56636">
        <ele>92.2</ele>
        <time>2023-07-02T11:59:58Z</time>
      </trkpt>
      <trkpt lat="49.8149" lon="2.56635">
        <ele>92.2</ele>
        <time>2023-07-02T11:59:59Z</time>
      </trkpt>
      <trkpt lat="49.81491" lon="2.56635">
        <ele>92.1</ele>
        <time>2023-07-02T12:00:00Z</time>
      </trkpt>
      <trkpt lat="49.81492" lon="2.56635">
        <ele>92.1</ele>
        <time>2023-07-02T12:00:01Z</time>
      </trkpt>
      <trkpt lat="49.81493" lon="2.56633">
        <ele>92.1</ele>
        <time>2023-07-02T12:00:02Z</time>
      </trkpt>
      <trkpt lat="49.81493" lon="2.56633">
        <ele>92.1</ele>
        <time>2023-07-02T12:00:04Z</time>
      </trkpt>
      <trkpt lat="49.81493" lon="2.56633">
        <ele>92.1</ele>
        <time>2023-07-02T12:00:05Z</time>
      </trkpt>
      <trkpt lat="49.81494" lon="2.56632">
        <ele>92</ele>
        <time>2023-07-02T12:00:06Z</time>
      </trkpt>
      <trkpt lat="49.81494" lon="2.56632">
        <ele>92</ele>
        <time>2023-07-02T12:00:08Z</time>
      </trkpt>
      <trkpt lat="49.81495" lon="2.56632">
        <ele>92</ele>
        <time>2023-07-02T12:00:09Z</time>
      </trkpt>
      <trkpt lat="49.81495" lon="2.56631">
        <ele>92</ele>
        <time>2023-07-02T12:00:11Z</time>
      </trkpt>
      <trkpt lat="49.81495" lon="2.56631">
        <ele>92</ele>
        <time>2023-07-02T12:00:12Z</time>
      </trkpt>
      <trkpt lat="49.81496" lon="2.56631">
        <ele>92</ele>
        <time>2023-07-02T12:00:13Z</time>
      </trkpt>
      <trkpt lat="49.81496" lon="2.5663">
        <ele>91.9</ele>
        <time>2023-07-02T12:00:14Z</time>
      </trkpt>
      <trkpt lat="49.81497" lon="2.5663">
        <ele>91.9</ele>
        <time>2023-07-02T12:00:15Z</time>
      </trkpt>
      <trkpt lat="49.81498" lon="2.5663">
        <ele>91.9</ele>
        <time>2023-07-02T12:00:16Z</time>
      </trkpt>
      <trkpt lat="49.81499" lon="2.56631">
        <ele>91.8</ele>
        <time>2023-07-02T12:00:17Z</time>
      </trkpt>
      <trkpt lat="49.81501" lon="2.56632">
        <ele>91.7</ele>
        <time>2023-07-02T12:00:19Z</time>
      </trkpt>
      <trkpt lat="49.81502" lon="2.56632">
        <ele>91.7</ele>
        <time>2023-07-02T12:00:20Z</time>
      </trkpt>
      <trkpt lat="49.81503" lon="2.56632">
        <ele>91.7</ele>
        <time>2023-07-02T12:00:21Z</time>
      </trkpt>
      <trkpt lat="49.81504" lon="2.56632">
        <ele>91.6</ele>
        <time>2023-07-02T12:00:22Z</time>
      </trkpt>
      <trkpt lat="49.81505" lon="2.56632">
        <ele>91.6</ele>
        <time>2023-07-02T12:00:23Z</time>
      </trkpt>
      <trkpt lat="49.81506" lon="2.56632">
        <ele>91.6</ele>
        <time>2023-07-02T12:00:24Z</time>
      </trkpt>
      <trkpt lat="49.81507" lon="2.56632">
        <ele>91.5</ele>
        <time>2023-07-02T12:00:26Z</time>
      </trkpt>
      <trkpt lat="49.81508" lon="2.56631">
        <ele>91.5</ele>
        <time>2023-07-02T12:00:27Z</time>
      </trkpt>
      <trkpt lat="49.81508" lon="2.5663">
        <ele>91.5</ele>
        <time>2023-07-02T12:00:28Z</time>
      </trkpt>
      <trkpt lat="49.81509" lon="2.56629">
        <ele>91.4</ele>
        <time>2023-07-02T12:00:29Z</time>
      </trkpt>
      <trkpt lat="49.8151" lon="2.56629">
        <ele>91.4</ele>
        <time>2023-07-02T12:00:30Z</time>
      </trkpt>
      <trkpt lat="49.81511" lon="2.56628">
        <ele>91.3</ele>
        <time>2023-07-02T12:00:31Z</time>
      </trkpt>
      <trkpt lat="49.81513" lon="2.56628">
        <ele>91.3</ele>
        <time>2023-07-02T12:00:33Z</time>
      </trkpt>
      <trkpt lat="49.81516" lon="2.56627">
        <ele>91.2</ele>
        <time>2023-07-02T12:00:34Z</time>
      </trkpt>
      <trkpt lat="49.81517" lon="2.56627">
        <ele>91.1</ele>
        <time>2023-07-02T12:00:35Z</time>
      </trkpt>
      <trkpt lat="49.81518" lon="2.56627">
        <ele>91.1</ele>
        <time>2023-07-02T12:00:36Z</time>
      </trkpt>
      <trkpt lat="49.8152" lon="2.56626">
        <ele>91</ele>
        <time>2023-07-02T12:00:37Z</time>
      </trkpt>
      <trkpt lat="49.81521" lon="2.56626">
        <ele>91</ele>
        <time>2023-07-02T12:00:38Z</time>
      </trkpt>
      <trkpt lat="49.81522" lon="2.56626">
        <ele>90.9</ele>
        <time>2023-07-02T12:00:39Z</time>
      </trkpt>
      <trkpt lat="49.81524" lon="2.56626">
        <ele>90.8</ele>
        <time>2023-07-02T12:00:41Z</time>
      </trkpt>
      <trkpt lat="49.81525" lon="2.56626">
        <ele>90.8</ele>
        <time>2023-07-02T12:00:42Z</time>
      </trkpt>
      <trkpt lat="49.81527" lon="2.56625">
        <ele>90.7</ele>
        <time>2023-07-02T12:00:43Z</time>
      </trkpt>
      <trkpt lat="49.81528" lon="2.56625">
        <ele>90.7</ele>
        <time>2023-07-02T12:00:44Z</time>
      </trkpt>
      <trkpt lat="49.8153" lon="2.56625">
        <ele>90.6</ele>
        <time>2023-07-02T12:00:45Z</time>
      </trkpt>
      <trkpt lat="49.81531" lon="2.56625">
        <ele>90.6</ele>
        <time>2023-07-02T12:00:46Z</time>
      </trkpt>
      <trkpt lat="49.81532" lon="2.56625">
        <ele>90.5</ele>
        <time>2023-07-02T12:00:48Z</time>
      </trkpt>
      <trkpt lat="49.81533" lon="2.56624">
        <ele>90.5</ele>
        <time>2023-07-02T12:00:49Z</time>
      </trkpt>
      <trkpt lat="49.81534" lon="2.56624">
        <ele>90.5</ele>
        <time>2023-07-02T12:00:50Z</time>
      </trkpt>
      <trkpt lat="49.81535" lon="2.56624">
        <ele>90.4</ele>
        <time>2023-07-02T12:00:51Z</time>
      </trkpt>
      <trkpt lat="49.81536" lon="2.56624">
        <ele>90.4</ele>
        <time>2023-07-02T12:00:52Z</time>
      </trkpt>
      <trkpt lat="49.81537" lon="2.56624">
        <ele>90.3</ele>
        <time>2023-07-02T12:00:53Z</time>
      </trkpt>
      <trkpt lat="49.81538" lon="2.56623">
        <ele>90.3</ele>
        <time>2023-07-02T12:00:54Z</time>
      </trkpt>
      <trkpt lat="49.8154" lon="2.56623">
        <ele>90.2</ele>
        <time>2023-07-02T12:00:56Z</time>
      </trkpt>
      <trkpt lat="49.81541" lon="2.56623">
        <ele>90.2</ele>
        <time>2023-07-02T12:00:57Z</time>
      </trkpt>
      <trkpt lat="49.81542" lon="2.56623">
        <ele>90.1</ele>
        <time>2023-07-02T12:00:58Z</time>
      </trkpt>
      <trkpt lat="49.81543" lon="2.56623">
        <ele>90.1</ele>
        <time>2023-07-02T12:00:59Z</time>
      </trkpt>
      <trkpt lat="49.81544" lon="2.56623">
        <ele>90</ele>
        <time>2023-07-02T12:01:00Z</time>
      </trkpt>
      <trkpt lat="49.81545" lon="2.56623">
        <ele>90</ele>
        <time>2023-07-02T12:01:01Z</time>
      </trkpt>
      <trkpt lat="49.81546" lon="2.56623">
        <ele>90</ele>
        <time>2023-07-02T12:01:03Z</time>
      </trkpt>
      <trkpt lat="49.81547" lon="2.56623">
        <ele>89.9</ele>
        <time>2023-07-02T12:01:04Z</time>
      </trkpt>
      <trkpt lat="49.81548" lon="2.56623">
        <ele>89.9</ele>
        <time>2023-07-02T12:01:05Z</time>
      </trkpt>
      <trkpt lat="49.81549" lon="2.56623">
        <ele>89.8</ele>
        <time>2023-07-02T12:01:06Z</time>
      </trkpt>
      <trkpt lat="49.8155" lon="2.56623">
        <ele>89.8</ele>
        <time>2023-07-02T12:01:07Z</time>
      </trkpt>
      <trkpt lat="49.81551" lon="2.56623">
        <ele>89.7</ele>
        <time>2023-07-02T12:01:08Z</time>
      </trkpt>
      <trkpt lat="49.81553" lon="2.56623">
        <ele>89.6</ele>
        <time>2023-07-02T12:01:10Z</time>
      </trkpt>
      <trkpt lat="49.81554" lon="2.56623">
        <ele>89.6</ele>
        <time>2023-07-02T12:01:11Z</time>
      </trkpt>
      <trkpt lat="49.81556" lon="2.56623">
        <ele>89.5</ele>
        <time>2023-07-02T12:01:12Z</time>
      </trkpt>
      <trkpt lat="49.81557" lon="2.56623">
        <ele>89.5</ele>
        <time>2023-07-02T12:01:14Z</time>
      </trkpt>
      <trkpt lat="49.81558" lon="2.56623">
        <ele>89.4</ele>
        <time>2023-07-02T12:01:15Z</time>
      </trkpt>
      <trkpt lat="49.8156" lon="2.56623">
        <ele>89.3</ele>
        <time>2023-07-02T12:01:16Z</time>
      </trkpt>
      <trkpt lat="49.81561" lon="2.56623">
        <ele>89.3</ele>
        <time>2023-07-02T12:01:17Z</time>
      </trkpt>
      <trkpt lat="49.81561" lon="2.56622">
        <ele>89.3</ele>
        <time>2023-07-02T12:01:18Z</time>
      </trkpt>
      <trkpt lat="49.81564" lon="2.56622">
        <ele>89.2</ele>
        <time>2023-07-02T12:01:19Z</time>
      </trkpt>
      <trkpt lat="49.81565" lon="2.56622">
        <ele>89.1</ele>
        <time>2023-07-02T12:01:20Z</time>
      </trkpt>
      <trkpt lat="49.81565" lon="2.56622">
        <ele>89.1</ele>
        <time>2023-07-02T12:01:21Z</time>
      </trkpt>
      <trkpt lat="49.81567" lon="2.56622">
        <ele>89</ele>
        <time>2023-07-02T12:01:23Z</time>
      </trkpt>
      <trkpt lat="49.81568" lon="2.56622">
        <ele>89</ele>
        <time>2023-07-02T12:01:24Z</time>
      </trkpt>
      <trkpt lat="49.81569" lon="2.56622">
        <ele>88.9</ele>
        <time>2023-07-02T12:01:25Z</time>
      </trkpt>
      <trkpt lat="49.8157" lon="2.56622">
        <ele>88.9</ele>
        <time>2023-07-02T12:01:26Z</time>
      </trkpt>
      <trkpt lat="49.81572" lon="2.56622">
        <ele>88.8</ele>
        <time>2023-07-02T12:01:27Z</time>
      </trkpt>
      <trkpt lat="49.81574" lon="2.56623">
        <ele>88.7</ele>
        <time>2023-07-02T12:01:28Z</time>
      </trkpt>
      <trkpt lat="49.81575" lon="2.56623">
        <ele>88.7</ele>
        <time>2023-07-02T12:01:29Z</time>
      </trkpt>
      <trkpt lat="49.81576" lon="2.56623">
        <ele>88.6</ele>
        <time>2023-07-02T12:01:31Z</time>
      </trkpt>
      <trkpt lat="49.81577" lon="2.56622">
        <ele>88.6</ele>
        <time>2023-07-02T12:01:32Z</time>
      </trkpt>
      <trkpt lat="49.81578" lon="2.56622">
        <ele>88.5</ele>
        <time>2023-07-02T12:01:33Z</time>
      </trkpt>
      <trkpt lat="49.81579" lon="2.56622">
        <ele>88.5</ele>
        <time>2023-07-02T12:01:34Z</time>
      </trkpt>
      <trkpt lat="49.8158" lon="2.56623">
        <ele>88.4</ele>
        <time>2023-07-02T12:01:35Z</time>
      </trkpt>
      <trkpt lat="49.81581" lon="2.56623">
        <ele>88.4</ele>
        <time>2023-07-02T12:01:36Z</time>
      </trkpt>
      <trkpt lat="49.81582" lon="2.56623">
        <ele>88.3</ele>
        <time>2023-07-02T12:01:37Z</time>
      </trkpt>
      <trkpt lat="49.81583" lon="2.56623">
        <ele>88.3</ele>
        <time>2023-07-02T12:01:38Z</time>
      </trkpt>
      <trkpt lat="49.81584" lon="2.56624">
        <ele>88.2</ele>
        <time>2023-07-02T12:01:40Z</time>
      </trkpt>
      <trkpt lat="49.81585" lon="2.56624">
        <ele>88.1</ele>
        <time>2023-07-02T12:01:41Z</time>
      </trkpt>
      <trkpt lat="49.81587" lon="2.56624">
        <ele>88</ele>
        <time>2023-07-02T12:01:42Z</time>
      </trkpt>
      <trkpt lat="49.81588" lon="2.56624">
        <ele>88</ele>
        <time>2023-07-02T12:01:43Z</time>
      </trkpt>
      <trkpt lat="49.81589" lon="2.56623">
        <ele>87.9</ele>
        <time>2023-07-02T12:01:44Z</time>
      </trkpt>
      <trkpt lat="49.81591" lon="2.56623">
        <ele>87.8</ele>
        <time>2023-07-02T12:01:45Z</time>
      </trkpt>
      <trkpt lat="49.81592" lon="2.56623">
        <ele>87.8</ele>
        <time>2023-07-02T12:01:47Z</time>
      </trkpt>
      <trkpt lat="49.81593" lon="2.56623">
        <ele>87.7</ele>
        <time>2023-07-02T12:01:48Z</time>
      </trkpt>
      <trkpt lat="49.81594" lon="2.56623">
        <ele>87.6</ele>
        <time>2023-07-02T12:01:49Z</time>
      </trkpt>
      <trkpt lat="49.81596" lon="2.56623">
        <ele>87.5</ele>
        <time>2023-07-02T12:01:50Z</time>
      </trkpt>
      <trkpt lat="49.81597" lon="2.56623">
        <ele>87.5</ele>
        <time>2023-07-02T12:01:51Z</time>
      </trkpt>
      <trkpt lat="49.81598" lon="2.56623">
        <ele>87.4</ele>
        <time>2023-07-02T12:01:52Z</time>
      </trkpt>
      <trkpt lat="49.81599" lon="2.56622">
        <ele>87.4</ele>
        <time>2023-07-02T12:01:53Z</time>
      </trkpt>
      <trkpt lat="49.81601" lon="2.56622">
        <ele>87.3</ele>
        <time>2023-07-02T12:01:55Z</time>
      </trkpt>
      <trkpt lat="49.81602" lon="2.56622">
        <ele>87.2</ele>
        <time>2023-07-02T12:01:56Z</time>
      </trkpt>
      <trkpt lat="49.81603" lon="2.56622">
        <ele>87.2</ele>
        <time>2023-07-02T12:01:57Z</time>
      </trkpt>
      <trkpt lat="49.81604" lon="2.56622">
        <ele>87.1</ele>
        <time>2023-07-02T12:01:58Z</time>
      </trkpt>
      <trkpt lat="49.81606" lon="2.56622">
        <ele>87</ele>
        <time>2023-07-02T12:01:59Z</time>
      </trkpt>
      <trkpt lat="49.81607" lon="2.56622">
        <ele>86.9</ele>
        <time>2023-07-02T12:02:00Z</time>
      </trkpt>
      <trkpt lat="49.81608" lon="2.56622">
        <ele>86.8</ele>
        <time>2023-07-02T12:02:01Z</time>
      </trkpt>
      <trkpt lat="49.8161" lon="2.56623">
        <ele>86.7</ele>
        <time>2023-07-02T12:02:03Z</time>
      </trkpt>
      <trkpt lat="49.81611" lon="2.56623">
        <ele>86.7</ele>
        <time>2023-07-02T12:02:04Z</time>
      </trkpt>
      <trkpt lat="49.81612" lon="2.56623">
        <ele>86.6</ele>
        <time>2023-07-02T12:02:05Z</time>
      </trkpt>
      <trkpt lat="49.81613" lon="2.56623">
        <ele>86.6</ele>
        <time>2023-07-02T12:02:06Z</time>
      </trkpt>
      <trkpt lat="49.81614" lon="2.56623">
        <ele>86.5</ele>
        <time>2023-07-02T12:02:08Z</time>
      </trkpt>
      <trkpt lat="49.81616" lon="2.56624">
        <ele>86.4</ele>
        <time>2023-07-02T12:02:09Z</time>
      </trkpt>
      <trkpt lat="49.81617" lon="2.56624">
        <ele>86.4</ele>
        <time>2023-07-02T12:02:10Z</time>
      </trkpt>
      <trkpt lat="49.81618" lon="2.56624">
        <ele>86.3</ele>
        <time>2023-07-02T12:02:11Z</time>
      </trkpt>
      <trkpt lat="49.81619" lon="2.56625">
        <ele>86.2</ele>
        <time>2023-07-02T12:02:12Z</time>
      </trkpt>
      <trkpt lat="49.81619" lon="2.56625">
        <ele>86.2</ele>
        <time>2023-07-02T12:02:13Z</time>
      </trkpt>
      <trkpt lat="49.8162" lon="2.56625">
        <ele>86.1</ele>
        <time>2023-07-02T12:02:15Z</time>
      </trkpt>
      <trkpt lat="49.81622" lon="2.56626">
        <ele>86.1</ele>
        <time>2023-07-02T12:02:16Z</time>
      </trkpt>
      <trkpt lat="49.81623" lon="2.56626">
        <ele>86</ele>
        <time>2023-07-02T12:02:17Z</time>
      </trkpt>
      <trkpt lat="49.81624" lon="2.56627">
        <ele>85.9</ele>
        <time>2023-07-02T12:02:18Z</time>
      </trkpt>
      <trkpt lat="49.81625" lon="2.56628">
        <ele>85.9</ele>
        <time>2023-07-02T12:02:19Z</time>
      </trkpt>
      <trkpt lat="49.81626" lon="2.56628">
        <ele>85.8</ele>
        <time>2023-07-02T12:02:20Z</time>
      </trkpt>
      <trkpt lat="49.81627" lon="2.56629">
        <ele>85.7</ele>
        <time>2023-07-02T12:02:21Z</time>
      </trkpt>
      <trkpt lat="49.81628" lon="2.5663">
        <ele>85.7</ele>
        <time>2023-07-02T12:02:22Z</time>
      </trkpt>
      <trkpt lat="49.81628" lon="2.56631">
        <ele>85.6</ele>
        <time>2023-07-02T12:02:23Z</time>
      </trkpt>
      <trkpt lat="49.81629" lon="2.56632">
        <ele>85.5</ele>
        <time>2023-07-02T12:02:25Z</time>
      </trkpt>
      <trkpt lat="49.8163" lon="2.56633">
        <ele>85.5</ele>
        <time>2023-07-02T12:02:26Z</time>
      </trkpt>
      <trkpt lat="49.8163" lon="2.56634">
        <ele>85.4</ele>
        <time>2023-07-02T12:02:27Z</time>
      </trkpt>
      <trkpt lat="49.81631" lon="2.56635">
        <ele>85.4</ele>
        <time>2023-07-02T12:02:28Z</time>
      </trkpt>
      <trkpt lat="49.81632" lon="2.56636">
        <ele>85.3</ele>
        <time>2023-07-02T12:02:29Z</time>
      </trkpt>
      <trkpt lat="49.81634" lon="2.56637">
        <ele>85.2</ele>
        <time>2023-07-02T12:02:31Z</time>
      </trkpt>
      <trkpt lat="49.81635" lon="2.56638">
        <ele>85.1</ele>
        <time>2023-07-02T12:02:32Z</time>
      </trkpt>
      <trkpt lat="49.81637" lon="2.56639">
        <ele>85</ele>
        <time>2023-07-02T12:02:33Z</time>
      </trkpt>
      <trkpt lat="49.81638" lon="2.5664">
        <ele>85</ele>
        <time>2023-07-02T12:02:34Z</time>
      </trkpt>
      <trkpt lat="49.81639" lon="2.56641">
        <ele>84.9</ele>
        <time>2023-07-02T12:02:35Z</time>
      </trkpt>
      <trkpt lat="49.8164" lon="2.56642">
        <ele>84.8</ele>
        <time>2023-07-02T12:02:36Z</time>
      </trkpt>
      <trkpt lat="49.81642" lon="2.56643">
        <ele>84.7</ele>
        <time>2023-07-02T12:02:37Z</time>
      </trkpt>
      <trkpt lat="49.81642" lon="2.56644">
        <ele>84.7</ele>
        <time>2023-07-02T12:02:39Z</time>
      </trkpt>
      <trkpt lat="49.81643" lon="2.56644">
        <ele>84.6</ele>
        <time>2023-07-02T12:02:40Z</time>
      </trkpt>
      <trkpt lat="49.81645" lon="2.56645">
        <ele>84.5</ele>
        <time>2023-07-02T12:02:41Z</time>
      </trkpt>
      <trkpt lat="49.81646" lon="2.56646">
        <ele>84.4</ele>
        <time>2023-07-02T12:02:42Z</time>
      </trkpt>
      <trkpt lat="49.81647" lon="2.56646">
        <ele>84.4</ele>
        <time>2023-07-02T12:02:43Z</time>
      </trkpt>
      <trkpt lat="49.81648" lon="2.56647">
        <ele>84.3</ele>
        <time>2023-07-02T12:02:44Z</time>
      </trkpt>
      <trkpt lat="49.81649" lon="2.56647">
        <ele>84.3</ele>
        <time>2023-07-02T12:02:45Z</time>
      </trkpt>
      <trkpt lat="49.8165" lon="2.56648">
        <ele>84.2</ele>
        <time>2023-07-02T12:02:47Z</time>
      </trkpt>
      <trkpt lat="49.81651" lon="2.56649">
        <ele>84.1</ele>
        <time>2023-07-02T12:02:48Z</time>
      </trkpt>
      <trkpt lat="49.81653" lon="2.5665">
        <ele>84</ele>
        <time>2023-07-02T12:02:49Z</time>
      </trkpt>
      <trkpt lat="49.81654" lon="2.56651">
        <ele>83.9</ele>
        <time>2023-07-02T12:02:50Z</time>
      </trkpt>
      <trkpt lat="49.81655" lon="2.56652">
        <ele>83.9</ele>
        <time>2023-07-02T12:02:51Z</time>
      </trkpt>
      <trkpt lat="49.81657" lon="2.56653">
        <ele>83.7</ele>
        <time>2023-07-02T12:02:52Z</time>
      </trkpt>
      <trkpt lat="49.81658" lon="2.56654">
        <ele>83.7</ele>
        <time>2023-07-02T12:02:53Z</time>
      </trkpt>
      <trkpt lat="49.81659" lon="2.56654">
        <ele>83.6</ele>
        <time>2023-07-02T12:02:54Z</time>
      </trkpt>
      <trkpt lat="49.8166" lon="2.56655">
        <ele>83.6</ele>
        <time>2023-07-02T12:02:56Z</time>
      </trkpt>
      <trkpt lat="49.81662" lon="2.56656">
        <ele>83.4</ele>
        <time>2023-07-02T12:02:57Z</time>
      </trkpt>
      <trkpt lat="49.81664" lon="2.56657">
        <ele>83.3</ele>
        <time>2023-07-02T12:02:58Z</time>
      </trkpt>
      <trkpt lat="49.81665" lon="2.56657">
        <ele>83.3</ele>
        <time>2023-07-02T12:03:00Z</time>
      </trkpt>
      <trkpt lat="49.81666" lon="2.56658">
        <ele>83.2</ele>
        <time>2023-07-02T12:03:01Z</time>
      </trkpt>
      <trkpt lat="49.81667" lon="2.56658">
        <ele>83.1</ele>
        <time>2023-07-02T12:03:02Z</time>
      </trkpt>
      <trkpt lat="49.81668" lon="2.56659">
        <ele>83.1</ele>
        <time>2023-07-02T12:03:03Z</time>
      </trkpt>
      <trkpt lat="49.8167" lon="2.56659">
        <ele>83</ele>
        <time>2023-07-02T12:03:04Z</time>
      </trkpt>
      <trkpt lat="49.81671" lon="2.56659">
        <ele>82.9</ele>
        <time>2023-07-02T12:03:05Z</time>
      </trkpt>
      <trkpt lat="49.81672" lon="2.56659">
        <ele>82.9</ele>
        <time>2023-07-02T12:03:06Z</time>
      </trkpt>
      <trkpt lat="49.81673" lon="2.56659">
        <ele>82.8</ele>
        <time>2023-07-02T12:03:08Z</time>
      </trkpt>
      <trkpt lat="49.81674" lon="2.56659">
        <ele>82.7</ele>
        <time>2023-07-02T12:03:09Z</time>
      </trkpt>
      <trkpt lat="49.81675" lon="2.56659">
        <ele>82.7</ele>
        <time>2023-07-02T12:03:10Z</time>
      </trkpt>
      <trkpt lat="49.81676" lon="2.56659">
        <ele>82.6</ele>
        <time>2023-07-02T12:03:11Z</time>
      </trkpt>
      <trkpt lat="49.81677" lon="2.56659">
        <ele>82.5</ele>
        <time>2023-07-02T12:03:12Z</time>
      </trkpt>
      <trkpt lat="49.81678" lon="2.56659">
        <ele>82.5</ele>
        <time>2023-07-02T12:03:13Z</time>
      </trkpt>
      <trkpt lat="49.81679" lon="2.56659">
        <ele>82.4</ele>
        <time>2023-07-02T12:03:14Z</time>
      </trkpt>
      <trkpt lat="49.8168" lon="2.56659">
        <ele>82.4</ele>
        <time>2023-07-02T12:03:15Z</time>
      </trkpt>
      <trkpt lat="49.81681" lon="2.56659">
        <ele>82.3</ele>
        <time>2023-07-02T12:03:17Z</time>
      </trkpt>
      <trkpt lat="49.81682" lon="2.56659">
        <ele>82.2</ele>
        <time>2023-07-02T12:03:18Z</time>
      </trkpt>
      <trkpt lat="49.81683" lon="2.56658">
        <ele>82.2</ele>
        <time>2023-07-02T12:03:19Z</time>
      </trkpt>
      <trkpt lat="49.81684" lon="2.56658">
        <ele>82.1</ele>
        <time>2023-07-02T12:03:20Z</time>
      </trkpt>
      <trkpt lat="49.81685" lon="2.56658">
        <ele>82.1</ele>
        <time>2023-07-02T12:03:21Z</time>
      </trkpt>
      <trkpt lat="49.81686" lon="2.56658">
        <ele>82</ele>
        <time>2023-07-02T12:03:22Z</time>
      </trkpt>
      <trkpt lat="49.81687" lon="2.56657">
        <ele>81.9</ele>
        <time>2023-07-02T12:03:23Z</time>
      </trkpt>
      <trkpt lat="49.81689" lon="2.56657">
        <ele>81.8</ele>
        <time>2023-07-02T12:03:24Z</time>
      </trkpt>
      <trkpt lat="49.8169" lon="2.56657">
        <ele>81.7</ele>
        <time>2023-07-02T12:03:26Z</time>
      </trkpt>
      <trkpt lat="49.81691" lon="2.56657">
        <ele>81.7</ele>
        <time>2023-07-02T12:03:27Z</time>
      </trkpt>
      <trkpt lat="49.81693" lon="2.56656">
        <ele>81.6</ele>
        <time>2023-07-02T12:03:28Z</time>
      </trkpt>
      <trkpt lat="49.81694" lon="2.56656">
        <ele>81.5</ele>
        <time>2023-07-02T12:03:29Z</time>
      </trkpt>
      <trkpt lat="49.81695" lon="2.56656">
        <ele>81.5</ele>
        <time>2023-07-02T12:03:30Z</time>
      </trkpt>
      <trkpt lat="49.81696" lon="2.56656">
        <ele>81.4</ele>
        <time>2023-07-02T12:03:31Z</time>
      </trkpt>
      <trkpt lat="49.81698" lon="2.56656">
        <ele>81.3</ele>
        <time>2023-07-02T12:03:33Z</time>
      </trkpt>
      <trkpt lat="49.817" lon="2.56656">
        <ele>81.2</ele>
        <time>2023-07-02T12:03:35Z</time>
      </trkpt>
      <trkpt lat="49.81701" lon="2.56656">
        <ele>81.1</ele>
        <time>2023-07-02T12:03:36Z</time>
      </trkpt>
      <trkpt lat="49.81702" lon="2.56656">
        <ele>81</ele>
        <time>2023-07-02T12:03:37Z</time>
      </trkpt>
      <trkpt lat="49.81704" lon="2.56656">
        <ele>80.9</ele>
        <time>2023-07-02T12:03:38Z</time>
      </trkpt>
      <trkpt lat="49.81706" lon="2.56656">
        <ele>80.8</ele>
        <time>2023-07-02T12:03:39Z</time>
      </trkpt>
      <trkpt lat="49.81707" lon="2.56656">
        <ele>80.8</ele>
        <time>2023-07-02T12:03:40Z</time>
      </trkpt>
      <trkpt lat="49.81709" lon="2.56656">
        <ele>80.6</ele>
        <time>2023-07-02T12:03:41Z</time>
      </trkpt>
      <trkpt lat="49.8171" lon="2.56656">
        <ele>80.6</ele>
        <time>2023-07-02T12:03:43Z</time>
      </trkpt>
      <trkpt lat="49.81711" lon="2.56656">
        <ele>80.5</ele>
        <time>2023-07-02T12:03:44Z</time>
      </trkpt>
      <trkpt lat="49.81712" lon="2.56655">
        <ele>80.5</ele>
        <time>2023-07-02T12:03:45Z</time>
      </trkpt>
      <trkpt lat="49.81713" lon="2.56655">
        <ele>80.4</ele>
        <time>2023-07-02T12:03:46Z</time>
      </trkpt>
      <trkpt lat="49.81714" lon="2.56655">
        <ele>80.3</ele>
        <time>2023-07-02T12:03:47Z</time>
      </trkpt>
      <trkpt lat="49.81715" lon="2.56655">
        <ele>80.3</ele>
        <time>2023-07-02T12:03:48Z</time>
      </trkpt>
      <trkpt lat="49.81716" lon="2.56655">
        <ele>80.2</ele>
        <time>2023-07-02T12:03:49Z</time>
      </trkpt>
      <trkpt lat="49.81717" lon="2.56654">
        <ele>80.2</ele>
        <time>2023-07-02T12:03:50Z</time>
      </trkpt>
      <trkpt lat="49.81718" lon="2.56654">
        <ele>80.1</ele>
        <time>2023-07-02T12:03:52Z</time>
      </trkpt>
      <trkpt lat="49.8172" lon="2.56654">
        <ele>80</ele>
        <time>2023-07-02T12:03:53Z</time>
      </trkpt>
      <trkpt lat="49.8172" lon="2.56654">
        <ele>80</ele>
        <time>2023-07-02T12:03:54Z</time>
      </trkpt>
      <trkpt lat="49.81721" lon="2.56653">
        <ele>79.9</ele>
        <time>2023-07-02T12:03:55Z</time>
      </trkpt>
      <trkpt lat="49.81722" lon="2.56653">
        <ele>79.8</ele>
        <time>2023-07-02T12:03:56Z</time>
      </trkpt>
      <trkpt lat="49.81723" lon="2.56653">
        <ele>79.8</ele>
        <time>2023-07-02T12:03:57Z</time>
      </trkpt>
      <trkpt lat="49.81724" lon="2.56653">
        <ele>79.7</ele>
        <time>2023-07-02T12:03:58Z</time>
      </trkpt>
      <trkpt lat="49.81725" lon="2.56653">
        <ele>79.6</ele>
        <time>2023-07-02T12:03:59Z</time>
      </trkpt>
      <trkpt lat="49.81726" lon="2.56652">
        <ele>79.6</ele>
        <time>2023-07-02T12:04:01Z</time>
      </trkpt>
      <trkpt lat="49.81728" lon="2.56652">
        <ele>79.5</ele>
        <time>2023-07-02T12:04:02Z</time>
      </trkpt>
      <trkpt lat="49.81728" lon="2.56651">
        <ele>79.4</ele>
        <time>2023-07-02T12:04:03Z</time>
      </trkpt>
      <trkpt lat="49.81729" lon="2.56651">
        <ele>79.4</ele>
        <time>2023-07-02T12:04:04Z</time>
      </trkpt>
      <trkpt lat="49.8173" lon="2.5665">
        <ele>79.3</ele>
        <time>2023-07-02T12:04:05Z</time>
      </trkpt>
      <trkpt lat="49.81731" lon="2.5665">
        <ele>79.2</ele>
        <time>2023-07-02T12:04:06Z</time>
      </trkpt>
      <trkpt lat="49.81733" lon="2.56649">
        <ele>79.1</ele>
        <time>2023-07-02T12:04:08Z</time>
      </trkpt>
      <trkpt lat="49.81734" lon="2.56649">
        <ele>79.1</ele>
        <time>2023-07-02T12:04:09Z</time>
      </trkpt>
      <trkpt lat="49.81735" lon="2.56648">
        <ele>79</ele>
        <time>2023-07-02T12:04:10Z</time>
      </trkpt>
      <trkpt lat="49.81736" lon="2.56648">
        <ele>78.9</ele>
        <time>2023-07-02T12:04:11Z</time>
      </trkpt>
      <trkpt lat="49.81737" lon="2.56648">
        <ele>78.8</ele>
        <time>2023-07-02T12:04:12Z</time>
      </trkpt>
      <trkpt lat="49.81738" lon="2.56647">
        <ele>78.7</ele>
        <time>2023-07-02T12:04:13Z</time>
      </trkpt>
      <trkpt lat="49.81739" lon="2.56647">
        <ele>78.7</ele>
        <time>2023-07-02T12:04:15Z</time>
      </trkpt>
      <trkpt lat="49.8174" lon="2.56647">
        <ele>78.6</ele>
        <time>2023-07-02T12:04:16Z</time>
      </trkpt>
      <trkpt lat="49.81741" lon="2.56647">
        <ele>78.5</ele>
        <time>2023-07-02T12:04:17Z</time>
      </trkpt>
      <trkpt lat="49.81742" lon="2.56647">
        <ele>78.5</ele>
        <time>2023-07-02T12:04:18Z</time>
      </trkpt>
      <trkpt lat="49.81743" lon="2.56647">
        <ele>78.4</ele>
        <time>2023-07-02T12:04:19Z</time>
      </trkpt>
      <trkpt lat="49.81744" lon="2.56647">
        <ele>78.3</ele>
        <time>2023-07-02T12:04:20Z</time>
      </trkpt>
      <trkpt lat="49.81746" lon="2.56647">
        <ele>78.3</ele>
        <time>2023-07-02T12:04:21Z</time>
      </trkpt>
      <trkpt lat="49.81748" lon="2.56648">
        <ele>78.1</ele>
        <time>2023-07-02T12:04:22Z</time>
      </trkpt>
      <trkpt lat="49.81748" lon="2.56648">
        <ele>78.1</ele>
        <time>2023-07-02T12:04:24Z</time>
      </trkpt>
      <trkpt lat="49.81749" lon="2.56648">
        <ele>78</ele>
        <time>2023-07-02T12:04:25Z</time>
      </trkpt>
      <trkpt lat="49.81751" lon="2.56648">
        <ele>77.9</ele>
        <time>2023-07-02T12:04:26Z</time>
      </trkpt>
      <trkpt lat="49.81752" lon="2.56649">
        <ele>77.9</ele>
        <time>2023-07-02T12:04:27Z</time>
      </trkpt>
      <trkpt lat="49.81753" lon="2.56649">
        <ele>77.8</ele>
        <time>2023-07-02T12:04:28Z</time>
      </trkpt>
      <trkpt lat="49.81754" lon="2.56649">
        <ele>77.8</ele>
        <time>2023-07-02T12:04:29Z</time>
      </trkpt>
      <trkpt lat="49.81755" lon="2.5665">
        <ele>77.7</ele>
        <time>2023-07-02T12:04:30Z</time>
      </trkpt>
      <trkpt lat="49.81756" lon="2.5665">
        <ele>77.7</ele>
        <time>2023-07-02T12:04:31Z</time>
      </trkpt>
      <trkpt lat="49.81757" lon="2.5665">
        <ele>77.6</ele>
        <time>2023-07-02T12:04:33Z</time>
      </trkpt>
      <trkpt lat="49.81758" lon="2.56651">
        <ele>77.5</ele>
        <time>2023-07-02T12:04:34Z</time>
      </trkpt>
      <trkpt lat="49.81759" lon="2.56651">
        <ele>77.5</ele>
        <time>2023-07-02T12:04:35Z</time>
      </trkpt>
      <trkpt lat="49.81761" lon="2.56652">
        <ele>77.4</ele>
        <time>2023-07-02T12:04:36Z</time>
      </trkpt>
      <trkpt lat="49.81762" lon="2.56652">
        <ele>77.3</ele>
        <time>2023-07-02T12:04:37Z</time>
      </trkpt>
      <trkpt lat="49.81763" lon="2.56653">
        <ele>77.3</ele>
        <time>2023-07-02T12:04:39Z</time>
      </trkpt>
      <trkpt lat="49.81764" lon="2.56653">
        <ele>77.2</ele>
        <time>2023-07-02T12:04:40Z</time>
      </trkpt>
      <trkpt lat="49.81765" lon="2.56653">
        <ele>77.1</ele>
        <time>2023-07-02T12:04:41Z</time>
      </trkpt>
      <trkpt lat="49.81766" lon="2.56654">
        <ele>77.1</ele>
        <time>2023-07-02T12:04:42Z</time>
      </trkpt>
      <trkpt lat="49.81768" lon="2.56654">
        <ele>77</ele>
        <time>2023-07-02T12:04:43Z</time>
      </trkpt>
      <trkpt lat="49.81769" lon="2.56654">
        <ele>76.9</ele>
        <time>2023-07-02T12:04:44Z</time>
      </trkpt>
      <trkpt lat="49.8177" lon="2.56655">
        <ele>76.9</ele>
        <time>2023-07-02T12:04:45Z</time>
      </trkpt>
      <trkpt lat="49.81771" lon="2.56655">
        <ele>76.8</ele>
        <time>2023-07-02T12:04:46Z</time>
      </trkpt>
      <trkpt lat="49.81773" lon="2.56656">
        <ele>76.7</ele>
        <time>2023-07-02T12:04:48Z</time>
      </trkpt>
      <trkpt lat="49.81775" lon="2.56656">
        <ele>76.6</ele>
        <time>2023-07-02T12:04:49Z</time>
      </trkpt>
      <trkpt lat="49.81777" lon="2.56658">
        <ele>76.5</ele>
        <time>2023-07-02T12:04:51Z</time>
      </trkpt>
      <trkpt lat="49.81778" lon="2.56659">
        <ele>76.4</ele>
        <time>2023-07-02T12:04:52Z</time>
      </trkpt>
      <trkpt lat="49.8178" lon="2.5666">
        <ele>76.3</ele>
        <time>2023-07-02T12:04:53Z</time>
      </trkpt>
      <trkpt lat="49.81781" lon="2.56661">
        <ele>76.2</ele>
        <time>2023-07-02T12:04:54Z</time>
      </trkpt>
      <trkpt lat="49.81782" lon="2.56661">
        <ele>76.2</ele>
        <time>2023-07-02T12:04:56Z</time>
      </trkpt>
      <trkpt lat="49.81784" lon="2.56662">
        <ele>76.1</ele>
        <time>2023-07-02T12:04:57Z</time>
      </trkpt>
      <trkpt lat="49.81785" lon="2.56662">
        <ele>76</ele>
        <time>2023-07-02T12:04:58Z</time>
      </trkpt>
      <trkpt lat="49.81789" lon="2.56663">
        <ele>75.8</ele>
        <time>2023-07-02T12:05:00Z</time>
      </trkpt>
      <trkpt lat="49.8179" lon="2.56663">
        <ele>75.7</ele>
        <time>2023-07-02T12:05:01Z</time>
      </trkpt>
      <trkpt lat="49.81791" lon="2.56664">
        <ele>75.7</ele>
        <time>2023-07-02T12:05:02Z</time>
      </trkpt>
      <trkpt lat="49.81793" lon="2.56664">
        <ele>75.6</ele>
        <time>2023-07-02T12:05:04Z</time>
      </trkpt>
      <trkpt lat="49.81794" lon="2.56664">
        <ele>75.5</ele>
        <time>2023-07-02T12:05:05Z</time>
      </trkpt>
      <trkpt lat="49.81795" lon="2.56664">
        <ele>75.5</ele>
        <time>2023-07-02T12:05:06Z</time>
      </trkpt>
      <trkpt lat="49.81797" lon="2.56664">
        <ele>75.4</ele>
        <time>2023-07-02T12:05:07Z</time>
      </trkpt>
      <trkpt lat="49.81798" lon="2.56664">
        <ele>75.3</ele>
        <time>2023-07-02T12:05:08Z</time>
      </trkpt>
      <trkpt lat="49.81799" lon="2.56664">
        <ele>75.3</ele>
        <time>2023-07-02T12:05:09Z</time>
      </trkpt>
      <trkpt lat="49.818" lon="2.56665">
        <ele>75.2</ele>
        <time>2023-07-02T12:05:10Z</time>
      </trkpt>
      <trkpt lat="49.81802" lon="2.56665">
        <ele>75.2</ele>
        <time>2023-07-02T12:05:12Z</time>
      </trkpt>
      <trkpt lat="49.81803" lon="2.56666">
        <ele>75.1</ele>
        <time>2023-07-02T12:05:13Z</time>
      </trkpt>
      <trkpt lat="49.81803" lon="2.56667">
        <ele>75.1</ele>
        <time>2023-07-02T12:05:14Z</time>
      </trkpt>
      <trkpt lat="49.81804" lon="2.56667">
        <ele>75.1</ele>
        <time>2023-07-02T12:05:15Z</time>
      </trkpt>
      <trkpt lat="49.81805" lon="2.56669">
        <ele>75</ele>
        <time>2023-07-02T12:05:16Z</time>
      </trkpt>
      <trkpt lat="49.81806" lon="2.5667">
        <ele>75</ele>
        <time>2023-07-02T12:05:17Z</time>
      </trkpt>
      <trkpt lat="49.81806" lon="2.56671">
        <ele>74.9</ele>
        <time>2023-07-02T12:05:19Z</time>
      </trkpt>
      <trkpt lat="49.81807" lon="2.56672">
        <ele>74.9</ele>
        <time>2023-07-02T12:05:20Z</time>
      </trkpt>
      <trkpt lat="49.81808" lon="2.56673">
        <ele>74.9</ele>
        <time>2023-07-02T12:05:21Z</time>
      </trkpt>
      <trkpt lat="49.81809" lon="2.56674">
        <ele>74.8</ele>
        <time>2023-07-02T12:05:22Z</time>
      </trkpt>
      <trkpt lat="49.8181" lon="2.56675">
        <ele>74.8</ele>
        <time>2023-07-02T12:05:23Z</time>
      </trkpt>
      <trkpt lat="49.81811" lon="2.56676">
        <ele>74.8</ele>
        <time>2023-07-02T12:05:24Z</time>
      </trkpt>
      <trkpt lat="49.81812" lon="2.56677">
        <ele>74.7</ele>
        <time>2023-07-02T12:05:25Z</time>
      </trkpt>
      <trkpt lat="49.81814" lon="2.56679">
        <ele>74.7</ele>
        <time>2023-07-02T12:05:27Z</time>
      </trkpt>
      <trkpt lat="49.81814" lon="2.5668">
        <ele>74.6</ele>
        <time>2023-07-02T12:05:28Z</time>
      </trkpt>
      <trkpt lat="49.81815" lon="2.56681">
        <ele>74.6</ele>
        <time>2023-07-02T12:05:29Z</time>
      </trkpt>
      <trkpt lat="49.81816" lon="2.56682">
        <ele>74.6</ele>
        <time>2023-07-02T12:05:30Z</time>
      </trkpt>
      <trkpt lat="49.81817" lon="2.56683">
        <ele>74.6</ele>
        <time>2023-07-02T12:05:31Z</time>
      </trkpt>
      <trkpt lat="49.81818" lon="2.56683">
        <ele>74.5</ele>
        <time>2023-07-02T12:05:33Z</time>
      </trkpt>
      <trkpt lat="49.81818" lon="2.56684">
        <ele>74.5</ele>
        <time>2023-07-02T12:05:34Z</time>
      </trkpt>
      <trkpt lat="49.81819" lon="2.56685">
        <ele>74.4</ele>
        <time>2023-07-02T12:05:35Z</time>
      </trkpt>
      <trkpt lat="49.8182" lon="2.56685">
        <ele>74.4</ele>
        <time>2023-07-02T12:05:36Z</time>
      </trkpt>
      <trkpt lat="49.81821" lon="2.56686">
        <ele>74.4</ele>
        <time>2023-07-02T12:05:37Z</time>
      </trkpt>
      <trkpt lat="49.81822" lon="2.56687">
        <ele>74.3</ele>
        <time>2023-07-02T12:05:38Z</time>
      </trkpt>
      <trkpt lat="49.81824" lon="2.56688">
        <ele>74.3</ele>
        <time>2023-07-02T12:05:40Z</time>
      </trkpt>
      <trkpt lat="49.81825" lon="2.56688">
        <ele>74.2</ele>
        <time>2023-07-02T12:05:41Z</time>
      </trkpt>
      <trkpt lat="49.81826" lon="2.56688">
        <ele>74.1</ele>
        <time>2023-07-02T12:05:42Z</time>
      </trkpt>
      <trkpt lat="49.81827" lon="2.56688">
        <ele>74.1</ele>
        <time>2023-07-02T12:05:43Z</time>
      </trkpt>
      <trkpt lat="49.81828" lon="2.56689">
        <ele>74</ele>
        <time>2023-07-02T12:05:44Z</time>
      </trkpt>
      <trkpt lat="49.81829" lon="2.56689">
        <ele>74</ele>
        <time>2023-07-02T12:05:45Z</time>
      </trkpt>
      <trkpt lat="49.81831" lon="2.5669">
        <ele>73.9</ele>
        <time>2023-07-02T12:05:47Z</time>
      </trkpt>
      <trkpt lat="49.81832" lon="2.56691">
        <ele>73.9</ele>
        <time>2023-07-02T12:05:48Z</time>
      </trkpt>
      <trkpt lat="49.81833" lon="2.56691">
        <ele>73.8</ele>
        <time>2023-07-02T12:05:49Z</time>
      </trkpt>
      <trkpt lat="49.81834" lon="2.56691">
        <ele>73.7</ele>
        <time>2023-07-02T12:05:51Z</time>
      </trkpt>
      <trkpt lat="49.81835" lon="2.56692">
        <ele>73.7</ele>
        <time>2023-07-02T12:05:52Z</time>
      </trkpt>
      <trkpt lat="49.81836" lon="2.56693">
        <ele>73.6</ele>
        <time>2023-07-02T12:05:53Z</time>
      </trkpt>
      <trkpt lat="49.81837" lon="2.56693">
        <ele>73.6</ele>
        <time>2023-07-02T12:05:54Z</time>
      </trkpt>
      <trkpt lat="49.81838" lon="2.56694">
        <ele>73.5</ele>
        <time>2023-07-02T12:05:55Z</time>
      </trkpt>
      <trkpt lat="49.81838" lon="2.56693">
        <ele>73.5</ele>
        <time>2023-07-02T12:05:56Z</time>
      </trkpt>
      <trkpt lat="49.81838" lon="2.56693">
        <ele>73.5</ele>
        <time>2023-07-02T12:05:57Z</time>
      </trkpt>
      <trkpt lat="49.81838" lon="2.56693">
        <ele>73.5</ele>
        <time>2023-07-02T12:05:59Z</time>
      </trkpt>
      <trkpt lat="49.8184" lon="2.56694">
        <ele>73.4</ele>
        <time>2023-07-02T12:06:00Z</time>
      </trkpt>
      <trkpt lat="49.8184" lon="2.56694">
        <ele>73.4</ele>
        <time>2023-07-02T12:06:01Z</time>
      </trkpt>
      <trkpt lat="49.81841" lon="2.56694">
        <ele>73.3</ele>
        <time>2023-07-02T12:06:03Z</time>
      </trkpt>
      <trkpt lat="49.81842" lon="2.56694">
        <ele>73.3</ele>
        <time>2023-07-02T12:06:04Z</time>
      </trkpt>
      <trkpt lat="49.81842" lon="2.56693">
        <ele>73.3</ele>
        <time>2023-07-02T12:06:05Z</time>
      </trkpt>
      <trkpt lat="49.81843" lon="2.56693">
        <ele>73.2</ele>
        <time>2023-07-02T12:06:06Z</time>
      </trkpt>
      <trkpt lat="49.81843" lon="2.56693">
        <ele>73.2</ele>
        <time>2023-07-02T12:06:07Z</time>
      </trkpt>
      <trkpt lat="49.81845" lon="2.56693">
        <ele>73.1</ele>
        <time>2023-07-02T12:06:08Z</time>
      </trkpt>
      <trkpt lat="49.81845" lon="2.56693">
        <ele>73.1</ele>
        <time>2023-07-02T12:06:10Z</time>
      </trkpt>
      <trkpt lat="49.81846" lon="2.56693">
        <ele>73</ele>
        <time>2023-07-02T12:06:11Z</time>
      </trkpt>
      <trkpt lat="49.81847" lon="2.56693">
        <ele>73</ele>
        <time>2023-07-02T12:06:12Z</time>
      </trkpt>
      <trkpt lat="49.81848" lon="2.56693">
        <ele>72.9</ele>
        <time>2023-07-02T12:06:13Z</time>
      </trkpt>
      <trkpt lat="49.81849" lon="2.56693">
        <ele>72.9</ele>
        <time>2023-07-02T12:06:14Z</time>
      </trkpt>
      <trkpt lat="49.8185" lon="2.56694">
        <ele>72.8</ele>
        <time>2023-07-02T12:06:15Z</time>
      </trkpt>
      <trkpt lat="49.81852" lon="2.56695">
        <ele>72.7</ele>
        <time>2023-07-02T12:06:17Z</time>
      </trkpt>
      <trkpt lat="49.81853" lon="2.56695">
        <ele>72.6</ele>
        <time>2023-07-02T12:06:18Z</time>
      </trkpt>
      <trkpt lat="49.81855" lon="2.56697">
        <ele>72.5</ele>
        <time>2023-07-02T12:06:19Z</time>
      </trkpt>
      <trkpt lat="49.81856" lon="2.56697">
        <ele>72.5</ele>
        <time>2023-07-02T12:06:20Z</time>
      </trkpt>
      <trkpt lat="49.81856" lon="2.56698">
        <ele>72.4</ele>
        <time>2023-07-02T12:06:21Z</time>
      </trkpt>
      <trkpt lat="49.81858" lon="2.56699">
        <ele>72.4</ele>
        <time>2023-07-02T12:06:23Z</time>
      </trkpt>
      <trkpt lat="49.81859" lon="2.567">
        <ele>72.3</ele>
        <time>2023-07-02T12:06:24Z</time>
      </trkpt>
      <trkpt lat="49.81861" lon="2.567">
        <ele>72.2</ele>
        <time>2023-07-02T12:06:25Z</time>
      </trkpt>
      <trkpt lat="49.81863" lon="2.56701">
        <ele>72.1</ele>
        <time>2023-07-02T12:06:26Z</time>
      </trkpt>
      <trkpt lat="49.81864" lon="2.56702">
        <ele>72</ele>
        <time>2023-07-02T12:06:27Z</time>
      </trkpt>
      <trkpt lat="49.81865" lon="2.56702">
        <ele>72</ele>
        <time>2023-07-02T12:06:28Z</time>
      </trkpt>
      <trkpt lat="49.81867" lon="2.56702">
        <ele>71.9</ele>
        <time>2023-07-02T12:06:29Z</time>
      </trkpt>
      <trkpt lat="49.81868" lon="2.56702">
        <ele>71.8</ele>
        <time>2023-07-02T12:06:30Z</time>
      </trkpt>
      <trkpt lat="49.8187" lon="2.56703">
        <ele>71.7</ele>
        <time>2023-07-02T12:06:31Z</time>
      </trkpt>
      <trkpt lat="49.81872" lon="2.56704">
        <ele>71.6</ele>
        <time>2023-07-02T12:06:33Z</time>
      </trkpt>
      <trkpt lat="49.81874" lon="2.56705">
        <ele>71.5</ele>
        <time>2023-07-02T12:06:35Z</time>
      </trkpt>
      <trkpt lat="49.81875" lon="2.56706">
        <ele>71.5</ele>
        <time>2023-07-02T12:06:36Z</time>
      </trkpt>
      <trkpt lat="49.81875" lon="2.56706">
        <ele>71.4</ele>
        <time>2023-07-02T12:06:37Z</time>
      </trkpt>
      <trkpt lat="49.81877" lon="2.56707">
        <ele>71.4</ele>
        <time>2023-07-02T12:06:38Z</time>
      </trkpt>
      <trkpt lat="49.81878" lon="2.56707">
        <ele>71.3</ele>
        <time>2023-07-02T12:06:39Z</time>
      </trkpt>
      <trkpt lat="49.81879" lon="2.56708">
        <ele>71.2</ele>
        <time>2023-07-02T12:06:40Z</time>
      </trkpt>
      <trkpt lat="49.8188" lon="2.56708">
        <ele>71.2</ele>
        <time>2023-07-02T12:06:42Z</time>
      </trkpt>
      <trkpt lat="49.81881" lon="2.56708">
        <ele>71.1</ele>
        <time>2023-07-02T12:06:43Z</time>
      </trkpt>
      <trkpt lat="49.81882" lon="2.56709">
        <ele>71</ele>
        <time>2023-07-02T12:06:44Z</time>
      </trkpt>
      <trkpt lat="49.81883" lon="2.56709">
        <ele>70.9</ele>
        <time>2023-07-02T12:06:45Z</time>
      </trkpt>
      <trkpt lat="49.81884" lon="2.56709">
        <ele>70.9</ele>
        <time>2023-07-02T12:06:46Z</time>
      </trkpt>
      <trkpt lat="49.81886" lon="2.5671">
        <ele>70.8</ele>
        <time>2023-07-02T12:06:47Z</time>
      </trkpt>
      <trkpt lat="49.81887" lon="2.5671">
        <ele>70.8</ele>
        <time>2023-07-02T12:06:48Z</time>
      </trkpt>
      <trkpt lat="49.81888" lon="2.5671">
        <ele>70.7</ele>
        <time>2023-07-02T12:06:50Z</time>
      </trkpt>
      <trkpt lat="49.8189" lon="2.56711">
        <ele>70.6</ele>
        <time>2023-07-02T12:06:51Z</time>
      </trkpt>
      <trkpt lat="49.8189" lon="2.56711">
        <ele>70.5</ele>
        <time>2023-07-02T12:06:52Z</time>
      </trkpt>
      <trkpt lat="49.81891" lon="2.56712">
        <ele>70.5</ele>
        <time>2023-07-02T12:06:53Z</time>
      </trkpt>
      <trkpt lat="49.81893" lon="2.56712">
        <ele>70.4</ele>
        <time>2023-07-02T12:06:54Z</time>
      </trkpt>
      <trkpt lat="49.81894" lon="2.56712">
        <ele>70.3</ele>
        <time>2023-07-02T12:06:55Z</time>
      </trkpt>
      <trkpt lat="49.81895" lon="2.56712">
        <ele>70.3</ele>
        <time>2023-07-02T12:06:56Z</time>
      </trkpt>
      <trkpt lat="49.81897" lon="2.56712">
        <ele>70.2</ele>
        <time>2023-07-02T12:06:57Z</time>
      </trkpt>
      <trkpt lat="49.81899" lon="2.56713">
        <ele>70.1</ele>
        <time>2023-07-02T12:06:59Z</time>
      </trkpt>
      <trkpt lat="49.819" lon="2.56714">
        <ele>70</ele>
        <time>2023-07-02T12:07:00Z</time>
      </trkpt>
      <trkpt lat="49.81901" lon="2.56714">
        <ele>69.9</ele>
        <time>2023-07-02T12:07:01Z</time>
      </trkpt>
      <trkpt lat="49.81903" lon="2.56715">
        <ele>69.8</ele>
        <time>2023-07-02T12:07:02Z</time>
      </trkpt>
      <trkpt lat="49.81904" lon="2.56716">
        <ele>69.8</ele>
        <time>2023-07-02T12:07:03Z</time>
      </trkpt>
      <trkpt lat="49.81905" lon="2.56717">
        <ele>69.7</ele>
        <time>2023-07-02T12:07:05Z</time>
      </trkpt>
      <trkpt lat="49.81907" lon="2.56718">
        <ele>69.6</ele>
        <time>2023-07-02T12:07:06Z</time>
      </trkpt>
      <trkpt lat="49.81908" lon="2.56719">
        <ele>69.5</ele>
        <time>2023-07-02T12:07:07Z</time>
      </trkpt>
      <trkpt lat="49.81909" lon="2.56719">
        <ele>69.5</ele>
        <time>2023-07-02T12:07:08Z</time>
      </trkpt>
      <trkpt lat="49.81909" lon="2.5672">
        <ele>69.4</ele>
        <time>2023-07-02T12:07:09Z</time>
      </trkpt>
      <trkpt lat="49.81911" lon="2.5672">
        <ele>69.3</ele>
        <time>2023-07-02T12:07:11Z</time>
      </trkpt>
      <trkpt lat="49.81912" lon="2.5672">
        <ele>69.3</ele>
        <time>2023-07-02T12:07:12Z</time>
      </trkpt>
      <trkpt lat="49.81913" lon="2.56721">
        <ele>69.2</ele>
        <time>2023-07-02T12:07:14Z</time>
      </trkpt>
      <trkpt lat="49.81914" lon="2.5672">
        <ele>69.2</ele>
        <time>2023-07-02T12:07:15Z</time>
      </trkpt>
      <trkpt lat="49.81916" lon="2.5672">
        <ele>69.1</ele>
        <time>2023-07-02T12:07:16Z</time>
      </trkpt>
      <trkpt lat="49.81917" lon="2.56721">
        <ele>69</ele>
        <time>2023-07-02T12:07:17Z</time>
      </trkpt>
      <trkpt lat="49.81918" lon="2.56721">
        <ele>69</ele>
        <time>2023-07-02T12:07:18Z</time>
      </trkpt>
      <trkpt lat="49.81919" lon="2.56721">
        <ele>68.9</ele>
        <time>2023-07-02T12:07:19Z</time>
      </trkpt>
      <trkpt lat="49.81921" lon="2.56722">
        <ele>68.8</ele>
        <time>2023-07-02T12:07:21Z</time>
      </trkpt>
      <trkpt lat="49.81922" lon="2.56723">
        <ele>68.7</ele>
        <time>2023-07-02T12:07:22Z</time>
      </trkpt>
      <trkpt lat="49.81924" lon="2.56723">
        <ele>68.7</ele>
        <time>2023-07-02T12:07:23Z</time>
      </trkpt>
      <trkpt lat="49.81925" lon="2.56724">
        <ele>68.6</ele>
        <time>2023-07-02T12:07:24Z</time>
      </trkpt>
      <trkpt lat="49.81925" lon="2.56725">
        <ele>68.6</ele>
        <time>2023-07-02T12:07:25Z</time>
      </trkpt>
      <trkpt lat="49.81926" lon="2.56725">
        <ele>68.5</ele>
        <time>2023-07-02T12:07:26Z</time>
      </trkpt>
      <trkpt lat="49.81927" lon="2.56725">
        <ele>68.5</ele>
        <time>2023-07-02T12:07:28Z</time>
      </trkpt>
      <trkpt lat="49.81928" lon="2.56726">
        <ele>68.4</ele>
        <time>2023-07-02T12:07:29Z</time>
      </trkpt>
      <trkpt lat="49.81929" lon="2.56727">
        <ele>68.3</ele>
        <time>2023-07-02T12:07:30Z</time>
      </trkpt>
      <trkpt lat="49.8193" lon="2.56727">
        <ele>68.3</ele>
        <time>2023-07-02T12:07:31Z</time>
      </trkpt>
      <trkpt lat="49.81931" lon="2.56727">
        <ele>68.2</ele>
        <time>2023-07-02T12:07:32Z</time>
      </trkpt>
      <trkpt lat="49.81932" lon="2.56728">
        <ele>68.2</ele>
        <time>2023-07-02T12:07:34Z</time>
      </trkpt>
      <trkpt lat="49.81933" lon="2.56729">
        <ele>68.1</ele>
        <time>2023-07-02T12:07:35Z</time>
      </trkpt>
      <trkpt lat="49.81934" lon="2.56729">
        <ele>68.1</ele>
        <time>2023-07-02T12:07:36Z</time>
      </trkpt>
      <trkpt lat="49.81935" lon="2.56729">
        <ele>68</ele>
        <time>2023-07-02T12:07:37Z</time>
      </trkpt>
      <trkpt lat="49.81936" lon="2.56729">
        <ele>68</ele>
        <time>2023-07-02T12:07:38Z</time>
      </trkpt>
      <trkpt lat="49.81938" lon="2.5673">
        <ele>67.9</ele>
        <time>2023-07-02T12:07:39Z</time>
      </trkpt>
      <trkpt lat="49.81939" lon="2.5673">
        <ele>67.8</ele>
        <time>2023-07-02T12:07:40Z</time>
      </trkpt>
      <trkpt lat="49.8194" lon="2.56731">
        <ele>67.7</ele>
        <time>2023-07-02T12:07:42Z</time>
      </trkpt>
      <trkpt lat="49.81942" lon="2.56732">
        <ele>67.6</ele>
        <time>2023-07-02T12:07:43Z</time>
      </trkpt>
      <trkpt lat="49.81943" lon="2.56733">
        <ele>67.6</ele>
        <time>2023-07-02T12:07:44Z</time>
      </trkpt>
      <trkpt lat="49.81945" lon="2.56734">
        <ele>67.5</ele>
        <time>2023-07-02T12:07:45Z</time>
      </trkpt>
      <trkpt lat="49.81946" lon="2.56735">
        <ele>67.4</ele>
        <time>2023-07-02T12:07:46Z</time>
      </trkpt>
      <trkpt lat="49.81947" lon="2.56735">
        <ele>67.4</ele>
        <time>2023-07-02T12:07:48Z</time>
      </trkpt>
      <trkpt lat="49.81948" lon="2.56736">
        <ele>67.3</ele>
        <time>2023-07-02T12:07:49Z</time>
      </trkpt>
      <trkpt lat="49.81948" lon="2.56736">
        <ele>67.3</ele>
        <time>2023-07-02T12:07:50Z</time>
      </trkpt>
      <trkpt lat="49.81949" lon="2.56737">
        <ele>67.2</ele>
        <time>2023-07-02T12:07:51Z</time>
      </trkpt>
      <trkpt lat="49.8195" lon="2.56738">
        <ele>67.1</ele>
        <time>2023-07-02T12:07:52Z</time>
      </trkpt>
      <trkpt lat="49.81951" lon="2.56739">
        <ele>67.1</ele>
        <time>2023-07-02T12:07:53Z</time>
      </trkpt>
      <trkpt lat="49.81953" lon="2.56739">
        <ele>67</ele>
        <time>2023-07-02T12:07:55Z</time>
      </trkpt>
      <trkpt lat="49.81955" lon="2.5674">
        <ele>66.9</ele>
        <time>2023-07-02T12:07:56Z</time>
      </trkpt>
      <trkpt lat="49.81955" lon="2.56741">
        <ele>66.9</ele>
        <time>2023-07-02T12:07:57Z</time>
      </trkpt>
      <trkpt lat="49.81956" lon="2.56741">
        <ele>66.8</ele>
        <time>2023-07-02T12:07:58Z</time>
      </trkpt>
      <trkpt lat="49.81957" lon="2.56742">
        <ele>66.8</ele>
        <time>2023-07-02T12:07:59Z</time>
      </trkpt>
      <trkpt lat="49.81958" lon="2.56743">
        <ele>66.7</ele>
        <time>2023-07-02T12:08:00Z</time>
      </trkpt>
      <trkpt lat="49.81959" lon="2.56744">
        <ele>66.7</ele>
        <time>2023-07-02T12:08:01Z</time>
      </trkpt>
      <trkpt lat="49.81961" lon="2.56745">
        <ele>66.6</ele>
        <time>2023-07-02T12:08:03Z</time>
      </trkpt>
      <trkpt lat="49.81962" lon="2.56745">
        <ele>66.5</ele>
        <time>2023-07-02T12:08:04Z</time>
      </trkpt>
      <trkpt lat="49.81964" lon="2.56746">
        <ele>66.4</ele>
        <time>2023-07-02T12:08:05Z</time>
      </trkpt>
      <trkpt lat="49.81965" lon="2.56747">
        <ele>66.4</ele>
        <time>2023-07-02T12:08:06Z</time>
      </trkpt>
      <trkpt lat="49.81966" lon="2.56748">
        <ele>66.3</ele>
        <time>2023-07-02T12:08:07Z</time>
      </trkpt>
      <trkpt lat="49.81967" lon="2.56749">
        <ele>66.2</ele>
        <time>2023-07-02T12:08:09Z</time>
      </trkpt>
      <trkpt lat="49.81969" lon="2.5675">
        <ele>66.2</ele>
        <time>2023-07-02T12:08:10Z</time>
      </trkpt>
      <trkpt lat="49.8197" lon="2.56751">
        <ele>66.1</ele>
        <time>2023-07-02T12:08:11Z</time>
      </trkpt>
      <trkpt lat="49.81971" lon="2.56752">
        <ele>66</ele>
        <time>2023-07-02T12:08:12Z</time>
      </trkpt>
      <trkpt lat="49.81972" lon="2.56753">
        <ele>66</ele>
        <time>2023-07-02T12:08:13Z</time>
      </trkpt>
      <trkpt lat="49.81973" lon="2.56753">
        <ele>65.9</ele>
        <time>2023-07-02T12:08:14Z</time>
      </trkpt>
      <trkpt lat="49.81974" lon="2.56754">
        <ele>65.9</ele>
        <time>2023-07-02T12:08:15Z</time>
      </trkpt>
      <trkpt lat="49.81975" lon="2.56755">
        <ele>65.8</ele>
        <time>2023-07-02T12:08:16Z</time>
      </trkpt>
      <trkpt lat="49.81976" lon="2.56756">
        <ele>65.8</ele>
        <time>2023-07-02T12:08:17Z</time>
      </trkpt>
      <trkpt lat="49.81978" lon="2.56757">
        <ele>65.7</ele>
        <time>2023-07-02T12:08:19Z</time>
      </trkpt>
      <trkpt lat="49.81979" lon="2.56758">
        <ele>65.7</ele>
        <time>2023-07-02T12:08:20Z</time>
      </trkpt>
      <trkpt lat="49.81979" lon="2.56759">
        <ele>65.6</ele>
        <time>2023-07-02T12:08:21Z</time>
      </trkpt>
      <trkpt lat="49.8198" lon="2.56759">
        <ele>65.6</ele>
        <time>2023-07-02T12:08:22Z</time>
      </trkpt>
      <trkpt lat="49.81981" lon="2.5676">
        <ele>65.5</ele>
        <time>2023-07-02T12:08:23Z</time>
      </trkpt>
      <trkpt lat="49.81982" lon="2.5676">
        <ele>65.5</ele>
        <time>2023-07-02T12:08:24Z</time>
      </trkpt>
      <trkpt lat="49.81983" lon="2.56761">
        <ele>65.5</ele>
        <time>2023-07-02T12:08:25Z</time>
      </trkpt>
      <trkpt lat="49.81984" lon="2.56761">
        <ele>65.4</ele>
        <time>2023-07-02T12:08:26Z</time>
      </trkpt>
      <trkpt lat="49.81984" lon="2.56761">
        <ele>65.4</ele>
        <time>2023-07-02T12:08:28Z</time>
      </trkpt>
      <trkpt lat="49.81985" lon="2.56761">
        <ele>65.4</ele>
        <time>2023-07-02T12:08:29Z</time>
      </trkpt>
      <trkpt lat="49.81986" lon="2.56762">
        <ele>65.3</ele>
        <time>2023-07-02T12:08:30Z</time>
      </trkpt>
      <trkpt lat="49.81987" lon="2.56762">
        <ele>65.3</ele>
        <time>2023-07-02T12:08:31Z</time>
      </trkpt>
      <trkpt lat="49.81989" lon="2.56763">
        <ele>65.2</ele>
        <time>2023-07-02T12:08:32Z</time>
      </trkpt>
      <trkpt lat="49.8199" lon="2.56764">
        <ele>65.2</ele>
        <time>2023-07-02T12:08:33Z</time>
      </trkpt>
      <trkpt lat="49.81992" lon="2.56764">
        <ele>65.1</ele>
        <time>2023-07-02T12:08:34Z</time>
      </trkpt>
      <trkpt lat="49.81994" lon="2.56766">
        <ele>65</ele>
        <time>2023-07-02T12:08:35Z</time>
      </trkpt>
      <trkpt lat="49.81995" lon="2.56766">
        <ele>65</ele>
        <time>2023-07-02T12:08:37Z</time>
      </trkpt>
      <trkpt lat="49.81996" lon="2.56767">
        <ele>64.9</ele>
        <time>2023-07-02T12:08:38Z</time>
      </trkpt>
      <trkpt lat="49.81997" lon="2.56768">
        <ele>64.9</ele>
        <time>2023-07-02T12:08:39Z</time>
      </trkpt>
      <trkpt lat="49.81997" lon="2.56768">
        <ele>64.8</ele>
        <time>2023-07-02T12:08:40Z</time>
      </trkpt>
      <trkpt lat="49.81999" lon="2.56769">
        <ele>64.8</ele>
        <time>2023-07-02T12:08:41Z</time>
      </trkpt>
      <trkpt lat="49.82" lon="2.5677">
        <ele>64.7</ele>
        <time>2023-07-02T12:08:42Z</time>
      </trkpt>
      <trkpt lat="49.82001" lon="2.5677">
        <ele>64.7</ele>
        <time>2023-07-02T12:08:44Z</time>
      </trkpt>
      <trkpt lat="49.82002" lon="2.56771">
        <ele>64.6</ele>
        <time>2023-07-02T12:08:45Z</time>
      </trkpt>
      <trkpt lat="49.82003" lon="2.56772">
        <ele>64.6</ele>
        <time>2023-07-02T12:08:46Z</time>
      </trkpt>
      <trkpt lat="49.82004" lon="2.56772">
        <ele>64.6</ele>
        <time>2023-07-02T12:08:47Z</time>
      </trkpt>
      <trkpt lat="49.82005" lon="2.56773">
        <ele>64.5</ele>
        <time>2023-07-02T12:08:48Z</time>
      </trkpt>
      <trkpt lat="49.82006" lon="2.56773">
        <ele>64.5</ele>
        <time>2023-07-02T12:08:49Z</time>
      </trkpt>
      <trkpt lat="49.82007" lon="2.56774">
        <ele>64.4</ele>
        <time>2023-07-02T12:08:51Z</time>
      </trkpt>
      <trkpt lat="49.82008" lon="2.56775">
        <ele>64.4</ele>
        <time>2023-07-02T12:08:52Z</time>
      </trkpt>
      <trkpt lat="49.82009" lon="2.56776">
        <ele>64.3</ele>
        <time>2023-07-02T12:08:54Z</time>
      </trkpt>
      <trkpt lat="49.8201" lon="2.56777">
        <ele>64.3</ele>
        <time>2023-07-02T12:08:55Z</time>
      </trkpt>
      <trkpt lat="49.82011" lon="2.56778">
        <ele>64.2</ele>
        <time>2023-07-02T12:08:56Z</time>
      </trkpt>
      <trkpt lat="49.82013" lon="2.56779">
        <ele>64.2</ele>
        <time>2023-07-02T12:08:57Z</time>
      </trkpt>
      <trkpt lat="49.82015" lon="2.56781">
        <ele>64.1</ele>
        <time>2023-07-02T12:08:58Z</time>
      </trkpt>
      <trkpt lat="49.82016" lon="2.56782">
        <ele>64</ele>
        <time>2023-07-02T12:08:59Z</time>
      </trkpt>
      <trkpt lat="49.82018" lon="2.56783">
        <ele>64</ele>
        <time>2023-07-02T12:09:00Z</time>
      </trkpt>
      <trkpt lat="49.82019" lon="2.56785">
        <ele>63.9</ele>
        <time>2023-07-02T12:09:01Z</time>
      </trkpt>
      <trkpt lat="49.8202" lon="2.56787">
        <ele>63.8</ele>
        <time>2023-07-02T12:09:03Z</time>
      </trkpt>
      <trkpt lat="49.82021" lon="2.56788">
        <ele>63.8</ele>
        <time>2023-07-02T12:09:04Z</time>
      </trkpt>
      <trkpt lat="49.82024" lon="2.5679">
        <ele>63.6</ele>
        <time>2023-07-02T12:09:05Z</time>
      </trkpt>
      <trkpt lat="49.82025" lon="2.56791">
        <ele>63.6</ele>
        <time>2023-07-02T12:09:07Z</time>
      </trkpt>
      <trkpt lat="49.82026" lon="2.56792">
        <ele>63.6</ele>
        <time>2023-07-02T12:09:08Z</time>
      </trkpt>
      <trkpt lat="49.82027" lon="2.56793">
        <ele>63.5</ele>
        <time>2023-07-02T12:09:09Z</time>
      </trkpt>
      <trkpt lat="49.82028" lon="2.56793">
        <ele>63.5</ele>
        <time>2023-07-02T12:09:10Z</time>
      </trkpt>
      <trkpt lat="49.82029" lon="2.56794">
        <ele>63.4</ele>
        <time>2023-07-02T12:09:11Z</time>
      </trkpt>
      <trkpt lat="49.8203" lon="2.56795">
        <ele>63.4</ele>
        <time>2023-07-02T12:09:12Z</time>
      </trkpt>
      <trkpt lat="49.82032" lon="2.56796">
        <ele>63.3</ele>
        <time>2023-07-02T12:09:14Z</time>
      </trkpt>
      <trkpt lat="49.82033" lon="2.56798">
        <ele>63.2</ele>
        <time>2023-07-02T12:09:15Z</time>
      </trkpt>
      <trkpt lat="49.82034" lon="2.56799">
        <ele>63.2</ele>
        <time>2023-07-02T12:09:16Z</time>
      </trkpt>
      <trkpt lat="49.82035" lon="2.56799">
        <ele>63.1</ele>
        <time>2023-07-02T12:09:17Z</time>
      </trkpt>
      <trkpt lat="49.82037" lon="2.56801">
        <ele>63</ele>
        <time>2023-07-02T12:09:18Z</time>
      </trkpt>
      <trkpt lat="49.82038" lon="2.56802">
        <ele>63</ele>
        <time>2023-07-02T12:09:20Z</time>
      </trkpt>
      <trkpt lat="49.82039" lon="2.56803">
        <ele>62.9</ele>
        <time>2023-07-02T12:09:21Z</time>
      </trkpt>
      <trkpt lat="49.8204" lon="2.56804">
        <ele>62.9</ele>
        <time>2023-07-02T12:09:23Z</time>
      </trkpt>
      <trkpt lat="49.82041" lon="2.56805">
        <ele>62.8</ele>
        <time>2023-07-02T12:09:24Z</time>
      </trkpt>
      <trkpt lat="49.82042" lon="2.56806">
        <ele>62.8</ele>
        <time>2023-07-02T12:09:25Z</time>
      </trkpt>
      <trkpt lat="49.82043" lon="2.56807">
        <ele>62.8</ele>
        <time>2023-07-02T12:09:26Z</time>
      </trkpt>
      <trkpt lat="49.82044" lon="2.56808">
        <ele>62.7</ele>
        <time>2023-07-02T12:09:27Z</time>
      </trkpt>
      <trkpt lat="49.82045" lon="2.56809">
        <ele>62.6</ele>
        <time>2023-07-02T12:09:29Z</time>
      </trkpt>
      <trkpt lat="49.82046" lon="2.5681">
        <ele>62.6</ele>
        <time>2023-07-02T12:09:30Z</time>
      </trkpt>
      <trkpt lat="49.82048" lon="2.56812">
        <ele>62.5</ele>
        <time>2023-07-02T12:09:31Z</time>
      </trkpt>
      <trkpt lat="49.82048" lon="2.56813">
        <ele>62.5</ele>
        <time>2023-07-02T12:09:32Z</time>
      </trkpt>
      <trkpt lat="49.82049" lon="2.56813">
        <ele>62.4</ele>
        <time>2023-07-02T12:09:33Z</time>
      </trkpt>
      <trkpt lat="49.8205" lon="2.56814">
        <ele>62.4</ele>
        <time>2023-07-02T12:09:34Z</time>
      </trkpt>
      <trkpt lat="49.82052" lon="2.56817">
        <ele>62.3</ele>
        <time>2023-07-02T12:09:36Z</time>
      </trkpt>
      <trkpt lat="49.82053" lon="2.56818">
        <ele>62.3</ele>
        <time>2023-07-02T12:09:38Z</time>
      </trkpt>
      <trkpt lat="49.82054" lon="2.56819">
        <ele>62.2</ele>
        <time>2023-07-02T12:09:39Z</time>
      </trkpt>
      <trkpt lat="49.82055" lon="2.5682">
        <ele>62.2</ele>
        <time>2023-07-02T12:09:40Z</time>
      </trkpt>
      <trkpt lat="49.82056" lon="2.56821">
        <ele>62.1</ele>
        <time>2023-07-02T12:09:41Z</time>
      </trkpt>
      <trkpt lat="49.82057" lon="2.56822">
        <ele>62.1</ele>
        <time>2023-07-02T12:09:43Z</time>
      </trkpt>
      <trkpt lat="49.82058" lon="2.56824">
        <ele>62</ele>
        <time>2023-07-02T12:09:44Z</time>
      </trkpt>
      <trkpt lat="49.82059" lon="2.56825">
        <ele>62</ele>
        <time>2023-07-02T12:09:45Z</time>
      </trkpt>
      <trkpt lat="49.8206" lon="2.56826">
        <ele>62</ele>
        <time>2023-07-02T12:09:46Z</time>
      </trkpt>
      <trkpt lat="49.82061" lon="2.56827">
        <ele>61.9</ele>
        <time>2023-07-02T12:09:47Z</time>
      </trkpt>
      <trkpt lat="49.82062" lon="2.56828">
        <ele>61.9</ele>
        <time>2023-07-02T12:09:48Z</time>
      </trkpt>
      <trkpt lat="49.82062" lon="2.56828">
        <ele>61.9</ele>
        <time>2023-07-02T12:09:49Z</time>
      </trkpt>
      <trkpt lat="49.82063" lon="2.56829">
        <ele>61.8</ele>
        <time>2023-07-02T12:09:50Z</time>
      </trkpt>
      <trkpt lat="49.82065" lon="2.56831">
        <ele>61.8</ele>
        <time>2023-07-02T12:09:52Z</time>
      </trkpt>
      <trkpt lat="49.82065" lon="2.56832">
        <ele>61.8</ele>
        <time>2023-07-02T12:09:53Z</time>
      </trkpt>
      <trkpt lat="49.82066" lon="2.56833">
        <ele>61.7</ele>
        <time>2023-07-02T12:09:54Z</time>
      </trkpt>
      <trkpt lat="49.82067" lon="2.56834">
        <ele>61.7</ele>
        <time>2023-07-02T12:09:55Z</time>
      </trkpt>
      <trkpt lat="49.82068" lon="2.56835">
        <ele>61.6</ele>
        <time>2023-07-02T12:09:56Z</time>
      </trkpt>
      <trkpt lat="49.82069" lon="2.56837">
        <ele>61.6</ele>
        <time>2023-07-02T12:09:58Z</time>
      </trkpt>
      <trkpt lat="49.8207" lon="2.56838">
        <ele>61.5</ele>
        <time>2023-07-02T12:09:59Z</time>
      </trkpt>
      <trkpt lat="49.82071" lon="2.56839">
        <ele>61.5</ele>
        <time>2023-07-02T12:10:00Z</time>
      </trkpt>
      <trkpt lat="49.82072" lon="2.5684">
        <ele>61.5</ele>
        <time>2023-07-02T12:10:01Z</time>
      </trkpt>
      <trkpt lat="49.82073" lon="2.56842">
        <ele>61.4</ele>
        <time>2023-07-02T12:10:02Z</time>
      </trkpt>
      <trkpt lat="49.82074" lon="2.56843">
        <ele>61.4</ele>
        <time>2023-07-02T12:10:04Z</time>
      </trkpt>
      <trkpt lat="49.82075" lon="2.56844">
        <ele>61.3</ele>
        <time>2023-07-02T12:10:05Z</time>
      </trkpt>
      <trkpt lat="49.82076" lon="2.56845">
        <ele>61.3</ele>
        <time>2023-07-02T12:10:06Z</time>
      </trkpt>
      <trkpt lat="49.82077" lon="2.56846">
        <ele>61.2</ele>
        <time>2023-07-02T12:10:07Z</time>
      </trkpt>
      <trkpt lat="49.82078" lon="2.56847">
        <ele>61.2</ele>
        <time>2023-07-02T12:10:08Z</time>
      </trkpt>
      <trkpt lat="49.82079" lon="2.56849">
        <ele>61.1</ele>
        <time>2023-07-02T12:10:09Z</time>
      </trkpt>
      <trkpt lat="49.8208" lon="2.5685">
        <ele>61.1</ele>
        <time>2023-07-02T12:10:10Z</time>
      </trkpt>
      <trkpt lat="49.82081" lon="2.5685">
        <ele>61.1</ele>
        <time>2023-07-02T12:10:11Z</time>
      </trkpt>
      <trkpt lat="49.82082" lon="2.56851">
        <ele>61</ele>
        <time>2023-07-02T12:10:13Z</time>
      </trkpt>
      <trkpt lat="49.82084" lon="2.56852">
        <ele>61</ele>
        <time>2023-07-02T12:10:14Z</time>
      </trkpt>
      <trkpt lat="49.82085" lon="2.56854">
        <ele>60.9</ele>
        <time>2023-07-02T12:10:15Z</time>
      </trkpt>
      <trkpt lat="49.82086" lon="2.56855">
        <ele>60.9</ele>
        <time>2023-07-02T12:10:16Z</time>
      </trkpt>
      <trkpt lat="49.82087" lon="2.56855">
        <ele>60.8</ele>
        <time>2023-07-02T12:10:17Z</time>
      </trkpt>
      <trkpt lat="49.82088" lon="2.56856">
        <ele>60.8</ele>
        <time>2023-07-02T12:10:18Z</time>
      </trkpt>
      <trkpt lat="49.82089" lon="2.56857">
        <ele>60.7</ele>
        <time>2023-07-02T12:10:19Z</time>
      </trkpt>
      <trkpt lat="49.8209" lon="2.56858">
        <ele>60.7</ele>
        <time>2023-07-02T12:10:21Z</time>
      </trkpt>
      <trkpt lat="49.82091" lon="2.56859">
        <ele>60.7</ele>
        <time>2023-07-02T12:10:22Z</time>
      </trkpt>
      <trkpt lat="49.82093" lon="2.56861">
        <ele>60.6</ele>
        <time>2023-07-02T12:10:23Z</time>
      </trkpt>
      <trkpt lat="49.82094" lon="2.56862">
        <ele>60.5</ele>
        <time>2023-07-02T12:10:24Z</time>
      </trkpt>
      <trkpt lat="49.82095" lon="2.56863">
        <ele>60.5</ele>
        <time>2023-07-02T12:10:25Z</time>
      </trkpt>
      <trkpt lat="49.82096" lon="2.56863">
        <ele>60.5</ele>
        <time>2023-07-02T12:10:26Z</time>
      </trkpt>
      <trkpt lat="49.82097" lon="2.56864">
        <ele>60.4</ele>
        <time>2023-07-02T12:10:27Z</time>
      </trkpt>
      <trkpt lat="49.82098" lon="2.56865">
        <ele>60.4</ele>
        <time>2023-07-02T12:10:28Z</time>
      </trkpt>
      <trkpt lat="49.821" lon="2.56866">
        <ele>60.3</ele>
        <time>2023-07-02T12:10:30Z</time>
      </trkpt>
      <trkpt lat="49.82101" lon="2.56867">
        <ele>60.2</ele>
        <time>2023-07-02T12:10:31Z</time>
      </trkpt>
      <trkpt lat="49.82102" lon="2.56868">
        <ele>60.2</ele>
        <time>2023-07-02T12:10:32Z</time>
      </trkpt>
      <trkpt lat="49.82103" lon="2.56869">
        <ele>60.1</ele>
        <time>2023-07-02T12:10:33Z</time>
      </trkpt>
      <trkpt lat="49.82104" lon="2.5687">
        <ele>60.1</ele>
        <time>2023-07-02T12:10:34Z</time>
      </trkpt>
      <trkpt lat="49.82105" lon="2.56871">
        <ele>60.1</ele>
        <time>2023-07-02T12:10:35Z</time>
      </trkpt>
      <trkpt lat="49.82107" lon="2.56872">
        <ele>60</ele>
        <time>2023-07-02T12:10:37Z</time>
      </trkpt>
      <trkpt lat="49.82108" lon="2.56873">
        <ele>59.9</ele>
        <time>2023-07-02T12:10:38Z</time>
      </trkpt>
      <trkpt lat="49.82109" lon="2.56874">
        <ele>59.9</ele>
        <time>2023-07-02T12:10:39Z</time>
      </trkpt>
      <trkpt lat="49.8211" lon="2.56875">
        <ele>59.8</ele>
        <time>2023-07-02T12:10:40Z</time>
      </trkpt>
      <trkpt lat="49.82111" lon="2.56876">
        <ele>59.8</ele>
        <time>2023-07-02T12:10:42Z</time>
      </trkpt>
      <trkpt lat="49.82112" lon="2.56877">
        <ele>59.7</ele>
        <time>2023-07-02T12:10:43Z</time>
      </trkpt>
      <trkpt lat="49.82112" lon="2.56878">
        <ele>59.7</ele>
        <time>2023-07-02T12:10:44Z</time>
      </trkpt>
      <trkpt lat="49.82113" lon="2.56879">
        <ele>59.7</ele>
        <time>2023-07-02T12:10:45Z</time>
      </trkpt>
      <trkpt lat="49.82114" lon="2.5688">
        <ele>59.6</ele>
        <time>2023-07-02T12:10:46Z</time>
      </trkpt>
      <trkpt lat="49.82115" lon="2.56881">
        <ele>59.6</ele>
        <time>2023-07-02T12:10:47Z</time>
      </trkpt>
      <trkpt lat="49.82115" lon="2.56882">
        <ele>59.5</ele>
        <time>2023-07-02T12:10:48Z</time>
      </trkpt>
      <trkpt lat="49.82115" lon="2.56884">
        <ele>59.5</ele>
        <time>2023-07-02T12:10:50Z</time>
      </trkpt>
      <trkpt lat="49.82116" lon="2.56884">
        <ele>59.5</ele>
        <time>2023-07-02T12:10:51Z</time>
      </trkpt>
      <trkpt lat="49.82116" lon="2.56885">
        <ele>59.4</ele>
        <time>2023-07-02T12:10:52Z</time>
      </trkpt>
      <trkpt lat="49.82117" lon="2.56885">
        <ele>59.4</ele>
        <time>2023-07-02T12:10:53Z</time>
      </trkpt>
      <trkpt lat="49.82118" lon="2.56886">
        <ele>59.4</ele>
        <time>2023-07-02T12:10:54Z</time>
      </trkpt>
      <trkpt lat="49.8212" lon="2.56887">
        <ele>59.3</ele>
        <time>2023-07-02T12:10:56Z</time>
      </trkpt>
      <trkpt lat="49.82121" lon="2.56888">
        <ele>59.3</ele>
        <time>2023-07-02T12:10:57Z</time>
      </trkpt>
      <trkpt lat="49.82122" lon="2.56889">
        <ele>59.2</ele>
        <time>2023-07-02T12:10:58Z</time>
      </trkpt>
      <trkpt lat="49.82124" lon="2.56889">
        <ele>59.2</ele>
        <time>2023-07-02T12:10:59Z</time>
      </trkpt>
      <trkpt lat="49.82125" lon="2.5689">
        <ele>59.1</ele>
        <time>2023-07-02T12:11:01Z</time>
      </trkpt>
      <trkpt lat="49.82127" lon="2.5689">
        <ele>59.1</ele>
        <time>2023-07-02T12:11:02Z</time>
      </trkpt>
      <trkpt lat="49.82128" lon="2.56891">
        <ele>59</ele>
        <time>2023-07-02T12:11:03Z</time>
      </trkpt>
      <trkpt lat="49.82129" lon="2.56892">
        <ele>59</ele>
        <time>2023-07-02T12:11:04Z</time>
      </trkpt>
      <trkpt lat="49.82131" lon="2.56893">
        <ele>59</ele>
        <time>2023-07-02T12:11:05Z</time>
      </trkpt>
      <trkpt lat="49.82132" lon="2.56894">
        <ele>58.9</ele>
        <time>2023-07-02T12:11:06Z</time>
      </trkpt>
      <trkpt lat="49.82134" lon="2.56895">
        <ele>58.8</ele>
        <time>2023-07-02T12:11:08Z</time>
      </trkpt>
      <trkpt lat="49.82135" lon="2.56896">
        <ele>58.8</ele>
        <time>2023-07-02T12:11:09Z</time>
      </trkpt>
      <trkpt lat="49.82137" lon="2.56897">
        <ele>58.7</ele>
        <time>2023-07-02T12:11:10Z</time>
      </trkpt>
      <trkpt lat="49.82138" lon="2.56898">
        <ele>58.7</ele>
        <time>2023-07-02T12:11:12Z</time>
      </trkpt>
      <trkpt lat="49.82139" lon="2.56898">
        <ele>58.7</ele>
        <time>2023-07-02T12:11:13Z</time>
      </trkpt>
      <trkpt lat="49.8214" lon="2.56899">
        <ele>58.7</ele>
        <time>2023-07-02T12:11:14Z</time>
      </trkpt>
      <trkpt lat="49.82141" lon="2.569">
        <ele>58.6</ele>
        <time>2023-07-02T12:11:15Z</time>
      </trkpt>
      <trkpt lat="49.82142" lon="2.56901">
        <ele>58.6</ele>
        <time>2023-07-02T12:11:16Z</time>
      </trkpt>
      <trkpt lat="49.82143" lon="2.56902">
        <ele>58.6</ele>
        <time>2023-07-02T12:11:17Z</time>
      </trkpt>
      <trkpt lat="49.82143" lon="2.56903">
        <ele>58.5</ele>
        <time>2023-07-02T12:11:18Z</time>
      </trkpt>
      <trkpt lat="49.82144" lon="2.56904">
        <ele>58.5</ele>
        <time>2023-07-02T12:11:19Z</time>
      </trkpt>
      <trkpt lat="49.82145" lon="2.56905">
        <ele>58.5</ele>
        <time>2023-07-02T12:11:21Z</time>
      </trkpt>
      <trkpt lat="49.82146" lon="2.56906">
        <ele>58.4</ele>
        <time>2023-07-02T12:11:22Z</time>
      </trkpt>
      <trkpt lat="49.82147" lon="2.56906">
        <ele>58.4</ele>
        <time>2023-07-02T12:11:23Z</time>
      </trkpt>
      <trkpt lat="49.82149" lon="2.56907">
        <ele>58.4</ele>
        <time>2023-07-02T12:11:24Z</time>
      </trkpt>
      <trkpt lat="49.82149" lon="2.56907">
        <ele>58.4</ele>
        <time>2023-07-02T12:11:25Z</time>
      </trkpt>
      <trkpt lat="49.8215" lon="2.56908">
        <ele>58.3</ele>
        <time>2023-07-02T12:11:26Z</time>
      </trkpt>
      <trkpt lat="49.82152" lon="2.56908">
        <ele>58.3</ele>
        <time>2023-07-02T12:11:27Z</time>
      </trkpt>
      <trkpt lat="49.82153" lon="2.56908">
        <ele>58.3</ele>
        <time>2023-07-02T12:11:28Z</time>
      </trkpt>
      <trkpt lat="49.82154" lon="2.56909">
        <ele>58.3</ele>
        <time>2023-07-02T12:11:30Z</time>
      </trkpt>
      <trkpt lat="49.82156" lon="2.56909">
        <ele>58.2</ele>
        <time>2023-07-02T12:11:31Z</time>
      </trkpt>
      <trkpt lat="49.82157" lon="2.56909">
        <ele>58.2</ele>
        <time>2023-07-02T12:11:32Z</time>
      </trkpt>
      <trkpt lat="49.82158" lon="2.56909">
        <ele>58.2</ele>
        <time>2023-07-02T12:11:33Z</time>
      </trkpt>
      <trkpt lat="49.82159" lon="2.56909">
        <ele>58.2</ele>
        <time>2023-07-02T12:11:34Z</time>
      </trkpt>
      <trkpt lat="49.8216" lon="2.56909">
        <ele>58.2</ele>
        <time>2023-07-02T12:11:36Z</time>
      </trkpt>
      <trkpt lat="49.8216" lon="2.56909">
        <ele>58.1</ele>
        <time>2023-07-02T12:11:37Z</time>
      </trkpt>
      <trkpt lat="49.8216" lon="2.56908">
        <ele>58.1</ele>
        <time>2023-07-02T12:11:39Z</time>
      </trkpt>
      <trkpt lat="49.8216" lon="2.56908">
        <ele>58.1</ele>
        <time>2023-07-02T12:11:40Z</time>
      </trkpt>
      <trkpt lat="49.82159" lon="2.56908">
        <ele>58.1</ele>
        <time>2023-07-02T12:11:42Z</time>
      </trkpt>
      <trkpt lat="49.82159" lon="2.56908">
        <ele>58.1</ele>
        <time>2023-07-02T12:11:43Z</time>
      </trkpt>
      <trkpt lat="49.82159" lon="2.56908">
        <ele>58.1</ele>
        <time>2023-07-02T12:11:44Z</time>
      </trkpt>
      <trkpt lat="49.82158" lon="2.56908">
        <ele>58.1</ele>
        <time>2023-07-02T12:11:46Z</time>
      </trkpt>
      <trkpt lat="49.82158" lon="2.56908">
        <ele>58.1</ele>
        <time>2023-07-02T12:11:47Z</time>
      </trkpt>
      <trkpt lat="49.82158" lon="2.56908">
        <ele>58.1</ele>
        <time>2023-07-02T12:11:49Z</time>
      </trkpt>
      <trkpt lat="49.82158" lon="2.56908">
        <ele>58.1</ele>
        <time>2023-07-02T12:11:50Z</time>
      </trkpt>
      <trkpt lat="49.82158" lon="2.56908">
        <ele>58.1</ele>
        <time>2023-07-02T12:11:52Z</time>
      </trkpt>
      <trkpt lat="49.82157" lon="2.56908">
        <ele>58.1</ele>
        <time>2023-07-02T12:11:53Z</time>
      </trkpt>
      <trkpt lat="49.82157" lon="2.56908">
        <ele>58.1</ele>
        <time>2023-07-02T12:11:54Z</time>
      </trkpt>
      <trkpt lat="49.82157" lon="2.56908">
        <ele>58.1</ele>
        <time>2023-07-02T12:11:55Z</time>
      </trkpt>
      <trkpt lat="49.82157" lon="2.56908">
        <ele>58.1</ele>
        <time>2023-07-02T12:11:56Z</time>
      </trkpt>
      <trkpt lat="49.82157" lon="2.56908">
        <ele>58.1</ele>
        <time>2023-07-02T12:11:57Z</time>
      </trkpt>
      <trkpt lat="49.82157" lon="2.56908">
        <ele>58.1</ele>
        <time>2023-07-02T12:11:58Z</time>
      </trkpt>
      <trkpt lat="49.82157" lon="2.56908">
        <ele>58.1</ele>
        <time>2023-07-02T12:11:59Z</time>
      </trkpt>
      <trkpt lat="49.82157" lon="2.56908">
        <ele>58.1</ele>
        <time>2023-07-02T12:12:00Z</time>
      </trkpt>
      <trkpt lat="49.82157" lon="2.56908">
        <ele>58.1</ele>
        <time>2023-07-02T12:12:01Z</time>
      </trkpt>
      <trkpt lat="49.82157" lon="2.56908">
        <ele>58.1</ele>
        <time>2023-07-02T12:12:02Z</time>
      </trkpt>
      <trkpt lat="49.82157" lon="2.56908">
        <ele>58.1</ele>
        <time>2023-07-02T12:12:03Z</time>
      </trkpt>
      <trkpt lat="49.82157" lon="2.56908">
        <ele>58.1</ele>
        <time>2023-07-02T12:12:04Z</time>
      </trkpt>
      <trkpt lat="49.82157" lon="2.56908">
        <ele>58.1</ele>
        <time>2023-07-02T12:12:05Z</time>
      </trkpt>
      <trkpt lat="49.82157" lon="2.56908">
        <ele>58.1</ele>
        <time>2023-07-02T12:12:06Z</time>
      </trkpt>
      <trkpt lat="49.82157" lon="2.56908">
        <ele>58.1</ele>
        <time>2023-07-02T12:12:07Z</time>
      </trkpt>
      <trkpt lat="49.82157" lon="2.56908">
        <ele>58.1</ele>
        <time>2023-07-02T12:12:08Z</time>
      </trkpt>
      <trkpt lat="49.82157" lon="2.56908">
        <ele>58.1</ele>
        <time>2023-07-02T12:12:09Z</time>
      </trkpt>
      <trkpt lat="49.82157" lon="2.56908">
        <ele>58.1</ele>
        <time>2023-07-02T12:12:10Z</time>
      </trkpt>
      <trkpt lat="49.82157" lon="2.56908">
        <ele>58.1</ele>
        <time>2023-07-02T12:12:11Z</time>
      </trkpt>
      <trkpt lat="49.82157" lon="2.56908">
        <ele>58.1</ele>
        <time>2023-07-02T12:12:12Z</time>
      </trkpt>
      <trkpt lat="49.82157" lon="2.56908">
        <ele>58.1</ele>
        <time>2023-07-02T12:12:13Z</time>
      </trkpt>
      <trkpt lat="49.82156" lon="2.56908">
        <ele>58.1</ele>
        <time>2023-07-02T12:12:14Z</time>
      </trkpt>
      <trkpt lat="49.82156" lon="2.56908">
        <ele>58.1</ele>
        <time>2023-07-02T12:12:15Z</time>
      </trkpt>
      <trkpt lat="49.82156" lon="2.56908">
        <ele>58.1</ele>
        <time>2023-07-02T12:12:16Z</time>
      </trkpt>
      <trkpt lat="49.82156" lon="2.56908">
        <ele>58.1</ele>
        <time>2023-07-02T12:12:17Z</time>
      </trkpt>
      <trkpt lat="49.82156" lon="2.56908">
        <ele>58.1</ele>
        <time>2023-07-02T12:12:18Z</time>
      </trkpt>
      <trkpt lat="49.82156" lon="2.56908">
        <ele>58.1</ele>
        <time>2023-07-02T12:12:19Z</time>
      </trkpt>
      <trkpt lat="49.82156" lon="2.56908">
        <ele>58.1</ele>
        <time>2023-07-02T12:12:20Z</time>
      </trkpt>
      <trkpt lat="49.82156" lon="2.56908">
        <ele>58.1</ele>
        <time>2023-07-02T12:12:21Z</time>
      </trkpt>
      <trkpt lat="49.82156" lon="2.56908">
        <ele>58.1</ele>
        <time>2023-07-02T12:12:22Z</time>
      </trkpt>
      <trkpt lat="49.82156" lon="2.56908">
        <ele>58.1</ele>
        <time>2023-07-02T12:12:23Z</time>
      </trkpt>
      <trkpt lat="49.82156" lon="2.56908">
        <ele>58.1</ele>
        <time>2023-07-02T12:12:24Z</time>
      </trkpt>
      <trkpt lat="49.82156" lon="2.56908">
        <ele>58.1</ele>
        <time>2023-07-02T12:12:25Z</time>
      </trkpt>
      <trkpt lat="49.82156" lon="2.56907">
        <ele>58.1</ele>
        <time>2023-07-02T12:12:26Z</time>
      </trkpt>
      <trkpt lat="49.82156" lon="2.56907">
        <ele>58.1</ele>
        <time>2023-07-02T12:12:27Z</time>
      </trkpt>
      <trkpt lat="49.82156" lon="2.56907">
        <ele>58.1</ele>
        <time>2023-07-02T12:12:28Z</time>
      </trkpt>
      <trkpt lat="49.82156" lon="2.56907">
        <ele>58.1</ele>
        <time>2023-07-02T12:12:29Z</time>
      </trkpt>
      <trkpt lat="49.82156" lon="2.56907">
        <ele>58.1</ele>
        <time>2023-07-02T12:12:30Z</time>
      </trkpt>
      <trkpt lat="49.82156" lon="2.56907">
        <ele>58.1</ele>
        <time>2023-07-02T12:12:31Z</time>
      </trkpt>
      <trkpt lat="49.82156" lon="2.56907">
        <ele>58.1</ele>
        <time>2023-07-02T12:12:32Z</time>
      </trkpt>
      <trkpt lat="49.82156" lon="2.56907">
        <ele>58.1</ele>
        <time>2023-07-02T12:12:33Z</time>
      </trkpt>
      <trkpt lat="49.82156" lon="2.56907">
        <ele>58.1</ele>
        <time>2023-07-02T12:12:34Z</time>
      </trkpt>
      <trkpt lat="49.82156" lon="2.56907">
        <ele>58.1</ele>
        <time>2023-07-02T12:12:35Z</time>
      </trkpt>
      <trkpt lat="49.82156" lon="2.56907">
        <ele>58.1</ele>
        <time>2023-07-02T12:12:36Z</time>
      </trkpt>
      <trkpt lat="49.82156" lon="2.56907">
        <ele>58.1</ele>
        <time>2023-07-02T12:12:37Z</time>
      </trkpt>
      <trkpt lat="49.82156" lon="2.56907">
        <ele>58.1</ele>
        <time>2023-07-02T12:12:38Z</time>
      </trkpt>
      <trkpt lat="49.82156" lon="2.56907">
        <ele>58.1</ele>
        <time>2023-07-02T12:12:39Z</time>
      </trkpt>
      <trkpt lat="49.82156" lon="2.56907">
        <ele>58.1</ele>
        <time>2023-07-02T12:12:40Z</time>
      </trkpt>
      <trkpt lat="49.82156" lon="2.56907">
        <ele>58.1</ele>
        <time>2023-07-02T12:12:41Z</time>
      </trkpt>
      <trkpt lat="49.82156" lon="2.56907">
        <ele>58.1</ele>
        <time>2023-07-02T12:12:42Z</time>
      </trkpt>
      <trkpt lat="49.82155" lon="2.56907">
        <ele>58.1</ele>
        <time>2023-07-02T12:12:43Z</time>
      </trkpt>
      <trkpt lat="49.82155" lon="2.56907">
        <ele>58.1</ele>
        <time>2023-07-02T12:12:44Z</time>
      </trkpt>
      <trkpt lat="49.82155" lon="2.56907">
        <ele>58.1</ele>
        <time>2023-07-02T12:12:45Z</time>
      </trkpt>
      <trkpt lat="49.82155" lon="2.56907">
        <ele>58.1</ele>
        <time>2023-07-02T12:12:46Z</time>
      </trkpt>
      <trkpt lat="49.82155" lon="2.56907">
        <ele>58.1</ele>
        <time>2023-07-02T12:12:47Z</time>
      </trkpt>
      <trkpt lat="49.82155" lon="2.56907">
        <ele>58.1</ele>
        <time>2023-07-02T12:12:48Z</time>
      </trkpt>
      <trkpt lat="49.82155" lon="2.56907">
        <ele>58.1</ele>
        <time>2023-07-02T12:12:49Z</time>
      </trkpt>
      <trkpt lat="49.82155" lon="2.56907">
        <ele>58.1</ele>
        <time>2023-07-02T12:12:50Z</time>
      </trkpt>
      <trkpt lat="49.82155" lon="2.56907">
        <ele>58.1</ele>
        <time>2023-07-02T12:12:51Z</time>
      </trkpt>
      <trkpt lat="49.82155" lon="2.56907">
        <ele>58.1</ele>
        <time>2023-07-02T12:12:52Z</time>
      </trkpt>
      <trkpt lat="49.82155" lon="2.56907">
        <ele>58.1</ele>
        <time>2023-07-02T12:12:53Z</time>
      </trkpt>
      <trkpt lat="49.82155" lon="2.56907">
        <ele>58.1</ele>
        <time>2023-07-02T12:12:54Z</time>
      </trkpt>
      <trkpt lat="49.82155" lon="2.56907">
        <ele>58.1</ele>
        <time>2023-07-02T12:12:55Z</time>
      </trkpt>
      <trkpt lat="49.82155" lon="2.56907">
        <ele>58.1</ele>
        <time>2023-07-02T12:12:56Z</time>
      </trkpt>
      <trkpt lat="49.82155" lon="2.56907">
        <ele>58.1</ele>
        <time>2023-07-02T12:12:57Z</time>
      </trkpt>
      <trkpt lat="49.82155" lon="2.56907">
        <ele>58.1</ele>
        <time>2023-07-02T12:12:58Z</time>
      </trkpt>
      <trkpt lat="49.82155" lon="2.56907">
        <ele>58.1</ele>
        <time>2023-07-02T12:12:59Z</time>
      </trkpt>
      <trkpt lat="49.82155" lon="2.56907">
        <ele>58.1</ele>
        <time>2023-07-02T12:13:00Z</time>
      </trkpt>
      <trkpt lat="49.82155" lon="2.56907">
        <ele>58.1</ele>
        <time>2023-07-02T12:13:01Z</time>
      </trkpt>
      <trkpt lat="49.82155" lon="2.56907">
        <ele>58.1</ele>
        <time>2023-07-02T12:13:02Z</time>
      </trkpt>
      <trkpt lat="49.82155" lon="2.56907">
        <ele>58.1</ele>
        <time>2023-07-02T12:13:03Z</time>
      </trkpt>
      <trkpt lat="49.82155" lon="2.56907">
        <ele>58.1</ele>
        <time>2023-07-02T12:13:04Z</time>
      </trkpt>
      <trkpt lat="49.82155" lon="2.56907">
        <ele>58.1</ele>
        <time>2023-07-02T12:13:05Z</time>
      </trkpt>
      <trkpt lat="49.82155" lon="2.56907">
        <ele>58.1</ele>
        <time>2023-07-02T12:13:06Z</time>
      </trkpt>
      <trkpt lat="49.82155" lon="2.56907">
        <ele>58.1</ele>
        <time>2023-07-02T12:13:07Z</time>
      </trkpt>
      <trkpt lat="49.82155" lon="2.56907">
        <ele>58.1</ele>
        <time>2023-07-02T12:13:08Z</time>
      </trkpt>
      <trkpt lat="49.82155" lon="2.56907">
        <ele>58.1</ele>
        <time>2023-07-02T12:13:09Z</time>
      </trkpt>
      <trkpt lat="49.82155" lon="2.56907">
        <ele>58.1</ele>
        <time>2023-07-02T12:13:10Z</time>
      </trkpt>
      <trkpt lat="49.82155" lon="2.56907">
        <ele>58.1</ele>
        <time>2023-07-02T12:13:11Z</time>
      </trkpt>
      <trkpt lat="49.82155" lon="2.56907">
        <ele>58.1</ele>
        <time>2023-07-02T12:13:12Z</time>
      </trkpt>
      <trkpt lat="49.82154" lon="2.56907">
        <ele>58.1</ele>
        <time>2023-07-02T12:13:13Z</time>
      </trkpt>
      <trkpt lat="49.82154" lon="2.56907">
        <ele>58.1</ele>
        <time>2023-07-02T12:13:14Z</time>
      </trkpt>
      <trkpt lat="49.82154" lon="2.56907">
        <ele>58.1</ele>
        <time>2023-07-02T12:13:15Z</time>
      </trkpt>
      <trkpt lat="49.82154" lon="2.56907">
        <ele>58.1</ele>
        <time>2023-07-02T12:13:16Z</time>
      </trkpt>
      <trkpt lat="49.82154" lon="2.56907">
        <ele>58.1</ele>
        <time>2023-07-02T12:13:17Z</time>
      </trkpt>
      <trkpt lat="49.82154" lon="2.56907">
        <ele>58.1</ele>
        <time>2023-07-02T12:13:18Z</time>
      </trkpt>
      <trkpt lat="49.82154" lon="2.56907">
        <ele>58.1</ele>
        <time>2023-07-02T12:13:19Z</time>
      </trkpt>
      <trkpt lat="49.82154" lon="2.56907">
        <ele>58.1</ele>
        <time>2023-07-02T12:13:20Z</time>
      </trkpt>
      <trkpt lat="49.82154" lon="2.56907">
        <ele>58.1</ele>
        <time>2023-07-02T12:13:21Z</time>
      </trkpt>
      <trkpt lat="49.82154" lon="2.56907">
        <ele>58.1</ele>
        <time>2023-07-02T12:13:22Z</time>
      </trkpt>
      <trkpt lat="49.82154" lon="2.56907">
        <ele>58.1</ele>
        <time>2023-07-02T12:13:23Z</time>
      </trkpt>
      <trkpt lat="49.82154" lon="2.56907">
        <ele>58.1</ele>
        <time>2023-07-02T12:13:24Z</time>
      </trkpt>
      <trkpt lat="49.82154" lon="2.56907">
        <ele>58.1</ele>
        <time>2023-07-02T12:13:25Z</time>
      </trkpt>
      <trkpt lat="49.82154" lon="2.56907">
        <ele>58.1</ele>
        <time>2023-07-02T12:13:26Z</time>
      </trkpt>
      <trkpt lat="49.82154" lon="2.56907">
        <ele>58.1</ele>
        <time>2023-07-02T12:13:28Z</time>
      </trkpt>
      <trkpt lat="49.82154" lon="2.56907">
        <ele>58.1</ele>
        <time>2023-07-02T12:13:29Z</time>
      </trkpt>
      <trkpt lat="49.82154" lon="2.56907">
        <ele>58.1</ele>
        <time>2023-07-02T12:13:30Z</time>
      </trkpt>
      <trkpt lat="49.82154" lon="2.56907">
        <ele>58.1</ele>
        <time>2023-07-02T12:13:31Z</time>
      </trkpt>
      <trkpt lat="49.82154" lon="2.56907">
        <ele>58</ele>
        <time>2023-07-02T12:13:32Z</time>
      </trkpt>
      <trkpt lat="49.82154" lon="2.56907">
        <ele>58</ele>
        <time>2023-07-02T12:13:33Z</time>
      </trkpt>
      <trkpt lat="49.82154" lon="2.56907">
        <ele>58</ele>
        <time>2023-07-02T12:13:34Z</time>
      </trkpt>
      <trkpt lat="49.82154" lon="2.56907">
        <ele>58</ele>
        <time>2023-07-02T12:13:35Z</time>
      </trkpt>
      <trkpt lat="49.82154" lon="2.56907">
        <ele>58</ele>
        <time>2023-07-02T12:13:36Z</time>
      </trkpt>
      <trkpt lat="49.82154" lon="2.56907">
        <ele>58</ele>
        <time>2023-07-02T12:13:37Z</time>
      </trkpt>
      <trkpt lat="49.82154" lon="2.56907">
        <ele>58</ele>
        <time>2023-07-02T12:13:38Z</time>
      </trkpt>
      <trkpt lat="49.82154" lon="2.56907">
        <ele>58</ele>
        <time>2023-07-02T12:13:39Z</time>
      </trkpt>
      <trkpt lat="49.82154" lon="2.56907">
        <ele>58</ele>
        <time>2023-07-02T12:13:40Z</time>
      </trkpt>
      <trkpt lat="49.82154" lon="2.56907">
        <ele>58</ele>
        <time>2023-07-02T12:13:41Z</time>
      </trkpt>
      <trkpt lat="49.82154" lon="2.56907">
        <ele>58</ele>
        <time>2023-07-02T12:13:42Z</time>
      </trkpt>
      <trkpt lat="49.82154" lon="2.56907">
        <ele>58</ele>
        <time>2023-07-02T12:13:43Z</time>
      </trkpt>
      <trkpt lat="49.82153" lon="2.56907">
        <ele>58</ele>
        <time>2023-07-02T12:13:44Z</time>
      </trkpt>
      <trkpt lat="49.82153" lon="2.56907">
        <ele>58</ele>
        <time>2023-07-02T12:13:45Z</time>
      </trkpt>
      <trkpt lat="49.82153" lon="2.56907">
        <ele>58</ele>
        <time>2023-07-02T12:13:46Z</time>
      </trkpt>
      <trkpt lat="49.82153" lon="2.56907">
        <ele>58</ele>
        <time>2023-07-02T12:13:47Z</time>
      </trkpt>
      <trkpt lat="49.82153" lon="2.56907">
        <ele>58</ele>
        <time>2023-07-02T12:13:48Z</time>
      </trkpt>
      <trkpt lat="49.82153" lon="2.56907">
        <ele>58</ele>
        <time>2023-07-02T12:13:49Z</time>
      </trkpt>
      <trkpt lat="49.82153" lon="2.56907">
        <ele>58</ele>
        <time>2023-07-02T12:13:50Z</time>
      </trkpt>
      <trkpt lat="49.82153" lon="2.56907">
        <ele>58</ele>
        <time>2023-07-02T12:13:51Z</time>
      </trkpt>
      <trkpt lat="49.82153" lon="2.56907">
        <ele>58</ele>
        <time>2023-07-02T12:13:52Z</time>
      </trkpt>
      <trkpt lat="49.82153" lon="2.56908">
        <ele>58</ele>
        <time>2023-07-02T12:13:53Z</time>
      </trkpt>
      <trkpt lat="49.82154" lon="2.56908">
        <ele>58</ele>
        <time>2023-07-02T12:13:55Z</time>
      </trkpt>
      <trkpt lat="49.82155" lon="2.56909">
        <ele>58</ele>
        <time>2023-07-02T12:13:56Z</time>
      </trkpt>
      <trkpt lat="49.82156" lon="2.56909">
        <ele>58</ele>
        <time>2023-07-02T12:13:57Z</time>
      </trkpt>
      <trkpt lat="49.82156" lon="2.5691">
        <ele>58</ele>
        <time>2023-07-02T12:13:58Z</time>
      </trkpt>
      <trkpt lat="49.82159" lon="2.56912">
        <ele>57.9</ele>
        <time>2023-07-02T12:13:59Z</time>
      </trkpt>
      <trkpt lat="49.8216" lon="2.56912">
        <ele>57.9</ele>
        <time>2023-07-02T12:14:00Z</time>
      </trkpt>
      <trkpt lat="49.82162" lon="2.56913">
        <ele>57.9</ele>
        <time>2023-07-02T12:14:02Z</time>
      </trkpt>
      <trkpt lat="49.82163" lon="2.56914">
        <ele>57.9</ele>
        <time>2023-07-02T12:14:03Z</time>
      </trkpt>
      <trkpt lat="49.82165" lon="2.56916">
        <ele>57.7</ele>
        <time>2023-07-02T12:14:04Z</time>
      </trkpt>
      <trkpt lat="49.82166" lon="2.56916">
        <ele>57.7</ele>
        <time>2023-07-02T12:14:05Z</time>
      </trkpt>
      <trkpt lat="49.82169" lon="2.56918">
        <ele>57.6</ele>
        <time>2023-07-02T12:14:06Z</time>
      </trkpt>
      <trkpt lat="49.8217" lon="2.56919">
        <ele>57.5</ele>
        <time>2023-07-02T12:14:07Z</time>
      </trkpt>
      <trkpt lat="49.82172" lon="2.56921">
        <ele>57.5</ele>
        <time>2023-07-02T12:14:08Z</time>
      </trkpt>
      <trkpt lat="49.82174" lon="2.56922">
        <ele>57.4</ele>
        <time>2023-07-02T12:14:10Z</time>
      </trkpt>
      <trkpt lat="49.82177" lon="2.56924">
        <ele>57.3</ele>
        <time>2023-07-02T12:14:11Z</time>
      </trkpt>
      <trkpt lat="49.82178" lon="2.56924">
        <ele>57.2</ele>
        <time>2023-07-02T12:14:12Z</time>
      </trkpt>
      <trkpt lat="49.82179" lon="2.56924">
        <ele>57.2</ele>
        <time>2023-07-02T12:14:13Z</time>
      </trkpt>
      <trkpt lat="49.82181" lon="2.56925">
        <ele>57.1</ele>
        <time>2023-07-02T12:14:14Z</time>
      </trkpt>
      <trkpt lat="49.82182" lon="2.56925">
        <ele>57.1</ele>
        <time>2023-07-02T12:14:15Z</time>
      </trkpt>
      <trkpt lat="49.82184" lon="2.56926">
        <ele>57</ele>
        <time>2023-07-02T12:14:16Z</time>
      </trkpt>
      <trkpt lat="49.82185" lon="2.56926">
        <ele>57</ele>
        <time>2023-07-02T12:14:17Z</time>
      </trkpt>
      <trkpt lat="49.82186" lon="2.56926">
        <ele>56.9</ele>
        <time>2023-07-02T12:14:18Z</time>
      </trkpt>
      <trkpt lat="49.82187" lon="2.56926">
        <ele>56.9</ele>
        <time>2023-07-02T12:14:20Z</time>
      </trkpt>
      <trkpt lat="49.82188" lon="2.56927">
        <ele>56.9</ele>
        <time>2023-07-02T12:14:21Z</time>
      </trkpt>
      <trkpt lat="49.82189" lon="2.56927">
        <ele>56.8</ele>
        <time>2023-07-02T12:14:22Z</time>
      </trkpt>
      <trkpt lat="49.8219" lon="2.56928">
        <ele>56.8</ele>
        <time>2023-07-02T12:14:23Z</time>
      </trkpt>
      <trkpt lat="49.8219" lon="2.56927">
        <ele>56.8</ele>
        <time>2023-07-02T12:14:24Z</time>
      </trkpt>
      <trkpt lat="49.82191" lon="2.56926">
        <ele>56.7</ele>
        <time>2023-07-02T12:14:25Z</time>
      </trkpt>
      <trkpt lat="49.82192" lon="2.56925">
        <ele>56.7</ele>
        <time>2023-07-02T12:14:27Z</time>
      </trkpt>
      <trkpt lat="49.82193" lon="2.56925">
        <ele>56.7</ele>
        <time>2023-07-02T12:14:28Z</time>
      </trkpt>
      <trkpt lat="49.82194" lon="2.56925">
        <ele>56.6</ele>
        <time>2023-07-02T12:14:29Z</time>
      </trkpt>
      <trkpt lat="49.82195" lon="2.56925">
        <ele>56.6</ele>
        <time>2023-07-02T12:14:31Z</time>
      </trkpt>
      <trkpt lat="49.82196" lon="2.56924">
        <ele>56.5</ele>
        <time>2023-07-02T12:14:32Z</time>
      </trkpt>
      <trkpt lat="49.82197" lon="2.56924">
        <ele>56.5</ele>
        <time>2023-07-02T12:14:33Z</time>
      </trkpt>
      <trkpt lat="49.82198" lon="2.56924">
        <ele>56.5</ele>
        <time>2023-07-02T12:14:34Z</time>
      </trkpt>
      <trkpt lat="49.82199" lon="2.56924">
        <ele>56.4</ele>
        <time>2023-07-02T12:14:35Z</time>
      </trkpt>
      <trkpt lat="49.82202" lon="2.56925">
        <ele>56.3</ele>
        <time>2023-07-02T12:14:36Z</time>
      </trkpt>
      <trkpt lat="49.82203" lon="2.56925">
        <ele>56.3</ele>
        <time>2023-07-02T12:14:37Z</time>
      </trkpt>
      <trkpt lat="49.82206" lon="2.56924">
        <ele>56.2</ele>
        <time>2023-07-02T12:14:38Z</time>
      </trkpt>
      <trkpt lat="49.82207" lon="2.56924">
        <ele>56.1</ele>
        <time>2023-07-02T12:14:39Z</time>
      </trkpt>
      <trkpt lat="49.8221" lon="2.56924">
        <ele>56</ele>
        <time>2023-07-02T12:14:41Z</time>
      </trkpt>
      <trkpt lat="49.82212" lon="2.56923">
        <ele>56</ele>
        <time>2023-07-02T12:14:42Z</time>
      </trkpt>
      <trkpt lat="49.82213" lon="2.56923">
        <ele>55.9</ele>
        <time>2023-07-02T12:14:43Z</time>
      </trkpt>
      <trkpt lat="49.82215" lon="2.56923">
        <ele>55.9</ele>
        <time>2023-07-02T12:14:44Z</time>
      </trkpt>
      <trkpt lat="49.82216" lon="2.56923">
        <ele>55.8</ele>
        <time>2023-07-02T12:14:45Z</time>
      </trkpt>
      <trkpt lat="49.82219" lon="2.56922">
        <ele>55.8</ele>
        <time>2023-07-02T12:14:47Z</time>
      </trkpt>
      <trkpt lat="49.82219" lon="2.56922">
        <ele>55.7</ele>
        <time>2023-07-02T12:14:48Z</time>
      </trkpt>
      <trkpt lat="49.8222" lon="2.56922">
        <ele>55.7</ele>
        <time>2023-07-02T12:14:49Z</time>
      </trkpt>
      <trkpt lat="49.82221" lon="2.56922">
        <ele>55.7</ele>
        <time>2023-07-02T12:14:50Z</time>
      </trkpt>
      <trkpt lat="49.82222" lon="2.56922">
        <ele>55.6</ele>
        <time>2023-07-02T12:14:51Z</time>
      </trkpt>
      <trkpt lat="49.82223" lon="2.56922">
        <ele>55.6</ele>
        <time>2023-07-02T12:14:52Z</time>
      </trkpt>
      <trkpt lat="49.82225" lon="2.56922">
        <ele>55.5</ele>
        <time>2023-07-02T12:14:53Z</time>
      </trkpt>
      <trkpt lat="49.82226" lon="2.56922">
        <ele>55.5</ele>
        <time>2023-07-02T12:14:55Z</time>
      </trkpt>
      <trkpt lat="49.82226" lon="2.56922">
        <ele>55.5</ele>
        <time>2023-07-02T12:14:56Z</time>
      </trkpt>
      <trkpt lat="49.82227" lon="2.56922">
        <ele>55.5</ele>
        <time>2023-07-02T12:14:57Z</time>
      </trkpt>
      <trkpt lat="49.82228" lon="2.56922">
        <ele>55.4</ele>
        <time>2023-07-02T12:14:58Z</time>
      </trkpt>
      <trkpt lat="49.82229" lon="2.56922">
        <ele>55.4</ele>
        <time>2023-07-02T12:14:59Z</time>
      </trkpt>
      <trkpt lat="49.8223" lon="2.56922">
        <ele>55.4</ele>
        <time>2023-07-02T12:15:00Z</time>
      </trkpt>
      <trkpt lat="49.82232" lon="2.56922">
        <ele>55.3</ele>
        <time>2023-07-02T12:15:02Z</time>
      </trkpt>
      <trkpt lat="49.82233" lon="2.56923">
        <ele>55.3</ele>
        <time>2023-07-02T12:15:03Z</time>
      </trkpt>
      <trkpt lat="49.82234" lon="2.56923">
        <ele>55.2</ele>
        <time>2023-07-02T12:15:04Z</time>
      </trkpt>
      <trkpt lat="49.82235" lon="2.56924">
        <ele>55.2</ele>
        <time>2023-07-02T12:15:05Z</time>
      </trkpt>
      <trkpt lat="49.82236" lon="2.56924">
        <ele>55.2</ele>
        <time>2023-07-02T12:15:06Z</time>
      </trkpt>
      <trkpt lat="49.82237" lon="2.56924">
        <ele>55.1</ele>
        <time>2023-07-02T12:15:08Z</time>
      </trkpt>
      <trkpt lat="49.82239" lon="2.56925">
        <ele>55.1</ele>
        <time>2023-07-02T12:15:09Z</time>
      </trkpt>
      <trkpt lat="49.82241" lon="2.56925">
        <ele>55</ele>
        <time>2023-07-02T12:15:10Z</time>
      </trkpt>
      <trkpt lat="49.82241" lon="2.56925">
        <ele>55</ele>
        <time>2023-07-02T12:15:11Z</time>
      </trkpt>
      <trkpt lat="49.82242" lon="2.56925">
        <ele>55</ele>
        <time>2023-07-02T12:15:12Z</time>
      </trkpt>
      <trkpt lat="49.82244" lon="2.56925">
        <ele>54.9</ele>
        <time>2023-07-02T12:15:13Z</time>
      </trkpt>
      <trkpt lat="49.82245" lon="2.56925">
        <ele>54.9</ele>
        <time>2023-07-02T12:15:15Z</time>
      </trkpt>
      <trkpt lat="49.82246" lon="2.56925">
        <ele>54.9</ele>
        <time>2023-07-02T12:15:16Z</time>
      </trkpt>
      <trkpt lat="49.82248" lon="2.56925">
        <ele>54.9</ele>
        <time>2023-07-02T12:15:17Z</time>
      </trkpt>
      <trkpt lat="49.82249" lon="2.56925">
        <ele>54.8</ele>
        <time>2023-07-02T12:15:18Z</time>
      </trkpt>
      <trkpt lat="49.8225" lon="2.56925">
        <ele>54.8</ele>
        <time>2023-07-02T12:15:20Z</time>
      </trkpt>
      <trkpt lat="49.82252" lon="2.56924">
        <ele>54.8</ele>
        <time>2023-07-02T12:15:21Z</time>
      </trkpt>
      <trkpt lat="49.82253" lon="2.56924">
        <ele>54.7</ele>
        <time>2023-07-02T12:15:22Z</time>
      </trkpt>
      <trkpt lat="49.82255" lon="2.56925">
        <ele>54.7</ele>
        <time>2023-07-02T12:15:23Z</time>
      </trkpt>
      <trkpt lat="49.82256" lon="2.56925">
        <ele>54.7</ele>
        <time>2023-07-02T12:15:24Z</time>
      </trkpt>
      <trkpt lat="49.82257" lon="2.56925">
        <ele>54.6</ele>
        <time>2023-07-02T12:15:25Z</time>
      </trkpt>
      <trkpt lat="49.82259" lon="2.56925">
        <ele>54.6</ele>
        <time>2023-07-02T12:15:27Z</time>
      </trkpt>
      <trkpt lat="49.8226" lon="2.56925">
        <ele>54.6</ele>
        <time>2023-07-02T12:15:28Z</time>
      </trkpt>
      <trkpt lat="49.82262" lon="2.56925">
        <ele>54.5</ele>
        <time>2023-07-02T12:15:29Z</time>
      </trkpt>
      <trkpt lat="49.82263" lon="2.56925">
        <ele>54.5</ele>
        <time>2023-07-02T12:15:30Z</time>
      </trkpt>
      <trkpt lat="49.82265" lon="2.56925">
        <ele>54.5</ele>
        <time>2023-07-02T12:15:31Z</time>
      </trkpt>
      <trkpt lat="49.82266" lon="2.56925">
        <ele>54.4</ele>
        <time>2023-07-02T12:15:32Z</time>
      </trkpt>
      <trkpt lat="49.82268" lon="2.56925">
        <ele>54.4</ele>
        <time>2023-07-02T12:15:33Z</time>
      </trkpt>
      <trkpt lat="49.82269" lon="2.56925">
        <ele>54.4</ele>
        <time>2023-07-02T12:15:35Z</time>
      </trkpt>
      <trkpt lat="49.82271" lon="2.56925">
        <ele>54.4</ele>
        <time>2023-07-02T12:15:36Z</time>
      </trkpt>
      <trkpt lat="49.82272" lon="2.56925">
        <ele>54.3</ele>
        <time>2023-07-02T12:15:37Z</time>
      </trkpt>
      <trkpt lat="49.82273" lon="2.56925">
        <ele>54.3</ele>
        <time>2023-07-02T12:15:38Z</time>
      </trkpt>
      <trkpt lat="49.82276" lon="2.56925">
        <ele>54.3</ele>
        <time>2023-07-02T12:15:39Z</time>
      </trkpt>
      <trkpt lat="49.82276" lon="2.56925">
        <ele>54.3</ele>
        <time>2023-07-02T12:15:40Z</time>
      </trkpt>
      <trkpt lat="49.82277" lon="2.56925">
        <ele>54.2</ele>
        <time>2023-07-02T12:15:41Z</time>
      </trkpt>
      <trkpt lat="49.82279" lon="2.56925">
        <ele>54.2</ele>
        <time>2023-07-02T12:15:42Z</time>
      </trkpt>
      <trkpt lat="49.8228" lon="2.56925">
        <ele>54.2</ele>
        <time>2023-07-02T12:15:44Z</time>
      </trkpt>
      <trkpt lat="49.82281" lon="2.56924">
        <ele>54.2</ele>
        <time>2023-07-02T12:15:45Z</time>
      </trkpt>
      <trkpt lat="49.82283" lon="2.56924">
        <ele>54.1</ele>
        <time>2023-07-02T12:15:46Z</time>
      </trkpt>
      <trkpt lat="49.82285" lon="2.56925">
        <ele>54.1</ele>
        <time>2023-07-02T12:15:47Z</time>
      </trkpt>
      <trkpt lat="49.82286" lon="2.56925">
        <ele>54.1</ele>
        <time>2023-07-02T12:15:48Z</time>
      </trkpt>
      <trkpt lat="49.82287" lon="2.56925">
        <ele>54.1</ele>
        <time>2023-07-02T12:15:49Z</time>
      </trkpt>
      <trkpt lat="49.82289" lon="2.56925">
        <ele>54</ele>
        <time>2023-07-02T12:15:51Z</time>
      </trkpt>
      <trkpt lat="49.82291" lon="2.56925">
        <ele>54</ele>
        <time>2023-07-02T12:15:52Z</time>
      </trkpt>
      <trkpt lat="49.82292" lon="2.56925">
        <ele>54</ele>
        <time>2023-07-02T12:15:53Z</time>
      </trkpt>
      <trkpt lat="49.82294" lon="2.56925">
        <ele>54</ele>
        <time>2023-07-02T12:15:54Z</time>
      </trkpt>
      <trkpt lat="49.82295" lon="2.56925">
        <ele>53.9</ele>
        <time>2023-07-02T12:15:55Z</time>
      </trkpt>
      <trkpt lat="49.82296" lon="2.56926">
        <ele>53.9</ele>
        <time>2023-07-02T12:15:56Z</time>
      </trkpt>
      <trkpt lat="49.82298" lon="2.56926">
        <ele>53.9</ele>
        <time>2023-07-02T12:15:58Z</time>
      </trkpt>
      <trkpt lat="49.82299" lon="2.56926">
        <ele>53.9</ele>
        <time>2023-07-02T12:15:59Z</time>
      </trkpt>
      <trkpt lat="49.82301" lon="2.56927">
        <ele>53.9</ele>
        <time>2023-07-02T12:16:00Z</time>
      </trkpt>
      <trkpt lat="49.82302" lon="2.56927">
        <ele>53.8</ele>
        <time>2023-07-02T12:16:01Z</time>
      </trkpt>
      <trkpt lat="49.82303" lon="2.56928">
        <ele>53.8</ele>
        <time>2023-07-02T12:16:02Z</time>
      </trkpt>
      <trkpt lat="49.82305" lon="2.56928">
        <ele>53.8</ele>
        <time>2023-07-02T12:16:03Z</time>
      </trkpt>
      <trkpt lat="49.82306" lon="2.56928">
        <ele>53.8</ele>
        <time>2023-07-02T12:16:04Z</time>
      </trkpt>
      <trkpt lat="49.82307" lon="2.56928">
        <ele>53.8</ele>
        <time>2023-07-02T12:16:05Z</time>
      </trkpt>
      <trkpt lat="49.82308" lon="2.56928">
        <ele>53.8</ele>
        <time>2023-07-02T12:16:06Z</time>
      </trkpt>
      <trkpt lat="49.82309" lon="2.56928">
        <ele>53.7</ele>
        <time>2023-07-02T12:16:08Z</time>
      </trkpt>
      <trkpt lat="49.82311" lon="2.56928">
        <ele>53.7</ele>
        <time>2023-07-02T12:16:09Z</time>
      </trkpt>
      <trkpt lat="49.82312" lon="2.56928">
        <ele>53.7</ele>
        <time>2023-07-02T12:16:10Z</time>
      </trkpt>
      <trkpt lat="49.82313" lon="2.56928">
        <ele>53.7</ele>
        <time>2023-07-02T12:16:11Z</time>
      </trkpt>
      <trkpt lat="49.82314" lon="2.56928">
        <ele>53.7</ele>
        <time>2023-07-02T12:16:12Z</time>
      </trkpt>
      <trkpt lat="49.82316" lon="2.56928">
        <ele>53.7</ele>
        <time>2023-07-02T12:16:13Z</time>
      </trkpt>
      <trkpt lat="49.82318" lon="2.56927">
        <ele>53.6</ele>
        <time>2023-07-02T12:16:14Z</time>
      </trkpt>
      <trkpt lat="49.82319" lon="2.56927">
        <ele>53.6</ele>
        <time>2023-07-02T12:16:15Z</time>
      </trkpt>
      <trkpt lat="49.8232" lon="2.56927">
        <ele>53.6</ele>
        <time>2023-07-02T12:16:16Z</time>
      </trkpt>
      <trkpt lat="49.82321" lon="2.56928">
        <ele>53.6</ele>
        <time>2023-07-02T12:16:17Z</time>
      </trkpt>
      <trkpt lat="49.82322" lon="2.56928">
        <ele>53.6</ele>
        <time>2023-07-02T12:16:18Z</time>
      </trkpt>
      <trkpt lat="49.82324" lon="2.56928">
        <ele>53.6</ele>
        <time>2023-07-02T12:16:20Z</time>
      </trkpt>
      <trkpt lat="49.82326" lon="2.56929">
        <ele>53.6</ele>
        <time>2023-07-02T12:16:22Z</time>
      </trkpt>
      <trkpt lat="49.82326" lon="2.56929">
        <ele>53.5</ele>
        <time>2023-07-02T12:16:23Z</time>
      </trkpt>
      <trkpt lat="49.82327" lon="2.5693">
        <ele>53.5</ele>
        <time>2023-07-02T12:16:24Z</time>
      </trkpt>
      <trkpt lat="49.82329" lon="2.5693">
        <ele>53.5</ele>
        <time>2023-07-02T12:16:25Z</time>
      </trkpt>
      <trkpt lat="49.8233" lon="2.5693">
        <ele>53.5</ele>
        <time>2023-07-02T12:16:26Z</time>
      </trkpt>
      <trkpt lat="49.82331" lon="2.5693">
        <ele>53.5</ele>
        <time>2023-07-02T12:16:27Z</time>
      </trkpt>
      <trkpt lat="49.82333" lon="2.56931">
        <ele>53.5</ele>
        <time>2023-07-02T12:16:28Z</time>
      </trkpt>
      <trkpt lat="49.82335" lon="2.56931">
        <ele>53.4</ele>
        <time>2023-07-02T12:16:30Z</time>
      </trkpt>
      <trkpt lat="49.82336" lon="2.56931">
        <ele>53.4</ele>
        <time>2023-07-02T12:16:31Z</time>
      </trkpt>
      <trkpt lat="49.82338" lon="2.56932">
        <ele>53.4</ele>
        <time>2023-07-02T12:16:32Z</time>
      </trkpt>
      <trkpt lat="49.82339" lon="2.56932">
        <ele>53.4</ele>
        <time>2023-07-02T12:16:33Z</time>
      </trkpt>
      <trkpt lat="49.8234" lon="2.56932">
        <ele>53.4</ele>
        <time>2023-07-02T12:16:34Z</time>
      </trkpt>
      <trkpt lat="49.82342" lon="2.56933">
        <ele>53.3</ele>
        <time>2023-07-02T12:16:36Z</time>
      </trkpt>
      <trkpt lat="49.82343" lon="2.56933">
        <ele>53.3</ele>
        <time>2023-07-02T12:16:37Z</time>
      </trkpt>
      <trkpt lat="49.82344" lon="2.56933">
        <ele>53.3</ele>
        <time>2023-07-02T12:16:38Z</time>
      </trkpt>
      <trkpt lat="49.82346" lon="2.56934">
        <ele>53.3</ele>
        <time>2023-07-02T12:16:39Z</time>
      </trkpt>
      <trkpt lat="49.82347" lon="2.56934">
        <ele>53.3</ele>
        <time>2023-07-02T12:16:40Z</time>
      </trkpt>
      <trkpt lat="49.82348" lon="2.56934">
        <ele>53.2</ele>
        <time>2023-07-02T12:16:41Z</time>
      </trkpt>
      <trkpt lat="49.82349" lon="2.56934">
        <ele>53.2</ele>
        <time>2023-07-02T12:16:42Z</time>
      </trkpt>
      <trkpt lat="49.8235" lon="2.56934">
        <ele>53.2</ele>
        <time>2023-07-02T12:16:43Z</time>
      </trkpt>
      <trkpt lat="49.82351" lon="2.56934">
        <ele>53.2</ele>
        <time>2023-07-02T12:16:44Z</time>
      </trkpt>
      <trkpt lat="49.82353" lon="2.56934">
        <ele>53.2</ele>
        <time>2023-07-02T12:16:46Z</time>
      </trkpt>
      <trkpt lat="49.82354" lon="2.56934">
        <ele>53.1</ele>
        <time>2023-07-02T12:16:47Z</time>
      </trkpt>
      <trkpt lat="49.82356" lon="2.56935">
        <ele>53.1</ele>
        <time>2023-07-02T12:16:48Z</time>
      </trkpt>
      <trkpt lat="49.82357" lon="2.56935">
        <ele>53.1</ele>
        <time>2023-07-02T12:16:50Z</time>
      </trkpt>
      <trkpt lat="49.82358" lon="2.56935">
        <ele>53.1</ele>
        <time>2023-07-02T12:16:51Z</time>
      </trkpt>
      <trkpt lat="49.8236" lon="2.56936">
        <ele>53.1</ele>
        <time>2023-07-02T12:16:53Z</time>
      </trkpt>
      <trkpt lat="49.82361" lon="2.56937">
        <ele>53</ele>
        <time>2023-07-02T12:16:54Z</time>
      </trkpt>
      <trkpt lat="49.82363" lon="2.56939">
        <ele>53</ele>
        <time>2023-07-02T12:16:55Z</time>
      </trkpt>
      <trkpt lat="49.82363" lon="2.5694">
        <ele>53</ele>
        <time>2023-07-02T12:16:56Z</time>
      </trkpt>
      <trkpt lat="49.82364" lon="2.5694">
        <ele>53</ele>
        <time>2023-07-02T12:16:57Z</time>
      </trkpt>
      <trkpt lat="49.82365" lon="2.56942">
        <ele>53</ele>
        <time>2023-07-02T12:16:58Z</time>
      </trkpt>
      <trkpt lat="49.82366" lon="2.56943">
        <ele>53</ele>
        <time>2023-07-02T12:16:59Z</time>
      </trkpt>
      <trkpt lat="49.82367" lon="2.56944">
        <ele>52.9</ele>
        <time>2023-07-02T12:17:01Z</time>
      </trkpt>
      <trkpt lat="49.82369" lon="2.56945">
        <ele>52.9</ele>
        <time>2023-07-02T12:17:02Z</time>
      </trkpt>
      <trkpt lat="49.8237" lon="2.56946">
        <ele>52.9</ele>
        <time>2023-07-02T12:17:03Z</time>
      </trkpt>
      <trkpt lat="49.82371" lon="2.56947">
        <ele>52.9</ele>
        <time>2023-07-02T12:17:04Z</time>
      </trkpt>
      <trkpt lat="49.82373" lon="2.56948">
        <ele>52.8</ele>
        <time>2023-07-02T12:17:06Z</time>
      </trkpt>
      <trkpt lat="49.82375" lon="2.56949">
        <ele>52.8</ele>
        <time>2023-07-02T12:17:07Z</time>
      </trkpt>
      <trkpt lat="49.82376" lon="2.5695">
        <ele>52.8</ele>
        <time>2023-07-02T12:17:08Z</time>
      </trkpt>
      <trkpt lat="49.82378" lon="2.56951">
        <ele>52.7</ele>
        <time>2023-07-02T12:17:09Z</time>
      </trkpt>
      <trkpt lat="49.82379" lon="2.56952">
        <ele>52.7</ele>
        <time>2023-07-02T12:17:10Z</time>
      </trkpt>
      <trkpt lat="49.8238" lon="2.56952">
        <ele>52.7</ele>
        <time>2023-07-02T12:17:11Z</time>
      </trkpt>
      <trkpt lat="49.82381" lon="2.56953">
        <ele>52.7</ele>
        <time>2023-07-02T12:17:12Z</time>
      </trkpt>
      <trkpt lat="49.82382" lon="2.56953">
        <ele>52.6</ele>
        <time>2023-07-02T12:17:13Z</time>
      </trkpt>
      <trkpt lat="49.82384" lon="2.56954">
        <ele>52.6</ele>
        <time>2023-07-02T12:17:15Z</time>
      </trkpt>
      <trkpt lat="49.82386" lon="2.56954">
        <ele>52.6</ele>
        <time>2023-07-02T12:17:16Z</time>
      </trkpt>
      <trkpt lat="49.82387" lon="2.56955">
        <ele>52.6</ele>
        <time>2023-07-02T12:17:17Z</time>
      </trkpt>
      <trkpt lat="49.82387" lon="2.56955">
        <ele>52.5</ele>
        <time>2023-07-02T12:17:18Z</time>
      </trkpt>
      <trkpt lat="49.82389" lon="2.56956">
        <ele>52.5</ele>
        <time>2023-07-02T12:17:19Z</time>
      </trkpt>
      <trkpt lat="49.8239" lon="2.56957">
        <ele>52.4</ele>
        <time>2023-07-02T12:17:21Z</time>
      </trkpt>
      <trkpt lat="49.82391" lon="2.56957">
        <ele>52.4</ele>
        <time>2023-07-02T12:17:22Z</time>
      </trkpt>
      <trkpt lat="49.82393" lon="2.56959">
        <ele>52.3</ele>
        <time>2023-07-02T12:17:23Z</time>
      </trkpt>
      <trkpt lat="49.82394" lon="2.56959">
        <ele>52.3</ele>
        <time>2023-07-02T12:17:24Z</time>
      </trkpt>
      <trkpt lat="49.82395" lon="2.5696">
        <ele>52.3</ele>
        <time>2023-07-02T12:17:25Z</time>
      </trkpt>
      <trkpt lat="49.82396" lon="2.56961">
        <ele>52.2</ele>
        <time>2023-07-02T12:17:26Z</time>
      </trkpt>
      <trkpt lat="49.82397" lon="2.56962">
        <ele>52.2</ele>
        <time>2023-07-02T12:17:27Z</time>
      </trkpt>
      <trkpt lat="49.82399" lon="2.56964">
        <ele>52.1</ele>
        <time>2023-07-02T12:17:29Z</time>
      </trkpt>
      <trkpt lat="49.824" lon="2.56966">
        <ele>52.1</ele>
        <time>2023-07-02T12:17:31Z</time>
      </trkpt>
      <trkpt lat="49.824" lon="2.56968">
        <ele>52</ele>
        <time>2023-07-02T12:17:32Z</time>
      </trkpt>
      <trkpt lat="49.82401" lon="2.5697">
        <ele>52</ele>
        <time>2023-07-02T12:17:33Z</time>
      </trkpt>
      <trkpt lat="49.82402" lon="2.56971">
        <ele>52</ele>
        <time>2023-07-02T12:17:34Z</time>
      </trkpt>
      <trkpt lat="49.82403" lon="2.56972">
        <ele>51.9</ele>
        <time>2023-07-02T12:17:35Z</time>
      </trkpt>
      <trkpt lat="49.82404" lon="2.56973">
        <ele>51.9</ele>
        <time>2023-07-02T12:17:36Z</time>
      </trkpt>
      <trkpt lat="49.82405" lon="2.56974">
        <ele>51.8</ele>
        <time>2023-07-02T12:17:37Z</time>
      </trkpt>
      <trkpt lat="49.82407" lon="2.56975">
        <ele>51.8</ele>
        <time>2023-07-02T12:17:38Z</time>
      </trkpt>
      <trkpt lat="49.82409" lon="2.56976">
        <ele>51.7</ele>
        <time>2023-07-02T12:17:40Z</time>
      </trkpt>
      <trkpt lat="49.8241" lon="2.56977">
        <ele>51.7</ele>
        <time>2023-07-02T12:17:41Z</time>
      </trkpt>
      <trkpt lat="49.82411" lon="2.56978">
        <ele>51.6</ele>
        <time>2023-07-02T12:17:42Z</time>
      </trkpt>
      <trkpt lat="49.82412" lon="2.56979">
        <ele>51.6</ele>
        <time>2023-07-02T12:17:43Z</time>
      </trkpt>
      <trkpt lat="49.82414" lon="2.56979">
        <ele>51.6</ele>
        <time>2023-07-02T12:17:44Z</time>
      </trkpt>
      <trkpt lat="49.82416" lon="2.5698">
        <ele>51.5</ele>
        <time>2023-07-02T12:17:45Z</time>
      </trkpt>
      <trkpt lat="49.82417" lon="2.56981">
        <ele>51.5</ele>
        <time>2023-07-02T12:17:46Z</time>
      </trkpt>
      <trkpt lat="49.8242" lon="2.56983">
        <ele>51.4</ele>
        <time>2023-07-02T12:17:48Z</time>
      </trkpt>
      <trkpt lat="49.82421" lon="2.56984">
        <ele>51.4</ele>
        <time>2023-07-02T12:17:50Z</time>
      </trkpt>
      <trkpt lat="49.82422" lon="2.56985">
        <ele>51.4</ele>
        <time>2023-07-02T12:17:51Z</time>
      </trkpt>
      <trkpt lat="49.82422" lon="2.56986">
        <ele>51.3</ele>
        <time>2023-07-02T12:17:52Z</time>
      </trkpt>
      <trkpt lat="49.82423" lon="2.56986">
        <ele>51.3</ele>
        <time>2023-07-02T12:17:53Z</time>
      </trkpt>
      <trkpt lat="49.82424" lon="2.56987">
        <ele>51.3</ele>
        <time>2023-07-02T12:17:54Z</time>
      </trkpt>
      <trkpt lat="49.82425" lon="2.56988">
        <ele>51.3</ele>
        <time>2023-07-02T12:17:55Z</time>
      </trkpt>
      <trkpt lat="49.82426" lon="2.56989">
        <ele>51.2</ele>
        <time>2023-07-02T12:17:57Z</time>
      </trkpt>
      <trkpt lat="49.82427" lon="2.5699">
        <ele>51.2</ele>
        <time>2023-07-02T12:17:58Z</time>
      </trkpt>
      <trkpt lat="49.82428" lon="2.56991">
        <ele>51.2</ele>
        <time>2023-07-02T12:17:59Z</time>
      </trkpt>
      <trkpt lat="49.82429" lon="2.56991">
        <ele>51.1</ele>
        <time>2023-07-02T12:18:00Z</time>
      </trkpt>
      <trkpt lat="49.82431" lon="2.56992">
        <ele>51.1</ele>
        <time>2023-07-02T12:18:01Z</time>
      </trkpt>
      <trkpt lat="49.82432" lon="2.56993">
        <ele>51.1</ele>
        <time>2023-07-02T12:18:02Z</time>
      </trkpt>
      <trkpt lat="49.82433" lon="2.56994">
        <ele>51.1</ele>
        <time>2023-07-02T12:18:03Z</time>
      </trkpt>
      <trkpt lat="49.82434" lon="2.56995">
        <ele>51</ele>
        <time>2023-07-02T12:18:04Z</time>
      </trkpt>
      <trkpt lat="49.82435" lon="2.56996">
        <ele>51</ele>
        <time>2023-07-02T12:18:06Z</time>
      </trkpt>
      <trkpt lat="49.82436" lon="2.56997">
        <ele>51</ele>
        <time>2023-07-02T12:18:08Z</time>
      </trkpt>
      <trkpt lat="49.82437" lon="2.56997">
        <ele>50.9</ele>
        <time>2023-07-02T12:18:09Z</time>
      </trkpt>
      <trkpt lat="49.82438" lon="2.56998">
        <ele>50.9</ele>
        <time>2023-07-02T12:18:10Z</time>
      </trkpt>
      <trkpt lat="49.82439" lon="2.56999">
        <ele>50.9</ele>
        <time>2023-07-02T12:18:11Z</time>
      </trkpt>
      <trkpt lat="49.82441" lon="2.57">
        <ele>50.9</ele>
        <time>2023-07-02T12:18:12Z</time>
      </trkpt>
      <trkpt lat="49.82443" lon="2.57001">
        <ele>50.8</ele>
        <time>2023-07-02T12:18:13Z</time>
      </trkpt>
      <trkpt lat="49.82443" lon="2.57001">
        <ele>50.8</ele>
        <time>2023-07-02T12:18:15Z</time>
      </trkpt>
      <trkpt lat="49.82444" lon="2.57002">
        <ele>50.8</ele>
        <time>2023-07-02T12:18:16Z</time>
      </trkpt>
      <trkpt lat="49.82446" lon="2.57003">
        <ele>50.7</ele>
        <time>2023-07-02T12:18:17Z</time>
      </trkpt>
      <trkpt lat="49.82446" lon="2.57003">
        <ele>50.7</ele>
        <time>2023-07-02T12:18:18Z</time>
      </trkpt>
      <trkpt lat="49.82447" lon="2.57004">
        <ele>50.7</ele>
        <time>2023-07-02T12:18:19Z</time>
      </trkpt>
      <trkpt lat="49.82448" lon="2.57005">
        <ele>50.7</ele>
        <time>2023-07-02T12:18:20Z</time>
      </trkpt>
      <trkpt lat="49.82449" lon="2.57005">
        <ele>50.7</ele>
        <time>2023-07-02T12:18:21Z</time>
      </trkpt>
      <trkpt lat="49.8245" lon="2.57006">
        <ele>50.7</ele>
        <time>2023-07-02T12:18:22Z</time>
      </trkpt>
      <trkpt lat="49.82452" lon="2.57007">
        <ele>50.6</ele>
        <time>2023-07-02T12:18:24Z</time>
      </trkpt>
      <trkpt lat="49.82453" lon="2.57008">
        <ele>50.6</ele>
        <time>2023-07-02T12:18:25Z</time>
      </trkpt>
      <trkpt lat="49.82454" lon="2.57008">
        <ele>50.6</ele>
        <time>2023-07-02T12:18:26Z</time>
      </trkpt>
      <trkpt lat="49.82455" lon="2.57009">
        <ele>50.6</ele>
        <time>2023-07-02T12:18:27Z</time>
      </trkpt>
      <trkpt lat="49.82456" lon="2.57011">
        <ele>50.6</ele>
        <time>2023-07-02T12:18:28Z</time>
      </trkpt>
      <trkpt lat="49.82458" lon="2.57013">
        <ele>50.5</ele>
        <time>2023-07-02T12:18:29Z</time>
      </trkpt>
      <trkpt lat="49.82459" lon="2.57013">
        <ele>50.5</ele>
        <time>2023-07-02T12:18:30Z</time>
      </trkpt>
      <trkpt lat="49.82459" lon="2.57014">
        <ele>50.5</ele>
        <time>2023-07-02T12:18:31Z</time>
      </trkpt>
      <trkpt lat="49.82461" lon="2.57015">
        <ele>50.5</ele>
        <time>2023-07-02T12:18:32Z</time>
      </trkpt>
      <trkpt lat="49.82462" lon="2.57015">
        <ele>50.5</ele>
        <time>2023-07-02T12:18:34Z</time>
      </trkpt>
      <trkpt lat="49.82463" lon="2.57016">
        <ele>50.5</ele>
        <time>2023-07-02T12:18:35Z</time>
      </trkpt>
      <trkpt lat="49.82464" lon="2.57016">
        <ele>50.4</ele>
        <time>2023-07-02T12:18:36Z</time>
      </trkpt>
      <trkpt lat="49.82465" lon="2.57016">
        <ele>50.4</ele>
        <time>2023-07-02T12:18:37Z</time>
      </trkpt>
      <trkpt lat="49.82466" lon="2.57015">
        <ele>50.4</ele>
        <time>2023-07-02T12:18:38Z</time>
      </trkpt>
      <trkpt lat="49.82467" lon="2.57014">
        <ele>50.4</ele>
        <time>2023-07-02T12:18:40Z</time>
      </trkpt>
      <trkpt lat="49.82468" lon="2.57013">
        <ele>50.4</ele>
        <time>2023-07-02T12:18:41Z</time>
      </trkpt>
      <trkpt lat="49.82468" lon="2.57011">
        <ele>50.3</ele>
        <time>2023-07-02T12:18:42Z</time>
      </trkpt>
      <trkpt lat="49.82469" lon="2.57009">
        <ele>50.3</ele>
        <time>2023-07-02T12:18:43Z</time>
      </trkpt>
      <trkpt lat="49.8247" lon="2.57006">
        <ele>50.2</ele>
        <time>2023-07-02T12:18:44Z</time>
      </trkpt>
      <trkpt lat="49.82471" lon="2.57003">
        <ele>50.2</ele>
        <time>2023-07-02T12:18:45Z</time>
      </trkpt>
      <trkpt lat="49.82472" lon="2.57002">
        <ele>50.2</ele>
        <time>2023-07-02T12:18:47Z</time>
      </trkpt>
      <trkpt lat="49.82473" lon="2.57001">
        <ele>50.1</ele>
        <time>2023-07-02T12:18:48Z</time>
      </trkpt>
      <trkpt lat="49.82473" lon="2.57">
        <ele>50.1</ele>
        <time>2023-07-02T12:18:49Z</time>
      </trkpt>
      <trkpt lat="49.82474" lon="2.56998">
        <ele>50.1</ele>
        <time>2023-07-02T12:18:50Z</time>
      </trkpt>
      <trkpt lat="49.82474" lon="2.56997">
        <ele>50.1</ele>
        <time>2023-07-02T12:18:51Z</time>
      </trkpt>
      <trkpt lat="49.82475" lon="2.56995">
        <ele>50.1</ele>
        <time>2023-07-02T12:18:52Z</time>
      </trkpt>
      <trkpt lat="49.82476" lon="2.56994">
        <ele>50.1</ele>
        <time>2023-07-02T12:18:53Z</time>
      </trkpt>
      <trkpt lat="49.82477" lon="2.56992">
        <ele>50.1</ele>
        <time>2023-07-02T12:18:55Z</time>
      </trkpt>
      <trkpt lat="49.82478" lon="2.56991">
        <ele>50</ele>
        <time>2023-07-02T12:18:56Z</time>
      </trkpt>
      <trkpt lat="49.82479" lon="2.5699">
        <ele>50</ele>
        <time>2023-07-02T12:18:57Z</time>
      </trkpt>
      <trkpt lat="49.8248" lon="2.56989">
        <ele>50</ele>
        <time>2023-07-02T12:18:58Z</time>
      </trkpt>
      <trkpt lat="49.82482" lon="2.56987">
        <ele>50</ele>
        <time>2023-07-02T12:18:59Z</time>
      </trkpt>
      <trkpt lat="49.82483" lon="2.56986">
        <ele>50</ele>
        <time>2023-07-02T12:19:00Z</time>
      </trkpt>
      <trkpt lat="49.82484" lon="2.56984">
        <ele>49.9</ele>
        <time>2023-07-02T12:19:01Z</time>
      </trkpt>
      <trkpt lat="49.82485" lon="2.56982">
        <ele>49.9</ele>
        <time>2023-07-02T12:19:03Z</time>
      </trkpt>
      <trkpt lat="49.82486" lon="2.56981">
        <ele>49.9</ele>
        <time>2023-07-02T12:19:04Z</time>
      </trkpt>
      <trkpt lat="49.82486" lon="2.5698">
        <ele>49.9</ele>
        <time>2023-07-02T12:19:05Z</time>
      </trkpt>
      <trkpt lat="49.82486" lon="2.56978">
        <ele>49.9</ele>
        <time>2023-07-02T12:19:06Z</time>
      </trkpt>
      <trkpt lat="49.82486" lon="2.56977">
        <ele>49.9</ele>
        <time>2023-07-02T12:19:08Z</time>
      </trkpt>
      <trkpt lat="49.82487" lon="2.56976">
        <ele>49.9</ele>
        <time>2023-07-02T12:19:09Z</time>
      </trkpt>
      <trkpt lat="49.82487" lon="2.56976">
        <ele>49.9</ele>
        <time>2023-07-02T12:19:10Z</time>
      </trkpt>
      <trkpt lat="49.82488" lon="2.56975">
        <ele>49.9</ele>
        <time>2023-07-02T12:19:11Z</time>
      </trkpt>
      <trkpt lat="49.82489" lon="2.56975">
        <ele>49.9</ele>
        <time>2023-07-02T12:19:12Z</time>
      </trkpt>
      <trkpt lat="49.82491" lon="2.56974">
        <ele>49.8</ele>
        <time>2023-07-02T12:19:13Z</time>
      </trkpt>
      <trkpt lat="49.82492" lon="2.56973">
        <ele>49.8</ele>
        <time>2023-07-02T12:19:15Z</time>
      </trkpt>
      <trkpt lat="49.82492" lon="2.56973">
        <ele>49.8</ele>
        <time>2023-07-02T12:19:16Z</time>
      </trkpt>
      <trkpt lat="49.82495" lon="2.56972">
        <ele>49.8</ele>
        <time>2023-07-02T12:19:17Z</time>
      </trkpt>
      <trkpt lat="49.82495" lon="2.56972">
        <ele>49.8</ele>
        <time>2023-07-02T12:19:19Z</time>
      </trkpt>
      <trkpt lat="49.82496" lon="2.56972">
        <ele>49.8</ele>
        <time>2023-07-02T12:19:20Z</time>
      </trkpt>
      <trkpt lat="49.82497" lon="2.56971">
        <ele>49.8</ele>
        <time>2023-07-02T12:19:21Z</time>
      </trkpt>
      <trkpt lat="49.82499" lon="2.56971">
        <ele>49.8</ele>
        <time>2023-07-02T12:19:22Z</time>
      </trkpt>
      <trkpt lat="49.825" lon="2.5697">
        <ele>49.8</ele>
        <time>2023-07-02T12:19:23Z</time>
      </trkpt>
      <trkpt lat="49.82501" lon="2.56969">
        <ele>49.7</ele>
        <time>2023-07-02T12:19:25Z</time>
      </trkpt>
      <trkpt lat="49.82502" lon="2.56968">
        <ele>49.7</ele>
        <time>2023-07-02T12:19:26Z</time>
      </trkpt>
      <trkpt lat="49.82504" lon="2.56967">
        <ele>49.7</ele>
        <time>2023-07-02T12:19:27Z</time>
      </trkpt>
      <trkpt lat="49.82505" lon="2.56966">
        <ele>49.7</ele>
        <time>2023-07-02T12:19:28Z</time>
      </trkpt>
      <trkpt lat="49.82507" lon="2.56965">
        <ele>49.7</ele>
        <time>2023-07-02T12:19:29Z</time>
      </trkpt>
      <trkpt lat="49.82508" lon="2.56964">
        <ele>49.7</ele>
        <time>2023-07-02T12:19:30Z</time>
      </trkpt>
      <trkpt lat="49.82509" lon="2.56964">
        <ele>49.7</ele>
        <time>2023-07-02T12:19:31Z</time>
      </trkpt>
      <trkpt lat="49.8251" lon="2.56963">
        <ele>49.7</ele>
        <time>2023-07-02T12:19:33Z</time>
      </trkpt>
      <trkpt lat="49.82511" lon="2.56963">
        <ele>49.7</ele>
        <time>2023-07-02T12:19:34Z</time>
      </trkpt>
      <trkpt lat="49.82513" lon="2.56962">
        <ele>49.6</ele>
        <time>2023-07-02T12:19:35Z</time>
      </trkpt>
      <trkpt lat="49.82514" lon="2.56961">
        <ele>49.6</ele>
        <time>2023-07-02T12:19:36Z</time>
      </trkpt>
      <trkpt lat="49.82514" lon="2.56961">
        <ele>49.6</ele>
        <time>2023-07-02T12:19:37Z</time>
      </trkpt>
      <trkpt lat="49.82516" lon="2.56959">
        <ele>49.6</ele>
        <time>2023-07-02T12:19:38Z</time>
      </trkpt>
      <trkpt lat="49.82517" lon="2.56958">
        <ele>49.6</ele>
        <time>2023-07-02T12:19:39Z</time>
      </trkpt>
      <trkpt lat="49.82517" lon="2.56958">
        <ele>49.6</ele>
        <time>2023-07-02T12:19:40Z</time>
      </trkpt>
      <trkpt lat="49.82519" lon="2.56956">
        <ele>49.6</ele>
        <time>2023-07-02T12:19:42Z</time>
      </trkpt>
      <trkpt lat="49.8252" lon="2.56954">
        <ele>49.6</ele>
        <time>2023-07-02T12:19:43Z</time>
      </trkpt>
      <trkpt lat="49.82521" lon="2.56953">
        <ele>49.6</ele>
        <time>2023-07-02T12:19:44Z</time>
      </trkpt>
      <trkpt lat="49.82522" lon="2.56952">
        <ele>49.6</ele>
        <time>2023-07-02T12:19:45Z</time>
      </trkpt>
      <trkpt lat="49.82523" lon="2.56951">
        <ele>49.6</ele>
        <time>2023-07-02T12:19:47Z</time>
      </trkpt>
      <trkpt lat="49.82525" lon="2.56949">
        <ele>49.5</ele>
        <time>2023-07-02T12:19:48Z</time>
      </trkpt>
      <trkpt lat="49.82526" lon="2.56948">
        <ele>49.5</ele>
        <time>2023-07-02T12:19:49Z</time>
      </trkpt>
      <trkpt lat="49.82526" lon="2.56948">
        <ele>49.5</ele>
        <time>2023-07-02T12:19:50Z</time>
      </trkpt>
      <trkpt lat="49.82528" lon="2.56947">
        <ele>49.5</ele>
        <time>2023-07-02T12:19:51Z</time>
      </trkpt>
      <trkpt lat="49.82529" lon="2.56946">
        <ele>49.5</ele>
        <time>2023-07-02T12:19:52Z</time>
      </trkpt>
      <trkpt lat="49.8253" lon="2.56946">
        <ele>49.5</ele>
        <time>2023-07-02T12:19:53Z</time>
      </trkpt>
      <trkpt lat="49.82531" lon="2.56945">
        <ele>49.5</ele>
        <time>2023-07-02T12:19:54Z</time>
      </trkpt>
      <trkpt lat="49.82533" lon="2.56944">
        <ele>49.5</ele>
        <time>2023-07-02T12:19:56Z</time>
      </trkpt>
      <trkpt lat="49.82534" lon="2.56944">
        <ele>49.5</ele>
        <time>2023-07-02T12:19:57Z</time>
      </trkpt>
      <trkpt lat="49.82535" lon="2.56943">
        <ele>49.5</ele>
        <time>2023-07-02T12:19:58Z</time>
      </trkpt>
      <trkpt lat="49.82535" lon="2.56942">
        <ele>49.5</ele>
        <time>2023-07-02T12:19:59Z</time>
      </trkpt>
      <trkpt lat="49.82537" lon="2.56941">
        <ele>49.4</ele>
        <time>2023-07-02T12:20:00Z</time>
      </trkpt>
      <trkpt lat="49.82538" lon="2.5694">
        <ele>49.4</ele>
        <time>2023-07-02T12:20:02Z</time>
      </trkpt>
      <trkpt lat="49.82539" lon="2.56939">
        <ele>49.4</ele>
        <time>2023-07-02T12:20:03Z</time>
      </trkpt>
      <trkpt lat="49.8254" lon="2.56938">
        <ele>49.4</ele>
        <time>2023-07-02T12:20:04Z</time>
      </trkpt>
      <trkpt lat="49.82541" lon="2.56938">
        <ele>49.4</ele>
        <time>2023-07-02T12:20:05Z</time>
      </trkpt>
      <trkpt lat="49.82542" lon="2.56937">
        <ele>49.4</ele>
        <time>2023-07-02T12:20:06Z</time>
      </trkpt>
      <trkpt lat="49.82543" lon="2.56936">
        <ele>49.4</ele>
        <time>2023-07-02T12:20:07Z</time>
      </trkpt>
      <trkpt lat="49.82544" lon="2.56936">
        <ele>49.4</ele>
        <time>2023-07-02T12:20:08Z</time>
      </trkpt>
      <trkpt lat="49.82546" lon="2.56935">
        <ele>49.4</ele>
        <time>2023-07-02T12:20:10Z</time>
      </trkpt>
      <trkpt lat="49.82547" lon="2.56934">
        <ele>49.3</ele>
        <time>2023-07-02T12:20:11Z</time>
      </trkpt>
      <trkpt lat="49.82549" lon="2.56934">
        <ele>49.3</ele>
        <time>2023-07-02T12:20:12Z</time>
      </trkpt>
      <trkpt lat="49.8255" lon="2.56933">
        <ele>49.3</ele>
        <time>2023-07-02T12:20:13Z</time>
      </trkpt>
      <trkpt lat="49.82551" lon="2.56933">
        <ele>49.3</ele>
        <time>2023-07-02T12:20:14Z</time>
      </trkpt>
      <trkpt lat="49.82553" lon="2.56932">
        <ele>49.3</ele>
        <time>2023-07-02T12:20:16Z</time>
      </trkpt>
      <trkpt lat="49.82554" lon="2.56931">
        <ele>49.3</ele>
        <time>2023-07-02T12:20:17Z</time>
      </trkpt>
      <trkpt lat="49.82556" lon="2.5693">
        <ele>49.3</ele>
        <time>2023-07-02T12:20:18Z</time>
      </trkpt>
      <trkpt lat="49.82557" lon="2.56929">
        <ele>49.2</ele>
        <time>2023-07-02T12:20:19Z</time>
      </trkpt>
      <trkpt lat="49.82558" lon="2.56929">
        <ele>49.2</ele>
        <time>2023-07-02T12:20:20Z</time>
      </trkpt>
      <trkpt lat="49.82559" lon="2.56928">
        <ele>49.2</ele>
        <time>2023-07-02T12:20:21Z</time>
      </trkpt>
      <trkpt lat="49.8256" lon="2.56927">
        <ele>49.2</ele>
        <time>2023-07-02T12:20:22Z</time>
      </trkpt>
      <trkpt lat="49.82561" lon="2.56926">
        <ele>49.2</ele>
        <time>2023-07-02T12:20:24Z</time>
      </trkpt>
      <trkpt lat="49.82563" lon="2.56925">
        <ele>49.2</ele>
        <time>2023-07-02T12:20:25Z</time>
      </trkpt>
      <trkpt lat="49.82564" lon="2.56924">
        <ele>49.2</ele>
        <time>2023-07-02T12:20:26Z</time>
      </trkpt>
      <trkpt lat="49.82565" lon="2.56923">
        <ele>49.1</ele>
        <time>2023-07-02T12:20:27Z</time>
      </trkpt>
      <trkpt lat="49.82566" lon="2.56922">
        <ele>49.1</ele>
        <time>2023-07-02T12:20:29Z</time>
      </trkpt>
      <trkpt lat="49.82567" lon="2.56921">
        <ele>49.1</ele>
        <time>2023-07-02T12:20:30Z</time>
      </trkpt>
      <trkpt lat="49.82569" lon="2.56921">
        <ele>49.1</ele>
        <time>2023-07-02T12:20:31Z</time>
      </trkpt>
      <trkpt lat="49.8257" lon="2.5692">
        <ele>49.1</ele>
        <time>2023-07-02T12:20:32Z</time>
      </trkpt>
      <trkpt lat="49.8257" lon="2.56919">
        <ele>49.1</ele>
        <time>2023-07-02T12:20:33Z</time>
      </trkpt>
      <trkpt lat="49.82571" lon="2.56918">
        <ele>49.1</ele>
        <time>2023-07-02T12:20:34Z</time>
      </trkpt>
      <trkpt lat="49.82572" lon="2.56918">
        <ele>49.1</ele>
        <time>2023-07-02T12:20:36Z</time>
      </trkpt>
      <trkpt lat="49.82572" lon="2.56918">
        <ele>49.1</ele>
        <time>2023-07-02T12:20:37Z</time>
      </trkpt>
      <trkpt lat="49.82572" lon="2.56918">
        <ele>49.1</ele>
        <time>2023-07-02T12:20:38Z</time>
      </trkpt>
      <trkpt lat="49.82572" lon="2.56917">
        <ele>49</ele>
        <time>2023-07-02T12:20:40Z</time>
      </trkpt>
      <trkpt lat="49.82572" lon="2.56916">
        <ele>49</ele>
        <time>2023-07-02T12:20:41Z</time>
      </trkpt>
      <trkpt lat="49.82572" lon="2.56915">
        <ele>49</ele>
        <time>2023-07-02T12:20:43Z</time>
      </trkpt>
      <trkpt lat="49.82572" lon="2.56915">
        <ele>49</ele>
        <time>2023-07-02T12:20:44Z</time>
      </trkpt>
      <trkpt lat="49.82572" lon="2.56915">
        <ele>49</ele>
        <time>2023-07-02T12:20:46Z</time>
      </trkpt>
      <trkpt lat="49.82572" lon="2.56915">
        <ele>49</ele>
        <time>2023-07-02T12:20:47Z</time>
      </trkpt>
      <trkpt lat="49.82572" lon="2.56915">
        <ele>49</ele>
        <time>2023-07-02T12:20:48Z</time>
      </trkpt>
      <trkpt lat="49.82572" lon="2.56915">
        <ele>49</ele>
        <time>2023-07-02T12:20:50Z</time>
      </trkpt>
      <trkpt lat="49.82572" lon="2.56915">
        <ele>49</ele>
        <time>2023-07-02T12:20:51Z</time>
      </trkpt>
      <trkpt lat="49.82571" lon="2.56915">
        <ele>49</ele>
        <time>2023-07-02T12:20:52Z</time>
      </trkpt>
      <trkpt lat="49.82571" lon="2.56915">
        <ele>49</ele>
        <time>2023-07-02T12:20:53Z</time>
      </trkpt>
      <trkpt lat="49.82571" lon="2.56915">
        <ele>49</ele>
        <time>2023-07-02T12:20:54Z</time>
      </trkpt>
      <trkpt lat="49.82571" lon="2.56915">
        <ele>49</ele>
        <time>2023-07-02T12:20:55Z</time>
      </trkpt>
      <trkpt lat="49.82571" lon="2.56915">
        <ele>49</ele>
        <time>2023-07-02T12:20:56Z</time>
      </trkpt>
      <trkpt lat="49.82569" lon="2.56916">
        <ele>49</ele>
        <time>2023-07-02T12:20:57Z</time>
      </trkpt>
      <trkpt lat="49.82568" lon="2.56918">
        <ele>49</ele>
        <time>2023-07-02T12:20:58Z</time>
      </trkpt>
      <trkpt lat="49.8257" lon="2.56918">
        <ele>49</ele>
        <time>2023-07-02T12:21:00Z</time>
      </trkpt>
      <trkpt lat="49.82571" lon="2.56918">
        <ele>49</ele>
        <time>2023-07-02T12:21:01Z</time>
      </trkpt>
      <trkpt lat="49.82571" lon="2.56919">
        <ele>49</ele>
        <time>2023-07-02T12:21:02Z</time>
      </trkpt>
      <trkpt lat="49.82572" lon="2.56919">
        <ele>49</ele>
        <time>2023-07-02T12:21:03Z</time>
      </trkpt>
      <trkpt lat="49.82573" lon="2.5692">
        <ele>48.9</ele>
        <time>2023-07-02T12:21:04Z</time>
      </trkpt>
      <trkpt lat="49.82574" lon="2.56921">
        <ele>48.9</ele>
        <time>2023-07-02T12:21:06Z</time>
      </trkpt>
      <trkpt lat="49.82575" lon="2.5692">
        <ele>48.9</ele>
        <time>2023-07-02T12:21:07Z</time>
      </trkpt>
      <trkpt lat="49.82575" lon="2.56919">
        <ele>48.9</ele>
        <time>2023-07-02T12:21:08Z</time>
      </trkpt>
      <trkpt lat="49.82576" lon="2.56917">
        <ele>48.9</ele>
        <time>2023-07-02T12:21:09Z</time>
      </trkpt>
      <trkpt lat="49.82577" lon="2.56916">
        <ele>48.9</ele>
        <time>2023-07-02T12:21:10Z</time>
      </trkpt>
      <trkpt lat="49.82578" lon="2.56916">
        <ele>48.9</ele>
        <time>2023-07-02T12:21:12Z</time>
      </trkpt>
      <trkpt lat="49.82578" lon="2.56916">
        <ele>48.9</ele>
        <time>2023-07-02T12:21:13Z</time>
      </trkpt>
      <trkpt lat="49.82579" lon="2.56915">
        <ele>48.9</ele>
        <time>2023-07-02T12:21:14Z</time>
      </trkpt>
      <trkpt lat="49.8258" lon="2.56915">
        <ele>48.9</ele>
        <time>2023-07-02T12:21:15Z</time>
      </trkpt>
      <trkpt lat="49.82581" lon="2.56914">
        <ele>48.9</ele>
        <time>2023-07-02T12:21:16Z</time>
      </trkpt>
      <trkpt lat="49.82582" lon="2.56914">
        <ele>48.9</ele>
        <time>2023-07-02T12:21:17Z</time>
      </trkpt>
      <trkpt lat="49.82583" lon="2.56914">
        <ele>48.9</ele>
        <time>2023-07-02T12:21:19Z</time>
      </trkpt>
      <trkpt lat="49.82584" lon="2.56913">
        <ele>48.8</ele>
        <time>2023-07-02T12:21:20Z</time>
      </trkpt>
      <trkpt lat="49.82585" lon="2.56913">
        <ele>48.8</ele>
        <time>2023-07-02T12:21:21Z</time>
      </trkpt>
      <trkpt lat="49.82586" lon="2.56912">
        <ele>48.8</ele>
        <time>2023-07-02T12:21:22Z</time>
      </trkpt>
      <trkpt lat="49.82587" lon="2.56911">
        <ele>48.8</ele>
        <time>2023-07-02T12:21:23Z</time>
      </trkpt>
      <trkpt lat="49.82588" lon="2.56911">
        <ele>48.8</ele>
        <time>2023-07-02T12:21:24Z</time>
      </trkpt>
      <trkpt lat="49.82589" lon="2.56911">
        <ele>48.8</ele>
        <time>2023-07-02T12:21:25Z</time>
      </trkpt>
      <trkpt lat="49.8259" lon="2.5691">
        <ele>48.8</ele>
        <time>2023-07-02T12:21:27Z</time>
      </trkpt>
      <trkpt lat="49.82591" lon="2.5691">
        <ele>48.8</ele>
        <time>2023-07-02T12:21:28Z</time>
      </trkpt>
      <trkpt lat="49.82591" lon="2.56909">
        <ele>48.8</ele>
        <time>2023-07-02T12:21:29Z</time>
      </trkpt>
      <trkpt lat="49.82592" lon="2.56909">
        <ele>48.8</ele>
        <time>2023-07-02T12:21:30Z</time>
      </trkpt>
      <trkpt lat="49.82595" lon="2.56906">
        <ele>48.8</ele>
        <time>2023-07-02T12:21:32Z</time>
      </trkpt>
      <trkpt lat="49.82596" lon="2.56906">
        <ele>48.8</ele>
        <time>2023-07-02T12:21:33Z</time>
      </trkpt>
      <trkpt lat="49.82599" lon="2.56903">
        <ele>48.8</ele>
        <time>2023-07-02T12:21:34Z</time>
      </trkpt>
      <trkpt lat="49.82599" lon="2.56902">
        <ele>48.8</ele>
        <time>2023-07-02T12:21:35Z</time>
      </trkpt>
      <trkpt lat="49.82601" lon="2.56902">
        <ele>48.7</ele>
        <time>2023-07-02T12:21:36Z</time>
      </trkpt>
      <trkpt lat="49.82602" lon="2.56902">
        <ele>48.7</ele>
        <time>2023-07-02T12:21:37Z</time>
      </trkpt>
      <trkpt lat="49.82604" lon="2.56903">
        <ele>48.7</ele>
        <time>2023-07-02T12:21:39Z</time>
      </trkpt>
      <trkpt lat="49.82604" lon="2.56904">
        <ele>48.7</ele>
        <time>2023-07-02T12:21:40Z</time>
      </trkpt>
      <trkpt lat="49.82603" lon="2.56907">
        <ele>48.7</ele>
        <time>2023-07-02T12:21:42Z</time>
      </trkpt>
      <trkpt lat="49.82602" lon="2.56908">
        <ele>48.7</ele>
        <time>2023-07-02T12:21:43Z</time>
      </trkpt>
      <trkpt lat="49.82602" lon="2.56908">
        <ele>48.7</ele>
        <time>2023-07-02T12:21:45Z</time>
      </trkpt>
      <trkpt lat="49.82602" lon="2.56909">
        <ele>48.7</ele>
        <time>2023-07-02T12:21:46Z</time>
      </trkpt>
      <trkpt lat="49.82602" lon="2.56909">
        <ele>48.7</ele>
        <time>2023-07-02T12:21:47Z</time>
      </trkpt>
      <trkpt lat="49.82601" lon="2.56909">
        <ele>48.7</ele>
        <time>2023-07-02T12:21:48Z</time>
      </trkpt>
      <trkpt lat="49.82601" lon="2.5691">
        <ele>48.7</ele>
        <time>2023-07-02T12:21:50Z</time>
      </trkpt>
      <trkpt lat="49.82601" lon="2.5691">
        <ele>48.7</ele>
        <time>2023-07-02T12:21:51Z</time>
      </trkpt>
      <trkpt lat="49.82601" lon="2.56911">
        <ele>48.7</ele>
        <time>2023-07-02T12:21:52Z</time>
      </trkpt>
      <trkpt lat="49.82601" lon="2.56911">
        <ele>48.7</ele>
        <time>2023-07-02T12:21:54Z</time>
      </trkpt>
      <trkpt lat="49.82601" lon="2.56911">
        <ele>48.7</ele>
        <time>2023-07-02T12:21:55Z</time>
      </trkpt>
      <trkpt lat="49.826" lon="2.56912">
        <ele>48.7</ele>
        <time>2023-07-02T12:21:57Z</time>
      </trkpt>
      <trkpt lat="49.826" lon="2.56912">
        <ele>48.7</ele>
        <time>2023-07-02T12:21:58Z</time>
      </trkpt>
      <trkpt lat="49.826" lon="2.56912">
        <ele>48.7</ele>
        <time>2023-07-02T12:22:00Z</time>
      </trkpt>
      <trkpt lat="49.826" lon="2.56911">
        <ele>48.7</ele>
        <time>2023-07-02T12:22:01Z</time>
      </trkpt>
      <trkpt lat="49.826" lon="2.56911">
        <ele>48.7</ele>
        <time>2023-07-02T12:22:02Z</time>
      </trkpt>
      <trkpt lat="49.826" lon="2.5691">
        <ele>48.7</ele>
        <time>2023-07-02T12:22:04Z</time>
      </trkpt>
      <trkpt lat="49.826" lon="2.5691">
        <ele>48.7</ele>
        <time>2023-07-02T12:22:05Z</time>
      </trkpt>
      <trkpt lat="49.826" lon="2.56909">
        <ele>48.7</ele>
        <time>2023-07-02T12:22:07Z</time>
      </trkpt>
      <trkpt lat="49.826" lon="2.56908">
        <ele>48.7</ele>
        <time>2023-07-02T12:22:08Z</time>
      </trkpt>
      <trkpt lat="49.826" lon="2.56907">
        <ele>48.7</ele>
        <time>2023-07-02T12:22:10Z</time>
      </trkpt>
      <trkpt lat="49.826" lon="2.56906">
        <ele>48.7</ele>
        <time>2023-07-02T12:22:11Z</time>
      </trkpt>
      <trkpt lat="49.82601" lon="2.56905">
        <ele>48.6</ele>
        <time>2023-07-02T12:22:12Z</time>
      </trkpt>
      <trkpt lat="49.82601" lon="2.56904">
        <ele>48.6</ele>
        <time>2023-07-02T12:22:13Z</time>
      </trkpt>
      <trkpt lat="49.82601" lon="2.56904">
        <ele>48.6</ele>
        <time>2023-07-02T12:22:14Z</time>
      </trkpt>
      <trkpt lat="49.82601" lon="2.56904">
        <ele>48.6</ele>
        <time>2023-07-02T12:22:15Z</time>
      </trkpt>
      <trkpt lat="49.82601" lon="2.56904">
        <ele>48.6</ele>
        <time>2023-07-02T12:22:16Z</time>
      </trkpt>
      <trkpt lat="49.82601" lon="2.56904">
        <ele>48.6</ele>
        <time>2023-07-02T12:22:17Z</time>
      </trkpt>
      <trkpt lat="49.82601" lon="2.56904">
        <ele>48.6</ele>
        <time>2023-07-02T12:22:18Z</time>
      </trkpt>
      <trkpt lat="49.82601" lon="2.56904">
        <ele>48.6</ele>
        <time>2023-07-02T12:22:19Z</time>
      </trkpt>
      <trkpt lat="49.82601" lon="2.56904">
        <ele>48.6</ele>
        <time>2023-07-02T12:22:20Z</time>
      </trkpt>
      <trkpt lat="49.82601" lon="2.56904">
        <ele>48.6</ele>
        <time>2023-07-02T12:22:21Z</time>
      </trkpt>
      <trkpt lat="49.82601" lon="2.56904">
        <ele>48.6</ele>
        <time>2023-07-02T12:22:22Z</time>
      </trkpt>
      <trkpt lat="49.82601" lon="2.56904">
        <ele>48.6</ele>
        <time>2023-07-02T12:22:23Z</time>
      </trkpt>
      <trkpt lat="49.82601" lon="2.56904">
        <ele>48.6</ele>
        <time>2023-07-02T12:22:24Z</time>
      </trkpt>
    </trkseg>
  </trk>
</gpx>